<?xml version="1.0" encoding="UTF-8" standalone="no" ?>
<gpx xmlns="http://www.topografix.com/GPX/1/1" xmlns:xsi="http://www.w3.org/2001/XMLSchema-instance" xsi:schemaLocation="http://www.topografix.com/GPX/1/1 http://www.topografix.com/GPX/1/1/gpx.xsd" version="1.1" creator="VisuGPX - https://www.visugpx.com">
  <metadata>
    <name>Grenoble Trail - 2021-07-11</name>
  </metadata>
  <trk>
    <name><![CDATA[Grenoble Trail]]></name>
    <trkseg>
      <trkpt lat="45.19671" lon="5.7397">
        <ele>245.60000610352</ele>
        <time>2021-07-11T03:18:12.000Z</time>
      </trkpt>
      <trkpt lat="45.19669" lon="5.7397">
        <ele>245.60000610352</ele>
        <time>2021-07-11T03:18:15.000Z</time>
      </trkpt>
      <trkpt lat="45.19665" lon="5.73971">
        <ele>245.60000610352</ele>
        <time>2021-07-11T03:18:17.000Z</time>
      </trkpt>
      <trkpt lat="45.19663" lon="5.73971">
        <ele>245.60000610352</ele>
        <time>2021-07-11T03:18:18.000Z</time>
      </trkpt>
      <trkpt lat="45.19658" lon="5.73971">
        <ele>245.60000610352</ele>
        <time>2021-07-11T03:18:23.000Z</time>
      </trkpt>
      <trkpt lat="45.19657" lon="5.73972">
        <ele>245.60000610352</ele>
        <time>2021-07-11T03:18:24.000Z</time>
      </trkpt>
      <trkpt lat="45.19651" lon="5.73973">
        <ele>245.60000610352</ele>
        <time>2021-07-11T03:18:31.000Z</time>
      </trkpt>
      <trkpt lat="45.19649" lon="5.73968">
        <ele>245.60000610352</ele>
        <time>2021-07-11T03:18:37.000Z</time>
      </trkpt>
      <trkpt lat="45.19646" lon="5.73973">
        <ele>244.39999389648</ele>
        <time>2021-07-11T03:18:40.000Z</time>
      </trkpt>
      <trkpt lat="45.19644" lon="5.73971">
        <ele>242.80000305176</ele>
        <time>2021-07-11T03:18:47.000Z</time>
      </trkpt>
      <trkpt lat="45.19643" lon="5.7397">
        <ele>242.19999694824</ele>
        <time>2021-07-11T03:18:50.000Z</time>
      </trkpt>
      <trkpt lat="45.19642" lon="5.7397">
        <ele>241</ele>
        <time>2021-07-11T03:18:52.000Z</time>
      </trkpt>
      <trkpt lat="45.19641" lon="5.7397">
        <ele>240</ele>
        <time>2021-07-11T03:18:56.000Z</time>
      </trkpt>
      <trkpt lat="45.1964" lon="5.73971">
        <ele>240</ele>
        <time>2021-07-11T03:18:57.000Z</time>
      </trkpt>
      <trkpt lat="45.19639" lon="5.7397">
        <ele>239.80000305176</ele>
        <time>2021-07-11T03:18:59.000Z</time>
      </trkpt>
      <trkpt lat="45.19638" lon="5.73968">
        <ele>239</ele>
        <time>2021-07-11T03:19:01.000Z</time>
      </trkpt>
      <trkpt lat="45.19637" lon="5.73966">
        <ele>237.80000305176</ele>
        <time>2021-07-11T03:19:04.000Z</time>
      </trkpt>
      <trkpt lat="45.19638" lon="5.73967">
        <ele>237.80000305176</ele>
        <time>2021-07-11T03:19:05.000Z</time>
      </trkpt>
      <trkpt lat="45.19638" lon="5.73967">
        <ele>237.60000610352</ele>
        <time>2021-07-11T03:19:06.000Z</time>
      </trkpt>
      <trkpt lat="45.19642" lon="5.7397">
        <ele>239.80000305176</ele>
        <time>2021-07-11T03:19:09.000Z</time>
      </trkpt>
      <trkpt lat="45.19643" lon="5.73977">
        <ele>239.80000305176</ele>
        <time>2021-07-11T03:19:12.000Z</time>
      </trkpt>
      <trkpt lat="45.19645" lon="5.73976">
        <ele>239.80000305176</ele>
        <time>2021-07-11T03:19:14.000Z</time>
      </trkpt>
      <trkpt lat="45.19646" lon="5.73976">
        <ele>240</ele>
        <time>2021-07-11T03:19:15.000Z</time>
      </trkpt>
      <trkpt lat="45.19649" lon="5.73975">
        <ele>240.39999389648</ele>
        <time>2021-07-11T03:19:18.000Z</time>
      </trkpt>
      <trkpt lat="45.19649" lon="5.73973">
        <ele>240.39999389648</ele>
        <time>2021-07-11T03:19:19.000Z</time>
      </trkpt>
      <trkpt lat="45.19651" lon="5.73971">
        <ele>240.39999389648</ele>
        <time>2021-07-11T03:19:20.000Z</time>
      </trkpt>
      <trkpt lat="45.19657" lon="5.73961">
        <ele>240.39999389648</ele>
        <time>2021-07-11T03:19:25.000Z</time>
      </trkpt>
      <trkpt lat="45.19661" lon="5.73956">
        <ele>240.39999389648</ele>
        <time>2021-07-11T03:19:27.000Z</time>
      </trkpt>
      <trkpt lat="45.19667" lon="5.73953">
        <ele>240</ele>
        <time>2021-07-11T03:19:29.000Z</time>
      </trkpt>
      <trkpt lat="45.1967" lon="5.73953">
        <ele>240.19999694824</ele>
        <time>2021-07-11T03:19:30.000Z</time>
      </trkpt>
      <trkpt lat="45.19673" lon="5.73952">
        <ele>240</ele>
        <time>2021-07-11T03:19:33.000Z</time>
      </trkpt>
      <trkpt lat="45.19673" lon="5.73951">
        <ele>240</ele>
        <time>2021-07-11T03:19:34.000Z</time>
      </trkpt>
      <trkpt lat="45.19675" lon="5.73957">
        <ele>240.19999694824</ele>
        <time>2021-07-11T03:19:37.000Z</time>
      </trkpt>
      <trkpt lat="45.19678" lon="5.7396">
        <ele>240.19999694824</ele>
        <time>2021-07-11T03:19:39.000Z</time>
      </trkpt>
      <trkpt lat="45.19684" lon="5.73966">
        <ele>240.19999694824</ele>
        <time>2021-07-11T03:19:42.000Z</time>
      </trkpt>
      <trkpt lat="45.19687" lon="5.73971">
        <ele>240.19999694824</ele>
        <time>2021-07-11T03:19:44.000Z</time>
      </trkpt>
      <trkpt lat="45.19691" lon="5.73975">
        <ele>240.19999694824</ele>
        <time>2021-07-11T03:19:46.000Z</time>
      </trkpt>
      <trkpt lat="45.19697" lon="5.73981">
        <ele>240.39999389648</ele>
        <time>2021-07-11T03:19:49.000Z</time>
      </trkpt>
      <trkpt lat="45.19703" lon="5.73987">
        <ele>240.19999694824</ele>
        <time>2021-07-11T03:19:52.000Z</time>
      </trkpt>
      <trkpt lat="45.19708" lon="5.74">
        <ele>240.39999389648</ele>
        <time>2021-07-11T03:19:57.000Z</time>
      </trkpt>
      <trkpt lat="45.19709" lon="5.74005">
        <ele>240.39999389648</ele>
        <time>2021-07-11T03:19:59.000Z</time>
      </trkpt>
      <trkpt lat="45.19714" lon="5.74026">
        <ele>240.60000610352</ele>
        <time>2021-07-11T03:20:05.000Z</time>
      </trkpt>
      <trkpt lat="45.19715" lon="5.74032">
        <ele>240.60000610352</ele>
        <time>2021-07-11T03:20:07.000Z</time>
      </trkpt>
      <trkpt lat="45.19719" lon="5.74052">
        <ele>240.39999389648</ele>
        <time>2021-07-11T03:20:14.000Z</time>
      </trkpt>
      <trkpt lat="45.1972" lon="5.74055">
        <ele>240.39999389648</ele>
        <time>2021-07-11T03:20:15.000Z</time>
      </trkpt>
      <trkpt lat="45.19723" lon="5.74077">
        <ele>240.39999389648</ele>
        <time>2021-07-11T03:20:22.000Z</time>
      </trkpt>
      <trkpt lat="45.19726" lon="5.74107">
        <ele>240.19999694824</ele>
        <time>2021-07-11T03:20:31.000Z</time>
      </trkpt>
      <trkpt lat="45.19727" lon="5.74113">
        <ele>240.39999389648</ele>
        <time>2021-07-11T03:20:33.000Z</time>
      </trkpt>
      <trkpt lat="45.19732" lon="5.74137">
        <ele>240.80000305176</ele>
        <time>2021-07-11T03:20:41.000Z</time>
      </trkpt>
      <trkpt lat="45.19733" lon="5.74143">
        <ele>240.19999694824</ele>
        <time>2021-07-11T03:20:43.000Z</time>
      </trkpt>
      <trkpt lat="45.19734" lon="5.74149">
        <ele>240.39999389648</ele>
        <time>2021-07-11T03:20:45.000Z</time>
      </trkpt>
      <trkpt lat="45.19736" lon="5.74176">
        <ele>240</ele>
        <time>2021-07-11T03:20:52.000Z</time>
      </trkpt>
      <trkpt lat="45.19739" lon="5.74198">
        <ele>240.39999389648</ele>
        <time>2021-07-11T03:20:59.000Z</time>
      </trkpt>
      <trkpt lat="45.19743" lon="5.74213">
        <ele>240.60000610352</ele>
        <time>2021-07-11T03:21:04.000Z</time>
      </trkpt>
      <trkpt lat="45.19745" lon="5.74223">
        <ele>240.60000610352</ele>
        <time>2021-07-11T03:21:07.000Z</time>
      </trkpt>
      <trkpt lat="45.19743" lon="5.74226">
        <ele>240.60000610352</ele>
        <time>2021-07-11T03:21:08.000Z</time>
      </trkpt>
      <trkpt lat="45.19737" lon="5.74235">
        <ele>240.60000610352</ele>
        <time>2021-07-11T03:21:11.000Z</time>
      </trkpt>
      <trkpt lat="45.19731" lon="5.74239">
        <ele>240.60000610352</ele>
        <time>2021-07-11T03:21:13.000Z</time>
      </trkpt>
      <trkpt lat="45.19726" lon="5.74241">
        <ele>240.80000305176</ele>
        <time>2021-07-11T03:21:15.000Z</time>
      </trkpt>
      <trkpt lat="45.19721" lon="5.74244">
        <ele>240.80000305176</ele>
        <time>2021-07-11T03:21:17.000Z</time>
      </trkpt>
      <trkpt lat="45.19706" lon="5.74252">
        <ele>240.80000305176</ele>
        <time>2021-07-11T03:21:23.000Z</time>
      </trkpt>
      <trkpt lat="45.19687" lon="5.74257">
        <ele>240.80000305176</ele>
        <time>2021-07-11T03:21:30.000Z</time>
      </trkpt>
      <trkpt lat="45.19685" lon="5.74256">
        <ele>240.60000610352</ele>
        <time>2021-07-11T03:21:31.000Z</time>
      </trkpt>
      <trkpt lat="45.19672" lon="5.74256">
        <ele>240.80000305176</ele>
        <time>2021-07-11T03:21:36.000Z</time>
      </trkpt>
      <trkpt lat="45.19655" lon="5.74252">
        <ele>241.19999694824</ele>
        <time>2021-07-11T03:21:43.000Z</time>
      </trkpt>
      <trkpt lat="45.19653" lon="5.74252">
        <ele>241</ele>
        <time>2021-07-11T03:21:44.000Z</time>
      </trkpt>
      <trkpt lat="45.19636" lon="5.74248">
        <ele>241.19999694824</ele>
        <time>2021-07-11T03:21:51.000Z</time>
      </trkpt>
      <trkpt lat="45.19629" lon="5.74248">
        <ele>241.19999694824</ele>
        <time>2021-07-11T03:21:54.000Z</time>
      </trkpt>
      <trkpt lat="45.19622" lon="5.74247">
        <ele>241.19999694824</ele>
        <time>2021-07-11T03:21:56.000Z</time>
      </trkpt>
      <trkpt lat="45.19604" lon="5.74239">
        <ele>241.39999389648</ele>
        <time>2021-07-11T03:22:03.000Z</time>
      </trkpt>
      <trkpt lat="45.19589" lon="5.74237">
        <ele>241.19999694824</ele>
        <time>2021-07-11T03:22:09.000Z</time>
      </trkpt>
      <trkpt lat="45.19584" lon="5.74237">
        <ele>241.19999694824</ele>
        <time>2021-07-11T03:22:11.000Z</time>
      </trkpt>
      <trkpt lat="45.19565" lon="5.74233">
        <ele>241.39999389648</ele>
        <time>2021-07-11T03:22:19.000Z</time>
      </trkpt>
      <trkpt lat="45.19563" lon="5.74233">
        <ele>241.39999389648</ele>
        <time>2021-07-11T03:22:20.000Z</time>
      </trkpt>
      <trkpt lat="45.19545" lon="5.74228">
        <ele>241.39999389648</ele>
        <time>2021-07-11T03:22:27.000Z</time>
      </trkpt>
      <trkpt lat="45.19542" lon="5.74227">
        <ele>241.39999389648</ele>
        <time>2021-07-11T03:22:28.000Z</time>
      </trkpt>
      <trkpt lat="45.19531" lon="5.74224">
        <ele>241.80000305176</ele>
        <time>2021-07-11T03:22:32.000Z</time>
      </trkpt>
      <trkpt lat="45.19522" lon="5.7422">
        <ele>242.19999694824</ele>
        <time>2021-07-11T03:22:36.000Z</time>
      </trkpt>
      <trkpt lat="45.1951" lon="5.74216">
        <ele>243</ele>
        <time>2021-07-11T03:22:41.000Z</time>
      </trkpt>
      <trkpt lat="45.19507" lon="5.74215">
        <ele>243</ele>
        <time>2021-07-11T03:22:43.000Z</time>
      </trkpt>
      <trkpt lat="45.19507" lon="5.74214">
        <ele>243</ele>
        <time>2021-07-11T03:22:44.000Z</time>
      </trkpt>
      <trkpt lat="45.19514" lon="5.74209">
        <ele>243.19999694824</ele>
        <time>2021-07-11T03:22:47.000Z</time>
      </trkpt>
      <trkpt lat="45.19535" lon="5.74208">
        <ele>242.80000305176</ele>
        <time>2021-07-11T03:22:57.000Z</time>
      </trkpt>
      <trkpt lat="45.19538" lon="5.74208">
        <ele>242.60000610352</ele>
        <time>2021-07-11T03:22:58.000Z</time>
      </trkpt>
      <trkpt lat="45.19557" lon="5.74213">
        <ele>242.39999389648</ele>
        <time>2021-07-11T03:23:06.000Z</time>
      </trkpt>
      <trkpt lat="45.19562" lon="5.74213">
        <ele>242.39999389648</ele>
        <time>2021-07-11T03:23:08.000Z</time>
      </trkpt>
      <trkpt lat="45.19578" lon="5.74212">
        <ele>242.60000610352</ele>
        <time>2021-07-11T03:23:15.000Z</time>
      </trkpt>
      <trkpt lat="45.19592" lon="5.74217">
        <ele>242.39999389648</ele>
        <time>2021-07-11T03:23:21.000Z</time>
      </trkpt>
      <trkpt lat="45.19612" lon="5.74223">
        <ele>242.39999389648</ele>
        <time>2021-07-11T03:23:27.000Z</time>
      </trkpt>
      <trkpt lat="45.19618" lon="5.74224">
        <ele>242.60000610352</ele>
        <time>2021-07-11T03:23:30.000Z</time>
      </trkpt>
      <trkpt lat="45.19632" lon="5.74223">
        <ele>242.60000610352</ele>
        <time>2021-07-11T03:23:36.000Z</time>
      </trkpt>
      <trkpt lat="45.1965" lon="5.74222">
        <ele>242.60000610352</ele>
        <time>2021-07-11T03:23:44.000Z</time>
      </trkpt>
      <trkpt lat="45.19669" lon="5.74227">
        <ele>242.39999389648</ele>
        <time>2021-07-11T03:23:51.000Z</time>
      </trkpt>
      <trkpt lat="45.19675" lon="5.74225">
        <ele>242.60000610352</ele>
        <time>2021-07-11T03:23:54.000Z</time>
      </trkpt>
      <trkpt lat="45.1969" lon="5.74226">
        <ele>242.60000610352</ele>
        <time>2021-07-11T03:24:00.000Z</time>
      </trkpt>
      <trkpt lat="45.19707" lon="5.74226">
        <ele>242.60000610352</ele>
        <time>2021-07-11T03:24:06.000Z</time>
      </trkpt>
      <trkpt lat="45.19711" lon="5.74226">
        <ele>242.60000610352</ele>
        <time>2021-07-11T03:24:08.000Z</time>
      </trkpt>
      <trkpt lat="45.19729" lon="5.74223">
        <ele>242.60000610352</ele>
        <time>2021-07-11T03:24:15.000Z</time>
      </trkpt>
      <trkpt lat="45.19742" lon="5.74222">
        <ele>242.39999389648</ele>
        <time>2021-07-11T03:24:19.000Z</time>
      </trkpt>
      <trkpt lat="45.1975" lon="5.74221">
        <ele>242.39999389648</ele>
        <time>2021-07-11T03:24:22.000Z</time>
      </trkpt>
      <trkpt lat="45.19755" lon="5.74223">
        <ele>242.39999389648</ele>
        <time>2021-07-11T03:24:24.000Z</time>
      </trkpt>
      <trkpt lat="45.19768" lon="5.7422">
        <ele>242.60000610352</ele>
        <time>2021-07-11T03:24:30.000Z</time>
      </trkpt>
      <trkpt lat="45.19784" lon="5.74217">
        <ele>242.60000610352</ele>
        <time>2021-07-11T03:24:38.000Z</time>
      </trkpt>
      <trkpt lat="45.19804" lon="5.74219">
        <ele>242.60000610352</ele>
        <time>2021-07-11T03:24:46.000Z</time>
      </trkpt>
      <trkpt lat="45.19807" lon="5.74221">
        <ele>242.60000610352</ele>
        <time>2021-07-11T03:24:48.000Z</time>
      </trkpt>
      <trkpt lat="45.19827" lon="5.74217">
        <ele>242.39999389648</ele>
        <time>2021-07-11T03:24:55.000Z</time>
      </trkpt>
      <trkpt lat="45.1983" lon="5.74217">
        <ele>242.39999389648</ele>
        <time>2021-07-11T03:24:56.000Z</time>
      </trkpt>
      <trkpt lat="45.19846" lon="5.74209">
        <ele>242.39999389648</ele>
        <time>2021-07-11T03:25:03.000Z</time>
      </trkpt>
      <trkpt lat="45.19864" lon="5.74199">
        <ele>242.60000610352</ele>
        <time>2021-07-11T03:25:10.000Z</time>
      </trkpt>
      <trkpt lat="45.19866" lon="5.74198">
        <ele>242.60000610352</ele>
        <time>2021-07-11T03:25:11.000Z</time>
      </trkpt>
      <trkpt lat="45.19886" lon="5.74195">
        <ele>242.60000610352</ele>
        <time>2021-07-11T03:25:17.000Z</time>
      </trkpt>
      <trkpt lat="45.19889" lon="5.74194">
        <ele>242.60000610352</ele>
        <time>2021-07-11T03:25:18.000Z</time>
      </trkpt>
      <trkpt lat="45.19907" lon="5.74185">
        <ele>242.60000610352</ele>
        <time>2021-07-11T03:25:26.000Z</time>
      </trkpt>
      <trkpt lat="45.1992" lon="5.74173">
        <ele>242.80000305176</ele>
        <time>2021-07-11T03:25:33.000Z</time>
      </trkpt>
      <trkpt lat="45.19937" lon="5.74158">
        <ele>242.80000305176</ele>
        <time>2021-07-11T03:25:41.000Z</time>
      </trkpt>
      <trkpt lat="45.19954" lon="5.74143">
        <ele>242.60000610352</ele>
        <time>2021-07-11T03:25:49.000Z</time>
      </trkpt>
      <trkpt lat="45.19967" lon="5.74131">
        <ele>242.60000610352</ele>
        <time>2021-07-11T03:25:56.000Z</time>
      </trkpt>
      <trkpt lat="45.19971" lon="5.7412">
        <ele>242.60000610352</ele>
        <time>2021-07-11T03:26:01.000Z</time>
      </trkpt>
      <trkpt lat="45.19977" lon="5.74114">
        <ele>242.39999389648</ele>
        <time>2021-07-11T03:26:05.000Z</time>
      </trkpt>
      <trkpt lat="45.19979" lon="5.74112">
        <ele>241.80000305176</ele>
        <time>2021-07-11T03:26:06.000Z</time>
      </trkpt>
      <trkpt lat="45.19981" lon="5.7411">
        <ele>241.60000610352</ele>
        <time>2021-07-11T03:26:07.000Z</time>
      </trkpt>
      <trkpt lat="45.19993" lon="5.74099">
        <ele>240.60000610352</ele>
        <time>2021-07-11T03:26:12.000Z</time>
      </trkpt>
      <trkpt lat="45.20001" lon="5.74092">
        <ele>240.19999694824</ele>
        <time>2021-07-11T03:26:16.000Z</time>
      </trkpt>
      <trkpt lat="45.20002" lon="5.7409">
        <ele>240.19999694824</ele>
        <time>2021-07-11T03:26:17.000Z</time>
      </trkpt>
      <trkpt lat="45.20008" lon="5.74083">
        <ele>240.19999694824</ele>
        <time>2021-07-11T03:26:21.000Z</time>
      </trkpt>
      <trkpt lat="45.2004" lon="5.74062">
        <ele>239.60000610352</ele>
        <time>2021-07-11T03:26:34.000Z</time>
      </trkpt>
      <trkpt lat="45.20052" lon="5.74041">
        <ele>241</ele>
        <time>2021-07-11T03:26:37.000Z</time>
      </trkpt>
      <trkpt lat="45.20053" lon="5.74028">
        <ele>241.39999389648</ele>
        <time>2021-07-11T03:26:41.000Z</time>
      </trkpt>
      <trkpt lat="45.20055" lon="5.74027">
        <ele>241.39999389648</ele>
        <time>2021-07-11T03:26:42.000Z</time>
      </trkpt>
      <trkpt lat="45.20056" lon="5.74027">
        <ele>242.39999389648</ele>
        <time>2021-07-11T03:26:43.000Z</time>
      </trkpt>
      <trkpt lat="45.20057" lon="5.74025">
        <ele>242.39999389648</ele>
        <time>2021-07-11T03:26:44.000Z</time>
      </trkpt>
      <trkpt lat="45.20058" lon="5.74018">
        <ele>242.39999389648</ele>
        <time>2021-07-11T03:26:47.000Z</time>
      </trkpt>
      <trkpt lat="45.2006" lon="5.74003">
        <ele>242.39999389648</ele>
        <time>2021-07-11T03:26:51.000Z</time>
      </trkpt>
      <trkpt lat="45.20064" lon="5.73996">
        <ele>242.39999389648</ele>
        <time>2021-07-11T03:26:53.000Z</time>
      </trkpt>
      <trkpt lat="45.20071" lon="5.7399">
        <ele>242</ele>
        <time>2021-07-11T03:26:56.000Z</time>
      </trkpt>
      <trkpt lat="45.20073" lon="5.73986">
        <ele>241.80000305176</ele>
        <time>2021-07-11T03:26:58.000Z</time>
      </trkpt>
      <trkpt lat="45.20084" lon="5.73972">
        <ele>241.60000610352</ele>
        <time>2021-07-11T03:27:04.000Z</time>
      </trkpt>
      <trkpt lat="45.20093" lon="5.73962">
        <ele>241.60000610352</ele>
        <time>2021-07-11T03:27:08.000Z</time>
      </trkpt>
      <trkpt lat="45.20095" lon="5.73958">
        <ele>241.19999694824</ele>
        <time>2021-07-11T03:27:09.000Z</time>
      </trkpt>
      <trkpt lat="45.20112" lon="5.73943">
        <ele>241.19999694824</ele>
        <time>2021-07-11T03:27:15.000Z</time>
      </trkpt>
      <trkpt lat="45.20116" lon="5.73937">
        <ele>241.19999694824</ele>
        <time>2021-07-11T03:27:18.000Z</time>
      </trkpt>
      <trkpt lat="45.20119" lon="5.73933">
        <ele>241.19999694824</ele>
        <time>2021-07-11T03:27:20.000Z</time>
      </trkpt>
      <trkpt lat="45.20128" lon="5.73918">
        <ele>241.39999389648</ele>
        <time>2021-07-11T03:27:26.000Z</time>
      </trkpt>
      <trkpt lat="45.20137" lon="5.73902">
        <ele>241.60000610352</ele>
        <time>2021-07-11T03:27:31.000Z</time>
      </trkpt>
      <trkpt lat="45.20147" lon="5.73887">
        <ele>241.60000610352</ele>
        <time>2021-07-11T03:27:35.000Z</time>
      </trkpt>
      <trkpt lat="45.20152" lon="5.73874">
        <ele>241.60000610352</ele>
        <time>2021-07-11T03:27:39.000Z</time>
      </trkpt>
      <trkpt lat="45.20158" lon="5.73868">
        <ele>241.60000610352</ele>
        <time>2021-07-11T03:27:42.000Z</time>
      </trkpt>
      <trkpt lat="45.20164" lon="5.73861">
        <ele>241.19999694824</ele>
        <time>2021-07-11T03:27:45.000Z</time>
      </trkpt>
      <trkpt lat="45.20174" lon="5.73839">
        <ele>241.60000610352</ele>
        <time>2021-07-11T03:27:51.000Z</time>
      </trkpt>
      <trkpt lat="45.20175" lon="5.73836">
        <ele>241.60000610352</ele>
        <time>2021-07-11T03:27:52.000Z</time>
      </trkpt>
      <trkpt lat="45.20176" lon="5.7382">
        <ele>241.39999389648</ele>
        <time>2021-07-11T03:27:57.000Z</time>
      </trkpt>
      <trkpt lat="45.20181" lon="5.73801">
        <ele>241.39999389648</ele>
        <time>2021-07-11T03:28:03.000Z</time>
      </trkpt>
      <trkpt lat="45.20182" lon="5.73797">
        <ele>241.39999389648</ele>
        <time>2021-07-11T03:28:04.000Z</time>
      </trkpt>
      <trkpt lat="45.20182" lon="5.73783">
        <ele>241.19999694824</ele>
        <time>2021-07-11T03:28:08.000Z</time>
      </trkpt>
      <trkpt lat="45.20183" lon="5.73769">
        <ele>241.60000610352</ele>
        <time>2021-07-11T03:28:12.000Z</time>
      </trkpt>
      <trkpt lat="45.20184" lon="5.73751">
        <ele>241.60000610352</ele>
        <time>2021-07-11T03:28:17.000Z</time>
      </trkpt>
      <trkpt lat="45.20187" lon="5.73743">
        <ele>241.39999389648</ele>
        <time>2021-07-11T03:28:20.000Z</time>
      </trkpt>
      <trkpt lat="45.20186" lon="5.73736">
        <ele>241.39999389648</ele>
        <time>2021-07-11T03:28:22.000Z</time>
      </trkpt>
      <trkpt lat="45.20181" lon="5.73716">
        <ele>241.60000610352</ele>
        <time>2021-07-11T03:28:27.000Z</time>
      </trkpt>
      <trkpt lat="45.20179" lon="5.73711">
        <ele>241.60000610352</ele>
        <time>2021-07-11T03:28:28.000Z</time>
      </trkpt>
      <trkpt lat="45.20178" lon="5.73702">
        <ele>241.60000610352</ele>
        <time>2021-07-11T03:28:30.000Z</time>
      </trkpt>
      <trkpt lat="45.20177" lon="5.73696">
        <ele>241.60000610352</ele>
        <time>2021-07-11T03:28:32.000Z</time>
      </trkpt>
      <trkpt lat="45.20178" lon="5.73694">
        <ele>241.60000610352</ele>
        <time>2021-07-11T03:28:33.000Z</time>
      </trkpt>
      <trkpt lat="45.20179" lon="5.73682">
        <ele>241.60000610352</ele>
        <time>2021-07-11T03:28:38.000Z</time>
      </trkpt>
      <trkpt lat="45.20173" lon="5.7366">
        <ele>241.60000610352</ele>
        <time>2021-07-11T03:28:44.000Z</time>
      </trkpt>
      <trkpt lat="45.20166" lon="5.73642">
        <ele>241.80000305176</ele>
        <time>2021-07-11T03:28:49.000Z</time>
      </trkpt>
      <trkpt lat="45.20162" lon="5.73631">
        <ele>241.60000610352</ele>
        <time>2021-07-11T03:28:53.000Z</time>
      </trkpt>
      <trkpt lat="45.2016" lon="5.73627">
        <ele>241.60000610352</ele>
        <time>2021-07-11T03:28:55.000Z</time>
      </trkpt>
      <trkpt lat="45.20159" lon="5.7362">
        <ele>241.39999389648</ele>
        <time>2021-07-11T03:28:58.000Z</time>
      </trkpt>
      <trkpt lat="45.20155" lon="5.7361">
        <ele>241.60000610352</ele>
        <time>2021-07-11T03:29:02.000Z</time>
      </trkpt>
      <trkpt lat="45.20151" lon="5.73602">
        <ele>241.39999389648</ele>
        <time>2021-07-11T03:29:05.000Z</time>
      </trkpt>
      <trkpt lat="45.20145" lon="5.73589">
        <ele>241.39999389648</ele>
        <time>2021-07-11T03:29:08.000Z</time>
      </trkpt>
      <trkpt lat="45.20141" lon="5.73582">
        <ele>241.39999389648</ele>
        <time>2021-07-11T03:29:10.000Z</time>
      </trkpt>
      <trkpt lat="45.20134" lon="5.73569">
        <ele>241.39999389648</ele>
        <time>2021-07-11T03:29:16.000Z</time>
      </trkpt>
      <trkpt lat="45.20133" lon="5.73566">
        <ele>241.80000305176</ele>
        <time>2021-07-11T03:29:18.000Z</time>
      </trkpt>
      <trkpt lat="45.2013" lon="5.73563">
        <ele>241.80000305176</ele>
        <time>2021-07-11T03:29:20.000Z</time>
      </trkpt>
      <trkpt lat="45.2013" lon="5.73562">
        <ele>241.60000610352</ele>
        <time>2021-07-11T03:29:21.000Z</time>
      </trkpt>
      <trkpt lat="45.20127" lon="5.73558">
        <ele>241.60000610352</ele>
        <time>2021-07-11T03:29:23.000Z</time>
      </trkpt>
      <trkpt lat="45.20119" lon="5.73543">
        <ele>241.39999389648</ele>
        <time>2021-07-11T03:29:28.000Z</time>
      </trkpt>
      <trkpt lat="45.20112" lon="5.73533">
        <ele>241.80000305176</ele>
        <time>2021-07-11T03:29:34.000Z</time>
      </trkpt>
      <trkpt lat="45.20093" lon="5.7352">
        <ele>241.39999389648</ele>
        <time>2021-07-11T03:29:40.000Z</time>
      </trkpt>
      <trkpt lat="45.20076" lon="5.7351">
        <ele>241.39999389648</ele>
        <time>2021-07-11T03:29:45.000Z</time>
      </trkpt>
      <trkpt lat="45.20072" lon="5.73509">
        <ele>241.39999389648</ele>
        <time>2021-07-11T03:29:46.000Z</time>
      </trkpt>
      <trkpt lat="45.20061" lon="5.73502">
        <ele>241.60000610352</ele>
        <time>2021-07-11T03:29:50.000Z</time>
      </trkpt>
      <trkpt lat="45.20052" lon="5.73497">
        <ele>241</ele>
        <time>2021-07-11T03:29:53.000Z</time>
      </trkpt>
      <trkpt lat="45.20045" lon="5.73489">
        <ele>240.60000610352</ele>
        <time>2021-07-11T03:29:56.000Z</time>
      </trkpt>
      <trkpt lat="45.20042" lon="5.73487">
        <ele>240.60000610352</ele>
        <time>2021-07-11T03:29:57.000Z</time>
      </trkpt>
      <trkpt lat="45.20037" lon="5.73484">
        <ele>240.39999389648</ele>
        <time>2021-07-11T03:29:59.000Z</time>
      </trkpt>
      <trkpt lat="45.20032" lon="5.73479">
        <ele>240.39999389648</ele>
        <time>2021-07-11T03:30:01.000Z</time>
      </trkpt>
      <trkpt lat="45.20026" lon="5.73475">
        <ele>240.60000610352</ele>
        <time>2021-07-11T03:30:03.000Z</time>
      </trkpt>
      <trkpt lat="45.20024" lon="5.73474">
        <ele>240.60000610352</ele>
        <time>2021-07-11T03:30:04.000Z</time>
      </trkpt>
      <trkpt lat="45.20019" lon="5.73472">
        <ele>240.80000305176</ele>
        <time>2021-07-11T03:30:06.000Z</time>
      </trkpt>
      <trkpt lat="45.20009" lon="5.73463">
        <ele>241.19999694824</ele>
        <time>2021-07-11T03:30:10.000Z</time>
      </trkpt>
      <trkpt lat="45.20004" lon="5.73455">
        <ele>241.39999389648</ele>
        <time>2021-07-11T03:30:13.000Z</time>
      </trkpt>
      <trkpt lat="45.20001" lon="5.73452">
        <ele>241.39999389648</ele>
        <time>2021-07-11T03:30:14.000Z</time>
      </trkpt>
      <trkpt lat="45.19984" lon="5.73442">
        <ele>241.39999389648</ele>
        <time>2021-07-11T03:30:20.000Z</time>
      </trkpt>
      <trkpt lat="45.19973" lon="5.7344">
        <ele>241.39999389648</ele>
        <time>2021-07-11T03:30:25.000Z</time>
      </trkpt>
      <trkpt lat="45.1997" lon="5.73438">
        <ele>241.39999389648</ele>
        <time>2021-07-11T03:30:27.000Z</time>
      </trkpt>
      <trkpt lat="45.19956" lon="5.73429">
        <ele>241.39999389648</ele>
        <time>2021-07-11T03:30:32.000Z</time>
      </trkpt>
      <trkpt lat="45.19954" lon="5.73428">
        <ele>241.19999694824</ele>
        <time>2021-07-11T03:30:33.000Z</time>
      </trkpt>
      <trkpt lat="45.19946" lon="5.73426">
        <ele>241.39999389648</ele>
        <time>2021-07-11T03:30:36.000Z</time>
      </trkpt>
      <trkpt lat="45.19936" lon="5.73423">
        <ele>241.39999389648</ele>
        <time>2021-07-11T03:30:40.000Z</time>
      </trkpt>
      <trkpt lat="45.19917" lon="5.7342">
        <ele>241.19999694824</ele>
        <time>2021-07-11T03:30:48.000Z</time>
      </trkpt>
      <trkpt lat="45.199" lon="5.73411">
        <ele>241.39999389648</ele>
        <time>2021-07-11T03:30:55.000Z</time>
      </trkpt>
      <trkpt lat="45.19886" lon="5.73407">
        <ele>241.39999389648</ele>
        <time>2021-07-11T03:31:00.000Z</time>
      </trkpt>
      <trkpt lat="45.19869" lon="5.73401">
        <ele>241.39999389648</ele>
        <time>2021-07-11T03:31:06.000Z</time>
      </trkpt>
      <trkpt lat="45.19854" lon="5.73397">
        <ele>241.39999389648</ele>
        <time>2021-07-11T03:31:13.000Z</time>
      </trkpt>
      <trkpt lat="45.19851" lon="5.73396">
        <ele>241.39999389648</ele>
        <time>2021-07-11T03:31:14.000Z</time>
      </trkpt>
      <trkpt lat="45.19832" lon="5.7339">
        <ele>241.39999389648</ele>
        <time>2021-07-11T03:31:21.000Z</time>
      </trkpt>
      <trkpt lat="45.1983" lon="5.73389">
        <ele>241.39999389648</ele>
        <time>2021-07-11T03:31:22.000Z</time>
      </trkpt>
      <trkpt lat="45.19811" lon="5.73383">
        <ele>241</ele>
        <time>2021-07-11T03:31:29.000Z</time>
      </trkpt>
      <trkpt lat="45.19792" lon="5.73381">
        <ele>241.19999694824</ele>
        <time>2021-07-11T03:31:36.000Z</time>
      </trkpt>
      <trkpt lat="45.1978" lon="5.73379">
        <ele>241.39999389648</ele>
        <time>2021-07-11T03:31:41.000Z</time>
      </trkpt>
      <trkpt lat="45.19777" lon="5.73378">
        <ele>241.60000610352</ele>
        <time>2021-07-11T03:31:42.000Z</time>
      </trkpt>
      <trkpt lat="45.1976" lon="5.73377">
        <ele>242</ele>
        <time>2021-07-11T03:31:48.000Z</time>
      </trkpt>
      <trkpt lat="45.19755" lon="5.73375">
        <ele>242.60000610352</ele>
        <time>2021-07-11T03:31:50.000Z</time>
      </trkpt>
      <trkpt lat="45.1974" lon="5.73371">
        <ele>243.60000610352</ele>
        <time>2021-07-11T03:31:56.000Z</time>
      </trkpt>
      <trkpt lat="45.19738" lon="5.7337">
        <ele>243.60000610352</ele>
        <time>2021-07-11T03:31:57.000Z</time>
      </trkpt>
      <trkpt lat="45.19722" lon="5.73368">
        <ele>243.19999694824</ele>
        <time>2021-07-11T03:32:04.000Z</time>
      </trkpt>
      <trkpt lat="45.19708" lon="5.73365">
        <ele>242.80000305176</ele>
        <time>2021-07-11T03:32:10.000Z</time>
      </trkpt>
      <trkpt lat="45.197" lon="5.73355">
        <ele>242</ele>
        <time>2021-07-11T03:32:16.000Z</time>
      </trkpt>
      <trkpt lat="45.19698" lon="5.73353">
        <ele>241.60000610352</ele>
        <time>2021-07-11T03:32:17.000Z</time>
      </trkpt>
      <trkpt lat="45.19684" lon="5.73344">
        <ele>241.60000610352</ele>
        <time>2021-07-11T03:32:22.000Z</time>
      </trkpt>
      <trkpt lat="45.19665" lon="5.73336">
        <ele>242</ele>
        <time>2021-07-11T03:32:30.000Z</time>
      </trkpt>
      <trkpt lat="45.19652" lon="5.73317">
        <ele>241.80000305176</ele>
        <time>2021-07-11T03:32:36.000Z</time>
      </trkpt>
      <trkpt lat="45.1965" lon="5.73313">
        <ele>241.80000305176</ele>
        <time>2021-07-11T03:32:37.000Z</time>
      </trkpt>
      <trkpt lat="45.1964" lon="5.73299">
        <ele>241.80000305176</ele>
        <time>2021-07-11T03:32:42.000Z</time>
      </trkpt>
      <trkpt lat="45.19629" lon="5.73279">
        <ele>242</ele>
        <time>2021-07-11T03:32:49.000Z</time>
      </trkpt>
      <trkpt lat="45.19626" lon="5.73273">
        <ele>242.60000610352</ele>
        <time>2021-07-11T03:32:51.000Z</time>
      </trkpt>
      <trkpt lat="45.19622" lon="5.73268">
        <ele>242.19999694824</ele>
        <time>2021-07-11T03:32:54.000Z</time>
      </trkpt>
      <trkpt lat="45.19618" lon="5.73262">
        <ele>242.60000610352</ele>
        <time>2021-07-11T03:32:57.000Z</time>
      </trkpt>
      <trkpt lat="45.19614" lon="5.73258">
        <ele>242.60000610352</ele>
        <time>2021-07-11T03:32:59.000Z</time>
      </trkpt>
      <trkpt lat="45.19599" lon="5.7324">
        <ele>242.60000610352</ele>
        <time>2021-07-11T03:33:06.000Z</time>
      </trkpt>
      <trkpt lat="45.19597" lon="5.73238">
        <ele>242.80000305176</ele>
        <time>2021-07-11T03:33:08.000Z</time>
      </trkpt>
      <trkpt lat="45.19591" lon="5.73233">
        <ele>242.80000305176</ele>
        <time>2021-07-11T03:33:11.000Z</time>
      </trkpt>
      <trkpt lat="45.19582" lon="5.73217">
        <ele>242.80000305176</ele>
        <time>2021-07-11T03:33:17.000Z</time>
      </trkpt>
      <trkpt lat="45.19572" lon="5.73196">
        <ele>242.80000305176</ele>
        <time>2021-07-11T03:33:23.000Z</time>
      </trkpt>
      <trkpt lat="45.19559" lon="5.73176">
        <ele>242.80000305176</ele>
        <time>2021-07-11T03:33:30.000Z</time>
      </trkpt>
      <trkpt lat="45.1955" lon="5.73161">
        <ele>243.60000610352</ele>
        <time>2021-07-11T03:33:36.000Z</time>
      </trkpt>
      <trkpt lat="45.1954" lon="5.73148">
        <ele>243.60000610352</ele>
        <time>2021-07-11T03:33:41.000Z</time>
      </trkpt>
      <trkpt lat="45.19534" lon="5.73132">
        <ele>243.80000305176</ele>
        <time>2021-07-11T03:33:46.000Z</time>
      </trkpt>
      <trkpt lat="45.19523" lon="5.7311">
        <ele>244</ele>
        <time>2021-07-11T03:33:53.000Z</time>
      </trkpt>
      <trkpt lat="45.19519" lon="5.73102">
        <ele>243.60000610352</ele>
        <time>2021-07-11T03:33:56.000Z</time>
      </trkpt>
      <trkpt lat="45.19518" lon="5.731">
        <ele>243.60000610352</ele>
        <time>2021-07-11T03:33:57.000Z</time>
      </trkpt>
      <trkpt lat="45.19516" lon="5.73098">
        <ele>244</ele>
        <time>2021-07-11T03:33:58.000Z</time>
      </trkpt>
      <trkpt lat="45.19509" lon="5.7309">
        <ele>244</ele>
        <time>2021-07-11T03:34:02.000Z</time>
      </trkpt>
      <trkpt lat="45.19508" lon="5.73088">
        <ele>244</ele>
        <time>2021-07-11T03:34:03.000Z</time>
      </trkpt>
      <trkpt lat="45.19496" lon="5.73085">
        <ele>244.19999694824</ele>
        <time>2021-07-11T03:34:09.000Z</time>
      </trkpt>
      <trkpt lat="45.19487" lon="5.73085">
        <ele>244.19999694824</ele>
        <time>2021-07-11T03:34:13.000Z</time>
      </trkpt>
      <trkpt lat="45.19484" lon="5.73083">
        <ele>244</ele>
        <time>2021-07-11T03:34:15.000Z</time>
      </trkpt>
      <trkpt lat="45.19475" lon="5.73069">
        <ele>244</ele>
        <time>2021-07-11T03:34:19.000Z</time>
      </trkpt>
      <trkpt lat="45.19468" lon="5.73059">
        <ele>243.80000305176</ele>
        <time>2021-07-11T03:34:23.000Z</time>
      </trkpt>
      <trkpt lat="45.19468" lon="5.73056">
        <ele>243.80000305176</ele>
        <time>2021-07-11T03:34:26.000Z</time>
      </trkpt>
      <trkpt lat="45.19462" lon="5.73046">
        <ele>243.19999694824</ele>
        <time>2021-07-11T03:34:30.000Z</time>
      </trkpt>
      <trkpt lat="45.1946" lon="5.73042">
        <ele>243.19999694824</ele>
        <time>2021-07-11T03:34:33.000Z</time>
      </trkpt>
      <trkpt lat="45.19459" lon="5.7304">
        <ele>243.39999389648</ele>
        <time>2021-07-11T03:34:35.000Z</time>
      </trkpt>
      <trkpt lat="45.19457" lon="5.73031">
        <ele>242.80000305176</ele>
        <time>2021-07-11T03:34:39.000Z</time>
      </trkpt>
      <trkpt lat="45.19459" lon="5.73028">
        <ele>243.19999694824</ele>
        <time>2021-07-11T03:34:41.000Z</time>
      </trkpt>
      <trkpt lat="45.19462" lon="5.73024">
        <ele>242.60000610352</ele>
        <time>2021-07-11T03:34:43.000Z</time>
      </trkpt>
      <trkpt lat="45.19464" lon="5.73019">
        <ele>242.60000610352</ele>
        <time>2021-07-11T03:34:45.000Z</time>
      </trkpt>
      <trkpt lat="45.19463" lon="5.73016">
        <ele>242.60000610352</ele>
        <time>2021-07-11T03:34:46.000Z</time>
      </trkpt>
      <trkpt lat="45.19458" lon="5.73005">
        <ele>242.60000610352</ele>
        <time>2021-07-11T03:34:49.000Z</time>
      </trkpt>
      <trkpt lat="45.19456" lon="5.72997">
        <ele>242.39999389648</ele>
        <time>2021-07-11T03:34:51.000Z</time>
      </trkpt>
      <trkpt lat="45.1945" lon="5.72984">
        <ele>242.39999389648</ele>
        <time>2021-07-11T03:34:56.000Z</time>
      </trkpt>
      <trkpt lat="45.19442" lon="5.72984">
        <ele>242.39999389648</ele>
        <time>2021-07-11T03:34:59.000Z</time>
      </trkpt>
      <trkpt lat="45.19423" lon="5.72987">
        <ele>241.60000610352</ele>
        <time>2021-07-11T03:35:05.000Z</time>
      </trkpt>
      <trkpt lat="45.1942" lon="5.72989">
        <ele>241.60000610352</ele>
        <time>2021-07-11T03:35:06.000Z</time>
      </trkpt>
      <trkpt lat="45.19412" lon="5.72995">
        <ele>241.19999694824</ele>
        <time>2021-07-11T03:35:09.000Z</time>
      </trkpt>
      <trkpt lat="45.19408" lon="5.73">
        <ele>241.19999694824</ele>
        <time>2021-07-11T03:35:11.000Z</time>
      </trkpt>
      <trkpt lat="45.19405" lon="5.73001">
        <ele>241.19999694824</ele>
        <time>2021-07-11T03:35:12.000Z</time>
      </trkpt>
      <trkpt lat="45.19397" lon="5.73004">
        <ele>241</ele>
        <time>2021-07-11T03:35:15.000Z</time>
      </trkpt>
      <trkpt lat="45.19392" lon="5.73002">
        <ele>241.19999694824</ele>
        <time>2021-07-11T03:35:18.000Z</time>
      </trkpt>
      <trkpt lat="45.1939" lon="5.73003">
        <ele>241.19999694824</ele>
        <time>2021-07-11T03:35:19.000Z</time>
      </trkpt>
      <trkpt lat="45.19388" lon="5.73011">
        <ele>241.60000610352</ele>
        <time>2021-07-11T03:35:22.000Z</time>
      </trkpt>
      <trkpt lat="45.19385" lon="5.73017">
        <ele>241.19999694824</ele>
        <time>2021-07-11T03:35:25.000Z</time>
      </trkpt>
      <trkpt lat="45.19368" lon="5.7301">
        <ele>241.39999389648</ele>
        <time>2021-07-11T03:35:28.000Z</time>
      </trkpt>
      <trkpt lat="45.19357" lon="5.73002">
        <ele>242</ele>
        <time>2021-07-11T03:35:32.000Z</time>
      </trkpt>
      <trkpt lat="45.19358" lon="5.73004">
        <ele>242</ele>
        <time>2021-07-11T03:35:35.000Z</time>
      </trkpt>
      <trkpt lat="45.19356" lon="5.73003">
        <ele>242.19999694824</ele>
        <time>2021-07-11T03:35:36.000Z</time>
      </trkpt>
      <trkpt lat="45.19355" lon="5.73002">
        <ele>242.19999694824</ele>
        <time>2021-07-11T03:35:38.000Z</time>
      </trkpt>
      <trkpt lat="45.19354" lon="5.73">
        <ele>242.19999694824</ele>
        <time>2021-07-11T03:35:39.000Z</time>
      </trkpt>
      <trkpt lat="45.19352" lon="5.72996">
        <ele>242.39999389648</ele>
        <time>2021-07-11T03:35:40.000Z</time>
      </trkpt>
      <trkpt lat="45.19347" lon="5.7298">
        <ele>242.39999389648</ele>
        <time>2021-07-11T03:35:43.000Z</time>
      </trkpt>
      <trkpt lat="45.19342" lon="5.72957">
        <ele>242.39999389648</ele>
        <time>2021-07-11T03:35:48.000Z</time>
      </trkpt>
      <trkpt lat="45.19338" lon="5.72939">
        <ele>242.39999389648</ele>
        <time>2021-07-11T03:35:52.000Z</time>
      </trkpt>
      <trkpt lat="45.19335" lon="5.72934">
        <ele>242.19999694824</ele>
        <time>2021-07-11T03:35:53.000Z</time>
      </trkpt>
      <trkpt lat="45.19334" lon="5.72924">
        <ele>242.39999389648</ele>
        <time>2021-07-11T03:35:55.000Z</time>
      </trkpt>
      <trkpt lat="45.19332" lon="5.72918">
        <ele>242.19999694824</ele>
        <time>2021-07-11T03:35:56.000Z</time>
      </trkpt>
      <trkpt lat="45.19334" lon="5.72908">
        <ele>242</ele>
        <time>2021-07-11T03:35:59.000Z</time>
      </trkpt>
      <trkpt lat="45.19334" lon="5.72903">
        <ele>242.19999694824</ele>
        <time>2021-07-11T03:36:00.000Z</time>
      </trkpt>
      <trkpt lat="45.19332" lon="5.7289">
        <ele>242</ele>
        <time>2021-07-11T03:36:03.000Z</time>
      </trkpt>
      <trkpt lat="45.1933" lon="5.72885">
        <ele>242</ele>
        <time>2021-07-11T03:36:04.000Z</time>
      </trkpt>
      <trkpt lat="45.19327" lon="5.72874">
        <ele>242</ele>
        <time>2021-07-11T03:36:07.000Z</time>
      </trkpt>
      <trkpt lat="45.19323" lon="5.72863">
        <ele>242</ele>
        <time>2021-07-11T03:36:10.000Z</time>
      </trkpt>
      <trkpt lat="45.19322" lon="5.72858">
        <ele>242</ele>
        <time>2021-07-11T03:36:11.000Z</time>
      </trkpt>
      <trkpt lat="45.1932" lon="5.72853">
        <ele>242</ele>
        <time>2021-07-11T03:36:12.000Z</time>
      </trkpt>
      <trkpt lat="45.19313" lon="5.72838">
        <ele>242</ele>
        <time>2021-07-11T03:36:15.000Z</time>
      </trkpt>
      <trkpt lat="45.19312" lon="5.72833">
        <ele>242</ele>
        <time>2021-07-11T03:36:16.000Z</time>
      </trkpt>
      <trkpt lat="45.19313" lon="5.72826">
        <ele>241.39999389648</ele>
        <time>2021-07-11T03:36:18.000Z</time>
      </trkpt>
      <trkpt lat="45.19313" lon="5.72823">
        <ele>241.39999389648</ele>
        <time>2021-07-11T03:36:19.000Z</time>
      </trkpt>
      <trkpt lat="45.19312" lon="5.72808">
        <ele>241.60000610352</ele>
        <time>2021-07-11T03:36:24.000Z</time>
      </trkpt>
      <trkpt lat="45.19313" lon="5.72803">
        <ele>241.60000610352</ele>
        <time>2021-07-11T03:36:26.000Z</time>
      </trkpt>
      <trkpt lat="45.19315" lon="5.72795">
        <ele>241.60000610352</ele>
        <time>2021-07-11T03:36:29.000Z</time>
      </trkpt>
      <trkpt lat="45.19318" lon="5.72784">
        <ele>241.60000610352</ele>
        <time>2021-07-11T03:36:33.000Z</time>
      </trkpt>
      <trkpt lat="45.19319" lon="5.72782">
        <ele>241.60000610352</ele>
        <time>2021-07-11T03:36:34.000Z</time>
      </trkpt>
      <trkpt lat="45.19329" lon="5.72777">
        <ele>241.60000610352</ele>
        <time>2021-07-11T03:36:37.000Z</time>
      </trkpt>
      <trkpt lat="45.19327" lon="5.72768">
        <ele>241.19999694824</ele>
        <time>2021-07-11T03:36:39.000Z</time>
      </trkpt>
      <trkpt lat="45.19323" lon="5.72764">
        <ele>241.19999694824</ele>
        <time>2021-07-11T03:36:40.000Z</time>
      </trkpt>
      <trkpt lat="45.19308" lon="5.72754">
        <ele>241.19999694824</ele>
        <time>2021-07-11T03:36:44.000Z</time>
      </trkpt>
      <trkpt lat="45.19308" lon="5.7275">
        <ele>241.19999694824</ele>
        <time>2021-07-11T03:36:45.000Z</time>
      </trkpt>
      <trkpt lat="45.19307" lon="5.72746">
        <ele>241.19999694824</ele>
        <time>2021-07-11T03:36:46.000Z</time>
      </trkpt>
      <trkpt lat="45.19306" lon="5.7273">
        <ele>240.80000305176</ele>
        <time>2021-07-11T03:36:51.000Z</time>
      </trkpt>
      <trkpt lat="45.19299" lon="5.72722">
        <ele>240.80000305176</ele>
        <time>2021-07-11T03:36:54.000Z</time>
      </trkpt>
      <trkpt lat="45.19297" lon="5.7272">
        <ele>240.80000305176</ele>
        <time>2021-07-11T03:36:55.000Z</time>
      </trkpt>
      <trkpt lat="45.19291" lon="5.72711">
        <ele>240.39999389648</ele>
        <time>2021-07-11T03:36:58.000Z</time>
      </trkpt>
      <trkpt lat="45.19287" lon="5.72703">
        <ele>240.60000610352</ele>
        <time>2021-07-11T03:37:00.000Z</time>
      </trkpt>
      <trkpt lat="45.19286" lon="5.72699">
        <ele>240.39999389648</ele>
        <time>2021-07-11T03:37:01.000Z</time>
      </trkpt>
      <trkpt lat="45.19284" lon="5.72696">
        <ele>240.39999389648</ele>
        <time>2021-07-11T03:37:02.000Z</time>
      </trkpt>
      <trkpt lat="45.19281" lon="5.72686">
        <ele>240.39999389648</ele>
        <time>2021-07-11T03:37:05.000Z</time>
      </trkpt>
      <trkpt lat="45.19281" lon="5.72682">
        <ele>240.39999389648</ele>
        <time>2021-07-11T03:37:06.000Z</time>
      </trkpt>
      <trkpt lat="45.19279" lon="5.72671">
        <ele>240.19999694824</ele>
        <time>2021-07-11T03:37:08.000Z</time>
      </trkpt>
      <trkpt lat="45.19276" lon="5.72658">
        <ele>240.60000610352</ele>
        <time>2021-07-11T03:37:12.000Z</time>
      </trkpt>
      <trkpt lat="45.19272" lon="5.72648">
        <ele>240.39999389648</ele>
        <time>2021-07-11T03:37:16.000Z</time>
      </trkpt>
      <trkpt lat="45.19275" lon="5.72638">
        <ele>240.39999389648</ele>
        <time>2021-07-11T03:37:19.000Z</time>
      </trkpt>
      <trkpt lat="45.19276" lon="5.72629">
        <ele>240.60000610352</ele>
        <time>2021-07-11T03:37:21.000Z</time>
      </trkpt>
      <trkpt lat="45.19277" lon="5.72619">
        <ele>240.80000305176</ele>
        <time>2021-07-11T03:37:23.000Z</time>
      </trkpt>
      <trkpt lat="45.19282" lon="5.72592">
        <ele>240.39999389648</ele>
        <time>2021-07-11T03:37:28.000Z</time>
      </trkpt>
      <trkpt lat="45.19284" lon="5.72585">
        <ele>241</ele>
        <time>2021-07-11T03:37:29.000Z</time>
      </trkpt>
      <trkpt lat="45.1928" lon="5.72563">
        <ele>240.39999389648</ele>
        <time>2021-07-11T03:37:32.000Z</time>
      </trkpt>
      <trkpt lat="45.1928" lon="5.72554">
        <ele>240.39999389648</ele>
        <time>2021-07-11T03:37:34.000Z</time>
      </trkpt>
      <trkpt lat="45.19279" lon="5.7254">
        <ele>240.39999389648</ele>
        <time>2021-07-11T03:37:39.000Z</time>
      </trkpt>
      <trkpt lat="45.19284" lon="5.72524">
        <ele>240.60000610352</ele>
        <time>2021-07-11T03:37:44.000Z</time>
      </trkpt>
      <trkpt lat="45.19285" lon="5.72517">
        <ele>240.39999389648</ele>
        <time>2021-07-11T03:37:46.000Z</time>
      </trkpt>
      <trkpt lat="45.19289" lon="5.72493">
        <ele>241.39999389648</ele>
        <time>2021-07-11T03:37:53.000Z</time>
      </trkpt>
      <trkpt lat="45.1929" lon="5.72489">
        <ele>241.60000610352</ele>
        <time>2021-07-11T03:37:54.000Z</time>
      </trkpt>
      <trkpt lat="45.19292" lon="5.72474">
        <ele>241.60000610352</ele>
        <time>2021-07-11T03:37:58.000Z</time>
      </trkpt>
      <trkpt lat="45.19292" lon="5.72451">
        <ele>242.39999389648</ele>
        <time>2021-07-11T03:38:05.000Z</time>
      </trkpt>
      <trkpt lat="45.1929" lon="5.72433">
        <ele>242.60000610352</ele>
        <time>2021-07-11T03:38:09.000Z</time>
      </trkpt>
      <trkpt lat="45.19294" lon="5.72422">
        <ele>242.60000610352</ele>
        <time>2021-07-11T03:38:12.000Z</time>
      </trkpt>
      <trkpt lat="45.19296" lon="5.72418">
        <ele>243</ele>
        <time>2021-07-11T03:38:13.000Z</time>
      </trkpt>
      <trkpt lat="45.19308" lon="5.72402">
        <ele>243.60000610352</ele>
        <time>2021-07-11T03:38:19.000Z</time>
      </trkpt>
      <trkpt lat="45.19315" lon="5.72399">
        <ele>243.39999389648</ele>
        <time>2021-07-11T03:38:21.000Z</time>
      </trkpt>
      <trkpt lat="45.19328" lon="5.72396">
        <ele>243.39999389648</ele>
        <time>2021-07-11T03:38:25.000Z</time>
      </trkpt>
      <trkpt lat="45.19338" lon="5.72392">
        <ele>244.19999694824</ele>
        <time>2021-07-11T03:38:29.000Z</time>
      </trkpt>
      <trkpt lat="45.19357" lon="5.72386">
        <ele>243.60000610352</ele>
        <time>2021-07-11T03:38:36.000Z</time>
      </trkpt>
      <trkpt lat="45.19368" lon="5.7238">
        <ele>243</ele>
        <time>2021-07-11T03:38:41.000Z</time>
      </trkpt>
      <trkpt lat="45.1937" lon="5.72379">
        <ele>242.80000305176</ele>
        <time>2021-07-11T03:38:42.000Z</time>
      </trkpt>
      <trkpt lat="45.1937" lon="5.72377">
        <ele>242.80000305176</ele>
        <time>2021-07-11T03:38:43.000Z</time>
      </trkpt>
      <trkpt lat="45.19369" lon="5.72362">
        <ele>243</ele>
        <time>2021-07-11T03:38:48.000Z</time>
      </trkpt>
      <trkpt lat="45.19369" lon="5.72352">
        <ele>243.19999694824</ele>
        <time>2021-07-11T03:38:51.000Z</time>
      </trkpt>
      <trkpt lat="45.19367" lon="5.72346">
        <ele>243.39999389648</ele>
        <time>2021-07-11T03:38:53.000Z</time>
      </trkpt>
      <trkpt lat="45.19366" lon="5.72344">
        <ele>243.39999389648</ele>
        <time>2021-07-11T03:38:54.000Z</time>
      </trkpt>
      <trkpt lat="45.19356" lon="5.72323">
        <ele>244.19999694824</ele>
        <time>2021-07-11T03:39:00.000Z</time>
      </trkpt>
      <trkpt lat="45.19349" lon="5.72301">
        <ele>244</ele>
        <time>2021-07-11T03:39:06.000Z</time>
      </trkpt>
      <trkpt lat="45.19344" lon="5.72282">
        <ele>244.19999694824</ele>
        <time>2021-07-11T03:39:12.000Z</time>
      </trkpt>
      <trkpt lat="45.19343" lon="5.72279">
        <ele>244.19999694824</ele>
        <time>2021-07-11T03:39:13.000Z</time>
      </trkpt>
      <trkpt lat="45.19339" lon="5.72253">
        <ele>244.60000610352</ele>
        <time>2021-07-11T03:39:20.000Z</time>
      </trkpt>
      <trkpt lat="45.19338" lon="5.7225">
        <ele>244.19999694824</ele>
        <time>2021-07-11T03:39:21.000Z</time>
      </trkpt>
      <trkpt lat="45.19338" lon="5.7224">
        <ele>244.19999694824</ele>
        <time>2021-07-11T03:39:24.000Z</time>
      </trkpt>
      <trkpt lat="45.19337" lon="5.72238">
        <ele>244.60000610352</ele>
        <time>2021-07-11T03:39:25.000Z</time>
      </trkpt>
      <trkpt lat="45.19331" lon="5.72219">
        <ele>244.60000610352</ele>
        <time>2021-07-11T03:39:30.000Z</time>
      </trkpt>
      <trkpt lat="45.19326" lon="5.72193">
        <ele>244</ele>
        <time>2021-07-11T03:39:37.000Z</time>
      </trkpt>
      <trkpt lat="45.19319" lon="5.72169">
        <ele>243.80000305176</ele>
        <time>2021-07-11T03:39:43.000Z</time>
      </trkpt>
      <trkpt lat="45.19318" lon="5.72164">
        <ele>243.60000610352</ele>
        <time>2021-07-11T03:39:44.000Z</time>
      </trkpt>
      <trkpt lat="45.19315" lon="5.72149">
        <ele>243.19999694824</ele>
        <time>2021-07-11T03:39:48.000Z</time>
      </trkpt>
      <trkpt lat="45.19314" lon="5.72145">
        <ele>243.19999694824</ele>
        <time>2021-07-11T03:39:49.000Z</time>
      </trkpt>
      <trkpt lat="45.19307" lon="5.72118">
        <ele>242.80000305176</ele>
        <time>2021-07-11T03:39:56.000Z</time>
      </trkpt>
      <trkpt lat="45.19306" lon="5.72101">
        <ele>243</ele>
        <time>2021-07-11T03:40:01.000Z</time>
      </trkpt>
      <trkpt lat="45.19307" lon="5.7209">
        <ele>243</ele>
        <time>2021-07-11T03:40:04.000Z</time>
      </trkpt>
      <trkpt lat="45.19307" lon="5.72082">
        <ele>242.39999389648</ele>
        <time>2021-07-11T03:40:06.000Z</time>
      </trkpt>
      <trkpt lat="45.19307" lon="5.7207">
        <ele>242.39999389648</ele>
        <time>2021-07-11T03:40:09.000Z</time>
      </trkpt>
      <trkpt lat="45.19308" lon="5.72062">
        <ele>242.39999389648</ele>
        <time>2021-07-11T03:40:11.000Z</time>
      </trkpt>
      <trkpt lat="45.19308" lon="5.72059">
        <ele>242.39999389648</ele>
        <time>2021-07-11T03:40:12.000Z</time>
      </trkpt>
      <trkpt lat="45.1931" lon="5.72049">
        <ele>242.19999694824</ele>
        <time>2021-07-11T03:40:15.000Z</time>
      </trkpt>
      <trkpt lat="45.1931" lon="5.72042">
        <ele>242.19999694824</ele>
        <time>2021-07-11T03:40:17.000Z</time>
      </trkpt>
      <trkpt lat="45.19311" lon="5.72034">
        <ele>241.80000305176</ele>
        <time>2021-07-11T03:40:19.000Z</time>
      </trkpt>
      <trkpt lat="45.19314" lon="5.72019">
        <ele>241.80000305176</ele>
        <time>2021-07-11T03:40:23.000Z</time>
      </trkpt>
      <trkpt lat="45.19329" lon="5.71995">
        <ele>241.80000305176</ele>
        <time>2021-07-11T03:40:29.000Z</time>
      </trkpt>
      <trkpt lat="45.19333" lon="5.7199">
        <ele>241.80000305176</ele>
        <time>2021-07-11T03:40:30.000Z</time>
      </trkpt>
      <trkpt lat="45.19353" lon="5.71969">
        <ele>241.60000610352</ele>
        <time>2021-07-11T03:40:35.000Z</time>
      </trkpt>
      <trkpt lat="45.19359" lon="5.71962">
        <ele>241.60000610352</ele>
        <time>2021-07-11T03:40:37.000Z</time>
      </trkpt>
      <trkpt lat="45.19371" lon="5.71947">
        <ele>241.19999694824</ele>
        <time>2021-07-11T03:40:42.000Z</time>
      </trkpt>
      <trkpt lat="45.19383" lon="5.71927">
        <ele>241.19999694824</ele>
        <time>2021-07-11T03:40:48.000Z</time>
      </trkpt>
      <trkpt lat="45.19397" lon="5.71913">
        <ele>240.60000610352</ele>
        <time>2021-07-11T03:40:53.000Z</time>
      </trkpt>
      <trkpt lat="45.19407" lon="5.71912">
        <ele>241</ele>
        <time>2021-07-11T03:40:56.000Z</time>
      </trkpt>
      <trkpt lat="45.19422" lon="5.7191">
        <ele>240.60000610352</ele>
        <time>2021-07-11T03:41:01.000Z</time>
      </trkpt>
      <trkpt lat="45.19436" lon="5.71905">
        <ele>240.60000610352</ele>
        <time>2021-07-11T03:41:06.000Z</time>
      </trkpt>
      <trkpt lat="45.19441" lon="5.71904">
        <ele>240.39999389648</ele>
        <time>2021-07-11T03:41:08.000Z</time>
      </trkpt>
      <trkpt lat="45.19445" lon="5.71904">
        <ele>240</ele>
        <time>2021-07-11T03:41:10.000Z</time>
      </trkpt>
      <trkpt lat="45.19462" lon="5.71901">
        <ele>240.19999694824</ele>
        <time>2021-07-11T03:41:16.000Z</time>
      </trkpt>
      <trkpt lat="45.1947" lon="5.71898">
        <ele>240.19999694824</ele>
        <time>2021-07-11T03:41:19.000Z</time>
      </trkpt>
      <trkpt lat="45.19479" lon="5.71897">
        <ele>240.39999389648</ele>
        <time>2021-07-11T03:41:22.000Z</time>
      </trkpt>
      <trkpt lat="45.19497" lon="5.71902">
        <ele>240.60000610352</ele>
        <time>2021-07-11T03:41:28.000Z</time>
      </trkpt>
      <trkpt lat="45.1951" lon="5.71903">
        <ele>240.60000610352</ele>
        <time>2021-07-11T03:41:33.000Z</time>
      </trkpt>
      <trkpt lat="45.19512" lon="5.71901">
        <ele>240.39999389648</ele>
        <time>2021-07-11T03:41:34.000Z</time>
      </trkpt>
      <trkpt lat="45.19525" lon="5.719">
        <ele>240.80000305176</ele>
        <time>2021-07-11T03:41:38.000Z</time>
      </trkpt>
      <trkpt lat="45.19542" lon="5.71897">
        <ele>240.60000610352</ele>
        <time>2021-07-11T03:41:44.000Z</time>
      </trkpt>
      <trkpt lat="45.19554" lon="5.71894">
        <ele>240.60000610352</ele>
        <time>2021-07-11T03:41:49.000Z</time>
      </trkpt>
      <trkpt lat="45.19557" lon="5.71895">
        <ele>240.39999389648</ele>
        <time>2021-07-11T03:41:50.000Z</time>
      </trkpt>
      <trkpt lat="45.19561" lon="5.71899">
        <ele>240.39999389648</ele>
        <time>2021-07-11T03:41:52.000Z</time>
      </trkpt>
      <trkpt lat="45.19562" lon="5.71901">
        <ele>240.80000305176</ele>
        <time>2021-07-11T03:41:53.000Z</time>
      </trkpt>
      <trkpt lat="45.19562" lon="5.71903">
        <ele>241.39999389648</ele>
        <time>2021-07-11T03:41:54.000Z</time>
      </trkpt>
      <trkpt lat="45.19564" lon="5.71907">
        <ele>241.80000305176</ele>
        <time>2021-07-11T03:41:56.000Z</time>
      </trkpt>
      <trkpt lat="45.19567" lon="5.71911">
        <ele>242.39999389648</ele>
        <time>2021-07-11T03:41:58.000Z</time>
      </trkpt>
      <trkpt lat="45.19569" lon="5.71913">
        <ele>243.60000610352</ele>
        <time>2021-07-11T03:42:01.000Z</time>
      </trkpt>
      <trkpt lat="45.19575" lon="5.71919">
        <ele>245</ele>
        <time>2021-07-11T03:42:05.000Z</time>
      </trkpt>
      <trkpt lat="45.19578" lon="5.71925">
        <ele>245.80000305176</ele>
        <time>2021-07-11T03:42:08.000Z</time>
      </trkpt>
      <trkpt lat="45.19578" lon="5.71926">
        <ele>245.80000305176</ele>
        <time>2021-07-11T03:42:09.000Z</time>
      </trkpt>
      <trkpt lat="45.19576" lon="5.71925">
        <ele>246</ele>
        <time>2021-07-11T03:42:10.000Z</time>
      </trkpt>
      <trkpt lat="45.19573" lon="5.71925">
        <ele>246.80000305176</ele>
        <time>2021-07-11T03:42:12.000Z</time>
      </trkpt>
      <trkpt lat="45.19573" lon="5.71927">
        <ele>247</ele>
        <time>2021-07-11T03:42:13.000Z</time>
      </trkpt>
      <trkpt lat="45.19574" lon="5.71932">
        <ele>248</ele>
        <time>2021-07-11T03:42:16.000Z</time>
      </trkpt>
      <trkpt lat="45.19575" lon="5.71935">
        <ele>248.19999694824</ele>
        <time>2021-07-11T03:42:17.000Z</time>
      </trkpt>
      <trkpt lat="45.19577" lon="5.71937">
        <ele>248.39999389648</ele>
        <time>2021-07-11T03:42:18.000Z</time>
      </trkpt>
      <trkpt lat="45.19583" lon="5.71945">
        <ele>250</ele>
        <time>2021-07-11T03:42:22.000Z</time>
      </trkpt>
      <trkpt lat="45.19585" lon="5.71947">
        <ele>250.39999389648</ele>
        <time>2021-07-11T03:42:23.000Z</time>
      </trkpt>
      <trkpt lat="45.19589" lon="5.71953">
        <ele>250.80000305176</ele>
        <time>2021-07-11T03:42:26.000Z</time>
      </trkpt>
      <trkpt lat="45.19591" lon="5.71954">
        <ele>251.60000610352</ele>
        <time>2021-07-11T03:42:27.000Z</time>
      </trkpt>
      <trkpt lat="45.19592" lon="5.71955">
        <ele>251.80000305176</ele>
        <time>2021-07-11T03:42:28.000Z</time>
      </trkpt>
      <trkpt lat="45.19596" lon="5.71959">
        <ele>253</ele>
        <time>2021-07-11T03:42:31.000Z</time>
      </trkpt>
      <trkpt lat="45.19598" lon="5.71961">
        <ele>253.60000610352</ele>
        <time>2021-07-11T03:42:33.000Z</time>
      </trkpt>
      <trkpt lat="45.19603" lon="5.71966">
        <ele>254.19999694824</ele>
        <time>2021-07-11T03:42:36.000Z</time>
      </trkpt>
      <trkpt lat="45.19606" lon="5.71968">
        <ele>255</ele>
        <time>2021-07-11T03:42:39.000Z</time>
      </trkpt>
      <trkpt lat="45.19608" lon="5.71968">
        <ele>255.19999694824</ele>
        <time>2021-07-11T03:42:40.000Z</time>
      </trkpt>
      <trkpt lat="45.19613" lon="5.7197">
        <ele>256.39999389648</ele>
        <time>2021-07-11T03:42:44.000Z</time>
      </trkpt>
      <trkpt lat="45.19613" lon="5.71972">
        <ele>256.79998779297</ele>
        <time>2021-07-11T03:42:46.000Z</time>
      </trkpt>
      <trkpt lat="45.19615" lon="5.71974">
        <ele>257.60000610352</ele>
        <time>2021-07-11T03:42:48.000Z</time>
      </trkpt>
      <trkpt lat="45.19619" lon="5.71975">
        <ele>258.79998779297</ele>
        <time>2021-07-11T03:42:51.000Z</time>
      </trkpt>
      <trkpt lat="45.19621" lon="5.71977">
        <ele>259.20001220703</ele>
        <time>2021-07-11T03:42:53.000Z</time>
      </trkpt>
      <trkpt lat="45.19623" lon="5.71979">
        <ele>259.79998779297</ele>
        <time>2021-07-11T03:42:55.000Z</time>
      </trkpt>
      <trkpt lat="45.19626" lon="5.71982">
        <ele>261</ele>
        <time>2021-07-11T03:42:58.000Z</time>
      </trkpt>
      <trkpt lat="45.19627" lon="5.71983">
        <ele>261</ele>
        <time>2021-07-11T03:42:59.000Z</time>
      </trkpt>
      <trkpt lat="45.19628" lon="5.71985">
        <ele>262.20001220703</ele>
        <time>2021-07-11T03:43:01.000Z</time>
      </trkpt>
      <trkpt lat="45.19629" lon="5.71987">
        <ele>262.39999389648</ele>
        <time>2021-07-11T03:43:02.000Z</time>
      </trkpt>
      <trkpt lat="45.1963" lon="5.71989">
        <ele>263</ele>
        <time>2021-07-11T03:43:03.000Z</time>
      </trkpt>
      <trkpt lat="45.19633" lon="5.71992">
        <ele>263.39999389648</ele>
        <time>2021-07-11T03:43:06.000Z</time>
      </trkpt>
      <trkpt lat="45.19635" lon="5.71995">
        <ele>264.39999389648</ele>
        <time>2021-07-11T03:43:08.000Z</time>
      </trkpt>
      <trkpt lat="45.19638" lon="5.71997">
        <ele>265.60000610352</ele>
        <time>2021-07-11T03:43:11.000Z</time>
      </trkpt>
      <trkpt lat="45.19641" lon="5.71999">
        <ele>266.79998779297</ele>
        <time>2021-07-11T03:43:14.000Z</time>
      </trkpt>
      <trkpt lat="45.19641" lon="5.72">
        <ele>267.20001220703</ele>
        <time>2021-07-11T03:43:15.000Z</time>
      </trkpt>
      <trkpt lat="45.19644" lon="5.72006">
        <ele>268.20001220703</ele>
        <time>2021-07-11T03:43:18.000Z</time>
      </trkpt>
      <trkpt lat="45.19645" lon="5.72006">
        <ele>268.39999389648</ele>
        <time>2021-07-11T03:43:19.000Z</time>
      </trkpt>
      <trkpt lat="45.19647" lon="5.72008">
        <ele>270</ele>
        <time>2021-07-11T03:43:21.000Z</time>
      </trkpt>
      <trkpt lat="45.19649" lon="5.7201">
        <ele>270</ele>
        <time>2021-07-11T03:43:23.000Z</time>
      </trkpt>
      <trkpt lat="45.1965" lon="5.72011">
        <ele>270.39999389648</ele>
        <time>2021-07-11T03:43:24.000Z</time>
      </trkpt>
      <trkpt lat="45.19651" lon="5.72012">
        <ele>271.39999389648</ele>
        <time>2021-07-11T03:43:25.000Z</time>
      </trkpt>
      <trkpt lat="45.19652" lon="5.72013">
        <ele>271.39999389648</ele>
        <time>2021-07-11T03:43:26.000Z</time>
      </trkpt>
      <trkpt lat="45.19654" lon="5.72019">
        <ele>271.79998779297</ele>
        <time>2021-07-11T03:43:29.000Z</time>
      </trkpt>
      <trkpt lat="45.19657" lon="5.72025">
        <ele>272.39999389648</ele>
        <time>2021-07-11T03:43:32.000Z</time>
      </trkpt>
      <trkpt lat="45.1966" lon="5.72031">
        <ele>273.20001220703</ele>
        <time>2021-07-11T03:43:36.000Z</time>
      </trkpt>
      <trkpt lat="45.19659" lon="5.72034">
        <ele>273.60000610352</ele>
        <time>2021-07-11T03:43:38.000Z</time>
      </trkpt>
      <trkpt lat="45.19657" lon="5.72035">
        <ele>274.39999389648</ele>
        <time>2021-07-11T03:43:40.000Z</time>
      </trkpt>
      <trkpt lat="45.19657" lon="5.72039">
        <ele>274.60000610352</ele>
        <time>2021-07-11T03:43:42.000Z</time>
      </trkpt>
      <trkpt lat="45.19657" lon="5.72041">
        <ele>274.60000610352</ele>
        <time>2021-07-11T03:43:43.000Z</time>
      </trkpt>
      <trkpt lat="45.19655" lon="5.72046">
        <ele>275.20001220703</ele>
        <time>2021-07-11T03:43:45.000Z</time>
      </trkpt>
      <trkpt lat="45.19655" lon="5.72047">
        <ele>275.39999389648</ele>
        <time>2021-07-11T03:43:46.000Z</time>
      </trkpt>
      <trkpt lat="45.19655" lon="5.7205">
        <ele>275.60000610352</ele>
        <time>2021-07-11T03:43:48.000Z</time>
      </trkpt>
      <trkpt lat="45.19654" lon="5.72051">
        <ele>276</ele>
        <time>2021-07-11T03:43:49.000Z</time>
      </trkpt>
      <trkpt lat="45.19653" lon="5.72053">
        <ele>276.20001220703</ele>
        <time>2021-07-11T03:43:51.000Z</time>
      </trkpt>
      <trkpt lat="45.19653" lon="5.72055">
        <ele>276.39999389648</ele>
        <time>2021-07-11T03:43:53.000Z</time>
      </trkpt>
      <trkpt lat="45.19654" lon="5.72057">
        <ele>276.79998779297</ele>
        <time>2021-07-11T03:43:54.000Z</time>
      </trkpt>
      <trkpt lat="45.19654" lon="5.7206">
        <ele>277</ele>
        <time>2021-07-11T03:43:55.000Z</time>
      </trkpt>
      <trkpt lat="45.19653" lon="5.72062">
        <ele>277.20001220703</ele>
        <time>2021-07-11T03:43:56.000Z</time>
      </trkpt>
      <trkpt lat="45.19652" lon="5.72065">
        <ele>277.60000610352</ele>
        <time>2021-07-11T03:43:58.000Z</time>
      </trkpt>
      <trkpt lat="45.19652" lon="5.72066">
        <ele>277.60000610352</ele>
        <time>2021-07-11T03:43:59.000Z</time>
      </trkpt>
      <trkpt lat="45.19652" lon="5.72067">
        <ele>278.20001220703</ele>
        <time>2021-07-11T03:44:00.000Z</time>
      </trkpt>
      <trkpt lat="45.19656" lon="5.72069">
        <ele>278.79998779297</ele>
        <time>2021-07-11T03:44:03.000Z</time>
      </trkpt>
      <trkpt lat="45.19658" lon="5.7207">
        <ele>279</ele>
        <time>2021-07-11T03:44:04.000Z</time>
      </trkpt>
      <trkpt lat="45.19659" lon="5.72071">
        <ele>280</ele>
        <time>2021-07-11T03:44:05.000Z</time>
      </trkpt>
      <trkpt lat="45.19662" lon="5.72069">
        <ele>280.39999389648</ele>
        <time>2021-07-11T03:44:09.000Z</time>
      </trkpt>
      <trkpt lat="45.19664" lon="5.72069">
        <ele>281.20001220703</ele>
        <time>2021-07-11T03:44:12.000Z</time>
      </trkpt>
      <trkpt lat="45.19665" lon="5.72071">
        <ele>281.79998779297</ele>
        <time>2021-07-11T03:44:14.000Z</time>
      </trkpt>
      <trkpt lat="45.19667" lon="5.72072">
        <ele>282.39999389648</ele>
        <time>2021-07-11T03:44:16.000Z</time>
      </trkpt>
      <trkpt lat="45.19668" lon="5.72072">
        <ele>283</ele>
        <time>2021-07-11T03:44:18.000Z</time>
      </trkpt>
      <trkpt lat="45.19668" lon="5.72073">
        <ele>283.39999389648</ele>
        <time>2021-07-11T03:44:20.000Z</time>
      </trkpt>
      <trkpt lat="45.19667" lon="5.72074">
        <ele>283.60000610352</ele>
        <time>2021-07-11T03:44:21.000Z</time>
      </trkpt>
      <trkpt lat="45.19664" lon="5.72076">
        <ele>284</ele>
        <time>2021-07-11T03:44:23.000Z</time>
      </trkpt>
      <trkpt lat="45.19663" lon="5.72077">
        <ele>284.60000610352</ele>
        <time>2021-07-11T03:44:24.000Z</time>
      </trkpt>
      <trkpt lat="45.19663" lon="5.72077">
        <ele>284.79998779297</ele>
        <time>2021-07-11T03:44:25.000Z</time>
      </trkpt>
      <trkpt lat="45.19663" lon="5.72078">
        <ele>285</ele>
        <time>2021-07-11T03:44:28.000Z</time>
      </trkpt>
      <trkpt lat="45.19664" lon="5.72077">
        <ele>285.79998779297</ele>
        <time>2021-07-11T03:44:30.000Z</time>
      </trkpt>
      <trkpt lat="45.19666" lon="5.72078">
        <ele>286.39999389648</ele>
        <time>2021-07-11T03:44:32.000Z</time>
      </trkpt>
      <trkpt lat="45.1967" lon="5.7208">
        <ele>287</ele>
        <time>2021-07-11T03:44:35.000Z</time>
      </trkpt>
      <trkpt lat="45.19671" lon="5.7208">
        <ele>287.60000610352</ele>
        <time>2021-07-11T03:44:37.000Z</time>
      </trkpt>
      <trkpt lat="45.19673" lon="5.7208">
        <ele>288.39999389648</ele>
        <time>2021-07-11T03:44:40.000Z</time>
      </trkpt>
      <trkpt lat="45.19676" lon="5.72084">
        <ele>289.39999389648</ele>
        <time>2021-07-11T03:44:42.000Z</time>
      </trkpt>
      <trkpt lat="45.19677" lon="5.72085">
        <ele>289.39999389648</ele>
        <time>2021-07-11T03:44:43.000Z</time>
      </trkpt>
      <trkpt lat="45.19678" lon="5.72088">
        <ele>290</ele>
        <time>2021-07-11T03:44:44.000Z</time>
      </trkpt>
      <trkpt lat="45.19679" lon="5.72091">
        <ele>290.20001220703</ele>
        <time>2021-07-11T03:44:46.000Z</time>
      </trkpt>
      <trkpt lat="45.19679" lon="5.72093">
        <ele>290.39999389648</ele>
        <time>2021-07-11T03:44:47.000Z</time>
      </trkpt>
      <trkpt lat="45.19679" lon="5.72094">
        <ele>291.20001220703</ele>
        <time>2021-07-11T03:44:48.000Z</time>
      </trkpt>
      <trkpt lat="45.1968" lon="5.72096">
        <ele>291.20001220703</ele>
        <time>2021-07-11T03:44:49.000Z</time>
      </trkpt>
      <trkpt lat="45.19681" lon="5.721">
        <ele>292.20001220703</ele>
        <time>2021-07-11T03:44:53.000Z</time>
      </trkpt>
      <trkpt lat="45.19682" lon="5.72101">
        <ele>293</ele>
        <time>2021-07-11T03:44:54.000Z</time>
      </trkpt>
      <trkpt lat="45.19678" lon="5.72105">
        <ele>294</ele>
        <time>2021-07-11T03:44:58.000Z</time>
      </trkpt>
      <trkpt lat="45.19674" lon="5.72106">
        <ele>295</ele>
        <time>2021-07-11T03:45:01.000Z</time>
      </trkpt>
      <trkpt lat="45.19673" lon="5.72106">
        <ele>295.20001220703</ele>
        <time>2021-07-11T03:45:02.000Z</time>
      </trkpt>
      <trkpt lat="45.19671" lon="5.72107">
        <ele>295.39999389648</ele>
        <time>2021-07-11T03:45:03.000Z</time>
      </trkpt>
      <trkpt lat="45.19671" lon="5.72111">
        <ele>295.39999389648</ele>
        <time>2021-07-11T03:45:05.000Z</time>
      </trkpt>
      <trkpt lat="45.19672" lon="5.72113">
        <ele>295.79998779297</ele>
        <time>2021-07-11T03:45:06.000Z</time>
      </trkpt>
      <trkpt lat="45.19673" lon="5.72115">
        <ele>296.60000610352</ele>
        <time>2021-07-11T03:45:07.000Z</time>
      </trkpt>
      <trkpt lat="45.19672" lon="5.72119">
        <ele>297.39999389648</ele>
        <time>2021-07-11T03:45:10.000Z</time>
      </trkpt>
      <trkpt lat="45.19671" lon="5.7212">
        <ele>297.79998779297</ele>
        <time>2021-07-11T03:45:12.000Z</time>
      </trkpt>
      <trkpt lat="45.19669" lon="5.72123">
        <ele>298</ele>
        <time>2021-07-11T03:45:15.000Z</time>
      </trkpt>
      <trkpt lat="45.19667" lon="5.72127">
        <ele>298.39999389648</ele>
        <time>2021-07-11T03:45:17.000Z</time>
      </trkpt>
      <trkpt lat="45.19666" lon="5.7213">
        <ele>298.39999389648</ele>
        <time>2021-07-11T03:45:19.000Z</time>
      </trkpt>
      <trkpt lat="45.19655" lon="5.72137">
        <ele>298</ele>
        <time>2021-07-11T03:45:24.000Z</time>
      </trkpt>
      <trkpt lat="45.19636" lon="5.72139">
        <ele>297.39999389648</ele>
        <time>2021-07-11T03:45:30.000Z</time>
      </trkpt>
      <trkpt lat="45.19633" lon="5.72141">
        <ele>297.39999389648</ele>
        <time>2021-07-11T03:45:32.000Z</time>
      </trkpt>
      <trkpt lat="45.19628" lon="5.7215">
        <ele>297</ele>
        <time>2021-07-11T03:45:37.000Z</time>
      </trkpt>
      <trkpt lat="45.19622" lon="5.72151">
        <ele>296.60000610352</ele>
        <time>2021-07-11T03:45:39.000Z</time>
      </trkpt>
      <trkpt lat="45.19615" lon="5.72151">
        <ele>296.20001220703</ele>
        <time>2021-07-11T03:45:42.000Z</time>
      </trkpt>
      <trkpt lat="45.19613" lon="5.72151">
        <ele>296</ele>
        <time>2021-07-11T03:45:43.000Z</time>
      </trkpt>
      <trkpt lat="45.19608" lon="5.72153">
        <ele>296</ele>
        <time>2021-07-11T03:45:47.000Z</time>
      </trkpt>
      <trkpt lat="45.19603" lon="5.72158">
        <ele>296.20001220703</ele>
        <time>2021-07-11T03:45:50.000Z</time>
      </trkpt>
      <trkpt lat="45.19599" lon="5.72161">
        <ele>296</ele>
        <time>2021-07-11T03:45:52.000Z</time>
      </trkpt>
      <trkpt lat="45.19594" lon="5.72165">
        <ele>296</ele>
        <time>2021-07-11T03:45:55.000Z</time>
      </trkpt>
      <trkpt lat="45.19592" lon="5.72167">
        <ele>296</ele>
        <time>2021-07-11T03:45:56.000Z</time>
      </trkpt>
      <trkpt lat="45.19588" lon="5.72173">
        <ele>296.39999389648</ele>
        <time>2021-07-11T03:45:59.000Z</time>
      </trkpt>
      <trkpt lat="45.19589" lon="5.72178">
        <ele>296.79998779297</ele>
        <time>2021-07-11T03:46:02.000Z</time>
      </trkpt>
      <trkpt lat="45.19588" lon="5.7218">
        <ele>297.79998779297</ele>
        <time>2021-07-11T03:46:04.000Z</time>
      </trkpt>
      <trkpt lat="45.19585" lon="5.72183">
        <ele>298.39999389648</ele>
        <time>2021-07-11T03:46:07.000Z</time>
      </trkpt>
      <trkpt lat="45.19582" lon="5.72184">
        <ele>298.79998779297</ele>
        <time>2021-07-11T03:46:08.000Z</time>
      </trkpt>
      <trkpt lat="45.19574" lon="5.72184">
        <ele>300.20001220703</ele>
        <time>2021-07-11T03:46:12.000Z</time>
      </trkpt>
      <trkpt lat="45.19571" lon="5.72184">
        <ele>300.60000610352</ele>
        <time>2021-07-11T03:46:14.000Z</time>
      </trkpt>
      <trkpt lat="45.19566" lon="5.72181">
        <ele>300.79998779297</ele>
        <time>2021-07-11T03:46:17.000Z</time>
      </trkpt>
      <trkpt lat="45.19558" lon="5.72181">
        <ele>300.79998779297</ele>
        <time>2021-07-11T03:46:20.000Z</time>
      </trkpt>
      <trkpt lat="45.19549" lon="5.72179">
        <ele>300.60000610352</ele>
        <time>2021-07-11T03:46:24.000Z</time>
      </trkpt>
      <trkpt lat="45.19542" lon="5.72176">
        <ele>300.60000610352</ele>
        <time>2021-07-11T03:46:26.000Z</time>
      </trkpt>
      <trkpt lat="45.19537" lon="5.72175">
        <ele>300.60000610352</ele>
        <time>2021-07-11T03:46:28.000Z</time>
      </trkpt>
      <trkpt lat="45.19534" lon="5.72173">
        <ele>300.60000610352</ele>
        <time>2021-07-11T03:46:30.000Z</time>
      </trkpt>
      <trkpt lat="45.19532" lon="5.72173">
        <ele>300.79998779297</ele>
        <time>2021-07-11T03:46:31.000Z</time>
      </trkpt>
      <trkpt lat="45.19523" lon="5.7217">
        <ele>301.20001220703</ele>
        <time>2021-07-11T03:46:35.000Z</time>
      </trkpt>
      <trkpt lat="45.19519" lon="5.72168">
        <ele>301.20001220703</ele>
        <time>2021-07-11T03:46:37.000Z</time>
      </trkpt>
      <trkpt lat="45.19515" lon="5.72167">
        <ele>301.60000610352</ele>
        <time>2021-07-11T03:46:40.000Z</time>
      </trkpt>
      <trkpt lat="45.19512" lon="5.72168">
        <ele>302.20001220703</ele>
        <time>2021-07-11T03:46:42.000Z</time>
      </trkpt>
      <trkpt lat="45.19507" lon="5.72168">
        <ele>302.60000610352</ele>
        <time>2021-07-11T03:46:45.000Z</time>
      </trkpt>
      <trkpt lat="45.19504" lon="5.72165">
        <ele>303.79998779297</ele>
        <time>2021-07-11T03:46:49.000Z</time>
      </trkpt>
      <trkpt lat="45.19502" lon="5.72166">
        <ele>304.20001220703</ele>
        <time>2021-07-11T03:46:51.000Z</time>
      </trkpt>
      <trkpt lat="45.19501" lon="5.72169">
        <ele>304.79998779297</ele>
        <time>2021-07-11T03:46:53.000Z</time>
      </trkpt>
      <trkpt lat="45.19499" lon="5.7217">
        <ele>305</ele>
        <time>2021-07-11T03:46:54.000Z</time>
      </trkpt>
      <trkpt lat="45.19498" lon="5.7217">
        <ele>305.20001220703</ele>
        <time>2021-07-11T03:46:55.000Z</time>
      </trkpt>
      <trkpt lat="45.19495" lon="5.7217">
        <ele>306</ele>
        <time>2021-07-11T03:46:57.000Z</time>
      </trkpt>
      <trkpt lat="45.19495" lon="5.7217">
        <ele>306.39999389648</ele>
        <time>2021-07-11T03:46:58.000Z</time>
      </trkpt>
      <trkpt lat="45.19494" lon="5.7217">
        <ele>306.60000610352</ele>
        <time>2021-07-11T03:46:59.000Z</time>
      </trkpt>
      <trkpt lat="45.19494" lon="5.72171">
        <ele>307.20001220703</ele>
        <time>2021-07-11T03:47:02.000Z</time>
      </trkpt>
      <trkpt lat="45.19493" lon="5.72172">
        <ele>307.60000610352</ele>
        <time>2021-07-11T03:47:03.000Z</time>
      </trkpt>
      <trkpt lat="45.19494" lon="5.72177">
        <ele>308.39999389648</ele>
        <time>2021-07-11T03:47:06.000Z</time>
      </trkpt>
      <trkpt lat="45.19495" lon="5.72179">
        <ele>308.60000610352</ele>
        <time>2021-07-11T03:47:07.000Z</time>
      </trkpt>
      <trkpt lat="45.19497" lon="5.72183">
        <ele>309.60000610352</ele>
        <time>2021-07-11T03:47:10.000Z</time>
      </trkpt>
      <trkpt lat="45.19497" lon="5.72185">
        <ele>309.79998779297</ele>
        <time>2021-07-11T03:47:11.000Z</time>
      </trkpt>
      <trkpt lat="45.19498" lon="5.72189">
        <ele>310.20001220703</ele>
        <time>2021-07-11T03:47:13.000Z</time>
      </trkpt>
      <trkpt lat="45.19498" lon="5.72191">
        <ele>311</ele>
        <time>2021-07-11T03:47:14.000Z</time>
      </trkpt>
      <trkpt lat="45.19501" lon="5.72193">
        <ele>312</ele>
        <time>2021-07-11T03:47:18.000Z</time>
      </trkpt>
      <trkpt lat="45.19502" lon="5.72192">
        <ele>312.60000610352</ele>
        <time>2021-07-11T03:47:19.000Z</time>
      </trkpt>
      <trkpt lat="45.19503" lon="5.72193">
        <ele>312.79998779297</ele>
        <time>2021-07-11T03:47:20.000Z</time>
      </trkpt>
      <trkpt lat="45.19504" lon="5.72196">
        <ele>313.79998779297</ele>
        <time>2021-07-11T03:47:23.000Z</time>
      </trkpt>
      <trkpt lat="45.19507" lon="5.72194">
        <ele>314.79998779297</ele>
        <time>2021-07-11T03:47:27.000Z</time>
      </trkpt>
      <trkpt lat="45.19508" lon="5.72195">
        <ele>316</ele>
        <time>2021-07-11T03:47:29.000Z</time>
      </trkpt>
      <trkpt lat="45.19509" lon="5.72194">
        <ele>316.20001220703</ele>
        <time>2021-07-11T03:47:31.000Z</time>
      </trkpt>
      <trkpt lat="45.19511" lon="5.72194">
        <ele>316.79998779297</ele>
        <time>2021-07-11T03:47:33.000Z</time>
      </trkpt>
      <trkpt lat="45.19512" lon="5.72195">
        <ele>316.79998779297</ele>
        <time>2021-07-11T03:47:34.000Z</time>
      </trkpt>
      <trkpt lat="45.19513" lon="5.72197">
        <ele>316.79998779297</ele>
        <time>2021-07-11T03:47:36.000Z</time>
      </trkpt>
      <trkpt lat="45.19516" lon="5.722">
        <ele>317.60000610352</ele>
        <time>2021-07-11T03:47:38.000Z</time>
      </trkpt>
      <trkpt lat="45.19524" lon="5.72207">
        <ele>318.79998779297</ele>
        <time>2021-07-11T03:47:45.000Z</time>
      </trkpt>
      <trkpt lat="45.19527" lon="5.7221">
        <ele>319.39999389648</ele>
        <time>2021-07-11T03:47:47.000Z</time>
      </trkpt>
      <trkpt lat="45.19528" lon="5.72211">
        <ele>319.39999389648</ele>
        <time>2021-07-11T03:47:48.000Z</time>
      </trkpt>
      <trkpt lat="45.19533" lon="5.72216">
        <ele>319.79998779297</ele>
        <time>2021-07-11T03:47:51.000Z</time>
      </trkpt>
      <trkpt lat="45.19534" lon="5.72218">
        <ele>320.20001220703</ele>
        <time>2021-07-11T03:47:52.000Z</time>
      </trkpt>
      <trkpt lat="45.19535" lon="5.7222">
        <ele>321</ele>
        <time>2021-07-11T03:47:54.000Z</time>
      </trkpt>
      <trkpt lat="45.19538" lon="5.72225">
        <ele>321</ele>
        <time>2021-07-11T03:47:58.000Z</time>
      </trkpt>
      <trkpt lat="45.19539" lon="5.72227">
        <ele>322.20001220703</ele>
        <time>2021-07-11T03:47:59.000Z</time>
      </trkpt>
      <trkpt lat="45.1954" lon="5.72229">
        <ele>322.60000610352</ele>
        <time>2021-07-11T03:48:00.000Z</time>
      </trkpt>
      <trkpt lat="45.19542" lon="5.72233">
        <ele>323.39999389648</ele>
        <time>2021-07-11T03:48:02.000Z</time>
      </trkpt>
      <trkpt lat="45.19543" lon="5.72233">
        <ele>323.79998779297</ele>
        <time>2021-07-11T03:48:05.000Z</time>
      </trkpt>
      <trkpt lat="45.19544" lon="5.72233">
        <ele>324.39999389648</ele>
        <time>2021-07-11T03:48:06.000Z</time>
      </trkpt>
      <trkpt lat="45.19544" lon="5.72232">
        <ele>325.60000610352</ele>
        <time>2021-07-11T03:48:07.000Z</time>
      </trkpt>
      <trkpt lat="45.19545" lon="5.72232">
        <ele>326.39999389648</ele>
        <time>2021-07-11T03:48:09.000Z</time>
      </trkpt>
      <trkpt lat="45.19548" lon="5.7223">
        <ele>326.79998779297</ele>
        <time>2021-07-11T03:48:12.000Z</time>
      </trkpt>
      <trkpt lat="45.1955" lon="5.72229">
        <ele>326.79998779297</ele>
        <time>2021-07-11T03:48:13.000Z</time>
      </trkpt>
      <trkpt lat="45.1956" lon="5.72229">
        <ele>327.39999389648</ele>
        <time>2021-07-11T03:48:18.000Z</time>
      </trkpt>
      <trkpt lat="45.19563" lon="5.72231">
        <ele>328.20001220703</ele>
        <time>2021-07-11T03:48:20.000Z</time>
      </trkpt>
      <trkpt lat="45.19569" lon="5.72239">
        <ele>329.20001220703</ele>
        <time>2021-07-11T03:48:26.000Z</time>
      </trkpt>
      <trkpt lat="45.1957" lon="5.72239">
        <ele>329.39999389648</ele>
        <time>2021-07-11T03:48:27.000Z</time>
      </trkpt>
      <trkpt lat="45.19571" lon="5.7224">
        <ele>329.60000610352</ele>
        <time>2021-07-11T03:48:28.000Z</time>
      </trkpt>
      <trkpt lat="45.19576" lon="5.72244">
        <ele>330.39999389648</ele>
        <time>2021-07-11T03:48:32.000Z</time>
      </trkpt>
      <trkpt lat="45.19582" lon="5.72251">
        <ele>331.39999389648</ele>
        <time>2021-07-11T03:48:37.000Z</time>
      </trkpt>
      <trkpt lat="45.19583" lon="5.72251">
        <ele>331.60000610352</ele>
        <time>2021-07-11T03:48:38.000Z</time>
      </trkpt>
      <trkpt lat="45.19587" lon="5.72253">
        <ele>332.79998779297</ele>
        <time>2021-07-11T03:48:42.000Z</time>
      </trkpt>
      <trkpt lat="45.19588" lon="5.72254">
        <ele>333</ele>
        <time>2021-07-11T03:48:44.000Z</time>
      </trkpt>
      <trkpt lat="45.19594" lon="5.72256">
        <ele>333.79998779297</ele>
        <time>2021-07-11T03:48:48.000Z</time>
      </trkpt>
      <trkpt lat="45.19598" lon="5.72257">
        <ele>334.39999389648</ele>
        <time>2021-07-11T03:48:51.000Z</time>
      </trkpt>
      <trkpt lat="45.19602" lon="5.72257">
        <ele>335</ele>
        <time>2021-07-11T03:48:54.000Z</time>
      </trkpt>
      <trkpt lat="45.19605" lon="5.72257">
        <ele>335.20001220703</ele>
        <time>2021-07-11T03:48:56.000Z</time>
      </trkpt>
      <trkpt lat="45.19607" lon="5.72258">
        <ele>335.60000610352</ele>
        <time>2021-07-11T03:48:58.000Z</time>
      </trkpt>
      <trkpt lat="45.19612" lon="5.7226">
        <ele>336</ele>
        <time>2021-07-11T03:49:01.000Z</time>
      </trkpt>
      <trkpt lat="45.1962" lon="5.72259">
        <ele>336.39999389648</ele>
        <time>2021-07-11T03:49:06.000Z</time>
      </trkpt>
      <trkpt lat="45.19624" lon="5.72259">
        <ele>337</ele>
        <time>2021-07-11T03:49:08.000Z</time>
      </trkpt>
      <trkpt lat="45.19633" lon="5.72261">
        <ele>337.79998779297</ele>
        <time>2021-07-11T03:49:13.000Z</time>
      </trkpt>
      <trkpt lat="45.19635" lon="5.72261">
        <ele>338.39999389648</ele>
        <time>2021-07-11T03:49:15.000Z</time>
      </trkpt>
      <trkpt lat="45.19636" lon="5.72262">
        <ele>338.39999389648</ele>
        <time>2021-07-11T03:49:16.000Z</time>
      </trkpt>
      <trkpt lat="45.19638" lon="5.72263">
        <ele>338.39999389648</ele>
        <time>2021-07-11T03:49:17.000Z</time>
      </trkpt>
      <trkpt lat="45.19643" lon="5.72264">
        <ele>338.79998779297</ele>
        <time>2021-07-11T03:49:20.000Z</time>
      </trkpt>
      <trkpt lat="45.19648" lon="5.72263">
        <ele>339.60000610352</ele>
        <time>2021-07-11T03:49:24.000Z</time>
      </trkpt>
      <trkpt lat="45.19652" lon="5.72264">
        <ele>339.79998779297</ele>
        <time>2021-07-11T03:49:26.000Z</time>
      </trkpt>
      <trkpt lat="45.19656" lon="5.72263">
        <ele>339.79998779297</ele>
        <time>2021-07-11T03:49:28.000Z</time>
      </trkpt>
      <trkpt lat="45.19663" lon="5.7226">
        <ele>340.60000610352</ele>
        <time>2021-07-11T03:49:32.000Z</time>
      </trkpt>
      <trkpt lat="45.19668" lon="5.72258">
        <ele>341.39999389648</ele>
        <time>2021-07-11T03:49:36.000Z</time>
      </trkpt>
      <trkpt lat="45.19671" lon="5.72257">
        <ele>341.79998779297</ele>
        <time>2021-07-11T03:49:38.000Z</time>
      </trkpt>
      <trkpt lat="45.19673" lon="5.72256">
        <ele>342.20001220703</ele>
        <time>2021-07-11T03:49:39.000Z</time>
      </trkpt>
      <trkpt lat="45.19678" lon="5.7225">
        <ele>343</ele>
        <time>2021-07-11T03:49:43.000Z</time>
      </trkpt>
      <trkpt lat="45.19682" lon="5.72243">
        <ele>344.20001220703</ele>
        <time>2021-07-11T03:49:47.000Z</time>
      </trkpt>
      <trkpt lat="45.19685" lon="5.7224">
        <ele>344.20001220703</ele>
        <time>2021-07-11T03:49:49.000Z</time>
      </trkpt>
      <trkpt lat="45.19687" lon="5.72236">
        <ele>344.20001220703</ele>
        <time>2021-07-11T03:49:51.000Z</time>
      </trkpt>
      <trkpt lat="45.19687" lon="5.72228">
        <ele>345.20001220703</ele>
        <time>2021-07-11T03:49:54.000Z</time>
      </trkpt>
      <trkpt lat="45.19687" lon="5.72223">
        <ele>345.20001220703</ele>
        <time>2021-07-11T03:49:56.000Z</time>
      </trkpt>
      <trkpt lat="45.19691" lon="5.72217">
        <ele>345.79998779297</ele>
        <time>2021-07-11T03:49:59.000Z</time>
      </trkpt>
      <trkpt lat="45.19697" lon="5.72209">
        <ele>346.39999389648</ele>
        <time>2021-07-11T03:50:03.000Z</time>
      </trkpt>
      <trkpt lat="45.19699" lon="5.72205">
        <ele>347.20001220703</ele>
        <time>2021-07-11T03:50:05.000Z</time>
      </trkpt>
      <trkpt lat="45.19704" lon="5.722">
        <ele>347.39999389648</ele>
        <time>2021-07-11T03:50:08.000Z</time>
      </trkpt>
      <trkpt lat="45.19713" lon="5.72194">
        <ele>348.20001220703</ele>
        <time>2021-07-11T03:50:13.000Z</time>
      </trkpt>
      <trkpt lat="45.19716" lon="5.72193">
        <ele>348.39999389648</ele>
        <time>2021-07-11T03:50:15.000Z</time>
      </trkpt>
      <trkpt lat="45.19723" lon="5.72193">
        <ele>349.60000610352</ele>
        <time>2021-07-11T03:50:19.000Z</time>
      </trkpt>
      <trkpt lat="45.19728" lon="5.72196">
        <ele>350</ele>
        <time>2021-07-11T03:50:23.000Z</time>
      </trkpt>
      <trkpt lat="45.19729" lon="5.72197">
        <ele>350.20001220703</ele>
        <time>2021-07-11T03:50:24.000Z</time>
      </trkpt>
      <trkpt lat="45.1973" lon="5.72199">
        <ele>350.39999389648</ele>
        <time>2021-07-11T03:50:26.000Z</time>
      </trkpt>
      <trkpt lat="45.1973" lon="5.72202">
        <ele>350.60000610352</ele>
        <time>2021-07-11T03:50:28.000Z</time>
      </trkpt>
      <trkpt lat="45.19728" lon="5.72203">
        <ele>351.39999389648</ele>
        <time>2021-07-11T03:50:29.000Z</time>
      </trkpt>
      <trkpt lat="45.19726" lon="5.72209">
        <ele>352.39999389648</ele>
        <time>2021-07-11T03:50:34.000Z</time>
      </trkpt>
      <trkpt lat="45.19725" lon="5.72209">
        <ele>352.79998779297</ele>
        <time>2021-07-11T03:50:35.000Z</time>
      </trkpt>
      <trkpt lat="45.19724" lon="5.72213">
        <ele>353</ele>
        <time>2021-07-11T03:50:37.000Z</time>
      </trkpt>
      <trkpt lat="45.19723" lon="5.72217">
        <ele>353.79998779297</ele>
        <time>2021-07-11T03:50:40.000Z</time>
      </trkpt>
      <trkpt lat="45.19722" lon="5.72218">
        <ele>354</ele>
        <time>2021-07-11T03:50:41.000Z</time>
      </trkpt>
      <trkpt lat="45.1972" lon="5.72219">
        <ele>354.20001220703</ele>
        <time>2021-07-11T03:50:42.000Z</time>
      </trkpt>
      <trkpt lat="45.19718" lon="5.72221">
        <ele>355</ele>
        <time>2021-07-11T03:50:44.000Z</time>
      </trkpt>
      <trkpt lat="45.19714" lon="5.72225">
        <ele>355.39999389648</ele>
        <time>2021-07-11T03:50:48.000Z</time>
      </trkpt>
      <trkpt lat="45.19711" lon="5.72228">
        <ele>356</ele>
        <time>2021-07-11T03:50:50.000Z</time>
      </trkpt>
      <trkpt lat="45.19709" lon="5.72228">
        <ele>356</ele>
        <time>2021-07-11T03:50:51.000Z</time>
      </trkpt>
      <trkpt lat="45.19702" lon="5.72228">
        <ele>356.60000610352</ele>
        <time>2021-07-11T03:50:54.000Z</time>
      </trkpt>
      <trkpt lat="45.197" lon="5.7223">
        <ele>356.79998779297</ele>
        <time>2021-07-11T03:50:56.000Z</time>
      </trkpt>
      <trkpt lat="45.19699" lon="5.72232">
        <ele>357.20001220703</ele>
        <time>2021-07-11T03:50:57.000Z</time>
      </trkpt>
      <trkpt lat="45.197" lon="5.72233">
        <ele>357.20001220703</ele>
        <time>2021-07-11T03:50:58.000Z</time>
      </trkpt>
      <trkpt lat="45.19703" lon="5.72235">
        <ele>357.79998779297</ele>
        <time>2021-07-11T03:51:01.000Z</time>
      </trkpt>
      <trkpt lat="45.19704" lon="5.72234">
        <ele>358</ele>
        <time>2021-07-11T03:51:02.000Z</time>
      </trkpt>
      <trkpt lat="45.19706" lon="5.72235">
        <ele>358.20001220703</ele>
        <time>2021-07-11T03:51:03.000Z</time>
      </trkpt>
      <trkpt lat="45.19708" lon="5.72235">
        <ele>358.39999389648</ele>
        <time>2021-07-11T03:51:04.000Z</time>
      </trkpt>
      <trkpt lat="45.19714" lon="5.72233">
        <ele>359</ele>
        <time>2021-07-11T03:51:08.000Z</time>
      </trkpt>
      <trkpt lat="45.19716" lon="5.72233">
        <ele>359.20001220703</ele>
        <time>2021-07-11T03:51:09.000Z</time>
      </trkpt>
      <trkpt lat="45.19717" lon="5.72233">
        <ele>359.60000610352</ele>
        <time>2021-07-11T03:51:10.000Z</time>
      </trkpt>
      <trkpt lat="45.19721" lon="5.72233">
        <ele>360.39999389648</ele>
        <time>2021-07-11T03:51:13.000Z</time>
      </trkpt>
      <trkpt lat="45.19722" lon="5.72234">
        <ele>360.60000610352</ele>
        <time>2021-07-11T03:51:14.000Z</time>
      </trkpt>
      <trkpt lat="45.1973" lon="5.72238">
        <ele>362</ele>
        <time>2021-07-11T03:51:20.000Z</time>
      </trkpt>
      <trkpt lat="45.19732" lon="5.72237">
        <ele>362.20001220703</ele>
        <time>2021-07-11T03:51:22.000Z</time>
      </trkpt>
      <trkpt lat="45.19733" lon="5.72236">
        <ele>362.79998779297</ele>
        <time>2021-07-11T03:51:24.000Z</time>
      </trkpt>
      <trkpt lat="45.19734" lon="5.72235">
        <ele>363.20001220703</ele>
        <time>2021-07-11T03:51:26.000Z</time>
      </trkpt>
      <trkpt lat="45.19737" lon="5.72234">
        <ele>363.39999389648</ele>
        <time>2021-07-11T03:51:29.000Z</time>
      </trkpt>
      <trkpt lat="45.19747" lon="5.72236">
        <ele>364.60000610352</ele>
        <time>2021-07-11T03:51:35.000Z</time>
      </trkpt>
      <trkpt lat="45.1975" lon="5.72236">
        <ele>365</ele>
        <time>2021-07-11T03:51:37.000Z</time>
      </trkpt>
      <trkpt lat="45.19757" lon="5.72237">
        <ele>365.79998779297</ele>
        <time>2021-07-11T03:51:41.000Z</time>
      </trkpt>
      <trkpt lat="45.1976" lon="5.72237">
        <ele>366.20001220703</ele>
        <time>2021-07-11T03:51:43.000Z</time>
      </trkpt>
      <trkpt lat="45.19767" lon="5.72237">
        <ele>366.79998779297</ele>
        <time>2021-07-11T03:51:47.000Z</time>
      </trkpt>
      <trkpt lat="45.19771" lon="5.72237">
        <ele>367.20001220703</ele>
        <time>2021-07-11T03:51:49.000Z</time>
      </trkpt>
      <trkpt lat="45.19772" lon="5.72236">
        <ele>367.60000610352</ele>
        <time>2021-07-11T03:51:50.000Z</time>
      </trkpt>
      <trkpt lat="45.19776" lon="5.72234">
        <ele>368</ele>
        <time>2021-07-11T03:51:52.000Z</time>
      </trkpt>
      <trkpt lat="45.19779" lon="5.72235">
        <ele>368.20001220703</ele>
        <time>2021-07-11T03:51:54.000Z</time>
      </trkpt>
      <trkpt lat="45.19782" lon="5.72238">
        <ele>368.79998779297</ele>
        <time>2021-07-11T03:51:57.000Z</time>
      </trkpt>
      <trkpt lat="45.19782" lon="5.72239">
        <ele>369.39999389648</ele>
        <time>2021-07-11T03:51:58.000Z</time>
      </trkpt>
      <trkpt lat="45.19781" lon="5.7224">
        <ele>369.39999389648</ele>
        <time>2021-07-11T03:51:59.000Z</time>
      </trkpt>
      <trkpt lat="45.19781" lon="5.72241">
        <ele>370</ele>
        <time>2021-07-11T03:52:00.000Z</time>
      </trkpt>
      <trkpt lat="45.1978" lon="5.72244">
        <ele>370.39999389648</ele>
        <time>2021-07-11T03:52:02.000Z</time>
      </trkpt>
      <trkpt lat="45.19779" lon="5.72245">
        <ele>370.39999389648</ele>
        <time>2021-07-11T03:52:03.000Z</time>
      </trkpt>
      <trkpt lat="45.19777" lon="5.72248">
        <ele>371.20001220703</ele>
        <time>2021-07-11T03:52:07.000Z</time>
      </trkpt>
      <trkpt lat="45.19777" lon="5.72248">
        <ele>371.20001220703</ele>
        <time>2021-07-11T03:52:08.000Z</time>
      </trkpt>
      <trkpt lat="45.19777" lon="5.72247">
        <ele>371.39999389648</ele>
        <time>2021-07-11T03:52:09.000Z</time>
      </trkpt>
      <trkpt lat="45.19778" lon="5.72247">
        <ele>371.79998779297</ele>
        <time>2021-07-11T03:52:10.000Z</time>
      </trkpt>
      <trkpt lat="45.19779" lon="5.72247">
        <ele>372</ele>
        <time>2021-07-11T03:52:11.000Z</time>
      </trkpt>
      <trkpt lat="45.1978" lon="5.72245">
        <ele>372.79998779297</ele>
        <time>2021-07-11T03:52:14.000Z</time>
      </trkpt>
      <trkpt lat="45.19783" lon="5.72243">
        <ele>372.79998779297</ele>
        <time>2021-07-11T03:52:17.000Z</time>
      </trkpt>
      <trkpt lat="45.19783" lon="5.72242">
        <ele>372.79998779297</ele>
        <time>2021-07-11T03:52:18.000Z</time>
      </trkpt>
      <trkpt lat="45.19784" lon="5.7224">
        <ele>373.39999389648</ele>
        <time>2021-07-11T03:52:20.000Z</time>
      </trkpt>
      <trkpt lat="45.19786" lon="5.72238">
        <ele>373.79998779297</ele>
        <time>2021-07-11T03:52:24.000Z</time>
      </trkpt>
      <trkpt lat="45.19787" lon="5.72239">
        <ele>373.79998779297</ele>
        <time>2021-07-11T03:52:26.000Z</time>
      </trkpt>
      <trkpt lat="45.19787" lon="5.7224">
        <ele>373.79998779297</ele>
        <time>2021-07-11T03:52:27.000Z</time>
      </trkpt>
      <trkpt lat="45.19787" lon="5.72239">
        <ele>374.60000610352</ele>
        <time>2021-07-11T03:52:28.000Z</time>
      </trkpt>
      <trkpt lat="45.19789" lon="5.72236">
        <ele>375</ele>
        <time>2021-07-11T03:52:31.000Z</time>
      </trkpt>
      <trkpt lat="45.1979" lon="5.72234">
        <ele>375</ele>
        <time>2021-07-11T03:52:32.000Z</time>
      </trkpt>
      <trkpt lat="45.19791" lon="5.72232">
        <ele>375.39999389648</ele>
        <time>2021-07-11T03:52:34.000Z</time>
      </trkpt>
      <trkpt lat="45.19792" lon="5.72232">
        <ele>376.39999389648</ele>
        <time>2021-07-11T03:52:36.000Z</time>
      </trkpt>
      <trkpt lat="45.19794" lon="5.72235">
        <ele>376.39999389648</ele>
        <time>2021-07-11T03:52:38.000Z</time>
      </trkpt>
      <trkpt lat="45.19792" lon="5.72239">
        <ele>377.39999389648</ele>
        <time>2021-07-11T03:52:42.000Z</time>
      </trkpt>
      <trkpt lat="45.19793" lon="5.72239">
        <ele>378.39999389648</ele>
        <time>2021-07-11T03:52:46.000Z</time>
      </trkpt>
      <trkpt lat="45.19794" lon="5.72238">
        <ele>378.39999389648</ele>
        <time>2021-07-11T03:52:47.000Z</time>
      </trkpt>
      <trkpt lat="45.19795" lon="5.72235">
        <ele>379</ele>
        <time>2021-07-11T03:52:49.000Z</time>
      </trkpt>
      <trkpt lat="45.19797" lon="5.72236">
        <ele>379.20001220703</ele>
        <time>2021-07-11T03:52:52.000Z</time>
      </trkpt>
      <trkpt lat="45.19797" lon="5.72238">
        <ele>379.60000610352</ele>
        <time>2021-07-11T03:52:53.000Z</time>
      </trkpt>
      <trkpt lat="45.19796" lon="5.72242">
        <ele>380.39999389648</ele>
        <time>2021-07-11T03:52:57.000Z</time>
      </trkpt>
      <trkpt lat="45.19795" lon="5.72243">
        <ele>380.79998779297</ele>
        <time>2021-07-11T03:52:58.000Z</time>
      </trkpt>
      <trkpt lat="45.19796" lon="5.72241">
        <ele>381.20001220703</ele>
        <time>2021-07-11T03:53:01.000Z</time>
      </trkpt>
      <trkpt lat="45.19797" lon="5.7224">
        <ele>382</ele>
        <time>2021-07-11T03:53:02.000Z</time>
      </trkpt>
      <trkpt lat="45.19798" lon="5.72239">
        <ele>382</ele>
        <time>2021-07-11T03:53:03.000Z</time>
      </trkpt>
      <trkpt lat="45.198" lon="5.72237">
        <ele>382.20001220703</ele>
        <time>2021-07-11T03:53:06.000Z</time>
      </trkpt>
      <trkpt lat="45.198" lon="5.72238">
        <ele>382.79998779297</ele>
        <time>2021-07-11T03:53:08.000Z</time>
      </trkpt>
      <trkpt lat="45.19799" lon="5.72238">
        <ele>383</ele>
        <time>2021-07-11T03:53:09.000Z</time>
      </trkpt>
      <trkpt lat="45.19798" lon="5.7224">
        <ele>383.20001220703</ele>
        <time>2021-07-11T03:53:10.000Z</time>
      </trkpt>
      <trkpt lat="45.19798" lon="5.72241">
        <ele>383.20001220703</ele>
        <time>2021-07-11T03:53:11.000Z</time>
      </trkpt>
      <trkpt lat="45.19799" lon="5.72244">
        <ele>384.39999389648</ele>
        <time>2021-07-11T03:53:16.000Z</time>
      </trkpt>
      <trkpt lat="45.198" lon="5.72244">
        <ele>384.79998779297</ele>
        <time>2021-07-11T03:53:18.000Z</time>
      </trkpt>
      <trkpt lat="45.19802" lon="5.72242">
        <ele>385</ele>
        <time>2021-07-11T03:53:20.000Z</time>
      </trkpt>
      <trkpt lat="45.19803" lon="5.72243">
        <ele>385</ele>
        <time>2021-07-11T03:53:21.000Z</time>
      </trkpt>
      <trkpt lat="45.19804" lon="5.72245">
        <ele>385.60000610352</ele>
        <time>2021-07-11T03:53:23.000Z</time>
      </trkpt>
      <trkpt lat="45.19803" lon="5.72248">
        <ele>386.20001220703</ele>
        <time>2021-07-11T03:53:25.000Z</time>
      </trkpt>
      <trkpt lat="45.19802" lon="5.7225">
        <ele>386.60000610352</ele>
        <time>2021-07-11T03:53:27.000Z</time>
      </trkpt>
      <trkpt lat="45.19803" lon="5.7225">
        <ele>386.79998779297</ele>
        <time>2021-07-11T03:53:29.000Z</time>
      </trkpt>
      <trkpt lat="45.19803" lon="5.72248">
        <ele>387.39999389648</ele>
        <time>2021-07-11T03:53:31.000Z</time>
      </trkpt>
      <trkpt lat="45.19804" lon="5.72247">
        <ele>387.60000610352</ele>
        <time>2021-07-11T03:53:32.000Z</time>
      </trkpt>
      <trkpt lat="45.19805" lon="5.7225">
        <ele>388.79998779297</ele>
        <time>2021-07-11T03:53:36.000Z</time>
      </trkpt>
      <trkpt lat="45.19804" lon="5.72253">
        <ele>389.20001220703</ele>
        <time>2021-07-11T03:53:38.000Z</time>
      </trkpt>
      <trkpt lat="45.19802" lon="5.72254">
        <ele>390.20001220703</ele>
        <time>2021-07-11T03:53:41.000Z</time>
      </trkpt>
      <trkpt lat="45.19802" lon="5.72254">
        <ele>390.20001220703</ele>
        <time>2021-07-11T03:53:42.000Z</time>
      </trkpt>
      <trkpt lat="45.19803" lon="5.72255">
        <ele>390.20001220703</ele>
        <time>2021-07-11T03:53:43.000Z</time>
      </trkpt>
      <trkpt lat="45.19805" lon="5.72254">
        <ele>390.60000610352</ele>
        <time>2021-07-11T03:53:46.000Z</time>
      </trkpt>
      <trkpt lat="45.19805" lon="5.72254">
        <ele>391.39999389648</ele>
        <time>2021-07-11T03:53:47.000Z</time>
      </trkpt>
      <trkpt lat="45.19808" lon="5.72257">
        <ele>392.60000610352</ele>
        <time>2021-07-11T03:53:50.000Z</time>
      </trkpt>
      <trkpt lat="45.19808" lon="5.72258">
        <ele>392.60000610352</ele>
        <time>2021-07-11T03:53:51.000Z</time>
      </trkpt>
      <trkpt lat="45.19808" lon="5.72257">
        <ele>393</ele>
        <time>2021-07-11T03:53:52.000Z</time>
      </trkpt>
      <trkpt lat="45.19807" lon="5.72254">
        <ele>393.60000610352</ele>
        <time>2021-07-11T03:53:55.000Z</time>
      </trkpt>
      <trkpt lat="45.19805" lon="5.72252">
        <ele>394.79998779297</ele>
        <time>2021-07-11T03:53:59.000Z</time>
      </trkpt>
      <trkpt lat="45.19806" lon="5.72252">
        <ele>395.20001220703</ele>
        <time>2021-07-11T03:54:00.000Z</time>
      </trkpt>
      <trkpt lat="45.19804" lon="5.72249">
        <ele>395.79998779297</ele>
        <time>2021-07-11T03:54:02.000Z</time>
      </trkpt>
      <trkpt lat="45.19803" lon="5.72248">
        <ele>396</ele>
        <time>2021-07-11T03:54:03.000Z</time>
      </trkpt>
      <trkpt lat="45.19803" lon="5.72248">
        <ele>396.20001220703</ele>
        <time>2021-07-11T03:54:04.000Z</time>
      </trkpt>
      <trkpt lat="45.19803" lon="5.72248">
        <ele>396.60000610352</ele>
        <time>2021-07-11T03:54:05.000Z</time>
      </trkpt>
      <trkpt lat="45.19802" lon="5.72247">
        <ele>396.79998779297</ele>
        <time>2021-07-11T03:54:06.000Z</time>
      </trkpt>
      <trkpt lat="45.198" lon="5.72245">
        <ele>397.39999389648</ele>
        <time>2021-07-11T03:54:08.000Z</time>
      </trkpt>
      <trkpt lat="45.19801" lon="5.72244">
        <ele>398.60000610352</ele>
        <time>2021-07-11T03:54:10.000Z</time>
      </trkpt>
      <trkpt lat="45.19802" lon="5.72243">
        <ele>398.79998779297</ele>
        <time>2021-07-11T03:54:12.000Z</time>
      </trkpt>
      <trkpt lat="45.19802" lon="5.72242">
        <ele>399.79998779297</ele>
        <time>2021-07-11T03:54:14.000Z</time>
      </trkpt>
      <trkpt lat="45.19802" lon="5.7224">
        <ele>400.60000610352</ele>
        <time>2021-07-11T03:54:16.000Z</time>
      </trkpt>
      <trkpt lat="45.19802" lon="5.72239">
        <ele>400.79998779297</ele>
        <time>2021-07-11T03:54:17.000Z</time>
      </trkpt>
      <trkpt lat="45.19802" lon="5.72237">
        <ele>400.79998779297</ele>
        <time>2021-07-11T03:54:18.000Z</time>
      </trkpt>
      <trkpt lat="45.19803" lon="5.72233">
        <ele>401.20001220703</ele>
        <time>2021-07-11T03:54:20.000Z</time>
      </trkpt>
      <trkpt lat="45.19804" lon="5.72232">
        <ele>401.39999389648</ele>
        <time>2021-07-11T03:54:21.000Z</time>
      </trkpt>
      <trkpt lat="45.19811" lon="5.72228">
        <ele>402</ele>
        <time>2021-07-11T03:54:24.000Z</time>
      </trkpt>
      <trkpt lat="45.19813" lon="5.72227">
        <ele>402.60000610352</ele>
        <time>2021-07-11T03:54:26.000Z</time>
      </trkpt>
      <trkpt lat="45.19817" lon="5.72226">
        <ele>403</ele>
        <time>2021-07-11T03:54:29.000Z</time>
      </trkpt>
      <trkpt lat="45.19817" lon="5.72227">
        <ele>403.20001220703</ele>
        <time>2021-07-11T03:54:30.000Z</time>
      </trkpt>
      <trkpt lat="45.19818" lon="5.72229">
        <ele>403.39999389648</ele>
        <time>2021-07-11T03:54:31.000Z</time>
      </trkpt>
      <trkpt lat="45.1982" lon="5.72231">
        <ele>404.20001220703</ele>
        <time>2021-07-11T03:54:33.000Z</time>
      </trkpt>
      <trkpt lat="45.1982" lon="5.72233">
        <ele>404.20001220703</ele>
        <time>2021-07-11T03:54:35.000Z</time>
      </trkpt>
      <trkpt lat="45.1982" lon="5.72234">
        <ele>405</ele>
        <time>2021-07-11T03:54:36.000Z</time>
      </trkpt>
      <trkpt lat="45.19821" lon="5.72236">
        <ele>405.20001220703</ele>
        <time>2021-07-11T03:54:38.000Z</time>
      </trkpt>
      <trkpt lat="45.19822" lon="5.72237">
        <ele>405.20001220703</ele>
        <time>2021-07-11T03:54:39.000Z</time>
      </trkpt>
      <trkpt lat="45.19824" lon="5.72236">
        <ele>406.39999389648</ele>
        <time>2021-07-11T03:54:42.000Z</time>
      </trkpt>
      <trkpt lat="45.19826" lon="5.72235">
        <ele>406.79998779297</ele>
        <time>2021-07-11T03:54:44.000Z</time>
      </trkpt>
      <trkpt lat="45.1983" lon="5.72237">
        <ele>408.20001220703</ele>
        <time>2021-07-11T03:54:48.000Z</time>
      </trkpt>
      <trkpt lat="45.19831" lon="5.72239">
        <ele>408.20001220703</ele>
        <time>2021-07-11T03:54:49.000Z</time>
      </trkpt>
      <trkpt lat="45.19831" lon="5.72241">
        <ele>408.60000610352</ele>
        <time>2021-07-11T03:54:50.000Z</time>
      </trkpt>
      <trkpt lat="45.19833" lon="5.72246">
        <ele>409.60000610352</ele>
        <time>2021-07-11T03:54:53.000Z</time>
      </trkpt>
      <trkpt lat="45.19832" lon="5.72249">
        <ele>410</ele>
        <time>2021-07-11T03:54:56.000Z</time>
      </trkpt>
      <trkpt lat="45.19832" lon="5.72256">
        <ele>410.60000610352</ele>
        <time>2021-07-11T03:55:00.000Z</time>
      </trkpt>
      <trkpt lat="45.19833" lon="5.72257">
        <ele>411.20001220703</ele>
        <time>2021-07-11T03:55:02.000Z</time>
      </trkpt>
      <trkpt lat="45.19833" lon="5.72258">
        <ele>411.79998779297</ele>
        <time>2021-07-11T03:55:04.000Z</time>
      </trkpt>
      <trkpt lat="45.19837" lon="5.72264">
        <ele>421.20001220703</ele>
        <time>2021-07-11T03:55:32.000Z</time>
      </trkpt>
      <trkpt lat="45.19834" lon="5.72266">
        <ele>421.20001220703</ele>
        <time>2021-07-11T03:55:34.000Z</time>
      </trkpt>
      <trkpt lat="45.19841" lon="5.72256">
        <ele>422.60000610352</ele>
        <time>2021-07-11T03:55:38.000Z</time>
      </trkpt>
      <trkpt lat="45.19841" lon="5.72255">
        <ele>423.20001220703</ele>
        <time>2021-07-11T03:55:39.000Z</time>
      </trkpt>
      <trkpt lat="45.19845" lon="5.72254">
        <ele>423.60000610352</ele>
        <time>2021-07-11T03:55:41.000Z</time>
      </trkpt>
      <trkpt lat="45.19847" lon="5.72253">
        <ele>425.20001220703</ele>
        <time>2021-07-11T03:55:44.000Z</time>
      </trkpt>
      <trkpt lat="45.19847" lon="5.72254">
        <ele>425.79998779297</ele>
        <time>2021-07-11T03:55:45.000Z</time>
      </trkpt>
      <trkpt lat="45.19845" lon="5.72258">
        <ele>426.20001220703</ele>
        <time>2021-07-11T03:55:49.000Z</time>
      </trkpt>
      <trkpt lat="45.19844" lon="5.72259">
        <ele>426.20001220703</ele>
        <time>2021-07-11T03:55:50.000Z</time>
      </trkpt>
      <trkpt lat="45.19843" lon="5.7226">
        <ele>426.20001220703</ele>
        <time>2021-07-11T03:55:51.000Z</time>
      </trkpt>
      <trkpt lat="45.19843" lon="5.72274">
        <ele>426.39999389648</ele>
        <time>2021-07-11T03:55:56.000Z</time>
      </trkpt>
      <trkpt lat="45.1984" lon="5.72285">
        <ele>426.79998779297</ele>
        <time>2021-07-11T03:56:01.000Z</time>
      </trkpt>
      <trkpt lat="45.19838" lon="5.72288">
        <ele>427.39999389648</ele>
        <time>2021-07-11T03:56:03.000Z</time>
      </trkpt>
      <trkpt lat="45.19837" lon="5.72291">
        <ele>427.60000610352</ele>
        <time>2021-07-11T03:56:05.000Z</time>
      </trkpt>
      <trkpt lat="45.19837" lon="5.72291">
        <ele>427.60000610352</ele>
        <time>2021-07-11T03:56:07.000Z</time>
      </trkpt>
      <trkpt lat="45.19838" lon="5.7229">
        <ele>427.60000610352</ele>
        <time>2021-07-11T03:56:08.000Z</time>
      </trkpt>
      <trkpt lat="45.19838" lon="5.72289">
        <ele>427.60000610352</ele>
        <time>2021-07-11T03:56:09.000Z</time>
      </trkpt>
      <trkpt lat="45.19839" lon="5.72286">
        <ele>429.20001220703</ele>
        <time>2021-07-11T03:56:12.000Z</time>
      </trkpt>
      <trkpt lat="45.19839" lon="5.72283">
        <ele>430</ele>
        <time>2021-07-11T03:56:15.000Z</time>
      </trkpt>
      <trkpt lat="45.19841" lon="5.72278">
        <ele>430.20001220703</ele>
        <time>2021-07-11T03:56:18.000Z</time>
      </trkpt>
      <trkpt lat="45.19841" lon="5.72278">
        <ele>430.60000610352</ele>
        <time>2021-07-11T03:56:19.000Z</time>
      </trkpt>
      <trkpt lat="45.19842" lon="5.72278">
        <ele>431.39999389648</ele>
        <time>2021-07-11T03:56:23.000Z</time>
      </trkpt>
      <trkpt lat="45.19841" lon="5.7228">
        <ele>430.60000610352</ele>
        <time>2021-07-11T03:56:27.000Z</time>
      </trkpt>
      <trkpt lat="45.1984" lon="5.72281">
        <ele>430.39999389648</ele>
        <time>2021-07-11T03:56:28.000Z</time>
      </trkpt>
      <trkpt lat="45.19838" lon="5.72283">
        <ele>430</ele>
        <time>2021-07-11T03:56:30.000Z</time>
      </trkpt>
      <trkpt lat="45.19836" lon="5.72285">
        <ele>429.60000610352</ele>
        <time>2021-07-11T03:56:33.000Z</time>
      </trkpt>
      <trkpt lat="45.19833" lon="5.72287">
        <ele>428.20001220703</ele>
        <time>2021-07-11T03:56:35.000Z</time>
      </trkpt>
      <trkpt lat="45.19827" lon="5.72302">
        <ele>428.20001220703</ele>
        <time>2021-07-11T03:56:42.000Z</time>
      </trkpt>
      <trkpt lat="45.19821" lon="5.72317">
        <ele>429</ele>
        <time>2021-07-11T03:56:48.000Z</time>
      </trkpt>
      <trkpt lat="45.19818" lon="5.72327">
        <ele>429</ele>
        <time>2021-07-11T03:56:52.000Z</time>
      </trkpt>
      <trkpt lat="45.19819" lon="5.7233">
        <ele>429</ele>
        <time>2021-07-11T03:56:53.000Z</time>
      </trkpt>
      <trkpt lat="45.19819" lon="5.72331">
        <ele>429.79998779297</ele>
        <time>2021-07-11T03:56:54.000Z</time>
      </trkpt>
      <trkpt lat="45.1982" lon="5.72332">
        <ele>429.79998779297</ele>
        <time>2021-07-11T03:56:55.000Z</time>
      </trkpt>
      <trkpt lat="45.19822" lon="5.72333">
        <ele>429.79998779297</ele>
        <time>2021-07-11T03:56:56.000Z</time>
      </trkpt>
      <trkpt lat="45.19819" lon="5.72344">
        <ele>439.39999389648</ele>
        <time>2021-07-11T03:57:23.000Z</time>
      </trkpt>
      <trkpt lat="45.19818" lon="5.7234">
        <ele>439.39999389648</ele>
        <time>2021-07-11T03:57:25.000Z</time>
      </trkpt>
      <trkpt lat="45.19822" lon="5.72327">
        <ele>439.39999389648</ele>
        <time>2021-07-11T03:57:31.000Z</time>
      </trkpt>
      <trkpt lat="45.19826" lon="5.72323">
        <ele>439.79998779297</ele>
        <time>2021-07-11T03:57:36.000Z</time>
      </trkpt>
      <trkpt lat="45.19826" lon="5.72325">
        <ele>440</ele>
        <time>2021-07-11T03:57:37.000Z</time>
      </trkpt>
      <trkpt lat="45.19826" lon="5.72326">
        <ele>440.39999389648</ele>
        <time>2021-07-11T03:57:38.000Z</time>
      </trkpt>
      <trkpt lat="45.19825" lon="5.72329">
        <ele>442.20001220703</ele>
        <time>2021-07-11T03:57:41.000Z</time>
      </trkpt>
      <trkpt lat="45.19827" lon="5.72333">
        <ele>444</ele>
        <time>2021-07-11T03:57:46.000Z</time>
      </trkpt>
      <trkpt lat="45.19827" lon="5.72335">
        <ele>444.60000610352</ele>
        <time>2021-07-11T03:57:47.000Z</time>
      </trkpt>
      <trkpt lat="45.19827" lon="5.72337">
        <ele>445</ele>
        <time>2021-07-11T03:57:49.000Z</time>
      </trkpt>
      <trkpt lat="45.19827" lon="5.72338">
        <ele>445.60000610352</ele>
        <time>2021-07-11T03:57:50.000Z</time>
      </trkpt>
      <trkpt lat="45.19827" lon="5.72339">
        <ele>445.79998779297</ele>
        <time>2021-07-11T03:57:51.000Z</time>
      </trkpt>
      <trkpt lat="45.19827" lon="5.72339">
        <ele>446.60000610352</ele>
        <time>2021-07-11T03:57:52.000Z</time>
      </trkpt>
      <trkpt lat="45.19828" lon="5.72341">
        <ele>447.20001220703</ele>
        <time>2021-07-11T03:57:55.000Z</time>
      </trkpt>
      <trkpt lat="45.19828" lon="5.72343">
        <ele>448.79998779297</ele>
        <time>2021-07-11T03:57:57.000Z</time>
      </trkpt>
      <trkpt lat="45.19828" lon="5.72346">
        <ele>448.79998779297</ele>
        <time>2021-07-11T03:57:59.000Z</time>
      </trkpt>
      <trkpt lat="45.19829" lon="5.72351">
        <ele>450</ele>
        <time>2021-07-11T03:58:03.000Z</time>
      </trkpt>
      <trkpt lat="45.19829" lon="5.7236">
        <ele>450.39999389648</ele>
        <time>2021-07-11T03:58:07.000Z</time>
      </trkpt>
      <trkpt lat="45.1983" lon="5.72362">
        <ele>450.39999389648</ele>
        <time>2021-07-11T03:58:08.000Z</time>
      </trkpt>
      <trkpt lat="45.19831" lon="5.72378">
        <ele>451.20001220703</ele>
        <time>2021-07-11T03:58:14.000Z</time>
      </trkpt>
      <trkpt lat="45.19831" lon="5.72377">
        <ele>451.39999389648</ele>
        <time>2021-07-11T03:58:16.000Z</time>
      </trkpt>
      <trkpt lat="45.19831" lon="5.72376">
        <ele>452.20001220703</ele>
        <time>2021-07-11T03:58:18.000Z</time>
      </trkpt>
      <trkpt lat="45.19831" lon="5.72375">
        <ele>452.39999389648</ele>
        <time>2021-07-11T03:58:19.000Z</time>
      </trkpt>
      <trkpt lat="45.19832" lon="5.72373">
        <ele>453.60000610352</ele>
        <time>2021-07-11T03:58:21.000Z</time>
      </trkpt>
      <trkpt lat="45.19832" lon="5.7237">
        <ele>455</ele>
        <time>2021-07-11T03:58:24.000Z</time>
      </trkpt>
      <trkpt lat="45.19832" lon="5.72371">
        <ele>455.79998779297</ele>
        <time>2021-07-11T03:58:26.000Z</time>
      </trkpt>
      <trkpt lat="45.19832" lon="5.72372">
        <ele>456</ele>
        <time>2021-07-11T03:58:27.000Z</time>
      </trkpt>
      <trkpt lat="45.19829" lon="5.72375">
        <ele>456.60000610352</ele>
        <time>2021-07-11T03:58:29.000Z</time>
      </trkpt>
      <trkpt lat="45.19828" lon="5.72379">
        <ele>457.20001220703</ele>
        <time>2021-07-11T03:58:32.000Z</time>
      </trkpt>
      <trkpt lat="45.19829" lon="5.72385">
        <ele>457.79998779297</ele>
        <time>2021-07-11T03:58:36.000Z</time>
      </trkpt>
      <trkpt lat="45.19831" lon="5.72388">
        <ele>457.79998779297</ele>
        <time>2021-07-11T03:58:38.000Z</time>
      </trkpt>
      <trkpt lat="45.19832" lon="5.72389">
        <ele>458.20001220703</ele>
        <time>2021-07-11T03:58:39.000Z</time>
      </trkpt>
      <trkpt lat="45.19832" lon="5.72389">
        <ele>458.20001220703</ele>
        <time>2021-07-11T03:58:40.000Z</time>
      </trkpt>
      <trkpt lat="45.19832" lon="5.72389">
        <ele>458.39999389648</ele>
        <time>2021-07-11T03:58:41.000Z</time>
      </trkpt>
      <trkpt lat="45.19833" lon="5.72389">
        <ele>458.79998779297</ele>
        <time>2021-07-11T03:58:43.000Z</time>
      </trkpt>
      <trkpt lat="45.19835" lon="5.72386">
        <ele>459.39999389648</ele>
        <time>2021-07-11T03:58:46.000Z</time>
      </trkpt>
      <trkpt lat="45.19836" lon="5.72386">
        <ele>459.39999389648</ele>
        <time>2021-07-11T03:58:47.000Z</time>
      </trkpt>
      <trkpt lat="45.19837" lon="5.72386">
        <ele>460.39999389648</ele>
        <time>2021-07-11T03:58:49.000Z</time>
      </trkpt>
      <trkpt lat="45.19838" lon="5.72385">
        <ele>461.39999389648</ele>
        <time>2021-07-11T03:58:51.000Z</time>
      </trkpt>
      <trkpt lat="45.19838" lon="5.72384">
        <ele>462</ele>
        <time>2021-07-11T03:58:52.000Z</time>
      </trkpt>
      <trkpt lat="45.1984" lon="5.72382">
        <ele>462</ele>
        <time>2021-07-11T03:58:54.000Z</time>
      </trkpt>
      <trkpt lat="45.19841" lon="5.72381">
        <ele>462.20001220703</ele>
        <time>2021-07-11T03:58:55.000Z</time>
      </trkpt>
      <trkpt lat="45.19844" lon="5.72382">
        <ele>462.20001220703</ele>
        <time>2021-07-11T03:58:57.000Z</time>
      </trkpt>
      <trkpt lat="45.19845" lon="5.72382">
        <ele>462.60000610352</ele>
        <time>2021-07-11T03:58:58.000Z</time>
      </trkpt>
      <trkpt lat="45.19845" lon="5.72383">
        <ele>462.60000610352</ele>
        <time>2021-07-11T03:58:59.000Z</time>
      </trkpt>
      <trkpt lat="45.19847" lon="5.72385">
        <ele>463.60000610352</ele>
        <time>2021-07-11T03:59:02.000Z</time>
      </trkpt>
      <trkpt lat="45.19848" lon="5.72388">
        <ele>463.79998779297</ele>
        <time>2021-07-11T03:59:04.000Z</time>
      </trkpt>
      <trkpt lat="45.19848" lon="5.7239">
        <ele>465.39999389648</ele>
        <time>2021-07-11T03:59:06.000Z</time>
      </trkpt>
      <trkpt lat="45.19848" lon="5.7239">
        <ele>465.60000610352</ele>
        <time>2021-07-11T03:59:07.000Z</time>
      </trkpt>
      <trkpt lat="45.19847" lon="5.72388">
        <ele>467</ele>
        <time>2021-07-11T03:59:11.000Z</time>
      </trkpt>
      <trkpt lat="45.19848" lon="5.72388">
        <ele>467</ele>
        <time>2021-07-11T03:59:13.000Z</time>
      </trkpt>
      <trkpt lat="45.19847" lon="5.7239">
        <ele>468.20001220703</ele>
        <time>2021-07-11T03:59:16.000Z</time>
      </trkpt>
      <trkpt lat="45.19847" lon="5.7239">
        <ele>469.79998779297</ele>
        <time>2021-07-11T03:59:18.000Z</time>
      </trkpt>
      <trkpt lat="45.19847" lon="5.7239">
        <ele>470.20001220703</ele>
        <time>2021-07-11T03:59:20.000Z</time>
      </trkpt>
      <trkpt lat="45.19847" lon="5.7239">
        <ele>471</ele>
        <time>2021-07-11T03:59:23.000Z</time>
      </trkpt>
      <trkpt lat="45.19848" lon="5.72392">
        <ele>472.39999389648</ele>
        <time>2021-07-11T03:59:24.000Z</time>
      </trkpt>
      <trkpt lat="45.1985" lon="5.72396">
        <ele>473.60000610352</ele>
        <time>2021-07-11T03:59:28.000Z</time>
      </trkpt>
      <trkpt lat="45.19849" lon="5.72396">
        <ele>475.39999389648</ele>
        <time>2021-07-11T03:59:33.000Z</time>
      </trkpt>
      <trkpt lat="45.1985" lon="5.72396">
        <ele>475.60000610352</ele>
        <time>2021-07-11T03:59:34.000Z</time>
      </trkpt>
      <trkpt lat="45.19853" lon="5.724">
        <ele>477.39999389648</ele>
        <time>2021-07-11T03:59:40.000Z</time>
      </trkpt>
      <trkpt lat="45.19853" lon="5.72401">
        <ele>477.39999389648</ele>
        <time>2021-07-11T03:59:41.000Z</time>
      </trkpt>
      <trkpt lat="45.19853" lon="5.72404">
        <ele>478.60000610352</ele>
        <time>2021-07-11T03:59:45.000Z</time>
      </trkpt>
      <trkpt lat="45.19853" lon="5.72405">
        <ele>479.20001220703</ele>
        <time>2021-07-11T03:59:46.000Z</time>
      </trkpt>
      <trkpt lat="45.19853" lon="5.72407">
        <ele>479.79998779297</ele>
        <time>2021-07-11T03:59:49.000Z</time>
      </trkpt>
      <trkpt lat="45.19853" lon="5.72409">
        <ele>481</ele>
        <time>2021-07-11T03:59:50.000Z</time>
      </trkpt>
      <trkpt lat="45.19854" lon="5.72411">
        <ele>481</ele>
        <time>2021-07-11T03:59:52.000Z</time>
      </trkpt>
      <trkpt lat="45.19853" lon="5.72415">
        <ele>482</ele>
        <time>2021-07-11T03:59:55.000Z</time>
      </trkpt>
      <trkpt lat="45.19854" lon="5.72418">
        <ele>483.39999389648</ele>
        <time>2021-07-11T03:59:57.000Z</time>
      </trkpt>
      <trkpt lat="45.19854" lon="5.7242">
        <ele>483.60000610352</ele>
        <time>2021-07-11T03:59:58.000Z</time>
      </trkpt>
      <trkpt lat="45.19856" lon="5.72424">
        <ele>484.60000610352</ele>
        <time>2021-07-11T04:00:02.000Z</time>
      </trkpt>
      <trkpt lat="45.19856" lon="5.72425">
        <ele>485.20001220703</ele>
        <time>2021-07-11T04:00:03.000Z</time>
      </trkpt>
      <trkpt lat="45.19856" lon="5.72428">
        <ele>485.79998779297</ele>
        <time>2021-07-11T04:00:05.000Z</time>
      </trkpt>
      <trkpt lat="45.19857" lon="5.72437">
        <ele>486</ele>
        <time>2021-07-11T04:00:09.000Z</time>
      </trkpt>
      <trkpt lat="45.19856" lon="5.72442">
        <ele>486.39999389648</ele>
        <time>2021-07-11T04:00:11.000Z</time>
      </trkpt>
      <trkpt lat="45.19856" lon="5.72446">
        <ele>486.39999389648</ele>
        <time>2021-07-11T04:00:13.000Z</time>
      </trkpt>
      <trkpt lat="45.19856" lon="5.72447">
        <ele>487</ele>
        <time>2021-07-11T04:00:14.000Z</time>
      </trkpt>
      <trkpt lat="45.19857" lon="5.72453">
        <ele>487</ele>
        <time>2021-07-11T04:00:18.000Z</time>
      </trkpt>
      <trkpt lat="45.19859" lon="5.72464">
        <ele>488</ele>
        <time>2021-07-11T04:00:23.000Z</time>
      </trkpt>
      <trkpt lat="45.19859" lon="5.72469">
        <ele>488.39999389648</ele>
        <time>2021-07-11T04:00:25.000Z</time>
      </trkpt>
      <trkpt lat="45.19862" lon="5.72477">
        <ele>489.20001220703</ele>
        <time>2021-07-11T04:00:29.000Z</time>
      </trkpt>
      <trkpt lat="45.19862" lon="5.72485">
        <ele>490</ele>
        <time>2021-07-11T04:00:33.000Z</time>
      </trkpt>
      <trkpt lat="45.19863" lon="5.72487">
        <ele>490.20001220703</ele>
        <time>2021-07-11T04:00:34.000Z</time>
      </trkpt>
      <trkpt lat="45.19864" lon="5.72489">
        <ele>490.20001220703</ele>
        <time>2021-07-11T04:00:35.000Z</time>
      </trkpt>
      <trkpt lat="45.19864" lon="5.72491">
        <ele>490.60000610352</ele>
        <time>2021-07-11T04:00:36.000Z</time>
      </trkpt>
      <trkpt lat="45.19864" lon="5.72496">
        <ele>490.60000610352</ele>
        <time>2021-07-11T04:00:38.000Z</time>
      </trkpt>
      <trkpt lat="45.19864" lon="5.72506">
        <ele>491.39999389648</ele>
        <time>2021-07-11T04:00:42.000Z</time>
      </trkpt>
      <trkpt lat="45.19864" lon="5.72513">
        <ele>492.20001220703</ele>
        <time>2021-07-11T04:00:45.000Z</time>
      </trkpt>
      <trkpt lat="45.19864" lon="5.72518">
        <ele>492.60000610352</ele>
        <time>2021-07-11T04:00:47.000Z</time>
      </trkpt>
      <trkpt lat="45.19864" lon="5.72533">
        <ele>493</ele>
        <time>2021-07-11T04:00:53.000Z</time>
      </trkpt>
      <trkpt lat="45.19867" lon="5.72543">
        <ele>493.60000610352</ele>
        <time>2021-07-11T04:00:57.000Z</time>
      </trkpt>
      <trkpt lat="45.19868" lon="5.72551">
        <ele>494.20001220703</ele>
        <time>2021-07-11T04:01:01.000Z</time>
      </trkpt>
      <trkpt lat="45.19868" lon="5.7255">
        <ele>494.79998779297</ele>
        <time>2021-07-11T04:01:02.000Z</time>
      </trkpt>
      <trkpt lat="45.19868" lon="5.72548">
        <ele>494.79998779297</ele>
        <time>2021-07-11T04:01:03.000Z</time>
      </trkpt>
      <trkpt lat="45.19867" lon="5.72545">
        <ele>495</ele>
        <time>2021-07-11T04:01:05.000Z</time>
      </trkpt>
      <trkpt lat="45.19863" lon="5.72537">
        <ele>495.79998779297</ele>
        <time>2021-07-11T04:01:09.000Z</time>
      </trkpt>
      <trkpt lat="45.19862" lon="5.7253">
        <ele>496.60000610352</ele>
        <time>2021-07-11T04:01:12.000Z</time>
      </trkpt>
      <trkpt lat="45.19861" lon="5.72523">
        <ele>497.20001220703</ele>
        <time>2021-07-11T04:01:15.000Z</time>
      </trkpt>
      <trkpt lat="45.19859" lon="5.72513">
        <ele>497.79998779297</ele>
        <time>2021-07-11T04:01:19.000Z</time>
      </trkpt>
      <trkpt lat="45.19859" lon="5.72495">
        <ele>498.39999389648</ele>
        <time>2021-07-11T04:01:26.000Z</time>
      </trkpt>
      <trkpt lat="45.1986" lon="5.72492">
        <ele>498.39999389648</ele>
        <time>2021-07-11T04:01:27.000Z</time>
      </trkpt>
      <trkpt lat="45.1987" lon="5.72481">
        <ele>498.79998779297</ele>
        <time>2021-07-11T04:01:33.000Z</time>
      </trkpt>
      <trkpt lat="45.19882" lon="5.72477">
        <ele>499.20001220703</ele>
        <time>2021-07-11T04:01:38.000Z</time>
      </trkpt>
      <trkpt lat="45.19886" lon="5.72476">
        <ele>499.20001220703</ele>
        <time>2021-07-11T04:01:40.000Z</time>
      </trkpt>
      <trkpt lat="45.19886" lon="5.72476">
        <ele>499.39999389648</ele>
        <time>2021-07-11T04:01:41.000Z</time>
      </trkpt>
      <trkpt lat="45.1989" lon="5.72477">
        <ele>499.39999389648</ele>
        <time>2021-07-11T04:01:44.000Z</time>
      </trkpt>
      <trkpt lat="45.19891" lon="5.72471">
        <ele>499</ele>
        <time>2021-07-11T04:01:47.000Z</time>
      </trkpt>
      <trkpt lat="45.19892" lon="5.72464">
        <ele>498.39999389648</ele>
        <time>2021-07-11T04:01:49.000Z</time>
      </trkpt>
      <trkpt lat="45.19901" lon="5.7245">
        <ele>497.39999389648</ele>
        <time>2021-07-11T04:01:54.000Z</time>
      </trkpt>
      <trkpt lat="45.19903" lon="5.72447">
        <ele>497</ele>
        <time>2021-07-11T04:01:55.000Z</time>
      </trkpt>
      <trkpt lat="45.19916" lon="5.72433">
        <ele>496.20001220703</ele>
        <time>2021-07-11T04:02:01.000Z</time>
      </trkpt>
      <trkpt lat="45.19924" lon="5.72426">
        <ele>495</ele>
        <time>2021-07-11T04:02:05.000Z</time>
      </trkpt>
      <trkpt lat="45.19926" lon="5.72425">
        <ele>494.79998779297</ele>
        <time>2021-07-11T04:02:06.000Z</time>
      </trkpt>
      <trkpt lat="45.19936" lon="5.72421">
        <ele>494.79998779297</ele>
        <time>2021-07-11T04:02:10.000Z</time>
      </trkpt>
      <trkpt lat="45.19943" lon="5.72418">
        <ele>494.79998779297</ele>
        <time>2021-07-11T04:02:13.000Z</time>
      </trkpt>
      <trkpt lat="45.19961" lon="5.72414">
        <ele>495.79998779297</ele>
        <time>2021-07-11T04:02:21.000Z</time>
      </trkpt>
      <trkpt lat="45.19967" lon="5.72414">
        <ele>496.20001220703</ele>
        <time>2021-07-11T04:02:24.000Z</time>
      </trkpt>
      <trkpt lat="45.19974" lon="5.72415">
        <ele>497.39999389648</ele>
        <time>2021-07-11T04:02:28.000Z</time>
      </trkpt>
      <trkpt lat="45.1998" lon="5.72415">
        <ele>498</ele>
        <time>2021-07-11T04:02:31.000Z</time>
      </trkpt>
      <trkpt lat="45.19984" lon="5.72415">
        <ele>498.39999389648</ele>
        <time>2021-07-11T04:02:33.000Z</time>
      </trkpt>
      <trkpt lat="45.19993" lon="5.72417">
        <ele>499.20001220703</ele>
        <time>2021-07-11T04:02:37.000Z</time>
      </trkpt>
      <trkpt lat="45.19995" lon="5.72417">
        <ele>499.60000610352</ele>
        <time>2021-07-11T04:02:38.000Z</time>
      </trkpt>
      <trkpt lat="45.19997" lon="5.72417">
        <ele>500</ele>
        <time>2021-07-11T04:02:39.000Z</time>
      </trkpt>
      <trkpt lat="45.20006" lon="5.72419">
        <ele>500.60000610352</ele>
        <time>2021-07-11T04:02:43.000Z</time>
      </trkpt>
      <trkpt lat="45.20012" lon="5.7242">
        <ele>501.39999389648</ele>
        <time>2021-07-11T04:02:46.000Z</time>
      </trkpt>
      <trkpt lat="45.20014" lon="5.7242">
        <ele>501.39999389648</ele>
        <time>2021-07-11T04:02:47.000Z</time>
      </trkpt>
      <trkpt lat="45.20016" lon="5.72421">
        <ele>501.60000610352</ele>
        <time>2021-07-11T04:02:48.000Z</time>
      </trkpt>
      <trkpt lat="45.20018" lon="5.72421">
        <ele>501.79998779297</ele>
        <time>2021-07-11T04:02:49.000Z</time>
      </trkpt>
      <trkpt lat="45.20027" lon="5.7242">
        <ele>502.79998779297</ele>
        <time>2021-07-11T04:02:53.000Z</time>
      </trkpt>
      <trkpt lat="45.20031" lon="5.72421">
        <ele>503.20001220703</ele>
        <time>2021-07-11T04:02:55.000Z</time>
      </trkpt>
      <trkpt lat="45.20042" lon="5.72421">
        <ele>503.79998779297</ele>
        <time>2021-07-11T04:03:01.000Z</time>
      </trkpt>
      <trkpt lat="45.20044" lon="5.72421">
        <ele>504.39999389648</ele>
        <time>2021-07-11T04:03:02.000Z</time>
      </trkpt>
      <trkpt lat="45.20047" lon="5.72421">
        <ele>505</ele>
        <time>2021-07-11T04:03:04.000Z</time>
      </trkpt>
      <trkpt lat="45.20057" lon="5.72422">
        <ele>505.79998779297</ele>
        <time>2021-07-11T04:03:10.000Z</time>
      </trkpt>
      <trkpt lat="45.20058" lon="5.72422">
        <ele>506.20001220703</ele>
        <time>2021-07-11T04:03:11.000Z</time>
      </trkpt>
      <trkpt lat="45.20065" lon="5.72426">
        <ele>507.20001220703</ele>
        <time>2021-07-11T04:03:15.000Z</time>
      </trkpt>
      <trkpt lat="45.20066" lon="5.72427">
        <ele>507.39999389648</ele>
        <time>2021-07-11T04:03:16.000Z</time>
      </trkpt>
      <trkpt lat="45.20071" lon="5.72434">
        <ele>508.20001220703</ele>
        <time>2021-07-11T04:03:20.000Z</time>
      </trkpt>
      <trkpt lat="45.20074" lon="5.72438">
        <ele>509</ele>
        <time>2021-07-11T04:03:21.000Z</time>
      </trkpt>
      <trkpt lat="45.20076" lon="5.72444">
        <ele>509.20001220703</ele>
        <time>2021-07-11T04:03:23.000Z</time>
      </trkpt>
      <trkpt lat="45.20081" lon="5.72456">
        <ele>510.39999389648</ele>
        <time>2021-07-11T04:03:28.000Z</time>
      </trkpt>
      <trkpt lat="45.20087" lon="5.72475">
        <ele>510.79998779297</ele>
        <time>2021-07-11T04:03:34.000Z</time>
      </trkpt>
      <trkpt lat="45.20089" lon="5.72481">
        <ele>511.60000610352</ele>
        <time>2021-07-11T04:03:36.000Z</time>
      </trkpt>
      <trkpt lat="45.20089" lon="5.72488">
        <ele>511.79998779297</ele>
        <time>2021-07-11T04:03:38.000Z</time>
      </trkpt>
      <trkpt lat="45.20088" lon="5.72491">
        <ele>511.79998779297</ele>
        <time>2021-07-11T04:03:39.000Z</time>
      </trkpt>
      <trkpt lat="45.20086" lon="5.725">
        <ele>512.40002441406</ele>
        <time>2021-07-11T04:03:42.000Z</time>
      </trkpt>
      <trkpt lat="45.20086" lon="5.72506">
        <ele>512.40002441406</ele>
        <time>2021-07-11T04:03:44.000Z</time>
      </trkpt>
      <trkpt lat="45.20085" lon="5.7251">
        <ele>512.59997558594</ele>
        <time>2021-07-11T04:03:45.000Z</time>
      </trkpt>
      <trkpt lat="45.20085" lon="5.72523">
        <ele>512.79998779297</ele>
        <time>2021-07-11T04:03:49.000Z</time>
      </trkpt>
      <trkpt lat="45.20087" lon="5.72536">
        <ele>513.20001220703</ele>
        <time>2021-07-11T04:03:55.000Z</time>
      </trkpt>
      <trkpt lat="45.20093" lon="5.72539">
        <ele>513.59997558594</ele>
        <time>2021-07-11T04:04:00.000Z</time>
      </trkpt>
      <trkpt lat="45.20094" lon="5.72539">
        <ele>513.79998779297</ele>
        <time>2021-07-11T04:04:01.000Z</time>
      </trkpt>
      <trkpt lat="45.20097" lon="5.7254">
        <ele>514.79998779297</ele>
        <time>2021-07-11T04:04:04.000Z</time>
      </trkpt>
      <trkpt lat="45.201" lon="5.7254">
        <ele>516.20001220703</ele>
        <time>2021-07-11T04:04:07.000Z</time>
      </trkpt>
      <trkpt lat="45.20103" lon="5.72538">
        <ele>517.59997558594</ele>
        <time>2021-07-11T04:04:10.000Z</time>
      </trkpt>
      <trkpt lat="45.20109" lon="5.72539">
        <ele>518.79998779297</ele>
        <time>2021-07-11T04:04:14.000Z</time>
      </trkpt>
      <trkpt lat="45.2011" lon="5.72539">
        <ele>518.79998779297</ele>
        <time>2021-07-11T04:04:15.000Z</time>
      </trkpt>
      <trkpt lat="45.20111" lon="5.72538">
        <ele>518.79998779297</ele>
        <time>2021-07-11T04:04:16.000Z</time>
      </trkpt>
      <trkpt lat="45.20114" lon="5.72537">
        <ele>519.40002441406</ele>
        <time>2021-07-11T04:04:18.000Z</time>
      </trkpt>
      <trkpt lat="45.20114" lon="5.72538">
        <ele>519.59997558594</ele>
        <time>2021-07-11T04:04:19.000Z</time>
      </trkpt>
      <trkpt lat="45.20119" lon="5.7254">
        <ele>519.79998779297</ele>
        <time>2021-07-11T04:04:22.000Z</time>
      </trkpt>
      <trkpt lat="45.20119" lon="5.72539">
        <ele>520.79998779297</ele>
        <time>2021-07-11T04:04:24.000Z</time>
      </trkpt>
      <trkpt lat="45.20118" lon="5.72539">
        <ele>521</ele>
        <time>2021-07-11T04:04:25.000Z</time>
      </trkpt>
      <trkpt lat="45.20113" lon="5.72537">
        <ele>522.40002441406</ele>
        <time>2021-07-11T04:04:29.000Z</time>
      </trkpt>
      <trkpt lat="45.20108" lon="5.72535">
        <ele>522.79998779297</ele>
        <time>2021-07-11T04:04:31.000Z</time>
      </trkpt>
      <trkpt lat="45.20106" lon="5.72532">
        <ele>522.79998779297</ele>
        <time>2021-07-11T04:04:33.000Z</time>
      </trkpt>
      <trkpt lat="45.20107" lon="5.72528">
        <ele>523</ele>
        <time>2021-07-11T04:04:35.000Z</time>
      </trkpt>
      <trkpt lat="45.20108" lon="5.72526">
        <ele>523.20001220703</ele>
        <time>2021-07-11T04:04:36.000Z</time>
      </trkpt>
      <trkpt lat="45.20108" lon="5.72525">
        <ele>524</ele>
        <time>2021-07-11T04:04:37.000Z</time>
      </trkpt>
      <trkpt lat="45.20108" lon="5.72521">
        <ele>524</ele>
        <time>2021-07-11T04:04:39.000Z</time>
      </trkpt>
      <trkpt lat="45.2011" lon="5.72518">
        <ele>524.40002441406</ele>
        <time>2021-07-11T04:04:41.000Z</time>
      </trkpt>
      <trkpt lat="45.2011" lon="5.72517">
        <ele>525.40002441406</ele>
        <time>2021-07-11T04:04:42.000Z</time>
      </trkpt>
      <trkpt lat="45.20113" lon="5.72511">
        <ele>525.79998779297</ele>
        <time>2021-07-11T04:04:46.000Z</time>
      </trkpt>
      <trkpt lat="45.20114" lon="5.7251">
        <ele>526.59997558594</ele>
        <time>2021-07-11T04:04:47.000Z</time>
      </trkpt>
      <trkpt lat="45.20119" lon="5.72502">
        <ele>528</ele>
        <time>2021-07-11T04:04:53.000Z</time>
      </trkpt>
      <trkpt lat="45.20123" lon="5.72498">
        <ele>528.59997558594</ele>
        <time>2021-07-11T04:04:56.000Z</time>
      </trkpt>
      <trkpt lat="45.20124" lon="5.72497">
        <ele>528.59997558594</ele>
        <time>2021-07-11T04:04:57.000Z</time>
      </trkpt>
      <trkpt lat="45.20125" lon="5.72496">
        <ele>529.40002441406</ele>
        <time>2021-07-11T04:04:58.000Z</time>
      </trkpt>
      <trkpt lat="45.20126" lon="5.72492">
        <ele>529.79998779297</ele>
        <time>2021-07-11T04:05:01.000Z</time>
      </trkpt>
      <trkpt lat="45.20127" lon="5.7249">
        <ele>530</ele>
        <time>2021-07-11T04:05:02.000Z</time>
      </trkpt>
      <trkpt lat="45.20128" lon="5.72488">
        <ele>530.79998779297</ele>
        <time>2021-07-11T04:05:04.000Z</time>
      </trkpt>
      <trkpt lat="45.20131" lon="5.72488">
        <ele>531.40002441406</ele>
        <time>2021-07-11T04:05:07.000Z</time>
      </trkpt>
      <trkpt lat="45.20131" lon="5.72488">
        <ele>532.20001220703</ele>
        <time>2021-07-11T04:05:09.000Z</time>
      </trkpt>
      <trkpt lat="45.20132" lon="5.72485">
        <ele>533.20001220703</ele>
        <time>2021-07-11T04:05:12.000Z</time>
      </trkpt>
      <trkpt lat="45.20136" lon="5.7248">
        <ele>534.59997558594</ele>
        <time>2021-07-11T04:05:17.000Z</time>
      </trkpt>
      <trkpt lat="45.20137" lon="5.7248">
        <ele>536</ele>
        <time>2021-07-11T04:05:20.000Z</time>
      </trkpt>
      <trkpt lat="45.2014" lon="5.72479">
        <ele>537</ele>
        <time>2021-07-11T04:05:24.000Z</time>
      </trkpt>
      <trkpt lat="45.2014" lon="5.72478">
        <ele>537.20001220703</ele>
        <time>2021-07-11T04:05:25.000Z</time>
      </trkpt>
      <trkpt lat="45.20141" lon="5.72478">
        <ele>537.79998779297</ele>
        <time>2021-07-11T04:05:26.000Z</time>
      </trkpt>
      <trkpt lat="45.20143" lon="5.72478">
        <ele>538.40002441406</ele>
        <time>2021-07-11T04:05:28.000Z</time>
      </trkpt>
      <trkpt lat="45.20144" lon="5.72478">
        <ele>539.59997558594</ele>
        <time>2021-07-11T04:05:31.000Z</time>
      </trkpt>
      <trkpt lat="45.20146" lon="5.7248">
        <ele>540.40002441406</ele>
        <time>2021-07-11T04:05:33.000Z</time>
      </trkpt>
      <trkpt lat="45.20147" lon="5.72479">
        <ele>540.79998779297</ele>
        <time>2021-07-11T04:05:35.000Z</time>
      </trkpt>
      <trkpt lat="45.20149" lon="5.72477">
        <ele>541.59997558594</ele>
        <time>2021-07-11T04:05:39.000Z</time>
      </trkpt>
      <trkpt lat="45.20149" lon="5.72477">
        <ele>542</ele>
        <time>2021-07-11T04:05:40.000Z</time>
      </trkpt>
      <trkpt lat="45.20152" lon="5.7248">
        <ele>542.59997558594</ele>
        <time>2021-07-11T04:05:44.000Z</time>
      </trkpt>
      <trkpt lat="45.20153" lon="5.7248">
        <ele>543.20001220703</ele>
        <time>2021-07-11T04:05:45.000Z</time>
      </trkpt>
      <trkpt lat="45.20156" lon="5.72481">
        <ele>543.79998779297</ele>
        <time>2021-07-11T04:05:49.000Z</time>
      </trkpt>
      <trkpt lat="45.20157" lon="5.72482">
        <ele>544.79998779297</ele>
        <time>2021-07-11T04:05:50.000Z</time>
      </trkpt>
      <trkpt lat="45.20159" lon="5.72484">
        <ele>546</ele>
        <time>2021-07-11T04:05:53.000Z</time>
      </trkpt>
      <trkpt lat="45.20163" lon="5.72487">
        <ele>547.20001220703</ele>
        <time>2021-07-11T04:05:56.000Z</time>
      </trkpt>
      <trkpt lat="45.20164" lon="5.72487">
        <ele>547.79998779297</ele>
        <time>2021-07-11T04:06:00.000Z</time>
      </trkpt>
      <trkpt lat="45.20164" lon="5.72485">
        <ele>548</ele>
        <time>2021-07-11T04:06:02.000Z</time>
      </trkpt>
      <trkpt lat="45.20164" lon="5.72484">
        <ele>548.40002441406</ele>
        <time>2021-07-11T04:06:03.000Z</time>
      </trkpt>
      <trkpt lat="45.20164" lon="5.72481">
        <ele>549.40002441406</ele>
        <time>2021-07-11T04:06:07.000Z</time>
      </trkpt>
      <trkpt lat="45.20165" lon="5.7248">
        <ele>549.79998779297</ele>
        <time>2021-07-11T04:06:08.000Z</time>
      </trkpt>
      <trkpt lat="45.20165" lon="5.72479">
        <ele>550</ele>
        <time>2021-07-11T04:06:09.000Z</time>
      </trkpt>
      <trkpt lat="45.20165" lon="5.72475">
        <ele>550.79998779297</ele>
        <time>2021-07-11T04:06:12.000Z</time>
      </trkpt>
      <trkpt lat="45.20167" lon="5.72476">
        <ele>551.40002441406</ele>
        <time>2021-07-11T04:06:15.000Z</time>
      </trkpt>
      <trkpt lat="45.20169" lon="5.72477">
        <ele>552</ele>
        <time>2021-07-11T04:06:17.000Z</time>
      </trkpt>
      <trkpt lat="45.20169" lon="5.72478">
        <ele>553</ele>
        <time>2021-07-11T04:06:18.000Z</time>
      </trkpt>
      <trkpt lat="45.20171" lon="5.72479">
        <ele>553</ele>
        <time>2021-07-11T04:06:20.000Z</time>
      </trkpt>
      <trkpt lat="45.20172" lon="5.7248">
        <ele>553.40002441406</ele>
        <time>2021-07-11T04:06:21.000Z</time>
      </trkpt>
      <trkpt lat="45.20176" lon="5.72483">
        <ele>553.79998779297</ele>
        <time>2021-07-11T04:06:24.000Z</time>
      </trkpt>
      <trkpt lat="45.20176" lon="5.72484">
        <ele>554</ele>
        <time>2021-07-11T04:06:25.000Z</time>
      </trkpt>
      <trkpt lat="45.2018" lon="5.72488">
        <ele>554.79998779297</ele>
        <time>2021-07-11T04:06:29.000Z</time>
      </trkpt>
      <trkpt lat="45.20181" lon="5.72488">
        <ele>555.40002441406</ele>
        <time>2021-07-11T04:06:30.000Z</time>
      </trkpt>
      <trkpt lat="45.2018" lon="5.72488">
        <ele>555.40002441406</ele>
        <time>2021-07-11T04:06:31.000Z</time>
      </trkpt>
      <trkpt lat="45.20182" lon="5.72488">
        <ele>556.20001220703</ele>
        <time>2021-07-11T04:06:33.000Z</time>
      </trkpt>
      <trkpt lat="45.20183" lon="5.72488">
        <ele>556.40002441406</ele>
        <time>2021-07-11T04:06:34.000Z</time>
      </trkpt>
      <trkpt lat="45.20184" lon="5.7249">
        <ele>556.40002441406</ele>
        <time>2021-07-11T04:06:35.000Z</time>
      </trkpt>
      <trkpt lat="45.20188" lon="5.72495">
        <ele>557</ele>
        <time>2021-07-11T04:06:39.000Z</time>
      </trkpt>
      <trkpt lat="45.20189" lon="5.72495">
        <ele>557.40002441406</ele>
        <time>2021-07-11T04:06:40.000Z</time>
      </trkpt>
      <trkpt lat="45.2019" lon="5.72496">
        <ele>557.59997558594</ele>
        <time>2021-07-11T04:06:41.000Z</time>
      </trkpt>
      <trkpt lat="45.2019" lon="5.72498">
        <ele>558</ele>
        <time>2021-07-11T04:06:43.000Z</time>
      </trkpt>
      <trkpt lat="45.20193" lon="5.725">
        <ele>558.59997558594</ele>
        <time>2021-07-11T04:06:46.000Z</time>
      </trkpt>
      <trkpt lat="45.20193" lon="5.72501">
        <ele>558.79998779297</ele>
        <time>2021-07-11T04:06:47.000Z</time>
      </trkpt>
      <trkpt lat="45.20195" lon="5.72503">
        <ele>559</ele>
        <time>2021-07-11T04:06:49.000Z</time>
      </trkpt>
      <trkpt lat="45.20198" lon="5.72505">
        <ele>559.40002441406</ele>
        <time>2021-07-11T04:06:52.000Z</time>
      </trkpt>
      <trkpt lat="45.20199" lon="5.72506">
        <ele>560</ele>
        <time>2021-07-11T04:06:53.000Z</time>
      </trkpt>
      <trkpt lat="45.202" lon="5.72508">
        <ele>560.20001220703</ele>
        <time>2021-07-11T04:06:55.000Z</time>
      </trkpt>
      <trkpt lat="45.20202" lon="5.72512">
        <ele>561</ele>
        <time>2021-07-11T04:06:58.000Z</time>
      </trkpt>
      <trkpt lat="45.20203" lon="5.72514">
        <ele>561.20001220703</ele>
        <time>2021-07-11T04:06:59.000Z</time>
      </trkpt>
      <trkpt lat="45.20208" lon="5.72518">
        <ele>562.40002441406</ele>
        <time>2021-07-11T04:07:04.000Z</time>
      </trkpt>
      <trkpt lat="45.20211" lon="5.72519">
        <ele>562.79998779297</ele>
        <time>2021-07-11T04:07:07.000Z</time>
      </trkpt>
      <trkpt lat="45.20214" lon="5.72519">
        <ele>564</ele>
        <time>2021-07-11T04:07:10.000Z</time>
      </trkpt>
      <trkpt lat="45.20217" lon="5.72519">
        <ele>564</ele>
        <time>2021-07-11T04:07:12.000Z</time>
      </trkpt>
      <trkpt lat="45.20218" lon="5.72519">
        <ele>564.59997558594</ele>
        <time>2021-07-11T04:07:13.000Z</time>
      </trkpt>
      <trkpt lat="45.2022" lon="5.72518">
        <ele>565</ele>
        <time>2021-07-11T04:07:14.000Z</time>
      </trkpt>
      <trkpt lat="45.20221" lon="5.7252">
        <ele>565.79998779297</ele>
        <time>2021-07-11T04:07:17.000Z</time>
      </trkpt>
      <trkpt lat="45.20221" lon="5.7252">
        <ele>566</ele>
        <time>2021-07-11T04:07:18.000Z</time>
      </trkpt>
      <trkpt lat="45.20222" lon="5.7252">
        <ele>566.20001220703</ele>
        <time>2021-07-11T04:07:19.000Z</time>
      </trkpt>
      <trkpt lat="45.20227" lon="5.72519">
        <ele>567.59997558594</ele>
        <time>2021-07-11T04:07:24.000Z</time>
      </trkpt>
      <trkpt lat="45.20227" lon="5.7252">
        <ele>567.79998779297</ele>
        <time>2021-07-11T04:07:25.000Z</time>
      </trkpt>
      <trkpt lat="45.20228" lon="5.7252">
        <ele>567.79998779297</ele>
        <time>2021-07-11T04:07:26.000Z</time>
      </trkpt>
      <trkpt lat="45.20232" lon="5.7252">
        <ele>568.79998779297</ele>
        <time>2021-07-11T04:07:30.000Z</time>
      </trkpt>
      <trkpt lat="45.20233" lon="5.7252">
        <ele>569.20001220703</ele>
        <time>2021-07-11T04:07:31.000Z</time>
      </trkpt>
      <trkpt lat="45.20234" lon="5.72517">
        <ele>569.40002441406</ele>
        <time>2021-07-11T04:07:33.000Z</time>
      </trkpt>
      <trkpt lat="45.20236" lon="5.72517">
        <ele>569.79998779297</ele>
        <time>2021-07-11T04:07:35.000Z</time>
      </trkpt>
      <trkpt lat="45.20236" lon="5.72517">
        <ele>570.59997558594</ele>
        <time>2021-07-11T04:07:36.000Z</time>
      </trkpt>
      <trkpt lat="45.20238" lon="5.72516">
        <ele>570.79998779297</ele>
        <time>2021-07-11T04:07:38.000Z</time>
      </trkpt>
      <trkpt lat="45.2024" lon="5.72516">
        <ele>571.59997558594</ele>
        <time>2021-07-11T04:07:41.000Z</time>
      </trkpt>
      <trkpt lat="45.20241" lon="5.72516">
        <ele>572.40002441406</ele>
        <time>2021-07-11T04:07:42.000Z</time>
      </trkpt>
      <trkpt lat="45.20241" lon="5.72517">
        <ele>572.40002441406</ele>
        <time>2021-07-11T04:07:43.000Z</time>
      </trkpt>
      <trkpt lat="45.20242" lon="5.72517">
        <ele>572.79998779297</ele>
        <time>2021-07-11T04:07:45.000Z</time>
      </trkpt>
      <trkpt lat="45.20243" lon="5.72518">
        <ele>573.40002441406</ele>
        <time>2021-07-11T04:07:47.000Z</time>
      </trkpt>
      <trkpt lat="45.20244" lon="5.72518">
        <ele>574</ele>
        <time>2021-07-11T04:07:48.000Z</time>
      </trkpt>
      <trkpt lat="45.20246" lon="5.72518">
        <ele>574.59997558594</ele>
        <time>2021-07-11T04:07:51.000Z</time>
      </trkpt>
      <trkpt lat="45.20247" lon="5.72517">
        <ele>575</ele>
        <time>2021-07-11T04:07:54.000Z</time>
      </trkpt>
      <trkpt lat="45.20248" lon="5.72517">
        <ele>576.20001220703</ele>
        <time>2021-07-11T04:07:55.000Z</time>
      </trkpt>
      <trkpt lat="45.20253" lon="5.72517">
        <ele>577.20001220703</ele>
        <time>2021-07-11T04:08:01.000Z</time>
      </trkpt>
      <trkpt lat="45.20253" lon="5.72517">
        <ele>577.59997558594</ele>
        <time>2021-07-11T04:08:02.000Z</time>
      </trkpt>
      <trkpt lat="45.20259" lon="5.72515">
        <ele>578.79998779297</ele>
        <time>2021-07-11T04:08:07.000Z</time>
      </trkpt>
      <trkpt lat="45.20261" lon="5.72515">
        <ele>579</ele>
        <time>2021-07-11T04:08:09.000Z</time>
      </trkpt>
      <trkpt lat="45.20268" lon="5.72515">
        <ele>579.79998779297</ele>
        <time>2021-07-11T04:08:13.000Z</time>
      </trkpt>
      <trkpt lat="45.20269" lon="5.72515">
        <ele>580</ele>
        <time>2021-07-11T04:08:14.000Z</time>
      </trkpt>
      <trkpt lat="45.20271" lon="5.72514">
        <ele>580.79998779297</ele>
        <time>2021-07-11T04:08:15.000Z</time>
      </trkpt>
      <trkpt lat="45.20273" lon="5.72514">
        <ele>581.20001220703</ele>
        <time>2021-07-11T04:08:17.000Z</time>
      </trkpt>
      <trkpt lat="45.20273" lon="5.72513">
        <ele>581.20001220703</ele>
        <time>2021-07-11T04:08:18.000Z</time>
      </trkpt>
      <trkpt lat="45.20275" lon="5.72513">
        <ele>581.20001220703</ele>
        <time>2021-07-11T04:08:19.000Z</time>
      </trkpt>
      <trkpt lat="45.20278" lon="5.72514">
        <ele>582.20001220703</ele>
        <time>2021-07-11T04:08:23.000Z</time>
      </trkpt>
      <trkpt lat="45.20279" lon="5.72514">
        <ele>582.40002441406</ele>
        <time>2021-07-11T04:08:24.000Z</time>
      </trkpt>
      <trkpt lat="45.20282" lon="5.72514">
        <ele>582.59997558594</ele>
        <time>2021-07-11T04:08:26.000Z</time>
      </trkpt>
      <trkpt lat="45.20286" lon="5.72515">
        <ele>583.20001220703</ele>
        <time>2021-07-11T04:08:29.000Z</time>
      </trkpt>
      <trkpt lat="45.2029" lon="5.72515">
        <ele>584</ele>
        <time>2021-07-11T04:08:34.000Z</time>
      </trkpt>
      <trkpt lat="45.20292" lon="5.72515">
        <ele>584.20001220703</ele>
        <time>2021-07-11T04:08:36.000Z</time>
      </trkpt>
      <trkpt lat="45.20297" lon="5.72515">
        <ele>585.40002441406</ele>
        <time>2021-07-11T04:08:41.000Z</time>
      </trkpt>
      <trkpt lat="45.20298" lon="5.72515">
        <ele>585.59997558594</ele>
        <time>2021-07-11T04:08:42.000Z</time>
      </trkpt>
      <trkpt lat="45.20302" lon="5.72512">
        <ele>586.59997558594</ele>
        <time>2021-07-11T04:08:46.000Z</time>
      </trkpt>
      <trkpt lat="45.20305" lon="5.72513">
        <ele>587</ele>
        <time>2021-07-11T04:08:48.000Z</time>
      </trkpt>
      <trkpt lat="45.20306" lon="5.72514">
        <ele>587.40002441406</ele>
        <time>2021-07-11T04:08:50.000Z</time>
      </trkpt>
      <trkpt lat="45.20307" lon="5.72515">
        <ele>587.40002441406</ele>
        <time>2021-07-11T04:08:51.000Z</time>
      </trkpt>
      <trkpt lat="45.20308" lon="5.72515">
        <ele>588</ele>
        <time>2021-07-11T04:08:52.000Z</time>
      </trkpt>
      <trkpt lat="45.20309" lon="5.72515">
        <ele>588</ele>
        <time>2021-07-11T04:08:53.000Z</time>
      </trkpt>
      <trkpt lat="45.20311" lon="5.72514">
        <ele>588.59997558594</ele>
        <time>2021-07-11T04:08:55.000Z</time>
      </trkpt>
      <trkpt lat="45.20312" lon="5.72514">
        <ele>589</ele>
        <time>2021-07-11T04:08:56.000Z</time>
      </trkpt>
      <trkpt lat="45.20313" lon="5.72513">
        <ele>589.59997558594</ele>
        <time>2021-07-11T04:08:58.000Z</time>
      </trkpt>
      <trkpt lat="45.20316" lon="5.72514">
        <ele>590.59997558594</ele>
        <time>2021-07-11T04:09:01.000Z</time>
      </trkpt>
      <trkpt lat="45.20316" lon="5.72515">
        <ele>590.59997558594</ele>
        <time>2021-07-11T04:09:02.000Z</time>
      </trkpt>
      <trkpt lat="45.20319" lon="5.72514">
        <ele>591.79998779297</ele>
        <time>2021-07-11T04:09:05.000Z</time>
      </trkpt>
      <trkpt lat="45.20323" lon="5.72515">
        <ele>592</ele>
        <time>2021-07-11T04:09:07.000Z</time>
      </trkpt>
      <trkpt lat="45.20327" lon="5.72516">
        <ele>592.79998779297</ele>
        <time>2021-07-11T04:09:09.000Z</time>
      </trkpt>
      <trkpt lat="45.20328" lon="5.72515">
        <ele>593.79998779297</ele>
        <time>2021-07-11T04:09:13.000Z</time>
      </trkpt>
      <trkpt lat="45.20329" lon="5.72514">
        <ele>594</ele>
        <time>2021-07-11T04:09:14.000Z</time>
      </trkpt>
      <trkpt lat="45.20332" lon="5.72513">
        <ele>595.20001220703</ele>
        <time>2021-07-11T04:09:18.000Z</time>
      </trkpt>
      <trkpt lat="45.20333" lon="5.72515">
        <ele>595.79998779297</ele>
        <time>2021-07-11T04:09:21.000Z</time>
      </trkpt>
      <trkpt lat="45.20333" lon="5.72515">
        <ele>596</ele>
        <time>2021-07-11T04:09:22.000Z</time>
      </trkpt>
      <trkpt lat="45.20334" lon="5.72516">
        <ele>596.20001220703</ele>
        <time>2021-07-11T04:09:23.000Z</time>
      </trkpt>
      <trkpt lat="45.2034" lon="5.72517">
        <ele>597.59997558594</ele>
        <time>2021-07-11T04:09:27.000Z</time>
      </trkpt>
      <trkpt lat="45.2034" lon="5.72517">
        <ele>597.59997558594</ele>
        <time>2021-07-11T04:09:28.000Z</time>
      </trkpt>
      <trkpt lat="45.20341" lon="5.72517">
        <ele>598</ele>
        <time>2021-07-11T04:09:30.000Z</time>
      </trkpt>
      <trkpt lat="45.20341" lon="5.72517">
        <ele>598.59997558594</ele>
        <time>2021-07-11T04:09:31.000Z</time>
      </trkpt>
      <trkpt lat="45.20342" lon="5.72516">
        <ele>598.79998779297</ele>
        <time>2021-07-11T04:09:32.000Z</time>
      </trkpt>
      <trkpt lat="45.20344" lon="5.72517">
        <ele>599.59997558594</ele>
        <time>2021-07-11T04:09:35.000Z</time>
      </trkpt>
      <trkpt lat="45.20344" lon="5.72518">
        <ele>599.79998779297</ele>
        <time>2021-07-11T04:09:36.000Z</time>
      </trkpt>
      <trkpt lat="45.20345" lon="5.72519">
        <ele>600.59997558594</ele>
        <time>2021-07-11T04:09:38.000Z</time>
      </trkpt>
      <trkpt lat="45.20346" lon="5.72519">
        <ele>600.79998779297</ele>
        <time>2021-07-11T04:09:40.000Z</time>
      </trkpt>
      <trkpt lat="45.20349" lon="5.7252">
        <ele>602.20001220703</ele>
        <time>2021-07-11T04:09:46.000Z</time>
      </trkpt>
      <trkpt lat="45.20349" lon="5.7252">
        <ele>602.20001220703</ele>
        <time>2021-07-11T04:09:47.000Z</time>
      </trkpt>
      <trkpt lat="45.20351" lon="5.72521">
        <ele>603.59997558594</ele>
        <time>2021-07-11T04:09:51.000Z</time>
      </trkpt>
      <trkpt lat="45.20351" lon="5.72519">
        <ele>603.79998779297</ele>
        <time>2021-07-11T04:09:53.000Z</time>
      </trkpt>
      <trkpt lat="45.20352" lon="5.72514">
        <ele>604.59997558594</ele>
        <time>2021-07-11T04:09:58.000Z</time>
      </trkpt>
      <trkpt lat="45.20353" lon="5.72514">
        <ele>605</ele>
        <time>2021-07-11T04:09:59.000Z</time>
      </trkpt>
      <trkpt lat="45.20355" lon="5.72516">
        <ele>605.79998779297</ele>
        <time>2021-07-11T04:10:02.000Z</time>
      </trkpt>
      <trkpt lat="45.20355" lon="5.72516">
        <ele>606</ele>
        <time>2021-07-11T04:10:03.000Z</time>
      </trkpt>
      <trkpt lat="45.20358" lon="5.72517">
        <ele>606.59997558594</ele>
        <time>2021-07-11T04:10:06.000Z</time>
      </trkpt>
      <trkpt lat="45.2036" lon="5.72517">
        <ele>607.40002441406</ele>
        <time>2021-07-11T04:10:08.000Z</time>
      </trkpt>
      <trkpt lat="45.20365" lon="5.72516">
        <ele>608</ele>
        <time>2021-07-11T04:10:12.000Z</time>
      </trkpt>
      <trkpt lat="45.20366" lon="5.72516">
        <ele>608.20001220703</ele>
        <time>2021-07-11T04:10:13.000Z</time>
      </trkpt>
      <trkpt lat="45.2037" lon="5.72516">
        <ele>608.59997558594</ele>
        <time>2021-07-11T04:10:16.000Z</time>
      </trkpt>
      <trkpt lat="45.20375" lon="5.72522">
        <ele>609.59997558594</ele>
        <time>2021-07-11T04:10:22.000Z</time>
      </trkpt>
      <trkpt lat="45.20375" lon="5.72523">
        <ele>610.40002441406</ele>
        <time>2021-07-11T04:10:23.000Z</time>
      </trkpt>
      <trkpt lat="45.20376" lon="5.72523">
        <ele>610.79998779297</ele>
        <time>2021-07-11T04:10:25.000Z</time>
      </trkpt>
      <trkpt lat="45.20377" lon="5.72521">
        <ele>611.59997558594</ele>
        <time>2021-07-11T04:10:27.000Z</time>
      </trkpt>
      <trkpt lat="45.20378" lon="5.72522">
        <ele>611.59997558594</ele>
        <time>2021-07-11T04:10:28.000Z</time>
      </trkpt>
      <trkpt lat="45.20379" lon="5.72523">
        <ele>612</ele>
        <time>2021-07-11T04:10:29.000Z</time>
      </trkpt>
      <trkpt lat="45.20381" lon="5.72525">
        <ele>613</ele>
        <time>2021-07-11T04:10:31.000Z</time>
      </trkpt>
      <trkpt lat="45.20382" lon="5.72526">
        <ele>613.40002441406</ele>
        <time>2021-07-11T04:10:33.000Z</time>
      </trkpt>
      <trkpt lat="45.20383" lon="5.72526">
        <ele>614</ele>
        <time>2021-07-11T04:10:35.000Z</time>
      </trkpt>
      <trkpt lat="45.20384" lon="5.72526">
        <ele>614.20001220703</ele>
        <time>2021-07-11T04:10:36.000Z</time>
      </trkpt>
      <trkpt lat="45.20386" lon="5.72528">
        <ele>614.59997558594</ele>
        <time>2021-07-11T04:10:38.000Z</time>
      </trkpt>
      <trkpt lat="45.20388" lon="5.72531">
        <ele>615</ele>
        <time>2021-07-11T04:10:40.000Z</time>
      </trkpt>
      <trkpt lat="45.20388" lon="5.72532">
        <ele>615.40002441406</ele>
        <time>2021-07-11T04:10:42.000Z</time>
      </trkpt>
      <trkpt lat="45.20389" lon="5.72532">
        <ele>615.59997558594</ele>
        <time>2021-07-11T04:10:43.000Z</time>
      </trkpt>
      <trkpt lat="45.2039" lon="5.72532">
        <ele>615.79998779297</ele>
        <time>2021-07-11T04:10:44.000Z</time>
      </trkpt>
      <trkpt lat="45.20391" lon="5.72531">
        <ele>615.79998779297</ele>
        <time>2021-07-11T04:10:45.000Z</time>
      </trkpt>
      <trkpt lat="45.20392" lon="5.7253">
        <ele>616.40002441406</ele>
        <time>2021-07-11T04:10:47.000Z</time>
      </trkpt>
      <trkpt lat="45.20392" lon="5.72531">
        <ele>616.79998779297</ele>
        <time>2021-07-11T04:10:50.000Z</time>
      </trkpt>
      <trkpt lat="45.20392" lon="5.72531">
        <ele>617.59997558594</ele>
        <time>2021-07-11T04:10:51.000Z</time>
      </trkpt>
      <trkpt lat="45.20394" lon="5.7253">
        <ele>618.79998779297</ele>
        <time>2021-07-11T04:10:55.000Z</time>
      </trkpt>
      <trkpt lat="45.20395" lon="5.7253">
        <ele>619</ele>
        <time>2021-07-11T04:10:56.000Z</time>
      </trkpt>
      <trkpt lat="45.20397" lon="5.72531">
        <ele>620</ele>
        <time>2021-07-11T04:10:59.000Z</time>
      </trkpt>
      <trkpt lat="45.20399" lon="5.72533">
        <ele>620.40002441406</ele>
        <time>2021-07-11T04:11:01.000Z</time>
      </trkpt>
      <trkpt lat="45.204" lon="5.72534">
        <ele>620.59997558594</ele>
        <time>2021-07-11T04:11:02.000Z</time>
      </trkpt>
      <trkpt lat="45.20402" lon="5.72533">
        <ele>621.59997558594</ele>
        <time>2021-07-11T04:11:06.000Z</time>
      </trkpt>
      <trkpt lat="45.20403" lon="5.72532">
        <ele>621.59997558594</ele>
        <time>2021-07-11T04:11:07.000Z</time>
      </trkpt>
      <trkpt lat="45.20404" lon="5.72531">
        <ele>622.59997558594</ele>
        <time>2021-07-11T04:11:11.000Z</time>
      </trkpt>
      <trkpt lat="45.20407" lon="5.72531">
        <ele>623</ele>
        <time>2021-07-11T04:11:14.000Z</time>
      </trkpt>
      <trkpt lat="45.20407" lon="5.7253">
        <ele>624</ele>
        <time>2021-07-11T04:11:17.000Z</time>
      </trkpt>
      <trkpt lat="45.20408" lon="5.72529">
        <ele>624</ele>
        <time>2021-07-11T04:11:18.000Z</time>
      </trkpt>
      <trkpt lat="45.20411" lon="5.72528">
        <ele>625</ele>
        <time>2021-07-11T04:11:22.000Z</time>
      </trkpt>
      <trkpt lat="45.20412" lon="5.72528">
        <ele>625.20001220703</ele>
        <time>2021-07-11T04:11:23.000Z</time>
      </trkpt>
      <trkpt lat="45.20412" lon="5.72527">
        <ele>626.40002441406</ele>
        <time>2021-07-11T04:11:25.000Z</time>
      </trkpt>
      <trkpt lat="45.20415" lon="5.72521">
        <ele>627.79998779297</ele>
        <time>2021-07-11T04:11:31.000Z</time>
      </trkpt>
      <trkpt lat="45.20417" lon="5.72519">
        <ele>627.79998779297</ele>
        <time>2021-07-11T04:11:32.000Z</time>
      </trkpt>
      <trkpt lat="45.2042" lon="5.72515">
        <ele>629</ele>
        <time>2021-07-11T04:11:36.000Z</time>
      </trkpt>
      <trkpt lat="45.20421" lon="5.72515">
        <ele>630.20001220703</ele>
        <time>2021-07-11T04:11:38.000Z</time>
      </trkpt>
      <trkpt lat="45.20421" lon="5.72516">
        <ele>630.20001220703</ele>
        <time>2021-07-11T04:11:39.000Z</time>
      </trkpt>
      <trkpt lat="45.20423" lon="5.72514">
        <ele>631.20001220703</ele>
        <time>2021-07-11T04:11:44.000Z</time>
      </trkpt>
      <trkpt lat="45.20424" lon="5.72514">
        <ele>631.59997558594</ele>
        <time>2021-07-11T04:11:45.000Z</time>
      </trkpt>
      <trkpt lat="45.20429" lon="5.72514">
        <ele>632.79998779297</ele>
        <time>2021-07-11T04:11:48.000Z</time>
      </trkpt>
      <trkpt lat="45.20429" lon="5.72514">
        <ele>633.40002441406</ele>
        <time>2021-07-11T04:11:50.000Z</time>
      </trkpt>
      <trkpt lat="45.2043" lon="5.72513">
        <ele>633.40002441406</ele>
        <time>2021-07-11T04:11:51.000Z</time>
      </trkpt>
      <trkpt lat="45.20431" lon="5.72512">
        <ele>633.79998779297</ele>
        <time>2021-07-11T04:11:52.000Z</time>
      </trkpt>
      <trkpt lat="45.20433" lon="5.72512">
        <ele>635.20001220703</ele>
        <time>2021-07-11T04:11:56.000Z</time>
      </trkpt>
      <trkpt lat="45.20435" lon="5.72511">
        <ele>636.59997558594</ele>
        <time>2021-07-11T04:12:00.000Z</time>
      </trkpt>
      <trkpt lat="45.20436" lon="5.72509">
        <ele>636.79998779297</ele>
        <time>2021-07-11T04:12:01.000Z</time>
      </trkpt>
      <trkpt lat="45.2044" lon="5.72508">
        <ele>637.20001220703</ele>
        <time>2021-07-11T04:12:03.000Z</time>
      </trkpt>
      <trkpt lat="45.20444" lon="5.72509">
        <ele>637.59997558594</ele>
        <time>2021-07-11T04:12:07.000Z</time>
      </trkpt>
      <trkpt lat="45.20446" lon="5.7251">
        <ele>637.79998779297</ele>
        <time>2021-07-11T04:12:08.000Z</time>
      </trkpt>
      <trkpt lat="45.2045" lon="5.72516">
        <ele>638.20001220703</ele>
        <time>2021-07-11T04:12:12.000Z</time>
      </trkpt>
      <trkpt lat="45.20451" lon="5.72518">
        <ele>638.59997558594</ele>
        <time>2021-07-11T04:12:14.000Z</time>
      </trkpt>
      <trkpt lat="45.20452" lon="5.72519">
        <ele>638.79998779297</ele>
        <time>2021-07-11T04:12:15.000Z</time>
      </trkpt>
      <trkpt lat="45.20456" lon="5.72524">
        <ele>639.40002441406</ele>
        <time>2021-07-11T04:12:19.000Z</time>
      </trkpt>
      <trkpt lat="45.20459" lon="5.72529">
        <ele>640.20001220703</ele>
        <time>2021-07-11T04:12:23.000Z</time>
      </trkpt>
      <trkpt lat="45.20464" lon="5.72533">
        <ele>640.79998779297</ele>
        <time>2021-07-11T04:12:26.000Z</time>
      </trkpt>
      <trkpt lat="45.20466" lon="5.72535">
        <ele>640.79998779297</ele>
        <time>2021-07-11T04:12:28.000Z</time>
      </trkpt>
      <trkpt lat="45.20468" lon="5.72537">
        <ele>641.20001220703</ele>
        <time>2021-07-11T04:12:29.000Z</time>
      </trkpt>
      <trkpt lat="45.20472" lon="5.72542">
        <ele>641.59997558594</ele>
        <time>2021-07-11T04:12:32.000Z</time>
      </trkpt>
      <trkpt lat="45.20475" lon="5.72547">
        <ele>642</ele>
        <time>2021-07-11T04:12:34.000Z</time>
      </trkpt>
      <trkpt lat="45.20477" lon="5.72549">
        <ele>642.40002441406</ele>
        <time>2021-07-11T04:12:35.000Z</time>
      </trkpt>
      <trkpt lat="45.20482" lon="5.72554">
        <ele>642.79998779297</ele>
        <time>2021-07-11T04:12:38.000Z</time>
      </trkpt>
      <trkpt lat="45.20487" lon="5.72556">
        <ele>643.20001220703</ele>
        <time>2021-07-11T04:12:41.000Z</time>
      </trkpt>
      <trkpt lat="45.20491" lon="5.72555">
        <ele>643.59997558594</ele>
        <time>2021-07-11T04:12:43.000Z</time>
      </trkpt>
      <trkpt lat="45.20492" lon="5.72555">
        <ele>643.79998779297</ele>
        <time>2021-07-11T04:12:44.000Z</time>
      </trkpt>
      <trkpt lat="45.20493" lon="5.72553">
        <ele>644.20001220703</ele>
        <time>2021-07-11T04:12:46.000Z</time>
      </trkpt>
      <trkpt lat="45.20492" lon="5.72551">
        <ele>645</ele>
        <time>2021-07-11T04:12:48.000Z</time>
      </trkpt>
      <trkpt lat="45.20489" lon="5.72545">
        <ele>646.20001220703</ele>
        <time>2021-07-11T04:12:53.000Z</time>
      </trkpt>
      <trkpt lat="45.20486" lon="5.72537">
        <ele>647.79998779297</ele>
        <time>2021-07-11T04:12:58.000Z</time>
      </trkpt>
      <trkpt lat="45.20483" lon="5.7253">
        <ele>648.79998779297</ele>
        <time>2021-07-11T04:13:02.000Z</time>
      </trkpt>
      <trkpt lat="45.20484" lon="5.7252">
        <ele>649</ele>
        <time>2021-07-11T04:13:06.000Z</time>
      </trkpt>
      <trkpt lat="45.20484" lon="5.72504">
        <ele>649</ele>
        <time>2021-07-11T04:13:12.000Z</time>
      </trkpt>
      <trkpt lat="45.20477" lon="5.72491">
        <ele>648.59997558594</ele>
        <time>2021-07-11T04:13:18.000Z</time>
      </trkpt>
      <trkpt lat="45.20477" lon="5.72478">
        <ele>650.20001220703</ele>
        <time>2021-07-11T04:13:24.000Z</time>
      </trkpt>
      <trkpt lat="45.20476" lon="5.72476">
        <ele>650.20001220703</ele>
        <time>2021-07-11T04:13:25.000Z</time>
      </trkpt>
      <trkpt lat="45.20475" lon="5.72469">
        <ele>650.79998779297</ele>
        <time>2021-07-11T04:13:28.000Z</time>
      </trkpt>
      <trkpt lat="45.20475" lon="5.72467">
        <ele>651.40002441406</ele>
        <time>2021-07-11T04:13:29.000Z</time>
      </trkpt>
      <trkpt lat="45.20475" lon="5.72458">
        <ele>651.79998779297</ele>
        <time>2021-07-11T04:13:33.000Z</time>
      </trkpt>
      <trkpt lat="45.20474" lon="5.72456">
        <ele>652</ele>
        <time>2021-07-11T04:13:34.000Z</time>
      </trkpt>
      <trkpt lat="45.20473" lon="5.72454">
        <ele>652.40002441406</ele>
        <time>2021-07-11T04:13:35.000Z</time>
      </trkpt>
      <trkpt lat="45.20472" lon="5.72448">
        <ele>653</ele>
        <time>2021-07-11T04:13:38.000Z</time>
      </trkpt>
      <trkpt lat="45.20471" lon="5.72446">
        <ele>653.59997558594</ele>
        <time>2021-07-11T04:13:39.000Z</time>
      </trkpt>
      <trkpt lat="45.20469" lon="5.72444">
        <ele>653.59997558594</ele>
        <time>2021-07-11T04:13:40.000Z</time>
      </trkpt>
      <trkpt lat="45.20462" lon="5.72426">
        <ele>653.20001220703</ele>
        <time>2021-07-11T04:13:47.000Z</time>
      </trkpt>
      <trkpt lat="45.20456" lon="5.72419">
        <ele>652.79998779297</ele>
        <time>2021-07-11T04:13:51.000Z</time>
      </trkpt>
      <trkpt lat="45.20451" lon="5.72415">
        <ele>652.40002441406</ele>
        <time>2021-07-11T04:13:53.000Z</time>
      </trkpt>
      <trkpt lat="45.2045" lon="5.72414">
        <ele>652</ele>
        <time>2021-07-11T04:13:54.000Z</time>
      </trkpt>
      <trkpt lat="45.20445" lon="5.72409">
        <ele>651.20001220703</ele>
        <time>2021-07-11T04:13:58.000Z</time>
      </trkpt>
      <trkpt lat="45.2044" lon="5.72407">
        <ele>650.79998779297</ele>
        <time>2021-07-11T04:14:01.000Z</time>
      </trkpt>
      <trkpt lat="45.20436" lon="5.72403">
        <ele>650.20001220703</ele>
        <time>2021-07-11T04:14:04.000Z</time>
      </trkpt>
      <trkpt lat="45.20435" lon="5.72401">
        <ele>650.20001220703</ele>
        <time>2021-07-11T04:14:05.000Z</time>
      </trkpt>
      <trkpt lat="45.20435" lon="5.72398">
        <ele>649.40002441406</ele>
        <time>2021-07-11T04:14:06.000Z</time>
      </trkpt>
      <trkpt lat="45.20439" lon="5.72395">
        <ele>649.40002441406</ele>
        <time>2021-07-11T04:14:08.000Z</time>
      </trkpt>
      <trkpt lat="45.20441" lon="5.72394">
        <ele>649</ele>
        <time>2021-07-11T04:14:09.000Z</time>
      </trkpt>
      <trkpt lat="45.20444" lon="5.72394">
        <ele>649</ele>
        <time>2021-07-11T04:14:10.000Z</time>
      </trkpt>
      <trkpt lat="45.20457" lon="5.72392">
        <ele>649</ele>
        <time>2021-07-11T04:14:16.000Z</time>
      </trkpt>
      <trkpt lat="45.20459" lon="5.72391">
        <ele>649</ele>
        <time>2021-07-11T04:14:17.000Z</time>
      </trkpt>
      <trkpt lat="45.20464" lon="5.72391">
        <ele>649.20001220703</ele>
        <time>2021-07-11T04:14:19.000Z</time>
      </trkpt>
      <trkpt lat="45.20468" lon="5.72392">
        <ele>649.20001220703</ele>
        <time>2021-07-11T04:14:21.000Z</time>
      </trkpt>
      <trkpt lat="45.20473" lon="5.72393">
        <ele>649.40002441406</ele>
        <time>2021-07-11T04:14:23.000Z</time>
      </trkpt>
      <trkpt lat="45.20476" lon="5.72393">
        <ele>649.40002441406</ele>
        <time>2021-07-11T04:14:24.000Z</time>
      </trkpt>
      <trkpt lat="45.20482" lon="5.72394">
        <ele>649.40002441406</ele>
        <time>2021-07-11T04:14:27.000Z</time>
      </trkpt>
      <trkpt lat="45.20494" lon="5.72397">
        <ele>649.59997558594</ele>
        <time>2021-07-11T04:14:32.000Z</time>
      </trkpt>
      <trkpt lat="45.20507" lon="5.72398">
        <ele>649.40002441406</ele>
        <time>2021-07-11T04:14:38.000Z</time>
      </trkpt>
      <trkpt lat="45.20509" lon="5.72399">
        <ele>649.59997558594</ele>
        <time>2021-07-11T04:14:39.000Z</time>
      </trkpt>
      <trkpt lat="45.20518" lon="5.72401">
        <ele>649.40002441406</ele>
        <time>2021-07-11T04:14:43.000Z</time>
      </trkpt>
      <trkpt lat="45.20531" lon="5.724">
        <ele>649.79998779297</ele>
        <time>2021-07-11T04:14:50.000Z</time>
      </trkpt>
      <trkpt lat="45.20546" lon="5.72401">
        <ele>649.79998779297</ele>
        <time>2021-07-11T04:14:57.000Z</time>
      </trkpt>
      <trkpt lat="45.20555" lon="5.72405">
        <ele>650</ele>
        <time>2021-07-11T04:15:02.000Z</time>
      </trkpt>
      <trkpt lat="45.20557" lon="5.72406">
        <ele>649.79998779297</ele>
        <time>2021-07-11T04:15:03.000Z</time>
      </trkpt>
      <trkpt lat="45.20566" lon="5.7241">
        <ele>649.59997558594</ele>
        <time>2021-07-11T04:15:08.000Z</time>
      </trkpt>
      <trkpt lat="45.20569" lon="5.72411">
        <ele>650</ele>
        <time>2021-07-11T04:15:10.000Z</time>
      </trkpt>
      <trkpt lat="45.20572" lon="5.72412">
        <ele>650</ele>
        <time>2021-07-11T04:15:12.000Z</time>
      </trkpt>
      <trkpt lat="45.20575" lon="5.72411">
        <ele>650.20001220703</ele>
        <time>2021-07-11T04:15:15.000Z</time>
      </trkpt>
      <trkpt lat="45.20577" lon="5.7241">
        <ele>650.20001220703</ele>
        <time>2021-07-11T04:15:16.000Z</time>
      </trkpt>
      <trkpt lat="45.2059" lon="5.72411">
        <ele>650.20001220703</ele>
        <time>2021-07-11T04:15:21.000Z</time>
      </trkpt>
      <trkpt lat="45.20598" lon="5.72409">
        <ele>650.59997558594</ele>
        <time>2021-07-11T04:15:25.000Z</time>
      </trkpt>
      <trkpt lat="45.20602" lon="5.72409">
        <ele>650.59997558594</ele>
        <time>2021-07-11T04:15:26.000Z</time>
      </trkpt>
      <trkpt lat="45.20617" lon="5.72404">
        <ele>650.59997558594</ele>
        <time>2021-07-11T04:15:31.000Z</time>
      </trkpt>
      <trkpt lat="45.20623" lon="5.72403">
        <ele>650.59997558594</ele>
        <time>2021-07-11T04:15:33.000Z</time>
      </trkpt>
      <trkpt lat="45.20632" lon="5.724">
        <ele>650.59997558594</ele>
        <time>2021-07-11T04:15:36.000Z</time>
      </trkpt>
      <trkpt lat="45.20652" lon="5.72399">
        <ele>650.59997558594</ele>
        <time>2021-07-11T04:15:43.000Z</time>
      </trkpt>
      <trkpt lat="45.20666" lon="5.72398">
        <ele>650.79998779297</ele>
        <time>2021-07-11T04:15:49.000Z</time>
      </trkpt>
      <trkpt lat="45.20675" lon="5.72398">
        <ele>651</ele>
        <time>2021-07-11T04:15:52.000Z</time>
      </trkpt>
      <trkpt lat="45.20694" lon="5.724">
        <ele>651</ele>
        <time>2021-07-11T04:15:59.000Z</time>
      </trkpt>
      <trkpt lat="45.20699" lon="5.72403">
        <ele>651.20001220703</ele>
        <time>2021-07-11T04:16:01.000Z</time>
      </trkpt>
      <trkpt lat="45.20707" lon="5.72405">
        <ele>651.20001220703</ele>
        <time>2021-07-11T04:16:04.000Z</time>
      </trkpt>
      <trkpt lat="45.20724" lon="5.72412">
        <ele>651.40002441406</ele>
        <time>2021-07-11T04:16:11.000Z</time>
      </trkpt>
      <trkpt lat="45.20731" lon="5.72416">
        <ele>651.40002441406</ele>
        <time>2021-07-11T04:16:14.000Z</time>
      </trkpt>
      <trkpt lat="45.20736" lon="5.72416">
        <ele>651</ele>
        <time>2021-07-11T04:16:16.000Z</time>
      </trkpt>
      <trkpt lat="45.20743" lon="5.72418">
        <ele>651</ele>
        <time>2021-07-11T04:16:19.000Z</time>
      </trkpt>
      <trkpt lat="45.20755" lon="5.72421">
        <ele>651.20001220703</ele>
        <time>2021-07-11T04:16:23.000Z</time>
      </trkpt>
      <trkpt lat="45.2077" lon="5.72423">
        <ele>651.20001220703</ele>
        <time>2021-07-11T04:16:29.000Z</time>
      </trkpt>
      <trkpt lat="45.2078" lon="5.72426">
        <ele>651.20001220703</ele>
        <time>2021-07-11T04:16:33.000Z</time>
      </trkpt>
      <trkpt lat="45.20782" lon="5.72426">
        <ele>651.20001220703</ele>
        <time>2021-07-11T04:16:34.000Z</time>
      </trkpt>
      <trkpt lat="45.20795" lon="5.72431">
        <ele>651.40002441406</ele>
        <time>2021-07-11T04:16:39.000Z</time>
      </trkpt>
      <trkpt lat="45.20801" lon="5.72434">
        <ele>651.59997558594</ele>
        <time>2021-07-11T04:16:42.000Z</time>
      </trkpt>
      <trkpt lat="45.20808" lon="5.72435">
        <ele>651.59997558594</ele>
        <time>2021-07-11T04:16:45.000Z</time>
      </trkpt>
      <trkpt lat="45.20821" lon="5.72438">
        <ele>652</ele>
        <time>2021-07-11T04:16:50.000Z</time>
      </trkpt>
      <trkpt lat="45.2083" lon="5.72442">
        <ele>652</ele>
        <time>2021-07-11T04:16:54.000Z</time>
      </trkpt>
      <trkpt lat="45.20833" lon="5.72442">
        <ele>652</ele>
        <time>2021-07-11T04:16:55.000Z</time>
      </trkpt>
      <trkpt lat="45.20835" lon="5.72442">
        <ele>652</ele>
        <time>2021-07-11T04:16:56.000Z</time>
      </trkpt>
      <trkpt lat="45.20843" lon="5.72446">
        <ele>652</ele>
        <time>2021-07-11T04:16:59.000Z</time>
      </trkpt>
      <trkpt lat="45.20846" lon="5.72447">
        <ele>652.20001220703</ele>
        <time>2021-07-11T04:17:00.000Z</time>
      </trkpt>
      <trkpt lat="45.20856" lon="5.7245">
        <ele>652.59997558594</ele>
        <time>2021-07-11T04:17:04.000Z</time>
      </trkpt>
      <trkpt lat="45.2087" lon="5.72453">
        <ele>652.40002441406</ele>
        <time>2021-07-11T04:17:10.000Z</time>
      </trkpt>
      <trkpt lat="45.20886" lon="5.7246">
        <ele>652.79998779297</ele>
        <time>2021-07-11T04:17:16.000Z</time>
      </trkpt>
      <trkpt lat="45.20905" lon="5.72466">
        <ele>652.59997558594</ele>
        <time>2021-07-11T04:17:23.000Z</time>
      </trkpt>
      <trkpt lat="45.20913" lon="5.72469">
        <ele>652.59997558594</ele>
        <time>2021-07-11T04:17:26.000Z</time>
      </trkpt>
      <trkpt lat="45.20921" lon="5.72474">
        <ele>652.40002441406</ele>
        <time>2021-07-11T04:17:29.000Z</time>
      </trkpt>
      <trkpt lat="45.20923" lon="5.72476">
        <ele>652.59997558594</ele>
        <time>2021-07-11T04:17:30.000Z</time>
      </trkpt>
      <trkpt lat="45.20934" lon="5.72485">
        <ele>652.79998779297</ele>
        <time>2021-07-11T04:17:35.000Z</time>
      </trkpt>
      <trkpt lat="45.20936" lon="5.72486">
        <ele>652.40002441406</ele>
        <time>2021-07-11T04:17:36.000Z</time>
      </trkpt>
      <trkpt lat="45.20946" lon="5.72487">
        <ele>652.20001220703</ele>
        <time>2021-07-11T04:17:41.000Z</time>
      </trkpt>
      <trkpt lat="45.20947" lon="5.72487">
        <ele>652.20001220703</ele>
        <time>2021-07-11T04:17:42.000Z</time>
      </trkpt>
      <trkpt lat="45.20954" lon="5.72487">
        <ele>652.20001220703</ele>
        <time>2021-07-11T04:17:45.000Z</time>
      </trkpt>
      <trkpt lat="45.20958" lon="5.72488">
        <ele>652.59997558594</ele>
        <time>2021-07-11T04:17:47.000Z</time>
      </trkpt>
      <trkpt lat="45.2096" lon="5.72487">
        <ele>652.59997558594</ele>
        <time>2021-07-11T04:17:48.000Z</time>
      </trkpt>
      <trkpt lat="45.20966" lon="5.72486">
        <ele>652.79998779297</ele>
        <time>2021-07-11T04:17:51.000Z</time>
      </trkpt>
      <trkpt lat="45.20974" lon="5.72484">
        <ele>653.40002441406</ele>
        <time>2021-07-11T04:17:55.000Z</time>
      </trkpt>
      <trkpt lat="45.20976" lon="5.72483">
        <ele>653.40002441406</ele>
        <time>2021-07-11T04:17:56.000Z</time>
      </trkpt>
      <trkpt lat="45.2099" lon="5.72482">
        <ele>653.40002441406</ele>
        <time>2021-07-11T04:18:02.000Z</time>
      </trkpt>
      <trkpt lat="45.21" lon="5.72484">
        <ele>653.79998779297</ele>
        <time>2021-07-11T04:18:06.000Z</time>
      </trkpt>
      <trkpt lat="45.21005" lon="5.72483">
        <ele>653.79998779297</ele>
        <time>2021-07-11T04:18:08.000Z</time>
      </trkpt>
      <trkpt lat="45.21015" lon="5.72481">
        <ele>652.59997558594</ele>
        <time>2021-07-11T04:18:14.000Z</time>
      </trkpt>
      <trkpt lat="45.21017" lon="5.72481">
        <ele>652.20001220703</ele>
        <time>2021-07-11T04:18:15.000Z</time>
      </trkpt>
      <trkpt lat="45.21025" lon="5.72482">
        <ele>651</ele>
        <time>2021-07-11T04:18:20.000Z</time>
      </trkpt>
      <trkpt lat="45.21027" lon="5.72482">
        <ele>650.40002441406</ele>
        <time>2021-07-11T04:18:21.000Z</time>
      </trkpt>
      <trkpt lat="45.2103" lon="5.72481">
        <ele>649.40002441406</ele>
        <time>2021-07-11T04:18:23.000Z</time>
      </trkpt>
      <trkpt lat="45.21033" lon="5.72481">
        <ele>649.20001220703</ele>
        <time>2021-07-11T04:18:25.000Z</time>
      </trkpt>
      <trkpt lat="45.21035" lon="5.72481">
        <ele>647.40002441406</ele>
        <time>2021-07-11T04:18:26.000Z</time>
      </trkpt>
      <trkpt lat="45.21036" lon="5.72481">
        <ele>647.40002441406</ele>
        <time>2021-07-11T04:18:27.000Z</time>
      </trkpt>
      <trkpt lat="45.21041" lon="5.72478">
        <ele>646.40002441406</ele>
        <time>2021-07-11T04:18:30.000Z</time>
      </trkpt>
      <trkpt lat="45.21047" lon="5.72477">
        <ele>645.59997558594</ele>
        <time>2021-07-11T04:18:34.000Z</time>
      </trkpt>
      <trkpt lat="45.21048" lon="5.72476">
        <ele>645.20001220703</ele>
        <time>2021-07-11T04:18:35.000Z</time>
      </trkpt>
      <trkpt lat="45.21052" lon="5.72473">
        <ele>644.20001220703</ele>
        <time>2021-07-11T04:18:37.000Z</time>
      </trkpt>
      <trkpt lat="45.21057" lon="5.72471">
        <ele>643.59997558594</ele>
        <time>2021-07-11T04:18:40.000Z</time>
      </trkpt>
      <trkpt lat="45.21058" lon="5.72471">
        <ele>643</ele>
        <time>2021-07-11T04:18:41.000Z</time>
      </trkpt>
      <trkpt lat="45.21063" lon="5.72467">
        <ele>641.79998779297</ele>
        <time>2021-07-11T04:18:45.000Z</time>
      </trkpt>
      <trkpt lat="45.21066" lon="5.72465">
        <ele>640.79998779297</ele>
        <time>2021-07-11T04:18:47.000Z</time>
      </trkpt>
      <trkpt lat="45.21068" lon="5.72465">
        <ele>640.79998779297</ele>
        <time>2021-07-11T04:18:48.000Z</time>
      </trkpt>
      <trkpt lat="45.21072" lon="5.72465">
        <ele>639.79998779297</ele>
        <time>2021-07-11T04:18:51.000Z</time>
      </trkpt>
      <trkpt lat="45.21073" lon="5.72464">
        <ele>639.79998779297</ele>
        <time>2021-07-11T04:18:52.000Z</time>
      </trkpt>
      <trkpt lat="45.21077" lon="5.72463">
        <ele>639.20001220703</ele>
        <time>2021-07-11T04:18:54.000Z</time>
      </trkpt>
      <trkpt lat="45.21078" lon="5.72463">
        <ele>638.59997558594</ele>
        <time>2021-07-11T04:18:55.000Z</time>
      </trkpt>
      <trkpt lat="45.2108" lon="5.72462">
        <ele>637.40002441406</ele>
        <time>2021-07-11T04:18:56.000Z</time>
      </trkpt>
      <trkpt lat="45.21082" lon="5.72461">
        <ele>637.40002441406</ele>
        <time>2021-07-11T04:18:57.000Z</time>
      </trkpt>
      <trkpt lat="45.21086" lon="5.7246">
        <ele>636.40002441406</ele>
        <time>2021-07-11T04:19:00.000Z</time>
      </trkpt>
      <trkpt lat="45.2109" lon="5.72458">
        <ele>635.20001220703</ele>
        <time>2021-07-11T04:19:03.000Z</time>
      </trkpt>
      <trkpt lat="45.21094" lon="5.72458">
        <ele>634.20001220703</ele>
        <time>2021-07-11T04:19:05.000Z</time>
      </trkpt>
      <trkpt lat="45.21096" lon="5.72457">
        <ele>633.79998779297</ele>
        <time>2021-07-11T04:19:07.000Z</time>
      </trkpt>
      <trkpt lat="45.21098" lon="5.72457">
        <ele>633.20001220703</ele>
        <time>2021-07-11T04:19:08.000Z</time>
      </trkpt>
      <trkpt lat="45.21099" lon="5.72457">
        <ele>632.79998779297</ele>
        <time>2021-07-11T04:19:09.000Z</time>
      </trkpt>
      <trkpt lat="45.21101" lon="5.72457">
        <ele>632.59997558594</ele>
        <time>2021-07-11T04:19:10.000Z</time>
      </trkpt>
      <trkpt lat="45.21105" lon="5.72457">
        <ele>631.79998779297</ele>
        <time>2021-07-11T04:19:12.000Z</time>
      </trkpt>
      <trkpt lat="45.21108" lon="5.72455">
        <ele>630.59997558594</ele>
        <time>2021-07-11T04:19:14.000Z</time>
      </trkpt>
      <trkpt lat="45.2111" lon="5.72453">
        <ele>630.40002441406</ele>
        <time>2021-07-11T04:19:15.000Z</time>
      </trkpt>
      <trkpt lat="45.21116" lon="5.7245">
        <ele>629.20001220703</ele>
        <time>2021-07-11T04:19:18.000Z</time>
      </trkpt>
      <trkpt lat="45.21118" lon="5.72448">
        <ele>629</ele>
        <time>2021-07-11T04:19:19.000Z</time>
      </trkpt>
      <trkpt lat="45.21127" lon="5.72444">
        <ele>628.40002441406</ele>
        <time>2021-07-11T04:19:23.000Z</time>
      </trkpt>
      <trkpt lat="45.21129" lon="5.72444">
        <ele>627.40002441406</ele>
        <time>2021-07-11T04:19:24.000Z</time>
      </trkpt>
      <trkpt lat="45.21132" lon="5.72444">
        <ele>627.20001220703</ele>
        <time>2021-07-11T04:19:25.000Z</time>
      </trkpt>
      <trkpt lat="45.21141" lon="5.72445">
        <ele>626</ele>
        <time>2021-07-11T04:19:28.000Z</time>
      </trkpt>
      <trkpt lat="45.2115" lon="5.72442">
        <ele>625.40002441406</ele>
        <time>2021-07-11T04:19:31.000Z</time>
      </trkpt>
      <trkpt lat="45.21152" lon="5.7244">
        <ele>625</ele>
        <time>2021-07-11T04:19:32.000Z</time>
      </trkpt>
      <trkpt lat="45.21155" lon="5.72437">
        <ele>624.79998779297</ele>
        <time>2021-07-11T04:19:33.000Z</time>
      </trkpt>
      <trkpt lat="45.21165" lon="5.72427">
        <ele>624</ele>
        <time>2021-07-11T04:19:37.000Z</time>
      </trkpt>
      <trkpt lat="45.2117" lon="5.72425">
        <ele>623.79998779297</ele>
        <time>2021-07-11T04:19:39.000Z</time>
      </trkpt>
      <trkpt lat="45.2118" lon="5.72418">
        <ele>623.20001220703</ele>
        <time>2021-07-11T04:19:43.000Z</time>
      </trkpt>
      <trkpt lat="45.21182" lon="5.72415">
        <ele>622.40002441406</ele>
        <time>2021-07-11T04:19:44.000Z</time>
      </trkpt>
      <trkpt lat="45.2119" lon="5.72407">
        <ele>622.40002441406</ele>
        <time>2021-07-11T04:19:48.000Z</time>
      </trkpt>
      <trkpt lat="45.21196" lon="5.72392">
        <ele>622.40002441406</ele>
        <time>2021-07-11T04:19:53.000Z</time>
      </trkpt>
      <trkpt lat="45.21196" lon="5.7239">
        <ele>622.40002441406</ele>
        <time>2021-07-11T04:19:54.000Z</time>
      </trkpt>
      <trkpt lat="45.21194" lon="5.72366">
        <ele>621.59997558594</ele>
        <time>2021-07-11T04:20:01.000Z</time>
      </trkpt>
      <trkpt lat="45.21193" lon="5.72354">
        <ele>621.59997558594</ele>
        <time>2021-07-11T04:20:05.000Z</time>
      </trkpt>
      <trkpt lat="45.21192" lon="5.7235">
        <ele>621.59997558594</ele>
        <time>2021-07-11T04:20:06.000Z</time>
      </trkpt>
      <trkpt lat="45.21189" lon="5.7234">
        <ele>621.40002441406</ele>
        <time>2021-07-11T04:20:09.000Z</time>
      </trkpt>
      <trkpt lat="45.21186" lon="5.72329">
        <ele>621.40002441406</ele>
        <time>2021-07-11T04:20:12.000Z</time>
      </trkpt>
      <trkpt lat="45.21188" lon="5.72327">
        <ele>621.20001220703</ele>
        <time>2021-07-11T04:20:13.000Z</time>
      </trkpt>
      <trkpt lat="45.21192" lon="5.72326">
        <ele>621</ele>
        <time>2021-07-11T04:20:15.000Z</time>
      </trkpt>
      <trkpt lat="45.21194" lon="5.72327">
        <ele>620.59997558594</ele>
        <time>2021-07-11T04:20:16.000Z</time>
      </trkpt>
      <trkpt lat="45.21198" lon="5.72327">
        <ele>620</ele>
        <time>2021-07-11T04:20:18.000Z</time>
      </trkpt>
      <trkpt lat="45.212" lon="5.72326">
        <ele>620</ele>
        <time>2021-07-11T04:20:19.000Z</time>
      </trkpt>
      <trkpt lat="45.21215" lon="5.72322">
        <ele>619</ele>
        <time>2021-07-11T04:20:25.000Z</time>
      </trkpt>
      <trkpt lat="45.21218" lon="5.72322">
        <ele>618.20001220703</ele>
        <time>2021-07-11T04:20:26.000Z</time>
      </trkpt>
      <trkpt lat="45.21233" lon="5.72321">
        <ele>617.40002441406</ele>
        <time>2021-07-11T04:20:32.000Z</time>
      </trkpt>
      <trkpt lat="45.21235" lon="5.7232">
        <ele>617.40002441406</ele>
        <time>2021-07-11T04:20:33.000Z</time>
      </trkpt>
      <trkpt lat="45.21239" lon="5.72318">
        <ele>617.20001220703</ele>
        <time>2021-07-11T04:20:35.000Z</time>
      </trkpt>
      <trkpt lat="45.21242" lon="5.72318">
        <ele>616.59997558594</ele>
        <time>2021-07-11T04:20:36.000Z</time>
      </trkpt>
      <trkpt lat="45.21254" lon="5.72316">
        <ele>615.59997558594</ele>
        <time>2021-07-11T04:20:40.000Z</time>
      </trkpt>
      <trkpt lat="45.21259" lon="5.72314">
        <ele>615</ele>
        <time>2021-07-11T04:20:42.000Z</time>
      </trkpt>
      <trkpt lat="45.21266" lon="5.72313">
        <ele>614.59997558594</ele>
        <time>2021-07-11T04:20:45.000Z</time>
      </trkpt>
      <trkpt lat="45.21268" lon="5.72313">
        <ele>613.59997558594</ele>
        <time>2021-07-11T04:20:46.000Z</time>
      </trkpt>
      <trkpt lat="45.21271" lon="5.72314">
        <ele>613.40002441406</ele>
        <time>2021-07-11T04:20:48.000Z</time>
      </trkpt>
      <trkpt lat="45.21277" lon="5.72315">
        <ele>612.20001220703</ele>
        <time>2021-07-11T04:20:52.000Z</time>
      </trkpt>
      <trkpt lat="45.21279" lon="5.72317">
        <ele>611</ele>
        <time>2021-07-11T04:20:54.000Z</time>
      </trkpt>
      <trkpt lat="45.2128" lon="5.72317">
        <ele>611</ele>
        <time>2021-07-11T04:20:55.000Z</time>
      </trkpt>
      <trkpt lat="45.21287" lon="5.72318">
        <ele>609.20001220703</ele>
        <time>2021-07-11T04:20:58.000Z</time>
      </trkpt>
      <trkpt lat="45.2129" lon="5.7232">
        <ele>609.20001220703</ele>
        <time>2021-07-11T04:20:59.000Z</time>
      </trkpt>
      <trkpt lat="45.21293" lon="5.72321">
        <ele>608.79998779297</ele>
        <time>2021-07-11T04:21:01.000Z</time>
      </trkpt>
      <trkpt lat="45.21297" lon="5.72321">
        <ele>607.79998779297</ele>
        <time>2021-07-11T04:21:03.000Z</time>
      </trkpt>
      <trkpt lat="45.21299" lon="5.72321">
        <ele>607.79998779297</ele>
        <time>2021-07-11T04:21:04.000Z</time>
      </trkpt>
      <trkpt lat="45.21302" lon="5.72321">
        <ele>607.20001220703</ele>
        <time>2021-07-11T04:21:05.000Z</time>
      </trkpt>
      <trkpt lat="45.21306" lon="5.72323">
        <ele>606.59997558594</ele>
        <time>2021-07-11T04:21:07.000Z</time>
      </trkpt>
      <trkpt lat="45.21308" lon="5.72324">
        <ele>606.40002441406</ele>
        <time>2021-07-11T04:21:08.000Z</time>
      </trkpt>
      <trkpt lat="45.21309" lon="5.72324">
        <ele>605.79998779297</ele>
        <time>2021-07-11T04:21:10.000Z</time>
      </trkpt>
      <trkpt lat="45.2131" lon="5.72325">
        <ele>605.40002441406</ele>
        <time>2021-07-11T04:21:11.000Z</time>
      </trkpt>
      <trkpt lat="45.21314" lon="5.72326">
        <ele>604.79998779297</ele>
        <time>2021-07-11T04:21:13.000Z</time>
      </trkpt>
      <trkpt lat="45.21314" lon="5.72327">
        <ele>604.59997558594</ele>
        <time>2021-07-11T04:21:14.000Z</time>
      </trkpt>
      <trkpt lat="45.21317" lon="5.72328">
        <ele>603.40002441406</ele>
        <time>2021-07-11T04:21:16.000Z</time>
      </trkpt>
      <trkpt lat="45.21321" lon="5.72329">
        <ele>602.40002441406</ele>
        <time>2021-07-11T04:21:19.000Z</time>
      </trkpt>
      <trkpt lat="45.21323" lon="5.72329">
        <ele>602</ele>
        <time>2021-07-11T04:21:21.000Z</time>
      </trkpt>
      <trkpt lat="45.21328" lon="5.72333">
        <ele>602.20001220703</ele>
        <time>2021-07-11T04:21:24.000Z</time>
      </trkpt>
      <trkpt lat="45.21331" lon="5.72335">
        <ele>603</ele>
        <time>2021-07-11T04:21:26.000Z</time>
      </trkpt>
      <trkpt lat="45.21332" lon="5.72337">
        <ele>603</ele>
        <time>2021-07-11T04:21:27.000Z</time>
      </trkpt>
      <trkpt lat="45.21333" lon="5.72338">
        <ele>603.40002441406</ele>
        <time>2021-07-11T04:21:28.000Z</time>
      </trkpt>
      <trkpt lat="45.21337" lon="5.72339">
        <ele>604.20001220703</ele>
        <time>2021-07-11T04:21:30.000Z</time>
      </trkpt>
      <trkpt lat="45.21338" lon="5.72339">
        <ele>605</ele>
        <time>2021-07-11T04:21:31.000Z</time>
      </trkpt>
      <trkpt lat="45.2134" lon="5.72341">
        <ele>605.40002441406</ele>
        <time>2021-07-11T04:21:34.000Z</time>
      </trkpt>
      <trkpt lat="45.21342" lon="5.72342">
        <ele>605.79998779297</ele>
        <time>2021-07-11T04:21:36.000Z</time>
      </trkpt>
      <trkpt lat="45.21342" lon="5.72343">
        <ele>606.59997558594</ele>
        <time>2021-07-11T04:21:37.000Z</time>
      </trkpt>
      <trkpt lat="45.21343" lon="5.72345">
        <ele>606.79998779297</ele>
        <time>2021-07-11T04:21:39.000Z</time>
      </trkpt>
      <trkpt lat="45.21345" lon="5.72346">
        <ele>607.59997558594</ele>
        <time>2021-07-11T04:21:41.000Z</time>
      </trkpt>
      <trkpt lat="45.21346" lon="5.72347">
        <ele>607.79998779297</ele>
        <time>2021-07-11T04:21:42.000Z</time>
      </trkpt>
      <trkpt lat="45.2135" lon="5.7235">
        <ele>608.79998779297</ele>
        <time>2021-07-11T04:21:46.000Z</time>
      </trkpt>
      <trkpt lat="45.21351" lon="5.7235">
        <ele>609</ele>
        <time>2021-07-11T04:21:47.000Z</time>
      </trkpt>
      <trkpt lat="45.21353" lon="5.72351">
        <ele>609.79998779297</ele>
        <time>2021-07-11T04:21:49.000Z</time>
      </trkpt>
      <trkpt lat="45.21355" lon="5.72351">
        <ele>610.20001220703</ele>
        <time>2021-07-11T04:21:50.000Z</time>
      </trkpt>
      <trkpt lat="45.21357" lon="5.72352">
        <ele>610.79998779297</ele>
        <time>2021-07-11T04:21:52.000Z</time>
      </trkpt>
      <trkpt lat="45.21358" lon="5.72352">
        <ele>610.79998779297</ele>
        <time>2021-07-11T04:21:53.000Z</time>
      </trkpt>
      <trkpt lat="45.21359" lon="5.72354">
        <ele>611.59997558594</ele>
        <time>2021-07-11T04:21:54.000Z</time>
      </trkpt>
      <trkpt lat="45.2136" lon="5.72355">
        <ele>611.79998779297</ele>
        <time>2021-07-11T04:21:56.000Z</time>
      </trkpt>
      <trkpt lat="45.21363" lon="5.72357">
        <ele>612.20001220703</ele>
        <time>2021-07-11T04:21:58.000Z</time>
      </trkpt>
      <trkpt lat="45.21364" lon="5.72358">
        <ele>613</ele>
        <time>2021-07-11T04:21:59.000Z</time>
      </trkpt>
      <trkpt lat="45.21367" lon="5.72359">
        <ele>613</ele>
        <time>2021-07-11T04:22:01.000Z</time>
      </trkpt>
      <trkpt lat="45.2137" lon="5.7236">
        <ele>614.20001220703</ele>
        <time>2021-07-11T04:22:05.000Z</time>
      </trkpt>
      <trkpt lat="45.21371" lon="5.72359">
        <ele>614.59997558594</ele>
        <time>2021-07-11T04:22:08.000Z</time>
      </trkpt>
      <trkpt lat="45.21374" lon="5.7236">
        <ele>615.59997558594</ele>
        <time>2021-07-11T04:22:11.000Z</time>
      </trkpt>
      <trkpt lat="45.21374" lon="5.72361">
        <ele>615.59997558594</ele>
        <time>2021-07-11T04:22:12.000Z</time>
      </trkpt>
      <trkpt lat="45.21376" lon="5.72361">
        <ele>616.20001220703</ele>
        <time>2021-07-11T04:22:14.000Z</time>
      </trkpt>
      <trkpt lat="45.21376" lon="5.72361">
        <ele>616.40002441406</ele>
        <time>2021-07-11T04:22:15.000Z</time>
      </trkpt>
      <trkpt lat="45.21378" lon="5.72361">
        <ele>617.20001220703</ele>
        <time>2021-07-11T04:22:17.000Z</time>
      </trkpt>
      <trkpt lat="45.21378" lon="5.72361">
        <ele>617.79998779297</ele>
        <time>2021-07-11T04:22:18.000Z</time>
      </trkpt>
      <trkpt lat="45.2138" lon="5.72363">
        <ele>618</ele>
        <time>2021-07-11T04:22:20.000Z</time>
      </trkpt>
      <trkpt lat="45.21381" lon="5.72364">
        <ele>618.59997558594</ele>
        <time>2021-07-11T04:22:21.000Z</time>
      </trkpt>
      <trkpt lat="45.21381" lon="5.72366">
        <ele>618.79998779297</ele>
        <time>2021-07-11T04:22:23.000Z</time>
      </trkpt>
      <trkpt lat="45.21382" lon="5.72368">
        <ele>619.40002441406</ele>
        <time>2021-07-11T04:22:24.000Z</time>
      </trkpt>
      <trkpt lat="45.21383" lon="5.7237">
        <ele>620</ele>
        <time>2021-07-11T04:22:26.000Z</time>
      </trkpt>
      <trkpt lat="45.21385" lon="5.72372">
        <ele>621.20001220703</ele>
        <time>2021-07-11T04:22:28.000Z</time>
      </trkpt>
      <trkpt lat="45.21386" lon="5.72372">
        <ele>621.40002441406</ele>
        <time>2021-07-11T04:22:29.000Z</time>
      </trkpt>
      <trkpt lat="45.21388" lon="5.72374">
        <ele>621.79998779297</ele>
        <time>2021-07-11T04:22:31.000Z</time>
      </trkpt>
      <trkpt lat="45.21391" lon="5.72375">
        <ele>622.59997558594</ele>
        <time>2021-07-11T04:22:33.000Z</time>
      </trkpt>
      <trkpt lat="45.21392" lon="5.72375">
        <ele>623</ele>
        <time>2021-07-11T04:22:34.000Z</time>
      </trkpt>
      <trkpt lat="45.21392" lon="5.72376">
        <ele>623.40002441406</ele>
        <time>2021-07-11T04:22:35.000Z</time>
      </trkpt>
      <trkpt lat="45.21393" lon="5.72379">
        <ele>624.20001220703</ele>
        <time>2021-07-11T04:22:37.000Z</time>
      </trkpt>
      <trkpt lat="45.21393" lon="5.72379">
        <ele>624.20001220703</ele>
        <time>2021-07-11T04:22:38.000Z</time>
      </trkpt>
      <trkpt lat="45.21395" lon="5.7238">
        <ele>625.59997558594</ele>
        <time>2021-07-11T04:22:40.000Z</time>
      </trkpt>
      <trkpt lat="45.21397" lon="5.72381">
        <ele>625.79998779297</ele>
        <time>2021-07-11T04:22:42.000Z</time>
      </trkpt>
      <trkpt lat="45.21399" lon="5.72384">
        <ele>626.40002441406</ele>
        <time>2021-07-11T04:22:45.000Z</time>
      </trkpt>
      <trkpt lat="45.21399" lon="5.72383">
        <ele>626.59997558594</ele>
        <time>2021-07-11T04:22:46.000Z</time>
      </trkpt>
      <trkpt lat="45.214" lon="5.72383">
        <ele>627.40002441406</ele>
        <time>2021-07-11T04:22:48.000Z</time>
      </trkpt>
      <trkpt lat="45.21401" lon="5.72383">
        <ele>628</ele>
        <time>2021-07-11T04:22:49.000Z</time>
      </trkpt>
      <trkpt lat="45.21402" lon="5.72384">
        <ele>628.59997558594</ele>
        <time>2021-07-11T04:22:52.000Z</time>
      </trkpt>
      <trkpt lat="45.21402" lon="5.72384">
        <ele>629</ele>
        <time>2021-07-11T04:22:53.000Z</time>
      </trkpt>
      <trkpt lat="45.21405" lon="5.72382">
        <ele>630.40002441406</ele>
        <time>2021-07-11T04:22:56.000Z</time>
      </trkpt>
      <trkpt lat="45.21406" lon="5.72383">
        <ele>630.40002441406</ele>
        <time>2021-07-11T04:22:57.000Z</time>
      </trkpt>
      <trkpt lat="45.21407" lon="5.72383">
        <ele>630.40002441406</ele>
        <time>2021-07-11T04:22:59.000Z</time>
      </trkpt>
      <trkpt lat="45.21408" lon="5.72384">
        <ele>630.79998779297</ele>
        <time>2021-07-11T04:23:00.000Z</time>
      </trkpt>
      <trkpt lat="45.21413" lon="5.72387">
        <ele>631.79998779297</ele>
        <time>2021-07-11T04:23:03.000Z</time>
      </trkpt>
      <trkpt lat="45.21414" lon="5.72386">
        <ele>632</ele>
        <time>2021-07-11T04:23:04.000Z</time>
      </trkpt>
      <trkpt lat="45.21417" lon="5.72388">
        <ele>632.59997558594</ele>
        <time>2021-07-11T04:23:07.000Z</time>
      </trkpt>
      <trkpt lat="45.21418" lon="5.72389">
        <ele>633</ele>
        <time>2021-07-11T04:23:08.000Z</time>
      </trkpt>
      <trkpt lat="45.2142" lon="5.72389">
        <ele>633.40002441406</ele>
        <time>2021-07-11T04:23:10.000Z</time>
      </trkpt>
      <trkpt lat="45.21422" lon="5.7239">
        <ele>634.20001220703</ele>
        <time>2021-07-11T04:23:13.000Z</time>
      </trkpt>
      <trkpt lat="45.21423" lon="5.7239">
        <ele>634.20001220703</ele>
        <time>2021-07-11T04:23:14.000Z</time>
      </trkpt>
      <trkpt lat="45.21424" lon="5.72389">
        <ele>635</ele>
        <time>2021-07-11T04:23:17.000Z</time>
      </trkpt>
      <trkpt lat="45.21425" lon="5.72388">
        <ele>635.20001220703</ele>
        <time>2021-07-11T04:23:19.000Z</time>
      </trkpt>
      <trkpt lat="45.21425" lon="5.72388">
        <ele>635.40002441406</ele>
        <time>2021-07-11T04:23:20.000Z</time>
      </trkpt>
      <trkpt lat="45.21426" lon="5.72387">
        <ele>635.40002441406</ele>
        <time>2021-07-11T04:23:21.000Z</time>
      </trkpt>
      <trkpt lat="45.21428" lon="5.72386">
        <ele>635.79998779297</ele>
        <time>2021-07-11T04:23:23.000Z</time>
      </trkpt>
      <trkpt lat="45.2143" lon="5.72386">
        <ele>636</ele>
        <time>2021-07-11T04:23:25.000Z</time>
      </trkpt>
      <trkpt lat="45.21431" lon="5.72387">
        <ele>636.40002441406</ele>
        <time>2021-07-11T04:23:26.000Z</time>
      </trkpt>
      <trkpt lat="45.21437" lon="5.72391">
        <ele>637</ele>
        <time>2021-07-11T04:23:29.000Z</time>
      </trkpt>
      <trkpt lat="45.21441" lon="5.72394">
        <ele>637.59997558594</ele>
        <time>2021-07-11T04:23:31.000Z</time>
      </trkpt>
      <trkpt lat="45.21442" lon="5.72394">
        <ele>637.59997558594</ele>
        <time>2021-07-11T04:23:32.000Z</time>
      </trkpt>
      <trkpt lat="45.21443" lon="5.72395">
        <ele>637.59997558594</ele>
        <time>2021-07-11T04:23:33.000Z</time>
      </trkpt>
      <trkpt lat="45.21444" lon="5.72396">
        <ele>638</ele>
        <time>2021-07-11T04:23:34.000Z</time>
      </trkpt>
      <trkpt lat="45.21446" lon="5.72396">
        <ele>638.59997558594</ele>
        <time>2021-07-11T04:23:36.000Z</time>
      </trkpt>
      <trkpt lat="45.21448" lon="5.72398">
        <ele>639</ele>
        <time>2021-07-11T04:23:38.000Z</time>
      </trkpt>
      <trkpt lat="45.2145" lon="5.72399">
        <ele>639</ele>
        <time>2021-07-11T04:23:39.000Z</time>
      </trkpt>
      <trkpt lat="45.21452" lon="5.724">
        <ele>639.79998779297</ele>
        <time>2021-07-11T04:23:42.000Z</time>
      </trkpt>
      <trkpt lat="45.21453" lon="5.72401">
        <ele>640</ele>
        <time>2021-07-11T04:23:44.000Z</time>
      </trkpt>
      <trkpt lat="45.21456" lon="5.72402">
        <ele>640.59997558594</ele>
        <time>2021-07-11T04:23:47.000Z</time>
      </trkpt>
      <trkpt lat="45.21457" lon="5.72402">
        <ele>640.59997558594</ele>
        <time>2021-07-11T04:23:48.000Z</time>
      </trkpt>
      <trkpt lat="45.21459" lon="5.72402">
        <ele>640.59997558594</ele>
        <time>2021-07-11T04:23:49.000Z</time>
      </trkpt>
      <trkpt lat="45.21462" lon="5.72403">
        <ele>640.79998779297</ele>
        <time>2021-07-11T04:23:51.000Z</time>
      </trkpt>
      <trkpt lat="45.21464" lon="5.72403">
        <ele>641</ele>
        <time>2021-07-11T04:23:52.000Z</time>
      </trkpt>
      <trkpt lat="45.21469" lon="5.72406">
        <ele>641.79998779297</ele>
        <time>2021-07-11T04:23:56.000Z</time>
      </trkpt>
      <trkpt lat="45.21476" lon="5.72409">
        <ele>641.79998779297</ele>
        <time>2021-07-11T04:24:01.000Z</time>
      </trkpt>
      <trkpt lat="45.21486" lon="5.72416">
        <ele>641.40002441406</ele>
        <time>2021-07-11T04:24:06.000Z</time>
      </trkpt>
      <trkpt lat="45.21488" lon="5.72417">
        <ele>641.20001220703</ele>
        <time>2021-07-11T04:24:07.000Z</time>
      </trkpt>
      <trkpt lat="45.21493" lon="5.72419">
        <ele>640.59997558594</ele>
        <time>2021-07-11T04:24:11.000Z</time>
      </trkpt>
      <trkpt lat="45.21496" lon="5.72419">
        <ele>640.20001220703</ele>
        <time>2021-07-11T04:24:13.000Z</time>
      </trkpt>
      <trkpt lat="45.21497" lon="5.7242">
        <ele>639.79998779297</ele>
        <time>2021-07-11T04:24:14.000Z</time>
      </trkpt>
      <trkpt lat="45.21501" lon="5.72423">
        <ele>639.59997558594</ele>
        <time>2021-07-11T04:24:16.000Z</time>
      </trkpt>
      <trkpt lat="45.21502" lon="5.72425">
        <ele>639.40002441406</ele>
        <time>2021-07-11T04:24:17.000Z</time>
      </trkpt>
      <trkpt lat="45.21512" lon="5.72434">
        <ele>639.40002441406</ele>
        <time>2021-07-11T04:24:21.000Z</time>
      </trkpt>
      <trkpt lat="45.21521" lon="5.72441">
        <ele>639.59997558594</ele>
        <time>2021-07-11T04:24:26.000Z</time>
      </trkpt>
      <trkpt lat="45.21525" lon="5.72443">
        <ele>639.40002441406</ele>
        <time>2021-07-11T04:24:28.000Z</time>
      </trkpt>
      <trkpt lat="45.21531" lon="5.72448">
        <ele>639.40002441406</ele>
        <time>2021-07-11T04:24:31.000Z</time>
      </trkpt>
      <trkpt lat="45.21537" lon="5.72453">
        <ele>639.40002441406</ele>
        <time>2021-07-11T04:24:33.000Z</time>
      </trkpt>
      <trkpt lat="45.21543" lon="5.72457">
        <ele>639.40002441406</ele>
        <time>2021-07-11T04:24:37.000Z</time>
      </trkpt>
      <trkpt lat="45.21545" lon="5.72457">
        <ele>639.40002441406</ele>
        <time>2021-07-11T04:24:38.000Z</time>
      </trkpt>
      <trkpt lat="45.21547" lon="5.72458">
        <ele>639.40002441406</ele>
        <time>2021-07-11T04:24:39.000Z</time>
      </trkpt>
      <trkpt lat="45.21553" lon="5.72463">
        <ele>639.40002441406</ele>
        <time>2021-07-11T04:24:42.000Z</time>
      </trkpt>
      <trkpt lat="45.21557" lon="5.72465">
        <ele>639.40002441406</ele>
        <time>2021-07-11T04:24:44.000Z</time>
      </trkpt>
      <trkpt lat="45.21574" lon="5.72468">
        <ele>639.79998779297</ele>
        <time>2021-07-11T04:24:51.000Z</time>
      </trkpt>
      <trkpt lat="45.21576" lon="5.72468">
        <ele>640</ele>
        <time>2021-07-11T04:24:52.000Z</time>
      </trkpt>
      <trkpt lat="45.21578" lon="5.72469">
        <ele>640.20001220703</ele>
        <time>2021-07-11T04:24:54.000Z</time>
      </trkpt>
      <trkpt lat="45.2158" lon="5.7247">
        <ele>640.59997558594</ele>
        <time>2021-07-11T04:24:55.000Z</time>
      </trkpt>
      <trkpt lat="45.21583" lon="5.72471">
        <ele>640.59997558594</ele>
        <time>2021-07-11T04:24:57.000Z</time>
      </trkpt>
      <trkpt lat="45.2159" lon="5.72471">
        <ele>640.79998779297</ele>
        <time>2021-07-11T04:25:00.000Z</time>
      </trkpt>
      <trkpt lat="45.21594" lon="5.72472">
        <ele>641</ele>
        <time>2021-07-11T04:25:03.000Z</time>
      </trkpt>
      <trkpt lat="45.21597" lon="5.72473">
        <ele>641.20001220703</ele>
        <time>2021-07-11T04:25:05.000Z</time>
      </trkpt>
      <trkpt lat="45.21599" lon="5.72474">
        <ele>641.40002441406</ele>
        <time>2021-07-11T04:25:06.000Z</time>
      </trkpt>
      <trkpt lat="45.21601" lon="5.72474">
        <ele>641.79998779297</ele>
        <time>2021-07-11T04:25:07.000Z</time>
      </trkpt>
      <trkpt lat="45.21606" lon="5.72476">
        <ele>642.40002441406</ele>
        <time>2021-07-11T04:25:11.000Z</time>
      </trkpt>
      <trkpt lat="45.21607" lon="5.72476">
        <ele>642.79998779297</ele>
        <time>2021-07-11T04:25:12.000Z</time>
      </trkpt>
      <trkpt lat="45.2161" lon="5.72476">
        <ele>643.20001220703</ele>
        <time>2021-07-11T04:25:14.000Z</time>
      </trkpt>
      <trkpt lat="45.21622" lon="5.72481">
        <ele>644.40002441406</ele>
        <time>2021-07-11T04:25:18.000Z</time>
      </trkpt>
      <trkpt lat="45.21625" lon="5.72482">
        <ele>644.20001220703</ele>
        <time>2021-07-11T04:25:19.000Z</time>
      </trkpt>
      <trkpt lat="45.21635" lon="5.72486">
        <ele>645</ele>
        <time>2021-07-11T04:25:24.000Z</time>
      </trkpt>
      <trkpt lat="45.21637" lon="5.72487">
        <ele>645</ele>
        <time>2021-07-11T04:25:25.000Z</time>
      </trkpt>
      <trkpt lat="45.21639" lon="5.72488">
        <ele>645</ele>
        <time>2021-07-11T04:25:26.000Z</time>
      </trkpt>
      <trkpt lat="45.21643" lon="5.72491">
        <ele>645</ele>
        <time>2021-07-11T04:25:28.000Z</time>
      </trkpt>
      <trkpt lat="45.21648" lon="5.72494">
        <ele>645.20001220703</ele>
        <time>2021-07-11T04:25:30.000Z</time>
      </trkpt>
      <trkpt lat="45.21651" lon="5.72495">
        <ele>645.20001220703</ele>
        <time>2021-07-11T04:25:31.000Z</time>
      </trkpt>
      <trkpt lat="45.21653" lon="5.72498">
        <ele>645.40002441406</ele>
        <time>2021-07-11T04:25:32.000Z</time>
      </trkpt>
      <trkpt lat="45.21657" lon="5.72498">
        <ele>645.79998779297</ele>
        <time>2021-07-11T04:25:35.000Z</time>
      </trkpt>
      <trkpt lat="45.2166" lon="5.72498">
        <ele>646.40002441406</ele>
        <time>2021-07-11T04:25:37.000Z</time>
      </trkpt>
      <trkpt lat="45.21661" lon="5.72498">
        <ele>646.79998779297</ele>
        <time>2021-07-11T04:25:38.000Z</time>
      </trkpt>
      <trkpt lat="45.21663" lon="5.72498">
        <ele>647.20001220703</ele>
        <time>2021-07-11T04:25:40.000Z</time>
      </trkpt>
      <trkpt lat="45.21666" lon="5.725">
        <ele>647.59997558594</ele>
        <time>2021-07-11T04:25:42.000Z</time>
      </trkpt>
      <trkpt lat="45.21676" lon="5.72507">
        <ele>647.79998779297</ele>
        <time>2021-07-11T04:25:46.000Z</time>
      </trkpt>
      <trkpt lat="45.2169" lon="5.72518">
        <ele>647.59997558594</ele>
        <time>2021-07-11T04:25:52.000Z</time>
      </trkpt>
      <trkpt lat="45.21692" lon="5.7252">
        <ele>647.59997558594</ele>
        <time>2021-07-11T04:25:53.000Z</time>
      </trkpt>
      <trkpt lat="45.21696" lon="5.72522">
        <ele>647.59997558594</ele>
        <time>2021-07-11T04:25:57.000Z</time>
      </trkpt>
      <trkpt lat="45.21698" lon="5.72523">
        <ele>647.59997558594</ele>
        <time>2021-07-11T04:25:58.000Z</time>
      </trkpt>
      <trkpt lat="45.21702" lon="5.72524">
        <ele>647.79998779297</ele>
        <time>2021-07-11T04:26:01.000Z</time>
      </trkpt>
      <trkpt lat="45.21705" lon="5.72526">
        <ele>648</ele>
        <time>2021-07-11T04:26:04.000Z</time>
      </trkpt>
      <trkpt lat="45.21712" lon="5.72531">
        <ele>647.79998779297</ele>
        <time>2021-07-11T04:26:07.000Z</time>
      </trkpt>
      <trkpt lat="45.21715" lon="5.72532">
        <ele>647.79998779297</ele>
        <time>2021-07-11T04:26:08.000Z</time>
      </trkpt>
      <trkpt lat="45.21718" lon="5.72534">
        <ele>648.20001220703</ele>
        <time>2021-07-11T04:26:09.000Z</time>
      </trkpt>
      <trkpt lat="45.21721" lon="5.72536">
        <ele>648.20001220703</ele>
        <time>2021-07-11T04:26:10.000Z</time>
      </trkpt>
      <trkpt lat="45.21729" lon="5.7254">
        <ele>648.59997558594</ele>
        <time>2021-07-11T04:26:13.000Z</time>
      </trkpt>
      <trkpt lat="45.21734" lon="5.72542">
        <ele>648.79998779297</ele>
        <time>2021-07-11T04:26:15.000Z</time>
      </trkpt>
      <trkpt lat="45.2174" lon="5.72545">
        <ele>649.59997558594</ele>
        <time>2021-07-11T04:26:18.000Z</time>
      </trkpt>
      <trkpt lat="45.21742" lon="5.72546">
        <ele>649.40002441406</ele>
        <time>2021-07-11T04:26:19.000Z</time>
      </trkpt>
      <trkpt lat="45.21748" lon="5.72549">
        <ele>649.59997558594</ele>
        <time>2021-07-11T04:26:22.000Z</time>
      </trkpt>
      <trkpt lat="45.2175" lon="5.7255">
        <ele>650</ele>
        <time>2021-07-11T04:26:23.000Z</time>
      </trkpt>
      <trkpt lat="45.21752" lon="5.7255">
        <ele>650</ele>
        <time>2021-07-11T04:26:24.000Z</time>
      </trkpt>
      <trkpt lat="45.21765" lon="5.72555">
        <ele>651</ele>
        <time>2021-07-11T04:26:31.000Z</time>
      </trkpt>
      <trkpt lat="45.21766" lon="5.72555">
        <ele>651</ele>
        <time>2021-07-11T04:26:32.000Z</time>
      </trkpt>
      <trkpt lat="45.21767" lon="5.72554">
        <ele>651.59997558594</ele>
        <time>2021-07-11T04:26:33.000Z</time>
      </trkpt>
      <trkpt lat="45.21771" lon="5.72554">
        <ele>652.40002441406</ele>
        <time>2021-07-11T04:26:36.000Z</time>
      </trkpt>
      <trkpt lat="45.21773" lon="5.72554">
        <ele>652.79998779297</ele>
        <time>2021-07-11T04:26:37.000Z</time>
      </trkpt>
      <trkpt lat="45.21773" lon="5.72556">
        <ele>653</ele>
        <time>2021-07-11T04:26:39.000Z</time>
      </trkpt>
      <trkpt lat="45.21773" lon="5.72558">
        <ele>653.59997558594</ele>
        <time>2021-07-11T04:26:40.000Z</time>
      </trkpt>
      <trkpt lat="45.21775" lon="5.72561">
        <ele>653.59997558594</ele>
        <time>2021-07-11T04:26:41.000Z</time>
      </trkpt>
      <trkpt lat="45.21776" lon="5.72562">
        <ele>653.59997558594</ele>
        <time>2021-07-11T04:26:43.000Z</time>
      </trkpt>
      <trkpt lat="45.21777" lon="5.72563">
        <ele>653.59997558594</ele>
        <time>2021-07-11T04:26:44.000Z</time>
      </trkpt>
      <trkpt lat="45.21777" lon="5.72564">
        <ele>653.79998779297</ele>
        <time>2021-07-11T04:26:45.000Z</time>
      </trkpt>
      <trkpt lat="45.21777" lon="5.72566">
        <ele>653.79998779297</ele>
        <time>2021-07-11T04:26:47.000Z</time>
      </trkpt>
      <trkpt lat="45.21776" lon="5.72568">
        <ele>654.20001220703</ele>
        <time>2021-07-11T04:26:50.000Z</time>
      </trkpt>
      <trkpt lat="45.21776" lon="5.72569">
        <ele>654.40002441406</ele>
        <time>2021-07-11T04:26:51.000Z</time>
      </trkpt>
      <trkpt lat="45.21776" lon="5.72571">
        <ele>655</ele>
        <time>2021-07-11T04:26:54.000Z</time>
      </trkpt>
      <trkpt lat="45.21776" lon="5.72572">
        <ele>655.59997558594</ele>
        <time>2021-07-11T04:26:56.000Z</time>
      </trkpt>
      <trkpt lat="45.21775" lon="5.72576">
        <ele>655.59997558594</ele>
        <time>2021-07-11T04:26:58.000Z</time>
      </trkpt>
      <trkpt lat="45.21774" lon="5.72578">
        <ele>656.59997558594</ele>
        <time>2021-07-11T04:27:00.000Z</time>
      </trkpt>
      <trkpt lat="45.21773" lon="5.72576">
        <ele>657</ele>
        <time>2021-07-11T04:27:03.000Z</time>
      </trkpt>
      <trkpt lat="45.21772" lon="5.72577">
        <ele>657.20001220703</ele>
        <time>2021-07-11T04:27:04.000Z</time>
      </trkpt>
      <trkpt lat="45.21771" lon="5.72579">
        <ele>658.40002441406</ele>
        <time>2021-07-11T04:27:06.000Z</time>
      </trkpt>
      <trkpt lat="45.21769" lon="5.72581">
        <ele>658.40002441406</ele>
        <time>2021-07-11T04:27:08.000Z</time>
      </trkpt>
      <trkpt lat="45.21765" lon="5.72582">
        <ele>659.40002441406</ele>
        <time>2021-07-11T04:27:12.000Z</time>
      </trkpt>
      <trkpt lat="45.21765" lon="5.72584">
        <ele>660</ele>
        <time>2021-07-11T04:27:13.000Z</time>
      </trkpt>
      <trkpt lat="45.21765" lon="5.72585">
        <ele>660</ele>
        <time>2021-07-11T04:27:14.000Z</time>
      </trkpt>
      <trkpt lat="45.21765" lon="5.72586">
        <ele>660.59997558594</ele>
        <time>2021-07-11T04:27:16.000Z</time>
      </trkpt>
      <trkpt lat="45.21765" lon="5.72587">
        <ele>660.79998779297</ele>
        <time>2021-07-11T04:27:18.000Z</time>
      </trkpt>
      <trkpt lat="45.21762" lon="5.72589">
        <ele>661.40002441406</ele>
        <time>2021-07-11T04:27:21.000Z</time>
      </trkpt>
      <trkpt lat="45.21761" lon="5.72589">
        <ele>661.79998779297</ele>
        <time>2021-07-11T04:27:22.000Z</time>
      </trkpt>
      <trkpt lat="45.21759" lon="5.72591">
        <ele>662</ele>
        <time>2021-07-11T04:27:23.000Z</time>
      </trkpt>
      <trkpt lat="45.21756" lon="5.72592">
        <ele>662.79998779297</ele>
        <time>2021-07-11T04:27:26.000Z</time>
      </trkpt>
      <trkpt lat="45.21754" lon="5.72592">
        <ele>663</ele>
        <time>2021-07-11T04:27:28.000Z</time>
      </trkpt>
      <trkpt lat="45.21748" lon="5.72597">
        <ele>664</ele>
        <time>2021-07-11T04:27:32.000Z</time>
      </trkpt>
      <trkpt lat="45.21746" lon="5.72599">
        <ele>664.40002441406</ele>
        <time>2021-07-11T04:27:33.000Z</time>
      </trkpt>
      <trkpt lat="45.21743" lon="5.726">
        <ele>665</ele>
        <time>2021-07-11T04:27:36.000Z</time>
      </trkpt>
      <trkpt lat="45.21741" lon="5.726">
        <ele>665.79998779297</ele>
        <time>2021-07-11T04:27:37.000Z</time>
      </trkpt>
      <trkpt lat="45.21741" lon="5.72599">
        <ele>666</ele>
        <time>2021-07-11T04:27:38.000Z</time>
      </trkpt>
      <trkpt lat="45.2174" lon="5.72599">
        <ele>666.40002441406</ele>
        <time>2021-07-11T04:27:40.000Z</time>
      </trkpt>
      <trkpt lat="45.2174" lon="5.72598">
        <ele>666.40002441406</ele>
        <time>2021-07-11T04:27:42.000Z</time>
      </trkpt>
      <trkpt lat="45.2174" lon="5.72596">
        <ele>666.40002441406</ele>
        <time>2021-07-11T04:27:43.000Z</time>
      </trkpt>
      <trkpt lat="45.21741" lon="5.72595">
        <ele>666.40002441406</ele>
        <time>2021-07-11T04:27:44.000Z</time>
      </trkpt>
      <trkpt lat="45.21742" lon="5.72594">
        <ele>665.79998779297</ele>
        <time>2021-07-11T04:27:46.000Z</time>
      </trkpt>
      <trkpt lat="45.21744" lon="5.72593">
        <ele>665.59997558594</ele>
        <time>2021-07-11T04:27:48.000Z</time>
      </trkpt>
      <trkpt lat="45.21744" lon="5.72592">
        <ele>664.79998779297</ele>
        <time>2021-07-11T04:27:49.000Z</time>
      </trkpt>
      <trkpt lat="45.21745" lon="5.72591">
        <ele>664.79998779297</ele>
        <time>2021-07-11T04:27:50.000Z</time>
      </trkpt>
      <trkpt lat="45.21746" lon="5.7259">
        <ele>664</ele>
        <time>2021-07-11T04:27:51.000Z</time>
      </trkpt>
      <trkpt lat="45.21747" lon="5.72588">
        <ele>663.79998779297</ele>
        <time>2021-07-11T04:27:52.000Z</time>
      </trkpt>
      <trkpt lat="45.21748" lon="5.72587">
        <ele>663.59997558594</ele>
        <time>2021-07-11T04:27:53.000Z</time>
      </trkpt>
      <trkpt lat="45.21749" lon="5.72584">
        <ele>663.40002441406</ele>
        <time>2021-07-11T04:27:54.000Z</time>
      </trkpt>
      <trkpt lat="45.2175" lon="5.72583">
        <ele>662.79998779297</ele>
        <time>2021-07-11T04:27:56.000Z</time>
      </trkpt>
      <trkpt lat="45.21756" lon="5.72581">
        <ele>661.59997558594</ele>
        <time>2021-07-11T04:28:00.000Z</time>
      </trkpt>
      <trkpt lat="45.21756" lon="5.7258">
        <ele>661.59997558594</ele>
        <time>2021-07-11T04:28:01.000Z</time>
      </trkpt>
      <trkpt lat="45.21757" lon="5.72579">
        <ele>660.40002441406</ele>
        <time>2021-07-11T04:28:03.000Z</time>
      </trkpt>
      <trkpt lat="45.21761" lon="5.72576">
        <ele>659.59997558594</ele>
        <time>2021-07-11T04:28:07.000Z</time>
      </trkpt>
      <trkpt lat="45.21762" lon="5.72576">
        <ele>659</ele>
        <time>2021-07-11T04:28:08.000Z</time>
      </trkpt>
      <trkpt lat="45.21764" lon="5.72577">
        <ele>658.79998779297</ele>
        <time>2021-07-11T04:28:09.000Z</time>
      </trkpt>
      <trkpt lat="45.21765" lon="5.72577">
        <ele>657.40002441406</ele>
        <time>2021-07-11T04:28:11.000Z</time>
      </trkpt>
      <trkpt lat="45.21768" lon="5.72576">
        <ele>656.79998779297</ele>
        <time>2021-07-11T04:28:13.000Z</time>
      </trkpt>
      <trkpt lat="45.21769" lon="5.72575">
        <ele>656</ele>
        <time>2021-07-11T04:28:14.000Z</time>
      </trkpt>
      <trkpt lat="45.21775" lon="5.72572">
        <ele>655.20001220703</ele>
        <time>2021-07-11T04:28:18.000Z</time>
      </trkpt>
      <trkpt lat="45.21776" lon="5.72572">
        <ele>654.79998779297</ele>
        <time>2021-07-11T04:28:19.000Z</time>
      </trkpt>
      <trkpt lat="45.21777" lon="5.72572">
        <ele>654.59997558594</ele>
        <time>2021-07-11T04:28:20.000Z</time>
      </trkpt>
      <trkpt lat="45.21781" lon="5.72572">
        <ele>653.79998779297</ele>
        <time>2021-07-11T04:28:23.000Z</time>
      </trkpt>
      <trkpt lat="45.21786" lon="5.72572">
        <ele>652.79998779297</ele>
        <time>2021-07-11T04:28:26.000Z</time>
      </trkpt>
      <trkpt lat="45.21787" lon="5.72572">
        <ele>652.20001220703</ele>
        <time>2021-07-11T04:28:28.000Z</time>
      </trkpt>
      <trkpt lat="45.21791" lon="5.72571">
        <ele>651.20001220703</ele>
        <time>2021-07-11T04:28:31.000Z</time>
      </trkpt>
      <trkpt lat="45.21792" lon="5.7257">
        <ele>651</ele>
        <time>2021-07-11T04:28:32.000Z</time>
      </trkpt>
      <trkpt lat="45.21794" lon="5.72569">
        <ele>650.79998779297</ele>
        <time>2021-07-11T04:28:33.000Z</time>
      </trkpt>
      <trkpt lat="45.21804" lon="5.72566">
        <ele>649.79998779297</ele>
        <time>2021-07-11T04:28:38.000Z</time>
      </trkpt>
      <trkpt lat="45.21804" lon="5.72566">
        <ele>648.59997558594</ele>
        <time>2021-07-11T04:28:39.000Z</time>
      </trkpt>
      <trkpt lat="45.21805" lon="5.72567">
        <ele>648</ele>
        <time>2021-07-11T04:28:40.000Z</time>
      </trkpt>
      <trkpt lat="45.21807" lon="5.72568">
        <ele>647.40002441406</ele>
        <time>2021-07-11T04:28:42.000Z</time>
      </trkpt>
      <trkpt lat="45.21809" lon="5.72569">
        <ele>646.20001220703</ele>
        <time>2021-07-11T04:28:44.000Z</time>
      </trkpt>
      <trkpt lat="45.21811" lon="5.72569">
        <ele>646</ele>
        <time>2021-07-11T04:28:45.000Z</time>
      </trkpt>
      <trkpt lat="45.21814" lon="5.7257">
        <ele>645.40002441406</ele>
        <time>2021-07-11T04:28:48.000Z</time>
      </trkpt>
      <trkpt lat="45.21815" lon="5.7257">
        <ele>645.20001220703</ele>
        <time>2021-07-11T04:28:49.000Z</time>
      </trkpt>
      <trkpt lat="45.21818" lon="5.7257">
        <ele>644</ele>
        <time>2021-07-11T04:28:51.000Z</time>
      </trkpt>
      <trkpt lat="45.21819" lon="5.72571">
        <ele>644</ele>
        <time>2021-07-11T04:28:52.000Z</time>
      </trkpt>
      <trkpt lat="45.21825" lon="5.72573">
        <ele>643.40002441406</ele>
        <time>2021-07-11T04:28:55.000Z</time>
      </trkpt>
      <trkpt lat="45.21827" lon="5.72574">
        <ele>643</ele>
        <time>2021-07-11T04:28:56.000Z</time>
      </trkpt>
      <trkpt lat="45.21831" lon="5.72577">
        <ele>642</ele>
        <time>2021-07-11T04:28:58.000Z</time>
      </trkpt>
      <trkpt lat="45.21832" lon="5.72577">
        <ele>642</ele>
        <time>2021-07-11T04:28:59.000Z</time>
      </trkpt>
      <trkpt lat="45.21833" lon="5.72578">
        <ele>641.79998779297</ele>
        <time>2021-07-11T04:29:00.000Z</time>
      </trkpt>
      <trkpt lat="45.21835" lon="5.7258">
        <ele>641.79998779297</ele>
        <time>2021-07-11T04:29:02.000Z</time>
      </trkpt>
      <trkpt lat="45.21836" lon="5.72581">
        <ele>641.79998779297</ele>
        <time>2021-07-11T04:29:03.000Z</time>
      </trkpt>
      <trkpt lat="45.21837" lon="5.72582">
        <ele>641.79998779297</ele>
        <time>2021-07-11T04:29:04.000Z</time>
      </trkpt>
      <trkpt lat="45.21839" lon="5.72584">
        <ele>641.79998779297</ele>
        <time>2021-07-11T04:29:06.000Z</time>
      </trkpt>
      <trkpt lat="45.21841" lon="5.7259">
        <ele>643.20001220703</ele>
        <time>2021-07-11T04:29:09.000Z</time>
      </trkpt>
      <trkpt lat="45.21842" lon="5.72594">
        <ele>643.40002441406</ele>
        <time>2021-07-11T04:29:12.000Z</time>
      </trkpt>
      <trkpt lat="45.21844" lon="5.72596">
        <ele>644.40002441406</ele>
        <time>2021-07-11T04:29:14.000Z</time>
      </trkpt>
      <trkpt lat="45.21846" lon="5.72601">
        <ele>645.20001220703</ele>
        <time>2021-07-11T04:29:17.000Z</time>
      </trkpt>
      <trkpt lat="45.21847" lon="5.72603">
        <ele>646</ele>
        <time>2021-07-11T04:29:19.000Z</time>
      </trkpt>
      <trkpt lat="45.21848" lon="5.72604">
        <ele>646.20001220703</ele>
        <time>2021-07-11T04:29:21.000Z</time>
      </trkpt>
      <trkpt lat="45.21848" lon="5.72606">
        <ele>647</ele>
        <time>2021-07-11T04:29:23.000Z</time>
      </trkpt>
      <trkpt lat="45.2185" lon="5.7261">
        <ele>648</ele>
        <time>2021-07-11T04:29:26.000Z</time>
      </trkpt>
      <trkpt lat="45.2185" lon="5.72612">
        <ele>648.20001220703</ele>
        <time>2021-07-11T04:29:27.000Z</time>
      </trkpt>
      <trkpt lat="45.21851" lon="5.72617">
        <ele>649</ele>
        <time>2021-07-11T04:29:30.000Z</time>
      </trkpt>
      <trkpt lat="45.21851" lon="5.72619">
        <ele>649.20001220703</ele>
        <time>2021-07-11T04:29:31.000Z</time>
      </trkpt>
      <trkpt lat="45.21853" lon="5.72622">
        <ele>650.20001220703</ele>
        <time>2021-07-11T04:29:34.000Z</time>
      </trkpt>
      <trkpt lat="45.21853" lon="5.72623">
        <ele>650.40002441406</ele>
        <time>2021-07-11T04:29:35.000Z</time>
      </trkpt>
      <trkpt lat="45.21854" lon="5.72626">
        <ele>651.59997558594</ele>
        <time>2021-07-11T04:29:38.000Z</time>
      </trkpt>
      <trkpt lat="45.21854" lon="5.72629">
        <ele>651.79998779297</ele>
        <time>2021-07-11T04:29:41.000Z</time>
      </trkpt>
      <trkpt lat="45.21854" lon="5.7263">
        <ele>652.59997558594</ele>
        <time>2021-07-11T04:29:42.000Z</time>
      </trkpt>
      <trkpt lat="45.21855" lon="5.72631">
        <ele>652.79998779297</ele>
        <time>2021-07-11T04:29:44.000Z</time>
      </trkpt>
      <trkpt lat="45.21856" lon="5.72636">
        <ele>654</ele>
        <time>2021-07-11T04:29:48.000Z</time>
      </trkpt>
      <trkpt lat="45.21857" lon="5.72637">
        <ele>654.40002441406</ele>
        <time>2021-07-11T04:29:49.000Z</time>
      </trkpt>
      <trkpt lat="45.21859" lon="5.7264">
        <ele>655.40002441406</ele>
        <time>2021-07-11T04:29:53.000Z</time>
      </trkpt>
      <trkpt lat="45.21859" lon="5.72641">
        <ele>655.59997558594</ele>
        <time>2021-07-11T04:29:54.000Z</time>
      </trkpt>
      <trkpt lat="45.2186" lon="5.72642">
        <ele>656.40002441406</ele>
        <time>2021-07-11T04:29:57.000Z</time>
      </trkpt>
      <trkpt lat="45.21861" lon="5.72643">
        <ele>656.79998779297</ele>
        <time>2021-07-11T04:29:59.000Z</time>
      </trkpt>
      <trkpt lat="45.21861" lon="5.72643">
        <ele>657.20001220703</ele>
        <time>2021-07-11T04:30:00.000Z</time>
      </trkpt>
      <trkpt lat="45.21862" lon="5.72644">
        <ele>657.59997558594</ele>
        <time>2021-07-11T04:30:03.000Z</time>
      </trkpt>
      <trkpt lat="45.21862" lon="5.72643">
        <ele>658.40002441406</ele>
        <time>2021-07-11T04:30:05.000Z</time>
      </trkpt>
      <trkpt lat="45.21862" lon="5.72643">
        <ele>658.79998779297</ele>
        <time>2021-07-11T04:30:06.000Z</time>
      </trkpt>
      <trkpt lat="45.21864" lon="5.72642">
        <ele>659.59997558594</ele>
        <time>2021-07-11T04:30:10.000Z</time>
      </trkpt>
      <trkpt lat="45.21865" lon="5.72641">
        <ele>659.79998779297</ele>
        <time>2021-07-11T04:30:11.000Z</time>
      </trkpt>
      <trkpt lat="45.21866" lon="5.72642">
        <ele>660.20001220703</ele>
        <time>2021-07-11T04:30:13.000Z</time>
      </trkpt>
      <trkpt lat="45.21867" lon="5.72642">
        <ele>661.40002441406</ele>
        <time>2021-07-11T04:30:15.000Z</time>
      </trkpt>
      <trkpt lat="45.21869" lon="5.7264">
        <ele>661.79998779297</ele>
        <time>2021-07-11T04:30:17.000Z</time>
      </trkpt>
      <trkpt lat="45.21871" lon="5.72639">
        <ele>662.59997558594</ele>
        <time>2021-07-11T04:30:21.000Z</time>
      </trkpt>
      <trkpt lat="45.21872" lon="5.72637">
        <ele>663.79998779297</ele>
        <time>2021-07-11T04:30:24.000Z</time>
      </trkpt>
      <trkpt lat="45.21873" lon="5.72636">
        <ele>664.20001220703</ele>
        <time>2021-07-11T04:30:25.000Z</time>
      </trkpt>
      <trkpt lat="45.21877" lon="5.72636">
        <ele>665.20001220703</ele>
        <time>2021-07-11T04:30:29.000Z</time>
      </trkpt>
      <trkpt lat="45.21877" lon="5.72635">
        <ele>665.20001220703</ele>
        <time>2021-07-11T04:30:30.000Z</time>
      </trkpt>
      <trkpt lat="45.21878" lon="5.72634">
        <ele>666.20001220703</ele>
        <time>2021-07-11T04:30:32.000Z</time>
      </trkpt>
      <trkpt lat="45.21882" lon="5.72632">
        <ele>667.20001220703</ele>
        <time>2021-07-11T04:30:36.000Z</time>
      </trkpt>
      <trkpt lat="45.21883" lon="5.72631">
        <ele>667.40002441406</ele>
        <time>2021-07-11T04:30:37.000Z</time>
      </trkpt>
      <trkpt lat="45.21885" lon="5.7263">
        <ele>668.59997558594</ele>
        <time>2021-07-11T04:30:40.000Z</time>
      </trkpt>
      <trkpt lat="45.21886" lon="5.72629">
        <ele>669.20001220703</ele>
        <time>2021-07-11T04:30:43.000Z</time>
      </trkpt>
      <trkpt lat="45.21887" lon="5.72629">
        <ele>669.79998779297</ele>
        <time>2021-07-11T04:30:44.000Z</time>
      </trkpt>
      <trkpt lat="45.21888" lon="5.7263">
        <ele>669.79998779297</ele>
        <time>2021-07-11T04:30:45.000Z</time>
      </trkpt>
      <trkpt lat="45.21891" lon="5.72629">
        <ele>670.59997558594</ele>
        <time>2021-07-11T04:30:48.000Z</time>
      </trkpt>
      <trkpt lat="45.21892" lon="5.72629">
        <ele>671.40002441406</ele>
        <time>2021-07-11T04:30:50.000Z</time>
      </trkpt>
      <trkpt lat="45.21893" lon="5.7263">
        <ele>672</ele>
        <time>2021-07-11T04:30:52.000Z</time>
      </trkpt>
      <trkpt lat="45.21895" lon="5.72631">
        <ele>672.59997558594</ele>
        <time>2021-07-11T04:30:55.000Z</time>
      </trkpt>
      <trkpt lat="45.21895" lon="5.72631">
        <ele>672.79998779297</ele>
        <time>2021-07-11T04:30:56.000Z</time>
      </trkpt>
      <trkpt lat="45.21896" lon="5.72633">
        <ele>673.20001220703</ele>
        <time>2021-07-11T04:30:58.000Z</time>
      </trkpt>
      <trkpt lat="45.21896" lon="5.72633">
        <ele>674</ele>
        <time>2021-07-11T04:30:59.000Z</time>
      </trkpt>
      <trkpt lat="45.21899" lon="5.72634">
        <ele>675.40002441406</ele>
        <time>2021-07-11T04:31:04.000Z</time>
      </trkpt>
      <trkpt lat="45.21899" lon="5.72634">
        <ele>676.59997558594</ele>
        <time>2021-07-11T04:31:07.000Z</time>
      </trkpt>
      <trkpt lat="45.21901" lon="5.72632">
        <ele>676.79998779297</ele>
        <time>2021-07-11T04:31:10.000Z</time>
      </trkpt>
      <trkpt lat="45.21904" lon="5.72636">
        <ele>677.79998779297</ele>
        <time>2021-07-11T04:31:14.000Z</time>
      </trkpt>
      <trkpt lat="45.21905" lon="5.72637">
        <ele>678.59997558594</ele>
        <time>2021-07-11T04:31:15.000Z</time>
      </trkpt>
      <trkpt lat="45.21906" lon="5.72639">
        <ele>679.20001220703</ele>
        <time>2021-07-11T04:31:19.000Z</time>
      </trkpt>
      <trkpt lat="45.21907" lon="5.7264">
        <ele>679.59997558594</ele>
        <time>2021-07-11T04:31:20.000Z</time>
      </trkpt>
      <trkpt lat="45.21907" lon="5.72643">
        <ele>680.59997558594</ele>
        <time>2021-07-11T04:31:24.000Z</time>
      </trkpt>
      <trkpt lat="45.21909" lon="5.72644">
        <ele>681.20001220703</ele>
        <time>2021-07-11T04:31:26.000Z</time>
      </trkpt>
      <trkpt lat="45.21909" lon="5.72645">
        <ele>681.40002441406</ele>
        <time>2021-07-11T04:31:27.000Z</time>
      </trkpt>
      <trkpt lat="45.2191" lon="5.72645">
        <ele>681.79998779297</ele>
        <time>2021-07-11T04:31:28.000Z</time>
      </trkpt>
      <trkpt lat="45.21911" lon="5.72647">
        <ele>682.40002441406</ele>
        <time>2021-07-11T04:31:31.000Z</time>
      </trkpt>
      <trkpt lat="45.21912" lon="5.72647">
        <ele>682.79998779297</ele>
        <time>2021-07-11T04:31:32.000Z</time>
      </trkpt>
      <trkpt lat="45.21913" lon="5.72649">
        <ele>683.79998779297</ele>
        <time>2021-07-11T04:31:35.000Z</time>
      </trkpt>
      <trkpt lat="45.21914" lon="5.72649">
        <ele>684</ele>
        <time>2021-07-11T04:31:36.000Z</time>
      </trkpt>
      <trkpt lat="45.21918" lon="5.72651">
        <ele>685</ele>
        <time>2021-07-11T04:31:41.000Z</time>
      </trkpt>
      <trkpt lat="45.2192" lon="5.7265">
        <ele>685.40002441406</ele>
        <time>2021-07-11T04:31:43.000Z</time>
      </trkpt>
      <trkpt lat="45.2192" lon="5.72651">
        <ele>686.20001220703</ele>
        <time>2021-07-11T04:31:45.000Z</time>
      </trkpt>
      <trkpt lat="45.21922" lon="5.72653">
        <ele>687.59997558594</ele>
        <time>2021-07-11T04:31:49.000Z</time>
      </trkpt>
      <trkpt lat="45.21923" lon="5.72654">
        <ele>687.59997558594</ele>
        <time>2021-07-11T04:31:50.000Z</time>
      </trkpt>
      <trkpt lat="45.21926" lon="5.72657">
        <ele>689.40002441406</ele>
        <time>2021-07-11T04:31:54.000Z</time>
      </trkpt>
      <trkpt lat="45.2193" lon="5.72659">
        <ele>689.59997558594</ele>
        <time>2021-07-11T04:31:56.000Z</time>
      </trkpt>
      <trkpt lat="45.21936" lon="5.72664">
        <ele>690.59997558594</ele>
        <time>2021-07-11T04:32:00.000Z</time>
      </trkpt>
      <trkpt lat="45.21937" lon="5.72666">
        <ele>690.59997558594</ele>
        <time>2021-07-11T04:32:02.000Z</time>
      </trkpt>
      <trkpt lat="45.21945" lon="5.72672">
        <ele>691.20001220703</ele>
        <time>2021-07-11T04:32:08.000Z</time>
      </trkpt>
      <trkpt lat="45.21948" lon="5.72673">
        <ele>691.40002441406</ele>
        <time>2021-07-11T04:32:11.000Z</time>
      </trkpt>
      <trkpt lat="45.21953" lon="5.72675">
        <ele>690.79998779297</ele>
        <time>2021-07-11T04:32:14.000Z</time>
      </trkpt>
      <trkpt lat="45.21957" lon="5.72676">
        <ele>690.20001220703</ele>
        <time>2021-07-11T04:32:18.000Z</time>
      </trkpt>
      <trkpt lat="45.21961" lon="5.72678">
        <ele>689.59997558594</ele>
        <time>2021-07-11T04:32:20.000Z</time>
      </trkpt>
      <trkpt lat="45.21963" lon="5.72679">
        <ele>689.59997558594</ele>
        <time>2021-07-11T04:32:22.000Z</time>
      </trkpt>
      <trkpt lat="45.21968" lon="5.72678">
        <ele>689.40002441406</ele>
        <time>2021-07-11T04:32:25.000Z</time>
      </trkpt>
      <trkpt lat="45.2197" lon="5.72678">
        <ele>689.20001220703</ele>
        <time>2021-07-11T04:32:26.000Z</time>
      </trkpt>
      <trkpt lat="45.21973" lon="5.72678">
        <ele>688.59997558594</ele>
        <time>2021-07-11T04:32:28.000Z</time>
      </trkpt>
      <trkpt lat="45.21974" lon="5.72678">
        <ele>688.59997558594</ele>
        <time>2021-07-11T04:32:29.000Z</time>
      </trkpt>
      <trkpt lat="45.21976" lon="5.72678">
        <ele>688.59997558594</ele>
        <time>2021-07-11T04:32:30.000Z</time>
      </trkpt>
      <trkpt lat="45.2198" lon="5.72681">
        <ele>688</ele>
        <time>2021-07-11T04:32:32.000Z</time>
      </trkpt>
      <trkpt lat="45.21982" lon="5.72684">
        <ele>687.59997558594</ele>
        <time>2021-07-11T04:32:34.000Z</time>
      </trkpt>
      <trkpt lat="45.21984" lon="5.72686">
        <ele>687.20001220703</ele>
        <time>2021-07-11T04:32:35.000Z</time>
      </trkpt>
      <trkpt lat="45.21988" lon="5.72689">
        <ele>686.59997558594</ele>
        <time>2021-07-11T04:32:37.000Z</time>
      </trkpt>
      <trkpt lat="45.21989" lon="5.72691">
        <ele>686.20001220703</ele>
        <time>2021-07-11T04:32:38.000Z</time>
      </trkpt>
      <trkpt lat="45.21989" lon="5.72693">
        <ele>685.79998779297</ele>
        <time>2021-07-11T04:32:39.000Z</time>
      </trkpt>
      <trkpt lat="45.2199" lon="5.72694">
        <ele>685.40002441406</ele>
        <time>2021-07-11T04:32:40.000Z</time>
      </trkpt>
      <trkpt lat="45.21991" lon="5.72695">
        <ele>685.20001220703</ele>
        <time>2021-07-11T04:32:41.000Z</time>
      </trkpt>
      <trkpt lat="45.21991" lon="5.72696">
        <ele>685.20001220703</ele>
        <time>2021-07-11T04:32:42.000Z</time>
      </trkpt>
      <trkpt lat="45.21992" lon="5.72697">
        <ele>684.79998779297</ele>
        <time>2021-07-11T04:32:43.000Z</time>
      </trkpt>
      <trkpt lat="45.21994" lon="5.72699">
        <ele>684</ele>
        <time>2021-07-11T04:32:44.000Z</time>
      </trkpt>
      <trkpt lat="45.21996" lon="5.72702">
        <ele>683.40002441406</ele>
        <time>2021-07-11T04:32:46.000Z</time>
      </trkpt>
      <trkpt lat="45.21996" lon="5.72704">
        <ele>682.79998779297</ele>
        <time>2021-07-11T04:32:47.000Z</time>
      </trkpt>
      <trkpt lat="45.21999" lon="5.72713">
        <ele>682</ele>
        <time>2021-07-11T04:32:51.000Z</time>
      </trkpt>
      <trkpt lat="45.22001" lon="5.72715">
        <ele>681.40002441406</ele>
        <time>2021-07-11T04:32:52.000Z</time>
      </trkpt>
      <trkpt lat="45.22008" lon="5.72716">
        <ele>680.40002441406</ele>
        <time>2021-07-11T04:32:55.000Z</time>
      </trkpt>
      <trkpt lat="45.22013" lon="5.72718">
        <ele>680.40002441406</ele>
        <time>2021-07-11T04:32:57.000Z</time>
      </trkpt>
      <trkpt lat="45.22014" lon="5.7272">
        <ele>680.40002441406</ele>
        <time>2021-07-11T04:32:58.000Z</time>
      </trkpt>
      <trkpt lat="45.22018" lon="5.72725">
        <ele>680.20001220703</ele>
        <time>2021-07-11T04:33:01.000Z</time>
      </trkpt>
      <trkpt lat="45.22019" lon="5.72726">
        <ele>679.79998779297</ele>
        <time>2021-07-11T04:33:02.000Z</time>
      </trkpt>
      <trkpt lat="45.22021" lon="5.72728">
        <ele>679</ele>
        <time>2021-07-11T04:33:03.000Z</time>
      </trkpt>
      <trkpt lat="45.22027" lon="5.72733">
        <ele>678.59997558594</ele>
        <time>2021-07-11T04:33:07.000Z</time>
      </trkpt>
      <trkpt lat="45.2203" lon="5.72736">
        <ele>678.20001220703</ele>
        <time>2021-07-11T04:33:09.000Z</time>
      </trkpt>
      <trkpt lat="45.22033" lon="5.72739">
        <ele>678.40002441406</ele>
        <time>2021-07-11T04:33:11.000Z</time>
      </trkpt>
      <trkpt lat="45.22035" lon="5.72741">
        <ele>678.79998779297</ele>
        <time>2021-07-11T04:33:12.000Z</time>
      </trkpt>
      <trkpt lat="45.2204" lon="5.72745">
        <ele>679</ele>
        <time>2021-07-11T04:33:15.000Z</time>
      </trkpt>
      <trkpt lat="45.22042" lon="5.72746">
        <ele>679</ele>
        <time>2021-07-11T04:33:16.000Z</time>
      </trkpt>
      <trkpt lat="45.22046" lon="5.72747">
        <ele>680.40002441406</ele>
        <time>2021-07-11T04:33:19.000Z</time>
      </trkpt>
      <trkpt lat="45.22047" lon="5.72747">
        <ele>680.59997558594</ele>
        <time>2021-07-11T04:33:20.000Z</time>
      </trkpt>
      <trkpt lat="45.22054" lon="5.72749">
        <ele>681.40002441406</ele>
        <time>2021-07-11T04:33:25.000Z</time>
      </trkpt>
      <trkpt lat="45.22056" lon="5.72749">
        <ele>681.59997558594</ele>
        <time>2021-07-11T04:33:26.000Z</time>
      </trkpt>
      <trkpt lat="45.22065" lon="5.7275">
        <ele>682.79998779297</ele>
        <time>2021-07-11T04:33:31.000Z</time>
      </trkpt>
      <trkpt lat="45.22073" lon="5.7275">
        <ele>683.40002441406</ele>
        <time>2021-07-11T04:33:35.000Z</time>
      </trkpt>
      <trkpt lat="45.22076" lon="5.72749">
        <ele>684.40002441406</ele>
        <time>2021-07-11T04:33:36.000Z</time>
      </trkpt>
      <trkpt lat="45.22085" lon="5.7275">
        <ele>685.20001220703</ele>
        <time>2021-07-11T04:33:40.000Z</time>
      </trkpt>
      <trkpt lat="45.22087" lon="5.7275">
        <ele>685.59997558594</ele>
        <time>2021-07-11T04:33:41.000Z</time>
      </trkpt>
      <trkpt lat="45.22093" lon="5.72756">
        <ele>686.79998779297</ele>
        <time>2021-07-11T04:33:44.000Z</time>
      </trkpt>
      <trkpt lat="45.22095" lon="5.72757">
        <ele>686.79998779297</ele>
        <time>2021-07-11T04:33:45.000Z</time>
      </trkpt>
      <trkpt lat="45.22101" lon="5.72759">
        <ele>686.79998779297</ele>
        <time>2021-07-11T04:33:48.000Z</time>
      </trkpt>
      <trkpt lat="45.22102" lon="5.7276">
        <ele>686.79998779297</ele>
        <time>2021-07-11T04:33:50.000Z</time>
      </trkpt>
      <trkpt lat="45.22105" lon="5.72762">
        <ele>686.59997558594</ele>
        <time>2021-07-11T04:33:52.000Z</time>
      </trkpt>
      <trkpt lat="45.22108" lon="5.72762">
        <ele>685.79998779297</ele>
        <time>2021-07-11T04:33:56.000Z</time>
      </trkpt>
      <trkpt lat="45.22112" lon="5.72762">
        <ele>685</ele>
        <time>2021-07-11T04:33:59.000Z</time>
      </trkpt>
      <trkpt lat="45.22116" lon="5.72763">
        <ele>684.79998779297</ele>
        <time>2021-07-11T04:34:02.000Z</time>
      </trkpt>
      <trkpt lat="45.22121" lon="5.72763">
        <ele>683.40002441406</ele>
        <time>2021-07-11T04:34:05.000Z</time>
      </trkpt>
      <trkpt lat="45.22123" lon="5.72767">
        <ele>682.59997558594</ele>
        <time>2021-07-11T04:34:07.000Z</time>
      </trkpt>
      <trkpt lat="45.22124" lon="5.72766">
        <ele>682.40002441406</ele>
        <time>2021-07-11T04:34:08.000Z</time>
      </trkpt>
      <trkpt lat="45.22126" lon="5.72766">
        <ele>682</ele>
        <time>2021-07-11T04:34:10.000Z</time>
      </trkpt>
      <trkpt lat="45.22128" lon="5.72763">
        <ele>681</ele>
        <time>2021-07-11T04:34:12.000Z</time>
      </trkpt>
      <trkpt lat="45.22129" lon="5.72762">
        <ele>680.79998779297</ele>
        <time>2021-07-11T04:34:13.000Z</time>
      </trkpt>
      <trkpt lat="45.22132" lon="5.72761">
        <ele>679.59997558594</ele>
        <time>2021-07-11T04:34:15.000Z</time>
      </trkpt>
      <trkpt lat="45.22137" lon="5.7276">
        <ele>679</ele>
        <time>2021-07-11T04:34:18.000Z</time>
      </trkpt>
      <trkpt lat="45.22138" lon="5.7276">
        <ele>677.79998779297</ele>
        <time>2021-07-11T04:34:19.000Z</time>
      </trkpt>
      <trkpt lat="45.22139" lon="5.72759">
        <ele>677.59997558594</ele>
        <time>2021-07-11T04:34:20.000Z</time>
      </trkpt>
      <trkpt lat="45.2214" lon="5.72759">
        <ele>677.40002441406</ele>
        <time>2021-07-11T04:34:21.000Z</time>
      </trkpt>
      <trkpt lat="45.22141" lon="5.72758">
        <ele>676.59997558594</ele>
        <time>2021-07-11T04:34:22.000Z</time>
      </trkpt>
      <trkpt lat="45.22144" lon="5.72757">
        <ele>675.40002441406</ele>
        <time>2021-07-11T04:34:25.000Z</time>
      </trkpt>
      <trkpt lat="45.22146" lon="5.72758">
        <ele>675.20001220703</ele>
        <time>2021-07-11T04:34:26.000Z</time>
      </trkpt>
      <trkpt lat="45.22148" lon="5.72758">
        <ele>674.40002441406</ele>
        <time>2021-07-11T04:34:28.000Z</time>
      </trkpt>
      <trkpt lat="45.22149" lon="5.72759">
        <ele>673.20001220703</ele>
        <time>2021-07-11T04:34:30.000Z</time>
      </trkpt>
      <trkpt lat="45.22151" lon="5.72758">
        <ele>673.20001220703</ele>
        <time>2021-07-11T04:34:31.000Z</time>
      </trkpt>
      <trkpt lat="45.22153" lon="5.72755">
        <ele>672</ele>
        <time>2021-07-11T04:34:33.000Z</time>
      </trkpt>
      <trkpt lat="45.22156" lon="5.72753">
        <ele>671.40002441406</ele>
        <time>2021-07-11T04:34:35.000Z</time>
      </trkpt>
      <trkpt lat="45.22158" lon="5.72749">
        <ele>671</ele>
        <time>2021-07-11T04:34:37.000Z</time>
      </trkpt>
      <trkpt lat="45.2216" lon="5.72745">
        <ele>670.59997558594</ele>
        <time>2021-07-11T04:34:39.000Z</time>
      </trkpt>
      <trkpt lat="45.22162" lon="5.7274">
        <ele>669</ele>
        <time>2021-07-11T04:34:41.000Z</time>
      </trkpt>
      <trkpt lat="45.22164" lon="5.72737">
        <ele>669</ele>
        <time>2021-07-11T04:34:42.000Z</time>
      </trkpt>
      <trkpt lat="45.22173" lon="5.72731">
        <ele>670</ele>
        <time>2021-07-11T04:34:48.000Z</time>
      </trkpt>
      <trkpt lat="45.22174" lon="5.72729">
        <ele>670.40002441406</ele>
        <time>2021-07-11T04:34:49.000Z</time>
      </trkpt>
      <trkpt lat="45.2218" lon="5.72723">
        <ele>671</ele>
        <time>2021-07-11T04:34:54.000Z</time>
      </trkpt>
      <trkpt lat="45.2218" lon="5.72721">
        <ele>671</ele>
        <time>2021-07-11T04:34:57.000Z</time>
      </trkpt>
      <trkpt lat="45.22181" lon="5.72722">
        <ele>671</ele>
        <time>2021-07-11T04:34:58.000Z</time>
      </trkpt>
      <trkpt lat="45.22182" lon="5.72721">
        <ele>671</ele>
        <time>2021-07-11T04:34:59.000Z</time>
      </trkpt>
      <trkpt lat="45.22184" lon="5.72718">
        <ele>672</ele>
        <time>2021-07-11T04:35:01.000Z</time>
      </trkpt>
      <trkpt lat="45.22186" lon="5.72716">
        <ele>672.20001220703</ele>
        <time>2021-07-11T04:35:02.000Z</time>
      </trkpt>
      <trkpt lat="45.22191" lon="5.72712">
        <ele>672.20001220703</ele>
        <time>2021-07-11T04:35:06.000Z</time>
      </trkpt>
      <trkpt lat="45.22196" lon="5.72713">
        <ele>672.40002441406</ele>
        <time>2021-07-11T04:35:08.000Z</time>
      </trkpt>
      <trkpt lat="45.22208" lon="5.72715">
        <ele>672.40002441406</ele>
        <time>2021-07-11T04:35:14.000Z</time>
      </trkpt>
      <trkpt lat="45.2221" lon="5.72715">
        <ele>672.20001220703</ele>
        <time>2021-07-11T04:35:15.000Z</time>
      </trkpt>
      <trkpt lat="45.22218" lon="5.72717">
        <ele>672.20001220703</ele>
        <time>2021-07-11T04:35:21.000Z</time>
      </trkpt>
      <trkpt lat="45.22223" lon="5.72719">
        <ele>671.79998779297</ele>
        <time>2021-07-11T04:35:24.000Z</time>
      </trkpt>
      <trkpt lat="45.22227" lon="5.72717">
        <ele>671.59997558594</ele>
        <time>2021-07-11T04:35:26.000Z</time>
      </trkpt>
      <trkpt lat="45.22229" lon="5.72716">
        <ele>671.59997558594</ele>
        <time>2021-07-11T04:35:27.000Z</time>
      </trkpt>
      <trkpt lat="45.22234" lon="5.72713">
        <ele>671.59997558594</ele>
        <time>2021-07-11T04:35:30.000Z</time>
      </trkpt>
      <trkpt lat="45.2224" lon="5.72713">
        <ele>672</ele>
        <time>2021-07-11T04:35:33.000Z</time>
      </trkpt>
      <trkpt lat="45.22242" lon="5.72714">
        <ele>672</ele>
        <time>2021-07-11T04:35:34.000Z</time>
      </trkpt>
      <trkpt lat="45.2225" lon="5.72719">
        <ele>672.79998779297</ele>
        <time>2021-07-11T04:35:39.000Z</time>
      </trkpt>
      <trkpt lat="45.22252" lon="5.72718">
        <ele>673.20001220703</ele>
        <time>2021-07-11T04:35:40.000Z</time>
      </trkpt>
      <trkpt lat="45.22261" lon="5.72718">
        <ele>673.20001220703</ele>
        <time>2021-07-11T04:35:43.000Z</time>
      </trkpt>
      <trkpt lat="45.22265" lon="5.72723">
        <ele>673</ele>
        <time>2021-07-11T04:35:45.000Z</time>
      </trkpt>
      <trkpt lat="45.22274" lon="5.72729">
        <ele>674</ele>
        <time>2021-07-11T04:35:50.000Z</time>
      </trkpt>
      <trkpt lat="45.22277" lon="5.72731">
        <ele>674.20001220703</ele>
        <time>2021-07-11T04:35:52.000Z</time>
      </trkpt>
      <trkpt lat="45.22279" lon="5.72731">
        <ele>674.59997558594</ele>
        <time>2021-07-11T04:35:53.000Z</time>
      </trkpt>
      <trkpt lat="45.22284" lon="5.72732">
        <ele>675</ele>
        <time>2021-07-11T04:35:55.000Z</time>
      </trkpt>
      <trkpt lat="45.22289" lon="5.72733">
        <ele>675</ele>
        <time>2021-07-11T04:35:58.000Z</time>
      </trkpt>
      <trkpt lat="45.2229" lon="5.72733">
        <ele>674.59997558594</ele>
        <time>2021-07-11T04:35:59.000Z</time>
      </trkpt>
      <trkpt lat="45.22291" lon="5.72731">
        <ele>674.20001220703</ele>
        <time>2021-07-11T04:36:00.000Z</time>
      </trkpt>
      <trkpt lat="45.22295" lon="5.72729">
        <ele>673</ele>
        <time>2021-07-11T04:36:03.000Z</time>
      </trkpt>
      <trkpt lat="45.22299" lon="5.72728">
        <ele>672.59997558594</ele>
        <time>2021-07-11T04:36:05.000Z</time>
      </trkpt>
      <trkpt lat="45.223" lon="5.7273">
        <ele>672.20001220703</ele>
        <time>2021-07-11T04:36:06.000Z</time>
      </trkpt>
      <trkpt lat="45.22301" lon="5.72731">
        <ele>671.59997558594</ele>
        <time>2021-07-11T04:36:07.000Z</time>
      </trkpt>
      <trkpt lat="45.22302" lon="5.72732">
        <ele>671.59997558594</ele>
        <time>2021-07-11T04:36:08.000Z</time>
      </trkpt>
      <trkpt lat="45.22305" lon="5.72733">
        <ele>671.59997558594</ele>
        <time>2021-07-11T04:36:10.000Z</time>
      </trkpt>
      <trkpt lat="45.22309" lon="5.72733">
        <ele>671.40002441406</ele>
        <time>2021-07-11T04:36:13.000Z</time>
      </trkpt>
      <trkpt lat="45.2231" lon="5.72734">
        <ele>671.20001220703</ele>
        <time>2021-07-11T04:36:14.000Z</time>
      </trkpt>
      <trkpt lat="45.22311" lon="5.72734">
        <ele>671</ele>
        <time>2021-07-11T04:36:15.000Z</time>
      </trkpt>
      <trkpt lat="45.22312" lon="5.72734">
        <ele>670.79998779297</ele>
        <time>2021-07-11T04:36:16.000Z</time>
      </trkpt>
      <trkpt lat="45.22314" lon="5.72734">
        <ele>670.20001220703</ele>
        <time>2021-07-11T04:36:17.000Z</time>
      </trkpt>
      <trkpt lat="45.22323" lon="5.7273">
        <ele>669</ele>
        <time>2021-07-11T04:36:22.000Z</time>
      </trkpt>
      <trkpt lat="45.22331" lon="5.7273">
        <ele>668.79998779297</ele>
        <time>2021-07-11T04:36:26.000Z</time>
      </trkpt>
      <trkpt lat="45.22336" lon="5.72731">
        <ele>668.79998779297</ele>
        <time>2021-07-11T04:36:28.000Z</time>
      </trkpt>
      <trkpt lat="45.22338" lon="5.72731">
        <ele>668.79998779297</ele>
        <time>2021-07-11T04:36:29.000Z</time>
      </trkpt>
      <trkpt lat="45.22342" lon="5.7273">
        <ele>668.79998779297</ele>
        <time>2021-07-11T04:36:31.000Z</time>
      </trkpt>
      <trkpt lat="45.22346" lon="5.7273">
        <ele>668.40002441406</ele>
        <time>2021-07-11T04:36:33.000Z</time>
      </trkpt>
      <trkpt lat="45.22347" lon="5.72731">
        <ele>668.59997558594</ele>
        <time>2021-07-11T04:36:34.000Z</time>
      </trkpt>
      <trkpt lat="45.22351" lon="5.72732">
        <ele>668.40002441406</ele>
        <time>2021-07-11T04:36:36.000Z</time>
      </trkpt>
      <trkpt lat="45.22356" lon="5.72732">
        <ele>668.40002441406</ele>
        <time>2021-07-11T04:36:38.000Z</time>
      </trkpt>
      <trkpt lat="45.22364" lon="5.72732">
        <ele>669</ele>
        <time>2021-07-11T04:36:41.000Z</time>
      </trkpt>
      <trkpt lat="45.22367" lon="5.72733">
        <ele>669.40002441406</ele>
        <time>2021-07-11T04:36:43.000Z</time>
      </trkpt>
      <trkpt lat="45.22371" lon="5.72734">
        <ele>669.40002441406</ele>
        <time>2021-07-11T04:36:45.000Z</time>
      </trkpt>
      <trkpt lat="45.2238" lon="5.72735">
        <ele>669.40002441406</ele>
        <time>2021-07-11T04:36:49.000Z</time>
      </trkpt>
      <trkpt lat="45.22391" lon="5.72735">
        <ele>668</ele>
        <time>2021-07-11T04:36:56.000Z</time>
      </trkpt>
      <trkpt lat="45.22392" lon="5.72735">
        <ele>667.79998779297</ele>
        <time>2021-07-11T04:36:57.000Z</time>
      </trkpt>
      <trkpt lat="45.22396" lon="5.72734">
        <ele>666.79998779297</ele>
        <time>2021-07-11T04:37:00.000Z</time>
      </trkpt>
      <trkpt lat="45.22397" lon="5.72734">
        <ele>666.40002441406</ele>
        <time>2021-07-11T04:37:01.000Z</time>
      </trkpt>
      <trkpt lat="45.22399" lon="5.72734">
        <ele>666.40002441406</ele>
        <time>2021-07-11T04:37:02.000Z</time>
      </trkpt>
      <trkpt lat="45.22402" lon="5.72735">
        <ele>664.79998779297</ele>
        <time>2021-07-11T04:37:04.000Z</time>
      </trkpt>
      <trkpt lat="45.22403" lon="5.72734">
        <ele>664.40002441406</ele>
        <time>2021-07-11T04:37:05.000Z</time>
      </trkpt>
      <trkpt lat="45.22407" lon="5.72733">
        <ele>663.79998779297</ele>
        <time>2021-07-11T04:37:07.000Z</time>
      </trkpt>
      <trkpt lat="45.22412" lon="5.7273">
        <ele>662.40002441406</ele>
        <time>2021-07-11T04:37:10.000Z</time>
      </trkpt>
      <trkpt lat="45.22417" lon="5.7273">
        <ele>661.59997558594</ele>
        <time>2021-07-11T04:37:13.000Z</time>
      </trkpt>
      <trkpt lat="45.22419" lon="5.72731">
        <ele>661.20001220703</ele>
        <time>2021-07-11T04:37:14.000Z</time>
      </trkpt>
      <trkpt lat="45.2242" lon="5.7273">
        <ele>660.79998779297</ele>
        <time>2021-07-11T04:37:15.000Z</time>
      </trkpt>
      <trkpt lat="45.22422" lon="5.7273">
        <ele>660.59997558594</ele>
        <time>2021-07-11T04:37:16.000Z</time>
      </trkpt>
      <trkpt lat="45.22432" lon="5.72732">
        <ele>659.79998779297</ele>
        <time>2021-07-11T04:37:21.000Z</time>
      </trkpt>
      <trkpt lat="45.22434" lon="5.72732">
        <ele>660.40002441406</ele>
        <time>2021-07-11T04:37:22.000Z</time>
      </trkpt>
      <trkpt lat="45.22436" lon="5.72733">
        <ele>659.79998779297</ele>
        <time>2021-07-11T04:37:23.000Z</time>
      </trkpt>
      <trkpt lat="45.22439" lon="5.72734">
        <ele>659.79998779297</ele>
        <time>2021-07-11T04:37:25.000Z</time>
      </trkpt>
      <trkpt lat="45.22442" lon="5.72735">
        <ele>659.59997558594</ele>
        <time>2021-07-11T04:37:27.000Z</time>
      </trkpt>
      <trkpt lat="45.22445" lon="5.72736">
        <ele>659.59997558594</ele>
        <time>2021-07-11T04:37:29.000Z</time>
      </trkpt>
      <trkpt lat="45.22451" lon="5.72736">
        <ele>659.59997558594</ele>
        <time>2021-07-11T04:37:32.000Z</time>
      </trkpt>
      <trkpt lat="45.22453" lon="5.72737">
        <ele>659.59997558594</ele>
        <time>2021-07-11T04:37:33.000Z</time>
      </trkpt>
      <trkpt lat="45.22456" lon="5.72739">
        <ele>660</ele>
        <time>2021-07-11T04:37:35.000Z</time>
      </trkpt>
      <trkpt lat="45.22459" lon="5.72741">
        <ele>660.59997558594</ele>
        <time>2021-07-11T04:37:37.000Z</time>
      </trkpt>
      <trkpt lat="45.22461" lon="5.72743">
        <ele>661.40002441406</ele>
        <time>2021-07-11T04:37:39.000Z</time>
      </trkpt>
      <trkpt lat="45.22463" lon="5.72749">
        <ele>661.79998779297</ele>
        <time>2021-07-11T04:37:43.000Z</time>
      </trkpt>
      <trkpt lat="45.22465" lon="5.7275">
        <ele>661.79998779297</ele>
        <time>2021-07-11T04:37:44.000Z</time>
      </trkpt>
      <trkpt lat="45.22465" lon="5.72751">
        <ele>661.79998779297</ele>
        <time>2021-07-11T04:37:45.000Z</time>
      </trkpt>
      <trkpt lat="45.22469" lon="5.7275">
        <ele>661.79998779297</ele>
        <time>2021-07-11T04:37:48.000Z</time>
      </trkpt>
      <trkpt lat="45.22471" lon="5.7275">
        <ele>661.79998779297</ele>
        <time>2021-07-11T04:37:49.000Z</time>
      </trkpt>
      <trkpt lat="45.22472" lon="5.72751">
        <ele>661.79998779297</ele>
        <time>2021-07-11T04:37:50.000Z</time>
      </trkpt>
      <trkpt lat="45.22478" lon="5.7275">
        <ele>661.40002441406</ele>
        <time>2021-07-11T04:37:54.000Z</time>
      </trkpt>
      <trkpt lat="45.22481" lon="5.72747">
        <ele>661</ele>
        <time>2021-07-11T04:37:56.000Z</time>
      </trkpt>
      <trkpt lat="45.22486" lon="5.72743">
        <ele>660.79998779297</ele>
        <time>2021-07-11T04:38:00.000Z</time>
      </trkpt>
      <trkpt lat="45.22487" lon="5.72743">
        <ele>661</ele>
        <time>2021-07-11T04:38:01.000Z</time>
      </trkpt>
      <trkpt lat="45.22493" lon="5.72739">
        <ele>661</ele>
        <time>2021-07-11T04:38:04.000Z</time>
      </trkpt>
      <trkpt lat="45.22495" lon="5.72736">
        <ele>661</ele>
        <time>2021-07-11T04:38:05.000Z</time>
      </trkpt>
      <trkpt lat="45.22497" lon="5.72733">
        <ele>660.79998779297</ele>
        <time>2021-07-11T04:38:06.000Z</time>
      </trkpt>
      <trkpt lat="45.225" lon="5.72731">
        <ele>660.59997558594</ele>
        <time>2021-07-11T04:38:08.000Z</time>
      </trkpt>
      <trkpt lat="45.22502" lon="5.72733">
        <ele>660.59997558594</ele>
        <time>2021-07-11T04:38:10.000Z</time>
      </trkpt>
      <trkpt lat="45.22503" lon="5.72736">
        <ele>660.59997558594</ele>
        <time>2021-07-11T04:38:11.000Z</time>
      </trkpt>
      <trkpt lat="45.22504" lon="5.7274">
        <ele>661</ele>
        <time>2021-07-11T04:38:14.000Z</time>
      </trkpt>
      <trkpt lat="45.22504" lon="5.7274">
        <ele>661</ele>
        <time>2021-07-11T04:38:15.000Z</time>
      </trkpt>
      <trkpt lat="45.22504" lon="5.72744">
        <ele>662</ele>
        <time>2021-07-11T04:38:19.000Z</time>
      </trkpt>
      <trkpt lat="45.22504" lon="5.72746">
        <ele>663</ele>
        <time>2021-07-11T04:38:21.000Z</time>
      </trkpt>
      <trkpt lat="45.22504" lon="5.72749">
        <ele>663.40002441406</ele>
        <time>2021-07-11T04:38:23.000Z</time>
      </trkpt>
      <trkpt lat="45.22506" lon="5.7275">
        <ele>663.79998779297</ele>
        <time>2021-07-11T04:38:25.000Z</time>
      </trkpt>
      <trkpt lat="45.22506" lon="5.72751">
        <ele>664.20001220703</ele>
        <time>2021-07-11T04:38:26.000Z</time>
      </trkpt>
      <trkpt lat="45.22505" lon="5.72759">
        <ele>665</ele>
        <time>2021-07-11T04:38:29.000Z</time>
      </trkpt>
      <trkpt lat="45.22505" lon="5.72764">
        <ele>665.79998779297</ele>
        <time>2021-07-11T04:38:31.000Z</time>
      </trkpt>
      <trkpt lat="45.22507" lon="5.72766">
        <ele>666</ele>
        <time>2021-07-11T04:38:33.000Z</time>
      </trkpt>
      <trkpt lat="45.2251" lon="5.72767">
        <ele>666.40002441406</ele>
        <time>2021-07-11T04:38:35.000Z</time>
      </trkpt>
      <trkpt lat="45.22511" lon="5.72769">
        <ele>667</ele>
        <time>2021-07-11T04:38:36.000Z</time>
      </trkpt>
      <trkpt lat="45.22511" lon="5.72773">
        <ele>667.40002441406</ele>
        <time>2021-07-11T04:38:38.000Z</time>
      </trkpt>
      <trkpt lat="45.22511" lon="5.72774">
        <ele>667.40002441406</ele>
        <time>2021-07-11T04:38:39.000Z</time>
      </trkpt>
      <trkpt lat="45.22511" lon="5.72777">
        <ele>668</ele>
        <time>2021-07-11T04:38:41.000Z</time>
      </trkpt>
      <trkpt lat="45.22511" lon="5.72778">
        <ele>668.40002441406</ele>
        <time>2021-07-11T04:38:43.000Z</time>
      </trkpt>
      <trkpt lat="45.22512" lon="5.7278">
        <ele>668.59997558594</ele>
        <time>2021-07-11T04:38:44.000Z</time>
      </trkpt>
      <trkpt lat="45.2251" lon="5.72784">
        <ele>668.79998779297</ele>
        <time>2021-07-11T04:38:46.000Z</time>
      </trkpt>
      <trkpt lat="45.22509" lon="5.72785">
        <ele>669.40002441406</ele>
        <time>2021-07-11T04:38:47.000Z</time>
      </trkpt>
      <trkpt lat="45.22509" lon="5.72788">
        <ele>669.79998779297</ele>
        <time>2021-07-11T04:38:49.000Z</time>
      </trkpt>
      <trkpt lat="45.2251" lon="5.72791">
        <ele>670.40002441406</ele>
        <time>2021-07-11T04:38:52.000Z</time>
      </trkpt>
      <trkpt lat="45.2251" lon="5.72791">
        <ele>670.79998779297</ele>
        <time>2021-07-11T04:38:53.000Z</time>
      </trkpt>
      <trkpt lat="45.22511" lon="5.72793">
        <ele>671.40002441406</ele>
        <time>2021-07-11T04:38:54.000Z</time>
      </trkpt>
      <trkpt lat="45.22512" lon="5.72795">
        <ele>671.79998779297</ele>
        <time>2021-07-11T04:38:55.000Z</time>
      </trkpt>
      <trkpt lat="45.22512" lon="5.72798">
        <ele>672.20001220703</ele>
        <time>2021-07-11T04:38:57.000Z</time>
      </trkpt>
      <trkpt lat="45.22514" lon="5.72804">
        <ele>672.79998779297</ele>
        <time>2021-07-11T04:39:00.000Z</time>
      </trkpt>
      <trkpt lat="45.22514" lon="5.72808">
        <ele>673.40002441406</ele>
        <time>2021-07-11T04:39:02.000Z</time>
      </trkpt>
      <trkpt lat="45.22513" lon="5.7281">
        <ele>673.59997558594</ele>
        <time>2021-07-11T04:39:03.000Z</time>
      </trkpt>
      <trkpt lat="45.22512" lon="5.72814">
        <ele>674.20001220703</ele>
        <time>2021-07-11T04:39:06.000Z</time>
      </trkpt>
      <trkpt lat="45.22511" lon="5.72816">
        <ele>674.59997558594</ele>
        <time>2021-07-11T04:39:07.000Z</time>
      </trkpt>
      <trkpt lat="45.2251" lon="5.72818">
        <ele>675</ele>
        <time>2021-07-11T04:39:09.000Z</time>
      </trkpt>
      <trkpt lat="45.22509" lon="5.72823">
        <ele>675.40002441406</ele>
        <time>2021-07-11T04:39:12.000Z</time>
      </trkpt>
      <trkpt lat="45.2251" lon="5.72827">
        <ele>676.20001220703</ele>
        <time>2021-07-11T04:39:14.000Z</time>
      </trkpt>
      <trkpt lat="45.22509" lon="5.72829">
        <ele>676.20001220703</ele>
        <time>2021-07-11T04:39:15.000Z</time>
      </trkpt>
      <trkpt lat="45.2251" lon="5.7283">
        <ele>676.59997558594</ele>
        <time>2021-07-11T04:39:16.000Z</time>
      </trkpt>
      <trkpt lat="45.2251" lon="5.72831">
        <ele>677</ele>
        <time>2021-07-11T04:39:17.000Z</time>
      </trkpt>
      <trkpt lat="45.2251" lon="5.72832">
        <ele>677</ele>
        <time>2021-07-11T04:39:18.000Z</time>
      </trkpt>
      <trkpt lat="45.22511" lon="5.72833">
        <ele>677.59997558594</ele>
        <time>2021-07-11T04:39:20.000Z</time>
      </trkpt>
      <trkpt lat="45.22511" lon="5.72833">
        <ele>678</ele>
        <time>2021-07-11T04:39:21.000Z</time>
      </trkpt>
      <trkpt lat="45.22512" lon="5.72833">
        <ele>678.20001220703</ele>
        <time>2021-07-11T04:39:23.000Z</time>
      </trkpt>
      <trkpt lat="45.22513" lon="5.72834">
        <ele>678.59997558594</ele>
        <time>2021-07-11T04:39:24.000Z</time>
      </trkpt>
      <trkpt lat="45.22514" lon="5.72836">
        <ele>678.59997558594</ele>
        <time>2021-07-11T04:39:26.000Z</time>
      </trkpt>
      <trkpt lat="45.22513" lon="5.72837">
        <ele>679.20001220703</ele>
        <time>2021-07-11T04:39:27.000Z</time>
      </trkpt>
      <trkpt lat="45.22513" lon="5.72838">
        <ele>679.59997558594</ele>
        <time>2021-07-11T04:39:28.000Z</time>
      </trkpt>
      <trkpt lat="45.22514" lon="5.72838">
        <ele>679.79998779297</ele>
        <time>2021-07-11T04:39:29.000Z</time>
      </trkpt>
      <trkpt lat="45.22514" lon="5.72839">
        <ele>679.79998779297</ele>
        <time>2021-07-11T04:39:30.000Z</time>
      </trkpt>
      <trkpt lat="45.22514" lon="5.72841">
        <ele>680.20001220703</ele>
        <time>2021-07-11T04:39:31.000Z</time>
      </trkpt>
      <trkpt lat="45.22512" lon="5.72845">
        <ele>680.79998779297</ele>
        <time>2021-07-11T04:39:34.000Z</time>
      </trkpt>
      <trkpt lat="45.22511" lon="5.72848">
        <ele>681.79998779297</ele>
        <time>2021-07-11T04:39:37.000Z</time>
      </trkpt>
      <trkpt lat="45.2251" lon="5.72852">
        <ele>682</ele>
        <time>2021-07-11T04:39:39.000Z</time>
      </trkpt>
      <trkpt lat="45.22509" lon="5.72856">
        <ele>683</ele>
        <time>2021-07-11T04:39:42.000Z</time>
      </trkpt>
      <trkpt lat="45.22509" lon="5.72858">
        <ele>683.20001220703</ele>
        <time>2021-07-11T04:39:43.000Z</time>
      </trkpt>
      <trkpt lat="45.22509" lon="5.72859">
        <ele>683.40002441406</ele>
        <time>2021-07-11T04:39:44.000Z</time>
      </trkpt>
      <trkpt lat="45.2251" lon="5.72862">
        <ele>683.59997558594</ele>
        <time>2021-07-11T04:39:46.000Z</time>
      </trkpt>
      <trkpt lat="45.2251" lon="5.72864">
        <ele>683.79998779297</ele>
        <time>2021-07-11T04:39:47.000Z</time>
      </trkpt>
      <trkpt lat="45.2251" lon="5.72866">
        <ele>684.40002441406</ele>
        <time>2021-07-11T04:39:48.000Z</time>
      </trkpt>
      <trkpt lat="45.22511" lon="5.72869">
        <ele>684.79998779297</ele>
        <time>2021-07-11T04:39:50.000Z</time>
      </trkpt>
      <trkpt lat="45.22512" lon="5.7287">
        <ele>685.40002441406</ele>
        <time>2021-07-11T04:39:52.000Z</time>
      </trkpt>
      <trkpt lat="45.22512" lon="5.72871">
        <ele>685.59997558594</ele>
        <time>2021-07-11T04:39:53.000Z</time>
      </trkpt>
      <trkpt lat="45.22512" lon="5.72873">
        <ele>686</ele>
        <time>2021-07-11T04:39:55.000Z</time>
      </trkpt>
      <trkpt lat="45.22512" lon="5.72873">
        <ele>686.59997558594</ele>
        <time>2021-07-11T04:39:56.000Z</time>
      </trkpt>
      <trkpt lat="45.22513" lon="5.72874">
        <ele>687.20001220703</ele>
        <time>2021-07-11T04:39:58.000Z</time>
      </trkpt>
      <trkpt lat="45.22514" lon="5.72875">
        <ele>687.59997558594</ele>
        <time>2021-07-11T04:40:00.000Z</time>
      </trkpt>
      <trkpt lat="45.22514" lon="5.72875">
        <ele>687.79998779297</ele>
        <time>2021-07-11T04:40:01.000Z</time>
      </trkpt>
      <trkpt lat="45.22514" lon="5.72876">
        <ele>687.79998779297</ele>
        <time>2021-07-11T04:40:02.000Z</time>
      </trkpt>
      <trkpt lat="45.22515" lon="5.72877">
        <ele>688.59997558594</ele>
        <time>2021-07-11T04:40:04.000Z</time>
      </trkpt>
      <trkpt lat="45.22517" lon="5.72878">
        <ele>689.40002441406</ele>
        <time>2021-07-11T04:40:06.000Z</time>
      </trkpt>
      <trkpt lat="45.22519" lon="5.72879">
        <ele>689.59997558594</ele>
        <time>2021-07-11T04:40:08.000Z</time>
      </trkpt>
      <trkpt lat="45.22518" lon="5.72877">
        <ele>690</ele>
        <time>2021-07-11T04:40:10.000Z</time>
      </trkpt>
      <trkpt lat="45.22519" lon="5.72877">
        <ele>690.59997558594</ele>
        <time>2021-07-11T04:40:12.000Z</time>
      </trkpt>
      <trkpt lat="45.2252" lon="5.72878">
        <ele>690.79998779297</ele>
        <time>2021-07-11T04:40:13.000Z</time>
      </trkpt>
      <trkpt lat="45.2252" lon="5.72879">
        <ele>691.20001220703</ele>
        <time>2021-07-11T04:40:15.000Z</time>
      </trkpt>
      <trkpt lat="45.22519" lon="5.7288">
        <ele>691.79998779297</ele>
        <time>2021-07-11T04:40:17.000Z</time>
      </trkpt>
      <trkpt lat="45.22519" lon="5.72881">
        <ele>691.79998779297</ele>
        <time>2021-07-11T04:40:18.000Z</time>
      </trkpt>
      <trkpt lat="45.2252" lon="5.72881">
        <ele>692.59997558594</ele>
        <time>2021-07-11T04:40:20.000Z</time>
      </trkpt>
      <trkpt lat="45.22522" lon="5.72882">
        <ele>692.79998779297</ele>
        <time>2021-07-11T04:40:22.000Z</time>
      </trkpt>
      <trkpt lat="45.22523" lon="5.72882">
        <ele>693</ele>
        <time>2021-07-11T04:40:23.000Z</time>
      </trkpt>
      <trkpt lat="45.22523" lon="5.72881">
        <ele>693.20001220703</ele>
        <time>2021-07-11T04:40:24.000Z</time>
      </trkpt>
      <trkpt lat="45.22525" lon="5.72881">
        <ele>694</ele>
        <time>2021-07-11T04:40:26.000Z</time>
      </trkpt>
      <trkpt lat="45.22527" lon="5.72882">
        <ele>694.59997558594</ele>
        <time>2021-07-11T04:40:30.000Z</time>
      </trkpt>
      <trkpt lat="45.22528" lon="5.72882">
        <ele>694.59997558594</ele>
        <time>2021-07-11T04:40:31.000Z</time>
      </trkpt>
      <trkpt lat="45.22528" lon="5.72882">
        <ele>694.79998779297</ele>
        <time>2021-07-11T04:40:32.000Z</time>
      </trkpt>
      <trkpt lat="45.22529" lon="5.72881">
        <ele>695.59997558594</ele>
        <time>2021-07-11T04:40:34.000Z</time>
      </trkpt>
      <trkpt lat="45.2253" lon="5.72881">
        <ele>695.79998779297</ele>
        <time>2021-07-11T04:40:36.000Z</time>
      </trkpt>
      <trkpt lat="45.22533" lon="5.72879">
        <ele>697.20001220703</ele>
        <time>2021-07-11T04:40:40.000Z</time>
      </trkpt>
      <trkpt lat="45.22537" lon="5.72879">
        <ele>697.79998779297</ele>
        <time>2021-07-11T04:40:44.000Z</time>
      </trkpt>
      <trkpt lat="45.2254" lon="5.72879">
        <ele>698.40002441406</ele>
        <time>2021-07-11T04:40:46.000Z</time>
      </trkpt>
      <trkpt lat="45.22541" lon="5.72879">
        <ele>699</ele>
        <time>2021-07-11T04:40:47.000Z</time>
      </trkpt>
      <trkpt lat="45.22543" lon="5.72879">
        <ele>699.20001220703</ele>
        <time>2021-07-11T04:40:49.000Z</time>
      </trkpt>
      <trkpt lat="45.22544" lon="5.72879">
        <ele>699.59997558594</ele>
        <time>2021-07-11T04:40:51.000Z</time>
      </trkpt>
      <trkpt lat="45.22545" lon="5.72878">
        <ele>700.59997558594</ele>
        <time>2021-07-11T04:40:54.000Z</time>
      </trkpt>
      <trkpt lat="45.22546" lon="5.72878">
        <ele>700.79998779297</ele>
        <time>2021-07-11T04:40:55.000Z</time>
      </trkpt>
      <trkpt lat="45.22548" lon="5.72878">
        <ele>701.20001220703</ele>
        <time>2021-07-11T04:40:57.000Z</time>
      </trkpt>
      <trkpt lat="45.22552" lon="5.72877">
        <ele>701.79998779297</ele>
        <time>2021-07-11T04:41:00.000Z</time>
      </trkpt>
      <trkpt lat="45.22555" lon="5.72877">
        <ele>703</ele>
        <time>2021-07-11T04:41:04.000Z</time>
      </trkpt>
      <trkpt lat="45.22562" lon="5.72875">
        <ele>704.79998779297</ele>
        <time>2021-07-11T04:41:11.000Z</time>
      </trkpt>
      <trkpt lat="45.22568" lon="5.72879">
        <ele>706</ele>
        <time>2021-07-11T04:41:16.000Z</time>
      </trkpt>
      <trkpt lat="45.2257" lon="5.72881">
        <ele>706.59997558594</ele>
        <time>2021-07-11T04:41:19.000Z</time>
      </trkpt>
      <trkpt lat="45.22572" lon="5.72881">
        <ele>707.40002441406</ele>
        <time>2021-07-11T04:41:21.000Z</time>
      </trkpt>
      <trkpt lat="45.22577" lon="5.72883">
        <ele>708.40002441406</ele>
        <time>2021-07-11T04:41:25.000Z</time>
      </trkpt>
      <trkpt lat="45.22578" lon="5.72883">
        <ele>708.40002441406</ele>
        <time>2021-07-11T04:41:26.000Z</time>
      </trkpt>
      <trkpt lat="45.22578" lon="5.72884">
        <ele>708.79998779297</ele>
        <time>2021-07-11T04:41:27.000Z</time>
      </trkpt>
      <trkpt lat="45.2258" lon="5.72886">
        <ele>709.79998779297</ele>
        <time>2021-07-11T04:41:30.000Z</time>
      </trkpt>
      <trkpt lat="45.22582" lon="5.72887">
        <ele>709.79998779297</ele>
        <time>2021-07-11T04:41:31.000Z</time>
      </trkpt>
      <trkpt lat="45.22584" lon="5.72888">
        <ele>710.79998779297</ele>
        <time>2021-07-11T04:41:33.000Z</time>
      </trkpt>
      <trkpt lat="45.22588" lon="5.72891">
        <ele>711.40002441406</ele>
        <time>2021-07-11T04:41:36.000Z</time>
      </trkpt>
      <trkpt lat="45.2259" lon="5.72892">
        <ele>712.20001220703</ele>
        <time>2021-07-11T04:41:38.000Z</time>
      </trkpt>
      <trkpt lat="45.22591" lon="5.72893">
        <ele>712.59997558594</ele>
        <time>2021-07-11T04:41:40.000Z</time>
      </trkpt>
      <trkpt lat="45.22593" lon="5.72895">
        <ele>713.79998779297</ele>
        <time>2021-07-11T04:41:43.000Z</time>
      </trkpt>
      <trkpt lat="45.22596" lon="5.72896">
        <ele>714.59997558594</ele>
        <time>2021-07-11T04:41:46.000Z</time>
      </trkpt>
      <trkpt lat="45.22595" lon="5.72897">
        <ele>715</ele>
        <time>2021-07-11T04:41:47.000Z</time>
      </trkpt>
      <trkpt lat="45.22597" lon="5.72899">
        <ele>715.40002441406</ele>
        <time>2021-07-11T04:41:49.000Z</time>
      </trkpt>
      <trkpt lat="45.22598" lon="5.72901">
        <ele>716.40002441406</ele>
        <time>2021-07-11T04:41:51.000Z</time>
      </trkpt>
      <trkpt lat="45.22601" lon="5.72903">
        <ele>717.20001220703</ele>
        <time>2021-07-11T04:41:54.000Z</time>
      </trkpt>
      <trkpt lat="45.22602" lon="5.72905">
        <ele>717.79998779297</ele>
        <time>2021-07-11T04:41:55.000Z</time>
      </trkpt>
      <trkpt lat="45.22602" lon="5.72906">
        <ele>717.79998779297</ele>
        <time>2021-07-11T04:41:56.000Z</time>
      </trkpt>
      <trkpt lat="45.22605" lon="5.72911">
        <ele>718.20001220703</ele>
        <time>2021-07-11T04:41:58.000Z</time>
      </trkpt>
      <trkpt lat="45.22606" lon="5.72912">
        <ele>719.20001220703</ele>
        <time>2021-07-11T04:41:59.000Z</time>
      </trkpt>
      <trkpt lat="45.22606" lon="5.72915">
        <ele>719.40002441406</ele>
        <time>2021-07-11T04:42:01.000Z</time>
      </trkpt>
      <trkpt lat="45.22605" lon="5.72916">
        <ele>719.59997558594</ele>
        <time>2021-07-11T04:42:02.000Z</time>
      </trkpt>
      <trkpt lat="45.22605" lon="5.72919">
        <ele>720.20001220703</ele>
        <time>2021-07-11T04:42:04.000Z</time>
      </trkpt>
      <trkpt lat="45.22606" lon="5.7292">
        <ele>720.40002441406</ele>
        <time>2021-07-11T04:42:05.000Z</time>
      </trkpt>
      <trkpt lat="45.22608" lon="5.72923">
        <ele>721</ele>
        <time>2021-07-11T04:42:07.000Z</time>
      </trkpt>
      <trkpt lat="45.22609" lon="5.72924">
        <ele>721</ele>
        <time>2021-07-11T04:42:08.000Z</time>
      </trkpt>
      <trkpt lat="45.22609" lon="5.72926">
        <ele>721</ele>
        <time>2021-07-11T04:42:09.000Z</time>
      </trkpt>
      <trkpt lat="45.2261" lon="5.72928">
        <ele>721.20001220703</ele>
        <time>2021-07-11T04:42:10.000Z</time>
      </trkpt>
      <trkpt lat="45.22612" lon="5.72933">
        <ele>721</ele>
        <time>2021-07-11T04:42:13.000Z</time>
      </trkpt>
      <trkpt lat="45.22613" lon="5.72937">
        <ele>721</ele>
        <time>2021-07-11T04:42:15.000Z</time>
      </trkpt>
      <trkpt lat="45.22613" lon="5.7294">
        <ele>721</ele>
        <time>2021-07-11T04:42:16.000Z</time>
      </trkpt>
      <trkpt lat="45.22618" lon="5.7295">
        <ele>720.79998779297</ele>
        <time>2021-07-11T04:42:20.000Z</time>
      </trkpt>
      <trkpt lat="45.22619" lon="5.72952">
        <ele>720.79998779297</ele>
        <time>2021-07-11T04:42:21.000Z</time>
      </trkpt>
      <trkpt lat="45.22621" lon="5.72954">
        <ele>720.79998779297</ele>
        <time>2021-07-11T04:42:23.000Z</time>
      </trkpt>
      <trkpt lat="45.22622" lon="5.72955">
        <ele>720.79998779297</ele>
        <time>2021-07-11T04:42:24.000Z</time>
      </trkpt>
      <trkpt lat="45.22624" lon="5.72955">
        <ele>720.40002441406</ele>
        <time>2021-07-11T04:42:25.000Z</time>
      </trkpt>
      <trkpt lat="45.2263" lon="5.72954">
        <ele>720.20001220703</ele>
        <time>2021-07-11T04:42:28.000Z</time>
      </trkpt>
      <trkpt lat="45.22633" lon="5.72954">
        <ele>719.59997558594</ele>
        <time>2021-07-11T04:42:30.000Z</time>
      </trkpt>
      <trkpt lat="45.22638" lon="5.72955">
        <ele>719.40002441406</ele>
        <time>2021-07-11T04:42:33.000Z</time>
      </trkpt>
      <trkpt lat="45.22644" lon="5.72955">
        <ele>719.20001220703</ele>
        <time>2021-07-11T04:42:36.000Z</time>
      </trkpt>
      <trkpt lat="45.22648" lon="5.72957">
        <ele>719.20001220703</ele>
        <time>2021-07-11T04:42:38.000Z</time>
      </trkpt>
      <trkpt lat="45.2265" lon="5.72957">
        <ele>719</ele>
        <time>2021-07-11T04:42:39.000Z</time>
      </trkpt>
      <trkpt lat="45.22657" lon="5.72958">
        <ele>719</ele>
        <time>2021-07-11T04:42:44.000Z</time>
      </trkpt>
      <trkpt lat="45.22658" lon="5.72959">
        <ele>718.79998779297</ele>
        <time>2021-07-11T04:42:45.000Z</time>
      </trkpt>
      <trkpt lat="45.22662" lon="5.7296">
        <ele>718.40002441406</ele>
        <time>2021-07-11T04:42:48.000Z</time>
      </trkpt>
      <trkpt lat="45.22663" lon="5.7296">
        <ele>718.40002441406</ele>
        <time>2021-07-11T04:42:49.000Z</time>
      </trkpt>
      <trkpt lat="45.22664" lon="5.72961">
        <ele>718.40002441406</ele>
        <time>2021-07-11T04:42:50.000Z</time>
      </trkpt>
      <trkpt lat="45.22668" lon="5.72966">
        <ele>717.79998779297</ele>
        <time>2021-07-11T04:42:52.000Z</time>
      </trkpt>
      <trkpt lat="45.22671" lon="5.72967">
        <ele>717.79998779297</ele>
        <time>2021-07-11T04:42:54.000Z</time>
      </trkpt>
      <trkpt lat="45.22675" lon="5.72968">
        <ele>717.59997558594</ele>
        <time>2021-07-11T04:42:56.000Z</time>
      </trkpt>
      <trkpt lat="45.2268" lon="5.72969">
        <ele>717.40002441406</ele>
        <time>2021-07-11T04:42:58.000Z</time>
      </trkpt>
      <trkpt lat="45.22686" lon="5.72974">
        <ele>716.59997558594</ele>
        <time>2021-07-11T04:43:01.000Z</time>
      </trkpt>
      <trkpt lat="45.22689" lon="5.72975">
        <ele>716.59997558594</ele>
        <time>2021-07-11T04:43:02.000Z</time>
      </trkpt>
      <trkpt lat="45.22695" lon="5.72978">
        <ele>715.79998779297</ele>
        <time>2021-07-11T04:43:05.000Z</time>
      </trkpt>
      <trkpt lat="45.22702" lon="5.7298">
        <ele>715</ele>
        <time>2021-07-11T04:43:08.000Z</time>
      </trkpt>
      <trkpt lat="45.22704" lon="5.72981">
        <ele>715</ele>
        <time>2021-07-11T04:43:09.000Z</time>
      </trkpt>
      <trkpt lat="45.22719" lon="5.72989">
        <ele>713.40002441406</ele>
        <time>2021-07-11T04:43:14.000Z</time>
      </trkpt>
      <trkpt lat="45.22725" lon="5.72993">
        <ele>713.20001220703</ele>
        <time>2021-07-11T04:43:17.000Z</time>
      </trkpt>
      <trkpt lat="45.22729" lon="5.72995">
        <ele>712.20001220703</ele>
        <time>2021-07-11T04:43:19.000Z</time>
      </trkpt>
      <trkpt lat="45.22737" lon="5.72997">
        <ele>711.40002441406</ele>
        <time>2021-07-11T04:43:24.000Z</time>
      </trkpt>
      <trkpt lat="45.22741" lon="5.73">
        <ele>711</ele>
        <time>2021-07-11T04:43:26.000Z</time>
      </trkpt>
      <trkpt lat="45.22747" lon="5.73002">
        <ele>710.79998779297</ele>
        <time>2021-07-11T04:43:28.000Z</time>
      </trkpt>
      <trkpt lat="45.22749" lon="5.73004">
        <ele>710.79998779297</ele>
        <time>2021-07-11T04:43:29.000Z</time>
      </trkpt>
      <trkpt lat="45.22757" lon="5.73015">
        <ele>710</ele>
        <time>2021-07-11T04:43:34.000Z</time>
      </trkpt>
      <trkpt lat="45.22761" lon="5.73017">
        <ele>709.79998779297</ele>
        <time>2021-07-11T04:43:36.000Z</time>
      </trkpt>
      <trkpt lat="45.2277" lon="5.73022">
        <ele>709</ele>
        <time>2021-07-11T04:43:40.000Z</time>
      </trkpt>
      <trkpt lat="45.22775" lon="5.73023">
        <ele>708.79998779297</ele>
        <time>2021-07-11T04:43:42.000Z</time>
      </trkpt>
      <trkpt lat="45.22777" lon="5.73024">
        <ele>708.59997558594</ele>
        <time>2021-07-11T04:43:43.000Z</time>
      </trkpt>
      <trkpt lat="45.22779" lon="5.73028">
        <ele>708.20001220703</ele>
        <time>2021-07-11T04:43:44.000Z</time>
      </trkpt>
      <trkpt lat="45.22782" lon="5.73032">
        <ele>708.20001220703</ele>
        <time>2021-07-11T04:43:46.000Z</time>
      </trkpt>
      <trkpt lat="45.22785" lon="5.73033">
        <ele>708</ele>
        <time>2021-07-11T04:43:47.000Z</time>
      </trkpt>
      <trkpt lat="45.22786" lon="5.73034">
        <ele>707.40002441406</ele>
        <time>2021-07-11T04:43:48.000Z</time>
      </trkpt>
      <trkpt lat="45.2279" lon="5.73036">
        <ele>707.40002441406</ele>
        <time>2021-07-11T04:43:51.000Z</time>
      </trkpt>
      <trkpt lat="45.22793" lon="5.73038">
        <ele>706.79998779297</ele>
        <time>2021-07-11T04:43:53.000Z</time>
      </trkpt>
      <trkpt lat="45.22797" lon="5.7304">
        <ele>706.20001220703</ele>
        <time>2021-07-11T04:43:55.000Z</time>
      </trkpt>
      <trkpt lat="45.22806" lon="5.73044">
        <ele>705</ele>
        <time>2021-07-11T04:43:59.000Z</time>
      </trkpt>
      <trkpt lat="45.22809" lon="5.73047">
        <ele>704.79998779297</ele>
        <time>2021-07-11T04:44:01.000Z</time>
      </trkpt>
      <trkpt lat="45.22823" lon="5.73054">
        <ele>704.79998779297</ele>
        <time>2021-07-11T04:44:08.000Z</time>
      </trkpt>
      <trkpt lat="45.22832" lon="5.7306">
        <ele>704.79998779297</ele>
        <time>2021-07-11T04:44:12.000Z</time>
      </trkpt>
      <trkpt lat="45.22836" lon="5.73063">
        <ele>704.79998779297</ele>
        <time>2021-07-11T04:44:14.000Z</time>
      </trkpt>
      <trkpt lat="45.22841" lon="5.73066">
        <ele>704.79998779297</ele>
        <time>2021-07-11T04:44:17.000Z</time>
      </trkpt>
      <trkpt lat="45.22844" lon="5.73068">
        <ele>704.79998779297</ele>
        <time>2021-07-11T04:44:19.000Z</time>
      </trkpt>
      <trkpt lat="45.22855" lon="5.73073">
        <ele>704.40002441406</ele>
        <time>2021-07-11T04:44:24.000Z</time>
      </trkpt>
      <trkpt lat="45.22859" lon="5.73075">
        <ele>704.40002441406</ele>
        <time>2021-07-11T04:44:26.000Z</time>
      </trkpt>
      <trkpt lat="45.22862" lon="5.73077">
        <ele>704</ele>
        <time>2021-07-11T04:44:27.000Z</time>
      </trkpt>
      <trkpt lat="45.22871" lon="5.73081">
        <ele>703.40002441406</ele>
        <time>2021-07-11T04:44:31.000Z</time>
      </trkpt>
      <trkpt lat="45.22881" lon="5.73091">
        <ele>702.79998779297</ele>
        <time>2021-07-11T04:44:36.000Z</time>
      </trkpt>
      <trkpt lat="45.22885" lon="5.73092">
        <ele>702.79998779297</ele>
        <time>2021-07-11T04:44:38.000Z</time>
      </trkpt>
      <trkpt lat="45.2289" lon="5.73094">
        <ele>702.59997558594</ele>
        <time>2021-07-11T04:44:40.000Z</time>
      </trkpt>
      <trkpt lat="45.22896" lon="5.73097">
        <ele>702.59997558594</ele>
        <time>2021-07-11T04:44:43.000Z</time>
      </trkpt>
      <trkpt lat="45.22901" lon="5.73098">
        <ele>702.40002441406</ele>
        <time>2021-07-11T04:44:46.000Z</time>
      </trkpt>
      <trkpt lat="45.22905" lon="5.73098">
        <ele>702.20001220703</ele>
        <time>2021-07-11T04:44:48.000Z</time>
      </trkpt>
      <trkpt lat="45.22918" lon="5.731">
        <ele>702.20001220703</ele>
        <time>2021-07-11T04:44:54.000Z</time>
      </trkpt>
      <trkpt lat="45.22927" lon="5.731">
        <ele>701.79998779297</ele>
        <time>2021-07-11T04:44:58.000Z</time>
      </trkpt>
      <trkpt lat="45.22929" lon="5.731">
        <ele>701.59997558594</ele>
        <time>2021-07-11T04:44:59.000Z</time>
      </trkpt>
      <trkpt lat="45.22939" lon="5.73102">
        <ele>701</ele>
        <time>2021-07-11T04:45:03.000Z</time>
      </trkpt>
      <trkpt lat="45.22942" lon="5.73103">
        <ele>700.59997558594</ele>
        <time>2021-07-11T04:45:04.000Z</time>
      </trkpt>
      <trkpt lat="45.22943" lon="5.73103">
        <ele>700.40002441406</ele>
        <time>2021-07-11T04:45:05.000Z</time>
      </trkpt>
      <trkpt lat="45.22944" lon="5.73103">
        <ele>699.79998779297</ele>
        <time>2021-07-11T04:45:06.000Z</time>
      </trkpt>
      <trkpt lat="45.22948" lon="5.73105">
        <ele>698.79998779297</ele>
        <time>2021-07-11T04:45:08.000Z</time>
      </trkpt>
      <trkpt lat="45.2295" lon="5.73103">
        <ele>698.40002441406</ele>
        <time>2021-07-11T04:45:10.000Z</time>
      </trkpt>
      <trkpt lat="45.22955" lon="5.73102">
        <ele>698</ele>
        <time>2021-07-11T04:45:13.000Z</time>
      </trkpt>
      <trkpt lat="45.22956" lon="5.73102">
        <ele>697.40002441406</ele>
        <time>2021-07-11T04:45:14.000Z</time>
      </trkpt>
      <trkpt lat="45.22957" lon="5.73101">
        <ele>696.59997558594</ele>
        <time>2021-07-11T04:45:15.000Z</time>
      </trkpt>
      <trkpt lat="45.22958" lon="5.73101">
        <ele>696.59997558594</ele>
        <time>2021-07-11T04:45:16.000Z</time>
      </trkpt>
      <trkpt lat="45.22961" lon="5.73102">
        <ele>697.40002441406</ele>
        <time>2021-07-11T04:45:18.000Z</time>
      </trkpt>
      <trkpt lat="45.22962" lon="5.73103">
        <ele>697.40002441406</ele>
        <time>2021-07-11T04:45:19.000Z</time>
      </trkpt>
      <trkpt lat="45.22963" lon="5.73105">
        <ele>697.40002441406</ele>
        <time>2021-07-11T04:45:20.000Z</time>
      </trkpt>
      <trkpt lat="45.22966" lon="5.73108">
        <ele>698.40002441406</ele>
        <time>2021-07-11T04:45:23.000Z</time>
      </trkpt>
      <trkpt lat="45.22967" lon="5.73109">
        <ele>698.79998779297</ele>
        <time>2021-07-11T04:45:24.000Z</time>
      </trkpt>
      <trkpt lat="45.22972" lon="5.73117">
        <ele>700</ele>
        <time>2021-07-11T04:45:28.000Z</time>
      </trkpt>
      <trkpt lat="45.22974" lon="5.73119">
        <ele>700.20001220703</ele>
        <time>2021-07-11T04:45:30.000Z</time>
      </trkpt>
      <trkpt lat="45.22977" lon="5.73124">
        <ele>701.40002441406</ele>
        <time>2021-07-11T04:45:33.000Z</time>
      </trkpt>
      <trkpt lat="45.2298" lon="5.73128">
        <ele>702</ele>
        <time>2021-07-11T04:45:35.000Z</time>
      </trkpt>
      <trkpt lat="45.22983" lon="5.7313">
        <ele>702.59997558594</ele>
        <time>2021-07-11T04:45:37.000Z</time>
      </trkpt>
      <trkpt lat="45.22987" lon="5.73132">
        <ele>702.79998779297</ele>
        <time>2021-07-11T04:45:39.000Z</time>
      </trkpt>
      <trkpt lat="45.22988" lon="5.73133">
        <ele>703.20001220703</ele>
        <time>2021-07-11T04:45:40.000Z</time>
      </trkpt>
      <trkpt lat="45.2299" lon="5.73134">
        <ele>703.79998779297</ele>
        <time>2021-07-11T04:45:42.000Z</time>
      </trkpt>
      <trkpt lat="45.22992" lon="5.73136">
        <ele>704</ele>
        <time>2021-07-11T04:45:44.000Z</time>
      </trkpt>
      <trkpt lat="45.22993" lon="5.73134">
        <ele>704.79998779297</ele>
        <time>2021-07-11T04:45:46.000Z</time>
      </trkpt>
      <trkpt lat="45.22995" lon="5.73133">
        <ele>705.20001220703</ele>
        <time>2021-07-11T04:45:47.000Z</time>
      </trkpt>
      <trkpt lat="45.22999" lon="5.73136">
        <ele>706</ele>
        <time>2021-07-11T04:45:51.000Z</time>
      </trkpt>
      <trkpt lat="45.23007" lon="5.73137">
        <ele>707</ele>
        <time>2021-07-11T04:45:56.000Z</time>
      </trkpt>
      <trkpt lat="45.23008" lon="5.73139">
        <ele>707.59997558594</ele>
        <time>2021-07-11T04:45:57.000Z</time>
      </trkpt>
      <trkpt lat="45.23009" lon="5.73139">
        <ele>707.79998779297</ele>
        <time>2021-07-11T04:45:58.000Z</time>
      </trkpt>
      <trkpt lat="45.23011" lon="5.7314">
        <ele>707.79998779297</ele>
        <time>2021-07-11T04:45:59.000Z</time>
      </trkpt>
      <trkpt lat="45.23012" lon="5.7314">
        <ele>708.40002441406</ele>
        <time>2021-07-11T04:46:00.000Z</time>
      </trkpt>
      <trkpt lat="45.23014" lon="5.73141">
        <ele>708.59997558594</ele>
        <time>2021-07-11T04:46:02.000Z</time>
      </trkpt>
      <trkpt lat="45.23016" lon="5.73141">
        <ele>709</ele>
        <time>2021-07-11T04:46:03.000Z</time>
      </trkpt>
      <trkpt lat="45.23019" lon="5.73143">
        <ele>709.40002441406</ele>
        <time>2021-07-11T04:46:05.000Z</time>
      </trkpt>
      <trkpt lat="45.23021" lon="5.73143">
        <ele>709.40002441406</ele>
        <time>2021-07-11T04:46:06.000Z</time>
      </trkpt>
      <trkpt lat="45.23022" lon="5.73144">
        <ele>709.40002441406</ele>
        <time>2021-07-11T04:46:07.000Z</time>
      </trkpt>
      <trkpt lat="45.23023" lon="5.73144">
        <ele>709.59997558594</ele>
        <time>2021-07-11T04:46:08.000Z</time>
      </trkpt>
      <trkpt lat="45.23026" lon="5.73144">
        <ele>710.59997558594</ele>
        <time>2021-07-11T04:46:11.000Z</time>
      </trkpt>
      <trkpt lat="45.23029" lon="5.73145">
        <ele>711.59997558594</ele>
        <time>2021-07-11T04:46:14.000Z</time>
      </trkpt>
      <trkpt lat="45.23033" lon="5.73147">
        <ele>712.59997558594</ele>
        <time>2021-07-11T04:46:18.000Z</time>
      </trkpt>
      <trkpt lat="45.23034" lon="5.73147">
        <ele>712.59997558594</ele>
        <time>2021-07-11T04:46:19.000Z</time>
      </trkpt>
      <trkpt lat="45.23035" lon="5.73147">
        <ele>713.79998779297</ele>
        <time>2021-07-11T04:46:20.000Z</time>
      </trkpt>
      <trkpt lat="45.23038" lon="5.73148">
        <ele>714.40002441406</ele>
        <time>2021-07-11T04:46:23.000Z</time>
      </trkpt>
      <trkpt lat="45.2304" lon="5.73147">
        <ele>715.59997558594</ele>
        <time>2021-07-11T04:46:26.000Z</time>
      </trkpt>
      <trkpt lat="45.23042" lon="5.73148">
        <ele>715.79998779297</ele>
        <time>2021-07-11T04:46:28.000Z</time>
      </trkpt>
      <trkpt lat="45.23045" lon="5.73151">
        <ele>716.79998779297</ele>
        <time>2021-07-11T04:46:31.000Z</time>
      </trkpt>
      <trkpt lat="45.23047" lon="5.73153">
        <ele>717.59997558594</ele>
        <time>2021-07-11T04:46:34.000Z</time>
      </trkpt>
      <trkpt lat="45.23048" lon="5.73153">
        <ele>718</ele>
        <time>2021-07-11T04:46:35.000Z</time>
      </trkpt>
      <trkpt lat="45.23051" lon="5.73154">
        <ele>719.20001220703</ele>
        <time>2021-07-11T04:46:38.000Z</time>
      </trkpt>
      <trkpt lat="45.23053" lon="5.73154">
        <ele>719.59997558594</ele>
        <time>2021-07-11T04:46:40.000Z</time>
      </trkpt>
      <trkpt lat="45.23054" lon="5.73156">
        <ele>720.20001220703</ele>
        <time>2021-07-11T04:46:41.000Z</time>
      </trkpt>
      <trkpt lat="45.23055" lon="5.73157">
        <ele>720.40002441406</ele>
        <time>2021-07-11T04:46:42.000Z</time>
      </trkpt>
      <trkpt lat="45.23058" lon="5.73159">
        <ele>721.40002441406</ele>
        <time>2021-07-11T04:46:45.000Z</time>
      </trkpt>
      <trkpt lat="45.2306" lon="5.73161">
        <ele>722</ele>
        <time>2021-07-11T04:46:48.000Z</time>
      </trkpt>
      <trkpt lat="45.23061" lon="5.73162">
        <ele>722.20001220703</ele>
        <time>2021-07-11T04:46:51.000Z</time>
      </trkpt>
      <trkpt lat="45.23063" lon="5.73163">
        <ele>722.40002441406</ele>
        <time>2021-07-11T04:46:52.000Z</time>
      </trkpt>
      <trkpt lat="45.23065" lon="5.73164">
        <ele>723.20001220703</ele>
        <time>2021-07-11T04:46:53.000Z</time>
      </trkpt>
      <trkpt lat="45.23067" lon="5.73167">
        <ele>723.59997558594</ele>
        <time>2021-07-11T04:46:55.000Z</time>
      </trkpt>
      <trkpt lat="45.23068" lon="5.73168">
        <ele>723.59997558594</ele>
        <time>2021-07-11T04:46:56.000Z</time>
      </trkpt>
      <trkpt lat="45.23069" lon="5.73169">
        <ele>723.59997558594</ele>
        <time>2021-07-11T04:46:57.000Z</time>
      </trkpt>
      <trkpt lat="45.23074" lon="5.73172">
        <ele>724.40002441406</ele>
        <time>2021-07-11T04:47:00.000Z</time>
      </trkpt>
      <trkpt lat="45.23077" lon="5.73174">
        <ele>724.59997558594</ele>
        <time>2021-07-11T04:47:02.000Z</time>
      </trkpt>
      <trkpt lat="45.23077" lon="5.73174">
        <ele>725</ele>
        <time>2021-07-11T04:47:04.000Z</time>
      </trkpt>
      <trkpt lat="45.2308" lon="5.73174">
        <ele>725.40002441406</ele>
        <time>2021-07-11T04:47:06.000Z</time>
      </trkpt>
      <trkpt lat="45.23081" lon="5.73174">
        <ele>725.40002441406</ele>
        <time>2021-07-11T04:47:07.000Z</time>
      </trkpt>
      <trkpt lat="45.23085" lon="5.73175">
        <ele>726.20001220703</ele>
        <time>2021-07-11T04:47:11.000Z</time>
      </trkpt>
      <trkpt lat="45.23088" lon="5.73174">
        <ele>726.20001220703</ele>
        <time>2021-07-11T04:47:14.000Z</time>
      </trkpt>
      <trkpt lat="45.23093" lon="5.73173">
        <ele>726.40002441406</ele>
        <time>2021-07-11T04:47:17.000Z</time>
      </trkpt>
      <trkpt lat="45.23099" lon="5.73173">
        <ele>727.40002441406</ele>
        <time>2021-07-11T04:47:22.000Z</time>
      </trkpt>
      <trkpt lat="45.23105" lon="5.73171">
        <ele>728.59997558594</ele>
        <time>2021-07-11T04:47:26.000Z</time>
      </trkpt>
      <trkpt lat="45.23107" lon="5.73171">
        <ele>729</ele>
        <time>2021-07-11T04:47:28.000Z</time>
      </trkpt>
      <trkpt lat="45.23108" lon="5.73172">
        <ele>729.59997558594</ele>
        <time>2021-07-11T04:47:30.000Z</time>
      </trkpt>
      <trkpt lat="45.23109" lon="5.73172">
        <ele>729.79998779297</ele>
        <time>2021-07-11T04:47:31.000Z</time>
      </trkpt>
      <trkpt lat="45.23111" lon="5.73171">
        <ele>731</ele>
        <time>2021-07-11T04:47:33.000Z</time>
      </trkpt>
      <trkpt lat="45.23113" lon="5.7317">
        <ele>731</ele>
        <time>2021-07-11T04:47:34.000Z</time>
      </trkpt>
      <trkpt lat="45.23116" lon="5.7317">
        <ele>731.20001220703</ele>
        <time>2021-07-11T04:47:36.000Z</time>
      </trkpt>
      <trkpt lat="45.23117" lon="5.7317">
        <ele>731.40002441406</ele>
        <time>2021-07-11T04:47:37.000Z</time>
      </trkpt>
      <trkpt lat="45.2312" lon="5.73171">
        <ele>732</ele>
        <time>2021-07-11T04:47:39.000Z</time>
      </trkpt>
      <trkpt lat="45.23123" lon="5.73173">
        <ele>732.59997558594</ele>
        <time>2021-07-11T04:47:41.000Z</time>
      </trkpt>
      <trkpt lat="45.23126" lon="5.73173">
        <ele>733</ele>
        <time>2021-07-11T04:47:43.000Z</time>
      </trkpt>
      <trkpt lat="45.23128" lon="5.73173">
        <ele>733.20001220703</ele>
        <time>2021-07-11T04:47:44.000Z</time>
      </trkpt>
      <trkpt lat="45.2313" lon="5.73173">
        <ele>733.40002441406</ele>
        <time>2021-07-11T04:47:45.000Z</time>
      </trkpt>
      <trkpt lat="45.23132" lon="5.73172">
        <ele>733.79998779297</ele>
        <time>2021-07-11T04:47:47.000Z</time>
      </trkpt>
      <trkpt lat="45.23135" lon="5.73173">
        <ele>734.59997558594</ele>
        <time>2021-07-11T04:47:49.000Z</time>
      </trkpt>
      <trkpt lat="45.23145" lon="5.73177">
        <ele>735</ele>
        <time>2021-07-11T04:47:54.000Z</time>
      </trkpt>
      <trkpt lat="45.2315" lon="5.73181">
        <ele>735.59997558594</ele>
        <time>2021-07-11T04:47:58.000Z</time>
      </trkpt>
      <trkpt lat="45.23153" lon="5.73183">
        <ele>735.79998779297</ele>
        <time>2021-07-11T04:48:00.000Z</time>
      </trkpt>
      <trkpt lat="45.23159" lon="5.73186">
        <ele>736.59997558594</ele>
        <time>2021-07-11T04:48:03.000Z</time>
      </trkpt>
      <trkpt lat="45.23162" lon="5.73189">
        <ele>737</ele>
        <time>2021-07-11T04:48:05.000Z</time>
      </trkpt>
      <trkpt lat="45.23163" lon="5.73189">
        <ele>737</ele>
        <time>2021-07-11T04:48:06.000Z</time>
      </trkpt>
      <trkpt lat="45.23175" lon="5.73195">
        <ele>737.79998779297</ele>
        <time>2021-07-11T04:48:12.000Z</time>
      </trkpt>
      <trkpt lat="45.23177" lon="5.73197">
        <ele>737.79998779297</ele>
        <time>2021-07-11T04:48:13.000Z</time>
      </trkpt>
      <trkpt lat="45.2318" lon="5.73199">
        <ele>738</ele>
        <time>2021-07-11T04:48:14.000Z</time>
      </trkpt>
      <trkpt lat="45.23187" lon="5.73203">
        <ele>739</ele>
        <time>2021-07-11T04:48:18.000Z</time>
      </trkpt>
      <trkpt lat="45.23188" lon="5.73204">
        <ele>739</ele>
        <time>2021-07-11T04:48:19.000Z</time>
      </trkpt>
      <trkpt lat="45.23193" lon="5.73206">
        <ele>739.59997558594</ele>
        <time>2021-07-11T04:48:22.000Z</time>
      </trkpt>
      <trkpt lat="45.23195" lon="5.73208">
        <ele>739.59997558594</ele>
        <time>2021-07-11T04:48:23.000Z</time>
      </trkpt>
      <trkpt lat="45.23197" lon="5.73211">
        <ele>739.79998779297</ele>
        <time>2021-07-11T04:48:25.000Z</time>
      </trkpt>
      <trkpt lat="45.232" lon="5.73211">
        <ele>740.40002441406</ele>
        <time>2021-07-11T04:48:27.000Z</time>
      </trkpt>
      <trkpt lat="45.23203" lon="5.73213">
        <ele>741</ele>
        <time>2021-07-11T04:48:30.000Z</time>
      </trkpt>
      <trkpt lat="45.23204" lon="5.73214">
        <ele>741.20001220703</ele>
        <time>2021-07-11T04:48:31.000Z</time>
      </trkpt>
      <trkpt lat="45.23209" lon="5.73217">
        <ele>742</ele>
        <time>2021-07-11T04:48:34.000Z</time>
      </trkpt>
      <trkpt lat="45.2321" lon="5.73218">
        <ele>742.40002441406</ele>
        <time>2021-07-11T04:48:36.000Z</time>
      </trkpt>
      <trkpt lat="45.2321" lon="5.73218">
        <ele>742.40002441406</ele>
        <time>2021-07-11T04:48:37.000Z</time>
      </trkpt>
      <trkpt lat="45.23212" lon="5.73219">
        <ele>743.59997558594</ele>
        <time>2021-07-11T04:48:39.000Z</time>
      </trkpt>
      <trkpt lat="45.23219" lon="5.73222">
        <ele>745</ele>
        <time>2021-07-11T04:48:44.000Z</time>
      </trkpt>
      <trkpt lat="45.2322" lon="5.73223">
        <ele>745.20001220703</ele>
        <time>2021-07-11T04:48:45.000Z</time>
      </trkpt>
      <trkpt lat="45.23223" lon="5.73224">
        <ele>745.79998779297</ele>
        <time>2021-07-11T04:48:48.000Z</time>
      </trkpt>
      <trkpt lat="45.23224" lon="5.73224">
        <ele>746.40002441406</ele>
        <time>2021-07-11T04:48:49.000Z</time>
      </trkpt>
      <trkpt lat="45.23229" lon="5.73226">
        <ele>747</ele>
        <time>2021-07-11T04:48:52.000Z</time>
      </trkpt>
      <trkpt lat="45.23231" lon="5.73227">
        <ele>747.79998779297</ele>
        <time>2021-07-11T04:48:54.000Z</time>
      </trkpt>
      <trkpt lat="45.23235" lon="5.73229">
        <ele>749</ele>
        <time>2021-07-11T04:48:58.000Z</time>
      </trkpt>
      <trkpt lat="45.23236" lon="5.7323">
        <ele>749.40002441406</ele>
        <time>2021-07-11T04:48:59.000Z</time>
      </trkpt>
      <trkpt lat="45.2324" lon="5.73234">
        <ele>750.40002441406</ele>
        <time>2021-07-11T04:49:02.000Z</time>
      </trkpt>
      <trkpt lat="45.23242" lon="5.73238">
        <ele>751.59997558594</ele>
        <time>2021-07-11T04:49:05.000Z</time>
      </trkpt>
      <trkpt lat="45.23248" lon="5.7324">
        <ele>752.79998779297</ele>
        <time>2021-07-11T04:49:10.000Z</time>
      </trkpt>
      <trkpt lat="45.23249" lon="5.73241">
        <ele>752.79998779297</ele>
        <time>2021-07-11T04:49:11.000Z</time>
      </trkpt>
      <trkpt lat="45.23252" lon="5.73243">
        <ele>753.79998779297</ele>
        <time>2021-07-11T04:49:14.000Z</time>
      </trkpt>
      <trkpt lat="45.23254" lon="5.73246">
        <ele>754.40002441406</ele>
        <time>2021-07-11T04:49:16.000Z</time>
      </trkpt>
      <trkpt lat="45.23257" lon="5.73248">
        <ele>755.59997558594</ele>
        <time>2021-07-11T04:49:19.000Z</time>
      </trkpt>
      <trkpt lat="45.2326" lon="5.73252">
        <ele>756.59997558594</ele>
        <time>2021-07-11T04:49:24.000Z</time>
      </trkpt>
      <trkpt lat="45.23261" lon="5.73254">
        <ele>757.20001220703</ele>
        <time>2021-07-11T04:49:25.000Z</time>
      </trkpt>
      <trkpt lat="45.2326" lon="5.73262">
        <ele>758</ele>
        <time>2021-07-11T04:49:28.000Z</time>
      </trkpt>
      <trkpt lat="45.23261" lon="5.73265">
        <ele>758.20001220703</ele>
        <time>2021-07-11T04:49:29.000Z</time>
      </trkpt>
      <trkpt lat="45.23261" lon="5.73267">
        <ele>758.59997558594</ele>
        <time>2021-07-11T04:49:31.000Z</time>
      </trkpt>
      <trkpt lat="45.23261" lon="5.7327">
        <ele>759.59997558594</ele>
        <time>2021-07-11T04:49:33.000Z</time>
      </trkpt>
      <trkpt lat="45.23261" lon="5.73275">
        <ele>760.20001220703</ele>
        <time>2021-07-11T04:49:36.000Z</time>
      </trkpt>
      <trkpt lat="45.23262" lon="5.73279">
        <ele>761.20001220703</ele>
        <time>2021-07-11T04:49:38.000Z</time>
      </trkpt>
      <trkpt lat="45.23262" lon="5.7328">
        <ele>761.40002441406</ele>
        <time>2021-07-11T04:49:39.000Z</time>
      </trkpt>
      <trkpt lat="45.2326" lon="5.73294">
        <ele>762.20001220703</ele>
        <time>2021-07-11T04:49:46.000Z</time>
      </trkpt>
      <trkpt lat="45.23259" lon="5.73295">
        <ele>762.40002441406</ele>
        <time>2021-07-11T04:49:47.000Z</time>
      </trkpt>
      <trkpt lat="45.23256" lon="5.73294">
        <ele>762.79998779297</ele>
        <time>2021-07-11T04:49:50.000Z</time>
      </trkpt>
      <trkpt lat="45.23254" lon="5.73294">
        <ele>762.79998779297</ele>
        <time>2021-07-11T04:49:51.000Z</time>
      </trkpt>
      <trkpt lat="45.23255" lon="5.73294">
        <ele>763</ele>
        <time>2021-07-11T04:49:54.000Z</time>
      </trkpt>
      <trkpt lat="45.23257" lon="5.73293">
        <ele>763.20001220703</ele>
        <time>2021-07-11T04:49:57.000Z</time>
      </trkpt>
      <trkpt lat="45.23257" lon="5.73292">
        <ele>763</ele>
        <time>2021-07-11T04:49:58.000Z</time>
      </trkpt>
      <trkpt lat="45.23259" lon="5.73291">
        <ele>763</ele>
        <time>2021-07-11T04:50:05.000Z</time>
      </trkpt>
      <trkpt lat="45.23257" lon="5.73295">
        <ele>762.79998779297</ele>
        <time>2021-07-11T04:50:10.000Z</time>
      </trkpt>
      <trkpt lat="45.23253" lon="5.73294">
        <ele>763</ele>
        <time>2021-07-11T04:50:15.000Z</time>
      </trkpt>
      <trkpt lat="45.23251" lon="5.73293">
        <ele>762.40002441406</ele>
        <time>2021-07-11T04:50:17.000Z</time>
      </trkpt>
      <trkpt lat="45.23246" lon="5.73293">
        <ele>762.20001220703</ele>
        <time>2021-07-11T04:50:23.000Z</time>
      </trkpt>
      <trkpt lat="45.23245" lon="5.73287">
        <ele>762.20001220703</ele>
        <time>2021-07-11T04:50:26.000Z</time>
      </trkpt>
      <trkpt lat="45.23247" lon="5.73287">
        <ele>762.20001220703</ele>
        <time>2021-07-11T04:50:28.000Z</time>
      </trkpt>
      <trkpt lat="45.23249" lon="5.73288">
        <ele>762.59997558594</ele>
        <time>2021-07-11T04:50:31.000Z</time>
      </trkpt>
      <trkpt lat="45.23255" lon="5.7329">
        <ele>762.59997558594</ele>
        <time>2021-07-11T04:50:38.000Z</time>
      </trkpt>
      <trkpt lat="45.23259" lon="5.73284">
        <ele>761.79998779297</ele>
        <time>2021-07-11T04:50:53.000Z</time>
      </trkpt>
      <trkpt lat="45.23262" lon="5.7328">
        <ele>761.59997558594</ele>
        <time>2021-07-11T04:50:56.000Z</time>
      </trkpt>
      <trkpt lat="45.23264" lon="5.73279">
        <ele>761.59997558594</ele>
        <time>2021-07-11T04:50:58.000Z</time>
      </trkpt>
      <trkpt lat="45.23266" lon="5.73276">
        <ele>761.40002441406</ele>
        <time>2021-07-11T04:51:00.000Z</time>
      </trkpt>
      <trkpt lat="45.23273" lon="5.73268">
        <ele>761.20001220703</ele>
        <time>2021-07-11T04:51:06.000Z</time>
      </trkpt>
      <trkpt lat="45.23279" lon="5.73262">
        <ele>760.40002441406</ele>
        <time>2021-07-11T04:51:10.000Z</time>
      </trkpt>
      <trkpt lat="45.23283" lon="5.73261">
        <ele>759.20001220703</ele>
        <time>2021-07-11T04:51:13.000Z</time>
      </trkpt>
      <trkpt lat="45.23286" lon="5.73261">
        <ele>758.79998779297</ele>
        <time>2021-07-11T04:51:15.000Z</time>
      </trkpt>
      <trkpt lat="45.2329" lon="5.73261">
        <ele>758.20001220703</ele>
        <time>2021-07-11T04:51:17.000Z</time>
      </trkpt>
      <trkpt lat="45.23295" lon="5.73261">
        <ele>756.59997558594</ele>
        <time>2021-07-11T04:51:20.000Z</time>
      </trkpt>
      <trkpt lat="45.23303" lon="5.73261">
        <ele>756</ele>
        <time>2021-07-11T04:51:24.000Z</time>
      </trkpt>
      <trkpt lat="45.23305" lon="5.73261">
        <ele>755.59997558594</ele>
        <time>2021-07-11T04:51:25.000Z</time>
      </trkpt>
      <trkpt lat="45.23312" lon="5.73262">
        <ele>754.40002441406</ele>
        <time>2021-07-11T04:51:28.000Z</time>
      </trkpt>
      <trkpt lat="45.23314" lon="5.73264">
        <ele>754.20001220703</ele>
        <time>2021-07-11T04:51:29.000Z</time>
      </trkpt>
      <trkpt lat="45.23317" lon="5.73266">
        <ele>754</ele>
        <time>2021-07-11T04:51:31.000Z</time>
      </trkpt>
      <trkpt lat="45.23326" lon="5.73272">
        <ele>753.79998779297</ele>
        <time>2021-07-11T04:51:36.000Z</time>
      </trkpt>
      <trkpt lat="45.23327" lon="5.73272">
        <ele>753.79998779297</ele>
        <time>2021-07-11T04:51:37.000Z</time>
      </trkpt>
      <trkpt lat="45.2333" lon="5.73274">
        <ele>753.79998779297</ele>
        <time>2021-07-11T04:51:39.000Z</time>
      </trkpt>
      <trkpt lat="45.23333" lon="5.73276">
        <ele>753.59997558594</ele>
        <time>2021-07-11T04:51:41.000Z</time>
      </trkpt>
      <trkpt lat="45.23342" lon="5.73279">
        <ele>753.40002441406</ele>
        <time>2021-07-11T04:51:45.000Z</time>
      </trkpt>
      <trkpt lat="45.2335" lon="5.73285">
        <ele>753</ele>
        <time>2021-07-11T04:51:48.000Z</time>
      </trkpt>
      <trkpt lat="45.23353" lon="5.73289">
        <ele>753</ele>
        <time>2021-07-11T04:51:50.000Z</time>
      </trkpt>
      <trkpt lat="45.23356" lon="5.73294">
        <ele>753.40002441406</ele>
        <time>2021-07-11T04:51:53.000Z</time>
      </trkpt>
      <trkpt lat="45.23358" lon="5.73296">
        <ele>753.79998779297</ele>
        <time>2021-07-11T04:51:55.000Z</time>
      </trkpt>
      <trkpt lat="45.23359" lon="5.73298">
        <ele>754.40002441406</ele>
        <time>2021-07-11T04:51:56.000Z</time>
      </trkpt>
      <trkpt lat="45.2336" lon="5.733">
        <ele>754.59997558594</ele>
        <time>2021-07-11T04:51:57.000Z</time>
      </trkpt>
      <trkpt lat="45.23361" lon="5.73303">
        <ele>754.59997558594</ele>
        <time>2021-07-11T04:51:58.000Z</time>
      </trkpt>
      <trkpt lat="45.23361" lon="5.73307">
        <ele>755.40002441406</ele>
        <time>2021-07-11T04:52:01.000Z</time>
      </trkpt>
      <trkpt lat="45.23361" lon="5.73308">
        <ele>755.79998779297</ele>
        <time>2021-07-11T04:52:02.000Z</time>
      </trkpt>
      <trkpt lat="45.23361" lon="5.73311">
        <ele>756.40002441406</ele>
        <time>2021-07-11T04:52:04.000Z</time>
      </trkpt>
      <trkpt lat="45.23362" lon="5.73314">
        <ele>757.40002441406</ele>
        <time>2021-07-11T04:52:07.000Z</time>
      </trkpt>
      <trkpt lat="45.23362" lon="5.73314">
        <ele>757.59997558594</ele>
        <time>2021-07-11T04:52:08.000Z</time>
      </trkpt>
      <trkpt lat="45.23363" lon="5.73315">
        <ele>758.20001220703</ele>
        <time>2021-07-11T04:52:09.000Z</time>
      </trkpt>
      <trkpt lat="45.23364" lon="5.73316">
        <ele>758.40002441406</ele>
        <time>2021-07-11T04:52:10.000Z</time>
      </trkpt>
      <trkpt lat="45.23365" lon="5.73317">
        <ele>758.59997558594</ele>
        <time>2021-07-11T04:52:11.000Z</time>
      </trkpt>
      <trkpt lat="45.23366" lon="5.73318">
        <ele>759</ele>
        <time>2021-07-11T04:52:12.000Z</time>
      </trkpt>
      <trkpt lat="45.23366" lon="5.73319">
        <ele>759.40002441406</ele>
        <time>2021-07-11T04:52:14.000Z</time>
      </trkpt>
      <trkpt lat="45.23366" lon="5.7332">
        <ele>759.59997558594</ele>
        <time>2021-07-11T04:52:15.000Z</time>
      </trkpt>
      <trkpt lat="45.23366" lon="5.73321">
        <ele>760</ele>
        <time>2021-07-11T04:52:16.000Z</time>
      </trkpt>
      <trkpt lat="45.23366" lon="5.73322">
        <ele>760.59997558594</ele>
        <time>2021-07-11T04:52:18.000Z</time>
      </trkpt>
      <trkpt lat="45.23366" lon="5.73324">
        <ele>760.79998779297</ele>
        <time>2021-07-11T04:52:20.000Z</time>
      </trkpt>
      <trkpt lat="45.23367" lon="5.73325">
        <ele>761.40002441406</ele>
        <time>2021-07-11T04:52:22.000Z</time>
      </trkpt>
      <trkpt lat="45.23368" lon="5.73325">
        <ele>761.59997558594</ele>
        <time>2021-07-11T04:52:23.000Z</time>
      </trkpt>
      <trkpt lat="45.2337" lon="5.7333">
        <ele>762.40002441406</ele>
        <time>2021-07-11T04:52:27.000Z</time>
      </trkpt>
      <trkpt lat="45.2337" lon="5.73334">
        <ele>763.20001220703</ele>
        <time>2021-07-11T04:52:29.000Z</time>
      </trkpt>
      <trkpt lat="45.23373" lon="5.73343">
        <ele>763.79998779297</ele>
        <time>2021-07-11T04:52:33.000Z</time>
      </trkpt>
      <trkpt lat="45.23374" lon="5.73346">
        <ele>764.79998779297</ele>
        <time>2021-07-11T04:52:36.000Z</time>
      </trkpt>
      <trkpt lat="45.23376" lon="5.73348">
        <ele>765.20001220703</ele>
        <time>2021-07-11T04:52:39.000Z</time>
      </trkpt>
      <trkpt lat="45.23378" lon="5.73354">
        <ele>766.40002441406</ele>
        <time>2021-07-11T04:52:43.000Z</time>
      </trkpt>
      <trkpt lat="45.23379" lon="5.73356">
        <ele>766.59997558594</ele>
        <time>2021-07-11T04:52:44.000Z</time>
      </trkpt>
      <trkpt lat="45.2338" lon="5.73359">
        <ele>767.40002441406</ele>
        <time>2021-07-11T04:52:48.000Z</time>
      </trkpt>
      <trkpt lat="45.2338" lon="5.7336">
        <ele>767.40002441406</ele>
        <time>2021-07-11T04:52:49.000Z</time>
      </trkpt>
      <trkpt lat="45.2338" lon="5.73361">
        <ele>768.20001220703</ele>
        <time>2021-07-11T04:52:51.000Z</time>
      </trkpt>
      <trkpt lat="45.23381" lon="5.73361">
        <ele>769</ele>
        <time>2021-07-11T04:52:52.000Z</time>
      </trkpt>
      <trkpt lat="45.23381" lon="5.73362">
        <ele>769.20001220703</ele>
        <time>2021-07-11T04:52:53.000Z</time>
      </trkpt>
      <trkpt lat="45.23382" lon="5.73364">
        <ele>769.40002441406</ele>
        <time>2021-07-11T04:52:55.000Z</time>
      </trkpt>
      <trkpt lat="45.23383" lon="5.73367">
        <ele>769.79998779297</ele>
        <time>2021-07-11T04:52:57.000Z</time>
      </trkpt>
      <trkpt lat="45.23384" lon="5.7337">
        <ele>770.20001220703</ele>
        <time>2021-07-11T04:52:59.000Z</time>
      </trkpt>
      <trkpt lat="45.23384" lon="5.73372">
        <ele>771.20001220703</ele>
        <time>2021-07-11T04:53:01.000Z</time>
      </trkpt>
      <trkpt lat="45.23385" lon="5.73373">
        <ele>771.20001220703</ele>
        <time>2021-07-11T04:53:02.000Z</time>
      </trkpt>
      <trkpt lat="45.23385" lon="5.73374">
        <ele>771.40002441406</ele>
        <time>2021-07-11T04:53:03.000Z</time>
      </trkpt>
      <trkpt lat="45.23385" lon="5.73375">
        <ele>771.59997558594</ele>
        <time>2021-07-11T04:53:04.000Z</time>
      </trkpt>
      <trkpt lat="45.23387" lon="5.73375">
        <ele>772.20001220703</ele>
        <time>2021-07-11T04:53:06.000Z</time>
      </trkpt>
      <trkpt lat="45.23389" lon="5.73376">
        <ele>772.40002441406</ele>
        <time>2021-07-11T04:53:08.000Z</time>
      </trkpt>
      <trkpt lat="45.23389" lon="5.73377">
        <ele>773.20001220703</ele>
        <time>2021-07-11T04:53:09.000Z</time>
      </trkpt>
      <trkpt lat="45.2339" lon="5.73378">
        <ele>773.79998779297</ele>
        <time>2021-07-11T04:53:10.000Z</time>
      </trkpt>
      <trkpt lat="45.23392" lon="5.7338">
        <ele>774.40002441406</ele>
        <time>2021-07-11T04:53:13.000Z</time>
      </trkpt>
      <trkpt lat="45.23393" lon="5.73381">
        <ele>775</ele>
        <time>2021-07-11T04:53:15.000Z</time>
      </trkpt>
      <trkpt lat="45.23394" lon="5.73383">
        <ele>775.20001220703</ele>
        <time>2021-07-11T04:53:17.000Z</time>
      </trkpt>
      <trkpt lat="45.23395" lon="5.73385">
        <ele>776</ele>
        <time>2021-07-11T04:53:19.000Z</time>
      </trkpt>
      <trkpt lat="45.23394" lon="5.73386">
        <ele>776.79998779297</ele>
        <time>2021-07-11T04:53:20.000Z</time>
      </trkpt>
      <trkpt lat="45.23396" lon="5.73388">
        <ele>776.79998779297</ele>
        <time>2021-07-11T04:53:22.000Z</time>
      </trkpt>
      <trkpt lat="45.23396" lon="5.73389">
        <ele>777.20001220703</ele>
        <time>2021-07-11T04:53:23.000Z</time>
      </trkpt>
      <trkpt lat="45.23397" lon="5.73391">
        <ele>777.40002441406</ele>
        <time>2021-07-11T04:53:25.000Z</time>
      </trkpt>
      <trkpt lat="45.23397" lon="5.73393">
        <ele>777.79998779297</ele>
        <time>2021-07-11T04:53:27.000Z</time>
      </trkpt>
      <trkpt lat="45.23398" lon="5.73395">
        <ele>778.20001220703</ele>
        <time>2021-07-11T04:53:29.000Z</time>
      </trkpt>
      <trkpt lat="45.23399" lon="5.73399">
        <ele>779.40002441406</ele>
        <time>2021-07-11T04:53:32.000Z</time>
      </trkpt>
      <trkpt lat="45.234" lon="5.73403">
        <ele>779.79998779297</ele>
        <time>2021-07-11T04:53:35.000Z</time>
      </trkpt>
      <trkpt lat="45.234" lon="5.73404">
        <ele>780</ele>
        <time>2021-07-11T04:53:37.000Z</time>
      </trkpt>
      <trkpt lat="45.23401" lon="5.73405">
        <ele>780.79998779297</ele>
        <time>2021-07-11T04:53:38.000Z</time>
      </trkpt>
      <trkpt lat="45.23401" lon="5.73407">
        <ele>781.40002441406</ele>
        <time>2021-07-11T04:53:40.000Z</time>
      </trkpt>
      <trkpt lat="45.23402" lon="5.73408">
        <ele>782</ele>
        <time>2021-07-11T04:53:43.000Z</time>
      </trkpt>
      <trkpt lat="45.23403" lon="5.7341">
        <ele>782.59997558594</ele>
        <time>2021-07-11T04:53:45.000Z</time>
      </trkpt>
      <trkpt lat="45.23404" lon="5.7341">
        <ele>782.59997558594</ele>
        <time>2021-07-11T04:53:46.000Z</time>
      </trkpt>
      <trkpt lat="45.23405" lon="5.73411">
        <ele>782.79998779297</ele>
        <time>2021-07-11T04:53:47.000Z</time>
      </trkpt>
      <trkpt lat="45.23405" lon="5.73412">
        <ele>783</ele>
        <time>2021-07-11T04:53:48.000Z</time>
      </trkpt>
      <trkpt lat="45.23406" lon="5.73416">
        <ele>784.20001220703</ele>
        <time>2021-07-11T04:53:51.000Z</time>
      </trkpt>
      <trkpt lat="45.23407" lon="5.73419">
        <ele>785.40002441406</ele>
        <time>2021-07-11T04:53:55.000Z</time>
      </trkpt>
      <trkpt lat="45.23407" lon="5.7342">
        <ele>785.40002441406</ele>
        <time>2021-07-11T04:53:57.000Z</time>
      </trkpt>
      <trkpt lat="45.2341" lon="5.73422">
        <ele>786.79998779297</ele>
        <time>2021-07-11T04:53:59.000Z</time>
      </trkpt>
      <trkpt lat="45.23411" lon="5.73426">
        <ele>787</ele>
        <time>2021-07-11T04:54:02.000Z</time>
      </trkpt>
      <trkpt lat="45.23411" lon="5.73425">
        <ele>787.20001220703</ele>
        <time>2021-07-11T04:54:03.000Z</time>
      </trkpt>
      <trkpt lat="45.23411" lon="5.73424">
        <ele>787.79998779297</ele>
        <time>2021-07-11T04:54:05.000Z</time>
      </trkpt>
      <trkpt lat="45.23411" lon="5.73425">
        <ele>788.40002441406</ele>
        <time>2021-07-11T04:54:06.000Z</time>
      </trkpt>
      <trkpt lat="45.23411" lon="5.73425">
        <ele>788.40002441406</ele>
        <time>2021-07-11T04:54:07.000Z</time>
      </trkpt>
      <trkpt lat="45.23412" lon="5.73426">
        <ele>788.40002441406</ele>
        <time>2021-07-11T04:54:08.000Z</time>
      </trkpt>
      <trkpt lat="45.23413" lon="5.73427">
        <ele>788.59997558594</ele>
        <time>2021-07-11T04:54:09.000Z</time>
      </trkpt>
      <trkpt lat="45.23415" lon="5.73431">
        <ele>789.20001220703</ele>
        <time>2021-07-11T04:54:12.000Z</time>
      </trkpt>
      <trkpt lat="45.23415" lon="5.73431">
        <ele>789.79998779297</ele>
        <time>2021-07-11T04:54:13.000Z</time>
      </trkpt>
      <trkpt lat="45.23415" lon="5.73431">
        <ele>790.40002441406</ele>
        <time>2021-07-11T04:54:14.000Z</time>
      </trkpt>
      <trkpt lat="45.23415" lon="5.73432">
        <ele>790.59997558594</ele>
        <time>2021-07-11T04:54:15.000Z</time>
      </trkpt>
      <trkpt lat="45.23416" lon="5.73436">
        <ele>791</ele>
        <time>2021-07-11T04:54:18.000Z</time>
      </trkpt>
      <trkpt lat="45.23417" lon="5.73442">
        <ele>791.79998779297</ele>
        <time>2021-07-11T04:54:23.000Z</time>
      </trkpt>
      <trkpt lat="45.23417" lon="5.73442">
        <ele>793</ele>
        <time>2021-07-11T04:54:24.000Z</time>
      </trkpt>
      <trkpt lat="45.23418" lon="5.73447">
        <ele>793.59997558594</ele>
        <time>2021-07-11T04:54:29.000Z</time>
      </trkpt>
      <trkpt lat="45.23418" lon="5.73448">
        <ele>794.40002441406</ele>
        <time>2021-07-11T04:54:31.000Z</time>
      </trkpt>
      <trkpt lat="45.23418" lon="5.73451">
        <ele>794.79998779297</ele>
        <time>2021-07-11T04:54:34.000Z</time>
      </trkpt>
      <trkpt lat="45.23418" lon="5.73452">
        <ele>795.20001220703</ele>
        <time>2021-07-11T04:54:35.000Z</time>
      </trkpt>
      <trkpt lat="45.23418" lon="5.73454">
        <ele>795.40002441406</ele>
        <time>2021-07-11T04:54:37.000Z</time>
      </trkpt>
      <trkpt lat="45.2342" lon="5.73458">
        <ele>796.40002441406</ele>
        <time>2021-07-11T04:54:41.000Z</time>
      </trkpt>
      <trkpt lat="45.23422" lon="5.73461">
        <ele>796.40002441406</ele>
        <time>2021-07-11T04:54:43.000Z</time>
      </trkpt>
      <trkpt lat="45.23423" lon="5.73463">
        <ele>796.59997558594</ele>
        <time>2021-07-11T04:54:44.000Z</time>
      </trkpt>
      <trkpt lat="45.23425" lon="5.73466">
        <ele>797.59997558594</ele>
        <time>2021-07-11T04:54:46.000Z</time>
      </trkpt>
      <trkpt lat="45.23424" lon="5.73471">
        <ele>798</ele>
        <time>2021-07-11T04:54:49.000Z</time>
      </trkpt>
      <trkpt lat="45.23426" lon="5.73473">
        <ele>798.59997558594</ele>
        <time>2021-07-11T04:54:52.000Z</time>
      </trkpt>
      <trkpt lat="45.23428" lon="5.73474">
        <ele>799</ele>
        <time>2021-07-11T04:54:53.000Z</time>
      </trkpt>
      <trkpt lat="45.23429" lon="5.73477">
        <ele>799.20001220703</ele>
        <time>2021-07-11T04:54:55.000Z</time>
      </trkpt>
      <trkpt lat="45.2343" lon="5.73478">
        <ele>800</ele>
        <time>2021-07-11T04:54:56.000Z</time>
      </trkpt>
      <trkpt lat="45.23433" lon="5.73482">
        <ele>801.20001220703</ele>
        <time>2021-07-11T04:55:00.000Z</time>
      </trkpt>
      <trkpt lat="45.23434" lon="5.73483">
        <ele>801.40002441406</ele>
        <time>2021-07-11T04:55:01.000Z</time>
      </trkpt>
      <trkpt lat="45.23435" lon="5.73488">
        <ele>802.40002441406</ele>
        <time>2021-07-11T04:55:05.000Z</time>
      </trkpt>
      <trkpt lat="45.23436" lon="5.73489">
        <ele>803</ele>
        <time>2021-07-11T04:55:06.000Z</time>
      </trkpt>
      <trkpt lat="45.23437" lon="5.73489">
        <ele>803.20001220703</ele>
        <time>2021-07-11T04:55:07.000Z</time>
      </trkpt>
      <trkpt lat="45.23438" lon="5.73491">
        <ele>803.59997558594</ele>
        <time>2021-07-11T04:55:09.000Z</time>
      </trkpt>
      <trkpt lat="45.23441" lon="5.73496">
        <ele>805</ele>
        <time>2021-07-11T04:55:14.000Z</time>
      </trkpt>
      <trkpt lat="45.23444" lon="5.73501">
        <ele>806.40002441406</ele>
        <time>2021-07-11T04:55:19.000Z</time>
      </trkpt>
      <trkpt lat="45.23445" lon="5.73503">
        <ele>806.59997558594</ele>
        <time>2021-07-11T04:55:21.000Z</time>
      </trkpt>
      <trkpt lat="45.23446" lon="5.73504">
        <ele>806.59997558594</ele>
        <time>2021-07-11T04:55:22.000Z</time>
      </trkpt>
      <trkpt lat="45.23446" lon="5.73505">
        <ele>806.79998779297</ele>
        <time>2021-07-11T04:55:23.000Z</time>
      </trkpt>
      <trkpt lat="45.23447" lon="5.73509">
        <ele>807.40002441406</ele>
        <time>2021-07-11T04:55:25.000Z</time>
      </trkpt>
      <trkpt lat="45.23448" lon="5.7351">
        <ele>808</ele>
        <time>2021-07-11T04:55:26.000Z</time>
      </trkpt>
      <trkpt lat="45.23448" lon="5.73512">
        <ele>808.20001220703</ele>
        <time>2021-07-11T04:55:27.000Z</time>
      </trkpt>
      <trkpt lat="45.23448" lon="5.73513">
        <ele>808.20001220703</ele>
        <time>2021-07-11T04:55:28.000Z</time>
      </trkpt>
      <trkpt lat="45.23448" lon="5.73516">
        <ele>808.79998779297</ele>
        <time>2021-07-11T04:55:30.000Z</time>
      </trkpt>
      <trkpt lat="45.23449" lon="5.73517">
        <ele>809.20001220703</ele>
        <time>2021-07-11T04:55:31.000Z</time>
      </trkpt>
      <trkpt lat="45.2345" lon="5.73518">
        <ele>809.20001220703</ele>
        <time>2021-07-11T04:55:33.000Z</time>
      </trkpt>
      <trkpt lat="45.2345" lon="5.73519">
        <ele>809.20001220703</ele>
        <time>2021-07-11T04:55:34.000Z</time>
      </trkpt>
      <trkpt lat="45.2345" lon="5.73521">
        <ele>809.20001220703</ele>
        <time>2021-07-11T04:55:36.000Z</time>
      </trkpt>
      <trkpt lat="45.23452" lon="5.73522">
        <ele>809.20001220703</ele>
        <time>2021-07-11T04:55:39.000Z</time>
      </trkpt>
      <trkpt lat="45.23453" lon="5.73524">
        <ele>810.59997558594</ele>
        <time>2021-07-11T04:55:41.000Z</time>
      </trkpt>
      <trkpt lat="45.23454" lon="5.73524">
        <ele>810.59997558594</ele>
        <time>2021-07-11T04:55:42.000Z</time>
      </trkpt>
      <trkpt lat="45.23454" lon="5.73524">
        <ele>810.79998779297</ele>
        <time>2021-07-11T04:55:43.000Z</time>
      </trkpt>
      <trkpt lat="45.23455" lon="5.73527">
        <ele>811.40002441406</ele>
        <time>2021-07-11T04:55:45.000Z</time>
      </trkpt>
      <trkpt lat="45.23456" lon="5.73528">
        <ele>812</ele>
        <time>2021-07-11T04:55:46.000Z</time>
      </trkpt>
      <trkpt lat="45.23457" lon="5.73529">
        <ele>812</ele>
        <time>2021-07-11T04:55:47.000Z</time>
      </trkpt>
      <trkpt lat="45.23457" lon="5.73531">
        <ele>812.20001220703</ele>
        <time>2021-07-11T04:55:49.000Z</time>
      </trkpt>
      <trkpt lat="45.2346" lon="5.73535">
        <ele>813.40002441406</ele>
        <time>2021-07-11T04:55:53.000Z</time>
      </trkpt>
      <trkpt lat="45.2346" lon="5.73536">
        <ele>813.59997558594</ele>
        <time>2021-07-11T04:55:55.000Z</time>
      </trkpt>
      <trkpt lat="45.23461" lon="5.73538">
        <ele>814.40002441406</ele>
        <time>2021-07-11T04:55:57.000Z</time>
      </trkpt>
      <trkpt lat="45.23461" lon="5.73539">
        <ele>815</ele>
        <time>2021-07-11T04:55:59.000Z</time>
      </trkpt>
      <trkpt lat="45.23462" lon="5.73541">
        <ele>815.20001220703</ele>
        <time>2021-07-11T04:56:01.000Z</time>
      </trkpt>
      <trkpt lat="45.23462" lon="5.73542">
        <ele>815.40002441406</ele>
        <time>2021-07-11T04:56:02.000Z</time>
      </trkpt>
      <trkpt lat="45.23463" lon="5.73543">
        <ele>815.79998779297</ele>
        <time>2021-07-11T04:56:03.000Z</time>
      </trkpt>
      <trkpt lat="45.23465" lon="5.73543">
        <ele>816.20001220703</ele>
        <time>2021-07-11T04:56:05.000Z</time>
      </trkpt>
      <trkpt lat="45.23465" lon="5.73543">
        <ele>816.79998779297</ele>
        <time>2021-07-11T04:56:06.000Z</time>
      </trkpt>
      <trkpt lat="45.23466" lon="5.73545">
        <ele>817.20001220703</ele>
        <time>2021-07-11T04:56:08.000Z</time>
      </trkpt>
      <trkpt lat="45.23468" lon="5.73549">
        <ele>817.59997558594</ele>
        <time>2021-07-11T04:56:10.000Z</time>
      </trkpt>
      <trkpt lat="45.23469" lon="5.73551">
        <ele>817.79998779297</ele>
        <time>2021-07-11T04:56:11.000Z</time>
      </trkpt>
      <trkpt lat="45.2347" lon="5.73551">
        <ele>818</ele>
        <time>2021-07-11T04:56:12.000Z</time>
      </trkpt>
      <trkpt lat="45.23472" lon="5.73551">
        <ele>819.40002441406</ele>
        <time>2021-07-11T04:56:15.000Z</time>
      </trkpt>
      <trkpt lat="45.23473" lon="5.73551">
        <ele>819.59997558594</ele>
        <time>2021-07-11T04:56:16.000Z</time>
      </trkpt>
      <trkpt lat="45.23474" lon="5.73551">
        <ele>820</ele>
        <time>2021-07-11T04:56:18.000Z</time>
      </trkpt>
      <trkpt lat="45.23475" lon="5.73552">
        <ele>820.40002441406</ele>
        <time>2021-07-11T04:56:19.000Z</time>
      </trkpt>
      <trkpt lat="45.23477" lon="5.73554">
        <ele>821</ele>
        <time>2021-07-11T04:56:21.000Z</time>
      </trkpt>
      <trkpt lat="45.23477" lon="5.73553">
        <ele>821.40002441406</ele>
        <time>2021-07-11T04:56:22.000Z</time>
      </trkpt>
      <trkpt lat="45.23478" lon="5.73554">
        <ele>822.79998779297</ele>
        <time>2021-07-11T04:56:25.000Z</time>
      </trkpt>
      <trkpt lat="45.23478" lon="5.73555">
        <ele>823</ele>
        <time>2021-07-11T04:56:26.000Z</time>
      </trkpt>
      <trkpt lat="45.23479" lon="5.73556">
        <ele>823</ele>
        <time>2021-07-11T04:56:27.000Z</time>
      </trkpt>
      <trkpt lat="45.23479" lon="5.73557">
        <ele>823.20001220703</ele>
        <time>2021-07-11T04:56:28.000Z</time>
      </trkpt>
      <trkpt lat="45.23481" lon="5.73559">
        <ele>824.40002441406</ele>
        <time>2021-07-11T04:56:31.000Z</time>
      </trkpt>
      <trkpt lat="45.23481" lon="5.73561">
        <ele>825</ele>
        <time>2021-07-11T04:56:33.000Z</time>
      </trkpt>
      <trkpt lat="45.23482" lon="5.73562">
        <ele>825.20001220703</ele>
        <time>2021-07-11T04:56:34.000Z</time>
      </trkpt>
      <trkpt lat="45.23482" lon="5.73564">
        <ele>825.40002441406</ele>
        <time>2021-07-11T04:56:36.000Z</time>
      </trkpt>
      <trkpt lat="45.23483" lon="5.73564">
        <ele>826.40002441406</ele>
        <time>2021-07-11T04:56:38.000Z</time>
      </trkpt>
      <trkpt lat="45.23484" lon="5.73567">
        <ele>826.79998779297</ele>
        <time>2021-07-11T04:56:40.000Z</time>
      </trkpt>
      <trkpt lat="45.23484" lon="5.73568">
        <ele>826.79998779297</ele>
        <time>2021-07-11T04:56:41.000Z</time>
      </trkpt>
      <trkpt lat="45.23485" lon="5.73571">
        <ele>828</ele>
        <time>2021-07-11T04:56:44.000Z</time>
      </trkpt>
      <trkpt lat="45.23488" lon="5.73576">
        <ele>829.20001220703</ele>
        <time>2021-07-11T04:56:48.000Z</time>
      </trkpt>
      <trkpt lat="45.2349" lon="5.73582">
        <ele>830.20001220703</ele>
        <time>2021-07-11T04:56:52.000Z</time>
      </trkpt>
      <trkpt lat="45.2349" lon="5.73583">
        <ele>830.59997558594</ele>
        <time>2021-07-11T04:56:53.000Z</time>
      </trkpt>
      <trkpt lat="45.2349" lon="5.73583">
        <ele>831.40002441406</ele>
        <time>2021-07-11T04:56:54.000Z</time>
      </trkpt>
      <trkpt lat="45.23491" lon="5.73583">
        <ele>832.20001220703</ele>
        <time>2021-07-11T04:56:58.000Z</time>
      </trkpt>
      <trkpt lat="45.23492" lon="5.73584">
        <ele>832.59997558594</ele>
        <time>2021-07-11T04:56:59.000Z</time>
      </trkpt>
      <trkpt lat="45.23495" lon="5.73583">
        <ele>833.40002441406</ele>
        <time>2021-07-11T04:57:03.000Z</time>
      </trkpt>
      <trkpt lat="45.23495" lon="5.73583">
        <ele>834.20001220703</ele>
        <time>2021-07-11T04:57:04.000Z</time>
      </trkpt>
      <trkpt lat="45.23496" lon="5.73584">
        <ele>834.40002441406</ele>
        <time>2021-07-11T04:57:05.000Z</time>
      </trkpt>
      <trkpt lat="45.23497" lon="5.73584">
        <ele>834.40002441406</ele>
        <time>2021-07-11T04:57:06.000Z</time>
      </trkpt>
      <trkpt lat="45.23498" lon="5.73587">
        <ele>834.59997558594</ele>
        <time>2021-07-11T04:57:08.000Z</time>
      </trkpt>
      <trkpt lat="45.23501" lon="5.73589">
        <ele>835</ele>
        <time>2021-07-11T04:57:11.000Z</time>
      </trkpt>
      <trkpt lat="45.23506" lon="5.73591">
        <ele>835.20001220703</ele>
        <time>2021-07-11T04:57:16.000Z</time>
      </trkpt>
      <trkpt lat="45.23507" lon="5.73592">
        <ele>835.20001220703</ele>
        <time>2021-07-11T04:57:17.000Z</time>
      </trkpt>
      <trkpt lat="45.23509" lon="5.73595">
        <ele>835.40002441406</ele>
        <time>2021-07-11T04:57:19.000Z</time>
      </trkpt>
      <trkpt lat="45.23512" lon="5.73599">
        <ele>836.40002441406</ele>
        <time>2021-07-11T04:57:22.000Z</time>
      </trkpt>
      <trkpt lat="45.23513" lon="5.736">
        <ele>836.79998779297</ele>
        <time>2021-07-11T04:57:24.000Z</time>
      </trkpt>
      <trkpt lat="45.23515" lon="5.736">
        <ele>837</ele>
        <time>2021-07-11T04:57:26.000Z</time>
      </trkpt>
      <trkpt lat="45.23515" lon="5.73601">
        <ele>837.59997558594</ele>
        <time>2021-07-11T04:57:27.000Z</time>
      </trkpt>
      <trkpt lat="45.23517" lon="5.73602">
        <ele>838.40002441406</ele>
        <time>2021-07-11T04:57:29.000Z</time>
      </trkpt>
      <trkpt lat="45.23519" lon="5.73605">
        <ele>838.59997558594</ele>
        <time>2021-07-11T04:57:32.000Z</time>
      </trkpt>
      <trkpt lat="45.23519" lon="5.73605">
        <ele>839.20001220703</ele>
        <time>2021-07-11T04:57:33.000Z</time>
      </trkpt>
      <trkpt lat="45.2352" lon="5.73605">
        <ele>839.79998779297</ele>
        <time>2021-07-11T04:57:34.000Z</time>
      </trkpt>
      <trkpt lat="45.23523" lon="5.73609">
        <ele>840.20001220703</ele>
        <time>2021-07-11T04:57:37.000Z</time>
      </trkpt>
      <trkpt lat="45.23524" lon="5.73608">
        <ele>840.79998779297</ele>
        <time>2021-07-11T04:57:39.000Z</time>
      </trkpt>
      <trkpt lat="45.23525" lon="5.73608">
        <ele>841.40002441406</ele>
        <time>2021-07-11T04:57:40.000Z</time>
      </trkpt>
      <trkpt lat="45.23525" lon="5.73608">
        <ele>841.40002441406</ele>
        <time>2021-07-11T04:57:41.000Z</time>
      </trkpt>
      <trkpt lat="45.23526" lon="5.7361">
        <ele>841.79998779297</ele>
        <time>2021-07-11T04:57:43.000Z</time>
      </trkpt>
      <trkpt lat="45.23527" lon="5.73611">
        <ele>841.79998779297</ele>
        <time>2021-07-11T04:57:44.000Z</time>
      </trkpt>
      <trkpt lat="45.23529" lon="5.73612">
        <ele>842.59997558594</ele>
        <time>2021-07-11T04:57:47.000Z</time>
      </trkpt>
      <trkpt lat="45.23529" lon="5.73613">
        <ele>842.79998779297</ele>
        <time>2021-07-11T04:57:48.000Z</time>
      </trkpt>
      <trkpt lat="45.23531" lon="5.73617">
        <ele>844</ele>
        <time>2021-07-11T04:57:51.000Z</time>
      </trkpt>
      <trkpt lat="45.23531" lon="5.73617">
        <ele>844</ele>
        <time>2021-07-11T04:57:52.000Z</time>
      </trkpt>
      <trkpt lat="45.23531" lon="5.73619">
        <ele>844.40002441406</ele>
        <time>2021-07-11T04:57:53.000Z</time>
      </trkpt>
      <trkpt lat="45.23534" lon="5.73623">
        <ele>845</ele>
        <time>2021-07-11T04:57:56.000Z</time>
      </trkpt>
      <trkpt lat="45.23535" lon="5.73623">
        <ele>845.20001220703</ele>
        <time>2021-07-11T04:57:57.000Z</time>
      </trkpt>
      <trkpt lat="45.23537" lon="5.73623">
        <ele>846</ele>
        <time>2021-07-11T04:57:59.000Z</time>
      </trkpt>
      <trkpt lat="45.23539" lon="5.73627">
        <ele>846.40002441406</ele>
        <time>2021-07-11T04:58:02.000Z</time>
      </trkpt>
      <trkpt lat="45.2354" lon="5.73627">
        <ele>847.20001220703</ele>
        <time>2021-07-11T04:58:03.000Z</time>
      </trkpt>
      <trkpt lat="45.2354" lon="5.73629">
        <ele>847.20001220703</ele>
        <time>2021-07-11T04:58:05.000Z</time>
      </trkpt>
      <trkpt lat="45.23543" lon="5.73629">
        <ele>848.40002441406</ele>
        <time>2021-07-11T04:58:08.000Z</time>
      </trkpt>
      <trkpt lat="45.23544" lon="5.7363">
        <ele>848.79998779297</ele>
        <time>2021-07-11T04:58:09.000Z</time>
      </trkpt>
      <trkpt lat="45.23546" lon="5.73632">
        <ele>849</ele>
        <time>2021-07-11T04:58:11.000Z</time>
      </trkpt>
      <trkpt lat="45.23546" lon="5.73632">
        <ele>849.59997558594</ele>
        <time>2021-07-11T04:58:12.000Z</time>
      </trkpt>
      <trkpt lat="45.23549" lon="5.73634">
        <ele>850.20001220703</ele>
        <time>2021-07-11T04:58:16.000Z</time>
      </trkpt>
      <trkpt lat="45.23551" lon="5.73636">
        <ele>851</ele>
        <time>2021-07-11T04:58:18.000Z</time>
      </trkpt>
      <trkpt lat="45.23553" lon="5.73639">
        <ele>852</ele>
        <time>2021-07-11T04:58:20.000Z</time>
      </trkpt>
      <trkpt lat="45.23554" lon="5.73641">
        <ele>852.40002441406</ele>
        <time>2021-07-11T04:58:22.000Z</time>
      </trkpt>
      <trkpt lat="45.23556" lon="5.73641">
        <ele>852.79998779297</ele>
        <time>2021-07-11T04:58:24.000Z</time>
      </trkpt>
      <trkpt lat="45.23558" lon="5.73641">
        <ele>853.20001220703</ele>
        <time>2021-07-11T04:58:26.000Z</time>
      </trkpt>
      <trkpt lat="45.23559" lon="5.73642">
        <ele>853.59997558594</ele>
        <time>2021-07-11T04:58:28.000Z</time>
      </trkpt>
      <trkpt lat="45.2356" lon="5.73643">
        <ele>854</ele>
        <time>2021-07-11T04:58:30.000Z</time>
      </trkpt>
      <trkpt lat="45.2356" lon="5.73643">
        <ele>854.59997558594</ele>
        <time>2021-07-11T04:58:31.000Z</time>
      </trkpt>
      <trkpt lat="45.23561" lon="5.73644">
        <ele>854.79998779297</ele>
        <time>2021-07-11T04:58:32.000Z</time>
      </trkpt>
      <trkpt lat="45.23562" lon="5.73644">
        <ele>855.59997558594</ele>
        <time>2021-07-11T04:58:35.000Z</time>
      </trkpt>
      <trkpt lat="45.23563" lon="5.73644">
        <ele>856.40002441406</ele>
        <time>2021-07-11T04:58:38.000Z</time>
      </trkpt>
      <trkpt lat="45.23564" lon="5.73645">
        <ele>856.79998779297</ele>
        <time>2021-07-11T04:58:39.000Z</time>
      </trkpt>
      <trkpt lat="45.23566" lon="5.73647">
        <ele>857</ele>
        <time>2021-07-11T04:58:41.000Z</time>
      </trkpt>
      <trkpt lat="45.23567" lon="5.73652">
        <ele>858</ele>
        <time>2021-07-11T04:58:44.000Z</time>
      </trkpt>
      <trkpt lat="45.23567" lon="5.73654">
        <ele>859</ele>
        <time>2021-07-11T04:58:46.000Z</time>
      </trkpt>
      <trkpt lat="45.23568" lon="5.73654">
        <ele>859</ele>
        <time>2021-07-11T04:58:47.000Z</time>
      </trkpt>
      <trkpt lat="45.23569" lon="5.73656">
        <ele>860.20001220703</ele>
        <time>2021-07-11T04:58:50.000Z</time>
      </trkpt>
      <trkpt lat="45.2357" lon="5.73656">
        <ele>860.40002441406</ele>
        <time>2021-07-11T04:58:51.000Z</time>
      </trkpt>
      <trkpt lat="45.23571" lon="5.73657">
        <ele>860.59997558594</ele>
        <time>2021-07-11T04:58:53.000Z</time>
      </trkpt>
      <trkpt lat="45.23571" lon="5.73658">
        <ele>861</ele>
        <time>2021-07-11T04:58:54.000Z</time>
      </trkpt>
      <trkpt lat="45.23572" lon="5.73658">
        <ele>861.40002441406</ele>
        <time>2021-07-11T04:58:55.000Z</time>
      </trkpt>
      <trkpt lat="45.23574" lon="5.73659">
        <ele>862.40002441406</ele>
        <time>2021-07-11T04:58:58.000Z</time>
      </trkpt>
      <trkpt lat="45.23575" lon="5.73666">
        <ele>863.40002441406</ele>
        <time>2021-07-11T04:59:02.000Z</time>
      </trkpt>
      <trkpt lat="45.23576" lon="5.73665">
        <ele>864.20001220703</ele>
        <time>2021-07-11T04:59:04.000Z</time>
      </trkpt>
      <trkpt lat="45.23576" lon="5.73665">
        <ele>864.59997558594</ele>
        <time>2021-07-11T04:59:05.000Z</time>
      </trkpt>
      <trkpt lat="45.23577" lon="5.73666">
        <ele>865.20001220703</ele>
        <time>2021-07-11T04:59:07.000Z</time>
      </trkpt>
      <trkpt lat="45.23578" lon="5.73665">
        <ele>865.59997558594</ele>
        <time>2021-07-11T04:59:08.000Z</time>
      </trkpt>
      <trkpt lat="45.2358" lon="5.73665">
        <ele>866.20001220703</ele>
        <time>2021-07-11T04:59:11.000Z</time>
      </trkpt>
      <trkpt lat="45.23582" lon="5.73666">
        <ele>866.79998779297</ele>
        <time>2021-07-11T04:59:14.000Z</time>
      </trkpt>
      <trkpt lat="45.23584" lon="5.73667">
        <ele>867.79998779297</ele>
        <time>2021-07-11T04:59:16.000Z</time>
      </trkpt>
      <trkpt lat="45.23584" lon="5.73667">
        <ele>868.20001220703</ele>
        <time>2021-07-11T04:59:17.000Z</time>
      </trkpt>
      <trkpt lat="45.23587" lon="5.73668">
        <ele>868.79998779297</ele>
        <time>2021-07-11T04:59:20.000Z</time>
      </trkpt>
      <trkpt lat="45.23588" lon="5.73669">
        <ele>869.59997558594</ele>
        <time>2021-07-11T04:59:23.000Z</time>
      </trkpt>
      <trkpt lat="45.23589" lon="5.73671">
        <ele>870.20001220703</ele>
        <time>2021-07-11T04:59:24.000Z</time>
      </trkpt>
      <trkpt lat="45.23589" lon="5.73676">
        <ele>871</ele>
        <time>2021-07-11T04:59:27.000Z</time>
      </trkpt>
      <trkpt lat="45.2359" lon="5.73679">
        <ele>871.40002441406</ele>
        <time>2021-07-11T04:59:28.000Z</time>
      </trkpt>
      <trkpt lat="45.23591" lon="5.73679">
        <ele>872.59997558594</ele>
        <time>2021-07-11T04:59:31.000Z</time>
      </trkpt>
      <trkpt lat="45.23594" lon="5.73681">
        <ele>873.79998779297</ele>
        <time>2021-07-11T04:59:35.000Z</time>
      </trkpt>
      <trkpt lat="45.23595" lon="5.73682">
        <ele>875</ele>
        <time>2021-07-11T04:59:38.000Z</time>
      </trkpt>
      <trkpt lat="45.23595" lon="5.73685">
        <ele>875.59997558594</ele>
        <time>2021-07-11T04:59:41.000Z</time>
      </trkpt>
      <trkpt lat="45.23595" lon="5.73686">
        <ele>875.59997558594</ele>
        <time>2021-07-11T04:59:42.000Z</time>
      </trkpt>
      <trkpt lat="45.23595" lon="5.73688">
        <ele>876</ele>
        <time>2021-07-11T04:59:44.000Z</time>
      </trkpt>
      <trkpt lat="45.23595" lon="5.73688">
        <ele>876.20001220703</ele>
        <time>2021-07-11T04:59:45.000Z</time>
      </trkpt>
      <trkpt lat="45.23596" lon="5.73688">
        <ele>876.40002441406</ele>
        <time>2021-07-11T04:59:46.000Z</time>
      </trkpt>
      <trkpt lat="45.23598" lon="5.73691">
        <ele>877.40002441406</ele>
        <time>2021-07-11T04:59:50.000Z</time>
      </trkpt>
      <trkpt lat="45.236" lon="5.73694">
        <ele>878.59997558594</ele>
        <time>2021-07-11T04:59:53.000Z</time>
      </trkpt>
      <trkpt lat="45.236" lon="5.73694">
        <ele>879</ele>
        <time>2021-07-11T04:59:54.000Z</time>
      </trkpt>
      <trkpt lat="45.23601" lon="5.73694">
        <ele>879.20001220703</ele>
        <time>2021-07-11T04:59:55.000Z</time>
      </trkpt>
      <trkpt lat="45.23602" lon="5.73695">
        <ele>880</ele>
        <time>2021-07-11T04:59:56.000Z</time>
      </trkpt>
      <trkpt lat="45.23604" lon="5.73697">
        <ele>881</ele>
        <time>2021-07-11T04:59:59.000Z</time>
      </trkpt>
      <trkpt lat="45.23604" lon="5.73697">
        <ele>881</ele>
        <time>2021-07-11T05:00:00.000Z</time>
      </trkpt>
      <trkpt lat="45.23604" lon="5.73697">
        <ele>881</ele>
        <time>2021-07-11T05:00:01.000Z</time>
      </trkpt>
      <trkpt lat="45.23604" lon="5.73698">
        <ele>882</ele>
        <time>2021-07-11T05:00:03.000Z</time>
      </trkpt>
      <trkpt lat="45.23604" lon="5.73699">
        <ele>882.59997558594</ele>
        <time>2021-07-11T05:00:05.000Z</time>
      </trkpt>
      <trkpt lat="45.23606" lon="5.737">
        <ele>882.79998779297</ele>
        <time>2021-07-11T05:00:07.000Z</time>
      </trkpt>
      <trkpt lat="45.23608" lon="5.737">
        <ele>883.59997558594</ele>
        <time>2021-07-11T05:00:10.000Z</time>
      </trkpt>
      <trkpt lat="45.2361" lon="5.73701">
        <ele>884.59997558594</ele>
        <time>2021-07-11T05:00:13.000Z</time>
      </trkpt>
      <trkpt lat="45.23612" lon="5.73705">
        <ele>886</ele>
        <time>2021-07-11T05:00:17.000Z</time>
      </trkpt>
      <trkpt lat="45.23612" lon="5.73706">
        <ele>886.40002441406</ele>
        <time>2021-07-11T05:00:19.000Z</time>
      </trkpt>
      <trkpt lat="45.23614" lon="5.73708">
        <ele>886.79998779297</ele>
        <time>2021-07-11T05:00:21.000Z</time>
      </trkpt>
      <trkpt lat="45.23615" lon="5.7371">
        <ele>887.40002441406</ele>
        <time>2021-07-11T05:00:23.000Z</time>
      </trkpt>
      <trkpt lat="45.23616" lon="5.7371">
        <ele>887.59997558594</ele>
        <time>2021-07-11T05:00:24.000Z</time>
      </trkpt>
      <trkpt lat="45.23616" lon="5.73711">
        <ele>887.59997558594</ele>
        <time>2021-07-11T05:00:25.000Z</time>
      </trkpt>
      <trkpt lat="45.23617" lon="5.73712">
        <ele>888.79998779297</ele>
        <time>2021-07-11T05:00:27.000Z</time>
      </trkpt>
      <trkpt lat="45.23617" lon="5.73712">
        <ele>889.40002441406</ele>
        <time>2021-07-11T05:00:28.000Z</time>
      </trkpt>
      <trkpt lat="45.23618" lon="5.73714">
        <ele>889.79998779297</ele>
        <time>2021-07-11T05:00:30.000Z</time>
      </trkpt>
      <trkpt lat="45.23621" lon="5.73717">
        <ele>890.59997558594</ele>
        <time>2021-07-11T05:00:34.000Z</time>
      </trkpt>
      <trkpt lat="45.23622" lon="5.73719">
        <ele>890.79998779297</ele>
        <time>2021-07-11T05:00:35.000Z</time>
      </trkpt>
      <trkpt lat="45.23624" lon="5.73723">
        <ele>891.79998779297</ele>
        <time>2021-07-11T05:00:40.000Z</time>
      </trkpt>
      <trkpt lat="45.23626" lon="5.73723">
        <ele>892</ele>
        <time>2021-07-11T05:00:41.000Z</time>
      </trkpt>
      <trkpt lat="45.23627" lon="5.73723">
        <ele>893.59997558594</ele>
        <time>2021-07-11T05:00:44.000Z</time>
      </trkpt>
      <trkpt lat="45.23628" lon="5.73723">
        <ele>893.59997558594</ele>
        <time>2021-07-11T05:00:46.000Z</time>
      </trkpt>
      <trkpt lat="45.23628" lon="5.73725">
        <ele>894.59997558594</ele>
        <time>2021-07-11T05:00:49.000Z</time>
      </trkpt>
      <trkpt lat="45.2363" lon="5.73728">
        <ele>895</ele>
        <time>2021-07-11T05:00:52.000Z</time>
      </trkpt>
      <trkpt lat="45.23631" lon="5.7373">
        <ele>895.79998779297</ele>
        <time>2021-07-11T05:00:54.000Z</time>
      </trkpt>
      <trkpt lat="45.23632" lon="5.73731">
        <ele>897</ele>
        <time>2021-07-11T05:00:56.000Z</time>
      </trkpt>
      <trkpt lat="45.23633" lon="5.73732">
        <ele>897.20001220703</ele>
        <time>2021-07-11T05:00:58.000Z</time>
      </trkpt>
      <trkpt lat="45.23633" lon="5.73732">
        <ele>897.59997558594</ele>
        <time>2021-07-11T05:00:59.000Z</time>
      </trkpt>
      <trkpt lat="45.23634" lon="5.73732">
        <ele>898</ele>
        <time>2021-07-11T05:01:01.000Z</time>
      </trkpt>
      <trkpt lat="45.23636" lon="5.73735">
        <ele>899</ele>
        <time>2021-07-11T05:01:05.000Z</time>
      </trkpt>
      <trkpt lat="45.23637" lon="5.73738">
        <ele>900.20001220703</ele>
        <time>2021-07-11T05:01:08.000Z</time>
      </trkpt>
      <trkpt lat="45.23638" lon="5.73738">
        <ele>900.79998779297</ele>
        <time>2021-07-11T05:01:10.000Z</time>
      </trkpt>
      <trkpt lat="45.23639" lon="5.73739">
        <ele>901</ele>
        <time>2021-07-11T05:01:12.000Z</time>
      </trkpt>
      <trkpt lat="45.23639" lon="5.73739">
        <ele>901.20001220703</ele>
        <time>2021-07-11T05:01:13.000Z</time>
      </trkpt>
      <trkpt lat="45.2364" lon="5.73741">
        <ele>902.40002441406</ele>
        <time>2021-07-11T05:01:16.000Z</time>
      </trkpt>
      <trkpt lat="45.23643" lon="5.73744">
        <ele>902.79998779297</ele>
        <time>2021-07-11T05:01:19.000Z</time>
      </trkpt>
      <trkpt lat="45.23645" lon="5.73751">
        <ele>903.59997558594</ele>
        <time>2021-07-11T05:01:22.000Z</time>
      </trkpt>
      <trkpt lat="45.23647" lon="5.73754">
        <ele>904.59997558594</ele>
        <time>2021-07-11T05:01:24.000Z</time>
      </trkpt>
      <trkpt lat="45.23648" lon="5.73756">
        <ele>904.79998779297</ele>
        <time>2021-07-11T05:01:25.000Z</time>
      </trkpt>
      <trkpt lat="45.23649" lon="5.73759">
        <ele>905.59997558594</ele>
        <time>2021-07-11T05:01:28.000Z</time>
      </trkpt>
      <trkpt lat="45.23651" lon="5.73763">
        <ele>906.20001220703</ele>
        <time>2021-07-11T05:01:31.000Z</time>
      </trkpt>
      <trkpt lat="45.23651" lon="5.73765">
        <ele>906.79998779297</ele>
        <time>2021-07-11T05:01:33.000Z</time>
      </trkpt>
      <trkpt lat="45.23653" lon="5.73767">
        <ele>908</ele>
        <time>2021-07-11T05:01:37.000Z</time>
      </trkpt>
      <trkpt lat="45.23653" lon="5.73774">
        <ele>909.20001220703</ele>
        <time>2021-07-11T05:01:43.000Z</time>
      </trkpt>
      <trkpt lat="45.23654" lon="5.73776">
        <ele>910.20001220703</ele>
        <time>2021-07-11T05:01:45.000Z</time>
      </trkpt>
      <trkpt lat="45.23656" lon="5.73783">
        <ele>911</ele>
        <time>2021-07-11T05:01:49.000Z</time>
      </trkpt>
      <trkpt lat="45.23658" lon="5.73787">
        <ele>911.59997558594</ele>
        <time>2021-07-11T05:01:52.000Z</time>
      </trkpt>
      <trkpt lat="45.23658" lon="5.73788">
        <ele>911.59997558594</ele>
        <time>2021-07-11T05:01:53.000Z</time>
      </trkpt>
      <trkpt lat="45.23658" lon="5.73789">
        <ele>911.59997558594</ele>
        <time>2021-07-11T05:01:54.000Z</time>
      </trkpt>
      <trkpt lat="45.2366" lon="5.73792">
        <ele>912.79998779297</ele>
        <time>2021-07-11T05:01:56.000Z</time>
      </trkpt>
      <trkpt lat="45.2366" lon="5.73793">
        <ele>912.79998779297</ele>
        <time>2021-07-11T05:01:57.000Z</time>
      </trkpt>
      <trkpt lat="45.23661" lon="5.73796">
        <ele>913.20001220703</ele>
        <time>2021-07-11T05:01:59.000Z</time>
      </trkpt>
      <trkpt lat="45.23662" lon="5.73797">
        <ele>913.20001220703</ele>
        <time>2021-07-11T05:02:00.000Z</time>
      </trkpt>
      <trkpt lat="45.23664" lon="5.73802">
        <ele>913.59997558594</ele>
        <time>2021-07-11T05:02:02.000Z</time>
      </trkpt>
      <trkpt lat="45.23664" lon="5.73803">
        <ele>914</ele>
        <time>2021-07-11T05:02:03.000Z</time>
      </trkpt>
      <trkpt lat="45.23665" lon="5.73805">
        <ele>914.20001220703</ele>
        <time>2021-07-11T05:02:04.000Z</time>
      </trkpt>
      <trkpt lat="45.23665" lon="5.73807">
        <ele>914.40002441406</ele>
        <time>2021-07-11T05:02:05.000Z</time>
      </trkpt>
      <trkpt lat="45.23666" lon="5.73808">
        <ele>914.40002441406</ele>
        <time>2021-07-11T05:02:06.000Z</time>
      </trkpt>
      <trkpt lat="45.23668" lon="5.73811">
        <ele>915</ele>
        <time>2021-07-11T05:02:08.000Z</time>
      </trkpt>
      <trkpt lat="45.23671" lon="5.7382">
        <ele>916.20001220703</ele>
        <time>2021-07-11T05:02:12.000Z</time>
      </trkpt>
      <trkpt lat="45.23672" lon="5.73822">
        <ele>916.40002441406</ele>
        <time>2021-07-11T05:02:13.000Z</time>
      </trkpt>
      <trkpt lat="45.23674" lon="5.73828">
        <ele>917.40002441406</ele>
        <time>2021-07-11T05:02:17.000Z</time>
      </trkpt>
      <trkpt lat="45.23675" lon="5.73829">
        <ele>917.79998779297</ele>
        <time>2021-07-11T05:02:18.000Z</time>
      </trkpt>
      <trkpt lat="45.23676" lon="5.7383">
        <ele>918</ele>
        <time>2021-07-11T05:02:19.000Z</time>
      </trkpt>
      <trkpt lat="45.23677" lon="5.73831">
        <ele>918.20001220703</ele>
        <time>2021-07-11T05:02:20.000Z</time>
      </trkpt>
      <trkpt lat="45.23678" lon="5.73833">
        <ele>918.40002441406</ele>
        <time>2021-07-11T05:02:21.000Z</time>
      </trkpt>
      <trkpt lat="45.2368" lon="5.73834">
        <ele>919.20001220703</ele>
        <time>2021-07-11T05:02:23.000Z</time>
      </trkpt>
      <trkpt lat="45.23681" lon="5.73835">
        <ele>919.40002441406</ele>
        <time>2021-07-11T05:02:25.000Z</time>
      </trkpt>
      <trkpt lat="45.23681" lon="5.73836">
        <ele>919.79998779297</ele>
        <time>2021-07-11T05:02:26.000Z</time>
      </trkpt>
      <trkpt lat="45.23683" lon="5.73839">
        <ele>920.40002441406</ele>
        <time>2021-07-11T05:02:29.000Z</time>
      </trkpt>
      <trkpt lat="45.23684" lon="5.7384">
        <ele>920.59997558594</ele>
        <time>2021-07-11T05:02:30.000Z</time>
      </trkpt>
      <trkpt lat="45.23685" lon="5.73842">
        <ele>921</ele>
        <time>2021-07-11T05:02:31.000Z</time>
      </trkpt>
      <trkpt lat="45.23686" lon="5.73846">
        <ele>921.40002441406</ele>
        <time>2021-07-11T05:02:33.000Z</time>
      </trkpt>
      <trkpt lat="45.23687" lon="5.73849">
        <ele>921.79998779297</ele>
        <time>2021-07-11T05:02:35.000Z</time>
      </trkpt>
      <trkpt lat="45.23688" lon="5.73852">
        <ele>922.59997558594</ele>
        <time>2021-07-11T05:02:37.000Z</time>
      </trkpt>
      <trkpt lat="45.23688" lon="5.73853">
        <ele>922.59997558594</ele>
        <time>2021-07-11T05:02:38.000Z</time>
      </trkpt>
      <trkpt lat="45.23689" lon="5.73855">
        <ele>922.79998779297</ele>
        <time>2021-07-11T05:02:39.000Z</time>
      </trkpt>
      <trkpt lat="45.2369" lon="5.73858">
        <ele>924</ele>
        <time>2021-07-11T05:02:42.000Z</time>
      </trkpt>
      <trkpt lat="45.23693" lon="5.73865">
        <ele>924.40002441406</ele>
        <time>2021-07-11T05:02:46.000Z</time>
      </trkpt>
      <trkpt lat="45.23694" lon="5.73868">
        <ele>924.40002441406</ele>
        <time>2021-07-11T05:02:47.000Z</time>
      </trkpt>
      <trkpt lat="45.23699" lon="5.7388">
        <ele>923.79998779297</ele>
        <time>2021-07-11T05:02:54.000Z</time>
      </trkpt>
      <trkpt lat="45.23707" lon="5.73896">
        <ele>924.40002441406</ele>
        <time>2021-07-11T05:03:02.000Z</time>
      </trkpt>
      <trkpt lat="45.23708" lon="5.73899">
        <ele>925</ele>
        <time>2021-07-11T05:03:04.000Z</time>
      </trkpt>
      <trkpt lat="45.23716" lon="5.73907">
        <ele>925.20001220703</ele>
        <time>2021-07-11T05:03:08.000Z</time>
      </trkpt>
      <trkpt lat="45.23717" lon="5.7391">
        <ele>925.20001220703</ele>
        <time>2021-07-11T05:03:10.000Z</time>
      </trkpt>
      <trkpt lat="45.23721" lon="5.73914">
        <ele>925.40002441406</ele>
        <time>2021-07-11T05:03:13.000Z</time>
      </trkpt>
      <trkpt lat="45.23733" lon="5.73929">
        <ele>926</ele>
        <time>2021-07-11T05:03:21.000Z</time>
      </trkpt>
      <trkpt lat="45.23742" lon="5.7394">
        <ele>926.79998779297</ele>
        <time>2021-07-11T05:03:26.000Z</time>
      </trkpt>
      <trkpt lat="45.23745" lon="5.73943">
        <ele>927</ele>
        <time>2021-07-11T05:03:28.000Z</time>
      </trkpt>
      <trkpt lat="45.23747" lon="5.73945">
        <ele>927.40002441406</ele>
        <time>2021-07-11T05:03:29.000Z</time>
      </trkpt>
      <trkpt lat="45.23751" lon="5.73949">
        <ele>927.59997558594</ele>
        <time>2021-07-11T05:03:32.000Z</time>
      </trkpt>
      <trkpt lat="45.23752" lon="5.7395">
        <ele>927.79998779297</ele>
        <time>2021-07-11T05:03:33.000Z</time>
      </trkpt>
      <trkpt lat="45.23755" lon="5.73954">
        <ele>928.20001220703</ele>
        <time>2021-07-11T05:03:35.000Z</time>
      </trkpt>
      <trkpt lat="45.23757" lon="5.73956">
        <ele>928.59997558594</ele>
        <time>2021-07-11T05:03:36.000Z</time>
      </trkpt>
      <trkpt lat="45.23759" lon="5.73959">
        <ele>929</ele>
        <time>2021-07-11T05:03:38.000Z</time>
      </trkpt>
      <trkpt lat="45.2376" lon="5.73961">
        <ele>929.20001220703</ele>
        <time>2021-07-11T05:03:39.000Z</time>
      </trkpt>
      <trkpt lat="45.23761" lon="5.73962">
        <ele>929.59997558594</ele>
        <time>2021-07-11T05:03:40.000Z</time>
      </trkpt>
      <trkpt lat="45.23761" lon="5.73964">
        <ele>929.59997558594</ele>
        <time>2021-07-11T05:03:41.000Z</time>
      </trkpt>
      <trkpt lat="45.23762" lon="5.73971">
        <ele>930</ele>
        <time>2021-07-11T05:03:45.000Z</time>
      </trkpt>
      <trkpt lat="45.23763" lon="5.73977">
        <ele>930.59997558594</ele>
        <time>2021-07-11T05:03:47.000Z</time>
      </trkpt>
      <trkpt lat="45.23765" lon="5.73988">
        <ele>930.59997558594</ele>
        <time>2021-07-11T05:03:51.000Z</time>
      </trkpt>
      <trkpt lat="45.23766" lon="5.73994">
        <ele>931.20001220703</ele>
        <time>2021-07-11T05:03:53.000Z</time>
      </trkpt>
      <trkpt lat="45.23767" lon="5.73999">
        <ele>931.59997558594</ele>
        <time>2021-07-11T05:03:55.000Z</time>
      </trkpt>
      <trkpt lat="45.23768" lon="5.74002">
        <ele>932</ele>
        <time>2021-07-11T05:03:56.000Z</time>
      </trkpt>
      <trkpt lat="45.23769" lon="5.74007">
        <ele>932</ele>
        <time>2021-07-11T05:03:58.000Z</time>
      </trkpt>
      <trkpt lat="45.23771" lon="5.74013">
        <ele>932</ele>
        <time>2021-07-11T05:04:00.000Z</time>
      </trkpt>
      <trkpt lat="45.23775" lon="5.74031">
        <ele>933</ele>
        <time>2021-07-11T05:04:06.000Z</time>
      </trkpt>
      <trkpt lat="45.23777" lon="5.74042">
        <ele>934</ele>
        <time>2021-07-11T05:04:10.000Z</time>
      </trkpt>
      <trkpt lat="45.23777" lon="5.74044">
        <ele>934</ele>
        <time>2021-07-11T05:04:11.000Z</time>
      </trkpt>
      <trkpt lat="45.23777" lon="5.74046">
        <ele>934.40002441406</ele>
        <time>2021-07-11T05:04:12.000Z</time>
      </trkpt>
      <trkpt lat="45.23777" lon="5.74048">
        <ele>934.59997558594</ele>
        <time>2021-07-11T05:04:13.000Z</time>
      </trkpt>
      <trkpt lat="45.23778" lon="5.74053">
        <ele>935.20001220703</ele>
        <time>2021-07-11T05:04:15.000Z</time>
      </trkpt>
      <trkpt lat="45.23778" lon="5.74055">
        <ele>935.20001220703</ele>
        <time>2021-07-11T05:04:16.000Z</time>
      </trkpt>
      <trkpt lat="45.23779" lon="5.74057">
        <ele>935.20001220703</ele>
        <time>2021-07-11T05:04:17.000Z</time>
      </trkpt>
      <trkpt lat="45.23779" lon="5.74065">
        <ele>936</ele>
        <time>2021-07-11T05:04:20.000Z</time>
      </trkpt>
      <trkpt lat="45.23778" lon="5.74068">
        <ele>936.40002441406</ele>
        <time>2021-07-11T05:04:21.000Z</time>
      </trkpt>
      <trkpt lat="45.23778" lon="5.74071">
        <ele>936.40002441406</ele>
        <time>2021-07-11T05:04:22.000Z</time>
      </trkpt>
      <trkpt lat="45.23778" lon="5.74072">
        <ele>936.40002441406</ele>
        <time>2021-07-11T05:04:23.000Z</time>
      </trkpt>
      <trkpt lat="45.23779" lon="5.74074">
        <ele>936.59997558594</ele>
        <time>2021-07-11T05:04:24.000Z</time>
      </trkpt>
      <trkpt lat="45.23779" lon="5.7408">
        <ele>936.79998779297</ele>
        <time>2021-07-11T05:04:26.000Z</time>
      </trkpt>
      <trkpt lat="45.23778" lon="5.74085">
        <ele>936.79998779297</ele>
        <time>2021-07-11T05:04:28.000Z</time>
      </trkpt>
      <trkpt lat="45.23775" lon="5.74092">
        <ele>936.59997558594</ele>
        <time>2021-07-11T05:04:33.000Z</time>
      </trkpt>
      <trkpt lat="45.23773" lon="5.74091">
        <ele>936.40002441406</ele>
        <time>2021-07-11T05:04:35.000Z</time>
      </trkpt>
      <trkpt lat="45.23774" lon="5.74087">
        <ele>936.59997558594</ele>
        <time>2021-07-11T05:04:38.000Z</time>
      </trkpt>
      <trkpt lat="45.23772" lon="5.74085">
        <ele>936.59997558594</ele>
        <time>2021-07-11T05:04:41.000Z</time>
      </trkpt>
      <trkpt lat="45.2377" lon="5.74083">
        <ele>936.40002441406</ele>
        <time>2021-07-11T05:04:43.000Z</time>
      </trkpt>
      <trkpt lat="45.23769" lon="5.7408">
        <ele>936.40002441406</ele>
        <time>2021-07-11T05:04:45.000Z</time>
      </trkpt>
      <trkpt lat="45.23768" lon="5.74075">
        <ele>935.79998779297</ele>
        <time>2021-07-11T05:04:48.000Z</time>
      </trkpt>
      <trkpt lat="45.23768" lon="5.74074">
        <ele>935.59997558594</ele>
        <time>2021-07-11T05:04:49.000Z</time>
      </trkpt>
      <trkpt lat="45.23768" lon="5.74069">
        <ele>935</ele>
        <time>2021-07-11T05:04:51.000Z</time>
      </trkpt>
      <trkpt lat="45.23767" lon="5.74065">
        <ele>934.40002441406</ele>
        <time>2021-07-11T05:04:53.000Z</time>
      </trkpt>
      <trkpt lat="45.23769" lon="5.74061">
        <ele>934</ele>
        <time>2021-07-11T05:04:55.000Z</time>
      </trkpt>
      <trkpt lat="45.23771" lon="5.7406">
        <ele>933.79998779297</ele>
        <time>2021-07-11T05:04:56.000Z</time>
      </trkpt>
      <trkpt lat="45.23773" lon="5.74059">
        <ele>933.79998779297</ele>
        <time>2021-07-11T05:04:57.000Z</time>
      </trkpt>
      <trkpt lat="45.23778" lon="5.74059">
        <ele>932.79998779297</ele>
        <time>2021-07-11T05:05:00.000Z</time>
      </trkpt>
      <trkpt lat="45.23781" lon="5.7406">
        <ele>932.40002441406</ele>
        <time>2021-07-11T05:05:02.000Z</time>
      </trkpt>
      <trkpt lat="45.23784" lon="5.74061">
        <ele>931.59997558594</ele>
        <time>2021-07-11T05:05:04.000Z</time>
      </trkpt>
      <trkpt lat="45.2379" lon="5.74062">
        <ele>930.40002441406</ele>
        <time>2021-07-11T05:05:08.000Z</time>
      </trkpt>
      <trkpt lat="45.23797" lon="5.74063">
        <ele>929.59997558594</ele>
        <time>2021-07-11T05:05:12.000Z</time>
      </trkpt>
      <trkpt lat="45.23799" lon="5.74063">
        <ele>928.59997558594</ele>
        <time>2021-07-11T05:05:13.000Z</time>
      </trkpt>
      <trkpt lat="45.23805" lon="5.74063">
        <ele>927.59997558594</ele>
        <time>2021-07-11T05:05:16.000Z</time>
      </trkpt>
      <trkpt lat="45.23812" lon="5.74061">
        <ele>927.20001220703</ele>
        <time>2021-07-11T05:05:19.000Z</time>
      </trkpt>
      <trkpt lat="45.23814" lon="5.74062">
        <ele>926.20001220703</ele>
        <time>2021-07-11T05:05:20.000Z</time>
      </trkpt>
      <trkpt lat="45.23823" lon="5.74065">
        <ele>925.59997558594</ele>
        <time>2021-07-11T05:05:24.000Z</time>
      </trkpt>
      <trkpt lat="45.23823" lon="5.74066">
        <ele>925.20001220703</ele>
        <time>2021-07-11T05:05:25.000Z</time>
      </trkpt>
      <trkpt lat="45.23827" lon="5.7407">
        <ele>924.20001220703</ele>
        <time>2021-07-11T05:05:28.000Z</time>
      </trkpt>
      <trkpt lat="45.23828" lon="5.74071">
        <ele>924</ele>
        <time>2021-07-11T05:05:29.000Z</time>
      </trkpt>
      <trkpt lat="45.23829" lon="5.74074">
        <ele>923.40002441406</ele>
        <time>2021-07-11T05:05:31.000Z</time>
      </trkpt>
      <trkpt lat="45.2383" lon="5.74075">
        <ele>922.40002441406</ele>
        <time>2021-07-11T05:05:32.000Z</time>
      </trkpt>
      <trkpt lat="45.23831" lon="5.74078">
        <ele>922.20001220703</ele>
        <time>2021-07-11T05:05:34.000Z</time>
      </trkpt>
      <trkpt lat="45.23832" lon="5.74082">
        <ele>921.40002441406</ele>
        <time>2021-07-11T05:05:36.000Z</time>
      </trkpt>
      <trkpt lat="45.23836" lon="5.74085">
        <ele>920.79998779297</ele>
        <time>2021-07-11T05:05:38.000Z</time>
      </trkpt>
      <trkpt lat="45.2384" lon="5.74086">
        <ele>920.40002441406</ele>
        <time>2021-07-11T05:05:40.000Z</time>
      </trkpt>
      <trkpt lat="45.23842" lon="5.74086">
        <ele>920</ele>
        <time>2021-07-11T05:05:41.000Z</time>
      </trkpt>
      <trkpt lat="45.23848" lon="5.74087">
        <ele>919.40002441406</ele>
        <time>2021-07-11T05:05:45.000Z</time>
      </trkpt>
      <trkpt lat="45.2385" lon="5.74088">
        <ele>919.20001220703</ele>
        <time>2021-07-11T05:05:46.000Z</time>
      </trkpt>
      <trkpt lat="45.23851" lon="5.7409">
        <ele>919.40002441406</ele>
        <time>2021-07-11T05:05:47.000Z</time>
      </trkpt>
      <trkpt lat="45.23851" lon="5.74091">
        <ele>919.40002441406</ele>
        <time>2021-07-11T05:05:48.000Z</time>
      </trkpt>
      <trkpt lat="45.23852" lon="5.74096">
        <ele>919.79998779297</ele>
        <time>2021-07-11T05:05:51.000Z</time>
      </trkpt>
      <trkpt lat="45.23853" lon="5.74101">
        <ele>920.40002441406</ele>
        <time>2021-07-11T05:05:54.000Z</time>
      </trkpt>
      <trkpt lat="45.23854" lon="5.74103">
        <ele>920.59997558594</ele>
        <time>2021-07-11T05:05:55.000Z</time>
      </trkpt>
      <trkpt lat="45.23854" lon="5.74113">
        <ele>921.59997558594</ele>
        <time>2021-07-11T05:05:59.000Z</time>
      </trkpt>
      <trkpt lat="45.23854" lon="5.74116">
        <ele>921.79998779297</ele>
        <time>2021-07-11T05:06:00.000Z</time>
      </trkpt>
      <trkpt lat="45.23854" lon="5.74118">
        <ele>921.79998779297</ele>
        <time>2021-07-11T05:06:01.000Z</time>
      </trkpt>
      <trkpt lat="45.23854" lon="5.7412">
        <ele>922.20001220703</ele>
        <time>2021-07-11T05:06:02.000Z</time>
      </trkpt>
      <trkpt lat="45.23853" lon="5.74122">
        <ele>922.59997558594</ele>
        <time>2021-07-11T05:06:03.000Z</time>
      </trkpt>
      <trkpt lat="45.23853" lon="5.74122">
        <ele>922.79998779297</ele>
        <time>2021-07-11T05:06:04.000Z</time>
      </trkpt>
      <trkpt lat="45.23853" lon="5.74124">
        <ele>922.79998779297</ele>
        <time>2021-07-11T05:06:05.000Z</time>
      </trkpt>
      <trkpt lat="45.23853" lon="5.74125">
        <ele>922.79998779297</ele>
        <time>2021-07-11T05:06:06.000Z</time>
      </trkpt>
      <trkpt lat="45.23853" lon="5.74125">
        <ele>923</ele>
        <time>2021-07-11T05:06:07.000Z</time>
      </trkpt>
      <trkpt lat="45.23854" lon="5.74126">
        <ele>923</ele>
        <time>2021-07-11T05:06:08.000Z</time>
      </trkpt>
      <trkpt lat="45.23855" lon="5.74128">
        <ele>924</ele>
        <time>2021-07-11T05:06:13.000Z</time>
      </trkpt>
      <trkpt lat="45.23854" lon="5.7413">
        <ele>924.79998779297</ele>
        <time>2021-07-11T05:06:16.000Z</time>
      </trkpt>
      <trkpt lat="45.23854" lon="5.7413">
        <ele>925.20001220703</ele>
        <time>2021-07-11T05:06:17.000Z</time>
      </trkpt>
      <trkpt lat="45.23854" lon="5.74131">
        <ele>925.40002441406</ele>
        <time>2021-07-11T05:06:18.000Z</time>
      </trkpt>
      <trkpt lat="45.23855" lon="5.74133">
        <ele>926</ele>
        <time>2021-07-11T05:06:21.000Z</time>
      </trkpt>
      <trkpt lat="45.23855" lon="5.74134">
        <ele>926.59997558594</ele>
        <time>2021-07-11T05:06:22.000Z</time>
      </trkpt>
      <trkpt lat="45.23855" lon="5.74136">
        <ele>926.79998779297</ele>
        <time>2021-07-11T05:06:24.000Z</time>
      </trkpt>
      <trkpt lat="45.23855" lon="5.74137">
        <ele>927</ele>
        <time>2021-07-11T05:06:26.000Z</time>
      </trkpt>
      <trkpt lat="45.23855" lon="5.74139">
        <ele>927.79998779297</ele>
        <time>2021-07-11T05:06:27.000Z</time>
      </trkpt>
      <trkpt lat="45.23856" lon="5.74146">
        <ele>928.20001220703</ele>
        <time>2021-07-11T05:06:31.000Z</time>
      </trkpt>
      <trkpt lat="45.23856" lon="5.74148">
        <ele>928.40002441406</ele>
        <time>2021-07-11T05:06:32.000Z</time>
      </trkpt>
      <trkpt lat="45.23855" lon="5.74149">
        <ele>928.79998779297</ele>
        <time>2021-07-11T05:06:33.000Z</time>
      </trkpt>
      <trkpt lat="45.23855" lon="5.7415">
        <ele>929.20001220703</ele>
        <time>2021-07-11T05:06:34.000Z</time>
      </trkpt>
      <trkpt lat="45.23855" lon="5.74153">
        <ele>929.59997558594</ele>
        <time>2021-07-11T05:06:36.000Z</time>
      </trkpt>
      <trkpt lat="45.23855" lon="5.74154">
        <ele>930</ele>
        <time>2021-07-11T05:06:38.000Z</time>
      </trkpt>
      <trkpt lat="45.23854" lon="5.74155">
        <ele>930.59997558594</ele>
        <time>2021-07-11T05:06:39.000Z</time>
      </trkpt>
      <trkpt lat="45.23854" lon="5.74156">
        <ele>931</ele>
        <time>2021-07-11T05:06:40.000Z</time>
      </trkpt>
      <trkpt lat="45.23855" lon="5.74162">
        <ele>931.79998779297</ele>
        <time>2021-07-11T05:06:45.000Z</time>
      </trkpt>
      <trkpt lat="45.23854" lon="5.74163">
        <ele>932.59997558594</ele>
        <time>2021-07-11T05:06:47.000Z</time>
      </trkpt>
      <trkpt lat="45.23853" lon="5.74165">
        <ele>932.79998779297</ele>
        <time>2021-07-11T05:06:49.000Z</time>
      </trkpt>
      <trkpt lat="45.23854" lon="5.74167">
        <ele>933.79998779297</ele>
        <time>2021-07-11T05:06:51.000Z</time>
      </trkpt>
      <trkpt lat="45.23854" lon="5.7417">
        <ele>934</ele>
        <time>2021-07-11T05:06:52.000Z</time>
      </trkpt>
      <trkpt lat="45.23852" lon="5.74173">
        <ele>934.20001220703</ele>
        <time>2021-07-11T05:06:55.000Z</time>
      </trkpt>
      <trkpt lat="45.23852" lon="5.74174">
        <ele>935</ele>
        <time>2021-07-11T05:06:57.000Z</time>
      </trkpt>
      <trkpt lat="45.23852" lon="5.74177">
        <ele>935.79998779297</ele>
        <time>2021-07-11T05:07:01.000Z</time>
      </trkpt>
      <trkpt lat="45.23852" lon="5.74177">
        <ele>936</ele>
        <time>2021-07-11T05:07:02.000Z</time>
      </trkpt>
      <trkpt lat="45.23853" lon="5.74181">
        <ele>937.20001220703</ele>
        <time>2021-07-11T05:07:06.000Z</time>
      </trkpt>
      <trkpt lat="45.23852" lon="5.74181">
        <ele>937.40002441406</ele>
        <time>2021-07-11T05:07:07.000Z</time>
      </trkpt>
      <trkpt lat="45.23852" lon="5.74182">
        <ele>937.59997558594</ele>
        <time>2021-07-11T05:07:09.000Z</time>
      </trkpt>
      <trkpt lat="45.23851" lon="5.74184">
        <ele>938.59997558594</ele>
        <time>2021-07-11T05:07:12.000Z</time>
      </trkpt>
      <trkpt lat="45.23851" lon="5.74186">
        <ele>939</ele>
        <time>2021-07-11T05:07:15.000Z</time>
      </trkpt>
      <trkpt lat="45.23851" lon="5.74189">
        <ele>939.40002441406</ele>
        <time>2021-07-11T05:07:18.000Z</time>
      </trkpt>
      <trkpt lat="45.2385" lon="5.7419">
        <ele>939.79998779297</ele>
        <time>2021-07-11T05:07:19.000Z</time>
      </trkpt>
      <trkpt lat="45.2385" lon="5.74191">
        <ele>940</ele>
        <time>2021-07-11T05:07:20.000Z</time>
      </trkpt>
      <trkpt lat="45.23849" lon="5.74195">
        <ele>940.79998779297</ele>
        <time>2021-07-11T05:07:23.000Z</time>
      </trkpt>
      <trkpt lat="45.23848" lon="5.74197">
        <ele>941</ele>
        <time>2021-07-11T05:07:24.000Z</time>
      </trkpt>
      <trkpt lat="45.23849" lon="5.742">
        <ele>941</ele>
        <time>2021-07-11T05:07:26.000Z</time>
      </trkpt>
      <trkpt lat="45.23848" lon="5.74202">
        <ele>941</ele>
        <time>2021-07-11T05:07:28.000Z</time>
      </trkpt>
      <trkpt lat="45.23846" lon="5.74202">
        <ele>941</ele>
        <time>2021-07-11T05:07:30.000Z</time>
      </trkpt>
      <trkpt lat="45.23844" lon="5.74202">
        <ele>940.59997558594</ele>
        <time>2021-07-11T05:07:33.000Z</time>
      </trkpt>
      <trkpt lat="45.23843" lon="5.74201">
        <ele>940</ele>
        <time>2021-07-11T05:07:35.000Z</time>
      </trkpt>
      <trkpt lat="45.23842" lon="5.74201">
        <ele>939.59997558594</ele>
        <time>2021-07-11T05:07:36.000Z</time>
      </trkpt>
      <trkpt lat="45.23841" lon="5.742">
        <ele>939.59997558594</ele>
        <time>2021-07-11T05:07:37.000Z</time>
      </trkpt>
      <trkpt lat="45.23841" lon="5.74199">
        <ele>939.20001220703</ele>
        <time>2021-07-11T05:07:39.000Z</time>
      </trkpt>
      <trkpt lat="45.23841" lon="5.74198">
        <ele>938.59997558594</ele>
        <time>2021-07-11T05:07:41.000Z</time>
      </trkpt>
      <trkpt lat="45.23839" lon="5.74197">
        <ele>937.20001220703</ele>
        <time>2021-07-11T05:07:44.000Z</time>
      </trkpt>
      <trkpt lat="45.23839" lon="5.74196">
        <ele>937.20001220703</ele>
        <time>2021-07-11T05:07:45.000Z</time>
      </trkpt>
      <trkpt lat="45.23839" lon="5.74195">
        <ele>937.20001220703</ele>
        <time>2021-07-11T05:07:46.000Z</time>
      </trkpt>
      <trkpt lat="45.23839" lon="5.74194">
        <ele>937</ele>
        <time>2021-07-11T05:07:47.000Z</time>
      </trkpt>
      <trkpt lat="45.23839" lon="5.74193">
        <ele>936.20001220703</ele>
        <time>2021-07-11T05:07:49.000Z</time>
      </trkpt>
      <trkpt lat="45.23839" lon="5.7419">
        <ele>936</ele>
        <time>2021-07-11T05:07:51.000Z</time>
      </trkpt>
      <trkpt lat="45.23838" lon="5.74189">
        <ele>935.79998779297</ele>
        <time>2021-07-11T05:07:52.000Z</time>
      </trkpt>
      <trkpt lat="45.2384" lon="5.74187">
        <ele>935</ele>
        <time>2021-07-11T05:07:54.000Z</time>
      </trkpt>
      <trkpt lat="45.2384" lon="5.74186">
        <ele>934.79998779297</ele>
        <time>2021-07-11T05:07:55.000Z</time>
      </trkpt>
      <trkpt lat="45.23842" lon="5.74183">
        <ele>933.59997558594</ele>
        <time>2021-07-11T05:07:58.000Z</time>
      </trkpt>
      <trkpt lat="45.23842" lon="5.74183">
        <ele>932.59997558594</ele>
        <time>2021-07-11T05:07:59.000Z</time>
      </trkpt>
      <trkpt lat="45.23842" lon="5.74182">
        <ele>932.40002441406</ele>
        <time>2021-07-11T05:08:00.000Z</time>
      </trkpt>
      <trkpt lat="45.23842" lon="5.74181">
        <ele>932.40002441406</ele>
        <time>2021-07-11T05:08:01.000Z</time>
      </trkpt>
      <trkpt lat="45.23842" lon="5.74179">
        <ele>932</ele>
        <time>2021-07-11T05:08:03.000Z</time>
      </trkpt>
      <trkpt lat="45.23841" lon="5.74178">
        <ele>931.20001220703</ele>
        <time>2021-07-11T05:08:05.000Z</time>
      </trkpt>
      <trkpt lat="45.23841" lon="5.74177">
        <ele>931</ele>
        <time>2021-07-11T05:08:06.000Z</time>
      </trkpt>
      <trkpt lat="45.23841" lon="5.74176">
        <ele>931</ele>
        <time>2021-07-11T05:08:07.000Z</time>
      </trkpt>
      <trkpt lat="45.23841" lon="5.74175">
        <ele>930.59997558594</ele>
        <time>2021-07-11T05:08:09.000Z</time>
      </trkpt>
      <trkpt lat="45.23842" lon="5.74173">
        <ele>929.79998779297</ele>
        <time>2021-07-11T05:08:11.000Z</time>
      </trkpt>
      <trkpt lat="45.23842" lon="5.74171">
        <ele>929.40002441406</ele>
        <time>2021-07-11T05:08:12.000Z</time>
      </trkpt>
      <trkpt lat="45.23842" lon="5.7417">
        <ele>928.79998779297</ele>
        <time>2021-07-11T05:08:14.000Z</time>
      </trkpt>
      <trkpt lat="45.23842" lon="5.74168">
        <ele>928.40002441406</ele>
        <time>2021-07-11T05:08:15.000Z</time>
      </trkpt>
      <trkpt lat="45.23842" lon="5.74163">
        <ele>927.20001220703</ele>
        <time>2021-07-11T05:08:18.000Z</time>
      </trkpt>
      <trkpt lat="45.23842" lon="5.7416">
        <ele>926.79998779297</ele>
        <time>2021-07-11T05:08:20.000Z</time>
      </trkpt>
      <trkpt lat="45.23842" lon="5.74158">
        <ele>926.59997558594</ele>
        <time>2021-07-11T05:08:21.000Z</time>
      </trkpt>
      <trkpt lat="45.23843" lon="5.74155">
        <ele>926</ele>
        <time>2021-07-11T05:08:23.000Z</time>
      </trkpt>
      <trkpt lat="45.23842" lon="5.7415">
        <ele>925.20001220703</ele>
        <time>2021-07-11T05:08:26.000Z</time>
      </trkpt>
      <trkpt lat="45.23841" lon="5.74145">
        <ele>924.79998779297</ele>
        <time>2021-07-11T05:08:28.000Z</time>
      </trkpt>
      <trkpt lat="45.2384" lon="5.74138">
        <ele>923.40002441406</ele>
        <time>2021-07-11T05:08:32.000Z</time>
      </trkpt>
      <trkpt lat="45.23841" lon="5.74134">
        <ele>922.79998779297</ele>
        <time>2021-07-11T05:08:34.000Z</time>
      </trkpt>
      <trkpt lat="45.23842" lon="5.74132">
        <ele>922.59997558594</ele>
        <time>2021-07-11T05:08:35.000Z</time>
      </trkpt>
      <trkpt lat="45.23842" lon="5.74131">
        <ele>922</ele>
        <time>2021-07-11T05:08:36.000Z</time>
      </trkpt>
      <trkpt lat="45.23842" lon="5.74131">
        <ele>921.79998779297</ele>
        <time>2021-07-11T05:08:37.000Z</time>
      </trkpt>
      <trkpt lat="45.23844" lon="5.74125">
        <ele>920.79998779297</ele>
        <time>2021-07-11T05:08:40.000Z</time>
      </trkpt>
      <trkpt lat="45.23844" lon="5.74124">
        <ele>920.59997558594</ele>
        <time>2021-07-11T05:08:41.000Z</time>
      </trkpt>
      <trkpt lat="45.23844" lon="5.74123">
        <ele>920.59997558594</ele>
        <time>2021-07-11T05:08:42.000Z</time>
      </trkpt>
      <trkpt lat="45.23844" lon="5.74121">
        <ele>920.40002441406</ele>
        <time>2021-07-11T05:08:43.000Z</time>
      </trkpt>
      <trkpt lat="45.23844" lon="5.74119">
        <ele>920.40002441406</ele>
        <time>2021-07-11T05:08:44.000Z</time>
      </trkpt>
      <trkpt lat="45.23844" lon="5.74117">
        <ele>919.40002441406</ele>
        <time>2021-07-11T05:08:45.000Z</time>
      </trkpt>
      <trkpt lat="45.23845" lon="5.74113">
        <ele>919.20001220703</ele>
        <time>2021-07-11T05:08:47.000Z</time>
      </trkpt>
      <trkpt lat="45.23846" lon="5.74112">
        <ele>919.20001220703</ele>
        <time>2021-07-11T05:08:48.000Z</time>
      </trkpt>
      <trkpt lat="45.23847" lon="5.74111">
        <ele>918.40002441406</ele>
        <time>2021-07-11T05:08:49.000Z</time>
      </trkpt>
      <trkpt lat="45.23848" lon="5.74111">
        <ele>918.40002441406</ele>
        <time>2021-07-11T05:08:50.000Z</time>
      </trkpt>
      <trkpt lat="45.23853" lon="5.74104">
        <ele>917</ele>
        <time>2021-07-11T05:08:53.000Z</time>
      </trkpt>
      <trkpt lat="45.23858" lon="5.74099">
        <ele>916.40002441406</ele>
        <time>2021-07-11T05:08:56.000Z</time>
      </trkpt>
      <trkpt lat="45.23861" lon="5.74093">
        <ele>916.20001220703</ele>
        <time>2021-07-11T05:08:58.000Z</time>
      </trkpt>
      <trkpt lat="45.23862" lon="5.74091">
        <ele>915.79998779297</ele>
        <time>2021-07-11T05:08:59.000Z</time>
      </trkpt>
      <trkpt lat="45.23864" lon="5.74088">
        <ele>915.20001220703</ele>
        <time>2021-07-11T05:09:01.000Z</time>
      </trkpt>
      <trkpt lat="45.23868" lon="5.74084">
        <ele>914.40002441406</ele>
        <time>2021-07-11T05:09:05.000Z</time>
      </trkpt>
      <trkpt lat="45.2387" lon="5.74082">
        <ele>914.40002441406</ele>
        <time>2021-07-11T05:09:06.000Z</time>
      </trkpt>
      <trkpt lat="45.23876" lon="5.74072">
        <ele>913.40002441406</ele>
        <time>2021-07-11T05:09:10.000Z</time>
      </trkpt>
      <trkpt lat="45.23877" lon="5.74072">
        <ele>912.79998779297</ele>
        <time>2021-07-11T05:09:11.000Z</time>
      </trkpt>
      <trkpt lat="45.2388" lon="5.74071">
        <ele>912</ele>
        <time>2021-07-11T05:09:13.000Z</time>
      </trkpt>
      <trkpt lat="45.23883" lon="5.7407">
        <ele>911.59997558594</ele>
        <time>2021-07-11T05:09:15.000Z</time>
      </trkpt>
      <trkpt lat="45.23886" lon="5.74069">
        <ele>910.79998779297</ele>
        <time>2021-07-11T05:09:17.000Z</time>
      </trkpt>
      <trkpt lat="45.23889" lon="5.7407">
        <ele>909.79998779297</ele>
        <time>2021-07-11T05:09:19.000Z</time>
      </trkpt>
      <trkpt lat="45.23893" lon="5.7407">
        <ele>909</ele>
        <time>2021-07-11T05:09:21.000Z</time>
      </trkpt>
      <trkpt lat="45.23895" lon="5.7407">
        <ele>908.59997558594</ele>
        <time>2021-07-11T05:09:22.000Z</time>
      </trkpt>
      <trkpt lat="45.23897" lon="5.74071">
        <ele>908.40002441406</ele>
        <time>2021-07-11T05:09:23.000Z</time>
      </trkpt>
      <trkpt lat="45.23902" lon="5.74071">
        <ele>907</ele>
        <time>2021-07-11T05:09:26.000Z</time>
      </trkpt>
      <trkpt lat="45.23905" lon="5.74072">
        <ele>906.79998779297</ele>
        <time>2021-07-11T05:09:28.000Z</time>
      </trkpt>
      <trkpt lat="45.23906" lon="5.74072">
        <ele>906</ele>
        <time>2021-07-11T05:09:30.000Z</time>
      </trkpt>
      <trkpt lat="45.23907" lon="5.74073">
        <ele>905.20001220703</ele>
        <time>2021-07-11T05:09:31.000Z</time>
      </trkpt>
      <trkpt lat="45.23908" lon="5.74074">
        <ele>904.79998779297</ele>
        <time>2021-07-11T05:09:32.000Z</time>
      </trkpt>
      <trkpt lat="45.23909" lon="5.74075">
        <ele>904.20001220703</ele>
        <time>2021-07-11T05:09:33.000Z</time>
      </trkpt>
      <trkpt lat="45.2391" lon="5.74078">
        <ele>903.59997558594</ele>
        <time>2021-07-11T05:09:35.000Z</time>
      </trkpt>
      <trkpt lat="45.23912" lon="5.74085">
        <ele>902.59997558594</ele>
        <time>2021-07-11T05:09:38.000Z</time>
      </trkpt>
      <trkpt lat="45.23914" lon="5.74086">
        <ele>902.20001220703</ele>
        <time>2021-07-11T05:09:39.000Z</time>
      </trkpt>
      <trkpt lat="45.23915" lon="5.74089">
        <ele>900.79998779297</ele>
        <time>2021-07-11T05:09:42.000Z</time>
      </trkpt>
      <trkpt lat="45.23919" lon="5.74092">
        <ele>900.79998779297</ele>
        <time>2021-07-11T05:09:46.000Z</time>
      </trkpt>
      <trkpt lat="45.23919" lon="5.74094">
        <ele>901</ele>
        <time>2021-07-11T05:09:47.000Z</time>
      </trkpt>
      <trkpt lat="45.23917" lon="5.74097">
        <ele>902</ele>
        <time>2021-07-11T05:09:50.000Z</time>
      </trkpt>
      <trkpt lat="45.23917" lon="5.74098">
        <ele>902.20001220703</ele>
        <time>2021-07-11T05:09:51.000Z</time>
      </trkpt>
      <trkpt lat="45.23915" lon="5.74103">
        <ele>903.20001220703</ele>
        <time>2021-07-11T05:09:56.000Z</time>
      </trkpt>
      <trkpt lat="45.23915" lon="5.74106">
        <ele>904.40002441406</ele>
        <time>2021-07-11T05:09:58.000Z</time>
      </trkpt>
      <trkpt lat="45.23917" lon="5.74109">
        <ele>904.79998779297</ele>
        <time>2021-07-11T05:10:01.000Z</time>
      </trkpt>
      <trkpt lat="45.23918" lon="5.7411">
        <ele>905.40002441406</ele>
        <time>2021-07-11T05:10:03.000Z</time>
      </trkpt>
      <trkpt lat="45.23919" lon="5.74111">
        <ele>906.40002441406</ele>
        <time>2021-07-11T05:10:06.000Z</time>
      </trkpt>
      <trkpt lat="45.2392" lon="5.74112">
        <ele>907.79998779297</ele>
        <time>2021-07-11T05:10:10.000Z</time>
      </trkpt>
      <trkpt lat="45.23921" lon="5.74113">
        <ele>908</ele>
        <time>2021-07-11T05:10:12.000Z</time>
      </trkpt>
      <trkpt lat="45.23922" lon="5.74114">
        <ele>908.20001220703</ele>
        <time>2021-07-11T05:10:13.000Z</time>
      </trkpt>
      <trkpt lat="45.23925" lon="5.74117">
        <ele>909.20001220703</ele>
        <time>2021-07-11T05:10:16.000Z</time>
      </trkpt>
      <trkpt lat="45.23927" lon="5.74118">
        <ele>909.40002441406</ele>
        <time>2021-07-11T05:10:18.000Z</time>
      </trkpt>
      <trkpt lat="45.23927" lon="5.74119">
        <ele>909.79998779297</ele>
        <time>2021-07-11T05:10:19.000Z</time>
      </trkpt>
      <trkpt lat="45.23927" lon="5.7412">
        <ele>910</ele>
        <time>2021-07-11T05:10:20.000Z</time>
      </trkpt>
      <trkpt lat="45.23927" lon="5.74121">
        <ele>910.79998779297</ele>
        <time>2021-07-11T05:10:21.000Z</time>
      </trkpt>
      <trkpt lat="45.23928" lon="5.74121">
        <ele>911.40002441406</ele>
        <time>2021-07-11T05:10:23.000Z</time>
      </trkpt>
      <trkpt lat="45.23929" lon="5.74122">
        <ele>911.59997558594</ele>
        <time>2021-07-11T05:10:25.000Z</time>
      </trkpt>
      <trkpt lat="45.23929" lon="5.74123">
        <ele>912</ele>
        <time>2021-07-11T05:10:26.000Z</time>
      </trkpt>
      <trkpt lat="45.23929" lon="5.74125">
        <ele>912</ele>
        <time>2021-07-11T05:10:28.000Z</time>
      </trkpt>
      <trkpt lat="45.23929" lon="5.74127">
        <ele>913.59997558594</ele>
        <time>2021-07-11T05:10:31.000Z</time>
      </trkpt>
      <trkpt lat="45.23931" lon="5.74132">
        <ele>914</ele>
        <time>2021-07-11T05:10:34.000Z</time>
      </trkpt>
      <trkpt lat="45.23932" lon="5.74136">
        <ele>914.79998779297</ele>
        <time>2021-07-11T05:10:37.000Z</time>
      </trkpt>
      <trkpt lat="45.23931" lon="5.74143">
        <ele>915.79998779297</ele>
        <time>2021-07-11T05:10:41.000Z</time>
      </trkpt>
      <trkpt lat="45.23931" lon="5.74145">
        <ele>916.20001220703</ele>
        <time>2021-07-11T05:10:42.000Z</time>
      </trkpt>
      <trkpt lat="45.23932" lon="5.74149">
        <ele>917</ele>
        <time>2021-07-11T05:10:46.000Z</time>
      </trkpt>
      <trkpt lat="45.23929" lon="5.74153">
        <ele>917.79998779297</ele>
        <time>2021-07-11T05:10:49.000Z</time>
      </trkpt>
      <trkpt lat="45.23929" lon="5.74155">
        <ele>918.40002441406</ele>
        <time>2021-07-11T05:10:50.000Z</time>
      </trkpt>
      <trkpt lat="45.23924" lon="5.74162">
        <ele>919.59997558594</ele>
        <time>2021-07-11T05:10:55.000Z</time>
      </trkpt>
      <trkpt lat="45.23922" lon="5.74165">
        <ele>920</ele>
        <time>2021-07-11T05:10:58.000Z</time>
      </trkpt>
      <trkpt lat="45.23921" lon="5.74167">
        <ele>920.59997558594</ele>
        <time>2021-07-11T05:11:01.000Z</time>
      </trkpt>
      <trkpt lat="45.2392" lon="5.74167">
        <ele>921</ele>
        <time>2021-07-11T05:11:02.000Z</time>
      </trkpt>
      <trkpt lat="45.23919" lon="5.74167">
        <ele>922</ele>
        <time>2021-07-11T05:11:04.000Z</time>
      </trkpt>
      <trkpt lat="45.23918" lon="5.74166">
        <ele>922.40002441406</ele>
        <time>2021-07-11T05:11:06.000Z</time>
      </trkpt>
      <trkpt lat="45.23919" lon="5.74166">
        <ele>922.79998779297</ele>
        <time>2021-07-11T05:11:08.000Z</time>
      </trkpt>
      <trkpt lat="45.23919" lon="5.74168">
        <ele>923</ele>
        <time>2021-07-11T05:11:10.000Z</time>
      </trkpt>
      <trkpt lat="45.23917" lon="5.74168">
        <ele>924.40002441406</ele>
        <time>2021-07-11T05:11:12.000Z</time>
      </trkpt>
      <trkpt lat="45.23916" lon="5.74169">
        <ele>924.40002441406</ele>
        <time>2021-07-11T05:11:13.000Z</time>
      </trkpt>
      <trkpt lat="45.23914" lon="5.74171">
        <ele>925.79998779297</ele>
        <time>2021-07-11T05:11:18.000Z</time>
      </trkpt>
      <trkpt lat="45.23914" lon="5.74172">
        <ele>926.20001220703</ele>
        <time>2021-07-11T05:11:19.000Z</time>
      </trkpt>
      <trkpt lat="45.23913" lon="5.74173">
        <ele>926.79998779297</ele>
        <time>2021-07-11T05:11:23.000Z</time>
      </trkpt>
      <trkpt lat="45.23913" lon="5.74173">
        <ele>927</ele>
        <time>2021-07-11T05:11:24.000Z</time>
      </trkpt>
      <trkpt lat="45.23912" lon="5.74173">
        <ele>928</ele>
        <time>2021-07-11T05:11:27.000Z</time>
      </trkpt>
      <trkpt lat="45.23911" lon="5.74175">
        <ele>928.59997558594</ele>
        <time>2021-07-11T05:11:29.000Z</time>
      </trkpt>
      <trkpt lat="45.23911" lon="5.74175">
        <ele>929.20001220703</ele>
        <time>2021-07-11T05:11:30.000Z</time>
      </trkpt>
      <trkpt lat="45.23911" lon="5.74178">
        <ele>930.40002441406</ele>
        <time>2021-07-11T05:11:35.000Z</time>
      </trkpt>
      <trkpt lat="45.23912" lon="5.74178">
        <ele>931</ele>
        <time>2021-07-11T05:11:37.000Z</time>
      </trkpt>
      <trkpt lat="45.23912" lon="5.74179">
        <ele>931.40002441406</ele>
        <time>2021-07-11T05:11:38.000Z</time>
      </trkpt>
      <trkpt lat="45.23912" lon="5.7418">
        <ele>931.59997558594</ele>
        <time>2021-07-11T05:11:40.000Z</time>
      </trkpt>
      <trkpt lat="45.23913" lon="5.74181">
        <ele>932</ele>
        <time>2021-07-11T05:11:41.000Z</time>
      </trkpt>
      <trkpt lat="45.23913" lon="5.74182">
        <ele>932.59997558594</ele>
        <time>2021-07-11T05:11:42.000Z</time>
      </trkpt>
      <trkpt lat="45.23916" lon="5.74186">
        <ele>933.59997558594</ele>
        <time>2021-07-11T05:11:47.000Z</time>
      </trkpt>
      <trkpt lat="45.23917" lon="5.74186">
        <ele>934</ele>
        <time>2021-07-11T05:11:48.000Z</time>
      </trkpt>
      <trkpt lat="45.23917" lon="5.74188">
        <ele>935</ele>
        <time>2021-07-11T05:11:52.000Z</time>
      </trkpt>
      <trkpt lat="45.23918" lon="5.7419">
        <ele>935.40002441406</ele>
        <time>2021-07-11T05:11:55.000Z</time>
      </trkpt>
      <trkpt lat="45.23918" lon="5.74192">
        <ele>936.20001220703</ele>
        <time>2021-07-11T05:11:58.000Z</time>
      </trkpt>
      <trkpt lat="45.2392" lon="5.74194">
        <ele>937.40002441406</ele>
        <time>2021-07-11T05:12:02.000Z</time>
      </trkpt>
      <trkpt lat="45.23922" lon="5.74195">
        <ele>938.59997558594</ele>
        <time>2021-07-11T05:12:07.000Z</time>
      </trkpt>
      <trkpt lat="45.23924" lon="5.74196">
        <ele>939.40002441406</ele>
        <time>2021-07-11T05:12:09.000Z</time>
      </trkpt>
      <trkpt lat="45.23925" lon="5.74196">
        <ele>939.79998779297</ele>
        <time>2021-07-11T05:12:11.000Z</time>
      </trkpt>
      <trkpt lat="45.23929" lon="5.74198">
        <ele>940.40002441406</ele>
        <time>2021-07-11T05:12:16.000Z</time>
      </trkpt>
      <trkpt lat="45.23929" lon="5.74199">
        <ele>941.20001220703</ele>
        <time>2021-07-11T05:12:17.000Z</time>
      </trkpt>
      <trkpt lat="45.2393" lon="5.74199">
        <ele>941.20001220703</ele>
        <time>2021-07-11T05:12:18.000Z</time>
      </trkpt>
      <trkpt lat="45.23933" lon="5.742">
        <ele>941.79998779297</ele>
        <time>2021-07-11T05:12:21.000Z</time>
      </trkpt>
      <trkpt lat="45.23934" lon="5.742">
        <ele>942</ele>
        <time>2021-07-11T05:12:22.000Z</time>
      </trkpt>
      <trkpt lat="45.23934" lon="5.74201">
        <ele>942.20001220703</ele>
        <time>2021-07-11T05:12:23.000Z</time>
      </trkpt>
      <trkpt lat="45.23935" lon="5.74202">
        <ele>942.40002441406</ele>
        <time>2021-07-11T05:12:24.000Z</time>
      </trkpt>
      <trkpt lat="45.23936" lon="5.74203">
        <ele>942.40002441406</ele>
        <time>2021-07-11T05:12:25.000Z</time>
      </trkpt>
      <trkpt lat="45.23937" lon="5.74203">
        <ele>942.79998779297</ele>
        <time>2021-07-11T05:12:26.000Z</time>
      </trkpt>
      <trkpt lat="45.23937" lon="5.74203">
        <ele>943.20001220703</ele>
        <time>2021-07-11T05:12:27.000Z</time>
      </trkpt>
      <trkpt lat="45.23938" lon="5.74203">
        <ele>943.59997558594</ele>
        <time>2021-07-11T05:12:28.000Z</time>
      </trkpt>
      <trkpt lat="45.2394" lon="5.74205">
        <ele>944.79998779297</ele>
        <time>2021-07-11T05:12:32.000Z</time>
      </trkpt>
      <trkpt lat="45.23942" lon="5.74207">
        <ele>945.20001220703</ele>
        <time>2021-07-11T05:12:34.000Z</time>
      </trkpt>
      <trkpt lat="45.23943" lon="5.74207">
        <ele>945.40002441406</ele>
        <time>2021-07-11T05:12:35.000Z</time>
      </trkpt>
      <trkpt lat="45.23944" lon="5.74208">
        <ele>945.79998779297</ele>
        <time>2021-07-11T05:12:37.000Z</time>
      </trkpt>
      <trkpt lat="45.23946" lon="5.74209">
        <ele>946.59997558594</ele>
        <time>2021-07-11T05:12:40.000Z</time>
      </trkpt>
      <trkpt lat="45.23947" lon="5.74209">
        <ele>947.59997558594</ele>
        <time>2021-07-11T05:12:41.000Z</time>
      </trkpt>
      <trkpt lat="45.23947" lon="5.74209">
        <ele>947.59997558594</ele>
        <time>2021-07-11T05:12:42.000Z</time>
      </trkpt>
      <trkpt lat="45.2395" lon="5.74209">
        <ele>947.79998779297</ele>
        <time>2021-07-11T05:12:44.000Z</time>
      </trkpt>
      <trkpt lat="45.23951" lon="5.7421">
        <ele>948.20001220703</ele>
        <time>2021-07-11T05:12:46.000Z</time>
      </trkpt>
      <trkpt lat="45.23952" lon="5.74211">
        <ele>948.20001220703</ele>
        <time>2021-07-11T05:12:47.000Z</time>
      </trkpt>
      <trkpt lat="45.23953" lon="5.74211">
        <ele>948.40002441406</ele>
        <time>2021-07-11T05:12:48.000Z</time>
      </trkpt>
      <trkpt lat="45.23954" lon="5.74211">
        <ele>948.40002441406</ele>
        <time>2021-07-11T05:12:49.000Z</time>
      </trkpt>
      <trkpt lat="45.23955" lon="5.74211">
        <ele>948.59997558594</ele>
        <time>2021-07-11T05:12:50.000Z</time>
      </trkpt>
      <trkpt lat="45.23956" lon="5.74212">
        <ele>949.40002441406</ele>
        <time>2021-07-11T05:12:52.000Z</time>
      </trkpt>
      <trkpt lat="45.23956" lon="5.74212">
        <ele>949.79998779297</ele>
        <time>2021-07-11T05:12:53.000Z</time>
      </trkpt>
      <trkpt lat="45.23957" lon="5.74212">
        <ele>950</ele>
        <time>2021-07-11T05:12:54.000Z</time>
      </trkpt>
      <trkpt lat="45.23957" lon="5.74212">
        <ele>950.40002441406</ele>
        <time>2021-07-11T05:12:56.000Z</time>
      </trkpt>
      <trkpt lat="45.23958" lon="5.74212">
        <ele>950.59997558594</ele>
        <time>2021-07-11T05:12:57.000Z</time>
      </trkpt>
      <trkpt lat="45.2396" lon="5.74212">
        <ele>950.79998779297</ele>
        <time>2021-07-11T05:12:59.000Z</time>
      </trkpt>
      <trkpt lat="45.23963" lon="5.74211">
        <ele>951.20001220703</ele>
        <time>2021-07-11T05:13:02.000Z</time>
      </trkpt>
      <trkpt lat="45.23968" lon="5.74209">
        <ele>952</ele>
        <time>2021-07-11T05:13:06.000Z</time>
      </trkpt>
      <trkpt lat="45.23974" lon="5.7421">
        <ele>953</ele>
        <time>2021-07-11T05:13:12.000Z</time>
      </trkpt>
      <trkpt lat="45.23975" lon="5.7421">
        <ele>953.20001220703</ele>
        <time>2021-07-11T05:13:13.000Z</time>
      </trkpt>
      <trkpt lat="45.23977" lon="5.74209">
        <ele>953.40002441406</ele>
        <time>2021-07-11T05:13:14.000Z</time>
      </trkpt>
      <trkpt lat="45.23979" lon="5.74208">
        <ele>954</ele>
        <time>2021-07-11T05:13:16.000Z</time>
      </trkpt>
      <trkpt lat="45.2398" lon="5.74208">
        <ele>954.40002441406</ele>
        <time>2021-07-11T05:13:17.000Z</time>
      </trkpt>
      <trkpt lat="45.23982" lon="5.74211">
        <ele>954.79998779297</ele>
        <time>2021-07-11T05:13:20.000Z</time>
      </trkpt>
      <trkpt lat="45.23983" lon="5.74212">
        <ele>956</ele>
        <time>2021-07-11T05:13:22.000Z</time>
      </trkpt>
      <trkpt lat="45.23984" lon="5.74212">
        <ele>956</ele>
        <time>2021-07-11T05:13:23.000Z</time>
      </trkpt>
      <trkpt lat="45.23985" lon="5.74211">
        <ele>956.59997558594</ele>
        <time>2021-07-11T05:13:25.000Z</time>
      </trkpt>
      <trkpt lat="45.23989" lon="5.74208">
        <ele>957.40002441406</ele>
        <time>2021-07-11T05:13:28.000Z</time>
      </trkpt>
      <trkpt lat="45.23992" lon="5.74209">
        <ele>957.59997558594</ele>
        <time>2021-07-11T05:13:30.000Z</time>
      </trkpt>
      <trkpt lat="45.23995" lon="5.74209">
        <ele>958.79998779297</ele>
        <time>2021-07-11T05:13:34.000Z</time>
      </trkpt>
      <trkpt lat="45.23997" lon="5.7421">
        <ele>959.59997558594</ele>
        <time>2021-07-11T05:13:37.000Z</time>
      </trkpt>
      <trkpt lat="45.23998" lon="5.7421">
        <ele>959.79998779297</ele>
        <time>2021-07-11T05:13:38.000Z</time>
      </trkpt>
      <trkpt lat="45.23999" lon="5.74209">
        <ele>960.20001220703</ele>
        <time>2021-07-11T05:13:39.000Z</time>
      </trkpt>
      <trkpt lat="45.24001" lon="5.74208">
        <ele>960.79998779297</ele>
        <time>2021-07-11T05:13:41.000Z</time>
      </trkpt>
      <trkpt lat="45.24003" lon="5.7421">
        <ele>961</ele>
        <time>2021-07-11T05:13:43.000Z</time>
      </trkpt>
      <trkpt lat="45.24006" lon="5.74211">
        <ele>962.20001220703</ele>
        <time>2021-07-11T05:13:48.000Z</time>
      </trkpt>
      <trkpt lat="45.24007" lon="5.74212">
        <ele>962.40002441406</ele>
        <time>2021-07-11T05:13:49.000Z</time>
      </trkpt>
      <trkpt lat="45.24009" lon="5.74214">
        <ele>963.20001220703</ele>
        <time>2021-07-11T05:13:52.000Z</time>
      </trkpt>
      <trkpt lat="45.24011" lon="5.74215">
        <ele>963.79998779297</ele>
        <time>2021-07-11T05:13:54.000Z</time>
      </trkpt>
      <trkpt lat="45.24013" lon="5.74216">
        <ele>964</ele>
        <time>2021-07-11T05:13:56.000Z</time>
      </trkpt>
      <trkpt lat="45.24014" lon="5.74217">
        <ele>964.59997558594</ele>
        <time>2021-07-11T05:13:59.000Z</time>
      </trkpt>
      <trkpt lat="45.24014" lon="5.74219">
        <ele>965</ele>
        <time>2021-07-11T05:14:01.000Z</time>
      </trkpt>
      <trkpt lat="45.24015" lon="5.7422">
        <ele>966</ele>
        <time>2021-07-11T05:14:02.000Z</time>
      </trkpt>
      <trkpt lat="45.24016" lon="5.7422">
        <ele>966.20001220703</ele>
        <time>2021-07-11T05:14:04.000Z</time>
      </trkpt>
      <trkpt lat="45.24019" lon="5.7422">
        <ele>967</ele>
        <time>2021-07-11T05:14:07.000Z</time>
      </trkpt>
      <trkpt lat="45.24021" lon="5.7422">
        <ele>967.59997558594</ele>
        <time>2021-07-11T05:14:09.000Z</time>
      </trkpt>
      <trkpt lat="45.24022" lon="5.74221">
        <ele>968.20001220703</ele>
        <time>2021-07-11T05:14:11.000Z</time>
      </trkpt>
      <trkpt lat="45.24024" lon="5.74222">
        <ele>968.59997558594</ele>
        <time>2021-07-11T05:14:13.000Z</time>
      </trkpt>
      <trkpt lat="45.24026" lon="5.74221">
        <ele>969.20001220703</ele>
        <time>2021-07-11T05:14:15.000Z</time>
      </trkpt>
      <trkpt lat="45.24026" lon="5.7422">
        <ele>969.20001220703</ele>
        <time>2021-07-11T05:14:16.000Z</time>
      </trkpt>
      <trkpt lat="45.24026" lon="5.7422">
        <ele>969.59997558594</ele>
        <time>2021-07-11T05:14:17.000Z</time>
      </trkpt>
      <trkpt lat="45.24027" lon="5.74222">
        <ele>970.20001220703</ele>
        <time>2021-07-11T05:14:19.000Z</time>
      </trkpt>
      <trkpt lat="45.24029" lon="5.74222">
        <ele>971.20001220703</ele>
        <time>2021-07-11T05:14:22.000Z</time>
      </trkpt>
      <trkpt lat="45.2403" lon="5.74222">
        <ele>971.59997558594</ele>
        <time>2021-07-11T05:14:23.000Z</time>
      </trkpt>
      <trkpt lat="45.24033" lon="5.74223">
        <ele>971.79998779297</ele>
        <time>2021-07-11T05:14:26.000Z</time>
      </trkpt>
      <trkpt lat="45.24034" lon="5.74225">
        <ele>972.79998779297</ele>
        <time>2021-07-11T05:14:29.000Z</time>
      </trkpt>
      <trkpt lat="45.24035" lon="5.74225">
        <ele>973.59997558594</ele>
        <time>2021-07-11T05:14:31.000Z</time>
      </trkpt>
      <trkpt lat="45.24036" lon="5.74226">
        <ele>974</ele>
        <time>2021-07-11T05:14:32.000Z</time>
      </trkpt>
      <trkpt lat="45.24039" lon="5.74228">
        <ele>974.79998779297</ele>
        <time>2021-07-11T05:14:35.000Z</time>
      </trkpt>
      <trkpt lat="45.24041" lon="5.74228">
        <ele>975</ele>
        <time>2021-07-11T05:14:37.000Z</time>
      </trkpt>
      <trkpt lat="45.24042" lon="5.74229">
        <ele>976.40002441406</ele>
        <time>2021-07-11T05:14:39.000Z</time>
      </trkpt>
      <trkpt lat="45.24045" lon="5.74229">
        <ele>977.20001220703</ele>
        <time>2021-07-11T05:14:43.000Z</time>
      </trkpt>
      <trkpt lat="45.24045" lon="5.74229">
        <ele>977.20001220703</ele>
        <time>2021-07-11T05:14:44.000Z</time>
      </trkpt>
      <trkpt lat="45.24046" lon="5.7423">
        <ele>977.79998779297</ele>
        <time>2021-07-11T05:14:45.000Z</time>
      </trkpt>
      <trkpt lat="45.24046" lon="5.74232">
        <ele>978.79998779297</ele>
        <time>2021-07-11T05:14:48.000Z</time>
      </trkpt>
      <trkpt lat="45.24046" lon="5.74233">
        <ele>979.40002441406</ele>
        <time>2021-07-11T05:14:50.000Z</time>
      </trkpt>
      <trkpt lat="45.24048" lon="5.74234">
        <ele>979.79998779297</ele>
        <time>2021-07-11T05:14:52.000Z</time>
      </trkpt>
      <trkpt lat="45.2405" lon="5.74237">
        <ele>981.20001220703</ele>
        <time>2021-07-11T05:14:56.000Z</time>
      </trkpt>
      <trkpt lat="45.2405" lon="5.74237">
        <ele>981.20001220703</ele>
        <time>2021-07-11T05:14:57.000Z</time>
      </trkpt>
      <trkpt lat="45.24051" lon="5.74235">
        <ele>982.59997558594</ele>
        <time>2021-07-11T05:15:00.000Z</time>
      </trkpt>
      <trkpt lat="45.24054" lon="5.74234">
        <ele>982.79998779297</ele>
        <time>2021-07-11T05:15:03.000Z</time>
      </trkpt>
      <trkpt lat="45.24057" lon="5.74237">
        <ele>983.59997558594</ele>
        <time>2021-07-11T05:15:08.000Z</time>
      </trkpt>
      <trkpt lat="45.24059" lon="5.74238">
        <ele>984.59997558594</ele>
        <time>2021-07-11T05:15:10.000Z</time>
      </trkpt>
      <trkpt lat="45.24059" lon="5.74239">
        <ele>985</ele>
        <time>2021-07-11T05:15:11.000Z</time>
      </trkpt>
      <trkpt lat="45.24061" lon="5.7424">
        <ele>986.20001220703</ele>
        <time>2021-07-11T05:15:16.000Z</time>
      </trkpt>
      <trkpt lat="45.24064" lon="5.74241">
        <ele>987.40002441406</ele>
        <time>2021-07-11T05:15:20.000Z</time>
      </trkpt>
      <trkpt lat="45.24066" lon="5.74242">
        <ele>987.59997558594</ele>
        <time>2021-07-11T05:15:22.000Z</time>
      </trkpt>
      <trkpt lat="45.24068" lon="5.74245">
        <ele>988.59997558594</ele>
        <time>2021-07-11T05:15:27.000Z</time>
      </trkpt>
      <trkpt lat="45.24072" lon="5.74244">
        <ele>990</ele>
        <time>2021-07-11T05:15:32.000Z</time>
      </trkpt>
      <trkpt lat="45.24074" lon="5.74244">
        <ele>991</ele>
        <time>2021-07-11T05:15:35.000Z</time>
      </trkpt>
      <trkpt lat="45.24078" lon="5.74245">
        <ele>991.20001220703</ele>
        <time>2021-07-11T05:15:39.000Z</time>
      </trkpt>
      <trkpt lat="45.24078" lon="5.74246">
        <ele>991.20001220703</ele>
        <time>2021-07-11T05:15:40.000Z</time>
      </trkpt>
      <trkpt lat="45.24079" lon="5.74247">
        <ele>991.20001220703</ele>
        <time>2021-07-11T05:15:41.000Z</time>
      </trkpt>
      <trkpt lat="45.24081" lon="5.74247">
        <ele>992.20001220703</ele>
        <time>2021-07-11T05:15:43.000Z</time>
      </trkpt>
      <trkpt lat="45.24088" lon="5.74249">
        <ele>993.40002441406</ele>
        <time>2021-07-11T05:15:50.000Z</time>
      </trkpt>
      <trkpt lat="45.2409" lon="5.7425">
        <ele>993.79998779297</ele>
        <time>2021-07-11T05:15:52.000Z</time>
      </trkpt>
      <trkpt lat="45.24091" lon="5.74252">
        <ele>994.79998779297</ele>
        <time>2021-07-11T05:15:54.000Z</time>
      </trkpt>
      <trkpt lat="45.24091" lon="5.74252">
        <ele>995.20001220703</ele>
        <time>2021-07-11T05:15:55.000Z</time>
      </trkpt>
      <trkpt lat="45.24093" lon="5.74253">
        <ele>995.79998779297</ele>
        <time>2021-07-11T05:15:58.000Z</time>
      </trkpt>
      <trkpt lat="45.24093" lon="5.74253">
        <ele>996.40002441406</ele>
        <time>2021-07-11T05:16:00.000Z</time>
      </trkpt>
      <trkpt lat="45.24094" lon="5.74254">
        <ele>996.59997558594</ele>
        <time>2021-07-11T05:16:01.000Z</time>
      </trkpt>
      <trkpt lat="45.24096" lon="5.74254">
        <ele>997</ele>
        <time>2021-07-11T05:16:04.000Z</time>
      </trkpt>
      <trkpt lat="45.24097" lon="5.74254">
        <ele>997.79998779297</ele>
        <time>2021-07-11T05:16:06.000Z</time>
      </trkpt>
      <trkpt lat="45.24098" lon="5.74255">
        <ele>998</ele>
        <time>2021-07-11T05:16:07.000Z</time>
      </trkpt>
      <trkpt lat="45.24099" lon="5.74255">
        <ele>998.59997558594</ele>
        <time>2021-07-11T05:16:09.000Z</time>
      </trkpt>
      <trkpt lat="45.24101" lon="5.74256">
        <ele>999.20001220703</ele>
        <time>2021-07-11T05:16:11.000Z</time>
      </trkpt>
      <trkpt lat="45.24104" lon="5.74256">
        <ele>1000</ele>
        <time>2021-07-11T05:16:15.000Z</time>
      </trkpt>
      <trkpt lat="45.24104" lon="5.74256">
        <ele>1000.5999755859</ele>
        <time>2021-07-11T05:16:16.000Z</time>
      </trkpt>
      <trkpt lat="45.24107" lon="5.74257">
        <ele>1002</ele>
        <time>2021-07-11T05:16:21.000Z</time>
      </trkpt>
      <trkpt lat="45.24109" lon="5.74258">
        <ele>1002.5999755859</ele>
        <time>2021-07-11T05:16:25.000Z</time>
      </trkpt>
      <trkpt lat="45.24109" lon="5.74259">
        <ele>1003.200012207</ele>
        <time>2021-07-11T05:16:26.000Z</time>
      </trkpt>
      <trkpt lat="45.24109" lon="5.7426">
        <ele>1003.200012207</ele>
        <time>2021-07-11T05:16:27.000Z</time>
      </trkpt>
      <trkpt lat="45.24112" lon="5.74261">
        <ele>1004.4000244141</ele>
        <time>2021-07-11T05:16:30.000Z</time>
      </trkpt>
      <trkpt lat="45.24115" lon="5.74262">
        <ele>1005</ele>
        <time>2021-07-11T05:16:33.000Z</time>
      </trkpt>
      <trkpt lat="45.24117" lon="5.74263">
        <ele>1005.4000244141</ele>
        <time>2021-07-11T05:16:35.000Z</time>
      </trkpt>
      <trkpt lat="45.24118" lon="5.74265">
        <ele>1006.5999755859</ele>
        <time>2021-07-11T05:16:38.000Z</time>
      </trkpt>
      <trkpt lat="45.2412" lon="5.74265">
        <ele>1007.200012207</ele>
        <time>2021-07-11T05:16:41.000Z</time>
      </trkpt>
      <trkpt lat="45.24124" lon="5.74265">
        <ele>1007.5999755859</ele>
        <time>2021-07-11T05:16:44.000Z</time>
      </trkpt>
      <trkpt lat="45.24125" lon="5.74265">
        <ele>1007.5999755859</ele>
        <time>2021-07-11T05:16:45.000Z</time>
      </trkpt>
      <trkpt lat="45.24126" lon="5.74266">
        <ele>1007.5999755859</ele>
        <time>2021-07-11T05:16:46.000Z</time>
      </trkpt>
      <trkpt lat="45.24128" lon="5.74266">
        <ele>1009.200012207</ele>
        <time>2021-07-11T05:16:48.000Z</time>
      </trkpt>
      <trkpt lat="45.24129" lon="5.74265">
        <ele>1009.200012207</ele>
        <time>2021-07-11T05:16:50.000Z</time>
      </trkpt>
      <trkpt lat="45.24133" lon="5.74266">
        <ele>1009.4000244141</ele>
        <time>2021-07-11T05:16:53.000Z</time>
      </trkpt>
      <trkpt lat="45.24135" lon="5.74267">
        <ele>1010</ele>
        <time>2021-07-11T05:16:56.000Z</time>
      </trkpt>
      <trkpt lat="45.24135" lon="5.74267">
        <ele>1010.5999755859</ele>
        <time>2021-07-11T05:16:57.000Z</time>
      </trkpt>
      <trkpt lat="45.24137" lon="5.74267">
        <ele>1010.799987793</ele>
        <time>2021-07-11T05:16:59.000Z</time>
      </trkpt>
      <trkpt lat="45.24144" lon="5.74269">
        <ele>1011.5999755859</ele>
        <time>2021-07-11T05:17:06.000Z</time>
      </trkpt>
      <trkpt lat="45.24145" lon="5.7427">
        <ele>1012.799987793</ele>
        <time>2021-07-11T05:17:08.000Z</time>
      </trkpt>
      <trkpt lat="45.24149" lon="5.74271">
        <ele>1013</ele>
        <time>2021-07-11T05:17:11.000Z</time>
      </trkpt>
      <trkpt lat="45.2415" lon="5.74272">
        <ele>1013.4000244141</ele>
        <time>2021-07-11T05:17:12.000Z</time>
      </trkpt>
      <trkpt lat="45.24153" lon="5.74274">
        <ele>1014.4000244141</ele>
        <time>2021-07-11T05:17:15.000Z</time>
      </trkpt>
      <trkpt lat="45.24155" lon="5.74274">
        <ele>1014.799987793</ele>
        <time>2021-07-11T05:17:18.000Z</time>
      </trkpt>
      <trkpt lat="45.24157" lon="5.74275">
        <ele>1015.4000244141</ele>
        <time>2021-07-11T05:17:19.000Z</time>
      </trkpt>
      <trkpt lat="45.24161" lon="5.74279">
        <ele>1017</ele>
        <time>2021-07-11T05:17:24.000Z</time>
      </trkpt>
      <trkpt lat="45.24161" lon="5.7428">
        <ele>1017</ele>
        <time>2021-07-11T05:17:25.000Z</time>
      </trkpt>
      <trkpt lat="45.24167" lon="5.74283">
        <ele>1017.4000244141</ele>
        <time>2021-07-11T05:17:31.000Z</time>
      </trkpt>
      <trkpt lat="45.24175" lon="5.74293">
        <ele>1017.799987793</ele>
        <time>2021-07-11T05:17:38.000Z</time>
      </trkpt>
      <trkpt lat="45.24176" lon="5.74295">
        <ele>1018</ele>
        <time>2021-07-11T05:17:39.000Z</time>
      </trkpt>
      <trkpt lat="45.24178" lon="5.74298">
        <ele>1019</ele>
        <time>2021-07-11T05:17:42.000Z</time>
      </trkpt>
      <trkpt lat="45.24179" lon="5.74298">
        <ele>1019</ele>
        <time>2021-07-11T05:17:44.000Z</time>
      </trkpt>
      <trkpt lat="45.2418" lon="5.74299">
        <ele>1019</ele>
        <time>2021-07-11T05:17:45.000Z</time>
      </trkpt>
      <trkpt lat="45.24184" lon="5.74302">
        <ele>1018.799987793</ele>
        <time>2021-07-11T05:17:51.000Z</time>
      </trkpt>
      <trkpt lat="45.24187" lon="5.74304">
        <ele>1019.200012207</ele>
        <time>2021-07-11T05:17:54.000Z</time>
      </trkpt>
      <trkpt lat="45.24189" lon="5.74306">
        <ele>1019.200012207</ele>
        <time>2021-07-11T05:17:56.000Z</time>
      </trkpt>
      <trkpt lat="45.2419" lon="5.74308">
        <ele>1019.4000244141</ele>
        <time>2021-07-11T05:17:58.000Z</time>
      </trkpt>
      <trkpt lat="45.24189" lon="5.7431">
        <ele>1020.200012207</ele>
        <time>2021-07-11T05:18:03.000Z</time>
      </trkpt>
      <trkpt lat="45.24188" lon="5.74313">
        <ele>1021.4000244141</ele>
        <time>2021-07-11T05:18:06.000Z</time>
      </trkpt>
      <trkpt lat="45.24187" lon="5.74315">
        <ele>1022.4000244141</ele>
        <time>2021-07-11T05:18:09.000Z</time>
      </trkpt>
      <trkpt lat="45.24187" lon="5.74315">
        <ele>1022.5999755859</ele>
        <time>2021-07-11T05:18:10.000Z</time>
      </trkpt>
      <trkpt lat="45.24186" lon="5.74317">
        <ele>1023.5999755859</ele>
        <time>2021-07-11T05:18:13.000Z</time>
      </trkpt>
      <trkpt lat="45.24184" lon="5.74319">
        <ele>1024.5999755859</ele>
        <time>2021-07-11T05:18:16.000Z</time>
      </trkpt>
      <trkpt lat="45.24183" lon="5.74319">
        <ele>1024.8000488281</ele>
        <time>2021-07-11T05:18:17.000Z</time>
      </trkpt>
      <trkpt lat="45.24181" lon="5.7432">
        <ele>1025.8000488281</ele>
        <time>2021-07-11T05:18:20.000Z</time>
      </trkpt>
      <trkpt lat="45.24179" lon="5.7432">
        <ele>1025.8000488281</ele>
        <time>2021-07-11T05:18:23.000Z</time>
      </trkpt>
      <trkpt lat="45.24177" lon="5.74317">
        <ele>1026.5999755859</ele>
        <time>2021-07-11T05:18:30.000Z</time>
      </trkpt>
      <trkpt lat="45.24175" lon="5.74318">
        <ele>1027</ele>
        <time>2021-07-11T05:18:33.000Z</time>
      </trkpt>
      <trkpt lat="45.24175" lon="5.74318">
        <ele>1028.5999755859</ele>
        <time>2021-07-11T05:18:36.000Z</time>
      </trkpt>
      <trkpt lat="45.24174" lon="5.74318">
        <ele>1029.5999755859</ele>
        <time>2021-07-11T05:18:39.000Z</time>
      </trkpt>
      <trkpt lat="45.24172" lon="5.74319">
        <ele>1030.5999755859</ele>
        <time>2021-07-11T05:18:42.000Z</time>
      </trkpt>
      <trkpt lat="45.24166" lon="5.7432">
        <ele>1031.1999511719</ele>
        <time>2021-07-11T05:18:49.000Z</time>
      </trkpt>
      <trkpt lat="45.24162" lon="5.74323">
        <ele>1031.8000488281</ele>
        <time>2021-07-11T05:18:54.000Z</time>
      </trkpt>
      <trkpt lat="45.2416" lon="5.74323">
        <ele>1032</ele>
        <time>2021-07-11T05:18:56.000Z</time>
      </trkpt>
      <trkpt lat="45.24157" lon="5.74326">
        <ele>1032.8000488281</ele>
        <time>2021-07-11T05:19:00.000Z</time>
      </trkpt>
      <trkpt lat="45.24155" lon="5.74327">
        <ele>1033</ele>
        <time>2021-07-11T05:19:02.000Z</time>
      </trkpt>
      <trkpt lat="45.24152" lon="5.74327">
        <ele>1033.8000488281</ele>
        <time>2021-07-11T05:19:06.000Z</time>
      </trkpt>
      <trkpt lat="45.24151" lon="5.74327">
        <ele>1034</ele>
        <time>2021-07-11T05:19:07.000Z</time>
      </trkpt>
      <trkpt lat="45.2415" lon="5.74327">
        <ele>1034</ele>
        <time>2021-07-11T05:19:09.000Z</time>
      </trkpt>
      <trkpt lat="45.24145" lon="5.74329">
        <ele>1034</ele>
        <time>2021-07-11T05:19:13.000Z</time>
      </trkpt>
      <trkpt lat="45.24142" lon="5.7433">
        <ele>1034.4000244141</ele>
        <time>2021-07-11T05:19:17.000Z</time>
      </trkpt>
      <trkpt lat="45.2414" lon="5.74331">
        <ele>1034.5999755859</ele>
        <time>2021-07-11T05:19:20.000Z</time>
      </trkpt>
      <trkpt lat="45.24138" lon="5.74331">
        <ele>1034.8000488281</ele>
        <time>2021-07-11T05:19:23.000Z</time>
      </trkpt>
      <trkpt lat="45.24131" lon="5.7433">
        <ele>1034</ele>
        <time>2021-07-11T05:19:30.000Z</time>
      </trkpt>
      <trkpt lat="45.24124" lon="5.74331">
        <ele>1033.8000488281</ele>
        <time>2021-07-11T05:19:34.000Z</time>
      </trkpt>
      <trkpt lat="45.24121" lon="5.74332">
        <ele>1033.8000488281</ele>
        <time>2021-07-11T05:19:36.000Z</time>
      </trkpt>
      <trkpt lat="45.24119" lon="5.74333">
        <ele>1034</ele>
        <time>2021-07-11T05:19:38.000Z</time>
      </trkpt>
      <trkpt lat="45.24113" lon="5.74335">
        <ele>1034</ele>
        <time>2021-07-11T05:19:41.000Z</time>
      </trkpt>
      <trkpt lat="45.24111" lon="5.74335">
        <ele>1034.1999511719</ele>
        <time>2021-07-11T05:19:42.000Z</time>
      </trkpt>
      <trkpt lat="45.2411" lon="5.74335">
        <ele>1034.1999511719</ele>
        <time>2021-07-11T05:19:43.000Z</time>
      </trkpt>
      <trkpt lat="45.24103" lon="5.74338">
        <ele>1034.1999511719</ele>
        <time>2021-07-11T05:19:47.000Z</time>
      </trkpt>
      <trkpt lat="45.2409" lon="5.74346">
        <ele>1034.8000488281</ele>
        <time>2021-07-11T05:19:54.000Z</time>
      </trkpt>
      <trkpt lat="45.24089" lon="5.74347">
        <ele>1035.4000244141</ele>
        <time>2021-07-11T05:19:55.000Z</time>
      </trkpt>
      <trkpt lat="45.24082" lon="5.7435">
        <ele>1034.8000488281</ele>
        <time>2021-07-11T05:19:58.000Z</time>
      </trkpt>
      <trkpt lat="45.24075" lon="5.74356">
        <ele>1034.5999755859</ele>
        <time>2021-07-11T05:20:01.000Z</time>
      </trkpt>
      <trkpt lat="45.24074" lon="5.74358">
        <ele>1034.5999755859</ele>
        <time>2021-07-11T05:20:02.000Z</time>
      </trkpt>
      <trkpt lat="45.24074" lon="5.74361">
        <ele>1034.5999755859</ele>
        <time>2021-07-11T05:20:04.000Z</time>
      </trkpt>
      <trkpt lat="45.24074" lon="5.74363">
        <ele>1034.5999755859</ele>
        <time>2021-07-11T05:20:05.000Z</time>
      </trkpt>
      <trkpt lat="45.24075" lon="5.74369">
        <ele>1035.5999755859</ele>
        <time>2021-07-11T05:20:09.000Z</time>
      </trkpt>
      <trkpt lat="45.24074" lon="5.74374">
        <ele>1035.8000488281</ele>
        <time>2021-07-11T05:20:12.000Z</time>
      </trkpt>
      <trkpt lat="45.24075" lon="5.74377">
        <ele>1036.5999755859</ele>
        <time>2021-07-11T05:20:14.000Z</time>
      </trkpt>
      <trkpt lat="45.24075" lon="5.74381">
        <ele>1037.1999511719</ele>
        <time>2021-07-11T05:20:16.000Z</time>
      </trkpt>
      <trkpt lat="45.24074" lon="5.74384">
        <ele>1037.4000244141</ele>
        <time>2021-07-11T05:20:17.000Z</time>
      </trkpt>
      <trkpt lat="45.24073" lon="5.74389">
        <ele>1037.4000244141</ele>
        <time>2021-07-11T05:20:20.000Z</time>
      </trkpt>
      <trkpt lat="45.24073" lon="5.74391">
        <ele>1037.4000244141</ele>
        <time>2021-07-11T05:20:21.000Z</time>
      </trkpt>
      <trkpt lat="45.24072" lon="5.74393">
        <ele>1037.8000488281</ele>
        <time>2021-07-11T05:20:22.000Z</time>
      </trkpt>
      <trkpt lat="45.24067" lon="5.74404">
        <ele>1038.8000488281</ele>
        <time>2021-07-11T05:20:27.000Z</time>
      </trkpt>
      <trkpt lat="45.24067" lon="5.74407">
        <ele>1039.4000244141</ele>
        <time>2021-07-11T05:20:28.000Z</time>
      </trkpt>
      <trkpt lat="45.24066" lon="5.74414">
        <ele>1040</ele>
        <time>2021-07-11T05:20:32.000Z</time>
      </trkpt>
      <trkpt lat="45.24065" lon="5.74416">
        <ele>1040.1999511719</ele>
        <time>2021-07-11T05:20:33.000Z</time>
      </trkpt>
      <trkpt lat="45.24065" lon="5.7442">
        <ele>1040.5999755859</ele>
        <time>2021-07-11T05:20:35.000Z</time>
      </trkpt>
      <trkpt lat="45.24064" lon="5.74422">
        <ele>1040.5999755859</ele>
        <time>2021-07-11T05:20:36.000Z</time>
      </trkpt>
      <trkpt lat="45.24064" lon="5.74424">
        <ele>1040.5999755859</ele>
        <time>2021-07-11T05:20:37.000Z</time>
      </trkpt>
      <trkpt lat="45.24065" lon="5.74426">
        <ele>1041</ele>
        <time>2021-07-11T05:20:38.000Z</time>
      </trkpt>
      <trkpt lat="45.24065" lon="5.74428">
        <ele>1041</ele>
        <time>2021-07-11T05:20:39.000Z</time>
      </trkpt>
      <trkpt lat="45.24066" lon="5.74432">
        <ele>1041.5999755859</ele>
        <time>2021-07-11T05:20:41.000Z</time>
      </trkpt>
      <trkpt lat="45.24068" lon="5.74435">
        <ele>1042</ele>
        <time>2021-07-11T05:20:44.000Z</time>
      </trkpt>
      <trkpt lat="45.24071" lon="5.74434">
        <ele>1042.1999511719</ele>
        <time>2021-07-11T05:20:46.000Z</time>
      </trkpt>
      <trkpt lat="45.24071" lon="5.74433">
        <ele>1042.4000244141</ele>
        <time>2021-07-11T05:20:47.000Z</time>
      </trkpt>
      <trkpt lat="45.24071" lon="5.74432">
        <ele>1042.8000488281</ele>
        <time>2021-07-11T05:20:51.000Z</time>
      </trkpt>
      <trkpt lat="45.24073" lon="5.74431">
        <ele>1043.4000244141</ele>
        <time>2021-07-11T05:20:54.000Z</time>
      </trkpt>
      <trkpt lat="45.24073" lon="5.7443">
        <ele>1043.5999755859</ele>
        <time>2021-07-11T05:20:56.000Z</time>
      </trkpt>
      <trkpt lat="45.24073" lon="5.7443">
        <ele>1044.5999755859</ele>
        <time>2021-07-11T05:20:57.000Z</time>
      </trkpt>
      <trkpt lat="45.24075" lon="5.74427">
        <ele>1044.8000488281</ele>
        <time>2021-07-11T05:21:00.000Z</time>
      </trkpt>
      <trkpt lat="45.24076" lon="5.74425">
        <ele>1045.5999755859</ele>
        <time>2021-07-11T05:21:03.000Z</time>
      </trkpt>
      <trkpt lat="45.24078" lon="5.7442">
        <ele>1046.8000488281</ele>
        <time>2021-07-11T05:21:07.000Z</time>
      </trkpt>
      <trkpt lat="45.24078" lon="5.74419">
        <ele>1047</ele>
        <time>2021-07-11T05:21:08.000Z</time>
      </trkpt>
      <trkpt lat="45.2408" lon="5.74416">
        <ele>1047.1999511719</ele>
        <time>2021-07-11T05:21:10.000Z</time>
      </trkpt>
      <trkpt lat="45.2408" lon="5.74414">
        <ele>1048</ele>
        <time>2021-07-11T05:21:11.000Z</time>
      </trkpt>
      <trkpt lat="45.24081" lon="5.74412">
        <ele>1048.1999511719</ele>
        <time>2021-07-11T05:21:13.000Z</time>
      </trkpt>
      <trkpt lat="45.24082" lon="5.74409">
        <ele>1049</ele>
        <time>2021-07-11T05:21:16.000Z</time>
      </trkpt>
      <trkpt lat="45.24084" lon="5.74404">
        <ele>1050</ele>
        <time>2021-07-11T05:21:21.000Z</time>
      </trkpt>
      <trkpt lat="45.24086" lon="5.74403">
        <ele>1050</ele>
        <time>2021-07-11T05:21:23.000Z</time>
      </trkpt>
      <trkpt lat="45.24086" lon="5.74402">
        <ele>1050.5999755859</ele>
        <time>2021-07-11T05:21:24.000Z</time>
      </trkpt>
      <trkpt lat="45.24088" lon="5.74399">
        <ele>1050.8000488281</ele>
        <time>2021-07-11T05:21:26.000Z</time>
      </trkpt>
      <trkpt lat="45.24089" lon="5.74398">
        <ele>1051</ele>
        <time>2021-07-11T05:21:27.000Z</time>
      </trkpt>
      <trkpt lat="45.2409" lon="5.74397">
        <ele>1051.1999511719</ele>
        <time>2021-07-11T05:21:28.000Z</time>
      </trkpt>
      <trkpt lat="45.24091" lon="5.74396">
        <ele>1052</ele>
        <time>2021-07-11T05:21:29.000Z</time>
      </trkpt>
      <trkpt lat="45.24092" lon="5.74395">
        <ele>1052.1999511719</ele>
        <time>2021-07-11T05:21:30.000Z</time>
      </trkpt>
      <trkpt lat="45.24096" lon="5.74392">
        <ele>1052.4000244141</ele>
        <time>2021-07-11T05:21:33.000Z</time>
      </trkpt>
      <trkpt lat="45.24099" lon="5.74389">
        <ele>1052.5999755859</ele>
        <time>2021-07-11T05:21:34.000Z</time>
      </trkpt>
      <trkpt lat="45.24101" lon="5.74388">
        <ele>1053.4000244141</ele>
        <time>2021-07-11T05:21:35.000Z</time>
      </trkpt>
      <trkpt lat="45.24109" lon="5.74382">
        <ele>1054.4000244141</ele>
        <time>2021-07-11T05:21:39.000Z</time>
      </trkpt>
      <trkpt lat="45.24111" lon="5.74381">
        <ele>1054.4000244141</ele>
        <time>2021-07-11T05:21:40.000Z</time>
      </trkpt>
      <trkpt lat="45.24116" lon="5.7438">
        <ele>1055.5999755859</ele>
        <time>2021-07-11T05:21:42.000Z</time>
      </trkpt>
      <trkpt lat="45.24126" lon="5.74378">
        <ele>1056</ele>
        <time>2021-07-11T05:21:46.000Z</time>
      </trkpt>
      <trkpt lat="45.24133" lon="5.74377">
        <ele>1056.8000488281</ele>
        <time>2021-07-11T05:21:50.000Z</time>
      </trkpt>
      <trkpt lat="45.24135" lon="5.74376">
        <ele>1057</ele>
        <time>2021-07-11T05:21:52.000Z</time>
      </trkpt>
      <trkpt lat="45.24136" lon="5.74376">
        <ele>1057</ele>
        <time>2021-07-11T05:21:53.000Z</time>
      </trkpt>
      <trkpt lat="45.24142" lon="5.74374">
        <ele>1058.5999755859</ele>
        <time>2021-07-11T05:21:59.000Z</time>
      </trkpt>
      <trkpt lat="45.24143" lon="5.74374">
        <ele>1058.8000488281</ele>
        <time>2021-07-11T05:22:00.000Z</time>
      </trkpt>
      <trkpt lat="45.24145" lon="5.74373">
        <ele>1058.8000488281</ele>
        <time>2021-07-11T05:22:02.000Z</time>
      </trkpt>
      <trkpt lat="45.2415" lon="5.74374">
        <ele>1058.8000488281</ele>
        <time>2021-07-11T05:22:05.000Z</time>
      </trkpt>
      <trkpt lat="45.2415" lon="5.74375">
        <ele>1058.8000488281</ele>
        <time>2021-07-11T05:22:06.000Z</time>
      </trkpt>
      <trkpt lat="45.24151" lon="5.74381">
        <ele>1058.8000488281</ele>
        <time>2021-07-11T05:22:09.000Z</time>
      </trkpt>
      <trkpt lat="45.24151" lon="5.74385">
        <ele>1059</ele>
        <time>2021-07-11T05:22:11.000Z</time>
      </trkpt>
      <trkpt lat="45.2415" lon="5.74388">
        <ele>1059</ele>
        <time>2021-07-11T05:22:12.000Z</time>
      </trkpt>
      <trkpt lat="45.24147" lon="5.74395">
        <ele>1059.5999755859</ele>
        <time>2021-07-11T05:22:16.000Z</time>
      </trkpt>
      <trkpt lat="45.24147" lon="5.74397">
        <ele>1060.4000244141</ele>
        <time>2021-07-11T05:22:19.000Z</time>
      </trkpt>
      <trkpt lat="45.24146" lon="5.74397">
        <ele>1060.4000244141</ele>
        <time>2021-07-11T05:22:20.000Z</time>
      </trkpt>
      <trkpt lat="45.24144" lon="5.74399">
        <ele>1061</ele>
        <time>2021-07-11T05:22:22.000Z</time>
      </trkpt>
      <trkpt lat="45.24143" lon="5.744">
        <ele>1061</ele>
        <time>2021-07-11T05:22:24.000Z</time>
      </trkpt>
      <trkpt lat="45.24143" lon="5.744">
        <ele>1061</ele>
        <time>2021-07-11T05:22:25.000Z</time>
      </trkpt>
      <trkpt lat="45.24142" lon="5.744">
        <ele>1061.1999511719</ele>
        <time>2021-07-11T05:22:27.000Z</time>
      </trkpt>
      <trkpt lat="45.24141" lon="5.74401">
        <ele>1061.4000244141</ele>
        <time>2021-07-11T05:22:29.000Z</time>
      </trkpt>
      <trkpt lat="45.24141" lon="5.74401">
        <ele>1061.4000244141</ele>
        <time>2021-07-11T05:22:30.000Z</time>
      </trkpt>
      <trkpt lat="45.24139" lon="5.74401">
        <ele>1062.1999511719</ele>
        <time>2021-07-11T05:22:32.000Z</time>
      </trkpt>
      <trkpt lat="45.24134" lon="5.74403">
        <ele>1063.1999511719</ele>
        <time>2021-07-11T05:22:36.000Z</time>
      </trkpt>
      <trkpt lat="45.24132" lon="5.74403">
        <ele>1063.5999755859</ele>
        <time>2021-07-11T05:22:38.000Z</time>
      </trkpt>
      <trkpt lat="45.24131" lon="5.74403">
        <ele>1063.5999755859</ele>
        <time>2021-07-11T05:22:39.000Z</time>
      </trkpt>
      <trkpt lat="45.2413" lon="5.74403">
        <ele>1063.5999755859</ele>
        <time>2021-07-11T05:22:41.000Z</time>
      </trkpt>
      <trkpt lat="45.24129" lon="5.74403">
        <ele>1063.5999755859</ele>
        <time>2021-07-11T05:22:43.000Z</time>
      </trkpt>
      <trkpt lat="45.24128" lon="5.74403">
        <ele>1063.5999755859</ele>
        <time>2021-07-11T05:22:44.000Z</time>
      </trkpt>
      <trkpt lat="45.24129" lon="5.74402">
        <ele>1063.5999755859</ele>
        <time>2021-07-11T05:22:47.000Z</time>
      </trkpt>
      <trkpt lat="45.24129" lon="5.744">
        <ele>1063.5999755859</ele>
        <time>2021-07-11T05:22:50.000Z</time>
      </trkpt>
      <trkpt lat="45.24127" lon="5.744">
        <ele>1063.4000244141</ele>
        <time>2021-07-11T05:22:53.000Z</time>
      </trkpt>
      <trkpt lat="45.24128" lon="5.74399">
        <ele>1063.4000244141</ele>
        <time>2021-07-11T05:22:58.000Z</time>
      </trkpt>
      <trkpt lat="45.24128" lon="5.74399">
        <ele>1063.4000244141</ele>
        <time>2021-07-11T05:23:07.000Z</time>
      </trkpt>
      <trkpt lat="45.24128" lon="5.74399">
        <ele>1063.4000244141</ele>
        <time>2021-07-11T05:23:11.000Z</time>
      </trkpt>
      <trkpt lat="45.24128" lon="5.74398">
        <ele>1063.5999755859</ele>
        <time>2021-07-11T05:23:13.000Z</time>
      </trkpt>
      <trkpt lat="45.24128" lon="5.74398">
        <ele>1063.4000244141</ele>
        <time>2021-07-11T05:23:16.000Z</time>
      </trkpt>
      <trkpt lat="45.24128" lon="5.74398">
        <ele>1063.4000244141</ele>
        <time>2021-07-11T05:23:20.000Z</time>
      </trkpt>
      <trkpt lat="45.24128" lon="5.74397">
        <ele>1063.5999755859</ele>
        <time>2021-07-11T05:23:24.000Z</time>
      </trkpt>
      <trkpt lat="45.24128" lon="5.74397">
        <ele>1063.8000488281</ele>
        <time>2021-07-11T05:23:27.000Z</time>
      </trkpt>
      <trkpt lat="45.24129" lon="5.74397">
        <ele>1063.5999755859</ele>
        <time>2021-07-11T05:23:32.000Z</time>
      </trkpt>
      <trkpt lat="45.24129" lon="5.74397">
        <ele>1063.4000244141</ele>
        <time>2021-07-11T05:23:35.000Z</time>
      </trkpt>
      <trkpt lat="45.2413" lon="5.74397">
        <ele>1063.1999511719</ele>
        <time>2021-07-11T05:23:41.000Z</time>
      </trkpt>
      <trkpt lat="45.2413" lon="5.74397">
        <ele>1062.1999511719</ele>
        <time>2021-07-11T05:23:48.000Z</time>
      </trkpt>
      <trkpt lat="45.2413" lon="5.74398">
        <ele>1061</ele>
        <time>2021-07-11T05:23:54.000Z</time>
      </trkpt>
      <trkpt lat="45.24129" lon="5.744">
        <ele>1059.8000488281</ele>
        <time>2021-07-11T05:24:00.000Z</time>
      </trkpt>
      <trkpt lat="45.24128" lon="5.744">
        <ele>1058.8000488281</ele>
        <time>2021-07-11T05:24:04.000Z</time>
      </trkpt>
      <trkpt lat="45.24127" lon="5.744">
        <ele>1058.5999755859</ele>
        <time>2021-07-11T05:24:05.000Z</time>
      </trkpt>
      <trkpt lat="45.24124" lon="5.744">
        <ele>1056.8000488281</ele>
        <time>2021-07-11T05:24:10.000Z</time>
      </trkpt>
      <trkpt lat="45.24124" lon="5.74391">
        <ele>1056.4000244141</ele>
        <time>2021-07-11T05:24:15.000Z</time>
      </trkpt>
      <trkpt lat="45.24123" lon="5.74388">
        <ele>1056</ele>
        <time>2021-07-11T05:24:17.000Z</time>
      </trkpt>
      <trkpt lat="45.24122" lon="5.74387">
        <ele>1055.8000488281</ele>
        <time>2021-07-11T05:24:18.000Z</time>
      </trkpt>
      <trkpt lat="45.24121" lon="5.74386">
        <ele>1055.8000488281</ele>
        <time>2021-07-11T05:24:19.000Z</time>
      </trkpt>
      <trkpt lat="45.24119" lon="5.74386">
        <ele>1055.5999755859</ele>
        <time>2021-07-11T05:24:20.000Z</time>
      </trkpt>
      <trkpt lat="45.24117" lon="5.74385">
        <ele>1054.5999755859</ele>
        <time>2021-07-11T05:24:22.000Z</time>
      </trkpt>
      <trkpt lat="45.24114" lon="5.74387">
        <ele>1054.1999511719</ele>
        <time>2021-07-11T05:24:24.000Z</time>
      </trkpt>
      <trkpt lat="45.24111" lon="5.7439">
        <ele>1053</ele>
        <time>2021-07-11T05:24:26.000Z</time>
      </trkpt>
      <trkpt lat="45.24107" lon="5.74393">
        <ele>1051.8000488281</ele>
        <time>2021-07-11T05:24:30.000Z</time>
      </trkpt>
      <trkpt lat="45.24103" lon="5.74395">
        <ele>1051</ele>
        <time>2021-07-11T05:24:32.000Z</time>
      </trkpt>
      <trkpt lat="45.24102" lon="5.74396">
        <ele>1051</ele>
        <time>2021-07-11T05:24:33.000Z</time>
      </trkpt>
      <trkpt lat="45.24101" lon="5.74399">
        <ele>1050.5999755859</ele>
        <time>2021-07-11T05:24:34.000Z</time>
      </trkpt>
      <trkpt lat="45.24099" lon="5.74403">
        <ele>1049.5999755859</ele>
        <time>2021-07-11T05:24:36.000Z</time>
      </trkpt>
      <trkpt lat="45.24097" lon="5.74405">
        <ele>1049.1999511719</ele>
        <time>2021-07-11T05:24:38.000Z</time>
      </trkpt>
      <trkpt lat="45.24096" lon="5.74407">
        <ele>1048.8000488281</ele>
        <time>2021-07-11T05:24:39.000Z</time>
      </trkpt>
      <trkpt lat="45.24094" lon="5.7441">
        <ele>1048.4000244141</ele>
        <time>2021-07-11T05:24:41.000Z</time>
      </trkpt>
      <trkpt lat="45.24092" lon="5.74414">
        <ele>1047.4000244141</ele>
        <time>2021-07-11T05:24:43.000Z</time>
      </trkpt>
      <trkpt lat="45.24091" lon="5.74418">
        <ele>1047</ele>
        <time>2021-07-11T05:24:45.000Z</time>
      </trkpt>
      <trkpt lat="45.24089" lon="5.74421">
        <ele>1046</ele>
        <time>2021-07-11T05:24:47.000Z</time>
      </trkpt>
      <trkpt lat="45.24087" lon="5.74427">
        <ele>1044.4000244141</ele>
        <time>2021-07-11T05:24:51.000Z</time>
      </trkpt>
      <trkpt lat="45.24088" lon="5.74429">
        <ele>1044.1999511719</ele>
        <time>2021-07-11T05:24:52.000Z</time>
      </trkpt>
      <trkpt lat="45.24084" lon="5.74438">
        <ele>1043</ele>
        <time>2021-07-11T05:24:56.000Z</time>
      </trkpt>
      <trkpt lat="45.24081" lon="5.74439">
        <ele>1043</ele>
        <time>2021-07-11T05:24:57.000Z</time>
      </trkpt>
      <trkpt lat="45.24077" lon="5.7444">
        <ele>1042.5999755859</ele>
        <time>2021-07-11T05:25:01.000Z</time>
      </trkpt>
      <trkpt lat="45.24072" lon="5.74438">
        <ele>1042.1999511719</ele>
        <time>2021-07-11T05:25:05.000Z</time>
      </trkpt>
      <trkpt lat="45.2407" lon="5.74437">
        <ele>1042</ele>
        <time>2021-07-11T05:25:07.000Z</time>
      </trkpt>
      <trkpt lat="45.24068" lon="5.74435">
        <ele>1041.5999755859</ele>
        <time>2021-07-11T05:25:09.000Z</time>
      </trkpt>
      <trkpt lat="45.24063" lon="5.74431">
        <ele>1041.1999511719</ele>
        <time>2021-07-11T05:25:12.000Z</time>
      </trkpt>
      <trkpt lat="45.24063" lon="5.7443">
        <ele>1041</ele>
        <time>2021-07-11T05:25:13.000Z</time>
      </trkpt>
      <trkpt lat="45.24062" lon="5.74429">
        <ele>1040.5999755859</ele>
        <time>2021-07-11T05:25:14.000Z</time>
      </trkpt>
      <trkpt lat="45.24061" lon="5.7442">
        <ele>1039.5999755859</ele>
        <time>2021-07-11T05:25:18.000Z</time>
      </trkpt>
      <trkpt lat="45.24062" lon="5.74417">
        <ele>1039</ele>
        <time>2021-07-11T05:25:20.000Z</time>
      </trkpt>
      <trkpt lat="45.24063" lon="5.74413">
        <ele>1038.1999511719</ele>
        <time>2021-07-11T05:25:22.000Z</time>
      </trkpt>
      <trkpt lat="45.24065" lon="5.74401">
        <ele>1037.1999511719</ele>
        <time>2021-07-11T05:25:27.000Z</time>
      </trkpt>
      <trkpt lat="45.24065" lon="5.74392">
        <ele>1036.5999755859</ele>
        <time>2021-07-11T05:25:31.000Z</time>
      </trkpt>
      <trkpt lat="45.24065" lon="5.74389">
        <ele>1036.4000244141</ele>
        <time>2021-07-11T05:25:32.000Z</time>
      </trkpt>
      <trkpt lat="45.24065" lon="5.74386">
        <ele>1036.1999511719</ele>
        <time>2021-07-11T05:25:33.000Z</time>
      </trkpt>
      <trkpt lat="45.24063" lon="5.7438">
        <ele>1036</ele>
        <time>2021-07-11T05:25:35.000Z</time>
      </trkpt>
      <trkpt lat="45.24062" lon="5.74377">
        <ele>1036</ele>
        <time>2021-07-11T05:25:36.000Z</time>
      </trkpt>
      <trkpt lat="45.24057" lon="5.74372">
        <ele>1034.5999755859</ele>
        <time>2021-07-11T05:25:39.000Z</time>
      </trkpt>
      <trkpt lat="45.24055" lon="5.74372">
        <ele>1034.5999755859</ele>
        <time>2021-07-11T05:25:40.000Z</time>
      </trkpt>
      <trkpt lat="45.24054" lon="5.74372">
        <ele>1034.4000244141</ele>
        <time>2021-07-11T05:25:41.000Z</time>
      </trkpt>
      <trkpt lat="45.2405" lon="5.7438">
        <ele>1033.8000488281</ele>
        <time>2021-07-11T05:25:46.000Z</time>
      </trkpt>
      <trkpt lat="45.24048" lon="5.74384">
        <ele>1033.4000244141</ele>
        <time>2021-07-11T05:25:48.000Z</time>
      </trkpt>
      <trkpt lat="45.24043" lon="5.74391">
        <ele>1032.5999755859</ele>
        <time>2021-07-11T05:25:51.000Z</time>
      </trkpt>
      <trkpt lat="45.2404" lon="5.74399">
        <ele>1032</ele>
        <time>2021-07-11T05:25:54.000Z</time>
      </trkpt>
      <trkpt lat="45.24036" lon="5.74404">
        <ele>1031.8000488281</ele>
        <time>2021-07-11T05:25:56.000Z</time>
      </trkpt>
      <trkpt lat="45.24033" lon="5.74409">
        <ele>1031.1999511719</ele>
        <time>2021-07-11T05:25:58.000Z</time>
      </trkpt>
      <trkpt lat="45.2403" lon="5.74413">
        <ele>1031.1999511719</ele>
        <time>2021-07-11T05:26:00.000Z</time>
      </trkpt>
      <trkpt lat="45.24024" lon="5.7442">
        <ele>1031.1999511719</ele>
        <time>2021-07-11T05:26:03.000Z</time>
      </trkpt>
      <trkpt lat="45.24023" lon="5.74422">
        <ele>1030.8000488281</ele>
        <time>2021-07-11T05:26:04.000Z</time>
      </trkpt>
      <trkpt lat="45.24021" lon="5.74424">
        <ele>1030.8000488281</ele>
        <time>2021-07-11T05:26:05.000Z</time>
      </trkpt>
      <trkpt lat="45.24016" lon="5.7443">
        <ele>1030.4000244141</ele>
        <time>2021-07-11T05:26:08.000Z</time>
      </trkpt>
      <trkpt lat="45.24007" lon="5.7444">
        <ele>1029.5999755859</ele>
        <time>2021-07-11T05:26:13.000Z</time>
      </trkpt>
      <trkpt lat="45.23999" lon="5.7445">
        <ele>1028.5999755859</ele>
        <time>2021-07-11T05:26:19.000Z</time>
      </trkpt>
      <trkpt lat="45.23998" lon="5.74452">
        <ele>1028.5999755859</ele>
        <time>2021-07-11T05:26:20.000Z</time>
      </trkpt>
      <trkpt lat="45.23994" lon="5.74455">
        <ele>1028.1999511719</ele>
        <time>2021-07-11T05:26:22.000Z</time>
      </trkpt>
      <trkpt lat="45.23989" lon="5.74462">
        <ele>1027.5999755859</ele>
        <time>2021-07-11T05:26:25.000Z</time>
      </trkpt>
      <trkpt lat="45.23983" lon="5.74468">
        <ele>1027</ele>
        <time>2021-07-11T05:26:28.000Z</time>
      </trkpt>
      <trkpt lat="45.23974" lon="5.74476">
        <ele>1026.5999755859</ele>
        <time>2021-07-11T05:26:32.000Z</time>
      </trkpt>
      <trkpt lat="45.23966" lon="5.74488">
        <ele>1026</ele>
        <time>2021-07-11T05:26:37.000Z</time>
      </trkpt>
      <trkpt lat="45.23964" lon="5.74492">
        <ele>1025.4000244141</ele>
        <time>2021-07-11T05:26:39.000Z</time>
      </trkpt>
      <trkpt lat="45.23958" lon="5.74499">
        <ele>1024.5999755859</ele>
        <time>2021-07-11T05:26:43.000Z</time>
      </trkpt>
      <trkpt lat="45.23955" lon="5.74503">
        <ele>1024.1999511719</ele>
        <time>2021-07-11T05:26:45.000Z</time>
      </trkpt>
      <trkpt lat="45.23951" lon="5.74512">
        <ele>1023.200012207</ele>
        <time>2021-07-11T05:26:48.000Z</time>
      </trkpt>
      <trkpt lat="45.23949" lon="5.74515">
        <ele>1023</ele>
        <time>2021-07-11T05:26:49.000Z</time>
      </trkpt>
      <trkpt lat="45.23945" lon="5.74524">
        <ele>1022.4000244141</ele>
        <time>2021-07-11T05:26:53.000Z</time>
      </trkpt>
      <trkpt lat="45.23944" lon="5.74529">
        <ele>1022</ele>
        <time>2021-07-11T05:26:55.000Z</time>
      </trkpt>
      <trkpt lat="45.23943" lon="5.74532">
        <ele>1021.799987793</ele>
        <time>2021-07-11T05:26:56.000Z</time>
      </trkpt>
      <trkpt lat="45.23943" lon="5.74543">
        <ele>1021</ele>
        <time>2021-07-11T05:26:59.000Z</time>
      </trkpt>
      <trkpt lat="45.23945" lon="5.74546">
        <ele>1020.200012207</ele>
        <time>2021-07-11T05:27:00.000Z</time>
      </trkpt>
      <trkpt lat="45.23948" lon="5.74555">
        <ele>1019.5999755859</ele>
        <time>2021-07-11T05:27:03.000Z</time>
      </trkpt>
      <trkpt lat="45.2395" lon="5.74561">
        <ele>1019</ele>
        <time>2021-07-11T05:27:06.000Z</time>
      </trkpt>
      <trkpt lat="45.23955" lon="5.74567">
        <ele>1018.200012207</ele>
        <time>2021-07-11T05:27:10.000Z</time>
      </trkpt>
      <trkpt lat="45.23957" lon="5.74568">
        <ele>1018.200012207</ele>
        <time>2021-07-11T05:27:11.000Z</time>
      </trkpt>
      <trkpt lat="45.23961" lon="5.74573">
        <ele>1017.799987793</ele>
        <time>2021-07-11T05:27:14.000Z</time>
      </trkpt>
      <trkpt lat="45.23965" lon="5.74586">
        <ele>1016.799987793</ele>
        <time>2021-07-11T05:27:20.000Z</time>
      </trkpt>
      <trkpt lat="45.23965" lon="5.74588">
        <ele>1016.5999755859</ele>
        <time>2021-07-11T05:27:21.000Z</time>
      </trkpt>
      <trkpt lat="45.23966" lon="5.7459">
        <ele>1016.4000244141</ele>
        <time>2021-07-11T05:27:22.000Z</time>
      </trkpt>
      <trkpt lat="45.23967" lon="5.74595">
        <ele>1015.5999755859</ele>
        <time>2021-07-11T05:27:24.000Z</time>
      </trkpt>
      <trkpt lat="45.23967" lon="5.74599">
        <ele>1015.5999755859</ele>
        <time>2021-07-11T05:27:25.000Z</time>
      </trkpt>
      <trkpt lat="45.2396" lon="5.74608">
        <ele>1015</ele>
        <time>2021-07-11T05:27:30.000Z</time>
      </trkpt>
      <trkpt lat="45.23956" lon="5.74608">
        <ele>1014.4000244141</ele>
        <time>2021-07-11T05:27:32.000Z</time>
      </trkpt>
      <trkpt lat="45.23947" lon="5.74607">
        <ele>1013.5999755859</ele>
        <time>2021-07-11T05:27:37.000Z</time>
      </trkpt>
      <trkpt lat="45.23943" lon="5.74605">
        <ele>1013.200012207</ele>
        <time>2021-07-11T05:27:39.000Z</time>
      </trkpt>
      <trkpt lat="45.23935" lon="5.74602">
        <ele>1012.200012207</ele>
        <time>2021-07-11T05:27:43.000Z</time>
      </trkpt>
      <trkpt lat="45.23933" lon="5.74601">
        <ele>1012</ele>
        <time>2021-07-11T05:27:44.000Z</time>
      </trkpt>
      <trkpt lat="45.23922" lon="5.746">
        <ele>1010.799987793</ele>
        <time>2021-07-11T05:27:49.000Z</time>
      </trkpt>
      <trkpt lat="45.2392" lon="5.746">
        <ele>1010.799987793</ele>
        <time>2021-07-11T05:27:50.000Z</time>
      </trkpt>
      <trkpt lat="45.23917" lon="5.74597">
        <ele>1010.5999755859</ele>
        <time>2021-07-11T05:27:53.000Z</time>
      </trkpt>
      <trkpt lat="45.23913" lon="5.74596">
        <ele>1010</ele>
        <time>2021-07-11T05:27:55.000Z</time>
      </trkpt>
      <trkpt lat="45.2391" lon="5.74596">
        <ele>1009.4000244141</ele>
        <time>2021-07-11T05:27:57.000Z</time>
      </trkpt>
      <trkpt lat="45.23897" lon="5.74593">
        <ele>1008.5999755859</ele>
        <time>2021-07-11T05:28:04.000Z</time>
      </trkpt>
      <trkpt lat="45.23896" lon="5.74592">
        <ele>1007.5999755859</ele>
        <time>2021-07-11T05:28:05.000Z</time>
      </trkpt>
      <trkpt lat="45.2388" lon="5.74593">
        <ele>1006.200012207</ele>
        <time>2021-07-11T05:28:11.000Z</time>
      </trkpt>
      <trkpt lat="45.23877" lon="5.74594">
        <ele>1005.799987793</ele>
        <time>2021-07-11T05:28:13.000Z</time>
      </trkpt>
      <trkpt lat="45.23871" lon="5.74593">
        <ele>1005.200012207</ele>
        <time>2021-07-11T05:28:16.000Z</time>
      </trkpt>
      <trkpt lat="45.23869" lon="5.74592">
        <ele>1004.4000244141</ele>
        <time>2021-07-11T05:28:17.000Z</time>
      </trkpt>
      <trkpt lat="45.23865" lon="5.74591">
        <ele>1004</ele>
        <time>2021-07-11T05:28:19.000Z</time>
      </trkpt>
      <trkpt lat="45.23854" lon="5.7459">
        <ele>1003</ele>
        <time>2021-07-11T05:28:24.000Z</time>
      </trkpt>
      <trkpt lat="45.23852" lon="5.7459">
        <ele>1002.200012207</ele>
        <time>2021-07-11T05:28:25.000Z</time>
      </trkpt>
      <trkpt lat="45.23839" lon="5.74589">
        <ele>1001</ele>
        <time>2021-07-11T05:28:29.000Z</time>
      </trkpt>
      <trkpt lat="45.23831" lon="5.74585">
        <ele>1000.200012207</ele>
        <time>2021-07-11T05:28:32.000Z</time>
      </trkpt>
      <trkpt lat="45.23828" lon="5.74585">
        <ele>1000</ele>
        <time>2021-07-11T05:28:33.000Z</time>
      </trkpt>
      <trkpt lat="45.23825" lon="5.74585">
        <ele>999.79998779297</ele>
        <time>2021-07-11T05:28:34.000Z</time>
      </trkpt>
      <trkpt lat="45.23821" lon="5.74583">
        <ele>999</ele>
        <time>2021-07-11T05:28:36.000Z</time>
      </trkpt>
      <trkpt lat="45.23818" lon="5.74582">
        <ele>998.40002441406</ele>
        <time>2021-07-11T05:28:37.000Z</time>
      </trkpt>
      <trkpt lat="45.23812" lon="5.74582">
        <ele>998.20001220703</ele>
        <time>2021-07-11T05:28:40.000Z</time>
      </trkpt>
      <trkpt lat="45.23809" lon="5.74582">
        <ele>997.40002441406</ele>
        <time>2021-07-11T05:28:42.000Z</time>
      </trkpt>
      <trkpt lat="45.23805" lon="5.7458">
        <ele>997</ele>
        <time>2021-07-11T05:28:44.000Z</time>
      </trkpt>
      <trkpt lat="45.23801" lon="5.7458">
        <ele>996.79998779297</ele>
        <time>2021-07-11T05:28:46.000Z</time>
      </trkpt>
      <trkpt lat="45.23798" lon="5.74577">
        <ele>996.20001220703</ele>
        <time>2021-07-11T05:28:48.000Z</time>
      </trkpt>
      <trkpt lat="45.23794" lon="5.74575">
        <ele>995.59997558594</ele>
        <time>2021-07-11T05:28:50.000Z</time>
      </trkpt>
      <trkpt lat="45.23792" lon="5.74574">
        <ele>995.59997558594</ele>
        <time>2021-07-11T05:28:51.000Z</time>
      </trkpt>
      <trkpt lat="45.23785" lon="5.74573">
        <ele>995.59997558594</ele>
        <time>2021-07-11T05:28:54.000Z</time>
      </trkpt>
      <trkpt lat="45.23771" lon="5.74568">
        <ele>995</ele>
        <time>2021-07-11T05:29:00.000Z</time>
      </trkpt>
      <trkpt lat="45.23769" lon="5.74565">
        <ele>995.20001220703</ele>
        <time>2021-07-11T05:29:02.000Z</time>
      </trkpt>
      <trkpt lat="45.23767" lon="5.74564">
        <ele>995.20001220703</ele>
        <time>2021-07-11T05:29:03.000Z</time>
      </trkpt>
      <trkpt lat="45.23764" lon="5.7456">
        <ele>995.40002441406</ele>
        <time>2021-07-11T05:29:05.000Z</time>
      </trkpt>
      <trkpt lat="45.23762" lon="5.74556">
        <ele>995.40002441406</ele>
        <time>2021-07-11T05:29:07.000Z</time>
      </trkpt>
      <trkpt lat="45.2375" lon="5.74555">
        <ele>995.79998779297</ele>
        <time>2021-07-11T05:29:11.000Z</time>
      </trkpt>
      <trkpt lat="45.23739" lon="5.74555">
        <ele>996.20001220703</ele>
        <time>2021-07-11T05:29:16.000Z</time>
      </trkpt>
      <trkpt lat="45.23737" lon="5.74557">
        <ele>996.20001220703</ele>
        <time>2021-07-11T05:29:18.000Z</time>
      </trkpt>
      <trkpt lat="45.23732" lon="5.74562">
        <ele>996.79998779297</ele>
        <time>2021-07-11T05:29:21.000Z</time>
      </trkpt>
      <trkpt lat="45.23722" lon="5.74569">
        <ele>997.79998779297</ele>
        <time>2021-07-11T05:29:26.000Z</time>
      </trkpt>
      <trkpt lat="45.23719" lon="5.7457">
        <ele>998</ele>
        <time>2021-07-11T05:29:28.000Z</time>
      </trkpt>
      <trkpt lat="45.23713" lon="5.74574">
        <ele>999</ele>
        <time>2021-07-11T05:29:31.000Z</time>
      </trkpt>
      <trkpt lat="45.23706" lon="5.74578">
        <ele>999.79998779297</ele>
        <time>2021-07-11T05:29:35.000Z</time>
      </trkpt>
      <trkpt lat="45.23702" lon="5.74579">
        <ele>1000.4000244141</ele>
        <time>2021-07-11T05:29:37.000Z</time>
      </trkpt>
      <trkpt lat="45.23692" lon="5.74583">
        <ele>1001.4000244141</ele>
        <time>2021-07-11T05:29:42.000Z</time>
      </trkpt>
      <trkpt lat="45.2369" lon="5.74584">
        <ele>1001.5999755859</ele>
        <time>2021-07-11T05:29:43.000Z</time>
      </trkpt>
      <trkpt lat="45.23678" lon="5.74589">
        <ele>1002.5999755859</ele>
        <time>2021-07-11T05:29:48.000Z</time>
      </trkpt>
      <trkpt lat="45.23675" lon="5.7459">
        <ele>1002.799987793</ele>
        <time>2021-07-11T05:29:50.000Z</time>
      </trkpt>
      <trkpt lat="45.23664" lon="5.74592">
        <ele>1003.799987793</ele>
        <time>2021-07-11T05:29:56.000Z</time>
      </trkpt>
      <trkpt lat="45.2366" lon="5.74593">
        <ele>1003.799987793</ele>
        <time>2021-07-11T05:29:58.000Z</time>
      </trkpt>
      <trkpt lat="45.23654" lon="5.74598">
        <ele>1004.4000244141</ele>
        <time>2021-07-11T05:30:02.000Z</time>
      </trkpt>
      <trkpt lat="45.23647" lon="5.74603">
        <ele>1005</ele>
        <time>2021-07-11T05:30:06.000Z</time>
      </trkpt>
      <trkpt lat="45.23638" lon="5.74607">
        <ele>1006.200012207</ele>
        <time>2021-07-11T05:30:12.000Z</time>
      </trkpt>
      <trkpt lat="45.23628" lon="5.74615">
        <ele>1007.4000244141</ele>
        <time>2021-07-11T05:30:19.000Z</time>
      </trkpt>
      <trkpt lat="45.23625" lon="5.74615">
        <ele>1008.200012207</ele>
        <time>2021-07-11T05:30:21.000Z</time>
      </trkpt>
      <trkpt lat="45.23622" lon="5.74616">
        <ele>1008.5999755859</ele>
        <time>2021-07-11T05:30:23.000Z</time>
      </trkpt>
      <trkpt lat="45.23611" lon="5.74613">
        <ele>1009.200012207</ele>
        <time>2021-07-11T05:30:28.000Z</time>
      </trkpt>
      <trkpt lat="45.2361" lon="5.74611">
        <ele>1009.799987793</ele>
        <time>2021-07-11T05:30:29.000Z</time>
      </trkpt>
      <trkpt lat="45.23609" lon="5.74608">
        <ele>1009.799987793</ele>
        <time>2021-07-11T05:30:30.000Z</time>
      </trkpt>
      <trkpt lat="45.23604" lon="5.74602">
        <ele>1010.5999755859</ele>
        <time>2021-07-11T05:30:33.000Z</time>
      </trkpt>
      <trkpt lat="45.23602" lon="5.746">
        <ele>1010.5999755859</ele>
        <time>2021-07-11T05:30:34.000Z</time>
      </trkpt>
      <trkpt lat="45.236" lon="5.74596">
        <ele>1010.799987793</ele>
        <time>2021-07-11T05:30:36.000Z</time>
      </trkpt>
      <trkpt lat="45.23597" lon="5.74585">
        <ele>1011.799987793</ele>
        <time>2021-07-11T05:30:41.000Z</time>
      </trkpt>
      <trkpt lat="45.2359" lon="5.74574">
        <ele>1012.799987793</ele>
        <time>2021-07-11T05:30:47.000Z</time>
      </trkpt>
      <trkpt lat="45.23588" lon="5.74572">
        <ele>1013</ele>
        <time>2021-07-11T05:30:48.000Z</time>
      </trkpt>
      <trkpt lat="45.23587" lon="5.74569">
        <ele>1013</ele>
        <time>2021-07-11T05:30:49.000Z</time>
      </trkpt>
      <trkpt lat="45.23579" lon="5.74554">
        <ele>1014.200012207</ele>
        <time>2021-07-11T05:30:55.000Z</time>
      </trkpt>
      <trkpt lat="45.23578" lon="5.74551">
        <ele>1014.4000244141</ele>
        <time>2021-07-11T05:30:56.000Z</time>
      </trkpt>
      <trkpt lat="45.23577" lon="5.7455">
        <ele>1014.4000244141</ele>
        <time>2021-07-11T05:30:57.000Z</time>
      </trkpt>
      <trkpt lat="45.23575" lon="5.74545">
        <ele>1014.799987793</ele>
        <time>2021-07-11T05:30:59.000Z</time>
      </trkpt>
      <trkpt lat="45.23572" lon="5.74542">
        <ele>1014.799987793</ele>
        <time>2021-07-11T05:31:01.000Z</time>
      </trkpt>
      <trkpt lat="45.23567" lon="5.74537">
        <ele>1015.200012207</ele>
        <time>2021-07-11T05:31:04.000Z</time>
      </trkpt>
      <trkpt lat="45.23564" lon="5.74532">
        <ele>1015.5999755859</ele>
        <time>2021-07-11T05:31:06.000Z</time>
      </trkpt>
      <trkpt lat="45.23563" lon="5.7453">
        <ele>1015.799987793</ele>
        <time>2021-07-11T05:31:07.000Z</time>
      </trkpt>
      <trkpt lat="45.23558" lon="5.74525">
        <ele>1015.799987793</ele>
        <time>2021-07-11T05:31:10.000Z</time>
      </trkpt>
      <trkpt lat="45.23556" lon="5.74521">
        <ele>1016.200012207</ele>
        <time>2021-07-11T05:31:12.000Z</time>
      </trkpt>
      <trkpt lat="45.23555" lon="5.74519">
        <ele>1016.200012207</ele>
        <time>2021-07-11T05:31:13.000Z</time>
      </trkpt>
      <trkpt lat="45.23554" lon="5.74516">
        <ele>1016.799987793</ele>
        <time>2021-07-11T05:31:15.000Z</time>
      </trkpt>
      <trkpt lat="45.23552" lon="5.74516">
        <ele>1017</ele>
        <time>2021-07-11T05:31:17.000Z</time>
      </trkpt>
      <trkpt lat="45.23549" lon="5.74514">
        <ele>1017.5999755859</ele>
        <time>2021-07-11T05:31:19.000Z</time>
      </trkpt>
      <trkpt lat="45.23546" lon="5.74513">
        <ele>1018.200012207</ele>
        <time>2021-07-11T05:31:22.000Z</time>
      </trkpt>
      <trkpt lat="45.23544" lon="5.74513">
        <ele>1018.5999755859</ele>
        <time>2021-07-11T05:31:24.000Z</time>
      </trkpt>
      <trkpt lat="45.23542" lon="5.74514">
        <ele>1019</ele>
        <time>2021-07-11T05:31:26.000Z</time>
      </trkpt>
      <trkpt lat="45.23538" lon="5.74514">
        <ele>1019.799987793</ele>
        <time>2021-07-11T05:31:28.000Z</time>
      </trkpt>
      <trkpt lat="45.23532" lon="5.74513">
        <ele>1020</ele>
        <time>2021-07-11T05:31:31.000Z</time>
      </trkpt>
      <trkpt lat="45.23526" lon="5.74507">
        <ele>1021.200012207</ele>
        <time>2021-07-11T05:31:35.000Z</time>
      </trkpt>
      <trkpt lat="45.23523" lon="5.74504">
        <ele>1021.200012207</ele>
        <time>2021-07-11T05:31:37.000Z</time>
      </trkpt>
      <trkpt lat="45.23517" lon="5.74496">
        <ele>1022.5999755859</ele>
        <time>2021-07-11T05:31:42.000Z</time>
      </trkpt>
      <trkpt lat="45.23516" lon="5.74494">
        <ele>1022.799987793</ele>
        <time>2021-07-11T05:31:43.000Z</time>
      </trkpt>
      <trkpt lat="45.23508" lon="5.74483">
        <ele>1023.799987793</ele>
        <time>2021-07-11T05:31:49.000Z</time>
      </trkpt>
      <trkpt lat="45.235" lon="5.74476">
        <ele>1025</ele>
        <time>2021-07-11T05:31:54.000Z</time>
      </trkpt>
      <trkpt lat="45.23497" lon="5.74472">
        <ele>1025.8000488281</ele>
        <time>2021-07-11T05:31:57.000Z</time>
      </trkpt>
      <trkpt lat="45.23495" lon="5.7447">
        <ele>1025.8000488281</ele>
        <time>2021-07-11T05:31:58.000Z</time>
      </trkpt>
      <trkpt lat="45.23492" lon="5.74466">
        <ele>1026.1999511719</ele>
        <time>2021-07-11T05:32:00.000Z</time>
      </trkpt>
      <trkpt lat="45.23488" lon="5.74463">
        <ele>1026.1999511719</ele>
        <time>2021-07-11T05:32:02.000Z</time>
      </trkpt>
      <trkpt lat="45.23482" lon="5.74458">
        <ele>1026.8000488281</ele>
        <time>2021-07-11T05:32:05.000Z</time>
      </trkpt>
      <trkpt lat="45.23479" lon="5.74455">
        <ele>1027.1999511719</ele>
        <time>2021-07-11T05:32:07.000Z</time>
      </trkpt>
      <trkpt lat="45.23473" lon="5.74448">
        <ele>1027.1999511719</ele>
        <time>2021-07-11T05:32:11.000Z</time>
      </trkpt>
      <trkpt lat="45.23471" lon="5.74445">
        <ele>1027.4000244141</ele>
        <time>2021-07-11T05:32:12.000Z</time>
      </trkpt>
      <trkpt lat="45.2347" lon="5.74443">
        <ele>1027.5999755859</ele>
        <time>2021-07-11T05:32:13.000Z</time>
      </trkpt>
      <trkpt lat="45.23457" lon="5.74432">
        <ele>1027.4000244141</ele>
        <time>2021-07-11T05:32:18.000Z</time>
      </trkpt>
      <trkpt lat="45.23442" lon="5.74416">
        <ele>1026.5999755859</ele>
        <time>2021-07-11T05:32:25.000Z</time>
      </trkpt>
      <trkpt lat="45.2344" lon="5.74413">
        <ele>1026.4000244141</ele>
        <time>2021-07-11T05:32:26.000Z</time>
      </trkpt>
      <trkpt lat="45.23434" lon="5.74407">
        <ele>1026.1999511719</ele>
        <time>2021-07-11T05:32:28.000Z</time>
      </trkpt>
      <trkpt lat="45.23427" lon="5.744">
        <ele>1025.5999755859</ele>
        <time>2021-07-11T05:32:31.000Z</time>
      </trkpt>
      <trkpt lat="45.23425" lon="5.74397">
        <ele>1025.5999755859</ele>
        <time>2021-07-11T05:32:32.000Z</time>
      </trkpt>
      <trkpt lat="45.23422" lon="5.74394">
        <ele>1025.4000244141</ele>
        <time>2021-07-11T05:32:33.000Z</time>
      </trkpt>
      <trkpt lat="45.23413" lon="5.74388">
        <ele>1024.8000488281</ele>
        <time>2021-07-11T05:32:37.000Z</time>
      </trkpt>
      <trkpt lat="45.23403" lon="5.74384">
        <ele>1024.4000244141</ele>
        <time>2021-07-11T05:32:41.000Z</time>
      </trkpt>
      <trkpt lat="45.23395" lon="5.74383">
        <ele>1023.4000244141</ele>
        <time>2021-07-11T05:32:45.000Z</time>
      </trkpt>
      <trkpt lat="45.23389" lon="5.74382">
        <ele>1022.5999755859</ele>
        <time>2021-07-11T05:32:48.000Z</time>
      </trkpt>
      <trkpt lat="45.23378" lon="5.74373">
        <ele>1023.4000244141</ele>
        <time>2021-07-11T05:32:54.000Z</time>
      </trkpt>
      <trkpt lat="45.23374" lon="5.74368">
        <ele>1024</ele>
        <time>2021-07-11T05:32:56.000Z</time>
      </trkpt>
      <trkpt lat="45.23371" lon="5.74364">
        <ele>1024</ele>
        <time>2021-07-11T05:32:58.000Z</time>
      </trkpt>
      <trkpt lat="45.2337" lon="5.74359">
        <ele>1024.8000488281</ele>
        <time>2021-07-11T05:33:00.000Z</time>
      </trkpt>
      <trkpt lat="45.2337" lon="5.74349">
        <ele>1025.1999511719</ele>
        <time>2021-07-11T05:33:03.000Z</time>
      </trkpt>
      <trkpt lat="45.23371" lon="5.7433">
        <ele>1025.8000488281</ele>
        <time>2021-07-11T05:33:10.000Z</time>
      </trkpt>
      <trkpt lat="45.23371" lon="5.74327">
        <ele>1026.4000244141</ele>
        <time>2021-07-11T05:33:11.000Z</time>
      </trkpt>
      <trkpt lat="45.23372" lon="5.74322">
        <ele>1026.4000244141</ele>
        <time>2021-07-11T05:33:13.000Z</time>
      </trkpt>
      <trkpt lat="45.23372" lon="5.74315">
        <ele>1027.1999511719</ele>
        <time>2021-07-11T05:33:16.000Z</time>
      </trkpt>
      <trkpt lat="45.23373" lon="5.74312">
        <ele>1027.4000244141</ele>
        <time>2021-07-11T05:33:17.000Z</time>
      </trkpt>
      <trkpt lat="45.23375" lon="5.74306">
        <ele>1028.1999511719</ele>
        <time>2021-07-11T05:33:19.000Z</time>
      </trkpt>
      <trkpt lat="45.23376" lon="5.74302">
        <ele>1028.4000244141</ele>
        <time>2021-07-11T05:33:21.000Z</time>
      </trkpt>
      <trkpt lat="45.23376" lon="5.743">
        <ele>1029</ele>
        <time>2021-07-11T05:33:22.000Z</time>
      </trkpt>
      <trkpt lat="45.23377" lon="5.74297">
        <ele>1029.4000244141</ele>
        <time>2021-07-11T05:33:24.000Z</time>
      </trkpt>
      <trkpt lat="45.23378" lon="5.74291">
        <ele>1030</ele>
        <time>2021-07-11T05:33:27.000Z</time>
      </trkpt>
      <trkpt lat="45.23379" lon="5.7429">
        <ele>1030.5999755859</ele>
        <time>2021-07-11T05:33:28.000Z</time>
      </trkpt>
      <trkpt lat="45.23378" lon="5.74284">
        <ele>1031.4000244141</ele>
        <time>2021-07-11T05:33:30.000Z</time>
      </trkpt>
      <trkpt lat="45.23378" lon="5.74283">
        <ele>1032</ele>
        <time>2021-07-11T05:33:31.000Z</time>
      </trkpt>
      <trkpt lat="45.2338" lon="5.74278">
        <ele>1032.1999511719</ele>
        <time>2021-07-11T05:33:34.000Z</time>
      </trkpt>
      <trkpt lat="45.2338" lon="5.74276">
        <ele>1033.1999511719</ele>
        <time>2021-07-11T05:33:35.000Z</time>
      </trkpt>
      <trkpt lat="45.23381" lon="5.74275">
        <ele>1033.1999511719</ele>
        <time>2021-07-11T05:33:36.000Z</time>
      </trkpt>
      <trkpt lat="45.23381" lon="5.74272">
        <ele>1033.4000244141</ele>
        <time>2021-07-11T05:33:38.000Z</time>
      </trkpt>
      <trkpt lat="45.2338" lon="5.7427">
        <ele>1033.4000244141</ele>
        <time>2021-07-11T05:33:39.000Z</time>
      </trkpt>
      <trkpt lat="45.23372" lon="5.74255">
        <ele>1034</ele>
        <time>2021-07-11T05:33:46.000Z</time>
      </trkpt>
      <trkpt lat="45.23368" lon="5.74247">
        <ele>1034.1999511719</ele>
        <time>2021-07-11T05:33:50.000Z</time>
      </trkpt>
      <trkpt lat="45.23363" lon="5.74243">
        <ele>1035</ele>
        <time>2021-07-11T05:33:54.000Z</time>
      </trkpt>
      <trkpt lat="45.23352" lon="5.74234">
        <ele>1035</ele>
        <time>2021-07-11T05:34:00.000Z</time>
      </trkpt>
      <trkpt lat="45.2335" lon="5.74233">
        <ele>1035.1999511719</ele>
        <time>2021-07-11T05:34:01.000Z</time>
      </trkpt>
      <trkpt lat="45.2334" lon="5.74229">
        <ele>1035.1999511719</ele>
        <time>2021-07-11T05:34:05.000Z</time>
      </trkpt>
      <trkpt lat="45.23332" lon="5.74225">
        <ele>1034.8000488281</ele>
        <time>2021-07-11T05:34:09.000Z</time>
      </trkpt>
      <trkpt lat="45.23323" lon="5.74218">
        <ele>1034.8000488281</ele>
        <time>2021-07-11T05:34:15.000Z</time>
      </trkpt>
      <trkpt lat="45.23321" lon="5.74217">
        <ele>1035</ele>
        <time>2021-07-11T05:34:16.000Z</time>
      </trkpt>
      <trkpt lat="45.23316" lon="5.74214">
        <ele>1035.1999511719</ele>
        <time>2021-07-11T05:34:19.000Z</time>
      </trkpt>
      <trkpt lat="45.23312" lon="5.74212">
        <ele>1035.1999511719</ele>
        <time>2021-07-11T05:34:22.000Z</time>
      </trkpt>
      <trkpt lat="45.23311" lon="5.74211">
        <ele>1035.1999511719</ele>
        <time>2021-07-11T05:34:23.000Z</time>
      </trkpt>
      <trkpt lat="45.23305" lon="5.74205">
        <ele>1035.8000488281</ele>
        <time>2021-07-11T05:34:27.000Z</time>
      </trkpt>
      <trkpt lat="45.23302" lon="5.74202">
        <ele>1035.8000488281</ele>
        <time>2021-07-11T05:34:29.000Z</time>
      </trkpt>
      <trkpt lat="45.23298" lon="5.74198">
        <ele>1036.1999511719</ele>
        <time>2021-07-11T05:34:31.000Z</time>
      </trkpt>
      <trkpt lat="45.23296" lon="5.74196">
        <ele>1036.1999511719</ele>
        <time>2021-07-11T05:34:32.000Z</time>
      </trkpt>
      <trkpt lat="45.23294" lon="5.74194">
        <ele>1037.1999511719</ele>
        <time>2021-07-11T05:34:33.000Z</time>
      </trkpt>
      <trkpt lat="45.23288" lon="5.74186">
        <ele>1037.1999511719</ele>
        <time>2021-07-11T05:34:36.000Z</time>
      </trkpt>
      <trkpt lat="45.23283" lon="5.74179">
        <ele>1037.4000244141</ele>
        <time>2021-07-11T05:34:39.000Z</time>
      </trkpt>
      <trkpt lat="45.23281" lon="5.74178">
        <ele>1037.5999755859</ele>
        <time>2021-07-11T05:34:40.000Z</time>
      </trkpt>
      <trkpt lat="45.23275" lon="5.7417">
        <ele>1037.5999755859</ele>
        <time>2021-07-11T05:34:44.000Z</time>
      </trkpt>
      <trkpt lat="45.2326" lon="5.74161">
        <ele>1037.4000244141</ele>
        <time>2021-07-11T05:34:50.000Z</time>
      </trkpt>
      <trkpt lat="45.23257" lon="5.74158">
        <ele>1037.4000244141</ele>
        <time>2021-07-11T05:34:51.000Z</time>
      </trkpt>
      <trkpt lat="45.23242" lon="5.74144">
        <ele>1036.5999755859</ele>
        <time>2021-07-11T05:34:58.000Z</time>
      </trkpt>
      <trkpt lat="45.23226" lon="5.74129">
        <ele>1037</ele>
        <time>2021-07-11T05:35:05.000Z</time>
      </trkpt>
      <trkpt lat="45.23218" lon="5.74108">
        <ele>1037.5999755859</ele>
        <time>2021-07-11T05:35:12.000Z</time>
      </trkpt>
      <trkpt lat="45.23217" lon="5.74096">
        <ele>1037.1999511719</ele>
        <time>2021-07-11T05:35:18.000Z</time>
      </trkpt>
      <trkpt lat="45.23217" lon="5.74092">
        <ele>1037.1999511719</ele>
        <time>2021-07-11T05:35:19.000Z</time>
      </trkpt>
      <trkpt lat="45.23219" lon="5.74075">
        <ele>1036.8000488281</ele>
        <time>2021-07-11T05:35:24.000Z</time>
      </trkpt>
      <trkpt lat="45.23219" lon="5.74068">
        <ele>1036.8000488281</ele>
        <time>2021-07-11T05:35:26.000Z</time>
      </trkpt>
      <trkpt lat="45.2322" lon="5.74061">
        <ele>1035.8000488281</ele>
        <time>2021-07-11T05:35:28.000Z</time>
      </trkpt>
      <trkpt lat="45.2322" lon="5.74054">
        <ele>1035</ele>
        <time>2021-07-11T05:35:32.000Z</time>
      </trkpt>
      <trkpt lat="45.2322" lon="5.74052">
        <ele>1034.8000488281</ele>
        <time>2021-07-11T05:35:33.000Z</time>
      </trkpt>
      <trkpt lat="45.23212" lon="5.74043">
        <ele>1033.8000488281</ele>
        <time>2021-07-11T05:35:39.000Z</time>
      </trkpt>
      <trkpt lat="45.23199" lon="5.74029">
        <ele>1034.4000244141</ele>
        <time>2021-07-11T05:35:47.000Z</time>
      </trkpt>
      <trkpt lat="45.23186" lon="5.7402">
        <ele>1035.4000244141</ele>
        <time>2021-07-11T05:35:54.000Z</time>
      </trkpt>
      <trkpt lat="45.23183" lon="5.74016">
        <ele>1036</ele>
        <time>2021-07-11T05:35:57.000Z</time>
      </trkpt>
      <trkpt lat="45.23179" lon="5.74011">
        <ele>1036.4000244141</ele>
        <time>2021-07-11T05:36:00.000Z</time>
      </trkpt>
      <trkpt lat="45.23177" lon="5.7401">
        <ele>1036.8000488281</ele>
        <time>2021-07-11T05:36:01.000Z</time>
      </trkpt>
      <trkpt lat="45.23171" lon="5.74006">
        <ele>1037.1999511719</ele>
        <time>2021-07-11T05:36:04.000Z</time>
      </trkpt>
      <trkpt lat="45.23168" lon="5.74004">
        <ele>1037.8000488281</ele>
        <time>2021-07-11T05:36:06.000Z</time>
      </trkpt>
      <trkpt lat="45.23159" lon="5.74">
        <ele>1038.5999755859</ele>
        <time>2021-07-11T05:36:10.000Z</time>
      </trkpt>
      <trkpt lat="45.23149" lon="5.73995">
        <ele>1038.5999755859</ele>
        <time>2021-07-11T05:36:15.000Z</time>
      </trkpt>
      <trkpt lat="45.23142" lon="5.73991">
        <ele>1038</ele>
        <time>2021-07-11T05:36:20.000Z</time>
      </trkpt>
      <trkpt lat="45.23141" lon="5.73991">
        <ele>1038</ele>
        <time>2021-07-11T05:36:21.000Z</time>
      </trkpt>
      <trkpt lat="45.23134" lon="5.73991">
        <ele>1037.8000488281</ele>
        <time>2021-07-11T05:36:25.000Z</time>
      </trkpt>
      <trkpt lat="45.23125" lon="5.73991">
        <ele>1037.4000244141</ele>
        <time>2021-07-11T05:36:29.000Z</time>
      </trkpt>
      <trkpt lat="45.23122" lon="5.73991">
        <ele>1037.1999511719</ele>
        <time>2021-07-11T05:36:31.000Z</time>
      </trkpt>
      <trkpt lat="45.23121" lon="5.7399">
        <ele>1037</ele>
        <time>2021-07-11T05:36:33.000Z</time>
      </trkpt>
      <trkpt lat="45.23112" lon="5.73989">
        <ele>1036.8000488281</ele>
        <time>2021-07-11T05:36:38.000Z</time>
      </trkpt>
      <trkpt lat="45.23096" lon="5.73981">
        <ele>1036</ele>
        <time>2021-07-11T05:36:43.000Z</time>
      </trkpt>
      <trkpt lat="45.23092" lon="5.73977">
        <ele>1035.5999755859</ele>
        <time>2021-07-11T05:36:45.000Z</time>
      </trkpt>
      <trkpt lat="45.23089" lon="5.73976">
        <ele>1035.4000244141</ele>
        <time>2021-07-11T05:36:46.000Z</time>
      </trkpt>
      <trkpt lat="45.23086" lon="5.73975">
        <ele>1035.1999511719</ele>
        <time>2021-07-11T05:36:47.000Z</time>
      </trkpt>
      <trkpt lat="45.23083" lon="5.73974">
        <ele>1035.1999511719</ele>
        <time>2021-07-11T05:36:48.000Z</time>
      </trkpt>
      <trkpt lat="45.23081" lon="5.73973">
        <ele>1034.5999755859</ele>
        <time>2021-07-11T05:36:49.000Z</time>
      </trkpt>
      <trkpt lat="45.23076" lon="5.73972">
        <ele>1033.4000244141</ele>
        <time>2021-07-11T05:36:51.000Z</time>
      </trkpt>
      <trkpt lat="45.23064" lon="5.73975">
        <ele>1031.8000488281</ele>
        <time>2021-07-11T05:36:56.000Z</time>
      </trkpt>
      <trkpt lat="45.23049" lon="5.73981">
        <ele>1030.5999755859</ele>
        <time>2021-07-11T05:37:02.000Z</time>
      </trkpt>
      <trkpt lat="45.23047" lon="5.73982">
        <ele>1030.5999755859</ele>
        <time>2021-07-11T05:37:03.000Z</time>
      </trkpt>
      <trkpt lat="45.23039" lon="5.73983">
        <ele>1030.4000244141</ele>
        <time>2021-07-11T05:37:07.000Z</time>
      </trkpt>
      <trkpt lat="45.23036" lon="5.73982">
        <ele>1030.1999511719</ele>
        <time>2021-07-11T05:37:09.000Z</time>
      </trkpt>
      <trkpt lat="45.23017" lon="5.7398">
        <ele>1030</ele>
        <time>2021-07-11T05:37:16.000Z</time>
      </trkpt>
      <trkpt lat="45.22997" lon="5.73977">
        <ele>1029.8000488281</ele>
        <time>2021-07-11T05:37:23.000Z</time>
      </trkpt>
      <trkpt lat="45.22987" lon="5.73974">
        <ele>1029.8000488281</ele>
        <time>2021-07-11T05:37:26.000Z</time>
      </trkpt>
      <trkpt lat="45.22984" lon="5.73973">
        <ele>1029</ele>
        <time>2021-07-11T05:37:27.000Z</time>
      </trkpt>
      <trkpt lat="45.22969" lon="5.73965">
        <ele>1028.4000244141</ele>
        <time>2021-07-11T05:37:33.000Z</time>
      </trkpt>
      <trkpt lat="45.22958" lon="5.73951">
        <ele>1028.1999511719</ele>
        <time>2021-07-11T05:37:39.000Z</time>
      </trkpt>
      <trkpt lat="45.22956" lon="5.73948">
        <ele>1028.1999511719</ele>
        <time>2021-07-11T05:37:40.000Z</time>
      </trkpt>
      <trkpt lat="45.22948" lon="5.73929">
        <ele>1028</ele>
        <time>2021-07-11T05:37:46.000Z</time>
      </trkpt>
      <trkpt lat="45.22944" lon="5.73902">
        <ele>1028.4000244141</ele>
        <time>2021-07-11T05:37:54.000Z</time>
      </trkpt>
      <trkpt lat="45.22943" lon="5.739">
        <ele>1029.4000244141</ele>
        <time>2021-07-11T05:37:55.000Z</time>
      </trkpt>
      <trkpt lat="45.22942" lon="5.73895">
        <ele>1029.8000488281</ele>
        <time>2021-07-11T05:37:57.000Z</time>
      </trkpt>
      <trkpt lat="45.22942" lon="5.73893">
        <ele>1030.5999755859</ele>
        <time>2021-07-11T05:37:58.000Z</time>
      </trkpt>
      <trkpt lat="45.22941" lon="5.73886">
        <ele>1031</ele>
        <time>2021-07-11T05:38:01.000Z</time>
      </trkpt>
      <trkpt lat="45.22941" lon="5.73883">
        <ele>1031.8000488281</ele>
        <time>2021-07-11T05:38:03.000Z</time>
      </trkpt>
      <trkpt lat="45.22942" lon="5.73879">
        <ele>1033</ele>
        <time>2021-07-11T05:38:05.000Z</time>
      </trkpt>
      <trkpt lat="45.22942" lon="5.73874">
        <ele>1033.1999511719</ele>
        <time>2021-07-11T05:38:07.000Z</time>
      </trkpt>
      <trkpt lat="45.22942" lon="5.73871">
        <ele>1033.4000244141</ele>
        <time>2021-07-11T05:38:08.000Z</time>
      </trkpt>
      <trkpt lat="45.22942" lon="5.73868">
        <ele>1033.4000244141</ele>
        <time>2021-07-11T05:38:10.000Z</time>
      </trkpt>
      <trkpt lat="45.22941" lon="5.73868">
        <ele>1034</ele>
        <time>2021-07-11T05:38:12.000Z</time>
      </trkpt>
      <trkpt lat="45.2294" lon="5.73869">
        <ele>1034.1999511719</ele>
        <time>2021-07-11T05:38:13.000Z</time>
      </trkpt>
      <trkpt lat="45.22937" lon="5.73869">
        <ele>1034.4000244141</ele>
        <time>2021-07-11T05:38:15.000Z</time>
      </trkpt>
      <trkpt lat="45.22932" lon="5.73869">
        <ele>1035.1999511719</ele>
        <time>2021-07-11T05:38:19.000Z</time>
      </trkpt>
      <trkpt lat="45.2293" lon="5.73869">
        <ele>1035.8000488281</ele>
        <time>2021-07-11T05:38:22.000Z</time>
      </trkpt>
      <trkpt lat="45.22929" lon="5.73869">
        <ele>1035.8000488281</ele>
        <time>2021-07-11T05:38:23.000Z</time>
      </trkpt>
      <trkpt lat="45.22927" lon="5.73869">
        <ele>1035.8000488281</ele>
        <time>2021-07-11T05:38:25.000Z</time>
      </trkpt>
      <trkpt lat="45.22926" lon="5.73869">
        <ele>1036</ele>
        <time>2021-07-11T05:38:26.000Z</time>
      </trkpt>
      <trkpt lat="45.22925" lon="5.73869">
        <ele>1036</ele>
        <time>2021-07-11T05:38:27.000Z</time>
      </trkpt>
      <trkpt lat="45.22915" lon="5.73872">
        <ele>1036.1999511719</ele>
        <time>2021-07-11T05:38:32.000Z</time>
      </trkpt>
      <trkpt lat="45.22913" lon="5.73872">
        <ele>1036.4000244141</ele>
        <time>2021-07-11T05:38:33.000Z</time>
      </trkpt>
      <trkpt lat="45.22905" lon="5.73875">
        <ele>1036.8000488281</ele>
        <time>2021-07-11T05:38:37.000Z</time>
      </trkpt>
      <trkpt lat="45.22898" lon="5.73877">
        <ele>1037.1999511719</ele>
        <time>2021-07-11T05:38:41.000Z</time>
      </trkpt>
      <trkpt lat="45.22897" lon="5.73878">
        <ele>1037.1999511719</ele>
        <time>2021-07-11T05:38:43.000Z</time>
      </trkpt>
      <trkpt lat="45.22895" lon="5.73879">
        <ele>1037.1999511719</ele>
        <time>2021-07-11T05:38:44.000Z</time>
      </trkpt>
      <trkpt lat="45.22884" lon="5.73887">
        <ele>1037.1999511719</ele>
        <time>2021-07-11T05:38:48.000Z</time>
      </trkpt>
      <trkpt lat="45.22876" lon="5.7389">
        <ele>1037.5999755859</ele>
        <time>2021-07-11T05:38:51.000Z</time>
      </trkpt>
      <trkpt lat="45.2287" lon="5.73888">
        <ele>1037.5999755859</ele>
        <time>2021-07-11T05:38:54.000Z</time>
      </trkpt>
      <trkpt lat="45.22864" lon="5.73886">
        <ele>1038.5999755859</ele>
        <time>2021-07-11T05:38:57.000Z</time>
      </trkpt>
      <trkpt lat="45.22863" lon="5.73886">
        <ele>1038.8000488281</ele>
        <time>2021-07-11T05:38:58.000Z</time>
      </trkpt>
      <trkpt lat="45.22861" lon="5.73886">
        <ele>1038.8000488281</ele>
        <time>2021-07-11T05:38:59.000Z</time>
      </trkpt>
      <trkpt lat="45.22849" lon="5.73889">
        <ele>1038.8000488281</ele>
        <time>2021-07-11T05:39:04.000Z</time>
      </trkpt>
      <trkpt lat="45.2284" lon="5.73885">
        <ele>1039.1999511719</ele>
        <time>2021-07-11T05:39:08.000Z</time>
      </trkpt>
      <trkpt lat="45.22838" lon="5.73885">
        <ele>1039.4000244141</ele>
        <time>2021-07-11T05:39:09.000Z</time>
      </trkpt>
      <trkpt lat="45.22834" lon="5.73882">
        <ele>1039.8000488281</ele>
        <time>2021-07-11T05:39:11.000Z</time>
      </trkpt>
      <trkpt lat="45.22829" lon="5.73881">
        <ele>1040.1999511719</ele>
        <time>2021-07-11T05:39:14.000Z</time>
      </trkpt>
      <trkpt lat="45.22824" lon="5.73881">
        <ele>1040.5999755859</ele>
        <time>2021-07-11T05:39:16.000Z</time>
      </trkpt>
      <trkpt lat="45.22821" lon="5.7388">
        <ele>1041.1999511719</ele>
        <time>2021-07-11T05:39:19.000Z</time>
      </trkpt>
      <trkpt lat="45.2282" lon="5.73879">
        <ele>1041.5999755859</ele>
        <time>2021-07-11T05:39:20.000Z</time>
      </trkpt>
      <trkpt lat="45.22817" lon="5.73877">
        <ele>1042.1999511719</ele>
        <time>2021-07-11T05:39:22.000Z</time>
      </trkpt>
      <trkpt lat="45.22808" lon="5.73872">
        <ele>1043.1999511719</ele>
        <time>2021-07-11T05:39:28.000Z</time>
      </trkpt>
      <trkpt lat="45.22803" lon="5.73871">
        <ele>1043.1999511719</ele>
        <time>2021-07-11T05:39:30.000Z</time>
      </trkpt>
      <trkpt lat="45.228" lon="5.73869">
        <ele>1043.5999755859</ele>
        <time>2021-07-11T05:39:31.000Z</time>
      </trkpt>
      <trkpt lat="45.22794" lon="5.73864">
        <ele>1044</ele>
        <time>2021-07-11T05:39:35.000Z</time>
      </trkpt>
      <trkpt lat="45.22792" lon="5.73863">
        <ele>1044.1999511719</ele>
        <time>2021-07-11T05:39:36.000Z</time>
      </trkpt>
      <trkpt lat="45.22788" lon="5.73863">
        <ele>1044.4000244141</ele>
        <time>2021-07-11T05:39:38.000Z</time>
      </trkpt>
      <trkpt lat="45.22785" lon="5.73861">
        <ele>1044.5999755859</ele>
        <time>2021-07-11T05:39:40.000Z</time>
      </trkpt>
      <trkpt lat="45.2278" lon="5.73858">
        <ele>1044.8000488281</ele>
        <time>2021-07-11T05:39:42.000Z</time>
      </trkpt>
      <trkpt lat="45.22765" lon="5.73849">
        <ele>1044.4000244141</ele>
        <time>2021-07-11T05:39:48.000Z</time>
      </trkpt>
      <trkpt lat="45.22763" lon="5.73848">
        <ele>1044.4000244141</ele>
        <time>2021-07-11T05:39:49.000Z</time>
      </trkpt>
      <trkpt lat="45.22752" lon="5.7384">
        <ele>1044.5999755859</ele>
        <time>2021-07-11T05:39:56.000Z</time>
      </trkpt>
      <trkpt lat="45.22745" lon="5.73836">
        <ele>1044.8000488281</ele>
        <time>2021-07-11T05:40:00.000Z</time>
      </trkpt>
      <trkpt lat="45.22742" lon="5.73835">
        <ele>1045</ele>
        <time>2021-07-11T05:40:02.000Z</time>
      </trkpt>
      <trkpt lat="45.22735" lon="5.73832">
        <ele>1045.1999511719</ele>
        <time>2021-07-11T05:40:06.000Z</time>
      </trkpt>
      <trkpt lat="45.22731" lon="5.7383">
        <ele>1045.5999755859</ele>
        <time>2021-07-11T05:40:08.000Z</time>
      </trkpt>
      <trkpt lat="45.22729" lon="5.73829">
        <ele>1045.5999755859</ele>
        <time>2021-07-11T05:40:09.000Z</time>
      </trkpt>
      <trkpt lat="45.22718" lon="5.73823">
        <ele>1045.5999755859</ele>
        <time>2021-07-11T05:40:15.000Z</time>
      </trkpt>
      <trkpt lat="45.22716" lon="5.73823">
        <ele>1045.5999755859</ele>
        <time>2021-07-11T05:40:17.000Z</time>
      </trkpt>
      <trkpt lat="45.22706" lon="5.73819">
        <ele>1044.8000488281</ele>
        <time>2021-07-11T05:40:22.000Z</time>
      </trkpt>
      <trkpt lat="45.227" lon="5.73819">
        <ele>1044</ele>
        <time>2021-07-11T05:40:24.000Z</time>
      </trkpt>
      <trkpt lat="45.2269" lon="5.73809">
        <ele>1044</ele>
        <time>2021-07-11T05:40:29.000Z</time>
      </trkpt>
      <trkpt lat="45.22678" lon="5.73795">
        <ele>1043.4000244141</ele>
        <time>2021-07-11T05:40:35.000Z</time>
      </trkpt>
      <trkpt lat="45.22677" lon="5.73795">
        <ele>1042.8000488281</ele>
        <time>2021-07-11T05:40:36.000Z</time>
      </trkpt>
      <trkpt lat="45.22676" lon="5.73794">
        <ele>1042.4000244141</ele>
        <time>2021-07-11T05:40:37.000Z</time>
      </trkpt>
      <trkpt lat="45.22674" lon="5.73794">
        <ele>1042.1999511719</ele>
        <time>2021-07-11T05:40:38.000Z</time>
      </trkpt>
      <trkpt lat="45.22673" lon="5.73793">
        <ele>1041.1999511719</ele>
        <time>2021-07-11T05:40:39.000Z</time>
      </trkpt>
      <trkpt lat="45.22671" lon="5.73793">
        <ele>1041.1999511719</ele>
        <time>2021-07-11T05:40:40.000Z</time>
      </trkpt>
      <trkpt lat="45.22668" lon="5.73793">
        <ele>1041</ele>
        <time>2021-07-11T05:40:41.000Z</time>
      </trkpt>
      <trkpt lat="45.22662" lon="5.7379">
        <ele>1040.1999511719</ele>
        <time>2021-07-11T05:40:43.000Z</time>
      </trkpt>
      <trkpt lat="45.22658" lon="5.73788">
        <ele>1040</ele>
        <time>2021-07-11T05:40:45.000Z</time>
      </trkpt>
      <trkpt lat="45.22657" lon="5.73786">
        <ele>1039.1999511719</ele>
        <time>2021-07-11T05:40:46.000Z</time>
      </trkpt>
      <trkpt lat="45.22656" lon="5.73784">
        <ele>1039.5999755859</ele>
        <time>2021-07-11T05:40:47.000Z</time>
      </trkpt>
      <trkpt lat="45.22651" lon="5.73778">
        <ele>1039.1999511719</ele>
        <time>2021-07-11T05:40:52.000Z</time>
      </trkpt>
      <trkpt lat="45.22639" lon="5.73766">
        <ele>1039.8000488281</ele>
        <time>2021-07-11T05:40:59.000Z</time>
      </trkpt>
      <trkpt lat="45.22634" lon="5.73763">
        <ele>1039.8000488281</ele>
        <time>2021-07-11T05:41:02.000Z</time>
      </trkpt>
      <trkpt lat="45.22629" lon="5.73756">
        <ele>1039.4000244141</ele>
        <time>2021-07-11T05:41:05.000Z</time>
      </trkpt>
      <trkpt lat="45.22626" lon="5.73755">
        <ele>1039.1999511719</ele>
        <time>2021-07-11T05:41:06.000Z</time>
      </trkpt>
      <trkpt lat="45.22624" lon="5.73754">
        <ele>1039</ele>
        <time>2021-07-11T05:41:07.000Z</time>
      </trkpt>
      <trkpt lat="45.22621" lon="5.73752">
        <ele>1038</ele>
        <time>2021-07-11T05:41:09.000Z</time>
      </trkpt>
      <trkpt lat="45.22618" lon="5.73751">
        <ele>1037.8000488281</ele>
        <time>2021-07-11T05:41:11.000Z</time>
      </trkpt>
      <trkpt lat="45.22613" lon="5.73747">
        <ele>1036.5999755859</ele>
        <time>2021-07-11T05:41:14.000Z</time>
      </trkpt>
      <trkpt lat="45.22608" lon="5.73745">
        <ele>1035.1999511719</ele>
        <time>2021-07-11T05:41:18.000Z</time>
      </trkpt>
      <trkpt lat="45.22606" lon="5.73745">
        <ele>1035</ele>
        <time>2021-07-11T05:41:19.000Z</time>
      </trkpt>
      <trkpt lat="45.226" lon="5.73742">
        <ele>1034.1999511719</ele>
        <time>2021-07-11T05:41:23.000Z</time>
      </trkpt>
      <trkpt lat="45.22595" lon="5.73738">
        <ele>1032.8000488281</ele>
        <time>2021-07-11T05:41:26.000Z</time>
      </trkpt>
      <trkpt lat="45.22593" lon="5.73738">
        <ele>1032.8000488281</ele>
        <time>2021-07-11T05:41:27.000Z</time>
      </trkpt>
      <trkpt lat="45.22586" lon="5.73736">
        <ele>1031.8000488281</ele>
        <time>2021-07-11T05:41:30.000Z</time>
      </trkpt>
      <trkpt lat="45.22584" lon="5.73735">
        <ele>1031.8000488281</ele>
        <time>2021-07-11T05:41:31.000Z</time>
      </trkpt>
      <trkpt lat="45.22577" lon="5.73729">
        <ele>1031.5999755859</ele>
        <time>2021-07-11T05:41:34.000Z</time>
      </trkpt>
      <trkpt lat="45.22571" lon="5.73724">
        <ele>1030.8000488281</ele>
        <time>2021-07-11T05:41:37.000Z</time>
      </trkpt>
      <trkpt lat="45.2257" lon="5.73722">
        <ele>1030.1999511719</ele>
        <time>2021-07-11T05:41:38.000Z</time>
      </trkpt>
      <trkpt lat="45.22567" lon="5.73717">
        <ele>1029.5999755859</ele>
        <time>2021-07-11T05:41:40.000Z</time>
      </trkpt>
      <trkpt lat="45.22566" lon="5.73714">
        <ele>1029</ele>
        <time>2021-07-11T05:41:42.000Z</time>
      </trkpt>
      <trkpt lat="45.22565" lon="5.73713">
        <ele>1028.8000488281</ele>
        <time>2021-07-11T05:41:43.000Z</time>
      </trkpt>
      <trkpt lat="45.22564" lon="5.73713">
        <ele>1028.4000244141</ele>
        <time>2021-07-11T05:41:44.000Z</time>
      </trkpt>
      <trkpt lat="45.22561" lon="5.73712">
        <ele>1028</ele>
        <time>2021-07-11T05:41:46.000Z</time>
      </trkpt>
      <trkpt lat="45.22556" lon="5.73709">
        <ele>1027.5999755859</ele>
        <time>2021-07-11T05:41:49.000Z</time>
      </trkpt>
      <trkpt lat="45.22554" lon="5.73709">
        <ele>1027.1999511719</ele>
        <time>2021-07-11T05:41:50.000Z</time>
      </trkpt>
      <trkpt lat="45.2255" lon="5.73707">
        <ele>1025.4000244141</ele>
        <time>2021-07-11T05:41:52.000Z</time>
      </trkpt>
      <trkpt lat="45.22543" lon="5.73705">
        <ele>1024.4000244141</ele>
        <time>2021-07-11T05:41:56.000Z</time>
      </trkpt>
      <trkpt lat="45.22536" lon="5.73702">
        <ele>1023.200012207</ele>
        <time>2021-07-11T05:42:00.000Z</time>
      </trkpt>
      <trkpt lat="45.22531" lon="5.73698">
        <ele>1022.4000244141</ele>
        <time>2021-07-11T05:42:03.000Z</time>
      </trkpt>
      <trkpt lat="45.2253" lon="5.73698">
        <ele>1022</ele>
        <time>2021-07-11T05:42:04.000Z</time>
      </trkpt>
      <trkpt lat="45.22529" lon="5.73697">
        <ele>1021.799987793</ele>
        <time>2021-07-11T05:42:05.000Z</time>
      </trkpt>
      <trkpt lat="45.22527" lon="5.73697">
        <ele>1020.4000244141</ele>
        <time>2021-07-11T05:42:07.000Z</time>
      </trkpt>
      <trkpt lat="45.22526" lon="5.73697">
        <ele>1020.200012207</ele>
        <time>2021-07-11T05:42:08.000Z</time>
      </trkpt>
      <trkpt lat="45.22523" lon="5.73696">
        <ele>1019.200012207</ele>
        <time>2021-07-11T05:42:11.000Z</time>
      </trkpt>
      <trkpt lat="45.22521" lon="5.73695">
        <ele>1018.5999755859</ele>
        <time>2021-07-11T05:42:13.000Z</time>
      </trkpt>
      <trkpt lat="45.22518" lon="5.73697">
        <ele>1017.5999755859</ele>
        <time>2021-07-11T05:42:16.000Z</time>
      </trkpt>
      <trkpt lat="45.22514" lon="5.73699">
        <ele>1017</ele>
        <time>2021-07-11T05:42:19.000Z</time>
      </trkpt>
      <trkpt lat="45.22512" lon="5.73699">
        <ele>1016.799987793</ele>
        <time>2021-07-11T05:42:20.000Z</time>
      </trkpt>
      <trkpt lat="45.22511" lon="5.737">
        <ele>1015.5999755859</ele>
        <time>2021-07-11T05:42:21.000Z</time>
      </trkpt>
      <trkpt lat="45.2251" lon="5.737">
        <ele>1015.5999755859</ele>
        <time>2021-07-11T05:42:22.000Z</time>
      </trkpt>
      <trkpt lat="45.22507" lon="5.737">
        <ele>1014.5999755859</ele>
        <time>2021-07-11T05:42:24.000Z</time>
      </trkpt>
      <trkpt lat="45.22505" lon="5.737">
        <ele>1014.4000244141</ele>
        <time>2021-07-11T05:42:25.000Z</time>
      </trkpt>
      <trkpt lat="45.225" lon="5.73704">
        <ele>1013</ele>
        <time>2021-07-11T05:42:29.000Z</time>
      </trkpt>
      <trkpt lat="45.22494" lon="5.73706">
        <ele>1011.799987793</ele>
        <time>2021-07-11T05:42:34.000Z</time>
      </trkpt>
      <trkpt lat="45.22493" lon="5.73706">
        <ele>1011</ele>
        <time>2021-07-11T05:42:35.000Z</time>
      </trkpt>
      <trkpt lat="45.22491" lon="5.73705">
        <ele>1010.799987793</ele>
        <time>2021-07-11T05:42:37.000Z</time>
      </trkpt>
      <trkpt lat="45.22487" lon="5.73706">
        <ele>1009.4000244141</ele>
        <time>2021-07-11T05:42:39.000Z</time>
      </trkpt>
      <trkpt lat="45.22483" lon="5.73706">
        <ele>1008.5999755859</ele>
        <time>2021-07-11T05:42:41.000Z</time>
      </trkpt>
      <trkpt lat="45.22482" lon="5.73706">
        <ele>1008.4000244141</ele>
        <time>2021-07-11T05:42:42.000Z</time>
      </trkpt>
      <trkpt lat="45.22479" lon="5.73707">
        <ele>1007.799987793</ele>
        <time>2021-07-11T05:42:44.000Z</time>
      </trkpt>
      <trkpt lat="45.22468" lon="5.73709">
        <ele>1007.5999755859</ele>
        <time>2021-07-11T05:42:47.000Z</time>
      </trkpt>
      <trkpt lat="45.22462" lon="5.73709">
        <ele>1008.200012207</ele>
        <time>2021-07-11T05:42:50.000Z</time>
      </trkpt>
      <trkpt lat="45.22462" lon="5.7371">
        <ele>1008.200012207</ele>
        <time>2021-07-11T05:42:51.000Z</time>
      </trkpt>
      <trkpt lat="45.22458" lon="5.73709">
        <ele>1008.4000244141</ele>
        <time>2021-07-11T05:42:53.000Z</time>
      </trkpt>
      <trkpt lat="45.22454" lon="5.73708">
        <ele>1008.200012207</ele>
        <time>2021-07-11T05:42:55.000Z</time>
      </trkpt>
      <trkpt lat="45.22451" lon="5.73707">
        <ele>1008</ele>
        <time>2021-07-11T05:42:57.000Z</time>
      </trkpt>
      <trkpt lat="45.2245" lon="5.73707">
        <ele>1008</ele>
        <time>2021-07-11T05:42:58.000Z</time>
      </trkpt>
      <trkpt lat="45.22449" lon="5.73706">
        <ele>1007</ele>
        <time>2021-07-11T05:42:59.000Z</time>
      </trkpt>
      <trkpt lat="45.22447" lon="5.73705">
        <ele>1006.799987793</ele>
        <time>2021-07-11T05:43:00.000Z</time>
      </trkpt>
      <trkpt lat="45.22446" lon="5.73705">
        <ele>1006.5999755859</ele>
        <time>2021-07-11T05:43:01.000Z</time>
      </trkpt>
      <trkpt lat="45.22443" lon="5.73704">
        <ele>1006.200012207</ele>
        <time>2021-07-11T05:43:03.000Z</time>
      </trkpt>
      <trkpt lat="45.22441" lon="5.73704">
        <ele>1005.799987793</ele>
        <time>2021-07-11T05:43:04.000Z</time>
      </trkpt>
      <trkpt lat="45.22438" lon="5.73705">
        <ele>1005</ele>
        <time>2021-07-11T05:43:06.000Z</time>
      </trkpt>
      <trkpt lat="45.22436" lon="5.73706">
        <ele>1004.5999755859</ele>
        <time>2021-07-11T05:43:07.000Z</time>
      </trkpt>
      <trkpt lat="45.22431" lon="5.73708">
        <ele>1003.4000244141</ele>
        <time>2021-07-11T05:43:11.000Z</time>
      </trkpt>
      <trkpt lat="45.22429" lon="5.73708">
        <ele>1003.200012207</ele>
        <time>2021-07-11T05:43:12.000Z</time>
      </trkpt>
      <trkpt lat="45.22424" lon="5.73707">
        <ele>1002.200012207</ele>
        <time>2021-07-11T05:43:15.000Z</time>
      </trkpt>
      <trkpt lat="45.22422" lon="5.73706">
        <ele>1001.5999755859</ele>
        <time>2021-07-11T05:43:17.000Z</time>
      </trkpt>
      <trkpt lat="45.22421" lon="5.73706">
        <ele>1001</ele>
        <time>2021-07-11T05:43:18.000Z</time>
      </trkpt>
      <trkpt lat="45.2242" lon="5.73706">
        <ele>1000.799987793</ele>
        <time>2021-07-11T05:43:19.000Z</time>
      </trkpt>
      <trkpt lat="45.22418" lon="5.73706">
        <ele>999.59997558594</ele>
        <time>2021-07-11T05:43:22.000Z</time>
      </trkpt>
      <trkpt lat="45.22417" lon="5.73705">
        <ele>999</ele>
        <time>2021-07-11T05:43:24.000Z</time>
      </trkpt>
      <trkpt lat="45.22416" lon="5.73705">
        <ele>998.79998779297</ele>
        <time>2021-07-11T05:43:25.000Z</time>
      </trkpt>
      <trkpt lat="45.22414" lon="5.73705">
        <ele>998.59997558594</ele>
        <time>2021-07-11T05:43:26.000Z</time>
      </trkpt>
      <trkpt lat="45.22406" lon="5.73702">
        <ele>996.79998779297</ele>
        <time>2021-07-11T05:43:31.000Z</time>
      </trkpt>
      <trkpt lat="45.224" lon="5.737">
        <ele>995.79998779297</ele>
        <time>2021-07-11T05:43:35.000Z</time>
      </trkpt>
      <trkpt lat="45.22392" lon="5.73698">
        <ele>994.79998779297</ele>
        <time>2021-07-11T05:43:39.000Z</time>
      </trkpt>
      <trkpt lat="45.2239" lon="5.73697">
        <ele>994.40002441406</ele>
        <time>2021-07-11T05:43:40.000Z</time>
      </trkpt>
      <trkpt lat="45.22381" lon="5.73694">
        <ele>994</ele>
        <time>2021-07-11T05:43:45.000Z</time>
      </trkpt>
      <trkpt lat="45.22382" lon="5.73693">
        <ele>994</ele>
        <time>2021-07-11T05:43:46.000Z</time>
      </trkpt>
      <trkpt lat="45.22382" lon="5.73693">
        <ele>994</ele>
        <time>2021-07-11T05:43:48.000Z</time>
      </trkpt>
      <trkpt lat="45.22382" lon="5.73691">
        <ele>994</ele>
        <time>2021-07-11T05:43:50.000Z</time>
      </trkpt>
      <trkpt lat="45.22381" lon="5.7369">
        <ele>994</ele>
        <time>2021-07-11T05:43:52.000Z</time>
      </trkpt>
      <trkpt lat="45.22381" lon="5.73689">
        <ele>994</ele>
        <time>2021-07-11T05:43:55.000Z</time>
      </trkpt>
      <trkpt lat="45.2238" lon="5.73689">
        <ele>994</ele>
        <time>2021-07-11T05:43:58.000Z</time>
      </trkpt>
      <trkpt lat="45.2238" lon="5.73689">
        <ele>994</ele>
        <time>2021-07-11T05:44:00.000Z</time>
      </trkpt>
      <trkpt lat="45.2238" lon="5.73689">
        <ele>994</ele>
        <time>2021-07-11T05:44:07.000Z</time>
      </trkpt>
      <trkpt lat="45.2238" lon="5.73689">
        <ele>994</ele>
        <time>2021-07-11T05:44:11.000Z</time>
      </trkpt>
      <trkpt lat="45.2238" lon="5.73689">
        <ele>994</ele>
        <time>2021-07-11T05:44:12.000Z</time>
      </trkpt>
      <trkpt lat="45.2238" lon="5.73689">
        <ele>994</ele>
        <time>2021-07-11T05:44:14.000Z</time>
      </trkpt>
      <trkpt lat="45.2238" lon="5.73689">
        <ele>994.20001220703</ele>
        <time>2021-07-11T05:44:16.000Z</time>
      </trkpt>
      <trkpt lat="45.22378" lon="5.73689">
        <ele>994</ele>
        <time>2021-07-11T05:44:20.000Z</time>
      </trkpt>
      <trkpt lat="45.22376" lon="5.73687">
        <ele>994</ele>
        <time>2021-07-11T05:44:23.000Z</time>
      </trkpt>
      <trkpt lat="45.22375" lon="5.73686">
        <ele>994</ele>
        <time>2021-07-11T05:44:26.000Z</time>
      </trkpt>
      <trkpt lat="45.22373" lon="5.73686">
        <ele>994.40002441406</ele>
        <time>2021-07-11T05:44:32.000Z</time>
      </trkpt>
      <trkpt lat="45.22369" lon="5.73685">
        <ele>995</ele>
        <time>2021-07-11T05:44:36.000Z</time>
      </trkpt>
      <trkpt lat="45.22366" lon="5.73682">
        <ele>995.79998779297</ele>
        <time>2021-07-11T05:44:39.000Z</time>
      </trkpt>
      <trkpt lat="45.22366" lon="5.73681">
        <ele>995.79998779297</ele>
        <time>2021-07-11T05:44:40.000Z</time>
      </trkpt>
      <trkpt lat="45.22365" lon="5.7368">
        <ele>995.79998779297</ele>
        <time>2021-07-11T05:44:41.000Z</time>
      </trkpt>
      <trkpt lat="45.22363" lon="5.7368">
        <ele>996</ele>
        <time>2021-07-11T05:44:42.000Z</time>
      </trkpt>
      <trkpt lat="45.22359" lon="5.73678">
        <ele>996</ele>
        <time>2021-07-11T05:44:45.000Z</time>
      </trkpt>
      <trkpt lat="45.22358" lon="5.73678">
        <ele>996</ele>
        <time>2021-07-11T05:44:46.000Z</time>
      </trkpt>
      <trkpt lat="45.22352" lon="5.73678">
        <ele>996</ele>
        <time>2021-07-11T05:44:51.000Z</time>
      </trkpt>
      <trkpt lat="45.22351" lon="5.73679">
        <ele>996.59997558594</ele>
        <time>2021-07-11T05:44:52.000Z</time>
      </trkpt>
      <trkpt lat="45.22347" lon="5.73679">
        <ele>996.79998779297</ele>
        <time>2021-07-11T05:44:54.000Z</time>
      </trkpt>
      <trkpt lat="45.22345" lon="5.73678">
        <ele>996.79998779297</ele>
        <time>2021-07-11T05:44:55.000Z</time>
      </trkpt>
      <trkpt lat="45.22343" lon="5.73677">
        <ele>998</ele>
        <time>2021-07-11T05:44:57.000Z</time>
      </trkpt>
      <trkpt lat="45.22335" lon="5.73676">
        <ele>998.79998779297</ele>
        <time>2021-07-11T05:45:01.000Z</time>
      </trkpt>
      <trkpt lat="45.22332" lon="5.73676">
        <ele>999.20001220703</ele>
        <time>2021-07-11T05:45:03.000Z</time>
      </trkpt>
      <trkpt lat="45.22329" lon="5.73676">
        <ele>1000</ele>
        <time>2021-07-11T05:45:05.000Z</time>
      </trkpt>
      <trkpt lat="45.22328" lon="5.73676">
        <ele>1000.200012207</ele>
        <time>2021-07-11T05:45:06.000Z</time>
      </trkpt>
      <trkpt lat="45.22326" lon="5.73675">
        <ele>1000.4000244141</ele>
        <time>2021-07-11T05:45:08.000Z</time>
      </trkpt>
      <trkpt lat="45.22321" lon="5.73672">
        <ele>1001</ele>
        <time>2021-07-11T05:45:11.000Z</time>
      </trkpt>
      <trkpt lat="45.2232" lon="5.73671">
        <ele>1001.4000244141</ele>
        <time>2021-07-11T05:45:12.000Z</time>
      </trkpt>
      <trkpt lat="45.22318" lon="5.7367">
        <ele>1001.4000244141</ele>
        <time>2021-07-11T05:45:13.000Z</time>
      </trkpt>
      <trkpt lat="45.22314" lon="5.73669">
        <ele>1002.4000244141</ele>
        <time>2021-07-11T05:45:16.000Z</time>
      </trkpt>
      <trkpt lat="45.22312" lon="5.73669">
        <ele>1002.4000244141</ele>
        <time>2021-07-11T05:45:17.000Z</time>
      </trkpt>
      <trkpt lat="45.22305" lon="5.7367">
        <ele>1003.4000244141</ele>
        <time>2021-07-11T05:45:20.000Z</time>
      </trkpt>
      <trkpt lat="45.22304" lon="5.7367">
        <ele>1003.4000244141</ele>
        <time>2021-07-11T05:45:21.000Z</time>
      </trkpt>
      <trkpt lat="45.22302" lon="5.73669">
        <ele>1003.5999755859</ele>
        <time>2021-07-11T05:45:22.000Z</time>
      </trkpt>
      <trkpt lat="45.22298" lon="5.73668">
        <ele>1004.799987793</ele>
        <time>2021-07-11T05:45:26.000Z</time>
      </trkpt>
      <trkpt lat="45.22296" lon="5.73667">
        <ele>1005.4000244141</ele>
        <time>2021-07-11T05:45:28.000Z</time>
      </trkpt>
      <trkpt lat="45.22294" lon="5.73667">
        <ele>1005.799987793</ele>
        <time>2021-07-11T05:45:30.000Z</time>
      </trkpt>
      <trkpt lat="45.22293" lon="5.73666">
        <ele>1006</ele>
        <time>2021-07-11T05:45:31.000Z</time>
      </trkpt>
      <trkpt lat="45.22291" lon="5.73665">
        <ele>1006.5999755859</ele>
        <time>2021-07-11T05:45:34.000Z</time>
      </trkpt>
      <trkpt lat="45.2229" lon="5.73665">
        <ele>1007.200012207</ele>
        <time>2021-07-11T05:45:36.000Z</time>
      </trkpt>
      <trkpt lat="45.22288" lon="5.73665">
        <ele>1008</ele>
        <time>2021-07-11T05:45:39.000Z</time>
      </trkpt>
      <trkpt lat="45.22286" lon="5.73665">
        <ele>1008.200012207</ele>
        <time>2021-07-11T05:45:40.000Z</time>
      </trkpt>
      <trkpt lat="45.22282" lon="5.73663">
        <ele>1009.200012207</ele>
        <time>2021-07-11T05:45:44.000Z</time>
      </trkpt>
      <trkpt lat="45.22278" lon="5.73663">
        <ele>1009.5999755859</ele>
        <time>2021-07-11T05:45:47.000Z</time>
      </trkpt>
      <trkpt lat="45.22276" lon="5.73664">
        <ele>1010</ele>
        <time>2021-07-11T05:45:49.000Z</time>
      </trkpt>
      <trkpt lat="45.22274" lon="5.73665">
        <ele>1010.4000244141</ele>
        <time>2021-07-11T05:45:50.000Z</time>
      </trkpt>
      <trkpt lat="45.2227" lon="5.73666">
        <ele>1010.5999755859</ele>
        <time>2021-07-11T05:45:52.000Z</time>
      </trkpt>
      <trkpt lat="45.22268" lon="5.73665">
        <ele>1010.799987793</ele>
        <time>2021-07-11T05:45:53.000Z</time>
      </trkpt>
      <trkpt lat="45.22265" lon="5.73664">
        <ele>1011.5999755859</ele>
        <time>2021-07-11T05:45:56.000Z</time>
      </trkpt>
      <trkpt lat="45.22264" lon="5.73663">
        <ele>1011.5999755859</ele>
        <time>2021-07-11T05:45:57.000Z</time>
      </trkpt>
      <trkpt lat="45.22264" lon="5.73662">
        <ele>1011.5999755859</ele>
        <time>2021-07-11T05:45:58.000Z</time>
      </trkpt>
      <trkpt lat="45.22261" lon="5.7366">
        <ele>1012.5999755859</ele>
        <time>2021-07-11T05:46:00.000Z</time>
      </trkpt>
      <trkpt lat="45.22257" lon="5.73658">
        <ele>1013.200012207</ele>
        <time>2021-07-11T05:46:04.000Z</time>
      </trkpt>
      <trkpt lat="45.22254" lon="5.73656">
        <ele>1013.799987793</ele>
        <time>2021-07-11T05:46:06.000Z</time>
      </trkpt>
      <trkpt lat="45.22247" lon="5.73653">
        <ele>1014.4000244141</ele>
        <time>2021-07-11T05:46:10.000Z</time>
      </trkpt>
      <trkpt lat="45.22247" lon="5.73652">
        <ele>1014.799987793</ele>
        <time>2021-07-11T05:46:11.000Z</time>
      </trkpt>
      <trkpt lat="45.22245" lon="5.73651">
        <ele>1014.799987793</ele>
        <time>2021-07-11T05:46:12.000Z</time>
      </trkpt>
      <trkpt lat="45.22241" lon="5.73648">
        <ele>1015.200012207</ele>
        <time>2021-07-11T05:46:14.000Z</time>
      </trkpt>
      <trkpt lat="45.22236" lon="5.73645">
        <ele>1015.5999755859</ele>
        <time>2021-07-11T05:46:17.000Z</time>
      </trkpt>
      <trkpt lat="45.22231" lon="5.73643">
        <ele>1015.799987793</ele>
        <time>2021-07-11T05:46:20.000Z</time>
      </trkpt>
      <trkpt lat="45.2223" lon="5.73641">
        <ele>1016</ele>
        <time>2021-07-11T05:46:21.000Z</time>
      </trkpt>
      <trkpt lat="45.22227" lon="5.7364">
        <ele>1016.200012207</ele>
        <time>2021-07-11T05:46:24.000Z</time>
      </trkpt>
      <trkpt lat="45.22226" lon="5.73639">
        <ele>1016.200012207</ele>
        <time>2021-07-11T05:46:25.000Z</time>
      </trkpt>
      <trkpt lat="45.22224" lon="5.73637">
        <ele>1016.4000244141</ele>
        <time>2021-07-11T05:46:27.000Z</time>
      </trkpt>
      <trkpt lat="45.2222" lon="5.73634">
        <ele>1017</ele>
        <time>2021-07-11T05:46:30.000Z</time>
      </trkpt>
      <trkpt lat="45.22217" lon="5.7363">
        <ele>1017.200012207</ele>
        <time>2021-07-11T05:46:33.000Z</time>
      </trkpt>
      <trkpt lat="45.22213" lon="5.73626">
        <ele>1017.5999755859</ele>
        <time>2021-07-11T05:46:37.000Z</time>
      </trkpt>
      <trkpt lat="45.2221" lon="5.73624">
        <ele>1017.799987793</ele>
        <time>2021-07-11T05:46:39.000Z</time>
      </trkpt>
      <trkpt lat="45.22209" lon="5.73622">
        <ele>1018</ele>
        <time>2021-07-11T05:46:40.000Z</time>
      </trkpt>
      <trkpt lat="45.22203" lon="5.73614">
        <ele>1018.799987793</ele>
        <time>2021-07-11T05:46:46.000Z</time>
      </trkpt>
      <trkpt lat="45.22201" lon="5.73613">
        <ele>1019.200012207</ele>
        <time>2021-07-11T05:46:47.000Z</time>
      </trkpt>
      <trkpt lat="45.22197" lon="5.73608">
        <ele>1019.799987793</ele>
        <time>2021-07-11T05:46:50.000Z</time>
      </trkpt>
      <trkpt lat="45.22194" lon="5.73604">
        <ele>1020</ele>
        <time>2021-07-11T05:46:52.000Z</time>
      </trkpt>
      <trkpt lat="45.22189" lon="5.736">
        <ele>1020.4000244141</ele>
        <time>2021-07-11T05:46:55.000Z</time>
      </trkpt>
      <trkpt lat="45.22187" lon="5.73598">
        <ele>1020.799987793</ele>
        <time>2021-07-11T05:46:57.000Z</time>
      </trkpt>
      <trkpt lat="45.22186" lon="5.73598">
        <ele>1020.799987793</ele>
        <time>2021-07-11T05:46:58.000Z</time>
      </trkpt>
      <trkpt lat="45.22184" lon="5.73597">
        <ele>1021.799987793</ele>
        <time>2021-07-11T05:46:59.000Z</time>
      </trkpt>
      <trkpt lat="45.22183" lon="5.73595">
        <ele>1021.799987793</ele>
        <time>2021-07-11T05:47:00.000Z</time>
      </trkpt>
      <trkpt lat="45.22179" lon="5.73588">
        <ele>1022.200012207</ele>
        <time>2021-07-11T05:47:04.000Z</time>
      </trkpt>
      <trkpt lat="45.22178" lon="5.73587">
        <ele>1023.4000244141</ele>
        <time>2021-07-11T05:47:05.000Z</time>
      </trkpt>
      <trkpt lat="45.22175" lon="5.73585">
        <ele>1023.4000244141</ele>
        <time>2021-07-11T05:47:07.000Z</time>
      </trkpt>
      <trkpt lat="45.22174" lon="5.7358">
        <ele>1024</ele>
        <time>2021-07-11T05:47:10.000Z</time>
      </trkpt>
      <trkpt lat="45.22172" lon="5.73577">
        <ele>1024.5999755859</ele>
        <time>2021-07-11T05:47:12.000Z</time>
      </trkpt>
      <trkpt lat="45.2217" lon="5.73573">
        <ele>1024.5999755859</ele>
        <time>2021-07-11T05:47:15.000Z</time>
      </trkpt>
      <trkpt lat="45.22168" lon="5.73572">
        <ele>1025</ele>
        <time>2021-07-11T05:47:16.000Z</time>
      </trkpt>
      <trkpt lat="45.22165" lon="5.7357">
        <ele>1025.5999755859</ele>
        <time>2021-07-11T05:47:19.000Z</time>
      </trkpt>
      <trkpt lat="45.22164" lon="5.73569">
        <ele>1026</ele>
        <time>2021-07-11T05:47:20.000Z</time>
      </trkpt>
      <trkpt lat="45.22161" lon="5.73568">
        <ele>1026.8000488281</ele>
        <time>2021-07-11T05:47:22.000Z</time>
      </trkpt>
      <trkpt lat="45.22159" lon="5.73567">
        <ele>1027.1999511719</ele>
        <time>2021-07-11T05:47:24.000Z</time>
      </trkpt>
      <trkpt lat="45.22157" lon="5.73564">
        <ele>1027.8000488281</ele>
        <time>2021-07-11T05:47:27.000Z</time>
      </trkpt>
      <trkpt lat="45.22155" lon="5.73564">
        <ele>1028.1999511719</ele>
        <time>2021-07-11T05:47:29.000Z</time>
      </trkpt>
      <trkpt lat="45.22153" lon="5.73562">
        <ele>1029</ele>
        <time>2021-07-11T05:47:31.000Z</time>
      </trkpt>
      <trkpt lat="45.22151" lon="5.73562">
        <ele>1029.1999511719</ele>
        <time>2021-07-11T05:47:32.000Z</time>
      </trkpt>
      <trkpt lat="45.22147" lon="5.73561">
        <ele>1029.8000488281</ele>
        <time>2021-07-11T05:47:35.000Z</time>
      </trkpt>
      <trkpt lat="45.22143" lon="5.7356">
        <ele>1030.4000244141</ele>
        <time>2021-07-11T05:47:37.000Z</time>
      </trkpt>
      <trkpt lat="45.22142" lon="5.7356">
        <ele>1031</ele>
        <time>2021-07-11T05:47:38.000Z</time>
      </trkpt>
      <trkpt lat="45.22141" lon="5.7356">
        <ele>1031</ele>
        <time>2021-07-11T05:47:39.000Z</time>
      </trkpt>
      <trkpt lat="45.2214" lon="5.73558">
        <ele>1031.8000488281</ele>
        <time>2021-07-11T05:47:41.000Z</time>
      </trkpt>
      <trkpt lat="45.22139" lon="5.73558">
        <ele>1032.1999511719</ele>
        <time>2021-07-11T05:47:42.000Z</time>
      </trkpt>
      <trkpt lat="45.22138" lon="5.73558">
        <ele>1032.4000244141</ele>
        <time>2021-07-11T05:47:44.000Z</time>
      </trkpt>
      <trkpt lat="45.22135" lon="5.73558">
        <ele>1033</ele>
        <time>2021-07-11T05:47:46.000Z</time>
      </trkpt>
      <trkpt lat="45.22132" lon="5.73556">
        <ele>1033.8000488281</ele>
        <time>2021-07-11T05:47:50.000Z</time>
      </trkpt>
      <trkpt lat="45.22129" lon="5.73555">
        <ele>1034.1999511719</ele>
        <time>2021-07-11T05:47:52.000Z</time>
      </trkpt>
      <trkpt lat="45.22124" lon="5.73553">
        <ele>1035.4000244141</ele>
        <time>2021-07-11T05:47:56.000Z</time>
      </trkpt>
      <trkpt lat="45.22124" lon="5.73552">
        <ele>1035.8000488281</ele>
        <time>2021-07-11T05:47:57.000Z</time>
      </trkpt>
      <trkpt lat="45.22122" lon="5.73547">
        <ele>1036.5999755859</ele>
        <time>2021-07-11T05:48:00.000Z</time>
      </trkpt>
      <trkpt lat="45.22122" lon="5.73545">
        <ele>1036.8000488281</ele>
        <time>2021-07-11T05:48:01.000Z</time>
      </trkpt>
      <trkpt lat="45.22123" lon="5.73543">
        <ele>1037</ele>
        <time>2021-07-11T05:48:02.000Z</time>
      </trkpt>
      <trkpt lat="45.22122" lon="5.73538">
        <ele>1037.8000488281</ele>
        <time>2021-07-11T05:48:05.000Z</time>
      </trkpt>
      <trkpt lat="45.2212" lon="5.73537">
        <ele>1037.8000488281</ele>
        <time>2021-07-11T05:48:06.000Z</time>
      </trkpt>
      <trkpt lat="45.2212" lon="5.73535">
        <ele>1038.4000244141</ele>
        <time>2021-07-11T05:48:08.000Z</time>
      </trkpt>
      <trkpt lat="45.2212" lon="5.73534">
        <ele>1038.5999755859</ele>
        <time>2021-07-11T05:48:09.000Z</time>
      </trkpt>
      <trkpt lat="45.2212" lon="5.73533">
        <ele>1039</ele>
        <time>2021-07-11T05:48:10.000Z</time>
      </trkpt>
      <trkpt lat="45.22118" lon="5.73533">
        <ele>1039.8000488281</ele>
        <time>2021-07-11T05:48:13.000Z</time>
      </trkpt>
      <trkpt lat="45.22118" lon="5.73532">
        <ele>1040</ele>
        <time>2021-07-11T05:48:14.000Z</time>
      </trkpt>
      <trkpt lat="45.22118" lon="5.73532">
        <ele>1040.5999755859</ele>
        <time>2021-07-11T05:48:15.000Z</time>
      </trkpt>
      <trkpt lat="45.22117" lon="5.73531">
        <ele>1041</ele>
        <time>2021-07-11T05:48:17.000Z</time>
      </trkpt>
      <trkpt lat="45.22115" lon="5.7353">
        <ele>1041.5999755859</ele>
        <time>2021-07-11T05:48:19.000Z</time>
      </trkpt>
      <trkpt lat="45.22115" lon="5.7353">
        <ele>1042</ele>
        <time>2021-07-11T05:48:20.000Z</time>
      </trkpt>
      <trkpt lat="45.22113" lon="5.7353">
        <ele>1042.5999755859</ele>
        <time>2021-07-11T05:48:23.000Z</time>
      </trkpt>
      <trkpt lat="45.22112" lon="5.7353">
        <ele>1043.5999755859</ele>
        <time>2021-07-11T05:48:24.000Z</time>
      </trkpt>
      <trkpt lat="45.2211" lon="5.7353">
        <ele>1044.4000244141</ele>
        <time>2021-07-11T05:48:26.000Z</time>
      </trkpt>
      <trkpt lat="45.22109" lon="5.7353">
        <ele>1044.4000244141</ele>
        <time>2021-07-11T05:48:27.000Z</time>
      </trkpt>
      <trkpt lat="45.22108" lon="5.73529">
        <ele>1044.4000244141</ele>
        <time>2021-07-11T05:48:28.000Z</time>
      </trkpt>
      <trkpt lat="45.22107" lon="5.73529">
        <ele>1044.5999755859</ele>
        <time>2021-07-11T05:48:29.000Z</time>
      </trkpt>
      <trkpt lat="45.22107" lon="5.73528">
        <ele>1044.5999755859</ele>
        <time>2021-07-11T05:48:30.000Z</time>
      </trkpt>
      <trkpt lat="45.22104" lon="5.73523">
        <ele>1045.8000488281</ele>
        <time>2021-07-11T05:48:34.000Z</time>
      </trkpt>
      <trkpt lat="45.22102" lon="5.73523">
        <ele>1046</ele>
        <time>2021-07-11T05:48:36.000Z</time>
      </trkpt>
      <trkpt lat="45.22098" lon="5.73519">
        <ele>1047</ele>
        <time>2021-07-11T05:48:40.000Z</time>
      </trkpt>
      <trkpt lat="45.22094" lon="5.73516">
        <ele>1047.1999511719</ele>
        <time>2021-07-11T05:48:43.000Z</time>
      </trkpt>
      <trkpt lat="45.22093" lon="5.73515">
        <ele>1047.4000244141</ele>
        <time>2021-07-11T05:48:44.000Z</time>
      </trkpt>
      <trkpt lat="45.2209" lon="5.73514">
        <ele>1048.1999511719</ele>
        <time>2021-07-11T05:48:46.000Z</time>
      </trkpt>
      <trkpt lat="45.22084" lon="5.73512">
        <ele>1049.4000244141</ele>
        <time>2021-07-11T05:48:51.000Z</time>
      </trkpt>
      <trkpt lat="45.22082" lon="5.73512">
        <ele>1049.4000244141</ele>
        <time>2021-07-11T05:48:52.000Z</time>
      </trkpt>
      <trkpt lat="45.22081" lon="5.73511">
        <ele>1049.5999755859</ele>
        <time>2021-07-11T05:48:53.000Z</time>
      </trkpt>
      <trkpt lat="45.22069" lon="5.73501">
        <ele>1050.5999755859</ele>
        <time>2021-07-11T05:49:00.000Z</time>
      </trkpt>
      <trkpt lat="45.22068" lon="5.735">
        <ele>1050.5999755859</ele>
        <time>2021-07-11T05:49:01.000Z</time>
      </trkpt>
      <trkpt lat="45.22065" lon="5.73496">
        <ele>1051</ele>
        <time>2021-07-11T05:49:04.000Z</time>
      </trkpt>
      <trkpt lat="45.22063" lon="5.73495">
        <ele>1051.1999511719</ele>
        <time>2021-07-11T05:49:05.000Z</time>
      </trkpt>
      <trkpt lat="45.22062" lon="5.73495">
        <ele>1051.4000244141</ele>
        <time>2021-07-11T05:49:06.000Z</time>
      </trkpt>
      <trkpt lat="45.2206" lon="5.73495">
        <ele>1051.8000488281</ele>
        <time>2021-07-11T05:49:07.000Z</time>
      </trkpt>
      <trkpt lat="45.22058" lon="5.73494">
        <ele>1052</ele>
        <time>2021-07-11T05:49:09.000Z</time>
      </trkpt>
      <trkpt lat="45.22055" lon="5.7349">
        <ele>1052.8000488281</ele>
        <time>2021-07-11T05:49:12.000Z</time>
      </trkpt>
      <trkpt lat="45.22053" lon="5.73484">
        <ele>1053.1999511719</ele>
        <time>2021-07-11T05:49:15.000Z</time>
      </trkpt>
      <trkpt lat="45.22048" lon="5.73481">
        <ele>1054</ele>
        <time>2021-07-11T05:49:18.000Z</time>
      </trkpt>
      <trkpt lat="45.22044" lon="5.73478">
        <ele>1055</ele>
        <time>2021-07-11T05:49:21.000Z</time>
      </trkpt>
      <trkpt lat="45.22043" lon="5.73477">
        <ele>1055</ele>
        <time>2021-07-11T05:49:22.000Z</time>
      </trkpt>
      <trkpt lat="45.22042" lon="5.73476">
        <ele>1055</ele>
        <time>2021-07-11T05:49:23.000Z</time>
      </trkpt>
      <trkpt lat="45.2204" lon="5.73474">
        <ele>1056</ele>
        <time>2021-07-11T05:49:26.000Z</time>
      </trkpt>
      <trkpt lat="45.22039" lon="5.73474">
        <ele>1056.1999511719</ele>
        <time>2021-07-11T05:49:27.000Z</time>
      </trkpt>
      <trkpt lat="45.22038" lon="5.73473">
        <ele>1056.4000244141</ele>
        <time>2021-07-11T05:49:28.000Z</time>
      </trkpt>
      <trkpt lat="45.22036" lon="5.73471">
        <ele>1056.5999755859</ele>
        <time>2021-07-11T05:49:30.000Z</time>
      </trkpt>
      <trkpt lat="45.22033" lon="5.73468">
        <ele>1057.5999755859</ele>
        <time>2021-07-11T05:49:32.000Z</time>
      </trkpt>
      <trkpt lat="45.22032" lon="5.73467">
        <ele>1057.5999755859</ele>
        <time>2021-07-11T05:49:33.000Z</time>
      </trkpt>
      <trkpt lat="45.22031" lon="5.73466">
        <ele>1058</ele>
        <time>2021-07-11T05:49:34.000Z</time>
      </trkpt>
      <trkpt lat="45.22028" lon="5.73462">
        <ele>1058.5999755859</ele>
        <time>2021-07-11T05:49:36.000Z</time>
      </trkpt>
      <trkpt lat="45.22018" lon="5.73456">
        <ele>1059.4000244141</ele>
        <time>2021-07-11T05:49:41.000Z</time>
      </trkpt>
      <trkpt lat="45.22015" lon="5.73453">
        <ele>1059.8000488281</ele>
        <time>2021-07-11T05:49:43.000Z</time>
      </trkpt>
      <trkpt lat="45.22011" lon="5.73451">
        <ele>1060.5999755859</ele>
        <time>2021-07-11T05:49:46.000Z</time>
      </trkpt>
      <trkpt lat="45.22009" lon="5.73449">
        <ele>1060.8000488281</ele>
        <time>2021-07-11T05:49:48.000Z</time>
      </trkpt>
      <trkpt lat="45.22008" lon="5.73449">
        <ele>1060.8000488281</ele>
        <time>2021-07-11T05:49:49.000Z</time>
      </trkpt>
      <trkpt lat="45.22006" lon="5.73449">
        <ele>1061</ele>
        <time>2021-07-11T05:49:50.000Z</time>
      </trkpt>
      <trkpt lat="45.21999" lon="5.73448">
        <ele>1060.4000244141</ele>
        <time>2021-07-11T05:49:54.000Z</time>
      </trkpt>
      <trkpt lat="45.21998" lon="5.73448">
        <ele>1060.4000244141</ele>
        <time>2021-07-11T05:49:55.000Z</time>
      </trkpt>
      <trkpt lat="45.21992" lon="5.73446">
        <ele>1059.8000488281</ele>
        <time>2021-07-11T05:49:59.000Z</time>
      </trkpt>
      <trkpt lat="45.2199" lon="5.73445">
        <ele>1059</ele>
        <time>2021-07-11T05:50:01.000Z</time>
      </trkpt>
      <trkpt lat="45.21988" lon="5.73444">
        <ele>1058.5999755859</ele>
        <time>2021-07-11T05:50:02.000Z</time>
      </trkpt>
      <trkpt lat="45.21986" lon="5.73443">
        <ele>1058.1999511719</ele>
        <time>2021-07-11T05:50:05.000Z</time>
      </trkpt>
      <trkpt lat="45.21983" lon="5.73441">
        <ele>1057.1999511719</ele>
        <time>2021-07-11T05:50:07.000Z</time>
      </trkpt>
      <trkpt lat="45.21982" lon="5.7344">
        <ele>1057.1999511719</ele>
        <time>2021-07-11T05:50:08.000Z</time>
      </trkpt>
      <trkpt lat="45.2197" lon="5.73437">
        <ele>1056.4000244141</ele>
        <time>2021-07-11T05:50:15.000Z</time>
      </trkpt>
      <trkpt lat="45.21968" lon="5.73438">
        <ele>1056.1999511719</ele>
        <time>2021-07-11T05:50:16.000Z</time>
      </trkpt>
      <trkpt lat="45.21957" lon="5.73437">
        <ele>1055.4000244141</ele>
        <time>2021-07-11T05:50:23.000Z</time>
      </trkpt>
      <trkpt lat="45.21954" lon="5.73434">
        <ele>1055</ele>
        <time>2021-07-11T05:50:25.000Z</time>
      </trkpt>
      <trkpt lat="45.21949" lon="5.73431">
        <ele>1054</ele>
        <time>2021-07-11T05:50:29.000Z</time>
      </trkpt>
      <trkpt lat="45.21948" lon="5.7343">
        <ele>1054</ele>
        <time>2021-07-11T05:50:30.000Z</time>
      </trkpt>
      <trkpt lat="45.21941" lon="5.73422">
        <ele>1052.8000488281</ele>
        <time>2021-07-11T05:50:36.000Z</time>
      </trkpt>
      <trkpt lat="45.2194" lon="5.7342">
        <ele>1052.8000488281</ele>
        <time>2021-07-11T05:50:37.000Z</time>
      </trkpt>
      <trkpt lat="45.21938" lon="5.73415">
        <ele>1052</ele>
        <time>2021-07-11T05:50:40.000Z</time>
      </trkpt>
      <trkpt lat="45.21935" lon="5.73409">
        <ele>1052.4000244141</ele>
        <time>2021-07-11T05:50:43.000Z</time>
      </trkpt>
      <trkpt lat="45.21925" lon="5.734">
        <ele>1052.5999755859</ele>
        <time>2021-07-11T05:50:49.000Z</time>
      </trkpt>
      <trkpt lat="45.21921" lon="5.73396">
        <ele>1053.5999755859</ele>
        <time>2021-07-11T05:50:53.000Z</time>
      </trkpt>
      <trkpt lat="45.21916" lon="5.73393">
        <ele>1053.5999755859</ele>
        <time>2021-07-11T05:50:56.000Z</time>
      </trkpt>
      <trkpt lat="45.21909" lon="5.7339">
        <ele>1053.8000488281</ele>
        <time>2021-07-11T05:51:00.000Z</time>
      </trkpt>
      <trkpt lat="45.21906" lon="5.73389">
        <ele>1053.4000244141</ele>
        <time>2021-07-11T05:51:02.000Z</time>
      </trkpt>
      <trkpt lat="45.21904" lon="5.73388">
        <ele>1053</ele>
        <time>2021-07-11T05:51:03.000Z</time>
      </trkpt>
      <trkpt lat="45.21901" lon="5.73386">
        <ele>1052.8000488281</ele>
        <time>2021-07-11T05:51:05.000Z</time>
      </trkpt>
      <trkpt lat="45.21887" lon="5.73376">
        <ele>1052.4000244141</ele>
        <time>2021-07-11T05:51:14.000Z</time>
      </trkpt>
      <trkpt lat="45.2188" lon="5.73374">
        <ele>1053</ele>
        <time>2021-07-11T05:51:19.000Z</time>
      </trkpt>
      <trkpt lat="45.21878" lon="5.73373">
        <ele>1053.1999511719</ele>
        <time>2021-07-11T05:51:20.000Z</time>
      </trkpt>
      <trkpt lat="45.21878" lon="5.73371">
        <ele>1053.8000488281</ele>
        <time>2021-07-11T05:51:21.000Z</time>
      </trkpt>
      <trkpt lat="45.21877" lon="5.7337">
        <ele>1054</ele>
        <time>2021-07-11T05:51:22.000Z</time>
      </trkpt>
      <trkpt lat="45.21872" lon="5.73366">
        <ele>1054.4000244141</ele>
        <time>2021-07-11T05:51:25.000Z</time>
      </trkpt>
      <trkpt lat="45.2187" lon="5.73364">
        <ele>1055</ele>
        <time>2021-07-11T05:51:28.000Z</time>
      </trkpt>
      <trkpt lat="45.21869" lon="5.73364">
        <ele>1055.5999755859</ele>
        <time>2021-07-11T05:51:29.000Z</time>
      </trkpt>
      <trkpt lat="45.21867" lon="5.73364">
        <ele>1055.8000488281</ele>
        <time>2021-07-11T05:51:31.000Z</time>
      </trkpt>
      <trkpt lat="45.21866" lon="5.73363">
        <ele>1056</ele>
        <time>2021-07-11T05:51:32.000Z</time>
      </trkpt>
      <trkpt lat="45.21865" lon="5.73362">
        <ele>1056.1999511719</ele>
        <time>2021-07-11T05:51:33.000Z</time>
      </trkpt>
      <trkpt lat="45.21861" lon="5.7336">
        <ele>1057.1999511719</ele>
        <time>2021-07-11T05:51:36.000Z</time>
      </trkpt>
      <trkpt lat="45.2186" lon="5.73359">
        <ele>1057.5999755859</ele>
        <time>2021-07-11T05:51:37.000Z</time>
      </trkpt>
      <trkpt lat="45.21857" lon="5.73356">
        <ele>1058.4000244141</ele>
        <time>2021-07-11T05:51:40.000Z</time>
      </trkpt>
      <trkpt lat="45.21856" lon="5.73353">
        <ele>1059.5999755859</ele>
        <time>2021-07-11T05:51:42.000Z</time>
      </trkpt>
      <trkpt lat="45.21852" lon="5.73351">
        <ele>1060.1999511719</ele>
        <time>2021-07-11T05:51:47.000Z</time>
      </trkpt>
      <trkpt lat="45.21851" lon="5.73348">
        <ele>1060.1999511719</ele>
        <time>2021-07-11T05:51:52.000Z</time>
      </trkpt>
      <trkpt lat="45.2185" lon="5.73345">
        <ele>1059.8000488281</ele>
        <time>2021-07-11T05:51:55.000Z</time>
      </trkpt>
      <trkpt lat="45.2185" lon="5.73345">
        <ele>1059.8000488281</ele>
        <time>2021-07-11T05:51:56.000Z</time>
      </trkpt>
      <trkpt lat="45.2185" lon="5.73344">
        <ele>1060</ele>
        <time>2021-07-11T05:51:59.000Z</time>
      </trkpt>
      <trkpt lat="45.21851" lon="5.73342">
        <ele>1060</ele>
        <time>2021-07-11T05:52:02.000Z</time>
      </trkpt>
      <trkpt lat="45.2185" lon="5.73342">
        <ele>1059.8000488281</ele>
        <time>2021-07-11T05:52:05.000Z</time>
      </trkpt>
      <trkpt lat="45.2185" lon="5.73343">
        <ele>1060</ele>
        <time>2021-07-11T05:52:08.000Z</time>
      </trkpt>
      <trkpt lat="45.2185" lon="5.73343">
        <ele>1060</ele>
        <time>2021-07-11T05:52:11.000Z</time>
      </trkpt>
      <trkpt lat="45.21848" lon="5.7335">
        <ele>1059.8000488281</ele>
        <time>2021-07-11T05:52:21.000Z</time>
      </trkpt>
      <trkpt lat="45.21847" lon="5.73356">
        <ele>1059.8000488281</ele>
        <time>2021-07-11T05:52:26.000Z</time>
      </trkpt>
      <trkpt lat="45.21847" lon="5.73357">
        <ele>1059.8000488281</ele>
        <time>2021-07-11T05:52:27.000Z</time>
      </trkpt>
      <trkpt lat="45.21847" lon="5.73357">
        <ele>1059.8000488281</ele>
        <time>2021-07-11T05:52:28.000Z</time>
      </trkpt>
      <trkpt lat="45.21846" lon="5.7336">
        <ele>1059.5999755859</ele>
        <time>2021-07-11T05:52:33.000Z</time>
      </trkpt>
      <trkpt lat="45.21846" lon="5.73362">
        <ele>1059.8000488281</ele>
        <time>2021-07-11T05:52:35.000Z</time>
      </trkpt>
      <trkpt lat="45.21844" lon="5.7336">
        <ele>1059.8000488281</ele>
        <time>2021-07-11T05:52:40.000Z</time>
      </trkpt>
      <trkpt lat="45.21844" lon="5.73357">
        <ele>1060</ele>
        <time>2021-07-11T05:52:43.000Z</time>
      </trkpt>
      <trkpt lat="45.21844" lon="5.73356">
        <ele>1060</ele>
        <time>2021-07-11T05:52:44.000Z</time>
      </trkpt>
      <trkpt lat="45.21844" lon="5.73356">
        <ele>1060</ele>
        <time>2021-07-11T05:52:56.000Z</time>
      </trkpt>
      <trkpt lat="45.21844" lon="5.73356">
        <ele>1059.8000488281</ele>
        <time>2021-07-11T05:52:57.000Z</time>
      </trkpt>
      <trkpt lat="45.21844" lon="5.73356">
        <ele>1059.8000488281</ele>
        <time>2021-07-11T05:52:58.000Z</time>
      </trkpt>
      <trkpt lat="45.21844" lon="5.73356">
        <ele>1059.8000488281</ele>
        <time>2021-07-11T05:52:59.000Z</time>
      </trkpt>
      <trkpt lat="45.21844" lon="5.73356">
        <ele>1059.8000488281</ele>
        <time>2021-07-11T05:53:00.000Z</time>
      </trkpt>
      <trkpt lat="45.21844" lon="5.73356">
        <ele>1059.8000488281</ele>
        <time>2021-07-11T05:53:01.000Z</time>
      </trkpt>
      <trkpt lat="45.21846" lon="5.73353">
        <ele>1059.8000488281</ele>
        <time>2021-07-11T05:53:03.000Z</time>
      </trkpt>
      <trkpt lat="45.21847" lon="5.73351">
        <ele>1060</ele>
        <time>2021-07-11T05:53:05.000Z</time>
      </trkpt>
      <trkpt lat="45.21846" lon="5.73348">
        <ele>1059.8000488281</ele>
        <time>2021-07-11T05:53:13.000Z</time>
      </trkpt>
      <trkpt lat="45.21847" lon="5.73344">
        <ele>1060</ele>
        <time>2021-07-11T05:53:23.000Z</time>
      </trkpt>
      <trkpt lat="45.21847" lon="5.73344">
        <ele>1060</ele>
        <time>2021-07-11T05:53:28.000Z</time>
      </trkpt>
      <trkpt lat="45.21843" lon="5.7334">
        <ele>1059.5999755859</ele>
        <time>2021-07-11T05:53:33.000Z</time>
      </trkpt>
      <trkpt lat="45.21841" lon="5.73339">
        <ele>1059.5999755859</ele>
        <time>2021-07-11T05:53:34.000Z</time>
      </trkpt>
      <trkpt lat="45.2184" lon="5.73337">
        <ele>1059.5999755859</ele>
        <time>2021-07-11T05:53:36.000Z</time>
      </trkpt>
      <trkpt lat="45.21836" lon="5.73334">
        <ele>1059</ele>
        <time>2021-07-11T05:53:40.000Z</time>
      </trkpt>
      <trkpt lat="45.21833" lon="5.7333">
        <ele>1058.4000244141</ele>
        <time>2021-07-11T05:53:43.000Z</time>
      </trkpt>
      <trkpt lat="45.2183" lon="5.73329">
        <ele>1058</ele>
        <time>2021-07-11T05:53:46.000Z</time>
      </trkpt>
      <trkpt lat="45.21829" lon="5.73325">
        <ele>1057.4000244141</ele>
        <time>2021-07-11T05:53:49.000Z</time>
      </trkpt>
      <trkpt lat="45.21827" lon="5.73321">
        <ele>1056.5999755859</ele>
        <time>2021-07-11T05:53:53.000Z</time>
      </trkpt>
      <trkpt lat="45.21825" lon="5.7332">
        <ele>1056.4000244141</ele>
        <time>2021-07-11T05:53:55.000Z</time>
      </trkpt>
      <trkpt lat="45.21822" lon="5.73317">
        <ele>1056</ele>
        <time>2021-07-11T05:53:57.000Z</time>
      </trkpt>
      <trkpt lat="45.21819" lon="5.73316">
        <ele>1055.5999755859</ele>
        <time>2021-07-11T05:53:59.000Z</time>
      </trkpt>
      <trkpt lat="45.21818" lon="5.73315">
        <ele>1055.1999511719</ele>
        <time>2021-07-11T05:54:00.000Z</time>
      </trkpt>
      <trkpt lat="45.21809" lon="5.73306">
        <ele>1054</ele>
        <time>2021-07-11T05:54:07.000Z</time>
      </trkpt>
      <trkpt lat="45.21804" lon="5.73303">
        <ele>1052.8000488281</ele>
        <time>2021-07-11T05:54:10.000Z</time>
      </trkpt>
      <trkpt lat="45.218" lon="5.73301">
        <ele>1052.8000488281</ele>
        <time>2021-07-11T05:54:12.000Z</time>
      </trkpt>
      <trkpt lat="45.21799" lon="5.73299">
        <ele>1052.5999755859</ele>
        <time>2021-07-11T05:54:13.000Z</time>
      </trkpt>
      <trkpt lat="45.21797" lon="5.73296">
        <ele>1052.1999511719</ele>
        <time>2021-07-11T05:54:15.000Z</time>
      </trkpt>
      <trkpt lat="45.21795" lon="5.73292">
        <ele>1051.8000488281</ele>
        <time>2021-07-11T05:54:18.000Z</time>
      </trkpt>
      <trkpt lat="45.21794" lon="5.73291">
        <ele>1051.1999511719</ele>
        <time>2021-07-11T05:54:19.000Z</time>
      </trkpt>
      <trkpt lat="45.21792" lon="5.73289">
        <ele>1050.4000244141</ele>
        <time>2021-07-11T05:54:21.000Z</time>
      </trkpt>
      <trkpt lat="45.21789" lon="5.73287">
        <ele>1050.1999511719</ele>
        <time>2021-07-11T05:54:23.000Z</time>
      </trkpt>
      <trkpt lat="45.21784" lon="5.73283">
        <ele>1049.1999511719</ele>
        <time>2021-07-11T05:54:28.000Z</time>
      </trkpt>
      <trkpt lat="45.21783" lon="5.73282">
        <ele>1048.8000488281</ele>
        <time>2021-07-11T05:54:29.000Z</time>
      </trkpt>
      <trkpt lat="45.2178" lon="5.73278">
        <ele>1048.4000244141</ele>
        <time>2021-07-11T05:54:31.000Z</time>
      </trkpt>
      <trkpt lat="45.2178" lon="5.73276">
        <ele>1048.4000244141</ele>
        <time>2021-07-11T05:54:32.000Z</time>
      </trkpt>
      <trkpt lat="45.21781" lon="5.73271">
        <ele>1048</ele>
        <time>2021-07-11T05:54:35.000Z</time>
      </trkpt>
      <trkpt lat="45.21782" lon="5.73269">
        <ele>1047.4000244141</ele>
        <time>2021-07-11T05:54:37.000Z</time>
      </trkpt>
      <trkpt lat="45.21782" lon="5.73268">
        <ele>1047.4000244141</ele>
        <time>2021-07-11T05:54:38.000Z</time>
      </trkpt>
      <trkpt lat="45.21782" lon="5.73267">
        <ele>1046.8000488281</ele>
        <time>2021-07-11T05:54:39.000Z</time>
      </trkpt>
      <trkpt lat="45.21781" lon="5.73266">
        <ele>1046.4000244141</ele>
        <time>2021-07-11T05:54:40.000Z</time>
      </trkpt>
      <trkpt lat="45.21781" lon="5.73265">
        <ele>1046.1999511719</ele>
        <time>2021-07-11T05:54:41.000Z</time>
      </trkpt>
      <trkpt lat="45.2178" lon="5.73264">
        <ele>1046</ele>
        <time>2021-07-11T05:54:42.000Z</time>
      </trkpt>
      <trkpt lat="45.2178" lon="5.73262">
        <ele>1045.8000488281</ele>
        <time>2021-07-11T05:54:43.000Z</time>
      </trkpt>
      <trkpt lat="45.21776" lon="5.73254">
        <ele>1044.4000244141</ele>
        <time>2021-07-11T05:54:48.000Z</time>
      </trkpt>
      <trkpt lat="45.21776" lon="5.73252">
        <ele>1044.1999511719</ele>
        <time>2021-07-11T05:54:49.000Z</time>
      </trkpt>
      <trkpt lat="45.21775" lon="5.7325">
        <ele>1043.1999511719</ele>
        <time>2021-07-11T05:54:51.000Z</time>
      </trkpt>
      <trkpt lat="45.21773" lon="5.73246">
        <ele>1042.5999755859</ele>
        <time>2021-07-11T05:54:54.000Z</time>
      </trkpt>
      <trkpt lat="45.21772" lon="5.73245">
        <ele>1043.1999511719</ele>
        <time>2021-07-11T05:54:55.000Z</time>
      </trkpt>
      <trkpt lat="45.21766" lon="5.73237">
        <ele>1042.8000488281</ele>
        <time>2021-07-11T05:55:02.000Z</time>
      </trkpt>
      <trkpt lat="45.21763" lon="5.73229">
        <ele>1042.8000488281</ele>
        <time>2021-07-11T05:55:09.000Z</time>
      </trkpt>
      <trkpt lat="45.21759" lon="5.73226">
        <ele>1042</ele>
        <time>2021-07-11T05:55:13.000Z</time>
      </trkpt>
      <trkpt lat="45.21759" lon="5.73224">
        <ele>1041.4000244141</ele>
        <time>2021-07-11T05:55:15.000Z</time>
      </trkpt>
      <trkpt lat="45.21759" lon="5.73222">
        <ele>1041</ele>
        <time>2021-07-11T05:55:17.000Z</time>
      </trkpt>
      <trkpt lat="45.21759" lon="5.73219">
        <ele>1040.1999511719</ele>
        <time>2021-07-11T05:55:20.000Z</time>
      </trkpt>
      <trkpt lat="45.21759" lon="5.73219">
        <ele>1040.1999511719</ele>
        <time>2021-07-11T05:55:21.000Z</time>
      </trkpt>
      <trkpt lat="45.21758" lon="5.73218">
        <ele>1040.1999511719</ele>
        <time>2021-07-11T05:55:22.000Z</time>
      </trkpt>
      <trkpt lat="45.21757" lon="5.73217">
        <ele>1039.5999755859</ele>
        <time>2021-07-11T05:55:23.000Z</time>
      </trkpt>
      <trkpt lat="45.21754" lon="5.73213">
        <ele>1038.8000488281</ele>
        <time>2021-07-11T05:55:26.000Z</time>
      </trkpt>
      <trkpt lat="45.21753" lon="5.73212">
        <ele>1038.8000488281</ele>
        <time>2021-07-11T05:55:27.000Z</time>
      </trkpt>
      <trkpt lat="45.21749" lon="5.7321">
        <ele>1039.5999755859</ele>
        <time>2021-07-11T05:55:32.000Z</time>
      </trkpt>
      <trkpt lat="45.21746" lon="5.7321">
        <ele>1040.1999511719</ele>
        <time>2021-07-11T05:55:35.000Z</time>
      </trkpt>
      <trkpt lat="45.21743" lon="5.73211">
        <ele>1040.1999511719</ele>
        <time>2021-07-11T05:55:37.000Z</time>
      </trkpt>
      <trkpt lat="45.2174" lon="5.73211">
        <ele>1040.5999755859</ele>
        <time>2021-07-11T05:55:39.000Z</time>
      </trkpt>
      <trkpt lat="45.21737" lon="5.73215">
        <ele>1040.1999511719</ele>
        <time>2021-07-11T05:55:42.000Z</time>
      </trkpt>
      <trkpt lat="45.21737" lon="5.73216">
        <ele>1040</ele>
        <time>2021-07-11T05:55:43.000Z</time>
      </trkpt>
      <trkpt lat="45.21735" lon="5.73217">
        <ele>1039.4000244141</ele>
        <time>2021-07-11T05:55:45.000Z</time>
      </trkpt>
      <trkpt lat="45.21734" lon="5.73219">
        <ele>1038.8000488281</ele>
        <time>2021-07-11T05:55:48.000Z</time>
      </trkpt>
      <trkpt lat="45.21732" lon="5.73221">
        <ele>1038.1999511719</ele>
        <time>2021-07-11T05:55:51.000Z</time>
      </trkpt>
      <trkpt lat="45.21729" lon="5.73224">
        <ele>1037.5999755859</ele>
        <time>2021-07-11T05:55:55.000Z</time>
      </trkpt>
      <trkpt lat="45.21728" lon="5.73224">
        <ele>1037</ele>
        <time>2021-07-11T05:55:56.000Z</time>
      </trkpt>
      <trkpt lat="45.21723" lon="5.73223">
        <ele>1035.8000488281</ele>
        <time>2021-07-11T05:56:01.000Z</time>
      </trkpt>
      <trkpt lat="45.21718" lon="5.73219">
        <ele>1035</ele>
        <time>2021-07-11T05:56:06.000Z</time>
      </trkpt>
      <trkpt lat="45.21716" lon="5.73217">
        <ele>1034.8000488281</ele>
        <time>2021-07-11T05:56:07.000Z</time>
      </trkpt>
      <trkpt lat="45.21714" lon="5.73215">
        <ele>1034.5999755859</ele>
        <time>2021-07-11T05:56:08.000Z</time>
      </trkpt>
      <trkpt lat="45.21713" lon="5.73214">
        <ele>1034.1999511719</ele>
        <time>2021-07-11T05:56:11.000Z</time>
      </trkpt>
      <trkpt lat="45.21714" lon="5.73214">
        <ele>1034.1999511719</ele>
        <time>2021-07-11T05:56:12.000Z</time>
      </trkpt>
      <trkpt lat="45.21715" lon="5.73214">
        <ele>1034</ele>
        <time>2021-07-11T05:56:14.000Z</time>
      </trkpt>
      <trkpt lat="45.21713" lon="5.73214">
        <ele>1033.8000488281</ele>
        <time>2021-07-11T05:56:16.000Z</time>
      </trkpt>
      <trkpt lat="45.21711" lon="5.73209">
        <ele>1033.8000488281</ele>
        <time>2021-07-11T05:56:20.000Z</time>
      </trkpt>
      <trkpt lat="45.2171" lon="5.73207">
        <ele>1033.8000488281</ele>
        <time>2021-07-11T05:56:21.000Z</time>
      </trkpt>
      <trkpt lat="45.21709" lon="5.73206">
        <ele>1034</ele>
        <time>2021-07-11T05:56:22.000Z</time>
      </trkpt>
      <trkpt lat="45.21707" lon="5.73203">
        <ele>1034</ele>
        <time>2021-07-11T05:56:24.000Z</time>
      </trkpt>
      <trkpt lat="45.217" lon="5.73197">
        <ele>1033.4000244141</ele>
        <time>2021-07-11T05:56:28.000Z</time>
      </trkpt>
      <trkpt lat="45.21696" lon="5.73191">
        <ele>1033.1999511719</ele>
        <time>2021-07-11T05:56:31.000Z</time>
      </trkpt>
      <trkpt lat="45.21695" lon="5.73188">
        <ele>1032.5999755859</ele>
        <time>2021-07-11T05:56:33.000Z</time>
      </trkpt>
      <trkpt lat="45.21693" lon="5.73184">
        <ele>1032.1999511719</ele>
        <time>2021-07-11T05:56:37.000Z</time>
      </trkpt>
      <trkpt lat="45.21692" lon="5.73183">
        <ele>1032</ele>
        <time>2021-07-11T05:56:38.000Z</time>
      </trkpt>
      <trkpt lat="45.21691" lon="5.73182">
        <ele>1031.1999511719</ele>
        <time>2021-07-11T05:56:39.000Z</time>
      </trkpt>
      <trkpt lat="45.21687" lon="5.73175">
        <ele>1029.8000488281</ele>
        <time>2021-07-11T05:56:44.000Z</time>
      </trkpt>
      <trkpt lat="45.21684" lon="5.7317">
        <ele>1028.5999755859</ele>
        <time>2021-07-11T05:56:49.000Z</time>
      </trkpt>
      <trkpt lat="45.21684" lon="5.73168">
        <ele>1028</ele>
        <time>2021-07-11T05:56:51.000Z</time>
      </trkpt>
      <trkpt lat="45.21683" lon="5.73168">
        <ele>1027.8000488281</ele>
        <time>2021-07-11T05:56:52.000Z</time>
      </trkpt>
      <trkpt lat="45.21681" lon="5.73164">
        <ele>1027.4000244141</ele>
        <time>2021-07-11T05:56:55.000Z</time>
      </trkpt>
      <trkpt lat="45.2168" lon="5.73163">
        <ele>1027.4000244141</ele>
        <time>2021-07-11T05:56:56.000Z</time>
      </trkpt>
      <trkpt lat="45.21678" lon="5.73161">
        <ele>1026.1999511719</ele>
        <time>2021-07-11T05:56:59.000Z</time>
      </trkpt>
      <trkpt lat="45.21677" lon="5.73159">
        <ele>1025.8000488281</ele>
        <time>2021-07-11T05:57:01.000Z</time>
      </trkpt>
      <trkpt lat="45.21676" lon="5.73156">
        <ele>1024.5999755859</ele>
        <time>2021-07-11T05:57:05.000Z</time>
      </trkpt>
      <trkpt lat="45.21675" lon="5.73154">
        <ele>1024.4000244141</ele>
        <time>2021-07-11T05:57:07.000Z</time>
      </trkpt>
      <trkpt lat="45.21675" lon="5.73152">
        <ele>1024</ele>
        <time>2021-07-11T05:57:09.000Z</time>
      </trkpt>
      <trkpt lat="45.21673" lon="5.7315">
        <ele>1023.5999755859</ele>
        <time>2021-07-11T05:57:11.000Z</time>
      </trkpt>
      <trkpt lat="45.21673" lon="5.73149">
        <ele>1022.5999755859</ele>
        <time>2021-07-11T05:57:12.000Z</time>
      </trkpt>
      <trkpt lat="45.21672" lon="5.73147">
        <ele>1022.4000244141</ele>
        <time>2021-07-11T05:57:14.000Z</time>
      </trkpt>
      <trkpt lat="45.2167" lon="5.73146">
        <ele>1021.200012207</ele>
        <time>2021-07-11T05:57:17.000Z</time>
      </trkpt>
      <trkpt lat="45.2167" lon="5.73145">
        <ele>1020.5999755859</ele>
        <time>2021-07-11T05:57:18.000Z</time>
      </trkpt>
      <trkpt lat="45.21668" lon="5.73145">
        <ele>1020.5999755859</ele>
        <time>2021-07-11T05:57:20.000Z</time>
      </trkpt>
      <trkpt lat="45.21667" lon="5.73145">
        <ele>1020</ele>
        <time>2021-07-11T05:57:21.000Z</time>
      </trkpt>
      <trkpt lat="45.21664" lon="5.73143">
        <ele>1019.200012207</ele>
        <time>2021-07-11T05:57:24.000Z</time>
      </trkpt>
      <trkpt lat="45.21664" lon="5.73141">
        <ele>1018.799987793</ele>
        <time>2021-07-11T05:57:25.000Z</time>
      </trkpt>
      <trkpt lat="45.21663" lon="5.73141">
        <ele>1018.200012207</ele>
        <time>2021-07-11T05:57:26.000Z</time>
      </trkpt>
      <trkpt lat="45.21659" lon="5.73141">
        <ele>1017.5999755859</ele>
        <time>2021-07-11T05:57:30.000Z</time>
      </trkpt>
      <trkpt lat="45.21658" lon="5.73142">
        <ele>1017.200012207</ele>
        <time>2021-07-11T05:57:31.000Z</time>
      </trkpt>
      <trkpt lat="45.21657" lon="5.73142">
        <ele>1016.4000244141</ele>
        <time>2021-07-11T05:57:32.000Z</time>
      </trkpt>
      <trkpt lat="45.21655" lon="5.73142">
        <ele>1016.4000244141</ele>
        <time>2021-07-11T05:57:33.000Z</time>
      </trkpt>
      <trkpt lat="45.21651" lon="5.7314">
        <ele>1015.799987793</ele>
        <time>2021-07-11T05:57:37.000Z</time>
      </trkpt>
      <trkpt lat="45.21648" lon="5.7314">
        <ele>1015.4000244141</ele>
        <time>2021-07-11T05:57:39.000Z</time>
      </trkpt>
      <trkpt lat="45.21645" lon="5.73139">
        <ele>1014.799987793</ele>
        <time>2021-07-11T05:57:41.000Z</time>
      </trkpt>
      <trkpt lat="45.21644" lon="5.73139">
        <ele>1014.4000244141</ele>
        <time>2021-07-11T05:57:42.000Z</time>
      </trkpt>
      <trkpt lat="45.21644" lon="5.73139">
        <ele>1014.200012207</ele>
        <time>2021-07-11T05:57:43.000Z</time>
      </trkpt>
      <trkpt lat="45.21641" lon="5.73141">
        <ele>1013.200012207</ele>
        <time>2021-07-11T05:57:45.000Z</time>
      </trkpt>
      <trkpt lat="45.21639" lon="5.73142">
        <ele>1012.5999755859</ele>
        <time>2021-07-11T05:57:47.000Z</time>
      </trkpt>
      <trkpt lat="45.21637" lon="5.73143">
        <ele>1011</ele>
        <time>2021-07-11T05:57:49.000Z</time>
      </trkpt>
      <trkpt lat="45.21633" lon="5.73143">
        <ele>1009.799987793</ele>
        <time>2021-07-11T05:57:53.000Z</time>
      </trkpt>
      <trkpt lat="45.21627" lon="5.73141">
        <ele>1008</ele>
        <time>2021-07-11T05:57:56.000Z</time>
      </trkpt>
      <trkpt lat="45.21625" lon="5.73138">
        <ele>1007.200012207</ele>
        <time>2021-07-11T05:57:58.000Z</time>
      </trkpt>
      <trkpt lat="45.21624" lon="5.73136">
        <ele>1007</ele>
        <time>2021-07-11T05:57:59.000Z</time>
      </trkpt>
      <trkpt lat="45.21621" lon="5.73134">
        <ele>1006.799987793</ele>
        <time>2021-07-11T05:58:01.000Z</time>
      </trkpt>
      <trkpt lat="45.21618" lon="5.73132">
        <ele>1005.799987793</ele>
        <time>2021-07-11T05:58:03.000Z</time>
      </trkpt>
      <trkpt lat="45.21615" lon="5.73131">
        <ele>1005.200012207</ele>
        <time>2021-07-11T05:58:05.000Z</time>
      </trkpt>
      <trkpt lat="45.21608" lon="5.73128">
        <ele>1004.5999755859</ele>
        <time>2021-07-11T05:58:08.000Z</time>
      </trkpt>
      <trkpt lat="45.21607" lon="5.73127">
        <ele>1003.5999755859</ele>
        <time>2021-07-11T05:58:09.000Z</time>
      </trkpt>
      <trkpt lat="45.21604" lon="5.73125">
        <ele>1003.200012207</ele>
        <time>2021-07-11T05:58:11.000Z</time>
      </trkpt>
      <trkpt lat="45.21601" lon="5.73123">
        <ele>1002.4000244141</ele>
        <time>2021-07-11T05:58:12.000Z</time>
      </trkpt>
      <trkpt lat="45.21599" lon="5.73122">
        <ele>1002.200012207</ele>
        <time>2021-07-11T05:58:13.000Z</time>
      </trkpt>
      <trkpt lat="45.21594" lon="5.73122">
        <ele>1001.799987793</ele>
        <time>2021-07-11T05:58:15.000Z</time>
      </trkpt>
      <trkpt lat="45.21592" lon="5.73124">
        <ele>1001.4000244141</ele>
        <time>2021-07-11T05:58:17.000Z</time>
      </trkpt>
      <trkpt lat="45.21588" lon="5.73126">
        <ele>999.79998779297</ele>
        <time>2021-07-11T05:58:21.000Z</time>
      </trkpt>
      <trkpt lat="45.21587" lon="5.73127">
        <ele>999.59997558594</ele>
        <time>2021-07-11T05:58:22.000Z</time>
      </trkpt>
      <trkpt lat="45.21584" lon="5.73131">
        <ele>998.79998779297</ele>
        <time>2021-07-11T05:58:26.000Z</time>
      </trkpt>
      <trkpt lat="45.21584" lon="5.73132">
        <ele>997.59997558594</ele>
        <time>2021-07-11T05:58:27.000Z</time>
      </trkpt>
      <trkpt lat="45.21584" lon="5.73133">
        <ele>997.40002441406</ele>
        <time>2021-07-11T05:58:28.000Z</time>
      </trkpt>
      <trkpt lat="45.21583" lon="5.73134">
        <ele>997</ele>
        <time>2021-07-11T05:58:30.000Z</time>
      </trkpt>
      <trkpt lat="45.21583" lon="5.73135">
        <ele>996.40002441406</ele>
        <time>2021-07-11T05:58:31.000Z</time>
      </trkpt>
      <trkpt lat="45.21584" lon="5.73136">
        <ele>996.20001220703</ele>
        <time>2021-07-11T05:58:32.000Z</time>
      </trkpt>
      <trkpt lat="45.21585" lon="5.73137">
        <ele>996</ele>
        <time>2021-07-11T05:58:33.000Z</time>
      </trkpt>
      <trkpt lat="45.21582" lon="5.73142">
        <ele>994.59997558594</ele>
        <time>2021-07-11T05:58:36.000Z</time>
      </trkpt>
      <trkpt lat="45.2158" lon="5.73143">
        <ele>994</ele>
        <time>2021-07-11T05:58:38.000Z</time>
      </trkpt>
      <trkpt lat="45.21579" lon="5.73143">
        <ele>993.59997558594</ele>
        <time>2021-07-11T05:58:39.000Z</time>
      </trkpt>
      <trkpt lat="45.21577" lon="5.73145">
        <ele>992</ele>
        <time>2021-07-11T05:58:42.000Z</time>
      </trkpt>
      <trkpt lat="45.21576" lon="5.73146">
        <ele>991.79998779297</ele>
        <time>2021-07-11T05:58:43.000Z</time>
      </trkpt>
      <trkpt lat="45.21575" lon="5.73147">
        <ele>991.40002441406</ele>
        <time>2021-07-11T05:58:45.000Z</time>
      </trkpt>
      <trkpt lat="45.21574" lon="5.73147">
        <ele>990.79998779297</ele>
        <time>2021-07-11T05:58:46.000Z</time>
      </trkpt>
      <trkpt lat="45.21574" lon="5.7315">
        <ele>990</ele>
        <time>2021-07-11T05:58:49.000Z</time>
      </trkpt>
      <trkpt lat="45.21574" lon="5.73151">
        <ele>989.79998779297</ele>
        <time>2021-07-11T05:58:50.000Z</time>
      </trkpt>
      <trkpt lat="45.21575" lon="5.73153">
        <ele>988.59997558594</ele>
        <time>2021-07-11T05:58:53.000Z</time>
      </trkpt>
      <trkpt lat="45.21575" lon="5.73155">
        <ele>987.79998779297</ele>
        <time>2021-07-11T05:58:55.000Z</time>
      </trkpt>
      <trkpt lat="45.21573" lon="5.73156">
        <ele>987.40002441406</ele>
        <time>2021-07-11T05:58:57.000Z</time>
      </trkpt>
      <trkpt lat="45.21571" lon="5.73157">
        <ele>987</ele>
        <time>2021-07-11T05:59:00.000Z</time>
      </trkpt>
      <trkpt lat="45.2157" lon="5.73158">
        <ele>986.59997558594</ele>
        <time>2021-07-11T05:59:01.000Z</time>
      </trkpt>
      <trkpt lat="45.21569" lon="5.73159">
        <ele>986</ele>
        <time>2021-07-11T05:59:02.000Z</time>
      </trkpt>
      <trkpt lat="45.21568" lon="5.73161">
        <ele>984.40002441406</ele>
        <time>2021-07-11T05:59:04.000Z</time>
      </trkpt>
      <trkpt lat="45.21569" lon="5.73164">
        <ele>984.20001220703</ele>
        <time>2021-07-11T05:59:06.000Z</time>
      </trkpt>
      <trkpt lat="45.21569" lon="5.73165">
        <ele>984.20001220703</ele>
        <time>2021-07-11T05:59:07.000Z</time>
      </trkpt>
      <trkpt lat="45.21569" lon="5.73167">
        <ele>983.20001220703</ele>
        <time>2021-07-11T05:59:09.000Z</time>
      </trkpt>
      <trkpt lat="45.2157" lon="5.73167">
        <ele>982.59997558594</ele>
        <time>2021-07-11T05:59:11.000Z</time>
      </trkpt>
      <trkpt lat="45.2157" lon="5.73168">
        <ele>982.59997558594</ele>
        <time>2021-07-11T05:59:12.000Z</time>
      </trkpt>
      <trkpt lat="45.2157" lon="5.73171">
        <ele>982.20001220703</ele>
        <time>2021-07-11T05:59:15.000Z</time>
      </trkpt>
      <trkpt lat="45.2157" lon="5.73173">
        <ele>982</ele>
        <time>2021-07-11T05:59:16.000Z</time>
      </trkpt>
      <trkpt lat="45.21571" lon="5.73174">
        <ele>981.59997558594</ele>
        <time>2021-07-11T05:59:17.000Z</time>
      </trkpt>
      <trkpt lat="45.21573" lon="5.73176">
        <ele>980.59997558594</ele>
        <time>2021-07-11T05:59:19.000Z</time>
      </trkpt>
      <trkpt lat="45.21578" lon="5.7318">
        <ele>979.40002441406</ele>
        <time>2021-07-11T05:59:22.000Z</time>
      </trkpt>
      <trkpt lat="45.21582" lon="5.73186">
        <ele>978.40002441406</ele>
        <time>2021-07-11T05:59:25.000Z</time>
      </trkpt>
      <trkpt lat="45.21584" lon="5.73187">
        <ele>978.20001220703</ele>
        <time>2021-07-11T05:59:26.000Z</time>
      </trkpt>
      <trkpt lat="45.21587" lon="5.73188">
        <ele>977.59997558594</ele>
        <time>2021-07-11T05:59:27.000Z</time>
      </trkpt>
      <trkpt lat="45.21596" lon="5.73195">
        <ele>977</ele>
        <time>2021-07-11T05:59:29.000Z</time>
      </trkpt>
      <trkpt lat="45.21599" lon="5.73197">
        <ele>976.79998779297</ele>
        <time>2021-07-11T05:59:30.000Z</time>
      </trkpt>
      <trkpt lat="45.216" lon="5.73199">
        <ele>976.20001220703</ele>
        <time>2021-07-11T05:59:31.000Z</time>
      </trkpt>
      <trkpt lat="45.21602" lon="5.732">
        <ele>976</ele>
        <time>2021-07-11T05:59:32.000Z</time>
      </trkpt>
      <trkpt lat="45.21605" lon="5.73203">
        <ele>975.20001220703</ele>
        <time>2021-07-11T05:59:34.000Z</time>
      </trkpt>
      <trkpt lat="45.21607" lon="5.73207">
        <ele>974.79998779297</ele>
        <time>2021-07-11T05:59:36.000Z</time>
      </trkpt>
      <trkpt lat="45.21612" lon="5.73213">
        <ele>973.20001220703</ele>
        <time>2021-07-11T05:59:40.000Z</time>
      </trkpt>
      <trkpt lat="45.21612" lon="5.73215">
        <ele>973.20001220703</ele>
        <time>2021-07-11T05:59:41.000Z</time>
      </trkpt>
      <trkpt lat="45.2161" lon="5.73221">
        <ele>972.59997558594</ele>
        <time>2021-07-11T05:59:43.000Z</time>
      </trkpt>
      <trkpt lat="45.21611" lon="5.73225">
        <ele>972</ele>
        <time>2021-07-11T05:59:45.000Z</time>
      </trkpt>
      <trkpt lat="45.21612" lon="5.73229">
        <ele>971.20001220703</ele>
        <time>2021-07-11T05:59:47.000Z</time>
      </trkpt>
      <trkpt lat="45.21613" lon="5.7323">
        <ele>970.59997558594</ele>
        <time>2021-07-11T05:59:48.000Z</time>
      </trkpt>
      <trkpt lat="45.21614" lon="5.73232">
        <ele>969.79998779297</ele>
        <time>2021-07-11T05:59:51.000Z</time>
      </trkpt>
      <trkpt lat="45.21614" lon="5.73233">
        <ele>969.40002441406</ele>
        <time>2021-07-11T05:59:52.000Z</time>
      </trkpt>
      <trkpt lat="45.21615" lon="5.73234">
        <ele>968.59997558594</ele>
        <time>2021-07-11T05:59:53.000Z</time>
      </trkpt>
      <trkpt lat="45.21618" lon="5.73237">
        <ele>968</ele>
        <time>2021-07-11T05:59:56.000Z</time>
      </trkpt>
      <trkpt lat="45.2162" lon="5.7324">
        <ele>967</ele>
        <time>2021-07-11T05:59:58.000Z</time>
      </trkpt>
      <trkpt lat="45.21621" lon="5.73241">
        <ele>967</ele>
        <time>2021-07-11T05:59:59.000Z</time>
      </trkpt>
      <trkpt lat="45.21622" lon="5.73243">
        <ele>966.79998779297</ele>
        <time>2021-07-11T06:00:00.000Z</time>
      </trkpt>
      <trkpt lat="45.21624" lon="5.73247">
        <ele>966</ele>
        <time>2021-07-11T06:00:02.000Z</time>
      </trkpt>
      <trkpt lat="45.21628" lon="5.73254">
        <ele>965.40002441406</ele>
        <time>2021-07-11T06:00:05.000Z</time>
      </trkpt>
      <trkpt lat="45.21631" lon="5.73258">
        <ele>964.20001220703</ele>
        <time>2021-07-11T06:00:07.000Z</time>
      </trkpt>
      <trkpt lat="45.21632" lon="5.73259">
        <ele>964.20001220703</ele>
        <time>2021-07-11T06:00:08.000Z</time>
      </trkpt>
      <trkpt lat="45.21636" lon="5.73266">
        <ele>963.40002441406</ele>
        <time>2021-07-11T06:00:11.000Z</time>
      </trkpt>
      <trkpt lat="45.21636" lon="5.73268">
        <ele>963.20001220703</ele>
        <time>2021-07-11T06:00:12.000Z</time>
      </trkpt>
      <trkpt lat="45.21641" lon="5.73274">
        <ele>962.59997558594</ele>
        <time>2021-07-11T06:00:15.000Z</time>
      </trkpt>
      <trkpt lat="45.21645" lon="5.73281">
        <ele>962</ele>
        <time>2021-07-11T06:00:18.000Z</time>
      </trkpt>
      <trkpt lat="45.21646" lon="5.73284">
        <ele>960.79998779297</ele>
        <time>2021-07-11T06:00:19.000Z</time>
      </trkpt>
      <trkpt lat="45.21648" lon="5.73293">
        <ele>960</ele>
        <time>2021-07-11T06:00:23.000Z</time>
      </trkpt>
      <trkpt lat="45.21648" lon="5.73297">
        <ele>959.59997558594</ele>
        <time>2021-07-11T06:00:25.000Z</time>
      </trkpt>
      <trkpt lat="45.21648" lon="5.73301">
        <ele>958.59997558594</ele>
        <time>2021-07-11T06:00:27.000Z</time>
      </trkpt>
      <trkpt lat="45.21647" lon="5.73302">
        <ele>958.40002441406</ele>
        <time>2021-07-11T06:00:28.000Z</time>
      </trkpt>
      <trkpt lat="45.21645" lon="5.73304">
        <ele>958.40002441406</ele>
        <time>2021-07-11T06:00:29.000Z</time>
      </trkpt>
      <trkpt lat="45.21643" lon="5.73305">
        <ele>957.79998779297</ele>
        <time>2021-07-11T06:00:30.000Z</time>
      </trkpt>
      <trkpt lat="45.21642" lon="5.73307">
        <ele>957.40002441406</ele>
        <time>2021-07-11T06:00:31.000Z</time>
      </trkpt>
      <trkpt lat="45.21643" lon="5.73309">
        <ele>956.79998779297</ele>
        <time>2021-07-11T06:00:32.000Z</time>
      </trkpt>
      <trkpt lat="45.21644" lon="5.73313">
        <ele>956.40002441406</ele>
        <time>2021-07-11T06:00:35.000Z</time>
      </trkpt>
      <trkpt lat="45.21646" lon="5.73317">
        <ele>956</ele>
        <time>2021-07-11T06:00:37.000Z</time>
      </trkpt>
      <trkpt lat="45.21646" lon="5.73319">
        <ele>954.79998779297</ele>
        <time>2021-07-11T06:00:38.000Z</time>
      </trkpt>
      <trkpt lat="45.21648" lon="5.73324">
        <ele>953.79998779297</ele>
        <time>2021-07-11T06:00:41.000Z</time>
      </trkpt>
      <trkpt lat="45.21649" lon="5.73331">
        <ele>952.40002441406</ele>
        <time>2021-07-11T06:00:44.000Z</time>
      </trkpt>
      <trkpt lat="45.2165" lon="5.73335">
        <ele>951.59997558594</ele>
        <time>2021-07-11T06:00:46.000Z</time>
      </trkpt>
      <trkpt lat="45.21651" lon="5.73337">
        <ele>951.20001220703</ele>
        <time>2021-07-11T06:00:47.000Z</time>
      </trkpt>
      <trkpt lat="45.21654" lon="5.7334">
        <ele>950.79998779297</ele>
        <time>2021-07-11T06:00:49.000Z</time>
      </trkpt>
      <trkpt lat="45.21655" lon="5.73346">
        <ele>950</ele>
        <time>2021-07-11T06:00:51.000Z</time>
      </trkpt>
      <trkpt lat="45.21656" lon="5.73348">
        <ele>949.59997558594</ele>
        <time>2021-07-11T06:00:52.000Z</time>
      </trkpt>
      <trkpt lat="45.21656" lon="5.73354">
        <ele>949.20001220703</ele>
        <time>2021-07-11T06:00:55.000Z</time>
      </trkpt>
      <trkpt lat="45.21657" lon="5.73358">
        <ele>947.40002441406</ele>
        <time>2021-07-11T06:00:57.000Z</time>
      </trkpt>
      <trkpt lat="45.2166" lon="5.73363">
        <ele>946.40002441406</ele>
        <time>2021-07-11T06:01:00.000Z</time>
      </trkpt>
      <trkpt lat="45.21661" lon="5.73369">
        <ele>946</ele>
        <time>2021-07-11T06:01:02.000Z</time>
      </trkpt>
      <trkpt lat="45.21662" lon="5.73371">
        <ele>945.79998779297</ele>
        <time>2021-07-11T06:01:03.000Z</time>
      </trkpt>
      <trkpt lat="45.21663" lon="5.73374">
        <ele>945</ele>
        <time>2021-07-11T06:01:05.000Z</time>
      </trkpt>
      <trkpt lat="45.21664" lon="5.73376">
        <ele>943.79998779297</ele>
        <time>2021-07-11T06:01:06.000Z</time>
      </trkpt>
      <trkpt lat="45.21664" lon="5.73378">
        <ele>943.59997558594</ele>
        <time>2021-07-11T06:01:07.000Z</time>
      </trkpt>
      <trkpt lat="45.21665" lon="5.73379">
        <ele>943.40002441406</ele>
        <time>2021-07-11T06:01:08.000Z</time>
      </trkpt>
      <trkpt lat="45.21666" lon="5.73384">
        <ele>942.59997558594</ele>
        <time>2021-07-11T06:01:10.000Z</time>
      </trkpt>
      <trkpt lat="45.21667" lon="5.73391">
        <ele>941.79998779297</ele>
        <time>2021-07-11T06:01:13.000Z</time>
      </trkpt>
      <trkpt lat="45.21667" lon="5.73393">
        <ele>941.40002441406</ele>
        <time>2021-07-11T06:01:14.000Z</time>
      </trkpt>
      <trkpt lat="45.21665" lon="5.73399">
        <ele>940.59997558594</ele>
        <time>2021-07-11T06:01:16.000Z</time>
      </trkpt>
      <trkpt lat="45.21666" lon="5.73402">
        <ele>939.79998779297</ele>
        <time>2021-07-11T06:01:17.000Z</time>
      </trkpt>
      <trkpt lat="45.21669" lon="5.73414">
        <ele>938.59997558594</ele>
        <time>2021-07-11T06:01:21.000Z</time>
      </trkpt>
      <trkpt lat="45.2167" lon="5.73417">
        <ele>937.59997558594</ele>
        <time>2021-07-11T06:01:22.000Z</time>
      </trkpt>
      <trkpt lat="45.21672" lon="5.73427">
        <ele>937</ele>
        <time>2021-07-11T06:01:24.000Z</time>
      </trkpt>
      <trkpt lat="45.21671" lon="5.73434">
        <ele>936.40002441406</ele>
        <time>2021-07-11T06:01:26.000Z</time>
      </trkpt>
      <trkpt lat="45.21672" lon="5.73441">
        <ele>935.40002441406</ele>
        <time>2021-07-11T06:01:29.000Z</time>
      </trkpt>
      <trkpt lat="45.21673" lon="5.73443">
        <ele>935.20001220703</ele>
        <time>2021-07-11T06:01:30.000Z</time>
      </trkpt>
      <trkpt lat="45.21672" lon="5.73448">
        <ele>934</ele>
        <time>2021-07-11T06:01:32.000Z</time>
      </trkpt>
      <trkpt lat="45.21672" lon="5.73451">
        <ele>934</ele>
        <time>2021-07-11T06:01:33.000Z</time>
      </trkpt>
      <trkpt lat="45.21674" lon="5.73458">
        <ele>933</ele>
        <time>2021-07-11T06:01:35.000Z</time>
      </trkpt>
      <trkpt lat="45.21675" lon="5.73469">
        <ele>931.20001220703</ele>
        <time>2021-07-11T06:01:39.000Z</time>
      </trkpt>
      <trkpt lat="45.21675" lon="5.73476">
        <ele>930.79998779297</ele>
        <time>2021-07-11T06:01:43.000Z</time>
      </trkpt>
      <trkpt lat="45.21675" lon="5.73477">
        <ele>930.59997558594</ele>
        <time>2021-07-11T06:01:44.000Z</time>
      </trkpt>
      <trkpt lat="45.21675" lon="5.73478">
        <ele>930.20001220703</ele>
        <time>2021-07-11T06:01:45.000Z</time>
      </trkpt>
      <trkpt lat="45.21675" lon="5.7348">
        <ele>930</ele>
        <time>2021-07-11T06:01:46.000Z</time>
      </trkpt>
      <trkpt lat="45.21677" lon="5.73484">
        <ele>929.40002441406</ele>
        <time>2021-07-11T06:01:48.000Z</time>
      </trkpt>
      <trkpt lat="45.21679" lon="5.73485">
        <ele>929.40002441406</ele>
        <time>2021-07-11T06:01:49.000Z</time>
      </trkpt>
      <trkpt lat="45.21688" lon="5.7349">
        <ele>929.59997558594</ele>
        <time>2021-07-11T06:01:55.000Z</time>
      </trkpt>
      <trkpt lat="45.2169" lon="5.73489">
        <ele>930</ele>
        <time>2021-07-11T06:01:57.000Z</time>
      </trkpt>
      <trkpt lat="45.21693" lon="5.7349">
        <ele>930.20001220703</ele>
        <time>2021-07-11T06:01:59.000Z</time>
      </trkpt>
      <trkpt lat="45.21696" lon="5.73492">
        <ele>930.40002441406</ele>
        <time>2021-07-11T06:02:01.000Z</time>
      </trkpt>
      <trkpt lat="45.21702" lon="5.73494">
        <ele>930.79998779297</ele>
        <time>2021-07-11T06:02:04.000Z</time>
      </trkpt>
      <trkpt lat="45.21705" lon="5.73494">
        <ele>931.40002441406</ele>
        <time>2021-07-11T06:02:06.000Z</time>
      </trkpt>
      <trkpt lat="45.21708" lon="5.73495">
        <ele>931.40002441406</ele>
        <time>2021-07-11T06:02:08.000Z</time>
      </trkpt>
      <trkpt lat="45.21714" lon="5.73494">
        <ele>931.40002441406</ele>
        <time>2021-07-11T06:02:10.000Z</time>
      </trkpt>
      <trkpt lat="45.21719" lon="5.73494">
        <ele>931.40002441406</ele>
        <time>2021-07-11T06:02:12.000Z</time>
      </trkpt>
      <trkpt lat="45.21727" lon="5.735">
        <ele>931.59997558594</ele>
        <time>2021-07-11T06:02:16.000Z</time>
      </trkpt>
      <trkpt lat="45.21728" lon="5.735">
        <ele>931.59997558594</ele>
        <time>2021-07-11T06:02:17.000Z</time>
      </trkpt>
      <trkpt lat="45.21731" lon="5.73502">
        <ele>931.59997558594</ele>
        <time>2021-07-11T06:02:20.000Z</time>
      </trkpt>
      <trkpt lat="45.21733" lon="5.73503">
        <ele>931.40002441406</ele>
        <time>2021-07-11T06:02:22.000Z</time>
      </trkpt>
      <trkpt lat="45.21736" lon="5.73505">
        <ele>931.40002441406</ele>
        <time>2021-07-11T06:02:25.000Z</time>
      </trkpt>
      <trkpt lat="45.21738" lon="5.73508">
        <ele>931.79998779297</ele>
        <time>2021-07-11T06:02:27.000Z</time>
      </trkpt>
      <trkpt lat="45.2174" lon="5.73509">
        <ele>931.79998779297</ele>
        <time>2021-07-11T06:02:28.000Z</time>
      </trkpt>
      <trkpt lat="45.21752" lon="5.73513">
        <ele>933</ele>
        <time>2021-07-11T06:02:32.000Z</time>
      </trkpt>
      <trkpt lat="45.21756" lon="5.73516">
        <ele>932.59997558594</ele>
        <time>2021-07-11T06:02:34.000Z</time>
      </trkpt>
      <trkpt lat="45.21759" lon="5.73519">
        <ele>932.20001220703</ele>
        <time>2021-07-11T06:02:36.000Z</time>
      </trkpt>
      <trkpt lat="45.21763" lon="5.73521">
        <ele>931.59997558594</ele>
        <time>2021-07-11T06:02:38.000Z</time>
      </trkpt>
      <trkpt lat="45.21766" lon="5.73522">
        <ele>931.40002441406</ele>
        <time>2021-07-11T06:02:39.000Z</time>
      </trkpt>
      <trkpt lat="45.21768" lon="5.73524">
        <ele>931.40002441406</ele>
        <time>2021-07-11T06:02:40.000Z</time>
      </trkpt>
      <trkpt lat="45.21774" lon="5.73527">
        <ele>930.59997558594</ele>
        <time>2021-07-11T06:02:43.000Z</time>
      </trkpt>
      <trkpt lat="45.2178" lon="5.73535">
        <ele>929.40002441406</ele>
        <time>2021-07-11T06:02:47.000Z</time>
      </trkpt>
      <trkpt lat="45.21784" lon="5.7354">
        <ele>927.40002441406</ele>
        <time>2021-07-11T06:02:49.000Z</time>
      </trkpt>
      <trkpt lat="45.21795" lon="5.7355">
        <ele>926.40002441406</ele>
        <time>2021-07-11T06:02:53.000Z</time>
      </trkpt>
      <trkpt lat="45.21804" lon="5.73562">
        <ele>925.20001220703</ele>
        <time>2021-07-11T06:02:58.000Z</time>
      </trkpt>
      <trkpt lat="45.21806" lon="5.73564">
        <ele>924.20001220703</ele>
        <time>2021-07-11T06:02:59.000Z</time>
      </trkpt>
      <trkpt lat="45.21813" lon="5.73571">
        <ele>922.79998779297</ele>
        <time>2021-07-11T06:03:03.000Z</time>
      </trkpt>
      <trkpt lat="45.2182" lon="5.73575">
        <ele>921.79998779297</ele>
        <time>2021-07-11T06:03:06.000Z</time>
      </trkpt>
      <trkpt lat="45.21827" lon="5.73582">
        <ele>920.59997558594</ele>
        <time>2021-07-11T06:03:09.000Z</time>
      </trkpt>
      <trkpt lat="45.21832" lon="5.73591">
        <ele>919.40002441406</ele>
        <time>2021-07-11T06:03:13.000Z</time>
      </trkpt>
      <trkpt lat="45.21834" lon="5.73593">
        <ele>918.79998779297</ele>
        <time>2021-07-11T06:03:14.000Z</time>
      </trkpt>
      <trkpt lat="45.21842" lon="5.73602">
        <ele>918.40002441406</ele>
        <time>2021-07-11T06:03:17.000Z</time>
      </trkpt>
      <trkpt lat="45.21847" lon="5.73608">
        <ele>918.20001220703</ele>
        <time>2021-07-11T06:03:19.000Z</time>
      </trkpt>
      <trkpt lat="45.21852" lon="5.73616">
        <ele>918</ele>
        <time>2021-07-11T06:03:22.000Z</time>
      </trkpt>
      <trkpt lat="45.21851" lon="5.73618">
        <ele>917.40002441406</ele>
        <time>2021-07-11T06:03:23.000Z</time>
      </trkpt>
      <trkpt lat="45.21845" lon="5.73618">
        <ele>917.20001220703</ele>
        <time>2021-07-11T06:03:26.000Z</time>
      </trkpt>
      <trkpt lat="45.21843" lon="5.73618">
        <ele>917</ele>
        <time>2021-07-11T06:03:27.000Z</time>
      </trkpt>
      <trkpt lat="45.21838" lon="5.73617">
        <ele>916.40002441406</ele>
        <time>2021-07-11T06:03:30.000Z</time>
      </trkpt>
      <trkpt lat="45.21837" lon="5.73616">
        <ele>916.40002441406</ele>
        <time>2021-07-11T06:03:31.000Z</time>
      </trkpt>
      <trkpt lat="45.21835" lon="5.73614">
        <ele>916</ele>
        <time>2021-07-11T06:03:32.000Z</time>
      </trkpt>
      <trkpt lat="45.21828" lon="5.73609">
        <ele>915</ele>
        <time>2021-07-11T06:03:36.000Z</time>
      </trkpt>
      <trkpt lat="45.21826" lon="5.73609">
        <ele>914.79998779297</ele>
        <time>2021-07-11T06:03:37.000Z</time>
      </trkpt>
      <trkpt lat="45.21818" lon="5.73608">
        <ele>914.59997558594</ele>
        <time>2021-07-11T06:03:41.000Z</time>
      </trkpt>
      <trkpt lat="45.21816" lon="5.73607">
        <ele>914.20001220703</ele>
        <time>2021-07-11T06:03:42.000Z</time>
      </trkpt>
      <trkpt lat="45.21809" lon="5.73603">
        <ele>913.79998779297</ele>
        <time>2021-07-11T06:03:45.000Z</time>
      </trkpt>
      <trkpt lat="45.21801" lon="5.73597">
        <ele>913.59997558594</ele>
        <time>2021-07-11T06:03:49.000Z</time>
      </trkpt>
      <trkpt lat="45.21797" lon="5.73595">
        <ele>913.59997558594</ele>
        <time>2021-07-11T06:03:51.000Z</time>
      </trkpt>
      <trkpt lat="45.21794" lon="5.73592">
        <ele>913.59997558594</ele>
        <time>2021-07-11T06:03:53.000Z</time>
      </trkpt>
      <trkpt lat="45.21781" lon="5.73577">
        <ele>914.59997558594</ele>
        <time>2021-07-11T06:03:59.000Z</time>
      </trkpt>
      <trkpt lat="45.2178" lon="5.73575">
        <ele>914.59997558594</ele>
        <time>2021-07-11T06:04:00.000Z</time>
      </trkpt>
      <trkpt lat="45.21776" lon="5.73571">
        <ele>914.40002441406</ele>
        <time>2021-07-11T06:04:04.000Z</time>
      </trkpt>
      <trkpt lat="45.21775" lon="5.73571">
        <ele>914.40002441406</ele>
        <time>2021-07-11T06:04:05.000Z</time>
      </trkpt>
      <trkpt lat="45.21768" lon="5.73571">
        <ele>914.40002441406</ele>
        <time>2021-07-11T06:04:11.000Z</time>
      </trkpt>
      <trkpt lat="45.21771" lon="5.7357">
        <ele>914.40002441406</ele>
        <time>2021-07-11T06:04:15.000Z</time>
      </trkpt>
      <trkpt lat="45.21776" lon="5.73565">
        <ele>914.20001220703</ele>
        <time>2021-07-11T06:04:20.000Z</time>
      </trkpt>
      <trkpt lat="45.21775" lon="5.73562">
        <ele>914.40002441406</ele>
        <time>2021-07-11T06:04:24.000Z</time>
      </trkpt>
      <trkpt lat="45.21771" lon="5.73559">
        <ele>914.79998779297</ele>
        <time>2021-07-11T06:04:27.000Z</time>
      </trkpt>
      <trkpt lat="45.21766" lon="5.73556">
        <ele>915.40002441406</ele>
        <time>2021-07-11T06:04:30.000Z</time>
      </trkpt>
      <trkpt lat="45.21761" lon="5.73553">
        <ele>916</ele>
        <time>2021-07-11T06:04:35.000Z</time>
      </trkpt>
      <trkpt lat="45.2176" lon="5.73552">
        <ele>916.59997558594</ele>
        <time>2021-07-11T06:04:36.000Z</time>
      </trkpt>
      <trkpt lat="45.21758" lon="5.7355">
        <ele>916.59997558594</ele>
        <time>2021-07-11T06:04:37.000Z</time>
      </trkpt>
      <trkpt lat="45.21755" lon="5.7355">
        <ele>917.20001220703</ele>
        <time>2021-07-11T06:04:40.000Z</time>
      </trkpt>
      <trkpt lat="45.21752" lon="5.7355">
        <ele>917.79998779297</ele>
        <time>2021-07-11T06:04:42.000Z</time>
      </trkpt>
      <trkpt lat="45.21744" lon="5.73551">
        <ele>918.40002441406</ele>
        <time>2021-07-11T06:04:47.000Z</time>
      </trkpt>
      <trkpt lat="45.21742" lon="5.73552">
        <ele>918.40002441406</ele>
        <time>2021-07-11T06:04:48.000Z</time>
      </trkpt>
      <trkpt lat="45.21737" lon="5.73553">
        <ele>918</ele>
        <time>2021-07-11T06:04:51.000Z</time>
      </trkpt>
      <trkpt lat="45.21735" lon="5.73554">
        <ele>918</ele>
        <time>2021-07-11T06:04:52.000Z</time>
      </trkpt>
      <trkpt lat="45.21731" lon="5.73552">
        <ele>918</ele>
        <time>2021-07-11T06:04:55.000Z</time>
      </trkpt>
      <trkpt lat="45.21729" lon="5.73549">
        <ele>918.20001220703</ele>
        <time>2021-07-11T06:04:57.000Z</time>
      </trkpt>
      <trkpt lat="45.21726" lon="5.73544">
        <ele>917.20001220703</ele>
        <time>2021-07-11T06:05:00.000Z</time>
      </trkpt>
      <trkpt lat="45.21723" lon="5.73542">
        <ele>917.20001220703</ele>
        <time>2021-07-11T06:05:02.000Z</time>
      </trkpt>
      <trkpt lat="45.21714" lon="5.73539">
        <ele>918.40002441406</ele>
        <time>2021-07-11T06:05:08.000Z</time>
      </trkpt>
      <trkpt lat="45.21709" lon="5.73534">
        <ele>919</ele>
        <time>2021-07-11T06:05:11.000Z</time>
      </trkpt>
      <trkpt lat="45.21704" lon="5.7353">
        <ele>920</ele>
        <time>2021-07-11T06:05:15.000Z</time>
      </trkpt>
      <trkpt lat="45.21703" lon="5.73528">
        <ele>920</ele>
        <time>2021-07-11T06:05:16.000Z</time>
      </trkpt>
      <trkpt lat="45.21702" lon="5.73528">
        <ele>920</ele>
        <time>2021-07-11T06:05:17.000Z</time>
      </trkpt>
      <trkpt lat="45.217" lon="5.73526">
        <ele>921</ele>
        <time>2021-07-11T06:05:19.000Z</time>
      </trkpt>
      <trkpt lat="45.21699" lon="5.73524">
        <ele>921.40002441406</ele>
        <time>2021-07-11T06:05:20.000Z</time>
      </trkpt>
      <trkpt lat="45.21698" lon="5.73523">
        <ele>921.40002441406</ele>
        <time>2021-07-11T06:05:21.000Z</time>
      </trkpt>
      <trkpt lat="45.21698" lon="5.73522">
        <ele>921.79998779297</ele>
        <time>2021-07-11T06:05:22.000Z</time>
      </trkpt>
      <trkpt lat="45.21695" lon="5.7352">
        <ele>922.59997558594</ele>
        <time>2021-07-11T06:05:24.000Z</time>
      </trkpt>
      <trkpt lat="45.21693" lon="5.73518">
        <ele>923.20001220703</ele>
        <time>2021-07-11T06:05:26.000Z</time>
      </trkpt>
      <trkpt lat="45.21691" lon="5.73517">
        <ele>924</ele>
        <time>2021-07-11T06:05:29.000Z</time>
      </trkpt>
      <trkpt lat="45.21689" lon="5.73515">
        <ele>924.40002441406</ele>
        <time>2021-07-11T06:05:31.000Z</time>
      </trkpt>
      <trkpt lat="45.21687" lon="5.73513">
        <ele>925</ele>
        <time>2021-07-11T06:05:33.000Z</time>
      </trkpt>
      <trkpt lat="45.21684" lon="5.73512">
        <ele>925.20001220703</ele>
        <time>2021-07-11T06:05:35.000Z</time>
      </trkpt>
      <trkpt lat="45.21682" lon="5.73511">
        <ele>926</ele>
        <time>2021-07-11T06:05:37.000Z</time>
      </trkpt>
      <trkpt lat="45.21681" lon="5.7351">
        <ele>926.20001220703</ele>
        <time>2021-07-11T06:05:39.000Z</time>
      </trkpt>
      <trkpt lat="45.2168" lon="5.73509">
        <ele>926.40002441406</ele>
        <time>2021-07-11T06:05:40.000Z</time>
      </trkpt>
      <trkpt lat="45.21677" lon="5.73503">
        <ele>927</ele>
        <time>2021-07-11T06:05:44.000Z</time>
      </trkpt>
      <trkpt lat="45.21677" lon="5.73502">
        <ele>927.20001220703</ele>
        <time>2021-07-11T06:05:45.000Z</time>
      </trkpt>
      <trkpt lat="45.21676" lon="5.73496">
        <ele>928</ele>
        <time>2021-07-11T06:05:48.000Z</time>
      </trkpt>
      <trkpt lat="45.21675" lon="5.73493">
        <ele>928</ele>
        <time>2021-07-11T06:05:49.000Z</time>
      </trkpt>
      <trkpt lat="45.21669" lon="5.73479">
        <ele>927.59997558594</ele>
        <time>2021-07-11T06:05:53.000Z</time>
      </trkpt>
      <trkpt lat="45.21668" lon="5.7347">
        <ele>926.79998779297</ele>
        <time>2021-07-11T06:05:55.000Z</time>
      </trkpt>
      <trkpt lat="45.21666" lon="5.73466">
        <ele>926.59997558594</ele>
        <time>2021-07-11T06:05:56.000Z</time>
      </trkpt>
      <trkpt lat="45.21665" lon="5.73463">
        <ele>926.59997558594</ele>
        <time>2021-07-11T06:05:57.000Z</time>
      </trkpt>
      <trkpt lat="45.21664" lon="5.7346">
        <ele>926.20001220703</ele>
        <time>2021-07-11T06:05:58.000Z</time>
      </trkpt>
      <trkpt lat="45.21663" lon="5.73458">
        <ele>926</ele>
        <time>2021-07-11T06:05:59.000Z</time>
      </trkpt>
      <trkpt lat="45.21662" lon="5.73454">
        <ele>925.79998779297</ele>
        <time>2021-07-11T06:06:00.000Z</time>
      </trkpt>
      <trkpt lat="45.2166" lon="5.73446">
        <ele>925</ele>
        <time>2021-07-11T06:06:02.000Z</time>
      </trkpt>
      <trkpt lat="45.21657" lon="5.73435">
        <ele>924</ele>
        <time>2021-07-11T06:06:05.000Z</time>
      </trkpt>
      <trkpt lat="45.21651" lon="5.73426">
        <ele>923.59997558594</ele>
        <time>2021-07-11T06:06:08.000Z</time>
      </trkpt>
      <trkpt lat="45.21639" lon="5.7341">
        <ele>922.79998779297</ele>
        <time>2021-07-11T06:06:14.000Z</time>
      </trkpt>
      <trkpt lat="45.21635" lon="5.73405">
        <ele>922.20001220703</ele>
        <time>2021-07-11T06:06:16.000Z</time>
      </trkpt>
      <trkpt lat="45.21629" lon="5.734">
        <ele>921.40002441406</ele>
        <time>2021-07-11T06:06:19.000Z</time>
      </trkpt>
      <trkpt lat="45.21624" lon="5.73395">
        <ele>920.20001220703</ele>
        <time>2021-07-11T06:06:22.000Z</time>
      </trkpt>
      <trkpt lat="45.21619" lon="5.73388">
        <ele>919.40002441406</ele>
        <time>2021-07-11T06:06:25.000Z</time>
      </trkpt>
      <trkpt lat="45.21617" lon="5.73388">
        <ele>919</ele>
        <time>2021-07-11T06:06:26.000Z</time>
      </trkpt>
      <trkpt lat="45.21614" lon="5.73387">
        <ele>918.79998779297</ele>
        <time>2021-07-11T06:06:28.000Z</time>
      </trkpt>
      <trkpt lat="45.21611" lon="5.73384">
        <ele>918.20001220703</ele>
        <time>2021-07-11T06:06:30.000Z</time>
      </trkpt>
      <trkpt lat="45.21609" lon="5.73382">
        <ele>918</ele>
        <time>2021-07-11T06:06:31.000Z</time>
      </trkpt>
      <trkpt lat="45.21604" lon="5.73377">
        <ele>916.79998779297</ele>
        <time>2021-07-11T06:06:34.000Z</time>
      </trkpt>
      <trkpt lat="45.21602" lon="5.73373">
        <ele>916.40002441406</ele>
        <time>2021-07-11T06:06:36.000Z</time>
      </trkpt>
      <trkpt lat="45.216" lon="5.73369">
        <ele>915.59997558594</ele>
        <time>2021-07-11T06:06:38.000Z</time>
      </trkpt>
      <trkpt lat="45.21597" lon="5.73366">
        <ele>914.59997558594</ele>
        <time>2021-07-11T06:06:40.000Z</time>
      </trkpt>
      <trkpt lat="45.21595" lon="5.73363">
        <ele>914.20001220703</ele>
        <time>2021-07-11T06:06:41.000Z</time>
      </trkpt>
      <trkpt lat="45.21594" lon="5.73362">
        <ele>914.20001220703</ele>
        <time>2021-07-11T06:06:42.000Z</time>
      </trkpt>
      <trkpt lat="45.21591" lon="5.73358">
        <ele>913.20001220703</ele>
        <time>2021-07-11T06:06:44.000Z</time>
      </trkpt>
      <trkpt lat="45.21589" lon="5.73357">
        <ele>913</ele>
        <time>2021-07-11T06:06:45.000Z</time>
      </trkpt>
      <trkpt lat="45.21588" lon="5.73356">
        <ele>912.79998779297</ele>
        <time>2021-07-11T06:06:46.000Z</time>
      </trkpt>
      <trkpt lat="45.21582" lon="5.73355">
        <ele>911.59997558594</ele>
        <time>2021-07-11T06:06:49.000Z</time>
      </trkpt>
      <trkpt lat="45.21579" lon="5.73352">
        <ele>911</ele>
        <time>2021-07-11T06:06:51.000Z</time>
      </trkpt>
      <trkpt lat="45.21578" lon="5.73351">
        <ele>910.40002441406</ele>
        <time>2021-07-11T06:06:52.000Z</time>
      </trkpt>
      <trkpt lat="45.2157" lon="5.73348">
        <ele>909.40002441406</ele>
        <time>2021-07-11T06:06:56.000Z</time>
      </trkpt>
      <trkpt lat="45.21568" lon="5.73346">
        <ele>909</ele>
        <time>2021-07-11T06:06:57.000Z</time>
      </trkpt>
      <trkpt lat="45.21561" lon="5.73339">
        <ele>908.20001220703</ele>
        <time>2021-07-11T06:07:01.000Z</time>
      </trkpt>
      <trkpt lat="45.21553" lon="5.73336">
        <ele>907.20001220703</ele>
        <time>2021-07-11T06:07:05.000Z</time>
      </trkpt>
      <trkpt lat="45.21551" lon="5.73335">
        <ele>906</ele>
        <time>2021-07-11T06:07:06.000Z</time>
      </trkpt>
      <trkpt lat="45.21547" lon="5.73335">
        <ele>905.79998779297</ele>
        <time>2021-07-11T06:07:08.000Z</time>
      </trkpt>
      <trkpt lat="45.21539" lon="5.73335">
        <ele>904.59997558594</ele>
        <time>2021-07-11T06:07:12.000Z</time>
      </trkpt>
      <trkpt lat="45.21531" lon="5.73333">
        <ele>903.59997558594</ele>
        <time>2021-07-11T06:07:16.000Z</time>
      </trkpt>
      <trkpt lat="45.21526" lon="5.73332">
        <ele>902.59997558594</ele>
        <time>2021-07-11T06:07:18.000Z</time>
      </trkpt>
      <trkpt lat="45.2152" lon="5.73329">
        <ele>901.59997558594</ele>
        <time>2021-07-11T06:07:21.000Z</time>
      </trkpt>
      <trkpt lat="45.21517" lon="5.73324">
        <ele>901.40002441406</ele>
        <time>2021-07-11T06:07:24.000Z</time>
      </trkpt>
      <trkpt lat="45.21516" lon="5.73319">
        <ele>900.20001220703</ele>
        <time>2021-07-11T06:07:27.000Z</time>
      </trkpt>
      <trkpt lat="45.21514" lon="5.73304">
        <ele>899.59997558594</ele>
        <time>2021-07-11T06:07:32.000Z</time>
      </trkpt>
      <trkpt lat="45.21512" lon="5.73284">
        <ele>899.40002441406</ele>
        <time>2021-07-11T06:07:37.000Z</time>
      </trkpt>
      <trkpt lat="45.2151" lon="5.73276">
        <ele>899.40002441406</ele>
        <time>2021-07-11T06:07:40.000Z</time>
      </trkpt>
      <trkpt lat="45.21507" lon="5.73271">
        <ele>899.40002441406</ele>
        <time>2021-07-11T06:07:42.000Z</time>
      </trkpt>
      <trkpt lat="45.21505" lon="5.73268">
        <ele>899</ele>
        <time>2021-07-11T06:07:43.000Z</time>
      </trkpt>
      <trkpt lat="45.21497" lon="5.73258">
        <ele>897.59997558594</ele>
        <time>2021-07-11T06:07:48.000Z</time>
      </trkpt>
      <trkpt lat="45.21492" lon="5.73253">
        <ele>895.79998779297</ele>
        <time>2021-07-11T06:07:51.000Z</time>
      </trkpt>
      <trkpt lat="45.21485" lon="5.73244">
        <ele>894.40002441406</ele>
        <time>2021-07-11T06:07:57.000Z</time>
      </trkpt>
      <trkpt lat="45.21483" lon="5.73241">
        <ele>893.40002441406</ele>
        <time>2021-07-11T06:07:58.000Z</time>
      </trkpt>
      <trkpt lat="45.21475" lon="5.73227">
        <ele>892.40002441406</ele>
        <time>2021-07-11T06:08:03.000Z</time>
      </trkpt>
      <trkpt lat="45.21474" lon="5.73222">
        <ele>892.20001220703</ele>
        <time>2021-07-11T06:08:05.000Z</time>
      </trkpt>
      <trkpt lat="45.21474" lon="5.7321">
        <ele>892.20001220703</ele>
        <time>2021-07-11T06:08:08.000Z</time>
      </trkpt>
      <trkpt lat="45.21473" lon="5.73205">
        <ele>891</ele>
        <time>2021-07-11T06:08:11.000Z</time>
      </trkpt>
      <trkpt lat="45.2147" lon="5.73198">
        <ele>890.20001220703</ele>
        <time>2021-07-11T06:08:15.000Z</time>
      </trkpt>
      <trkpt lat="45.21469" lon="5.73196">
        <ele>889.59997558594</ele>
        <time>2021-07-11T06:08:16.000Z</time>
      </trkpt>
      <trkpt lat="45.21468" lon="5.73195">
        <ele>889.40002441406</ele>
        <time>2021-07-11T06:08:17.000Z</time>
      </trkpt>
      <trkpt lat="45.21464" lon="5.73192">
        <ele>887.40002441406</ele>
        <time>2021-07-11T06:08:21.000Z</time>
      </trkpt>
      <trkpt lat="45.21464" lon="5.7319">
        <ele>887.20001220703</ele>
        <time>2021-07-11T06:08:22.000Z</time>
      </trkpt>
      <trkpt lat="45.21461" lon="5.73182">
        <ele>886.20001220703</ele>
        <time>2021-07-11T06:08:26.000Z</time>
      </trkpt>
      <trkpt lat="45.21459" lon="5.73179">
        <ele>885.20001220703</ele>
        <time>2021-07-11T06:08:28.000Z</time>
      </trkpt>
      <trkpt lat="45.21459" lon="5.73178">
        <ele>885</ele>
        <time>2021-07-11T06:08:29.000Z</time>
      </trkpt>
      <trkpt lat="45.21456" lon="5.73175">
        <ele>884</ele>
        <time>2021-07-11T06:08:31.000Z</time>
      </trkpt>
      <trkpt lat="45.21454" lon="5.73174">
        <ele>883.79998779297</ele>
        <time>2021-07-11T06:08:32.000Z</time>
      </trkpt>
      <trkpt lat="45.21451" lon="5.73173">
        <ele>883.20001220703</ele>
        <time>2021-07-11T06:08:34.000Z</time>
      </trkpt>
      <trkpt lat="45.21449" lon="5.73171">
        <ele>882.40002441406</ele>
        <time>2021-07-11T06:08:36.000Z</time>
      </trkpt>
      <trkpt lat="45.21443" lon="5.73169">
        <ele>881</ele>
        <time>2021-07-11T06:08:40.000Z</time>
      </trkpt>
      <trkpt lat="45.2144" lon="5.73169">
        <ele>880.40002441406</ele>
        <time>2021-07-11T06:08:42.000Z</time>
      </trkpt>
      <trkpt lat="45.21438" lon="5.73167">
        <ele>880.40002441406</ele>
        <time>2021-07-11T06:08:43.000Z</time>
      </trkpt>
      <trkpt lat="45.21436" lon="5.73167">
        <ele>879.79998779297</ele>
        <time>2021-07-11T06:08:44.000Z</time>
      </trkpt>
      <trkpt lat="45.21432" lon="5.73165">
        <ele>879.59997558594</ele>
        <time>2021-07-11T06:08:46.000Z</time>
      </trkpt>
      <trkpt lat="45.21424" lon="5.7316">
        <ele>877.79998779297</ele>
        <time>2021-07-11T06:08:52.000Z</time>
      </trkpt>
      <trkpt lat="45.2142" lon="5.73158">
        <ele>877.40002441406</ele>
        <time>2021-07-11T06:08:54.000Z</time>
      </trkpt>
      <trkpt lat="45.21417" lon="5.73154">
        <ele>876.79998779297</ele>
        <time>2021-07-11T06:08:56.000Z</time>
      </trkpt>
      <trkpt lat="45.21416" lon="5.73152">
        <ele>876.59997558594</ele>
        <time>2021-07-11T06:08:57.000Z</time>
      </trkpt>
      <trkpt lat="45.21412" lon="5.73141">
        <ele>875.79998779297</ele>
        <time>2021-07-11T06:09:02.000Z</time>
      </trkpt>
      <trkpt lat="45.21407" lon="5.73136">
        <ele>874.79998779297</ele>
        <time>2021-07-11T06:09:05.000Z</time>
      </trkpt>
      <trkpt lat="45.21405" lon="5.73135">
        <ele>874.59997558594</ele>
        <time>2021-07-11T06:09:06.000Z</time>
      </trkpt>
      <trkpt lat="45.21391" lon="5.73115">
        <ele>873.40002441406</ele>
        <time>2021-07-11T06:09:13.000Z</time>
      </trkpt>
      <trkpt lat="45.21382" lon="5.73101">
        <ele>872.40002441406</ele>
        <time>2021-07-11T06:09:18.000Z</time>
      </trkpt>
      <trkpt lat="45.2138" lon="5.73098">
        <ele>872.40002441406</ele>
        <time>2021-07-11T06:09:19.000Z</time>
      </trkpt>
      <trkpt lat="45.21368" lon="5.73085">
        <ele>871.59997558594</ele>
        <time>2021-07-11T06:09:26.000Z</time>
      </trkpt>
      <trkpt lat="45.21365" lon="5.73082">
        <ele>870.79998779297</ele>
        <time>2021-07-11T06:09:29.000Z</time>
      </trkpt>
      <trkpt lat="45.21363" lon="5.73081">
        <ele>870.40002441406</ele>
        <time>2021-07-11T06:09:30.000Z</time>
      </trkpt>
      <trkpt lat="45.21361" lon="5.73079">
        <ele>869.79998779297</ele>
        <time>2021-07-11T06:09:32.000Z</time>
      </trkpt>
      <trkpt lat="45.21357" lon="5.73071">
        <ele>868.59997558594</ele>
        <time>2021-07-11T06:09:36.000Z</time>
      </trkpt>
      <trkpt lat="45.21356" lon="5.73068">
        <ele>868.20001220703</ele>
        <time>2021-07-11T06:09:38.000Z</time>
      </trkpt>
      <trkpt lat="45.21354" lon="5.73066">
        <ele>867.20001220703</ele>
        <time>2021-07-11T06:09:40.000Z</time>
      </trkpt>
      <trkpt lat="45.21352" lon="5.73064">
        <ele>866.59997558594</ele>
        <time>2021-07-11T06:09:42.000Z</time>
      </trkpt>
      <trkpt lat="45.2135" lon="5.73062">
        <ele>866.59997558594</ele>
        <time>2021-07-11T06:09:43.000Z</time>
      </trkpt>
      <trkpt lat="45.21347" lon="5.73057">
        <ele>865.79998779297</ele>
        <time>2021-07-11T06:09:45.000Z</time>
      </trkpt>
      <trkpt lat="45.21346" lon="5.73055">
        <ele>864.79998779297</ele>
        <time>2021-07-11T06:09:46.000Z</time>
      </trkpt>
      <trkpt lat="45.21344" lon="5.73051">
        <ele>864.59997558594</ele>
        <time>2021-07-11T06:09:49.000Z</time>
      </trkpt>
      <trkpt lat="45.21343" lon="5.7305">
        <ele>864.40002441406</ele>
        <time>2021-07-11T06:09:50.000Z</time>
      </trkpt>
      <trkpt lat="45.21341" lon="5.73047">
        <ele>863.40002441406</ele>
        <time>2021-07-11T06:09:53.000Z</time>
      </trkpt>
      <trkpt lat="45.21341" lon="5.73046">
        <ele>863</ele>
        <time>2021-07-11T06:09:54.000Z</time>
      </trkpt>
      <trkpt lat="45.21341" lon="5.73044">
        <ele>862.20001220703</ele>
        <time>2021-07-11T06:09:56.000Z</time>
      </trkpt>
      <trkpt lat="45.21339" lon="5.73041">
        <ele>861.79998779297</ele>
        <time>2021-07-11T06:09:58.000Z</time>
      </trkpt>
      <trkpt lat="45.21338" lon="5.7304">
        <ele>860.79998779297</ele>
        <time>2021-07-11T06:09:59.000Z</time>
      </trkpt>
      <trkpt lat="45.21335" lon="5.73036">
        <ele>860.59997558594</ele>
        <time>2021-07-11T06:10:02.000Z</time>
      </trkpt>
      <trkpt lat="45.21332" lon="5.73034">
        <ele>859.59997558594</ele>
        <time>2021-07-11T06:10:04.000Z</time>
      </trkpt>
      <trkpt lat="45.2133" lon="5.73032">
        <ele>859.59997558594</ele>
        <time>2021-07-11T06:10:06.000Z</time>
      </trkpt>
      <trkpt lat="45.2133" lon="5.73031">
        <ele>859</ele>
        <time>2021-07-11T06:10:07.000Z</time>
      </trkpt>
      <trkpt lat="45.21329" lon="5.73029">
        <ele>858.40002441406</ele>
        <time>2021-07-11T06:10:08.000Z</time>
      </trkpt>
      <trkpt lat="45.21324" lon="5.73024">
        <ele>857.40002441406</ele>
        <time>2021-07-11T06:10:12.000Z</time>
      </trkpt>
      <trkpt lat="45.21321" lon="5.73022">
        <ele>856.79998779297</ele>
        <time>2021-07-11T06:10:15.000Z</time>
      </trkpt>
      <trkpt lat="45.21318" lon="5.73018">
        <ele>855.79998779297</ele>
        <time>2021-07-11T06:10:18.000Z</time>
      </trkpt>
      <trkpt lat="45.21317" lon="5.73014">
        <ele>855.40002441406</ele>
        <time>2021-07-11T06:10:20.000Z</time>
      </trkpt>
      <trkpt lat="45.21317" lon="5.73009">
        <ele>855</ele>
        <time>2021-07-11T06:10:22.000Z</time>
      </trkpt>
      <trkpt lat="45.21315" lon="5.73006">
        <ele>854.20001220703</ele>
        <time>2021-07-11T06:10:24.000Z</time>
      </trkpt>
      <trkpt lat="45.21314" lon="5.73005">
        <ele>854</ele>
        <time>2021-07-11T06:10:25.000Z</time>
      </trkpt>
      <trkpt lat="45.21313" lon="5.73003">
        <ele>853.59997558594</ele>
        <time>2021-07-11T06:10:26.000Z</time>
      </trkpt>
      <trkpt lat="45.21312" lon="5.73001">
        <ele>853.59997558594</ele>
        <time>2021-07-11T06:10:27.000Z</time>
      </trkpt>
      <trkpt lat="45.21311" lon="5.73">
        <ele>852.79998779297</ele>
        <time>2021-07-11T06:10:28.000Z</time>
      </trkpt>
      <trkpt lat="45.21308" lon="5.72997">
        <ele>852.59997558594</ele>
        <time>2021-07-11T06:10:30.000Z</time>
      </trkpt>
      <trkpt lat="45.21306" lon="5.72994">
        <ele>852.20001220703</ele>
        <time>2021-07-11T06:10:32.000Z</time>
      </trkpt>
      <trkpt lat="45.21304" lon="5.72994">
        <ele>851.79998779297</ele>
        <time>2021-07-11T06:10:33.000Z</time>
      </trkpt>
      <trkpt lat="45.21302" lon="5.72993">
        <ele>851.40002441406</ele>
        <time>2021-07-11T06:10:35.000Z</time>
      </trkpt>
      <trkpt lat="45.21297" lon="5.72987">
        <ele>850</ele>
        <time>2021-07-11T06:10:39.000Z</time>
      </trkpt>
      <trkpt lat="45.21294" lon="5.72982">
        <ele>849.59997558594</ele>
        <time>2021-07-11T06:10:41.000Z</time>
      </trkpt>
      <trkpt lat="45.21293" lon="5.72978">
        <ele>849</ele>
        <time>2021-07-11T06:10:43.000Z</time>
      </trkpt>
      <trkpt lat="45.21292" lon="5.72977">
        <ele>848.59997558594</ele>
        <time>2021-07-11T06:10:44.000Z</time>
      </trkpt>
      <trkpt lat="45.21289" lon="5.72975">
        <ele>847.79998779297</ele>
        <time>2021-07-11T06:10:47.000Z</time>
      </trkpt>
      <trkpt lat="45.21288" lon="5.72974">
        <ele>847.40002441406</ele>
        <time>2021-07-11T06:10:48.000Z</time>
      </trkpt>
      <trkpt lat="45.21287" lon="5.72973">
        <ele>846.59997558594</ele>
        <time>2021-07-11T06:10:50.000Z</time>
      </trkpt>
      <trkpt lat="45.21284" lon="5.72971">
        <ele>846.59997558594</ele>
        <time>2021-07-11T06:10:52.000Z</time>
      </trkpt>
      <trkpt lat="45.21282" lon="5.72969">
        <ele>846.20001220703</ele>
        <time>2021-07-11T06:10:53.000Z</time>
      </trkpt>
      <trkpt lat="45.21281" lon="5.72968">
        <ele>845.59997558594</ele>
        <time>2021-07-11T06:10:54.000Z</time>
      </trkpt>
      <trkpt lat="45.21277" lon="5.72961">
        <ele>844.20001220703</ele>
        <time>2021-07-11T06:10:58.000Z</time>
      </trkpt>
      <trkpt lat="45.21277" lon="5.7296">
        <ele>843.40002441406</ele>
        <time>2021-07-11T06:11:00.000Z</time>
      </trkpt>
      <trkpt lat="45.21275" lon="5.72959">
        <ele>843.40002441406</ele>
        <time>2021-07-11T06:11:01.000Z</time>
      </trkpt>
      <trkpt lat="45.21275" lon="5.72958">
        <ele>842.59997558594</ele>
        <time>2021-07-11T06:11:02.000Z</time>
      </trkpt>
      <trkpt lat="45.21274" lon="5.72957">
        <ele>842.59997558594</ele>
        <time>2021-07-11T06:11:03.000Z</time>
      </trkpt>
      <trkpt lat="45.21269" lon="5.72955">
        <ele>841.79998779297</ele>
        <time>2021-07-11T06:11:07.000Z</time>
      </trkpt>
      <trkpt lat="45.21269" lon="5.72955">
        <ele>841.20001220703</ele>
        <time>2021-07-11T06:11:08.000Z</time>
      </trkpt>
      <trkpt lat="45.21266" lon="5.72953">
        <ele>840</ele>
        <time>2021-07-11T06:11:11.000Z</time>
      </trkpt>
      <trkpt lat="45.21264" lon="5.72951">
        <ele>840</ele>
        <time>2021-07-11T06:11:13.000Z</time>
      </trkpt>
      <trkpt lat="45.2126" lon="5.72949">
        <ele>839.20001220703</ele>
        <time>2021-07-11T06:11:15.000Z</time>
      </trkpt>
      <trkpt lat="45.21257" lon="5.72947">
        <ele>838.40002441406</ele>
        <time>2021-07-11T06:11:17.000Z</time>
      </trkpt>
      <trkpt lat="45.21253" lon="5.72944">
        <ele>837.59997558594</ele>
        <time>2021-07-11T06:11:20.000Z</time>
      </trkpt>
      <trkpt lat="45.21252" lon="5.72944">
        <ele>837</ele>
        <time>2021-07-11T06:11:21.000Z</time>
      </trkpt>
      <trkpt lat="45.21248" lon="5.72944">
        <ele>836</ele>
        <time>2021-07-11T06:11:25.000Z</time>
      </trkpt>
      <trkpt lat="45.21246" lon="5.72943">
        <ele>836</ele>
        <time>2021-07-11T06:11:26.000Z</time>
      </trkpt>
      <trkpt lat="45.21242" lon="5.7294">
        <ele>834.20001220703</ele>
        <time>2021-07-11T06:11:29.000Z</time>
      </trkpt>
      <trkpt lat="45.21239" lon="5.72939">
        <ele>834.20001220703</ele>
        <time>2021-07-11T06:11:31.000Z</time>
      </trkpt>
      <trkpt lat="45.21232" lon="5.72934">
        <ele>833.20001220703</ele>
        <time>2021-07-11T06:11:35.000Z</time>
      </trkpt>
      <trkpt lat="45.21231" lon="5.72932">
        <ele>833</ele>
        <time>2021-07-11T06:11:36.000Z</time>
      </trkpt>
      <trkpt lat="45.21231" lon="5.7293">
        <ele>832.79998779297</ele>
        <time>2021-07-11T06:11:37.000Z</time>
      </trkpt>
      <trkpt lat="45.21231" lon="5.72929">
        <ele>832.59997558594</ele>
        <time>2021-07-11T06:11:38.000Z</time>
      </trkpt>
      <trkpt lat="45.21231" lon="5.72928">
        <ele>832.20001220703</ele>
        <time>2021-07-11T06:11:39.000Z</time>
      </trkpt>
      <trkpt lat="45.2123" lon="5.72927">
        <ele>832</ele>
        <time>2021-07-11T06:11:40.000Z</time>
      </trkpt>
      <trkpt lat="45.21224" lon="5.72923">
        <ele>831.20001220703</ele>
        <time>2021-07-11T06:11:44.000Z</time>
      </trkpt>
      <trkpt lat="45.21223" lon="5.72923">
        <ele>830.79998779297</ele>
        <time>2021-07-11T06:11:45.000Z</time>
      </trkpt>
      <trkpt lat="45.21221" lon="5.72922">
        <ele>830.59997558594</ele>
        <time>2021-07-11T06:11:46.000Z</time>
      </trkpt>
      <trkpt lat="45.21219" lon="5.72922">
        <ele>829.79998779297</ele>
        <time>2021-07-11T06:11:48.000Z</time>
      </trkpt>
      <trkpt lat="45.21214" lon="5.7292">
        <ele>829</ele>
        <time>2021-07-11T06:11:52.000Z</time>
      </trkpt>
      <trkpt lat="45.21212" lon="5.72919">
        <ele>828.59997558594</ele>
        <time>2021-07-11T06:11:54.000Z</time>
      </trkpt>
      <trkpt lat="45.21212" lon="5.7292">
        <ele>828.59997558594</ele>
        <time>2021-07-11T06:11:55.000Z</time>
      </trkpt>
      <trkpt lat="45.21212" lon="5.72921">
        <ele>827.59997558594</ele>
        <time>2021-07-11T06:11:56.000Z</time>
      </trkpt>
      <trkpt lat="45.21212" lon="5.72922">
        <ele>827.40002441406</ele>
        <time>2021-07-11T06:11:58.000Z</time>
      </trkpt>
      <trkpt lat="45.21211" lon="5.72926">
        <ele>826.20001220703</ele>
        <time>2021-07-11T06:12:01.000Z</time>
      </trkpt>
      <trkpt lat="45.21212" lon="5.72927">
        <ele>826.20001220703</ele>
        <time>2021-07-11T06:12:02.000Z</time>
      </trkpt>
      <trkpt lat="45.21212" lon="5.72931">
        <ele>825.40002441406</ele>
        <time>2021-07-11T06:12:06.000Z</time>
      </trkpt>
      <trkpt lat="45.21213" lon="5.72932">
        <ele>824.79998779297</ele>
        <time>2021-07-11T06:12:07.000Z</time>
      </trkpt>
      <trkpt lat="45.21216" lon="5.72937">
        <ele>824.20001220703</ele>
        <time>2021-07-11T06:12:10.000Z</time>
      </trkpt>
      <trkpt lat="45.21217" lon="5.72939">
        <ele>824</ele>
        <time>2021-07-11T06:12:11.000Z</time>
      </trkpt>
      <trkpt lat="45.21217" lon="5.7294">
        <ele>823.79998779297</ele>
        <time>2021-07-11T06:12:12.000Z</time>
      </trkpt>
      <trkpt lat="45.21213" lon="5.72942">
        <ele>822.79998779297</ele>
        <time>2021-07-11T06:12:15.000Z</time>
      </trkpt>
      <trkpt lat="45.21212" lon="5.72942">
        <ele>822.20001220703</ele>
        <time>2021-07-11T06:12:16.000Z</time>
      </trkpt>
      <trkpt lat="45.21211" lon="5.7294">
        <ele>821.79998779297</ele>
        <time>2021-07-11T06:12:18.000Z</time>
      </trkpt>
      <trkpt lat="45.2121" lon="5.72937">
        <ele>821.20001220703</ele>
        <time>2021-07-11T06:12:19.000Z</time>
      </trkpt>
      <trkpt lat="45.21207" lon="5.72934">
        <ele>820.59997558594</ele>
        <time>2021-07-11T06:12:21.000Z</time>
      </trkpt>
      <trkpt lat="45.21203" lon="5.7293">
        <ele>820.20001220703</ele>
        <time>2021-07-11T06:12:23.000Z</time>
      </trkpt>
      <trkpt lat="45.21202" lon="5.72929">
        <ele>819</ele>
        <time>2021-07-11T06:12:24.000Z</time>
      </trkpt>
      <trkpt lat="45.21201" lon="5.72928">
        <ele>819</ele>
        <time>2021-07-11T06:12:25.000Z</time>
      </trkpt>
      <trkpt lat="45.212" lon="5.72927">
        <ele>819</ele>
        <time>2021-07-11T06:12:26.000Z</time>
      </trkpt>
      <trkpt lat="45.21199" lon="5.72926">
        <ele>818.59997558594</ele>
        <time>2021-07-11T06:12:27.000Z</time>
      </trkpt>
      <trkpt lat="45.21197" lon="5.72923">
        <ele>818</ele>
        <time>2021-07-11T06:12:29.000Z</time>
      </trkpt>
      <trkpt lat="45.21193" lon="5.72918">
        <ele>817.79998779297</ele>
        <time>2021-07-11T06:12:33.000Z</time>
      </trkpt>
      <trkpt lat="45.2119" lon="5.72916">
        <ele>816.79998779297</ele>
        <time>2021-07-11T06:12:35.000Z</time>
      </trkpt>
      <trkpt lat="45.21188" lon="5.72914">
        <ele>815.79998779297</ele>
        <time>2021-07-11T06:12:37.000Z</time>
      </trkpt>
      <trkpt lat="45.21179" lon="5.7291">
        <ele>814.20001220703</ele>
        <time>2021-07-11T06:12:42.000Z</time>
      </trkpt>
      <trkpt lat="45.21176" lon="5.72907">
        <ele>813.59997558594</ele>
        <time>2021-07-11T06:12:44.000Z</time>
      </trkpt>
      <trkpt lat="45.21171" lon="5.72906">
        <ele>813</ele>
        <time>2021-07-11T06:12:46.000Z</time>
      </trkpt>
      <trkpt lat="45.21164" lon="5.72905">
        <ele>811.79998779297</ele>
        <time>2021-07-11T06:12:50.000Z</time>
      </trkpt>
      <trkpt lat="45.2116" lon="5.72903">
        <ele>811.20001220703</ele>
        <time>2021-07-11T06:12:52.000Z</time>
      </trkpt>
      <trkpt lat="45.21155" lon="5.72901">
        <ele>810.79998779297</ele>
        <time>2021-07-11T06:12:54.000Z</time>
      </trkpt>
      <trkpt lat="45.21154" lon="5.72901">
        <ele>810.20001220703</ele>
        <time>2021-07-11T06:12:56.000Z</time>
      </trkpt>
      <trkpt lat="45.21153" lon="5.729">
        <ele>810.20001220703</ele>
        <time>2021-07-11T06:12:57.000Z</time>
      </trkpt>
      <trkpt lat="45.21151" lon="5.72899">
        <ele>809.59997558594</ele>
        <time>2021-07-11T06:12:58.000Z</time>
      </trkpt>
      <trkpt lat="45.21147" lon="5.72898">
        <ele>809.40002441406</ele>
        <time>2021-07-11T06:13:00.000Z</time>
      </trkpt>
      <trkpt lat="45.21145" lon="5.72896">
        <ele>808</ele>
        <time>2021-07-11T06:13:03.000Z</time>
      </trkpt>
      <trkpt lat="45.21144" lon="5.72896">
        <ele>807.59997558594</ele>
        <time>2021-07-11T06:13:05.000Z</time>
      </trkpt>
      <trkpt lat="45.2114" lon="5.72894">
        <ele>806.79998779297</ele>
        <time>2021-07-11T06:13:08.000Z</time>
      </trkpt>
      <trkpt lat="45.21138" lon="5.72894">
        <ele>806.79998779297</ele>
        <time>2021-07-11T06:13:09.000Z</time>
      </trkpt>
      <trkpt lat="45.21134" lon="5.72892">
        <ele>805.79998779297</ele>
        <time>2021-07-11T06:13:12.000Z</time>
      </trkpt>
      <trkpt lat="45.21132" lon="5.72891">
        <ele>805.40002441406</ele>
        <time>2021-07-11T06:13:13.000Z</time>
      </trkpt>
      <trkpt lat="45.2113" lon="5.7289">
        <ele>805.40002441406</ele>
        <time>2021-07-11T06:13:14.000Z</time>
      </trkpt>
      <trkpt lat="45.21125" lon="5.72889">
        <ele>804.20001220703</ele>
        <time>2021-07-11T06:13:17.000Z</time>
      </trkpt>
      <trkpt lat="45.21124" lon="5.72888">
        <ele>803.79998779297</ele>
        <time>2021-07-11T06:13:18.000Z</time>
      </trkpt>
      <trkpt lat="45.21121" lon="5.72887">
        <ele>803.20001220703</ele>
        <time>2021-07-11T06:13:20.000Z</time>
      </trkpt>
      <trkpt lat="45.21119" lon="5.72885">
        <ele>803.20001220703</ele>
        <time>2021-07-11T06:13:21.000Z</time>
      </trkpt>
      <trkpt lat="45.21117" lon="5.72882">
        <ele>802.40002441406</ele>
        <time>2021-07-11T06:13:23.000Z</time>
      </trkpt>
      <trkpt lat="45.21116" lon="5.7288">
        <ele>801.79998779297</ele>
        <time>2021-07-11T06:13:24.000Z</time>
      </trkpt>
      <trkpt lat="45.21114" lon="5.72877">
        <ele>801.59997558594</ele>
        <time>2021-07-11T06:13:26.000Z</time>
      </trkpt>
      <trkpt lat="45.21113" lon="5.72874">
        <ele>801.40002441406</ele>
        <time>2021-07-11T06:13:28.000Z</time>
      </trkpt>
      <trkpt lat="45.21113" lon="5.72874">
        <ele>800.79998779297</ele>
        <time>2021-07-11T06:13:29.000Z</time>
      </trkpt>
      <trkpt lat="45.21112" lon="5.72872">
        <ele>800.59997558594</ele>
        <time>2021-07-11T06:13:30.000Z</time>
      </trkpt>
      <trkpt lat="45.21111" lon="5.72871">
        <ele>800.40002441406</ele>
        <time>2021-07-11T06:13:31.000Z</time>
      </trkpt>
      <trkpt lat="45.2111" lon="5.72869">
        <ele>799.40002441406</ele>
        <time>2021-07-11T06:13:32.000Z</time>
      </trkpt>
      <trkpt lat="45.21106" lon="5.72862">
        <ele>798.79998779297</ele>
        <time>2021-07-11T06:13:36.000Z</time>
      </trkpt>
      <trkpt lat="45.21102" lon="5.72859">
        <ele>798.40002441406</ele>
        <time>2021-07-11T06:13:38.000Z</time>
      </trkpt>
      <trkpt lat="45.21099" lon="5.72857">
        <ele>798.40002441406</ele>
        <time>2021-07-11T06:13:39.000Z</time>
      </trkpt>
      <trkpt lat="45.21098" lon="5.72855">
        <ele>797.59997558594</ele>
        <time>2021-07-11T06:13:40.000Z</time>
      </trkpt>
      <trkpt lat="45.21093" lon="5.7285">
        <ele>797.40002441406</ele>
        <time>2021-07-11T06:13:42.000Z</time>
      </trkpt>
      <trkpt lat="45.21092" lon="5.72849">
        <ele>797.40002441406</ele>
        <time>2021-07-11T06:13:43.000Z</time>
      </trkpt>
      <trkpt lat="45.21089" lon="5.72845">
        <ele>796.59997558594</ele>
        <time>2021-07-11T06:13:45.000Z</time>
      </trkpt>
      <trkpt lat="45.21088" lon="5.72844">
        <ele>796.40002441406</ele>
        <time>2021-07-11T06:13:46.000Z</time>
      </trkpt>
      <trkpt lat="45.21086" lon="5.72843">
        <ele>796</ele>
        <time>2021-07-11T06:13:47.000Z</time>
      </trkpt>
      <trkpt lat="45.21084" lon="5.72841">
        <ele>796</ele>
        <time>2021-07-11T06:13:49.000Z</time>
      </trkpt>
      <trkpt lat="45.2108" lon="5.72834">
        <ele>795.40002441406</ele>
        <time>2021-07-11T06:13:52.000Z</time>
      </trkpt>
      <trkpt lat="45.21076" lon="5.72828">
        <ele>795</ele>
        <time>2021-07-11T06:13:54.000Z</time>
      </trkpt>
      <trkpt lat="45.2107" lon="5.72817">
        <ele>794.40002441406</ele>
        <time>2021-07-11T06:13:59.000Z</time>
      </trkpt>
      <trkpt lat="45.21067" lon="5.7281">
        <ele>794.40002441406</ele>
        <time>2021-07-11T06:14:02.000Z</time>
      </trkpt>
      <trkpt lat="45.21066" lon="5.72806">
        <ele>794.40002441406</ele>
        <time>2021-07-11T06:14:03.000Z</time>
      </trkpt>
      <trkpt lat="45.2106" lon="5.72789">
        <ele>794</ele>
        <time>2021-07-11T06:14:08.000Z</time>
      </trkpt>
      <trkpt lat="45.21057" lon="5.72777">
        <ele>794</ele>
        <time>2021-07-11T06:14:12.000Z</time>
      </trkpt>
      <trkpt lat="45.21057" lon="5.72775">
        <ele>794</ele>
        <time>2021-07-11T06:14:13.000Z</time>
      </trkpt>
      <trkpt lat="45.21056" lon="5.72771">
        <ele>793.20001220703</ele>
        <time>2021-07-11T06:14:16.000Z</time>
      </trkpt>
      <trkpt lat="45.21056" lon="5.72769">
        <ele>793.20001220703</ele>
        <time>2021-07-11T06:14:17.000Z</time>
      </trkpt>
      <trkpt lat="45.21055" lon="5.72764">
        <ele>792.79998779297</ele>
        <time>2021-07-11T06:14:19.000Z</time>
      </trkpt>
      <trkpt lat="45.21053" lon="5.7276">
        <ele>792.20001220703</ele>
        <time>2021-07-11T06:14:22.000Z</time>
      </trkpt>
      <trkpt lat="45.2105" lon="5.72757">
        <ele>791.40002441406</ele>
        <time>2021-07-11T06:14:26.000Z</time>
      </trkpt>
      <trkpt lat="45.2105" lon="5.72756">
        <ele>791</ele>
        <time>2021-07-11T06:14:27.000Z</time>
      </trkpt>
      <trkpt lat="45.21046" lon="5.72751">
        <ele>789.79998779297</ele>
        <time>2021-07-11T06:14:32.000Z</time>
      </trkpt>
      <trkpt lat="45.21046" lon="5.72752">
        <ele>789.79998779297</ele>
        <time>2021-07-11T06:14:33.000Z</time>
      </trkpt>
      <trkpt lat="45.21044" lon="5.7275">
        <ele>788.79998779297</ele>
        <time>2021-07-11T06:14:35.000Z</time>
      </trkpt>
      <trkpt lat="45.2104" lon="5.72749">
        <ele>787.59997558594</ele>
        <time>2021-07-11T06:14:38.000Z</time>
      </trkpt>
      <trkpt lat="45.2104" lon="5.72749">
        <ele>787</ele>
        <time>2021-07-11T06:14:40.000Z</time>
      </trkpt>
      <trkpt lat="45.2104" lon="5.72749">
        <ele>786.79998779297</ele>
        <time>2021-07-11T06:14:42.000Z</time>
      </trkpt>
      <trkpt lat="45.21039" lon="5.72747">
        <ele>786.79998779297</ele>
        <time>2021-07-11T06:14:43.000Z</time>
      </trkpt>
      <trkpt lat="45.21038" lon="5.72746">
        <ele>786.40002441406</ele>
        <time>2021-07-11T06:14:44.000Z</time>
      </trkpt>
      <trkpt lat="45.21035" lon="5.72746">
        <ele>785</ele>
        <time>2021-07-11T06:14:47.000Z</time>
      </trkpt>
      <trkpt lat="45.21033" lon="5.72746">
        <ele>784.79998779297</ele>
        <time>2021-07-11T06:14:49.000Z</time>
      </trkpt>
      <trkpt lat="45.21029" lon="5.72746">
        <ele>784.20001220703</ele>
        <time>2021-07-11T06:14:51.000Z</time>
      </trkpt>
      <trkpt lat="45.21028" lon="5.72747">
        <ele>784.20001220703</ele>
        <time>2021-07-11T06:14:52.000Z</time>
      </trkpt>
      <trkpt lat="45.21027" lon="5.72747">
        <ele>783.79998779297</ele>
        <time>2021-07-11T06:14:53.000Z</time>
      </trkpt>
      <trkpt lat="45.21025" lon="5.72747">
        <ele>782.59997558594</ele>
        <time>2021-07-11T06:14:55.000Z</time>
      </trkpt>
      <trkpt lat="45.21024" lon="5.72747">
        <ele>782.20001220703</ele>
        <time>2021-07-11T06:14:57.000Z</time>
      </trkpt>
      <trkpt lat="45.21024" lon="5.72747">
        <ele>781.79998779297</ele>
        <time>2021-07-11T06:14:58.000Z</time>
      </trkpt>
      <trkpt lat="45.21023" lon="5.72747">
        <ele>781.79998779297</ele>
        <time>2021-07-11T06:14:59.000Z</time>
      </trkpt>
      <trkpt lat="45.21021" lon="5.72746">
        <ele>781.20001220703</ele>
        <time>2021-07-11T06:15:01.000Z</time>
      </trkpt>
      <trkpt lat="45.21021" lon="5.72747">
        <ele>781</ele>
        <time>2021-07-11T06:15:03.000Z</time>
      </trkpt>
      <trkpt lat="45.21021" lon="5.72748">
        <ele>779.79998779297</ele>
        <time>2021-07-11T06:15:04.000Z</time>
      </trkpt>
      <trkpt lat="45.21019" lon="5.72749">
        <ele>779.40002441406</ele>
        <time>2021-07-11T06:15:06.000Z</time>
      </trkpt>
      <trkpt lat="45.21018" lon="5.7275">
        <ele>779</ele>
        <time>2021-07-11T06:15:08.000Z</time>
      </trkpt>
      <trkpt lat="45.21018" lon="5.72751">
        <ele>778.59997558594</ele>
        <time>2021-07-11T06:15:10.000Z</time>
      </trkpt>
      <trkpt lat="45.21017" lon="5.72752">
        <ele>778.20001220703</ele>
        <time>2021-07-11T06:15:11.000Z</time>
      </trkpt>
      <trkpt lat="45.21017" lon="5.72752">
        <ele>777.59997558594</ele>
        <time>2021-07-11T06:15:12.000Z</time>
      </trkpt>
      <trkpt lat="45.21017" lon="5.72752">
        <ele>777.40002441406</ele>
        <time>2021-07-11T06:15:13.000Z</time>
      </trkpt>
      <trkpt lat="45.21017" lon="5.72753">
        <ele>777</ele>
        <time>2021-07-11T06:15:15.000Z</time>
      </trkpt>
      <trkpt lat="45.21017" lon="5.72754">
        <ele>776.20001220703</ele>
        <time>2021-07-11T06:15:16.000Z</time>
      </trkpt>
      <trkpt lat="45.21014" lon="5.72753">
        <ele>775.59997558594</ele>
        <time>2021-07-11T06:15:19.000Z</time>
      </trkpt>
      <trkpt lat="45.21011" lon="5.72754">
        <ele>774.79998779297</ele>
        <time>2021-07-11T06:15:21.000Z</time>
      </trkpt>
      <trkpt lat="45.21005" lon="5.72756">
        <ele>774.20001220703</ele>
        <time>2021-07-11T06:15:25.000Z</time>
      </trkpt>
      <trkpt lat="45.21004" lon="5.72756">
        <ele>773.59997558594</ele>
        <time>2021-07-11T06:15:26.000Z</time>
      </trkpt>
      <trkpt lat="45.21002" lon="5.72756">
        <ele>772.79998779297</ele>
        <time>2021-07-11T06:15:29.000Z</time>
      </trkpt>
      <trkpt lat="45.21002" lon="5.72756">
        <ele>772.20001220703</ele>
        <time>2021-07-11T06:15:30.000Z</time>
      </trkpt>
      <trkpt lat="45.21001" lon="5.72759">
        <ele>770.79998779297</ele>
        <time>2021-07-11T06:15:33.000Z</time>
      </trkpt>
      <trkpt lat="45.21" lon="5.72758">
        <ele>770.79998779297</ele>
        <time>2021-07-11T06:15:34.000Z</time>
      </trkpt>
      <trkpt lat="45.20997" lon="5.72758">
        <ele>770.40002441406</ele>
        <time>2021-07-11T06:15:36.000Z</time>
      </trkpt>
      <trkpt lat="45.20996" lon="5.72757">
        <ele>769.40002441406</ele>
        <time>2021-07-11T06:15:38.000Z</time>
      </trkpt>
      <trkpt lat="45.20995" lon="5.72756">
        <ele>769</ele>
        <time>2021-07-11T06:15:40.000Z</time>
      </trkpt>
      <trkpt lat="45.20991" lon="5.72754">
        <ele>768.40002441406</ele>
        <time>2021-07-11T06:15:44.000Z</time>
      </trkpt>
      <trkpt lat="45.20991" lon="5.72754">
        <ele>767.40002441406</ele>
        <time>2021-07-11T06:15:45.000Z</time>
      </trkpt>
      <trkpt lat="45.2099" lon="5.72754">
        <ele>767.40002441406</ele>
        <time>2021-07-11T06:15:46.000Z</time>
      </trkpt>
      <trkpt lat="45.20985" lon="5.7275">
        <ele>766</ele>
        <time>2021-07-11T06:15:50.000Z</time>
      </trkpt>
      <trkpt lat="45.20983" lon="5.72748">
        <ele>765.20001220703</ele>
        <time>2021-07-11T06:15:53.000Z</time>
      </trkpt>
      <trkpt lat="45.20981" lon="5.72748">
        <ele>764.79998779297</ele>
        <time>2021-07-11T06:15:55.000Z</time>
      </trkpt>
      <trkpt lat="45.2098" lon="5.72748">
        <ele>764.40002441406</ele>
        <time>2021-07-11T06:15:56.000Z</time>
      </trkpt>
      <trkpt lat="45.20979" lon="5.72747">
        <ele>763.79998779297</ele>
        <time>2021-07-11T06:15:58.000Z</time>
      </trkpt>
      <trkpt lat="45.20978" lon="5.72746">
        <ele>763.59997558594</ele>
        <time>2021-07-11T06:15:59.000Z</time>
      </trkpt>
      <trkpt lat="45.20978" lon="5.72745">
        <ele>762.59997558594</ele>
        <time>2021-07-11T06:16:02.000Z</time>
      </trkpt>
      <trkpt lat="45.20977" lon="5.72745">
        <ele>762.40002441406</ele>
        <time>2021-07-11T06:16:03.000Z</time>
      </trkpt>
      <trkpt lat="45.20977" lon="5.72744">
        <ele>761.59997558594</ele>
        <time>2021-07-11T06:16:04.000Z</time>
      </trkpt>
      <trkpt lat="45.20976" lon="5.72743">
        <ele>761.40002441406</ele>
        <time>2021-07-11T06:16:05.000Z</time>
      </trkpt>
      <trkpt lat="45.20975" lon="5.72741">
        <ele>760.79998779297</ele>
        <time>2021-07-11T06:16:08.000Z</time>
      </trkpt>
      <trkpt lat="45.20975" lon="5.7274">
        <ele>760.40002441406</ele>
        <time>2021-07-11T06:16:09.000Z</time>
      </trkpt>
      <trkpt lat="45.20975" lon="5.72737">
        <ele>759.40002441406</ele>
        <time>2021-07-11T06:16:12.000Z</time>
      </trkpt>
      <trkpt lat="45.20974" lon="5.72735">
        <ele>759.20001220703</ele>
        <time>2021-07-11T06:16:13.000Z</time>
      </trkpt>
      <trkpt lat="45.20975" lon="5.72733">
        <ele>758</ele>
        <time>2021-07-11T06:16:16.000Z</time>
      </trkpt>
      <trkpt lat="45.20972" lon="5.72731">
        <ele>757.59997558594</ele>
        <time>2021-07-11T06:16:18.000Z</time>
      </trkpt>
      <trkpt lat="45.20972" lon="5.7273">
        <ele>757.20001220703</ele>
        <time>2021-07-11T06:16:19.000Z</time>
      </trkpt>
      <trkpt lat="45.2097" lon="5.72728">
        <ele>757</ele>
        <time>2021-07-11T06:16:21.000Z</time>
      </trkpt>
      <trkpt lat="45.20969" lon="5.72727">
        <ele>756.40002441406</ele>
        <time>2021-07-11T06:16:22.000Z</time>
      </trkpt>
      <trkpt lat="45.20967" lon="5.72727">
        <ele>756</ele>
        <time>2021-07-11T06:16:23.000Z</time>
      </trkpt>
      <trkpt lat="45.20964" lon="5.72724">
        <ele>754.20001220703</ele>
        <time>2021-07-11T06:16:27.000Z</time>
      </trkpt>
      <trkpt lat="45.2096" lon="5.72723">
        <ele>753.59997558594</ele>
        <time>2021-07-11T06:16:29.000Z</time>
      </trkpt>
      <trkpt lat="45.20957" lon="5.7272">
        <ele>752.40002441406</ele>
        <time>2021-07-11T06:16:31.000Z</time>
      </trkpt>
      <trkpt lat="45.20952" lon="5.72713">
        <ele>751.20001220703</ele>
        <time>2021-07-11T06:16:35.000Z</time>
      </trkpt>
      <trkpt lat="45.20947" lon="5.72708">
        <ele>750.40002441406</ele>
        <time>2021-07-11T06:16:38.000Z</time>
      </trkpt>
      <trkpt lat="45.20946" lon="5.72706">
        <ele>750</ele>
        <time>2021-07-11T06:16:39.000Z</time>
      </trkpt>
      <trkpt lat="45.20946" lon="5.72705">
        <ele>749.79998779297</ele>
        <time>2021-07-11T06:16:40.000Z</time>
      </trkpt>
      <trkpt lat="45.20942" lon="5.72701">
        <ele>748.79998779297</ele>
        <time>2021-07-11T06:16:42.000Z</time>
      </trkpt>
      <trkpt lat="45.20934" lon="5.72694">
        <ele>747.59997558594</ele>
        <time>2021-07-11T06:16:48.000Z</time>
      </trkpt>
      <trkpt lat="45.20933" lon="5.72693">
        <ele>747</ele>
        <time>2021-07-11T06:16:50.000Z</time>
      </trkpt>
      <trkpt lat="45.20931" lon="5.72693">
        <ele>746.59997558594</ele>
        <time>2021-07-11T06:16:51.000Z</time>
      </trkpt>
      <trkpt lat="45.20929" lon="5.72692">
        <ele>745.79998779297</ele>
        <time>2021-07-11T06:16:52.000Z</time>
      </trkpt>
      <trkpt lat="45.20927" lon="5.72691">
        <ele>745.79998779297</ele>
        <time>2021-07-11T06:16:53.000Z</time>
      </trkpt>
      <trkpt lat="45.20925" lon="5.72688">
        <ele>745.20001220703</ele>
        <time>2021-07-11T06:16:55.000Z</time>
      </trkpt>
      <trkpt lat="45.20922" lon="5.72685">
        <ele>744.59997558594</ele>
        <time>2021-07-11T06:16:58.000Z</time>
      </trkpt>
      <trkpt lat="45.20921" lon="5.72684">
        <ele>743.79998779297</ele>
        <time>2021-07-11T06:16:59.000Z</time>
      </trkpt>
      <trkpt lat="45.20921" lon="5.72684">
        <ele>743.59997558594</ele>
        <time>2021-07-11T06:17:00.000Z</time>
      </trkpt>
      <trkpt lat="45.20921" lon="5.72686">
        <ele>743.20001220703</ele>
        <time>2021-07-11T06:17:01.000Z</time>
      </trkpt>
      <trkpt lat="45.20921" lon="5.72686">
        <ele>742.79998779297</ele>
        <time>2021-07-11T06:17:03.000Z</time>
      </trkpt>
      <trkpt lat="45.20917" lon="5.72684">
        <ele>742.20001220703</ele>
        <time>2021-07-11T06:17:06.000Z</time>
      </trkpt>
      <trkpt lat="45.20915" lon="5.72684">
        <ele>742</ele>
        <time>2021-07-11T06:17:07.000Z</time>
      </trkpt>
      <trkpt lat="45.20914" lon="5.72685">
        <ele>741</ele>
        <time>2021-07-11T06:17:09.000Z</time>
      </trkpt>
      <trkpt lat="45.20914" lon="5.72686">
        <ele>740.40002441406</ele>
        <time>2021-07-11T06:17:10.000Z</time>
      </trkpt>
      <trkpt lat="45.20913" lon="5.72687">
        <ele>740</ele>
        <time>2021-07-11T06:17:11.000Z</time>
      </trkpt>
      <trkpt lat="45.20912" lon="5.72686">
        <ele>740</ele>
        <time>2021-07-11T06:17:12.000Z</time>
      </trkpt>
      <trkpt lat="45.20911" lon="5.72686">
        <ele>739.79998779297</ele>
        <time>2021-07-11T06:17:13.000Z</time>
      </trkpt>
      <trkpt lat="45.20907" lon="5.72685">
        <ele>739.40002441406</ele>
        <time>2021-07-11T06:17:15.000Z</time>
      </trkpt>
      <trkpt lat="45.20906" lon="5.72685">
        <ele>738.79998779297</ele>
        <time>2021-07-11T06:17:16.000Z</time>
      </trkpt>
      <trkpt lat="45.20903" lon="5.72685">
        <ele>737.79998779297</ele>
        <time>2021-07-11T06:17:20.000Z</time>
      </trkpt>
      <trkpt lat="45.20896" lon="5.72684">
        <ele>736.59997558594</ele>
        <time>2021-07-11T06:17:25.000Z</time>
      </trkpt>
      <trkpt lat="45.20895" lon="5.72685">
        <ele>735.40002441406</ele>
        <time>2021-07-11T06:17:27.000Z</time>
      </trkpt>
      <trkpt lat="45.20891" lon="5.72686">
        <ele>735.20001220703</ele>
        <time>2021-07-11T06:17:29.000Z</time>
      </trkpt>
      <trkpt lat="45.20891" lon="5.72687">
        <ele>735.20001220703</ele>
        <time>2021-07-11T06:17:30.000Z</time>
      </trkpt>
      <trkpt lat="45.2089" lon="5.72687">
        <ele>735.20001220703</ele>
        <time>2021-07-11T06:17:31.000Z</time>
      </trkpt>
      <trkpt lat="45.20889" lon="5.72688">
        <ele>735.20001220703</ele>
        <time>2021-07-11T06:17:32.000Z</time>
      </trkpt>
      <trkpt lat="45.20888" lon="5.72689">
        <ele>734.40002441406</ele>
        <time>2021-07-11T06:17:33.000Z</time>
      </trkpt>
      <trkpt lat="45.20887" lon="5.72691">
        <ele>734.20001220703</ele>
        <time>2021-07-11T06:17:34.000Z</time>
      </trkpt>
      <trkpt lat="45.20887" lon="5.72692">
        <ele>733.79998779297</ele>
        <time>2021-07-11T06:17:35.000Z</time>
      </trkpt>
      <trkpt lat="45.20885" lon="5.72692">
        <ele>733</ele>
        <time>2021-07-11T06:17:37.000Z</time>
      </trkpt>
      <trkpt lat="45.20881" lon="5.72691">
        <ele>732.20001220703</ele>
        <time>2021-07-11T06:17:39.000Z</time>
      </trkpt>
      <trkpt lat="45.2088" lon="5.72692">
        <ele>731.79998779297</ele>
        <time>2021-07-11T06:17:40.000Z</time>
      </trkpt>
      <trkpt lat="45.20878" lon="5.72692">
        <ele>731.40002441406</ele>
        <time>2021-07-11T06:17:42.000Z</time>
      </trkpt>
      <trkpt lat="45.20877" lon="5.72692">
        <ele>731.40002441406</ele>
        <time>2021-07-11T06:17:43.000Z</time>
      </trkpt>
      <trkpt lat="45.20875" lon="5.72693">
        <ele>731</ele>
        <time>2021-07-11T06:17:45.000Z</time>
      </trkpt>
      <trkpt lat="45.20874" lon="5.72694">
        <ele>730.40002441406</ele>
        <time>2021-07-11T06:17:46.000Z</time>
      </trkpt>
      <trkpt lat="45.2087" lon="5.72695">
        <ele>730</ele>
        <time>2021-07-11T06:17:49.000Z</time>
      </trkpt>
      <trkpt lat="45.20866" lon="5.72693">
        <ele>729</ele>
        <time>2021-07-11T06:17:52.000Z</time>
      </trkpt>
      <trkpt lat="45.20863" lon="5.72693">
        <ele>729</ele>
        <time>2021-07-11T06:17:54.000Z</time>
      </trkpt>
      <trkpt lat="45.20861" lon="5.72692">
        <ele>728.59997558594</ele>
        <time>2021-07-11T06:17:55.000Z</time>
      </trkpt>
      <trkpt lat="45.20853" lon="5.72693">
        <ele>727.40002441406</ele>
        <time>2021-07-11T06:17:59.000Z</time>
      </trkpt>
      <trkpt lat="45.20847" lon="5.72695">
        <ele>726.40002441406</ele>
        <time>2021-07-11T06:18:02.000Z</time>
      </trkpt>
      <trkpt lat="45.20846" lon="5.72695">
        <ele>726</ele>
        <time>2021-07-11T06:18:03.000Z</time>
      </trkpt>
      <trkpt lat="45.20845" lon="5.72696">
        <ele>726</ele>
        <time>2021-07-11T06:18:04.000Z</time>
      </trkpt>
      <trkpt lat="45.20844" lon="5.72695">
        <ele>725.20001220703</ele>
        <time>2021-07-11T06:18:06.000Z</time>
      </trkpt>
      <trkpt lat="45.20843" lon="5.72692">
        <ele>724.59997558594</ele>
        <time>2021-07-11T06:18:08.000Z</time>
      </trkpt>
      <trkpt lat="45.20842" lon="5.72688">
        <ele>723.59997558594</ele>
        <time>2021-07-11T06:18:11.000Z</time>
      </trkpt>
      <trkpt lat="45.20841" lon="5.72687">
        <ele>723.40002441406</ele>
        <time>2021-07-11T06:18:12.000Z</time>
      </trkpt>
      <trkpt lat="45.2084" lon="5.72682">
        <ele>722.59997558594</ele>
        <time>2021-07-11T06:18:15.000Z</time>
      </trkpt>
      <trkpt lat="45.2084" lon="5.72678">
        <ele>721.20001220703</ele>
        <time>2021-07-11T06:18:19.000Z</time>
      </trkpt>
      <trkpt lat="45.20839" lon="5.72677">
        <ele>720.79998779297</ele>
        <time>2021-07-11T06:18:20.000Z</time>
      </trkpt>
      <trkpt lat="45.20837" lon="5.72673">
        <ele>720</ele>
        <time>2021-07-11T06:18:22.000Z</time>
      </trkpt>
      <trkpt lat="45.20835" lon="5.72669">
        <ele>719</ele>
        <time>2021-07-11T06:18:25.000Z</time>
      </trkpt>
      <trkpt lat="45.20833" lon="5.72667">
        <ele>717.59997558594</ele>
        <time>2021-07-11T06:18:27.000Z</time>
      </trkpt>
      <trkpt lat="45.20832" lon="5.72664">
        <ele>717.59997558594</ele>
        <time>2021-07-11T06:18:28.000Z</time>
      </trkpt>
      <trkpt lat="45.20831" lon="5.72664">
        <ele>717.40002441406</ele>
        <time>2021-07-11T06:18:30.000Z</time>
      </trkpt>
      <trkpt lat="45.20829" lon="5.72664">
        <ele>716.40002441406</ele>
        <time>2021-07-11T06:18:31.000Z</time>
      </trkpt>
      <trkpt lat="45.20828" lon="5.72665">
        <ele>716.40002441406</ele>
        <time>2021-07-11T06:18:32.000Z</time>
      </trkpt>
      <trkpt lat="45.20824" lon="5.72668">
        <ele>715.40002441406</ele>
        <time>2021-07-11T06:18:35.000Z</time>
      </trkpt>
      <trkpt lat="45.20821" lon="5.72668">
        <ele>715</ele>
        <time>2021-07-11T06:18:36.000Z</time>
      </trkpt>
      <trkpt lat="45.20821" lon="5.72669">
        <ele>714.59997558594</ele>
        <time>2021-07-11T06:18:37.000Z</time>
      </trkpt>
      <trkpt lat="45.2082" lon="5.72671">
        <ele>714.20001220703</ele>
        <time>2021-07-11T06:18:39.000Z</time>
      </trkpt>
      <trkpt lat="45.20819" lon="5.72674">
        <ele>713.20001220703</ele>
        <time>2021-07-11T06:18:42.000Z</time>
      </trkpt>
      <trkpt lat="45.20816" lon="5.72673">
        <ele>712.79998779297</ele>
        <time>2021-07-11T06:18:43.000Z</time>
      </trkpt>
      <trkpt lat="45.20814" lon="5.72673">
        <ele>712.20001220703</ele>
        <time>2021-07-11T06:18:46.000Z</time>
      </trkpt>
      <trkpt lat="45.20812" lon="5.72671">
        <ele>711.40002441406</ele>
        <time>2021-07-11T06:18:48.000Z</time>
      </trkpt>
      <trkpt lat="45.2081" lon="5.72668">
        <ele>710.79998779297</ele>
        <time>2021-07-11T06:18:50.000Z</time>
      </trkpt>
      <trkpt lat="45.20807" lon="5.72664">
        <ele>710</ele>
        <time>2021-07-11T06:18:52.000Z</time>
      </trkpt>
      <trkpt lat="45.20806" lon="5.72663">
        <ele>709.79998779297</ele>
        <time>2021-07-11T06:18:54.000Z</time>
      </trkpt>
      <trkpt lat="45.20805" lon="5.72658">
        <ele>708.40002441406</ele>
        <time>2021-07-11T06:18:58.000Z</time>
      </trkpt>
      <trkpt lat="45.20804" lon="5.72656">
        <ele>707.79998779297</ele>
        <time>2021-07-11T06:18:59.000Z</time>
      </trkpt>
      <trkpt lat="45.20803" lon="5.72654">
        <ele>707.40002441406</ele>
        <time>2021-07-11T06:19:01.000Z</time>
      </trkpt>
      <trkpt lat="45.20803" lon="5.7265">
        <ele>706.40002441406</ele>
        <time>2021-07-11T06:19:04.000Z</time>
      </trkpt>
      <trkpt lat="45.20803" lon="5.72649">
        <ele>706.20001220703</ele>
        <time>2021-07-11T06:19:05.000Z</time>
      </trkpt>
      <trkpt lat="45.20801" lon="5.72645">
        <ele>705</ele>
        <time>2021-07-11T06:19:08.000Z</time>
      </trkpt>
      <trkpt lat="45.208" lon="5.72644">
        <ele>704.79998779297</ele>
        <time>2021-07-11T06:19:09.000Z</time>
      </trkpt>
      <trkpt lat="45.20797" lon="5.7264">
        <ele>703.79998779297</ele>
        <time>2021-07-11T06:19:11.000Z</time>
      </trkpt>
      <trkpt lat="45.20796" lon="5.72637">
        <ele>703.79998779297</ele>
        <time>2021-07-11T06:19:12.000Z</time>
      </trkpt>
      <trkpt lat="45.20795" lon="5.72634">
        <ele>702.79998779297</ele>
        <time>2021-07-11T06:19:16.000Z</time>
      </trkpt>
      <trkpt lat="45.20793" lon="5.72635">
        <ele>702.40002441406</ele>
        <time>2021-07-11T06:19:20.000Z</time>
      </trkpt>
      <trkpt lat="45.20793" lon="5.72636">
        <ele>701.79998779297</ele>
        <time>2021-07-11T06:19:21.000Z</time>
      </trkpt>
      <trkpt lat="45.20794" lon="5.72638">
        <ele>700.79998779297</ele>
        <time>2021-07-11T06:19:22.000Z</time>
      </trkpt>
      <trkpt lat="45.20795" lon="5.72641">
        <ele>700.40002441406</ele>
        <time>2021-07-11T06:19:24.000Z</time>
      </trkpt>
      <trkpt lat="45.20795" lon="5.72642">
        <ele>699.79998779297</ele>
        <time>2021-07-11T06:19:25.000Z</time>
      </trkpt>
      <trkpt lat="45.20794" lon="5.72643">
        <ele>699.59997558594</ele>
        <time>2021-07-11T06:19:26.000Z</time>
      </trkpt>
      <trkpt lat="45.2079" lon="5.72644">
        <ele>698.20001220703</ele>
        <time>2021-07-11T06:19:31.000Z</time>
      </trkpt>
      <trkpt lat="45.20789" lon="5.72648">
        <ele>697.40002441406</ele>
        <time>2021-07-11T06:19:35.000Z</time>
      </trkpt>
      <trkpt lat="45.20788" lon="5.72648">
        <ele>696.79998779297</ele>
        <time>2021-07-11T06:19:36.000Z</time>
      </trkpt>
      <trkpt lat="45.20786" lon="5.72648">
        <ele>696.40002441406</ele>
        <time>2021-07-11T06:19:37.000Z</time>
      </trkpt>
      <trkpt lat="45.20784" lon="5.72647">
        <ele>696.20001220703</ele>
        <time>2021-07-11T06:19:39.000Z</time>
      </trkpt>
      <trkpt lat="45.20783" lon="5.72648">
        <ele>696</ele>
        <time>2021-07-11T06:19:40.000Z</time>
      </trkpt>
      <trkpt lat="45.20782" lon="5.72648">
        <ele>695</ele>
        <time>2021-07-11T06:19:41.000Z</time>
      </trkpt>
      <trkpt lat="45.20779" lon="5.72644">
        <ele>693.79998779297</ele>
        <time>2021-07-11T06:19:45.000Z</time>
      </trkpt>
      <trkpt lat="45.20779" lon="5.72643">
        <ele>692.79998779297</ele>
        <time>2021-07-11T06:19:46.000Z</time>
      </trkpt>
      <trkpt lat="45.20774" lon="5.72634">
        <ele>692.40002441406</ele>
        <time>2021-07-11T06:19:50.000Z</time>
      </trkpt>
      <trkpt lat="45.20773" lon="5.72632">
        <ele>691.40002441406</ele>
        <time>2021-07-11T06:19:51.000Z</time>
      </trkpt>
      <trkpt lat="45.20773" lon="5.72628">
        <ele>690.79998779297</ele>
        <time>2021-07-11T06:19:53.000Z</time>
      </trkpt>
      <trkpt lat="45.20773" lon="5.72626">
        <ele>690.40002441406</ele>
        <time>2021-07-11T06:19:54.000Z</time>
      </trkpt>
      <trkpt lat="45.20772" lon="5.72624">
        <ele>690</ele>
        <time>2021-07-11T06:19:55.000Z</time>
      </trkpt>
      <trkpt lat="45.20771" lon="5.72619">
        <ele>688.20001220703</ele>
        <time>2021-07-11T06:19:59.000Z</time>
      </trkpt>
      <trkpt lat="45.20769" lon="5.72617">
        <ele>688</ele>
        <time>2021-07-11T06:20:01.000Z</time>
      </trkpt>
      <trkpt lat="45.20769" lon="5.72618">
        <ele>687.59997558594</ele>
        <time>2021-07-11T06:20:03.000Z</time>
      </trkpt>
      <trkpt lat="45.20767" lon="5.72617">
        <ele>687.20001220703</ele>
        <time>2021-07-11T06:20:04.000Z</time>
      </trkpt>
      <trkpt lat="45.20765" lon="5.72617">
        <ele>686.59997558594</ele>
        <time>2021-07-11T06:20:05.000Z</time>
      </trkpt>
      <trkpt lat="45.20763" lon="5.72617">
        <ele>685.59997558594</ele>
        <time>2021-07-11T06:20:06.000Z</time>
      </trkpt>
      <trkpt lat="45.20761" lon="5.72617">
        <ele>685.40002441406</ele>
        <time>2021-07-11T06:20:07.000Z</time>
      </trkpt>
      <trkpt lat="45.20759" lon="5.72618">
        <ele>684.79998779297</ele>
        <time>2021-07-11T06:20:09.000Z</time>
      </trkpt>
      <trkpt lat="45.20757" lon="5.72618">
        <ele>684.59997558594</ele>
        <time>2021-07-11T06:20:10.000Z</time>
      </trkpt>
      <trkpt lat="45.20751" lon="5.72619">
        <ele>683.40002441406</ele>
        <time>2021-07-11T06:20:14.000Z</time>
      </trkpt>
      <trkpt lat="45.2075" lon="5.72619">
        <ele>683.20001220703</ele>
        <time>2021-07-11T06:20:15.000Z</time>
      </trkpt>
      <trkpt lat="45.20747" lon="5.7262">
        <ele>681.79998779297</ele>
        <time>2021-07-11T06:20:18.000Z</time>
      </trkpt>
      <trkpt lat="45.20745" lon="5.72619">
        <ele>681.59997558594</ele>
        <time>2021-07-11T06:20:20.000Z</time>
      </trkpt>
      <trkpt lat="45.20744" lon="5.72616">
        <ele>680.40002441406</ele>
        <time>2021-07-11T06:20:22.000Z</time>
      </trkpt>
      <trkpt lat="45.20741" lon="5.7261">
        <ele>679.40002441406</ele>
        <time>2021-07-11T06:20:27.000Z</time>
      </trkpt>
      <trkpt lat="45.2074" lon="5.72607">
        <ele>678.40002441406</ele>
        <time>2021-07-11T06:20:29.000Z</time>
      </trkpt>
      <trkpt lat="45.20738" lon="5.72604">
        <ele>677.59997558594</ele>
        <time>2021-07-11T06:20:31.000Z</time>
      </trkpt>
      <trkpt lat="45.20738" lon="5.72604">
        <ele>677.40002441406</ele>
        <time>2021-07-11T06:20:32.000Z</time>
      </trkpt>
      <trkpt lat="45.20738" lon="5.72602">
        <ele>677.40002441406</ele>
        <time>2021-07-11T06:20:33.000Z</time>
      </trkpt>
      <trkpt lat="45.20738" lon="5.72601">
        <ele>676.59997558594</ele>
        <time>2021-07-11T06:20:34.000Z</time>
      </trkpt>
      <trkpt lat="45.20735" lon="5.72598">
        <ele>675.20001220703</ele>
        <time>2021-07-11T06:20:38.000Z</time>
      </trkpt>
      <trkpt lat="45.20736" lon="5.72597">
        <ele>675</ele>
        <time>2021-07-11T06:20:40.000Z</time>
      </trkpt>
      <trkpt lat="45.20735" lon="5.72594">
        <ele>674.20001220703</ele>
        <time>2021-07-11T06:20:42.000Z</time>
      </trkpt>
      <trkpt lat="45.20734" lon="5.72592">
        <ele>673.59997558594</ele>
        <time>2021-07-11T06:20:44.000Z</time>
      </trkpt>
      <trkpt lat="45.20732" lon="5.72591">
        <ele>672.59997558594</ele>
        <time>2021-07-11T06:20:46.000Z</time>
      </trkpt>
      <trkpt lat="45.20731" lon="5.7259">
        <ele>672.20001220703</ele>
        <time>2021-07-11T06:20:47.000Z</time>
      </trkpt>
      <trkpt lat="45.20728" lon="5.7259">
        <ele>671.40002441406</ele>
        <time>2021-07-11T06:20:49.000Z</time>
      </trkpt>
      <trkpt lat="45.20725" lon="5.72589">
        <ele>671.20001220703</ele>
        <time>2021-07-11T06:20:50.000Z</time>
      </trkpt>
      <trkpt lat="45.20722" lon="5.72588">
        <ele>670.79998779297</ele>
        <time>2021-07-11T06:20:51.000Z</time>
      </trkpt>
      <trkpt lat="45.20721" lon="5.72588">
        <ele>670.79998779297</ele>
        <time>2021-07-11T06:20:52.000Z</time>
      </trkpt>
      <trkpt lat="45.20719" lon="5.72587">
        <ele>669.59997558594</ele>
        <time>2021-07-11T06:20:53.000Z</time>
      </trkpt>
      <trkpt lat="45.20716" lon="5.72584">
        <ele>669</ele>
        <time>2021-07-11T06:20:55.000Z</time>
      </trkpt>
      <trkpt lat="45.20714" lon="5.72583">
        <ele>667.79998779297</ele>
        <time>2021-07-11T06:20:58.000Z</time>
      </trkpt>
      <trkpt lat="45.2071" lon="5.72579">
        <ele>667.20001220703</ele>
        <time>2021-07-11T06:21:01.000Z</time>
      </trkpt>
      <trkpt lat="45.20706" lon="5.72575">
        <ele>666.20001220703</ele>
        <time>2021-07-11T06:21:05.000Z</time>
      </trkpt>
      <trkpt lat="45.20705" lon="5.72575">
        <ele>665.59997558594</ele>
        <time>2021-07-11T06:21:06.000Z</time>
      </trkpt>
      <trkpt lat="45.20696" lon="5.72574">
        <ele>664.59997558594</ele>
        <time>2021-07-11T06:21:10.000Z</time>
      </trkpt>
      <trkpt lat="45.20695" lon="5.72574">
        <ele>664</ele>
        <time>2021-07-11T06:21:11.000Z</time>
      </trkpt>
      <trkpt lat="45.20693" lon="5.72575">
        <ele>663.59997558594</ele>
        <time>2021-07-11T06:21:13.000Z</time>
      </trkpt>
      <trkpt lat="45.2069" lon="5.72576">
        <ele>662.59997558594</ele>
        <time>2021-07-11T06:21:16.000Z</time>
      </trkpt>
      <trkpt lat="45.20688" lon="5.72576">
        <ele>662.59997558594</ele>
        <time>2021-07-11T06:21:17.000Z</time>
      </trkpt>
      <trkpt lat="45.20682" lon="5.72579">
        <ele>661.20001220703</ele>
        <time>2021-07-11T06:21:20.000Z</time>
      </trkpt>
      <trkpt lat="45.20682" lon="5.72582">
        <ele>661.20001220703</ele>
        <time>2021-07-11T06:21:21.000Z</time>
      </trkpt>
      <trkpt lat="45.20681" lon="5.72584">
        <ele>661</ele>
        <time>2021-07-11T06:21:22.000Z</time>
      </trkpt>
      <trkpt lat="45.20677" lon="5.72589">
        <ele>660.20001220703</ele>
        <time>2021-07-11T06:21:24.000Z</time>
      </trkpt>
      <trkpt lat="45.20675" lon="5.72591">
        <ele>659.79998779297</ele>
        <time>2021-07-11T06:21:25.000Z</time>
      </trkpt>
      <trkpt lat="45.20672" lon="5.72591">
        <ele>659.40002441406</ele>
        <time>2021-07-11T06:21:26.000Z</time>
      </trkpt>
      <trkpt lat="45.20671" lon="5.72592">
        <ele>659.20001220703</ele>
        <time>2021-07-11T06:21:27.000Z</time>
      </trkpt>
      <trkpt lat="45.20669" lon="5.72594">
        <ele>659.20001220703</ele>
        <time>2021-07-11T06:21:28.000Z</time>
      </trkpt>
      <trkpt lat="45.20668" lon="5.72596">
        <ele>658.79998779297</ele>
        <time>2021-07-11T06:21:29.000Z</time>
      </trkpt>
      <trkpt lat="45.20666" lon="5.72598">
        <ele>658.79998779297</ele>
        <time>2021-07-11T06:21:30.000Z</time>
      </trkpt>
      <trkpt lat="45.20661" lon="5.72602">
        <ele>658.40002441406</ele>
        <time>2021-07-11T06:21:32.000Z</time>
      </trkpt>
      <trkpt lat="45.2066" lon="5.72604">
        <ele>658.40002441406</ele>
        <time>2021-07-11T06:21:33.000Z</time>
      </trkpt>
      <trkpt lat="45.20658" lon="5.72606">
        <ele>658.40002441406</ele>
        <time>2021-07-11T06:21:34.000Z</time>
      </trkpt>
      <trkpt lat="45.20656" lon="5.72607">
        <ele>657.59997558594</ele>
        <time>2021-07-11T06:21:35.000Z</time>
      </trkpt>
      <trkpt lat="45.20654" lon="5.72608">
        <ele>657.59997558594</ele>
        <time>2021-07-11T06:21:36.000Z</time>
      </trkpt>
      <trkpt lat="45.20651" lon="5.72609">
        <ele>657.40002441406</ele>
        <time>2021-07-11T06:21:38.000Z</time>
      </trkpt>
      <trkpt lat="45.20649" lon="5.72609">
        <ele>657.40002441406</ele>
        <time>2021-07-11T06:21:39.000Z</time>
      </trkpt>
      <trkpt lat="45.20643" lon="5.72607">
        <ele>657</ele>
        <time>2021-07-11T06:21:42.000Z</time>
      </trkpt>
      <trkpt lat="45.20642" lon="5.72607">
        <ele>656.40002441406</ele>
        <time>2021-07-11T06:21:43.000Z</time>
      </trkpt>
      <trkpt lat="45.20629" lon="5.72602">
        <ele>655.40002441406</ele>
        <time>2021-07-11T06:21:48.000Z</time>
      </trkpt>
      <trkpt lat="45.20624" lon="5.72599">
        <ele>654.20001220703</ele>
        <time>2021-07-11T06:21:50.000Z</time>
      </trkpt>
      <trkpt lat="45.20617" lon="5.72596">
        <ele>653.79998779297</ele>
        <time>2021-07-11T06:21:52.000Z</time>
      </trkpt>
      <trkpt lat="45.20608" lon="5.72592">
        <ele>653.59997558594</ele>
        <time>2021-07-11T06:21:55.000Z</time>
      </trkpt>
      <trkpt lat="45.20604" lon="5.7259">
        <ele>653.59997558594</ele>
        <time>2021-07-11T06:21:57.000Z</time>
      </trkpt>
      <trkpt lat="45.20602" lon="5.72589">
        <ele>653.20001220703</ele>
        <time>2021-07-11T06:21:58.000Z</time>
      </trkpt>
      <trkpt lat="45.20595" lon="5.7258">
        <ele>652.40002441406</ele>
        <time>2021-07-11T06:22:03.000Z</time>
      </trkpt>
      <trkpt lat="45.20595" lon="5.72577">
        <ele>652.40002441406</ele>
        <time>2021-07-11T06:22:04.000Z</time>
      </trkpt>
      <trkpt lat="45.20596" lon="5.72575">
        <ele>652.40002441406</ele>
        <time>2021-07-11T06:22:05.000Z</time>
      </trkpt>
      <trkpt lat="45.20599" lon="5.7257">
        <ele>652.40002441406</ele>
        <time>2021-07-11T06:22:08.000Z</time>
      </trkpt>
      <trkpt lat="45.20599" lon="5.72565">
        <ele>652.59997558594</ele>
        <time>2021-07-11T06:22:10.000Z</time>
      </trkpt>
      <trkpt lat="45.206" lon="5.72556">
        <ele>653.79998779297</ele>
        <time>2021-07-11T06:22:14.000Z</time>
      </trkpt>
      <trkpt lat="45.20599" lon="5.72553">
        <ele>653.79998779297</ele>
        <time>2021-07-11T06:22:16.000Z</time>
      </trkpt>
      <trkpt lat="45.20597" lon="5.7255">
        <ele>654</ele>
        <time>2021-07-11T06:22:18.000Z</time>
      </trkpt>
      <trkpt lat="45.20596" lon="5.72545">
        <ele>654.40002441406</ele>
        <time>2021-07-11T06:22:20.000Z</time>
      </trkpt>
      <trkpt lat="45.20594" lon="5.72541">
        <ele>654.40002441406</ele>
        <time>2021-07-11T06:22:22.000Z</time>
      </trkpt>
      <trkpt lat="45.20591" lon="5.72529">
        <ele>654.40002441406</ele>
        <time>2021-07-11T06:22:26.000Z</time>
      </trkpt>
      <trkpt lat="45.2059" lon="5.72527">
        <ele>654.40002441406</ele>
        <time>2021-07-11T06:22:28.000Z</time>
      </trkpt>
      <trkpt lat="45.20588" lon="5.7252">
        <ele>654.40002441406</ele>
        <time>2021-07-11T06:22:31.000Z</time>
      </trkpt>
      <trkpt lat="45.20588" lon="5.72515">
        <ele>654.20001220703</ele>
        <time>2021-07-11T06:22:33.000Z</time>
      </trkpt>
      <trkpt lat="45.20588" lon="5.7251">
        <ele>654.20001220703</ele>
        <time>2021-07-11T06:22:35.000Z</time>
      </trkpt>
      <trkpt lat="45.20585" lon="5.72504">
        <ele>654</ele>
        <time>2021-07-11T06:22:38.000Z</time>
      </trkpt>
      <trkpt lat="45.20574" lon="5.72495">
        <ele>653.40002441406</ele>
        <time>2021-07-11T06:22:44.000Z</time>
      </trkpt>
      <trkpt lat="45.20572" lon="5.72494">
        <ele>653</ele>
        <time>2021-07-11T06:22:45.000Z</time>
      </trkpt>
      <trkpt lat="45.20565" lon="5.72489">
        <ele>652.59997558594</ele>
        <time>2021-07-11T06:22:50.000Z</time>
      </trkpt>
      <trkpt lat="45.20562" lon="5.72486">
        <ele>652.59997558594</ele>
        <time>2021-07-11T06:22:53.000Z</time>
      </trkpt>
      <trkpt lat="45.20561" lon="5.72484">
        <ele>652.59997558594</ele>
        <time>2021-07-11T06:22:55.000Z</time>
      </trkpt>
      <trkpt lat="45.20561" lon="5.72483">
        <ele>652.59997558594</ele>
        <time>2021-07-11T06:22:56.000Z</time>
      </trkpt>
      <trkpt lat="45.20558" lon="5.7248">
        <ele>653.20001220703</ele>
        <time>2021-07-11T06:23:02.000Z</time>
      </trkpt>
      <trkpt lat="45.20556" lon="5.72479">
        <ele>653.20001220703</ele>
        <time>2021-07-11T06:23:03.000Z</time>
      </trkpt>
      <trkpt lat="45.20553" lon="5.72476">
        <ele>653.59997558594</ele>
        <time>2021-07-11T06:23:05.000Z</time>
      </trkpt>
      <trkpt lat="45.20551" lon="5.72474">
        <ele>653.59997558594</ele>
        <time>2021-07-11T06:23:06.000Z</time>
      </trkpt>
      <trkpt lat="45.20549" lon="5.72471">
        <ele>653.79998779297</ele>
        <time>2021-07-11T06:23:08.000Z</time>
      </trkpt>
      <trkpt lat="45.20548" lon="5.72469">
        <ele>654</ele>
        <time>2021-07-11T06:23:09.000Z</time>
      </trkpt>
      <trkpt lat="45.20546" lon="5.72467">
        <ele>654</ele>
        <time>2021-07-11T06:23:10.000Z</time>
      </trkpt>
      <trkpt lat="45.20541" lon="5.72462">
        <ele>654.40002441406</ele>
        <time>2021-07-11T06:23:13.000Z</time>
      </trkpt>
      <trkpt lat="45.20536" lon="5.72459">
        <ele>655.20001220703</ele>
        <time>2021-07-11T06:23:16.000Z</time>
      </trkpt>
      <trkpt lat="45.20533" lon="5.72458">
        <ele>655.59997558594</ele>
        <time>2021-07-11T06:23:18.000Z</time>
      </trkpt>
      <trkpt lat="45.20527" lon="5.72455">
        <ele>655.79998779297</ele>
        <time>2021-07-11T06:23:22.000Z</time>
      </trkpt>
      <trkpt lat="45.20521" lon="5.72451">
        <ele>655.79998779297</ele>
        <time>2021-07-11T06:23:27.000Z</time>
      </trkpt>
      <trkpt lat="45.20519" lon="5.7245">
        <ele>655.79998779297</ele>
        <time>2021-07-11T06:23:28.000Z</time>
      </trkpt>
      <trkpt lat="45.20517" lon="5.7245">
        <ele>656</ele>
        <time>2021-07-11T06:23:30.000Z</time>
      </trkpt>
      <trkpt lat="45.20514" lon="5.72449">
        <ele>656</ele>
        <time>2021-07-11T06:23:32.000Z</time>
      </trkpt>
      <trkpt lat="45.2051" lon="5.72448">
        <ele>656</ele>
        <time>2021-07-11T06:23:34.000Z</time>
      </trkpt>
      <trkpt lat="45.20509" lon="5.72447">
        <ele>656</ele>
        <time>2021-07-11T06:23:35.000Z</time>
      </trkpt>
      <trkpt lat="45.20498" lon="5.72439">
        <ele>655.20001220703</ele>
        <time>2021-07-11T06:23:41.000Z</time>
      </trkpt>
      <trkpt lat="45.20491" lon="5.72435">
        <ele>654.59997558594</ele>
        <time>2021-07-11T06:23:45.000Z</time>
      </trkpt>
      <trkpt lat="45.20489" lon="5.72436">
        <ele>654.59997558594</ele>
        <time>2021-07-11T06:23:46.000Z</time>
      </trkpt>
      <trkpt lat="45.20477" lon="5.72442">
        <ele>654.20001220703</ele>
        <time>2021-07-11T06:23:51.000Z</time>
      </trkpt>
      <trkpt lat="45.20474" lon="5.72441">
        <ele>654.20001220703</ele>
        <time>2021-07-11T06:23:52.000Z</time>
      </trkpt>
      <trkpt lat="45.20469" lon="5.72438">
        <ele>654.20001220703</ele>
        <time>2021-07-11T06:23:54.000Z</time>
      </trkpt>
      <trkpt lat="45.20461" lon="5.72432">
        <ele>654</ele>
        <time>2021-07-11T06:23:58.000Z</time>
      </trkpt>
      <trkpt lat="45.20459" lon="5.72432">
        <ele>654.20001220703</ele>
        <time>2021-07-11T06:23:59.000Z</time>
      </trkpt>
      <trkpt lat="45.20457" lon="5.72431">
        <ele>654</ele>
        <time>2021-07-11T06:24:00.000Z</time>
      </trkpt>
      <trkpt lat="45.20453" lon="5.72429">
        <ele>653.79998779297</ele>
        <time>2021-07-11T06:24:03.000Z</time>
      </trkpt>
      <trkpt lat="45.20439" lon="5.72429">
        <ele>653.59997558594</ele>
        <time>2021-07-11T06:24:10.000Z</time>
      </trkpt>
      <trkpt lat="45.20433" lon="5.72428">
        <ele>653.59997558594</ele>
        <time>2021-07-11T06:24:13.000Z</time>
      </trkpt>
      <trkpt lat="45.20431" lon="5.7243">
        <ele>653.79998779297</ele>
        <time>2021-07-11T06:24:15.000Z</time>
      </trkpt>
      <trkpt lat="45.20429" lon="5.7243">
        <ele>654</ele>
        <time>2021-07-11T06:24:16.000Z</time>
      </trkpt>
      <trkpt lat="45.20416" lon="5.72431">
        <ele>654.40002441406</ele>
        <time>2021-07-11T06:24:21.000Z</time>
      </trkpt>
      <trkpt lat="45.20402" lon="5.72433">
        <ele>654.40002441406</ele>
        <time>2021-07-11T06:24:27.000Z</time>
      </trkpt>
      <trkpt lat="45.20395" lon="5.72431">
        <ele>654.20001220703</ele>
        <time>2021-07-11T06:24:30.000Z</time>
      </trkpt>
      <trkpt lat="45.2039" lon="5.72431">
        <ele>653.79998779297</ele>
        <time>2021-07-11T06:24:32.000Z</time>
      </trkpt>
      <trkpt lat="45.2039" lon="5.72432">
        <ele>653.59997558594</ele>
        <time>2021-07-11T06:24:33.000Z</time>
      </trkpt>
      <trkpt lat="45.2039" lon="5.72434">
        <ele>653.20001220703</ele>
        <time>2021-07-11T06:24:34.000Z</time>
      </trkpt>
      <trkpt lat="45.2039" lon="5.72436">
        <ele>653</ele>
        <time>2021-07-11T06:24:35.000Z</time>
      </trkpt>
      <trkpt lat="45.2039" lon="5.72439">
        <ele>652.79998779297</ele>
        <time>2021-07-11T06:24:37.000Z</time>
      </trkpt>
      <trkpt lat="45.20395" lon="5.72441">
        <ele>652.59997558594</ele>
        <time>2021-07-11T06:24:41.000Z</time>
      </trkpt>
      <trkpt lat="45.20396" lon="5.72441">
        <ele>652.59997558594</ele>
        <time>2021-07-11T06:24:42.000Z</time>
      </trkpt>
      <trkpt lat="45.20399" lon="5.72439">
        <ele>652.40002441406</ele>
        <time>2021-07-11T06:24:44.000Z</time>
      </trkpt>
      <trkpt lat="45.204" lon="5.72439">
        <ele>652.20001220703</ele>
        <time>2021-07-11T06:24:45.000Z</time>
      </trkpt>
      <trkpt lat="45.20402" lon="5.72439">
        <ele>652.20001220703</ele>
        <time>2021-07-11T06:24:46.000Z</time>
      </trkpt>
      <trkpt lat="45.20404" lon="5.72439">
        <ele>652</ele>
        <time>2021-07-11T06:24:47.000Z</time>
      </trkpt>
      <trkpt lat="45.20405" lon="5.72438">
        <ele>651.79998779297</ele>
        <time>2021-07-11T06:24:48.000Z</time>
      </trkpt>
      <trkpt lat="45.20406" lon="5.72441">
        <ele>651.40002441406</ele>
        <time>2021-07-11T06:24:50.000Z</time>
      </trkpt>
      <trkpt lat="45.20406" lon="5.72442">
        <ele>651.20001220703</ele>
        <time>2021-07-11T06:24:51.000Z</time>
      </trkpt>
      <trkpt lat="45.20406" lon="5.72443">
        <ele>651</ele>
        <time>2021-07-11T06:24:52.000Z</time>
      </trkpt>
      <trkpt lat="45.20408" lon="5.72444">
        <ele>650</ele>
        <time>2021-07-11T06:24:54.000Z</time>
      </trkpt>
      <trkpt lat="45.20409" lon="5.72444">
        <ele>649.59997558594</ele>
        <time>2021-07-11T06:24:55.000Z</time>
      </trkpt>
      <trkpt lat="45.20415" lon="5.72446">
        <ele>649.40002441406</ele>
        <time>2021-07-11T06:24:58.000Z</time>
      </trkpt>
      <trkpt lat="45.20417" lon="5.72448">
        <ele>649</ele>
        <time>2021-07-11T06:24:59.000Z</time>
      </trkpt>
      <trkpt lat="45.20422" lon="5.72455">
        <ele>648.20001220703</ele>
        <time>2021-07-11T06:25:02.000Z</time>
      </trkpt>
      <trkpt lat="45.20421" lon="5.72457">
        <ele>648</ele>
        <time>2021-07-11T06:25:03.000Z</time>
      </trkpt>
      <trkpt lat="45.2042" lon="5.72461">
        <ele>647.79998779297</ele>
        <time>2021-07-11T06:25:06.000Z</time>
      </trkpt>
      <trkpt lat="45.2042" lon="5.72462">
        <ele>647.79998779297</ele>
        <time>2021-07-11T06:25:07.000Z</time>
      </trkpt>
      <trkpt lat="45.20421" lon="5.72464">
        <ele>647.79998779297</ele>
        <time>2021-07-11T06:25:13.000Z</time>
      </trkpt>
      <trkpt lat="45.20421" lon="5.72466">
        <ele>647.79998779297</ele>
        <time>2021-07-11T06:25:18.000Z</time>
      </trkpt>
      <trkpt lat="45.2042" lon="5.72465">
        <ele>648</ele>
        <time>2021-07-11T06:25:22.000Z</time>
      </trkpt>
      <trkpt lat="45.2042" lon="5.72465">
        <ele>648</ele>
        <time>2021-07-11T06:25:24.000Z</time>
      </trkpt>
      <trkpt lat="45.20421" lon="5.72465">
        <ele>648</ele>
        <time>2021-07-11T06:25:31.000Z</time>
      </trkpt>
      <trkpt lat="45.20421" lon="5.72465">
        <ele>648</ele>
        <time>2021-07-11T06:25:36.000Z</time>
      </trkpt>
      <trkpt lat="45.20421" lon="5.72466">
        <ele>648</ele>
        <time>2021-07-11T06:25:38.000Z</time>
      </trkpt>
      <trkpt lat="45.20421" lon="5.72466">
        <ele>648</ele>
        <time>2021-07-11T06:25:40.000Z</time>
      </trkpt>
      <trkpt lat="45.20421" lon="5.72466">
        <ele>648</ele>
        <time>2021-07-11T06:25:42.000Z</time>
      </trkpt>
      <trkpt lat="45.2042" lon="5.72466">
        <ele>648</ele>
        <time>2021-07-11T06:25:43.000Z</time>
      </trkpt>
      <trkpt lat="45.2042" lon="5.72466">
        <ele>648</ele>
        <time>2021-07-11T06:25:45.000Z</time>
      </trkpt>
      <trkpt lat="45.2042" lon="5.72466">
        <ele>648</ele>
        <time>2021-07-11T06:25:46.000Z</time>
      </trkpt>
      <trkpt lat="45.2042" lon="5.72466">
        <ele>648</ele>
        <time>2021-07-11T06:25:47.000Z</time>
      </trkpt>
      <trkpt lat="45.20419" lon="5.72466">
        <ele>648</ele>
        <time>2021-07-11T06:25:49.000Z</time>
      </trkpt>
      <trkpt lat="45.20419" lon="5.72466">
        <ele>648</ele>
        <time>2021-07-11T06:25:51.000Z</time>
      </trkpt>
      <trkpt lat="45.20422" lon="5.72464">
        <ele>647.59997558594</ele>
        <time>2021-07-11T06:25:54.000Z</time>
      </trkpt>
      <trkpt lat="45.20429" lon="5.72468">
        <ele>647.59997558594</ele>
        <time>2021-07-11T06:26:00.000Z</time>
      </trkpt>
      <trkpt lat="45.20429" lon="5.72468">
        <ele>647.79998779297</ele>
        <time>2021-07-11T06:26:02.000Z</time>
      </trkpt>
      <trkpt lat="45.20431" lon="5.72469">
        <ele>648.20001220703</ele>
        <time>2021-07-11T06:26:05.000Z</time>
      </trkpt>
      <trkpt lat="45.20433" lon="5.7247">
        <ele>648.40002441406</ele>
        <time>2021-07-11T06:26:07.000Z</time>
      </trkpt>
      <trkpt lat="45.20435" lon="5.72471">
        <ele>648.40002441406</ele>
        <time>2021-07-11T06:26:09.000Z</time>
      </trkpt>
      <trkpt lat="45.20437" lon="5.72472">
        <ele>648.79998779297</ele>
        <time>2021-07-11T06:26:11.000Z</time>
      </trkpt>
      <trkpt lat="45.2044" lon="5.72473">
        <ele>648.79998779297</ele>
        <time>2021-07-11T06:26:14.000Z</time>
      </trkpt>
      <trkpt lat="45.20442" lon="5.72474">
        <ele>648.59997558594</ele>
        <time>2021-07-11T06:26:15.000Z</time>
      </trkpt>
      <trkpt lat="45.20444" lon="5.72474">
        <ele>648.59997558594</ele>
        <time>2021-07-11T06:26:17.000Z</time>
      </trkpt>
      <trkpt lat="45.20452" lon="5.72475">
        <ele>648.40002441406</ele>
        <time>2021-07-11T06:26:21.000Z</time>
      </trkpt>
      <trkpt lat="45.2046" lon="5.72478">
        <ele>648.40002441406</ele>
        <time>2021-07-11T06:26:25.000Z</time>
      </trkpt>
      <trkpt lat="45.20465" lon="5.72479">
        <ele>648.79998779297</ele>
        <time>2021-07-11T06:26:27.000Z</time>
      </trkpt>
      <trkpt lat="45.20467" lon="5.72481">
        <ele>648.79998779297</ele>
        <time>2021-07-11T06:26:28.000Z</time>
      </trkpt>
      <trkpt lat="45.20477" lon="5.72492">
        <ele>649</ele>
        <time>2021-07-11T06:26:32.000Z</time>
      </trkpt>
      <trkpt lat="45.2048" lon="5.72499">
        <ele>649.40002441406</ele>
        <time>2021-07-11T06:26:34.000Z</time>
      </trkpt>
      <trkpt lat="45.20481" lon="5.7251">
        <ele>649.40002441406</ele>
        <time>2021-07-11T06:26:37.000Z</time>
      </trkpt>
      <trkpt lat="45.20481" lon="5.72514">
        <ele>649.40002441406</ele>
        <time>2021-07-11T06:26:38.000Z</time>
      </trkpt>
      <trkpt lat="45.20482" lon="5.72521">
        <ele>649.40002441406</ele>
        <time>2021-07-11T06:26:40.000Z</time>
      </trkpt>
      <trkpt lat="45.20485" lon="5.72527">
        <ele>648.79998779297</ele>
        <time>2021-07-11T06:26:42.000Z</time>
      </trkpt>
      <trkpt lat="45.20487" lon="5.72531">
        <ele>648.20001220703</ele>
        <time>2021-07-11T06:26:43.000Z</time>
      </trkpt>
      <trkpt lat="45.20492" lon="5.72546">
        <ele>646.20001220703</ele>
        <time>2021-07-11T06:26:48.000Z</time>
      </trkpt>
      <trkpt lat="45.20494" lon="5.72549">
        <ele>645.59997558594</ele>
        <time>2021-07-11T06:26:49.000Z</time>
      </trkpt>
      <trkpt lat="45.20495" lon="5.72553">
        <ele>645</ele>
        <time>2021-07-11T06:26:51.000Z</time>
      </trkpt>
      <trkpt lat="45.20494" lon="5.72559">
        <ele>644.59997558594</ele>
        <time>2021-07-11T06:26:53.000Z</time>
      </trkpt>
      <trkpt lat="45.20492" lon="5.72561">
        <ele>644.59997558594</ele>
        <time>2021-07-11T06:26:54.000Z</time>
      </trkpt>
      <trkpt lat="45.20489" lon="5.72562">
        <ele>644.40002441406</ele>
        <time>2021-07-11T06:26:55.000Z</time>
      </trkpt>
      <trkpt lat="45.20486" lon="5.72562">
        <ele>644.20001220703</ele>
        <time>2021-07-11T06:26:56.000Z</time>
      </trkpt>
      <trkpt lat="45.20484" lon="5.72561">
        <ele>643.79998779297</ele>
        <time>2021-07-11T06:26:57.000Z</time>
      </trkpt>
      <trkpt lat="45.20481" lon="5.72559">
        <ele>643.20001220703</ele>
        <time>2021-07-11T06:26:58.000Z</time>
      </trkpt>
      <trkpt lat="45.20477" lon="5.72556">
        <ele>642.59997558594</ele>
        <time>2021-07-11T06:27:00.000Z</time>
      </trkpt>
      <trkpt lat="45.20472" lon="5.72552">
        <ele>642.59997558594</ele>
        <time>2021-07-11T06:27:02.000Z</time>
      </trkpt>
      <trkpt lat="45.2047" lon="5.7255">
        <ele>642.40002441406</ele>
        <time>2021-07-11T06:27:03.000Z</time>
      </trkpt>
      <trkpt lat="45.20465" lon="5.72546">
        <ele>642</ele>
        <time>2021-07-11T06:27:05.000Z</time>
      </trkpt>
      <trkpt lat="45.20463" lon="5.72545">
        <ele>641.59997558594</ele>
        <time>2021-07-11T06:27:06.000Z</time>
      </trkpt>
      <trkpt lat="45.20461" lon="5.72543">
        <ele>641.59997558594</ele>
        <time>2021-07-11T06:27:07.000Z</time>
      </trkpt>
      <trkpt lat="45.20455" lon="5.72536">
        <ele>640.40002441406</ele>
        <time>2021-07-11T06:27:10.000Z</time>
      </trkpt>
      <trkpt lat="45.2045" lon="5.72528">
        <ele>639</ele>
        <time>2021-07-11T06:27:14.000Z</time>
      </trkpt>
      <trkpt lat="45.20448" lon="5.72526">
        <ele>639</ele>
        <time>2021-07-11T06:27:15.000Z</time>
      </trkpt>
      <trkpt lat="45.20444" lon="5.72523">
        <ele>638.40002441406</ele>
        <time>2021-07-11T06:27:17.000Z</time>
      </trkpt>
      <trkpt lat="45.20442" lon="5.72525">
        <ele>637.79998779297</ele>
        <time>2021-07-11T06:27:19.000Z</time>
      </trkpt>
      <trkpt lat="45.20444" lon="5.72534">
        <ele>636.59997558594</ele>
        <time>2021-07-11T06:27:23.000Z</time>
      </trkpt>
      <trkpt lat="45.20444" lon="5.72536">
        <ele>636.59997558594</ele>
        <time>2021-07-11T06:27:24.000Z</time>
      </trkpt>
      <trkpt lat="45.20444" lon="5.72539">
        <ele>636.40002441406</ele>
        <time>2021-07-11T06:27:26.000Z</time>
      </trkpt>
      <trkpt lat="45.20445" lon="5.72544">
        <ele>635.40002441406</ele>
        <time>2021-07-11T06:27:29.000Z</time>
      </trkpt>
      <trkpt lat="45.20445" lon="5.72546">
        <ele>635.20001220703</ele>
        <time>2021-07-11T06:27:30.000Z</time>
      </trkpt>
      <trkpt lat="45.20447" lon="5.72552">
        <ele>634.20001220703</ele>
        <time>2021-07-11T06:27:33.000Z</time>
      </trkpt>
      <trkpt lat="45.20447" lon="5.72554">
        <ele>634</ele>
        <time>2021-07-11T06:27:34.000Z</time>
      </trkpt>
      <trkpt lat="45.20448" lon="5.72555">
        <ele>634</ele>
        <time>2021-07-11T06:27:35.000Z</time>
      </trkpt>
      <trkpt lat="45.20452" lon="5.72566">
        <ele>633.20001220703</ele>
        <time>2021-07-11T06:27:39.000Z</time>
      </trkpt>
      <trkpt lat="45.20455" lon="5.72571">
        <ele>632.59997558594</ele>
        <time>2021-07-11T06:27:41.000Z</time>
      </trkpt>
      <trkpt lat="45.20458" lon="5.72578">
        <ele>631.79998779297</ele>
        <time>2021-07-11T06:27:44.000Z</time>
      </trkpt>
      <trkpt lat="45.20462" lon="5.72587">
        <ele>630.20001220703</ele>
        <time>2021-07-11T06:27:49.000Z</time>
      </trkpt>
      <trkpt lat="45.20469" lon="5.72597">
        <ele>628.79998779297</ele>
        <time>2021-07-11T06:27:53.000Z</time>
      </trkpt>
      <trkpt lat="45.20476" lon="5.72606">
        <ele>628.40002441406</ele>
        <time>2021-07-11T06:27:57.000Z</time>
      </trkpt>
      <trkpt lat="45.20479" lon="5.72608">
        <ele>627.79998779297</ele>
        <time>2021-07-11T06:27:58.000Z</time>
      </trkpt>
      <trkpt lat="45.20488" lon="5.72612">
        <ele>626.59997558594</ele>
        <time>2021-07-11T06:28:02.000Z</time>
      </trkpt>
      <trkpt lat="45.20491" lon="5.72614">
        <ele>626.40002441406</ele>
        <time>2021-07-11T06:28:03.000Z</time>
      </trkpt>
      <trkpt lat="45.20501" lon="5.72623">
        <ele>625</ele>
        <time>2021-07-11T06:28:08.000Z</time>
      </trkpt>
      <trkpt lat="45.20504" lon="5.72626">
        <ele>624.59997558594</ele>
        <time>2021-07-11T06:28:10.000Z</time>
      </trkpt>
      <trkpt lat="45.20508" lon="5.72633">
        <ele>623.59997558594</ele>
        <time>2021-07-11T06:28:13.000Z</time>
      </trkpt>
      <trkpt lat="45.20515" lon="5.72642">
        <ele>622.59997558594</ele>
        <time>2021-07-11T06:28:16.000Z</time>
      </trkpt>
      <trkpt lat="45.20518" lon="5.72645">
        <ele>622.59997558594</ele>
        <time>2021-07-11T06:28:17.000Z</time>
      </trkpt>
      <trkpt lat="45.20536" lon="5.72659">
        <ele>621.20001220703</ele>
        <time>2021-07-11T06:28:23.000Z</time>
      </trkpt>
      <trkpt lat="45.20539" lon="5.7266">
        <ele>621</ele>
        <time>2021-07-11T06:28:24.000Z</time>
      </trkpt>
      <trkpt lat="45.20541" lon="5.72662">
        <ele>620.59997558594</ele>
        <time>2021-07-11T06:28:25.000Z</time>
      </trkpt>
      <trkpt lat="45.20547" lon="5.72671">
        <ele>620</ele>
        <time>2021-07-11T06:28:29.000Z</time>
      </trkpt>
      <trkpt lat="45.2055" lon="5.72675">
        <ele>620</ele>
        <time>2021-07-11T06:28:31.000Z</time>
      </trkpt>
      <trkpt lat="45.20554" lon="5.72678">
        <ele>619.40002441406</ele>
        <time>2021-07-11T06:28:33.000Z</time>
      </trkpt>
      <trkpt lat="45.20562" lon="5.7268">
        <ele>619.20001220703</ele>
        <time>2021-07-11T06:28:36.000Z</time>
      </trkpt>
      <trkpt lat="45.20564" lon="5.72682">
        <ele>619</ele>
        <time>2021-07-11T06:28:37.000Z</time>
      </trkpt>
      <trkpt lat="45.20568" lon="5.72686">
        <ele>618.79998779297</ele>
        <time>2021-07-11T06:28:39.000Z</time>
      </trkpt>
      <trkpt lat="45.2057" lon="5.72694">
        <ele>618.59997558594</ele>
        <time>2021-07-11T06:28:41.000Z</time>
      </trkpt>
      <trkpt lat="45.2057" lon="5.72699">
        <ele>617.59997558594</ele>
        <time>2021-07-11T06:28:42.000Z</time>
      </trkpt>
      <trkpt lat="45.20562" lon="5.72705">
        <ele>617</ele>
        <time>2021-07-11T06:28:46.000Z</time>
      </trkpt>
      <trkpt lat="45.20558" lon="5.72703">
        <ele>616.20001220703</ele>
        <time>2021-07-11T06:28:48.000Z</time>
      </trkpt>
      <trkpt lat="45.20549" lon="5.72699">
        <ele>615.20001220703</ele>
        <time>2021-07-11T06:28:52.000Z</time>
      </trkpt>
      <trkpt lat="45.20547" lon="5.72698">
        <ele>614.59997558594</ele>
        <time>2021-07-11T06:28:53.000Z</time>
      </trkpt>
      <trkpt lat="45.20541" lon="5.72696">
        <ele>613.59997558594</ele>
        <time>2021-07-11T06:28:56.000Z</time>
      </trkpt>
      <trkpt lat="45.20532" lon="5.72693">
        <ele>612.40002441406</ele>
        <time>2021-07-11T06:29:00.000Z</time>
      </trkpt>
      <trkpt lat="45.20525" lon="5.72688">
        <ele>611.40002441406</ele>
        <time>2021-07-11T06:29:05.000Z</time>
      </trkpt>
      <trkpt lat="45.20523" lon="5.72687">
        <ele>611</ele>
        <time>2021-07-11T06:29:06.000Z</time>
      </trkpt>
      <trkpt lat="45.20518" lon="5.72683">
        <ele>610</ele>
        <time>2021-07-11T06:29:09.000Z</time>
      </trkpt>
      <trkpt lat="45.20517" lon="5.72682">
        <ele>610</ele>
        <time>2021-07-11T06:29:10.000Z</time>
      </trkpt>
      <trkpt lat="45.20515" lon="5.72682">
        <ele>609.40002441406</ele>
        <time>2021-07-11T06:29:11.000Z</time>
      </trkpt>
      <trkpt lat="45.20511" lon="5.7268">
        <ele>608.79998779297</ele>
        <time>2021-07-11T06:29:13.000Z</time>
      </trkpt>
      <trkpt lat="45.20507" lon="5.72679">
        <ele>608.40002441406</ele>
        <time>2021-07-11T06:29:15.000Z</time>
      </trkpt>
      <trkpt lat="45.20499" lon="5.72675">
        <ele>607.40002441406</ele>
        <time>2021-07-11T06:29:19.000Z</time>
      </trkpt>
      <trkpt lat="45.20493" lon="5.72672">
        <ele>606.79998779297</ele>
        <time>2021-07-11T06:29:22.000Z</time>
      </trkpt>
      <trkpt lat="45.20491" lon="5.72672">
        <ele>606.79998779297</ele>
        <time>2021-07-11T06:29:23.000Z</time>
      </trkpt>
      <trkpt lat="45.20487" lon="5.72672">
        <ele>606</ele>
        <time>2021-07-11T06:29:25.000Z</time>
      </trkpt>
      <trkpt lat="45.20483" lon="5.7267">
        <ele>605.40002441406</ele>
        <time>2021-07-11T06:29:27.000Z</time>
      </trkpt>
      <trkpt lat="45.20478" lon="5.72667">
        <ele>604.79998779297</ele>
        <time>2021-07-11T06:29:30.000Z</time>
      </trkpt>
      <trkpt lat="45.20471" lon="5.72663">
        <ele>603.79998779297</ele>
        <time>2021-07-11T06:29:33.000Z</time>
      </trkpt>
      <trkpt lat="45.20468" lon="5.72661">
        <ele>603.20001220703</ele>
        <time>2021-07-11T06:29:35.000Z</time>
      </trkpt>
      <trkpt lat="45.20459" lon="5.72657">
        <ele>602.40002441406</ele>
        <time>2021-07-11T06:29:39.000Z</time>
      </trkpt>
      <trkpt lat="45.20453" lon="5.72655">
        <ele>601.59997558594</ele>
        <time>2021-07-11T06:29:42.000Z</time>
      </trkpt>
      <trkpt lat="45.20452" lon="5.72654">
        <ele>601</ele>
        <time>2021-07-11T06:29:43.000Z</time>
      </trkpt>
      <trkpt lat="45.20451" lon="5.72653">
        <ele>600.40002441406</ele>
        <time>2021-07-11T06:29:44.000Z</time>
      </trkpt>
      <trkpt lat="45.2045" lon="5.72653">
        <ele>600.20001220703</ele>
        <time>2021-07-11T06:29:46.000Z</time>
      </trkpt>
      <trkpt lat="45.20449" lon="5.7265">
        <ele>600.20001220703</ele>
        <time>2021-07-11T06:29:54.000Z</time>
      </trkpt>
      <trkpt lat="45.20449" lon="5.7265">
        <ele>600.20001220703</ele>
        <time>2021-07-11T06:29:55.000Z</time>
      </trkpt>
      <trkpt lat="45.2045" lon="5.72649">
        <ele>600.20001220703</ele>
        <time>2021-07-11T06:30:00.000Z</time>
      </trkpt>
      <trkpt lat="45.2045" lon="5.72648">
        <ele>600.20001220703</ele>
        <time>2021-07-11T06:30:05.000Z</time>
      </trkpt>
      <trkpt lat="45.2045" lon="5.72647">
        <ele>600.20001220703</ele>
        <time>2021-07-11T06:30:06.000Z</time>
      </trkpt>
      <trkpt lat="45.2045" lon="5.72647">
        <ele>600.20001220703</ele>
        <time>2021-07-11T06:30:13.000Z</time>
      </trkpt>
      <trkpt lat="45.20444" lon="5.72645">
        <ele>600</ele>
        <time>2021-07-11T06:30:16.000Z</time>
      </trkpt>
      <trkpt lat="45.20441" lon="5.72644">
        <ele>599.59997558594</ele>
        <time>2021-07-11T06:30:17.000Z</time>
      </trkpt>
      <trkpt lat="45.20437" lon="5.72642">
        <ele>599.59997558594</ele>
        <time>2021-07-11T06:30:18.000Z</time>
      </trkpt>
      <trkpt lat="45.20428" lon="5.72638">
        <ele>598.79998779297</ele>
        <time>2021-07-11T06:30:21.000Z</time>
      </trkpt>
      <trkpt lat="45.20421" lon="5.72632">
        <ele>598</ele>
        <time>2021-07-11T06:30:24.000Z</time>
      </trkpt>
      <trkpt lat="45.20416" lon="5.72629">
        <ele>597.59997558594</ele>
        <time>2021-07-11T06:30:27.000Z</time>
      </trkpt>
      <trkpt lat="45.20417" lon="5.72632">
        <ele>597</ele>
        <time>2021-07-11T06:30:29.000Z</time>
      </trkpt>
      <trkpt lat="45.20417" lon="5.72633">
        <ele>597</ele>
        <time>2021-07-11T06:30:30.000Z</time>
      </trkpt>
      <trkpt lat="45.2042" lon="5.72639">
        <ele>595.79998779297</ele>
        <time>2021-07-11T06:30:33.000Z</time>
      </trkpt>
      <trkpt lat="45.20422" lon="5.72642">
        <ele>595</ele>
        <time>2021-07-11T06:30:34.000Z</time>
      </trkpt>
      <trkpt lat="45.20423" lon="5.72644">
        <ele>595</ele>
        <time>2021-07-11T06:30:35.000Z</time>
      </trkpt>
      <trkpt lat="45.20425" lon="5.72646">
        <ele>594.59997558594</ele>
        <time>2021-07-11T06:30:37.000Z</time>
      </trkpt>
      <trkpt lat="45.20428" lon="5.72653">
        <ele>593.40002441406</ele>
        <time>2021-07-11T06:30:40.000Z</time>
      </trkpt>
      <trkpt lat="45.2043" lon="5.72656">
        <ele>592.79998779297</ele>
        <time>2021-07-11T06:30:42.000Z</time>
      </trkpt>
      <trkpt lat="45.20433" lon="5.72659">
        <ele>592.20001220703</ele>
        <time>2021-07-11T06:30:44.000Z</time>
      </trkpt>
      <trkpt lat="45.20437" lon="5.72661">
        <ele>591.20001220703</ele>
        <time>2021-07-11T06:30:47.000Z</time>
      </trkpt>
      <trkpt lat="45.20448" lon="5.72668">
        <ele>590.40002441406</ele>
        <time>2021-07-11T06:30:54.000Z</time>
      </trkpt>
      <trkpt lat="45.2045" lon="5.72669">
        <ele>589.20001220703</ele>
        <time>2021-07-11T06:30:55.000Z</time>
      </trkpt>
      <trkpt lat="45.20456" lon="5.72676">
        <ele>588.20001220703</ele>
        <time>2021-07-11T06:31:00.000Z</time>
      </trkpt>
      <trkpt lat="45.2046" lon="5.72679">
        <ele>588</ele>
        <time>2021-07-11T06:31:02.000Z</time>
      </trkpt>
      <trkpt lat="45.20473" lon="5.72687">
        <ele>586.79998779297</ele>
        <time>2021-07-11T06:31:07.000Z</time>
      </trkpt>
      <trkpt lat="45.2048" lon="5.72695">
        <ele>586</ele>
        <time>2021-07-11T06:31:11.000Z</time>
      </trkpt>
      <trkpt lat="45.20482" lon="5.72698">
        <ele>585.40002441406</ele>
        <time>2021-07-11T06:31:12.000Z</time>
      </trkpt>
      <trkpt lat="45.20492" lon="5.72709">
        <ele>584.20001220703</ele>
        <time>2021-07-11T06:31:18.000Z</time>
      </trkpt>
      <trkpt lat="45.20495" lon="5.72713">
        <ele>583.59997558594</ele>
        <time>2021-07-11T06:31:20.000Z</time>
      </trkpt>
      <trkpt lat="45.205" lon="5.72717">
        <ele>582.79998779297</ele>
        <time>2021-07-11T06:31:23.000Z</time>
      </trkpt>
      <trkpt lat="45.20502" lon="5.72719">
        <ele>582.79998779297</ele>
        <time>2021-07-11T06:31:24.000Z</time>
      </trkpt>
      <trkpt lat="45.20505" lon="5.72722">
        <ele>582</ele>
        <time>2021-07-11T06:31:26.000Z</time>
      </trkpt>
      <trkpt lat="45.20506" lon="5.72724">
        <ele>581.59997558594</ele>
        <time>2021-07-11T06:31:27.000Z</time>
      </trkpt>
      <trkpt lat="45.20508" lon="5.72726">
        <ele>581.59997558594</ele>
        <time>2021-07-11T06:31:28.000Z</time>
      </trkpt>
      <trkpt lat="45.20507" lon="5.7273">
        <ele>581</ele>
        <time>2021-07-11T06:31:30.000Z</time>
      </trkpt>
      <trkpt lat="45.20501" lon="5.72733">
        <ele>580.59997558594</ele>
        <time>2021-07-11T06:31:32.000Z</time>
      </trkpt>
      <trkpt lat="45.20496" lon="5.72731">
        <ele>579.40002441406</ele>
        <time>2021-07-11T06:31:34.000Z</time>
      </trkpt>
      <trkpt lat="45.20493" lon="5.72731">
        <ele>579.40002441406</ele>
        <time>2021-07-11T06:31:35.000Z</time>
      </trkpt>
      <trkpt lat="45.20483" lon="5.72726">
        <ele>578.40002441406</ele>
        <time>2021-07-11T06:31:40.000Z</time>
      </trkpt>
      <trkpt lat="45.20481" lon="5.72725">
        <ele>578.40002441406</ele>
        <time>2021-07-11T06:31:41.000Z</time>
      </trkpt>
      <trkpt lat="45.20471" lon="5.72723">
        <ele>576.79998779297</ele>
        <time>2021-07-11T06:31:46.000Z</time>
      </trkpt>
      <trkpt lat="45.20459" lon="5.72724">
        <ele>575.79998779297</ele>
        <time>2021-07-11T06:31:52.000Z</time>
      </trkpt>
      <trkpt lat="45.20451" lon="5.72725">
        <ele>574.40002441406</ele>
        <time>2021-07-11T06:31:56.000Z</time>
      </trkpt>
      <trkpt lat="45.20449" lon="5.72725">
        <ele>574</ele>
        <time>2021-07-11T06:31:57.000Z</time>
      </trkpt>
      <trkpt lat="45.20444" lon="5.72725">
        <ele>573.79998779297</ele>
        <time>2021-07-11T06:32:00.000Z</time>
      </trkpt>
      <trkpt lat="45.2044" lon="5.72724">
        <ele>573.20001220703</ele>
        <time>2021-07-11T06:32:02.000Z</time>
      </trkpt>
      <trkpt lat="45.20429" lon="5.7272">
        <ele>572</ele>
        <time>2021-07-11T06:32:07.000Z</time>
      </trkpt>
      <trkpt lat="45.20426" lon="5.72719">
        <ele>571.40002441406</ele>
        <time>2021-07-11T06:32:09.000Z</time>
      </trkpt>
      <trkpt lat="45.20422" lon="5.72716">
        <ele>570.40002441406</ele>
        <time>2021-07-11T06:32:11.000Z</time>
      </trkpt>
      <trkpt lat="45.20418" lon="5.72714">
        <ele>570</ele>
        <time>2021-07-11T06:32:13.000Z</time>
      </trkpt>
      <trkpt lat="45.20414" lon="5.72712">
        <ele>569.40002441406</ele>
        <time>2021-07-11T06:32:15.000Z</time>
      </trkpt>
      <trkpt lat="45.2041" lon="5.72709">
        <ele>568.40002441406</ele>
        <time>2021-07-11T06:32:18.000Z</time>
      </trkpt>
      <trkpt lat="45.20409" lon="5.72708">
        <ele>568.40002441406</ele>
        <time>2021-07-11T06:32:19.000Z</time>
      </trkpt>
      <trkpt lat="45.20405" lon="5.72706">
        <ele>567.40002441406</ele>
        <time>2021-07-11T06:32:21.000Z</time>
      </trkpt>
      <trkpt lat="45.204" lon="5.72702">
        <ele>567</ele>
        <time>2021-07-11T06:32:24.000Z</time>
      </trkpt>
      <trkpt lat="45.20397" lon="5.72699">
        <ele>566.40002441406</ele>
        <time>2021-07-11T06:32:26.000Z</time>
      </trkpt>
      <trkpt lat="45.20395" lon="5.72698">
        <ele>566.20001220703</ele>
        <time>2021-07-11T06:32:27.000Z</time>
      </trkpt>
      <trkpt lat="45.20389" lon="5.72688">
        <ele>565</ele>
        <time>2021-07-11T06:32:32.000Z</time>
      </trkpt>
      <trkpt lat="45.20387" lon="5.72684">
        <ele>564.20001220703</ele>
        <time>2021-07-11T06:32:34.000Z</time>
      </trkpt>
      <trkpt lat="45.20383" lon="5.72682">
        <ele>563.79998779297</ele>
        <time>2021-07-11T06:32:36.000Z</time>
      </trkpt>
      <trkpt lat="45.20375" lon="5.72677">
        <ele>562.79998779297</ele>
        <time>2021-07-11T06:32:40.000Z</time>
      </trkpt>
      <trkpt lat="45.20371" lon="5.7267">
        <ele>561.79998779297</ele>
        <time>2021-07-11T06:32:43.000Z</time>
      </trkpt>
      <trkpt lat="45.20369" lon="5.72665">
        <ele>560.79998779297</ele>
        <time>2021-07-11T06:32:45.000Z</time>
      </trkpt>
      <trkpt lat="45.20367" lon="5.72664">
        <ele>560.59997558594</ele>
        <time>2021-07-11T06:32:46.000Z</time>
      </trkpt>
      <trkpt lat="45.20364" lon="5.72661">
        <ele>560.20001220703</ele>
        <time>2021-07-11T06:32:48.000Z</time>
      </trkpt>
      <trkpt lat="45.20363" lon="5.7266">
        <ele>560</ele>
        <time>2021-07-11T06:32:49.000Z</time>
      </trkpt>
      <trkpt lat="45.20361" lon="5.72659">
        <ele>560</ele>
        <time>2021-07-11T06:32:50.000Z</time>
      </trkpt>
      <trkpt lat="45.20358" lon="5.72656">
        <ele>559.40002441406</ele>
        <time>2021-07-11T06:32:52.000Z</time>
      </trkpt>
      <trkpt lat="45.20357" lon="5.72655">
        <ele>559.20001220703</ele>
        <time>2021-07-11T06:32:53.000Z</time>
      </trkpt>
      <trkpt lat="45.20355" lon="5.72653">
        <ele>559</ele>
        <time>2021-07-11T06:32:54.000Z</time>
      </trkpt>
      <trkpt lat="45.20353" lon="5.72652">
        <ele>558.40002441406</ele>
        <time>2021-07-11T06:32:56.000Z</time>
      </trkpt>
      <trkpt lat="45.2035" lon="5.72651">
        <ele>558.20001220703</ele>
        <time>2021-07-11T06:32:58.000Z</time>
      </trkpt>
      <trkpt lat="45.20346" lon="5.7265">
        <ele>557.20001220703</ele>
        <time>2021-07-11T06:33:00.000Z</time>
      </trkpt>
      <trkpt lat="45.20344" lon="5.72649">
        <ele>557</ele>
        <time>2021-07-11T06:33:01.000Z</time>
      </trkpt>
      <trkpt lat="45.20336" lon="5.72645">
        <ele>555.79998779297</ele>
        <time>2021-07-11T06:33:05.000Z</time>
      </trkpt>
      <trkpt lat="45.20329" lon="5.72637">
        <ele>555.40002441406</ele>
        <time>2021-07-11T06:33:08.000Z</time>
      </trkpt>
      <trkpt lat="45.20327" lon="5.72632">
        <ele>554.79998779297</ele>
        <time>2021-07-11T06:33:10.000Z</time>
      </trkpt>
      <trkpt lat="45.20324" lon="5.72629">
        <ele>554.40002441406</ele>
        <time>2021-07-11T06:33:12.000Z</time>
      </trkpt>
      <trkpt lat="45.20323" lon="5.72628">
        <ele>554.20001220703</ele>
        <time>2021-07-11T06:33:13.000Z</time>
      </trkpt>
      <trkpt lat="45.20323" lon="5.72627">
        <ele>553.59997558594</ele>
        <time>2021-07-11T06:33:14.000Z</time>
      </trkpt>
      <trkpt lat="45.20322" lon="5.72626">
        <ele>553.20001220703</ele>
        <time>2021-07-11T06:33:15.000Z</time>
      </trkpt>
      <trkpt lat="45.20319" lon="5.72625">
        <ele>553</ele>
        <time>2021-07-11T06:33:17.000Z</time>
      </trkpt>
      <trkpt lat="45.20318" lon="5.72624">
        <ele>552.59997558594</ele>
        <time>2021-07-11T06:33:18.000Z</time>
      </trkpt>
      <trkpt lat="45.20317" lon="5.72623">
        <ele>552.40002441406</ele>
        <time>2021-07-11T06:33:19.000Z</time>
      </trkpt>
      <trkpt lat="45.20316" lon="5.72623">
        <ele>552.20001220703</ele>
        <time>2021-07-11T06:33:20.000Z</time>
      </trkpt>
      <trkpt lat="45.20314" lon="5.72622">
        <ele>551.20001220703</ele>
        <time>2021-07-11T06:33:21.000Z</time>
      </trkpt>
      <trkpt lat="45.20311" lon="5.72621">
        <ele>551.20001220703</ele>
        <time>2021-07-11T06:33:22.000Z</time>
      </trkpt>
      <trkpt lat="45.2031" lon="5.72619">
        <ele>551</ele>
        <time>2021-07-11T06:33:23.000Z</time>
      </trkpt>
      <trkpt lat="45.20308" lon="5.72618">
        <ele>550.59997558594</ele>
        <time>2021-07-11T06:33:24.000Z</time>
      </trkpt>
      <trkpt lat="45.20303" lon="5.72616">
        <ele>550.20001220703</ele>
        <time>2021-07-11T06:33:26.000Z</time>
      </trkpt>
      <trkpt lat="45.20297" lon="5.72616">
        <ele>549.40002441406</ele>
        <time>2021-07-11T06:33:29.000Z</time>
      </trkpt>
      <trkpt lat="45.20294" lon="5.72615">
        <ele>549</ele>
        <time>2021-07-11T06:33:31.000Z</time>
      </trkpt>
      <trkpt lat="45.20289" lon="5.72615">
        <ele>548.40002441406</ele>
        <time>2021-07-11T06:33:33.000Z</time>
      </trkpt>
      <trkpt lat="45.20285" lon="5.72613">
        <ele>547.59997558594</ele>
        <time>2021-07-11T06:33:35.000Z</time>
      </trkpt>
      <trkpt lat="45.20277" lon="5.72611">
        <ele>546.40002441406</ele>
        <time>2021-07-11T06:33:38.000Z</time>
      </trkpt>
      <trkpt lat="45.20269" lon="5.72613">
        <ele>545.20001220703</ele>
        <time>2021-07-11T06:33:42.000Z</time>
      </trkpt>
      <trkpt lat="45.20264" lon="5.72614">
        <ele>543.79998779297</ele>
        <time>2021-07-11T06:33:45.000Z</time>
      </trkpt>
      <trkpt lat="45.20258" lon="5.72614">
        <ele>543</ele>
        <time>2021-07-11T06:33:48.000Z</time>
      </trkpt>
      <trkpt lat="45.20254" lon="5.72612">
        <ele>542.40002441406</ele>
        <time>2021-07-11T06:33:50.000Z</time>
      </trkpt>
      <trkpt lat="45.20246" lon="5.72612">
        <ele>541.40002441406</ele>
        <time>2021-07-11T06:33:54.000Z</time>
      </trkpt>
      <trkpt lat="45.20244" lon="5.72611">
        <ele>541.20001220703</ele>
        <time>2021-07-11T06:33:55.000Z</time>
      </trkpt>
      <trkpt lat="45.20238" lon="5.7261">
        <ele>540.40002441406</ele>
        <time>2021-07-11T06:33:58.000Z</time>
      </trkpt>
      <trkpt lat="45.20236" lon="5.72609">
        <ele>540</ele>
        <time>2021-07-11T06:33:59.000Z</time>
      </trkpt>
      <trkpt lat="45.2023" lon="5.72607">
        <ele>539.20001220703</ele>
        <time>2021-07-11T06:34:02.000Z</time>
      </trkpt>
      <trkpt lat="45.20225" lon="5.72605">
        <ele>538.79998779297</ele>
        <time>2021-07-11T06:34:04.000Z</time>
      </trkpt>
      <trkpt lat="45.20218" lon="5.72601">
        <ele>537.59997558594</ele>
        <time>2021-07-11T06:34:08.000Z</time>
      </trkpt>
      <trkpt lat="45.20215" lon="5.726">
        <ele>537.40002441406</ele>
        <time>2021-07-11T06:34:09.000Z</time>
      </trkpt>
      <trkpt lat="45.20209" lon="5.72598">
        <ele>536.40002441406</ele>
        <time>2021-07-11T06:34:12.000Z</time>
      </trkpt>
      <trkpt lat="45.20204" lon="5.72595">
        <ele>535.59997558594</ele>
        <time>2021-07-11T06:34:15.000Z</time>
      </trkpt>
      <trkpt lat="45.20202" lon="5.72594">
        <ele>535.20001220703</ele>
        <time>2021-07-11T06:34:16.000Z</time>
      </trkpt>
      <trkpt lat="45.20196" lon="5.72592">
        <ele>534</ele>
        <time>2021-07-11T06:34:20.000Z</time>
      </trkpt>
      <trkpt lat="45.20194" lon="5.7259">
        <ele>533.59997558594</ele>
        <time>2021-07-11T06:34:21.000Z</time>
      </trkpt>
      <trkpt lat="45.20192" lon="5.72589">
        <ele>533.59997558594</ele>
        <time>2021-07-11T06:34:22.000Z</time>
      </trkpt>
      <trkpt lat="45.20186" lon="5.72587">
        <ele>532.79998779297</ele>
        <time>2021-07-11T06:34:24.000Z</time>
      </trkpt>
      <trkpt lat="45.20184" lon="5.72584">
        <ele>532.59997558594</ele>
        <time>2021-07-11T06:34:25.000Z</time>
      </trkpt>
      <trkpt lat="45.20175" lon="5.72579">
        <ele>531.40002441406</ele>
        <time>2021-07-11T06:34:29.000Z</time>
      </trkpt>
      <trkpt lat="45.2017" lon="5.72575">
        <ele>530.20001220703</ele>
        <time>2021-07-11T06:34:32.000Z</time>
      </trkpt>
      <trkpt lat="45.20161" lon="5.7257">
        <ele>529</ele>
        <time>2021-07-11T06:34:37.000Z</time>
      </trkpt>
      <trkpt lat="45.20154" lon="5.72564">
        <ele>528.40002441406</ele>
        <time>2021-07-11T06:34:40.000Z</time>
      </trkpt>
      <trkpt lat="45.20152" lon="5.72563">
        <ele>528</ele>
        <time>2021-07-11T06:34:41.000Z</time>
      </trkpt>
      <trkpt lat="45.20147" lon="5.72561">
        <ele>527</ele>
        <time>2021-07-11T06:34:44.000Z</time>
      </trkpt>
      <trkpt lat="45.20136" lon="5.72558">
        <ele>525.79998779297</ele>
        <time>2021-07-11T06:34:49.000Z</time>
      </trkpt>
      <trkpt lat="45.20131" lon="5.72558">
        <ele>524.40002441406</ele>
        <time>2021-07-11T06:34:52.000Z</time>
      </trkpt>
      <trkpt lat="45.20129" lon="5.72557">
        <ele>524.40002441406</ele>
        <time>2021-07-11T06:34:53.000Z</time>
      </trkpt>
      <trkpt lat="45.20126" lon="5.72556">
        <ele>524.20001220703</ele>
        <time>2021-07-11T06:34:55.000Z</time>
      </trkpt>
      <trkpt lat="45.2012" lon="5.72553">
        <ele>523</ele>
        <time>2021-07-11T06:34:58.000Z</time>
      </trkpt>
      <trkpt lat="45.20113" lon="5.72551">
        <ele>522.79998779297</ele>
        <time>2021-07-11T06:35:02.000Z</time>
      </trkpt>
      <trkpt lat="45.20108" lon="5.72549">
        <ele>521.79998779297</ele>
        <time>2021-07-11T06:35:05.000Z</time>
      </trkpt>
      <trkpt lat="45.20107" lon="5.72548">
        <ele>520.59997558594</ele>
        <time>2021-07-11T06:35:06.000Z</time>
      </trkpt>
      <trkpt lat="45.20102" lon="5.72545">
        <ele>519.59997558594</ele>
        <time>2021-07-11T06:35:09.000Z</time>
      </trkpt>
      <trkpt lat="45.20094" lon="5.72545">
        <ele>517.79998779297</ele>
        <time>2021-07-11T06:35:14.000Z</time>
      </trkpt>
      <trkpt lat="45.20089" lon="5.72546">
        <ele>517.20001220703</ele>
        <time>2021-07-11T06:35:17.000Z</time>
      </trkpt>
      <trkpt lat="45.20088" lon="5.72547">
        <ele>516.20001220703</ele>
        <time>2021-07-11T06:35:18.000Z</time>
      </trkpt>
      <trkpt lat="45.20078" lon="5.72549">
        <ele>514.79998779297</ele>
        <time>2021-07-11T06:35:22.000Z</time>
      </trkpt>
      <trkpt lat="45.2007" lon="5.72544">
        <ele>514</ele>
        <time>2021-07-11T06:35:25.000Z</time>
      </trkpt>
      <trkpt lat="45.20068" lon="5.72542">
        <ele>513.59997558594</ele>
        <time>2021-07-11T06:35:26.000Z</time>
      </trkpt>
      <trkpt lat="45.20061" lon="5.72521">
        <ele>513.40002441406</ele>
        <time>2021-07-11T06:35:32.000Z</time>
      </trkpt>
      <trkpt lat="45.20066" lon="5.72496">
        <ele>512.20001220703</ele>
        <time>2021-07-11T06:35:38.000Z</time>
      </trkpt>
      <trkpt lat="45.20067" lon="5.72492">
        <ele>512.20001220703</ele>
        <time>2021-07-11T06:35:39.000Z</time>
      </trkpt>
      <trkpt lat="45.20067" lon="5.72466">
        <ele>510.79998779297</ele>
        <time>2021-07-11T06:35:46.000Z</time>
      </trkpt>
      <trkpt lat="45.20064" lon="5.72451">
        <ele>509.20001220703</ele>
        <time>2021-07-11T06:35:50.000Z</time>
      </trkpt>
      <trkpt lat="45.2006" lon="5.72442">
        <ele>508.60000610352</ele>
        <time>2021-07-11T06:35:53.000Z</time>
      </trkpt>
      <trkpt lat="45.20056" lon="5.72437">
        <ele>508.20001220703</ele>
        <time>2021-07-11T06:35:55.000Z</time>
      </trkpt>
      <trkpt lat="45.20048" lon="5.72432">
        <ele>507.20001220703</ele>
        <time>2021-07-11T06:35:58.000Z</time>
      </trkpt>
      <trkpt lat="45.20046" lon="5.72431">
        <ele>506.79998779297</ele>
        <time>2021-07-11T06:35:59.000Z</time>
      </trkpt>
      <trkpt lat="45.20037" lon="5.72431">
        <ele>505.39999389648</ele>
        <time>2021-07-11T06:36:03.000Z</time>
      </trkpt>
      <trkpt lat="45.20034" lon="5.72431">
        <ele>505</ele>
        <time>2021-07-11T06:36:04.000Z</time>
      </trkpt>
      <trkpt lat="45.20026" lon="5.72431">
        <ele>504.60000610352</ele>
        <time>2021-07-11T06:36:07.000Z</time>
      </trkpt>
      <trkpt lat="45.20018" lon="5.7243">
        <ele>503.20001220703</ele>
        <time>2021-07-11T06:36:10.000Z</time>
      </trkpt>
      <trkpt lat="45.20005" lon="5.72427">
        <ele>501.79998779297</ele>
        <time>2021-07-11T06:36:15.000Z</time>
      </trkpt>
      <trkpt lat="45.19999" lon="5.72425">
        <ele>501.20001220703</ele>
        <time>2021-07-11T06:36:20.000Z</time>
      </trkpt>
      <trkpt lat="45.19999" lon="5.72426">
        <ele>500.79998779297</ele>
        <time>2021-07-11T06:36:25.000Z</time>
      </trkpt>
      <trkpt lat="45.19999" lon="5.72426">
        <ele>500.79998779297</ele>
        <time>2021-07-11T06:36:26.000Z</time>
      </trkpt>
      <trkpt lat="45.19999" lon="5.72425">
        <ele>500.79998779297</ele>
        <time>2021-07-11T06:36:34.000Z</time>
      </trkpt>
      <trkpt lat="45.19999" lon="5.72425">
        <ele>500.79998779297</ele>
        <time>2021-07-11T06:36:37.000Z</time>
      </trkpt>
      <trkpt lat="45.19999" lon="5.72425">
        <ele>500.79998779297</ele>
        <time>2021-07-11T06:36:41.000Z</time>
      </trkpt>
      <trkpt lat="45.19999" lon="5.72425">
        <ele>501</ele>
        <time>2021-07-11T06:36:44.000Z</time>
      </trkpt>
      <trkpt lat="45.19999" lon="5.72425">
        <ele>500.79998779297</ele>
        <time>2021-07-11T06:36:46.000Z</time>
      </trkpt>
      <trkpt lat="45.19999" lon="5.72425">
        <ele>500.79998779297</ele>
        <time>2021-07-11T06:36:48.000Z</time>
      </trkpt>
      <trkpt lat="45.2" lon="5.72425">
        <ele>500.79998779297</ele>
        <time>2021-07-11T06:36:51.000Z</time>
      </trkpt>
      <trkpt lat="45.2" lon="5.72425">
        <ele>501</ele>
        <time>2021-07-11T06:36:55.000Z</time>
      </trkpt>
      <trkpt lat="45.2" lon="5.72425">
        <ele>500.79998779297</ele>
        <time>2021-07-11T06:36:57.000Z</time>
      </trkpt>
      <trkpt lat="45.2" lon="5.72425">
        <ele>500.79998779297</ele>
        <time>2021-07-11T06:36:58.000Z</time>
      </trkpt>
      <trkpt lat="45.2" lon="5.72425">
        <ele>500.79998779297</ele>
        <time>2021-07-11T06:37:00.000Z</time>
      </trkpt>
      <trkpt lat="45.2" lon="5.72425">
        <ele>500.79998779297</ele>
        <time>2021-07-11T06:37:01.000Z</time>
      </trkpt>
      <trkpt lat="45.20001" lon="5.72425">
        <ele>500.79998779297</ele>
        <time>2021-07-11T06:37:03.000Z</time>
      </trkpt>
      <trkpt lat="45.20001" lon="5.72425">
        <ele>500.79998779297</ele>
        <time>2021-07-11T06:37:04.000Z</time>
      </trkpt>
      <trkpt lat="45.20001" lon="5.72425">
        <ele>500.79998779297</ele>
        <time>2021-07-11T06:37:06.000Z</time>
      </trkpt>
      <trkpt lat="45.20001" lon="5.72425">
        <ele>500.79998779297</ele>
        <time>2021-07-11T06:37:08.000Z</time>
      </trkpt>
      <trkpt lat="45.20001" lon="5.72425">
        <ele>500.79998779297</ele>
        <time>2021-07-11T06:37:10.000Z</time>
      </trkpt>
      <trkpt lat="45.20001" lon="5.72425">
        <ele>500.79998779297</ele>
        <time>2021-07-11T06:37:12.000Z</time>
      </trkpt>
      <trkpt lat="45.20001" lon="5.72425">
        <ele>500.79998779297</ele>
        <time>2021-07-11T06:37:14.000Z</time>
      </trkpt>
      <trkpt lat="45.20001" lon="5.72425">
        <ele>500.79998779297</ele>
        <time>2021-07-11T06:37:16.000Z</time>
      </trkpt>
      <trkpt lat="45.20002" lon="5.72424">
        <ele>500.79998779297</ele>
        <time>2021-07-11T06:37:18.000Z</time>
      </trkpt>
      <trkpt lat="45.20002" lon="5.72424">
        <ele>500.79998779297</ele>
        <time>2021-07-11T06:37:20.000Z</time>
      </trkpt>
      <trkpt lat="45.20002" lon="5.72423">
        <ele>500.79998779297</ele>
        <time>2021-07-11T06:37:22.000Z</time>
      </trkpt>
      <trkpt lat="45.20002" lon="5.72423">
        <ele>500.60000610352</ele>
        <time>2021-07-11T06:37:25.000Z</time>
      </trkpt>
      <trkpt lat="45.20002" lon="5.72423">
        <ele>500.60000610352</ele>
        <time>2021-07-11T06:37:29.000Z</time>
      </trkpt>
      <trkpt lat="45.19998" lon="5.72422">
        <ele>499.79998779297</ele>
        <time>2021-07-11T06:37:33.000Z</time>
      </trkpt>
      <trkpt lat="45.19996" lon="5.72422">
        <ele>499.60000610352</ele>
        <time>2021-07-11T06:37:34.000Z</time>
      </trkpt>
      <trkpt lat="45.19985" lon="5.72422">
        <ele>498.39999389648</ele>
        <time>2021-07-11T06:37:40.000Z</time>
      </trkpt>
      <trkpt lat="45.1998" lon="5.72421">
        <ele>498</ele>
        <time>2021-07-11T06:37:42.000Z</time>
      </trkpt>
      <trkpt lat="45.19972" lon="5.7242">
        <ele>496.60000610352</ele>
        <time>2021-07-11T06:37:46.000Z</time>
      </trkpt>
      <trkpt lat="45.19966" lon="5.72418">
        <ele>496.20001220703</ele>
        <time>2021-07-11T06:37:49.000Z</time>
      </trkpt>
      <trkpt lat="45.19958" lon="5.72418">
        <ele>495.20001220703</ele>
        <time>2021-07-11T06:37:52.000Z</time>
      </trkpt>
      <trkpt lat="45.19947" lon="5.72418">
        <ele>494.79998779297</ele>
        <time>2021-07-11T06:37:56.000Z</time>
      </trkpt>
      <trkpt lat="45.19932" lon="5.72422">
        <ele>494.79998779297</ele>
        <time>2021-07-11T06:38:01.000Z</time>
      </trkpt>
      <trkpt lat="45.19925" lon="5.72427">
        <ele>494.79998779297</ele>
        <time>2021-07-11T06:38:05.000Z</time>
      </trkpt>
      <trkpt lat="45.19922" lon="5.72432">
        <ele>495.39999389648</ele>
        <time>2021-07-11T06:38:08.000Z</time>
      </trkpt>
      <trkpt lat="45.19921" lon="5.72433">
        <ele>495.60000610352</ele>
        <time>2021-07-11T06:38:09.000Z</time>
      </trkpt>
      <trkpt lat="45.1992" lon="5.72433">
        <ele>496</ele>
        <time>2021-07-11T06:38:10.000Z</time>
      </trkpt>
      <trkpt lat="45.19914" lon="5.72432">
        <ele>496.20001220703</ele>
        <time>2021-07-11T06:38:12.000Z</time>
      </trkpt>
      <trkpt lat="45.19904" lon="5.72431">
        <ele>497.39999389648</ele>
        <time>2021-07-11T06:38:15.000Z</time>
      </trkpt>
      <trkpt lat="45.19902" lon="5.72431">
        <ele>497.39999389648</ele>
        <time>2021-07-11T06:38:16.000Z</time>
      </trkpt>
      <trkpt lat="45.19895" lon="5.7243">
        <ele>498.39999389648</ele>
        <time>2021-07-11T06:38:19.000Z</time>
      </trkpt>
      <trkpt lat="45.19894" lon="5.72433">
        <ele>498.39999389648</ele>
        <time>2021-07-11T06:38:20.000Z</time>
      </trkpt>
      <trkpt lat="45.1989" lon="5.72445">
        <ele>498.79998779297</ele>
        <time>2021-07-11T06:38:24.000Z</time>
      </trkpt>
      <trkpt lat="45.19888" lon="5.7245">
        <ele>499.20001220703</ele>
        <time>2021-07-11T06:38:26.000Z</time>
      </trkpt>
      <trkpt lat="45.19887" lon="5.72458">
        <ele>498.60000610352</ele>
        <time>2021-07-11T06:38:28.000Z</time>
      </trkpt>
      <trkpt lat="45.19886" lon="5.72467">
        <ele>498.79998779297</ele>
        <time>2021-07-11T06:38:30.000Z</time>
      </trkpt>
      <trkpt lat="45.19884" lon="5.72474">
        <ele>498.79998779297</ele>
        <time>2021-07-11T06:38:32.000Z</time>
      </trkpt>
      <trkpt lat="45.19879" lon="5.72478">
        <ele>498.79998779297</ele>
        <time>2021-07-11T06:38:34.000Z</time>
      </trkpt>
      <trkpt lat="45.19875" lon="5.72483">
        <ele>498.79998779297</ele>
        <time>2021-07-11T06:38:36.000Z</time>
      </trkpt>
      <trkpt lat="45.19871" lon="5.72491">
        <ele>498.20001220703</ele>
        <time>2021-07-11T06:38:39.000Z</time>
      </trkpt>
      <trkpt lat="45.19871" lon="5.72495">
        <ele>498.20001220703</ele>
        <time>2021-07-11T06:38:40.000Z</time>
      </trkpt>
      <trkpt lat="45.1987" lon="5.72513">
        <ele>497.39999389648</ele>
        <time>2021-07-11T06:38:45.000Z</time>
      </trkpt>
      <trkpt lat="45.1987" lon="5.72517">
        <ele>497.20001220703</ele>
        <time>2021-07-11T06:38:46.000Z</time>
      </trkpt>
      <trkpt lat="45.19869" lon="5.72526">
        <ele>497</ele>
        <time>2021-07-11T06:38:48.000Z</time>
      </trkpt>
      <trkpt lat="45.19869" lon="5.72533">
        <ele>496.60000610352</ele>
        <time>2021-07-11T06:38:50.000Z</time>
      </trkpt>
      <trkpt lat="45.19867" lon="5.72541">
        <ele>496</ele>
        <time>2021-07-11T06:38:52.000Z</time>
      </trkpt>
      <trkpt lat="45.19867" lon="5.72548">
        <ele>494.79998779297</ele>
        <time>2021-07-11T06:38:54.000Z</time>
      </trkpt>
      <trkpt lat="45.19866" lon="5.7255">
        <ele>494.60000610352</ele>
        <time>2021-07-11T06:38:55.000Z</time>
      </trkpt>
      <trkpt lat="45.19863" lon="5.72545">
        <ele>494</ele>
        <time>2021-07-11T06:38:58.000Z</time>
      </trkpt>
      <trkpt lat="45.19861" lon="5.72542">
        <ele>493.79998779297</ele>
        <time>2021-07-11T06:38:59.000Z</time>
      </trkpt>
      <trkpt lat="45.19855" lon="5.72527">
        <ele>492.60000610352</ele>
        <time>2021-07-11T06:39:03.000Z</time>
      </trkpt>
      <trkpt lat="45.19847" lon="5.72505">
        <ele>491</ele>
        <time>2021-07-11T06:39:08.000Z</time>
      </trkpt>
      <trkpt lat="45.19846" lon="5.72501">
        <ele>490.79998779297</ele>
        <time>2021-07-11T06:39:09.000Z</time>
      </trkpt>
      <trkpt lat="45.19842" lon="5.72486">
        <ele>489.60000610352</ele>
        <time>2021-07-11T06:39:13.000Z</time>
      </trkpt>
      <trkpt lat="45.19841" lon="5.72479">
        <ele>489.20001220703</ele>
        <time>2021-07-11T06:39:15.000Z</time>
      </trkpt>
      <trkpt lat="45.19838" lon="5.72468">
        <ele>488.60000610352</ele>
        <time>2021-07-11T06:39:18.000Z</time>
      </trkpt>
      <trkpt lat="45.19838" lon="5.7246">
        <ele>488</ele>
        <time>2021-07-11T06:39:20.000Z</time>
      </trkpt>
      <trkpt lat="45.19837" lon="5.72457">
        <ele>487.39999389648</ele>
        <time>2021-07-11T06:39:21.000Z</time>
      </trkpt>
      <trkpt lat="45.19835" lon="5.72448">
        <ele>486.39999389648</ele>
        <time>2021-07-11T06:39:24.000Z</time>
      </trkpt>
      <trkpt lat="45.19834" lon="5.72447">
        <ele>486.20001220703</ele>
        <time>2021-07-11T06:39:25.000Z</time>
      </trkpt>
      <trkpt lat="45.19834" lon="5.72448">
        <ele>486.20001220703</ele>
        <time>2021-07-11T06:39:26.000Z</time>
      </trkpt>
      <trkpt lat="45.19834" lon="5.72455">
        <ele>484.79998779297</ele>
        <time>2021-07-11T06:39:29.000Z</time>
      </trkpt>
      <trkpt lat="45.19836" lon="5.72472">
        <ele>483.79998779297</ele>
        <time>2021-07-11T06:39:34.000Z</time>
      </trkpt>
      <trkpt lat="45.19837" lon="5.7248">
        <ele>483.39999389648</ele>
        <time>2021-07-11T06:39:36.000Z</time>
      </trkpt>
      <trkpt lat="45.19837" lon="5.72483">
        <ele>482.60000610352</ele>
        <time>2021-07-11T06:39:37.000Z</time>
      </trkpt>
      <trkpt lat="45.19835" lon="5.72494">
        <ele>481.20001220703</ele>
        <time>2021-07-11T06:39:40.000Z</time>
      </trkpt>
      <trkpt lat="45.19831" lon="5.72505">
        <ele>481</ele>
        <time>2021-07-11T06:39:43.000Z</time>
      </trkpt>
      <trkpt lat="45.19829" lon="5.72511">
        <ele>480.20001220703</ele>
        <time>2021-07-11T06:39:45.000Z</time>
      </trkpt>
      <trkpt lat="45.19828" lon="5.72519">
        <ele>479</ele>
        <time>2021-07-11T06:39:47.000Z</time>
      </trkpt>
      <trkpt lat="45.19828" lon="5.7253">
        <ele>478.60000610352</ele>
        <time>2021-07-11T06:39:50.000Z</time>
      </trkpt>
      <trkpt lat="45.19828" lon="5.72538">
        <ele>478</ele>
        <time>2021-07-11T06:39:52.000Z</time>
      </trkpt>
      <trkpt lat="45.19829" lon="5.72551">
        <ele>477</ele>
        <time>2021-07-11T06:39:55.000Z</time>
      </trkpt>
      <trkpt lat="45.19828" lon="5.72558">
        <ele>476.39999389648</ele>
        <time>2021-07-11T06:39:57.000Z</time>
      </trkpt>
      <trkpt lat="45.19828" lon="5.72562">
        <ele>476.20001220703</ele>
        <time>2021-07-11T06:39:58.000Z</time>
      </trkpt>
      <trkpt lat="45.19828" lon="5.72565">
        <ele>475.79998779297</ele>
        <time>2021-07-11T06:39:59.000Z</time>
      </trkpt>
      <trkpt lat="45.19828" lon="5.72578">
        <ele>474.79998779297</ele>
        <time>2021-07-11T06:40:03.000Z</time>
      </trkpt>
      <trkpt lat="45.19828" lon="5.72598">
        <ele>473.39999389648</ele>
        <time>2021-07-11T06:40:08.000Z</time>
      </trkpt>
      <trkpt lat="45.19829" lon="5.72606">
        <ele>473</ele>
        <time>2021-07-11T06:40:10.000Z</time>
      </trkpt>
      <trkpt lat="45.1983" lon="5.72609">
        <ele>472.39999389648</ele>
        <time>2021-07-11T06:40:11.000Z</time>
      </trkpt>
      <trkpt lat="45.19831" lon="5.72615">
        <ele>472</ele>
        <time>2021-07-11T06:40:13.000Z</time>
      </trkpt>
      <trkpt lat="45.19831" lon="5.72617">
        <ele>471.60000610352</ele>
        <time>2021-07-11T06:40:14.000Z</time>
      </trkpt>
      <trkpt lat="45.19834" lon="5.7263">
        <ele>470.79998779297</ele>
        <time>2021-07-11T06:40:17.000Z</time>
      </trkpt>
      <trkpt lat="45.1984" lon="5.72642">
        <ele>470.39999389648</ele>
        <time>2021-07-11T06:40:20.000Z</time>
      </trkpt>
      <trkpt lat="45.19843" lon="5.72649">
        <ele>469.39999389648</ele>
        <time>2021-07-11T06:40:23.000Z</time>
      </trkpt>
      <trkpt lat="45.19845" lon="5.7266">
        <ele>468.39999389648</ele>
        <time>2021-07-11T06:40:27.000Z</time>
      </trkpt>
      <trkpt lat="45.19847" lon="5.72665">
        <ele>468.20001220703</ele>
        <time>2021-07-11T06:40:29.000Z</time>
      </trkpt>
      <trkpt lat="45.1985" lon="5.72669">
        <ele>467.60000610352</ele>
        <time>2021-07-11T06:40:31.000Z</time>
      </trkpt>
      <trkpt lat="45.19851" lon="5.72672">
        <ele>467.39999389648</ele>
        <time>2021-07-11T06:40:32.000Z</time>
      </trkpt>
      <trkpt lat="45.19855" lon="5.7268">
        <ele>466.39999389648</ele>
        <time>2021-07-11T06:40:35.000Z</time>
      </trkpt>
      <trkpt lat="45.19854" lon="5.7268">
        <ele>466.39999389648</ele>
        <time>2021-07-11T06:40:36.000Z</time>
      </trkpt>
      <trkpt lat="45.19846" lon="5.72676">
        <ele>465</ele>
        <time>2021-07-11T06:40:39.000Z</time>
      </trkpt>
      <trkpt lat="45.19838" lon="5.7267">
        <ele>464.20001220703</ele>
        <time>2021-07-11T06:40:42.000Z</time>
      </trkpt>
      <trkpt lat="45.19832" lon="5.72663">
        <ele>463.79998779297</ele>
        <time>2021-07-11T06:40:45.000Z</time>
      </trkpt>
      <trkpt lat="45.19829" lon="5.72661">
        <ele>463.39999389648</ele>
        <time>2021-07-11T06:40:46.000Z</time>
      </trkpt>
      <trkpt lat="45.19826" lon="5.72657">
        <ele>463.20001220703</ele>
        <time>2021-07-11T06:40:48.000Z</time>
      </trkpt>
      <trkpt lat="45.19821" lon="5.72655">
        <ele>462.79998779297</ele>
        <time>2021-07-11T06:40:50.000Z</time>
      </trkpt>
      <trkpt lat="45.19818" lon="5.72653">
        <ele>462</ele>
        <time>2021-07-11T06:40:51.000Z</time>
      </trkpt>
      <trkpt lat="45.19816" lon="5.72651">
        <ele>461.60000610352</ele>
        <time>2021-07-11T06:40:52.000Z</time>
      </trkpt>
      <trkpt lat="45.19809" lon="5.72645">
        <ele>460.39999389648</ele>
        <time>2021-07-11T06:40:55.000Z</time>
      </trkpt>
      <trkpt lat="45.19799" lon="5.72638">
        <ele>459.79998779297</ele>
        <time>2021-07-11T06:40:59.000Z</time>
      </trkpt>
      <trkpt lat="45.19795" lon="5.72635">
        <ele>459.20001220703</ele>
        <time>2021-07-11T06:41:01.000Z</time>
      </trkpt>
      <trkpt lat="45.19792" lon="5.72634">
        <ele>459</ele>
        <time>2021-07-11T06:41:02.000Z</time>
      </trkpt>
      <trkpt lat="45.1979" lon="5.72631">
        <ele>458.60000610352</ele>
        <time>2021-07-11T06:41:03.000Z</time>
      </trkpt>
      <trkpt lat="45.19789" lon="5.72628">
        <ele>458.39999389648</ele>
        <time>2021-07-11T06:41:04.000Z</time>
      </trkpt>
      <trkpt lat="45.19787" lon="5.72624">
        <ele>458</ele>
        <time>2021-07-11T06:41:05.000Z</time>
      </trkpt>
      <trkpt lat="45.19785" lon="5.72621">
        <ele>458</ele>
        <time>2021-07-11T06:41:06.000Z</time>
      </trkpt>
      <trkpt lat="45.19781" lon="5.72606">
        <ele>456.79998779297</ele>
        <time>2021-07-11T06:41:10.000Z</time>
      </trkpt>
      <trkpt lat="45.19779" lon="5.72593">
        <ele>455.60000610352</ele>
        <time>2021-07-11T06:41:14.000Z</time>
      </trkpt>
      <trkpt lat="45.1978" lon="5.72585">
        <ele>455.60000610352</ele>
        <time>2021-07-11T06:41:16.000Z</time>
      </trkpt>
      <trkpt lat="45.19779" lon="5.72574">
        <ele>454.20001220703</ele>
        <time>2021-07-11T06:41:19.000Z</time>
      </trkpt>
      <trkpt lat="45.19779" lon="5.72554">
        <ele>453.39999389648</ele>
        <time>2021-07-11T06:41:24.000Z</time>
      </trkpt>
      <trkpt lat="45.19779" lon="5.7255">
        <ele>452.79998779297</ele>
        <time>2021-07-11T06:41:25.000Z</time>
      </trkpt>
      <trkpt lat="45.19778" lon="5.72537">
        <ele>452.20001220703</ele>
        <time>2021-07-11T06:41:29.000Z</time>
      </trkpt>
      <trkpt lat="45.19777" lon="5.72536">
        <ele>452</ele>
        <time>2021-07-11T06:41:30.000Z</time>
      </trkpt>
      <trkpt lat="45.19777" lon="5.72536">
        <ele>451.60000610352</ele>
        <time>2021-07-11T06:41:31.000Z</time>
      </trkpt>
      <trkpt lat="45.19776" lon="5.72542">
        <ele>450.39999389648</ele>
        <time>2021-07-11T06:41:35.000Z</time>
      </trkpt>
      <trkpt lat="45.19777" lon="5.72546">
        <ele>450</ele>
        <time>2021-07-11T06:41:36.000Z</time>
      </trkpt>
      <trkpt lat="45.19779" lon="5.72556">
        <ele>449</ele>
        <time>2021-07-11T06:41:39.000Z</time>
      </trkpt>
      <trkpt lat="45.19778" lon="5.72576">
        <ele>447.60000610352</ele>
        <time>2021-07-11T06:41:44.000Z</time>
      </trkpt>
      <trkpt lat="45.19778" lon="5.72582">
        <ele>447.20001220703</ele>
        <time>2021-07-11T06:41:46.000Z</time>
      </trkpt>
      <trkpt lat="45.19778" lon="5.72585">
        <ele>447.20001220703</ele>
        <time>2021-07-11T06:41:47.000Z</time>
      </trkpt>
      <trkpt lat="45.19776" lon="5.72585">
        <ele>447.20001220703</ele>
        <time>2021-07-11T06:41:48.000Z</time>
      </trkpt>
      <trkpt lat="45.19775" lon="5.72584">
        <ele>445.79998779297</ele>
        <time>2021-07-11T06:41:49.000Z</time>
      </trkpt>
      <trkpt lat="45.19774" lon="5.72581">
        <ele>445.60000610352</ele>
        <time>2021-07-11T06:41:50.000Z</time>
      </trkpt>
      <trkpt lat="45.19771" lon="5.72573">
        <ele>445.20001220703</ele>
        <time>2021-07-11T06:41:52.000Z</time>
      </trkpt>
      <trkpt lat="45.19769" lon="5.72566">
        <ele>444.60000610352</ele>
        <time>2021-07-11T06:41:54.000Z</time>
      </trkpt>
      <trkpt lat="45.19765" lon="5.72548">
        <ele>443</ele>
        <time>2021-07-11T06:41:59.000Z</time>
      </trkpt>
      <trkpt lat="45.19765" lon="5.72545">
        <ele>442.79998779297</ele>
        <time>2021-07-11T06:42:00.000Z</time>
      </trkpt>
      <trkpt lat="45.19765" lon="5.7253">
        <ele>441.79998779297</ele>
        <time>2021-07-11T06:42:04.000Z</time>
      </trkpt>
      <trkpt lat="45.19768" lon="5.72523">
        <ele>441.20001220703</ele>
        <time>2021-07-11T06:42:06.000Z</time>
      </trkpt>
      <trkpt lat="45.19774" lon="5.72509">
        <ele>440.39999389648</ele>
        <time>2021-07-11T06:42:10.000Z</time>
      </trkpt>
      <trkpt lat="45.19774" lon="5.72509">
        <ele>440.39999389648</ele>
        <time>2021-07-11T06:42:11.000Z</time>
      </trkpt>
      <trkpt lat="45.19773" lon="5.72508">
        <ele>440.39999389648</ele>
        <time>2021-07-11T06:42:12.000Z</time>
      </trkpt>
      <trkpt lat="45.19771" lon="5.72512">
        <ele>439.20001220703</ele>
        <time>2021-07-11T06:42:14.000Z</time>
      </trkpt>
      <trkpt lat="45.19766" lon="5.72519">
        <ele>438.20001220703</ele>
        <time>2021-07-11T06:42:17.000Z</time>
      </trkpt>
      <trkpt lat="45.19765" lon="5.72522">
        <ele>438</ele>
        <time>2021-07-11T06:42:18.000Z</time>
      </trkpt>
      <trkpt lat="45.19757" lon="5.72535">
        <ele>437.39999389648</ele>
        <time>2021-07-11T06:42:23.000Z</time>
      </trkpt>
      <trkpt lat="45.19755" lon="5.72545">
        <ele>437.60000610352</ele>
        <time>2021-07-11T06:42:26.000Z</time>
      </trkpt>
      <trkpt lat="45.19754" lon="5.72552">
        <ele>437.20001220703</ele>
        <time>2021-07-11T06:42:28.000Z</time>
      </trkpt>
      <trkpt lat="45.19754" lon="5.72555">
        <ele>437.20001220703</ele>
        <time>2021-07-11T06:42:29.000Z</time>
      </trkpt>
      <trkpt lat="45.19753" lon="5.72568">
        <ele>436.79998779297</ele>
        <time>2021-07-11T06:42:33.000Z</time>
      </trkpt>
      <trkpt lat="45.19752" lon="5.72578">
        <ele>437</ele>
        <time>2021-07-11T06:42:37.000Z</time>
      </trkpt>
      <trkpt lat="45.19752" lon="5.72582">
        <ele>437.39999389648</ele>
        <time>2021-07-11T06:42:39.000Z</time>
      </trkpt>
      <trkpt lat="45.19752" lon="5.72586">
        <ele>437.20001220703</ele>
        <time>2021-07-11T06:42:41.000Z</time>
      </trkpt>
      <trkpt lat="45.19752" lon="5.72588">
        <ele>437.20001220703</ele>
        <time>2021-07-11T06:42:42.000Z</time>
      </trkpt>
      <trkpt lat="45.19753" lon="5.72591">
        <ele>437.39999389648</ele>
        <time>2021-07-11T06:42:43.000Z</time>
      </trkpt>
      <trkpt lat="45.19757" lon="5.72605">
        <ele>437.39999389648</ele>
        <time>2021-07-11T06:42:47.000Z</time>
      </trkpt>
      <trkpt lat="45.19761" lon="5.72624">
        <ele>437.39999389648</ele>
        <time>2021-07-11T06:42:51.000Z</time>
      </trkpt>
      <trkpt lat="45.19768" lon="5.72641">
        <ele>437.60000610352</ele>
        <time>2021-07-11T06:42:56.000Z</time>
      </trkpt>
      <trkpt lat="45.19771" lon="5.72648">
        <ele>437.60000610352</ele>
        <time>2021-07-11T06:42:58.000Z</time>
      </trkpt>
      <trkpt lat="45.19782" lon="5.72667">
        <ele>437.60000610352</ele>
        <time>2021-07-11T06:43:05.000Z</time>
      </trkpt>
      <trkpt lat="45.19783" lon="5.72669">
        <ele>437.60000610352</ele>
        <time>2021-07-11T06:43:06.000Z</time>
      </trkpt>
      <trkpt lat="45.19793" lon="5.72679">
        <ele>437.39999389648</ele>
        <time>2021-07-11T06:43:12.000Z</time>
      </trkpt>
      <trkpt lat="45.19798" lon="5.72683">
        <ele>437.79998779297</ele>
        <time>2021-07-11T06:43:15.000Z</time>
      </trkpt>
      <trkpt lat="45.19803" lon="5.72687">
        <ele>438</ele>
        <time>2021-07-11T06:43:18.000Z</time>
      </trkpt>
      <trkpt lat="45.19814" lon="5.72702">
        <ele>438.39999389648</ele>
        <time>2021-07-11T06:43:24.000Z</time>
      </trkpt>
      <trkpt lat="45.19822" lon="5.72712">
        <ele>438.39999389648</ele>
        <time>2021-07-11T06:43:27.000Z</time>
      </trkpt>
      <trkpt lat="45.19829" lon="5.72723">
        <ele>438.39999389648</ele>
        <time>2021-07-11T06:43:30.000Z</time>
      </trkpt>
      <trkpt lat="45.19835" lon="5.7273">
        <ele>438.60000610352</ele>
        <time>2021-07-11T06:43:32.000Z</time>
      </trkpt>
      <trkpt lat="45.19836" lon="5.72732">
        <ele>438.60000610352</ele>
        <time>2021-07-11T06:43:33.000Z</time>
      </trkpt>
      <trkpt lat="45.19838" lon="5.72733">
        <ele>438.60000610352</ele>
        <time>2021-07-11T06:43:34.000Z</time>
      </trkpt>
      <trkpt lat="45.19861" lon="5.72736">
        <ele>434.20001220703</ele>
        <time>2021-07-11T06:43:49.000Z</time>
      </trkpt>
      <trkpt lat="45.19862" lon="5.72756">
        <ele>433.39999389648</ele>
        <time>2021-07-11T06:43:54.000Z</time>
      </trkpt>
      <trkpt lat="45.1986" lon="5.72757">
        <ele>433.20001220703</ele>
        <time>2021-07-11T06:43:55.000Z</time>
      </trkpt>
      <trkpt lat="45.19855" lon="5.72757">
        <ele>432.39999389648</ele>
        <time>2021-07-11T06:43:57.000Z</time>
      </trkpt>
      <trkpt lat="45.19854" lon="5.72756">
        <ele>432.20001220703</ele>
        <time>2021-07-11T06:43:58.000Z</time>
      </trkpt>
      <trkpt lat="45.19854" lon="5.72753">
        <ele>431.20001220703</ele>
        <time>2021-07-11T06:44:01.000Z</time>
      </trkpt>
      <trkpt lat="45.19855" lon="5.72753">
        <ele>429.60000610352</ele>
        <time>2021-07-11T06:44:03.000Z</time>
      </trkpt>
      <trkpt lat="45.19856" lon="5.72754">
        <ele>429.39999389648</ele>
        <time>2021-07-11T06:44:04.000Z</time>
      </trkpt>
      <trkpt lat="45.19854" lon="5.72756">
        <ele>428.39999389648</ele>
        <time>2021-07-11T06:44:08.000Z</time>
      </trkpt>
      <trkpt lat="45.19853" lon="5.72756">
        <ele>428</ele>
        <time>2021-07-11T06:44:09.000Z</time>
      </trkpt>
      <trkpt lat="45.19845" lon="5.72778">
        <ele>414.60000610352</ele>
        <time>2021-07-11T06:44:40.000Z</time>
      </trkpt>
      <trkpt lat="45.19844" lon="5.72769">
        <ele>413</ele>
        <time>2021-07-11T06:44:42.000Z</time>
      </trkpt>
      <trkpt lat="45.19843" lon="5.72771">
        <ele>412.20001220703</ele>
        <time>2021-07-11T06:44:43.000Z</time>
      </trkpt>
      <trkpt lat="45.19841" lon="5.72773">
        <ele>411.79998779297</ele>
        <time>2021-07-11T06:44:45.000Z</time>
      </trkpt>
      <trkpt lat="45.19842" lon="5.72772">
        <ele>410.79998779297</ele>
        <time>2021-07-11T06:44:46.000Z</time>
      </trkpt>
      <trkpt lat="45.19847" lon="5.72772">
        <ele>410.20001220703</ele>
        <time>2021-07-11T06:44:49.000Z</time>
      </trkpt>
      <trkpt lat="45.19848" lon="5.72774">
        <ele>410.20001220703</ele>
        <time>2021-07-11T06:44:50.000Z</time>
      </trkpt>
      <trkpt lat="45.19846" lon="5.72779">
        <ele>409.79998779297</ele>
        <time>2021-07-11T06:44:52.000Z</time>
      </trkpt>
      <trkpt lat="45.19841" lon="5.72778">
        <ele>409.39999389648</ele>
        <time>2021-07-11T06:44:54.000Z</time>
      </trkpt>
      <trkpt lat="45.19838" lon="5.72777">
        <ele>408.60000610352</ele>
        <time>2021-07-11T06:44:55.000Z</time>
      </trkpt>
      <trkpt lat="45.19827" lon="5.7277">
        <ele>407.60000610352</ele>
        <time>2021-07-11T06:45:00.000Z</time>
      </trkpt>
      <trkpt lat="45.19824" lon="5.72768">
        <ele>407.39999389648</ele>
        <time>2021-07-11T06:45:01.000Z</time>
      </trkpt>
      <trkpt lat="45.19817" lon="5.72764">
        <ele>406.39999389648</ele>
        <time>2021-07-11T06:45:04.000Z</time>
      </trkpt>
      <trkpt lat="45.19805" lon="5.72755">
        <ele>405.79998779297</ele>
        <time>2021-07-11T06:45:09.000Z</time>
      </trkpt>
      <trkpt lat="45.19803" lon="5.72753">
        <ele>405.20001220703</ele>
        <time>2021-07-11T06:45:10.000Z</time>
      </trkpt>
      <trkpt lat="45.19791" lon="5.72743">
        <ele>404.20001220703</ele>
        <time>2021-07-11T06:45:15.000Z</time>
      </trkpt>
      <trkpt lat="45.19787" lon="5.7274">
        <ele>403.79998779297</ele>
        <time>2021-07-11T06:45:17.000Z</time>
      </trkpt>
      <trkpt lat="45.19785" lon="5.7274">
        <ele>403.20001220703</ele>
        <time>2021-07-11T06:45:18.000Z</time>
      </trkpt>
      <trkpt lat="45.19784" lon="5.72741">
        <ele>402.79998779297</ele>
        <time>2021-07-11T06:45:20.000Z</time>
      </trkpt>
      <trkpt lat="45.19784" lon="5.72741">
        <ele>402.60000610352</ele>
        <time>2021-07-11T06:45:21.000Z</time>
      </trkpt>
      <trkpt lat="45.19787" lon="5.72743">
        <ele>401.60000610352</ele>
        <time>2021-07-11T06:45:23.000Z</time>
      </trkpt>
      <trkpt lat="45.19789" lon="5.72745">
        <ele>401.39999389648</ele>
        <time>2021-07-11T06:45:24.000Z</time>
      </trkpt>
      <trkpt lat="45.19798" lon="5.7275">
        <ele>400.39999389648</ele>
        <time>2021-07-11T06:45:28.000Z</time>
      </trkpt>
      <trkpt lat="45.19802" lon="5.72754">
        <ele>399.60000610352</ele>
        <time>2021-07-11T06:45:30.000Z</time>
      </trkpt>
      <trkpt lat="45.19806" lon="5.72759">
        <ele>399.20001220703</ele>
        <time>2021-07-11T06:45:32.000Z</time>
      </trkpt>
      <trkpt lat="45.19814" lon="5.72769">
        <ele>398.20001220703</ele>
        <time>2021-07-11T06:45:36.000Z</time>
      </trkpt>
      <trkpt lat="45.19816" lon="5.72771">
        <ele>398</ele>
        <time>2021-07-11T06:45:37.000Z</time>
      </trkpt>
      <trkpt lat="45.19818" lon="5.72773">
        <ele>396.79998779297</ele>
        <time>2021-07-11T06:45:38.000Z</time>
      </trkpt>
      <trkpt lat="45.19822" lon="5.72777">
        <ele>396.79998779297</ele>
        <time>2021-07-11T06:45:40.000Z</time>
      </trkpt>
      <trkpt lat="45.19825" lon="5.7278">
        <ele>395.60000610352</ele>
        <time>2021-07-11T06:45:41.000Z</time>
      </trkpt>
      <trkpt lat="45.19827" lon="5.72781">
        <ele>395.60000610352</ele>
        <time>2021-07-11T06:45:42.000Z</time>
      </trkpt>
      <trkpt lat="45.1983" lon="5.72785">
        <ele>395.20001220703</ele>
        <time>2021-07-11T06:45:44.000Z</time>
      </trkpt>
      <trkpt lat="45.19833" lon="5.72788">
        <ele>394.60000610352</ele>
        <time>2021-07-11T06:45:46.000Z</time>
      </trkpt>
      <trkpt lat="45.19835" lon="5.72797">
        <ele>393.20001220703</ele>
        <time>2021-07-11T06:45:50.000Z</time>
      </trkpt>
      <trkpt lat="45.19827" lon="5.72797">
        <ele>392</ele>
        <time>2021-07-11T06:45:54.000Z</time>
      </trkpt>
      <trkpt lat="45.19817" lon="5.7279">
        <ele>390.60000610352</ele>
        <time>2021-07-11T06:45:59.000Z</time>
      </trkpt>
      <trkpt lat="45.19812" lon="5.72788">
        <ele>389.60000610352</ele>
        <time>2021-07-11T06:46:01.000Z</time>
      </trkpt>
      <trkpt lat="45.1981" lon="5.72788">
        <ele>389.39999389648</ele>
        <time>2021-07-11T06:46:02.000Z</time>
      </trkpt>
      <trkpt lat="45.19799" lon="5.72782">
        <ele>388</ele>
        <time>2021-07-11T06:46:07.000Z</time>
      </trkpt>
      <trkpt lat="45.19794" lon="5.72778">
        <ele>387</ele>
        <time>2021-07-11T06:46:10.000Z</time>
      </trkpt>
      <trkpt lat="45.19793" lon="5.72779">
        <ele>387</ele>
        <time>2021-07-11T06:46:11.000Z</time>
      </trkpt>
      <trkpt lat="45.19792" lon="5.7278">
        <ele>387</ele>
        <time>2021-07-11T06:46:12.000Z</time>
      </trkpt>
      <trkpt lat="45.19793" lon="5.72782">
        <ele>386.79998779297</ele>
        <time>2021-07-11T06:46:14.000Z</time>
      </trkpt>
      <trkpt lat="45.19794" lon="5.72783">
        <ele>386.20001220703</ele>
        <time>2021-07-11T06:46:15.000Z</time>
      </trkpt>
      <trkpt lat="45.19798" lon="5.72786">
        <ele>386</ele>
        <time>2021-07-11T06:46:17.000Z</time>
      </trkpt>
      <trkpt lat="45.19806" lon="5.72793">
        <ele>385</ele>
        <time>2021-07-11T06:46:21.000Z</time>
      </trkpt>
      <trkpt lat="45.1981" lon="5.72796">
        <ele>384.79998779297</ele>
        <time>2021-07-11T06:46:23.000Z</time>
      </trkpt>
      <trkpt lat="45.19815" lon="5.72801">
        <ele>382.60000610352</ele>
        <time>2021-07-11T06:46:26.000Z</time>
      </trkpt>
      <trkpt lat="45.19819" lon="5.72808">
        <ele>382.39999389648</ele>
        <time>2021-07-11T06:46:29.000Z</time>
      </trkpt>
      <trkpt lat="45.19826" lon="5.72815">
        <ele>381</ele>
        <time>2021-07-11T06:46:33.000Z</time>
      </trkpt>
      <trkpt lat="45.19831" lon="5.72818">
        <ele>380.39999389648</ele>
        <time>2021-07-11T06:46:35.000Z</time>
      </trkpt>
      <trkpt lat="45.19833" lon="5.72819">
        <ele>379.79998779297</ele>
        <time>2021-07-11T06:46:36.000Z</time>
      </trkpt>
      <trkpt lat="45.19832" lon="5.72822">
        <ele>379.79998779297</ele>
        <time>2021-07-11T06:46:37.000Z</time>
      </trkpt>
      <trkpt lat="45.19831" lon="5.72822">
        <ele>379.60000610352</ele>
        <time>2021-07-11T06:46:38.000Z</time>
      </trkpt>
      <trkpt lat="45.19821" lon="5.72821">
        <ele>378.60000610352</ele>
        <time>2021-07-11T06:46:42.000Z</time>
      </trkpt>
      <trkpt lat="45.19818" lon="5.7282">
        <ele>378.60000610352</ele>
        <time>2021-07-11T06:46:43.000Z</time>
      </trkpt>
      <trkpt lat="45.19816" lon="5.72818">
        <ele>377.60000610352</ele>
        <time>2021-07-11T06:46:44.000Z</time>
      </trkpt>
      <trkpt lat="45.19809" lon="5.72815">
        <ele>376.60000610352</ele>
        <time>2021-07-11T06:46:49.000Z</time>
      </trkpt>
      <trkpt lat="45.1981" lon="5.72814">
        <ele>376</ele>
        <time>2021-07-11T06:46:50.000Z</time>
      </trkpt>
      <trkpt lat="45.19811" lon="5.72815">
        <ele>375.79998779297</ele>
        <time>2021-07-11T06:46:52.000Z</time>
      </trkpt>
      <trkpt lat="45.19813" lon="5.72817">
        <ele>375.39999389648</ele>
        <time>2021-07-11T06:46:53.000Z</time>
      </trkpt>
      <trkpt lat="45.19826" lon="5.72826">
        <ele>374.20001220703</ele>
        <time>2021-07-11T06:46:57.000Z</time>
      </trkpt>
      <trkpt lat="45.19829" lon="5.72831">
        <ele>373.20001220703</ele>
        <time>2021-07-11T06:46:59.000Z</time>
      </trkpt>
      <trkpt lat="45.19824" lon="5.72834">
        <ele>373</ele>
        <time>2021-07-11T06:47:01.000Z</time>
      </trkpt>
      <trkpt lat="45.19816" lon="5.72833">
        <ele>371.60000610352</ele>
        <time>2021-07-11T06:47:04.000Z</time>
      </trkpt>
      <trkpt lat="45.19808" lon="5.7283">
        <ele>371.20001220703</ele>
        <time>2021-07-11T06:47:07.000Z</time>
      </trkpt>
      <trkpt lat="45.19798" lon="5.72826">
        <ele>370</ele>
        <time>2021-07-11T06:47:10.000Z</time>
      </trkpt>
      <trkpt lat="45.19789" lon="5.72824">
        <ele>369.39999389648</ele>
        <time>2021-07-11T06:47:13.000Z</time>
      </trkpt>
      <trkpt lat="45.19787" lon="5.72822">
        <ele>369</ele>
        <time>2021-07-11T06:47:14.000Z</time>
      </trkpt>
      <trkpt lat="45.19782" lon="5.72821">
        <ele>367.79998779297</ele>
        <time>2021-07-11T06:47:17.000Z</time>
      </trkpt>
      <trkpt lat="45.19782" lon="5.72819">
        <ele>367.39999389648</ele>
        <time>2021-07-11T06:47:19.000Z</time>
      </trkpt>
      <trkpt lat="45.19792" lon="5.72816">
        <ele>367.39999389648</ele>
        <time>2021-07-11T06:47:22.000Z</time>
      </trkpt>
      <trkpt lat="45.19795" lon="5.72817">
        <ele>367.20001220703</ele>
        <time>2021-07-11T06:47:23.000Z</time>
      </trkpt>
      <trkpt lat="45.198" lon="5.72823">
        <ele>366.39999389648</ele>
        <time>2021-07-11T06:47:27.000Z</time>
      </trkpt>
      <trkpt lat="45.19811" lon="5.72837">
        <ele>365.20001220703</ele>
        <time>2021-07-11T06:47:32.000Z</time>
      </trkpt>
      <trkpt lat="45.19814" lon="5.72842">
        <ele>364.79998779297</ele>
        <time>2021-07-11T06:47:34.000Z</time>
      </trkpt>
      <trkpt lat="45.19811" lon="5.72843">
        <ele>364.20001220703</ele>
        <time>2021-07-11T06:47:36.000Z</time>
      </trkpt>
      <trkpt lat="45.19809" lon="5.72843">
        <ele>363.79998779297</ele>
        <time>2021-07-11T06:47:37.000Z</time>
      </trkpt>
      <trkpt lat="45.198" lon="5.7284">
        <ele>362.79998779297</ele>
        <time>2021-07-11T06:47:42.000Z</time>
      </trkpt>
      <trkpt lat="45.19796" lon="5.72839">
        <ele>362.79998779297</ele>
        <time>2021-07-11T06:47:43.000Z</time>
      </trkpt>
      <trkpt lat="45.1979" lon="5.72838">
        <ele>361.39999389648</ele>
        <time>2021-07-11T06:47:45.000Z</time>
      </trkpt>
      <trkpt lat="45.19775" lon="5.72832">
        <ele>359.60000610352</ele>
        <time>2021-07-11T06:47:50.000Z</time>
      </trkpt>
      <trkpt lat="45.19771" lon="5.72829">
        <ele>359.20001220703</ele>
        <time>2021-07-11T06:47:52.000Z</time>
      </trkpt>
      <trkpt lat="45.19763" lon="5.72823">
        <ele>358.60000610352</ele>
        <time>2021-07-11T06:47:56.000Z</time>
      </trkpt>
      <trkpt lat="45.19755" lon="5.72817">
        <ele>357.60000610352</ele>
        <time>2021-07-11T06:47:59.000Z</time>
      </trkpt>
      <trkpt lat="45.19752" lon="5.72815">
        <ele>357</ele>
        <time>2021-07-11T06:48:00.000Z</time>
      </trkpt>
      <trkpt lat="45.19744" lon="5.72813">
        <ele>356</ele>
        <time>2021-07-11T06:48:03.000Z</time>
      </trkpt>
      <trkpt lat="45.19747" lon="5.72812">
        <ele>355.39999389648</ele>
        <time>2021-07-11T06:48:05.000Z</time>
      </trkpt>
      <trkpt lat="45.19748" lon="5.72811">
        <ele>355.20001220703</ele>
        <time>2021-07-11T06:48:06.000Z</time>
      </trkpt>
      <trkpt lat="45.1975" lon="5.72811">
        <ele>355</ele>
        <time>2021-07-11T06:48:07.000Z</time>
      </trkpt>
      <trkpt lat="45.19753" lon="5.72814">
        <ele>354.20001220703</ele>
        <time>2021-07-11T06:48:09.000Z</time>
      </trkpt>
      <trkpt lat="45.19755" lon="5.72816">
        <ele>354.20001220703</ele>
        <time>2021-07-11T06:48:10.000Z</time>
      </trkpt>
      <trkpt lat="45.19757" lon="5.72817">
        <ele>353.79998779297</ele>
        <time>2021-07-11T06:48:11.000Z</time>
      </trkpt>
      <trkpt lat="45.19761" lon="5.72824">
        <ele>353.20001220703</ele>
        <time>2021-07-11T06:48:14.000Z</time>
      </trkpt>
      <trkpt lat="45.19762" lon="5.72826">
        <ele>352.79998779297</ele>
        <time>2021-07-11T06:48:15.000Z</time>
      </trkpt>
      <trkpt lat="45.19765" lon="5.72832">
        <ele>351.39999389648</ele>
        <time>2021-07-11T06:48:18.000Z</time>
      </trkpt>
      <trkpt lat="45.1978" lon="5.72846">
        <ele>350.20001220703</ele>
        <time>2021-07-11T06:48:23.000Z</time>
      </trkpt>
      <trkpt lat="45.19788" lon="5.72855">
        <ele>348.79998779297</ele>
        <time>2021-07-11T06:48:27.000Z</time>
      </trkpt>
      <trkpt lat="45.19789" lon="5.72857">
        <ele>348.60000610352</ele>
        <time>2021-07-11T06:48:28.000Z</time>
      </trkpt>
      <trkpt lat="45.19791" lon="5.72861">
        <ele>348.20001220703</ele>
        <time>2021-07-11T06:48:30.000Z</time>
      </trkpt>
      <trkpt lat="45.19792" lon="5.72863">
        <ele>347.60000610352</ele>
        <time>2021-07-11T06:48:31.000Z</time>
      </trkpt>
      <trkpt lat="45.19796" lon="5.72866">
        <ele>346</ele>
        <time>2021-07-11T06:48:34.000Z</time>
      </trkpt>
      <trkpt lat="45.19797" lon="5.72868">
        <ele>346</ele>
        <time>2021-07-11T06:48:35.000Z</time>
      </trkpt>
      <trkpt lat="45.19794" lon="5.72871">
        <ele>345.60000610352</ele>
        <time>2021-07-11T06:48:37.000Z</time>
      </trkpt>
      <trkpt lat="45.19787" lon="5.72872">
        <ele>344.79998779297</ele>
        <time>2021-07-11T06:48:40.000Z</time>
      </trkpt>
      <trkpt lat="45.19785" lon="5.72872">
        <ele>344.79998779297</ele>
        <time>2021-07-11T06:48:41.000Z</time>
      </trkpt>
      <trkpt lat="45.19777" lon="5.72869">
        <ele>343.39999389648</ele>
        <time>2021-07-11T06:48:44.000Z</time>
      </trkpt>
      <trkpt lat="45.19768" lon="5.72867">
        <ele>342.79998779297</ele>
        <time>2021-07-11T06:48:47.000Z</time>
      </trkpt>
      <trkpt lat="45.19763" lon="5.72865">
        <ele>342</ele>
        <time>2021-07-11T06:48:49.000Z</time>
      </trkpt>
      <trkpt lat="45.19758" lon="5.72863">
        <ele>341</ele>
        <time>2021-07-11T06:48:51.000Z</time>
      </trkpt>
      <trkpt lat="45.19756" lon="5.72861">
        <ele>340.79998779297</ele>
        <time>2021-07-11T06:48:52.000Z</time>
      </trkpt>
      <trkpt lat="45.19751" lon="5.72858">
        <ele>339.60000610352</ele>
        <time>2021-07-11T06:48:54.000Z</time>
      </trkpt>
      <trkpt lat="45.19738" lon="5.72848">
        <ele>338.39999389648</ele>
        <time>2021-07-11T06:48:59.000Z</time>
      </trkpt>
      <trkpt lat="45.19734" lon="5.72848">
        <ele>337.60000610352</ele>
        <time>2021-07-11T06:49:02.000Z</time>
      </trkpt>
      <trkpt lat="45.19734" lon="5.72848">
        <ele>336.79998779297</ele>
        <time>2021-07-11T06:49:03.000Z</time>
      </trkpt>
      <trkpt lat="45.19736" lon="5.72851">
        <ele>336.39999389648</ele>
        <time>2021-07-11T06:49:05.000Z</time>
      </trkpt>
      <trkpt lat="45.19742" lon="5.72856">
        <ele>335.39999389648</ele>
        <time>2021-07-11T06:49:08.000Z</time>
      </trkpt>
      <trkpt lat="45.19743" lon="5.72857">
        <ele>335.39999389648</ele>
        <time>2021-07-11T06:49:09.000Z</time>
      </trkpt>
      <trkpt lat="45.19745" lon="5.72859">
        <ele>334.60000610352</ele>
        <time>2021-07-11T06:49:11.000Z</time>
      </trkpt>
      <trkpt lat="45.19746" lon="5.72861">
        <ele>334.60000610352</ele>
        <time>2021-07-11T06:49:12.000Z</time>
      </trkpt>
      <trkpt lat="45.19747" lon="5.72864">
        <ele>334.20001220703</ele>
        <time>2021-07-11T06:49:13.000Z</time>
      </trkpt>
      <trkpt lat="45.19751" lon="5.72874">
        <ele>332.39999389648</ele>
        <time>2021-07-11T06:49:17.000Z</time>
      </trkpt>
      <trkpt lat="45.19755" lon="5.72879">
        <ele>332.20001220703</ele>
        <time>2021-07-11T06:49:19.000Z</time>
      </trkpt>
      <trkpt lat="45.19763" lon="5.7289">
        <ele>330.60000610352</ele>
        <time>2021-07-11T06:49:23.000Z</time>
      </trkpt>
      <trkpt lat="45.19766" lon="5.72896">
        <ele>330</ele>
        <time>2021-07-11T06:49:26.000Z</time>
      </trkpt>
      <trkpt lat="45.19768" lon="5.72898">
        <ele>329.60000610352</ele>
        <time>2021-07-11T06:49:27.000Z</time>
      </trkpt>
      <trkpt lat="45.19772" lon="5.72904">
        <ele>328.60000610352</ele>
        <time>2021-07-11T06:49:30.000Z</time>
      </trkpt>
      <trkpt lat="45.19773" lon="5.72907">
        <ele>328.60000610352</ele>
        <time>2021-07-11T06:49:31.000Z</time>
      </trkpt>
      <trkpt lat="45.19774" lon="5.72908">
        <ele>328.39999389648</ele>
        <time>2021-07-11T06:49:32.000Z</time>
      </trkpt>
      <trkpt lat="45.19776" lon="5.72912">
        <ele>327.39999389648</ele>
        <time>2021-07-11T06:49:34.000Z</time>
      </trkpt>
      <trkpt lat="45.19773" lon="5.72914">
        <ele>326.79998779297</ele>
        <time>2021-07-11T06:49:36.000Z</time>
      </trkpt>
      <trkpt lat="45.19769" lon="5.72915">
        <ele>326.39999389648</ele>
        <time>2021-07-11T06:49:38.000Z</time>
      </trkpt>
      <trkpt lat="45.19766" lon="5.72915">
        <ele>325</ele>
        <time>2021-07-11T06:49:40.000Z</time>
      </trkpt>
      <trkpt lat="45.19755" lon="5.7291">
        <ele>324.20001220703</ele>
        <time>2021-07-11T06:49:45.000Z</time>
      </trkpt>
      <trkpt lat="45.19752" lon="5.72909">
        <ele>323.79998779297</ele>
        <time>2021-07-11T06:49:46.000Z</time>
      </trkpt>
      <trkpt lat="45.19749" lon="5.72909">
        <ele>322.60000610352</ele>
        <time>2021-07-11T06:49:47.000Z</time>
      </trkpt>
      <trkpt lat="45.19742" lon="5.72908">
        <ele>321.79998779297</ele>
        <time>2021-07-11T06:49:50.000Z</time>
      </trkpt>
      <trkpt lat="45.1974" lon="5.72907">
        <ele>321.60000610352</ele>
        <time>2021-07-11T06:49:51.000Z</time>
      </trkpt>
      <trkpt lat="45.19733" lon="5.72904">
        <ele>320.39999389648</ele>
        <time>2021-07-11T06:49:54.000Z</time>
      </trkpt>
      <trkpt lat="45.19731" lon="5.72902">
        <ele>320.20001220703</ele>
        <time>2021-07-11T06:49:55.000Z</time>
      </trkpt>
      <trkpt lat="45.1972" lon="5.72897">
        <ele>318.79998779297</ele>
        <time>2021-07-11T06:49:59.000Z</time>
      </trkpt>
      <trkpt lat="45.19715" lon="5.72897">
        <ele>318.20001220703</ele>
        <time>2021-07-11T06:50:01.000Z</time>
      </trkpt>
      <trkpt lat="45.1971" lon="5.72894">
        <ele>317.39999389648</ele>
        <time>2021-07-11T06:50:03.000Z</time>
      </trkpt>
      <trkpt lat="45.19701" lon="5.72888">
        <ele>316.20001220703</ele>
        <time>2021-07-11T06:50:06.000Z</time>
      </trkpt>
      <trkpt lat="45.19693" lon="5.72883">
        <ele>315.20001220703</ele>
        <time>2021-07-11T06:50:09.000Z</time>
      </trkpt>
      <trkpt lat="45.19682" lon="5.72873">
        <ele>314.39999389648</ele>
        <time>2021-07-11T06:50:13.000Z</time>
      </trkpt>
      <trkpt lat="45.19678" lon="5.7287">
        <ele>313.79998779297</ele>
        <time>2021-07-11T06:50:15.000Z</time>
      </trkpt>
      <trkpt lat="45.19678" lon="5.72869">
        <ele>313.20001220703</ele>
        <time>2021-07-11T06:50:16.000Z</time>
      </trkpt>
      <trkpt lat="45.19678" lon="5.7287">
        <ele>313.20001220703</ele>
        <time>2021-07-11T06:50:17.000Z</time>
      </trkpt>
      <trkpt lat="45.19681" lon="5.72872">
        <ele>312.39999389648</ele>
        <time>2021-07-11T06:50:20.000Z</time>
      </trkpt>
      <trkpt lat="45.19683" lon="5.72876">
        <ele>312</ele>
        <time>2021-07-11T06:50:22.000Z</time>
      </trkpt>
      <trkpt lat="45.19685" lon="5.72878">
        <ele>311.20001220703</ele>
        <time>2021-07-11T06:50:23.000Z</time>
      </trkpt>
      <trkpt lat="45.1969" lon="5.72888">
        <ele>309.39999389648</ele>
        <time>2021-07-11T06:50:28.000Z</time>
      </trkpt>
      <trkpt lat="45.19692" lon="5.7289">
        <ele>309</ele>
        <time>2021-07-11T06:50:29.000Z</time>
      </trkpt>
      <trkpt lat="45.19694" lon="5.72893">
        <ele>308.79998779297</ele>
        <time>2021-07-11T06:50:30.000Z</time>
      </trkpt>
      <trkpt lat="45.19697" lon="5.72896">
        <ele>308.39999389648</ele>
        <time>2021-07-11T06:50:31.000Z</time>
      </trkpt>
      <trkpt lat="45.197" lon="5.72901">
        <ele>308</ele>
        <time>2021-07-11T06:50:33.000Z</time>
      </trkpt>
      <trkpt lat="45.19703" lon="5.72906">
        <ele>306.60000610352</ele>
        <time>2021-07-11T06:50:35.000Z</time>
      </trkpt>
      <trkpt lat="45.19705" lon="5.72911">
        <ele>305.79998779297</ele>
        <time>2021-07-11T06:50:37.000Z</time>
      </trkpt>
      <trkpt lat="45.19705" lon="5.72913">
        <ele>305.79998779297</ele>
        <time>2021-07-11T06:50:38.000Z</time>
      </trkpt>
      <trkpt lat="45.19706" lon="5.72916">
        <ele>305.60000610352</ele>
        <time>2021-07-11T06:50:39.000Z</time>
      </trkpt>
      <trkpt lat="45.1971" lon="5.72925">
        <ele>304.79998779297</ele>
        <time>2021-07-11T06:50:42.000Z</time>
      </trkpt>
      <trkpt lat="45.19713" lon="5.7293">
        <ele>304</ele>
        <time>2021-07-11T06:50:44.000Z</time>
      </trkpt>
      <trkpt lat="45.19715" lon="5.72933">
        <ele>303</ele>
        <time>2021-07-11T06:50:45.000Z</time>
      </trkpt>
      <trkpt lat="45.1972" lon="5.72939">
        <ele>303</ele>
        <time>2021-07-11T06:50:47.000Z</time>
      </trkpt>
      <trkpt lat="45.19722" lon="5.72942">
        <ele>302.60000610352</ele>
        <time>2021-07-11T06:50:48.000Z</time>
      </trkpt>
      <trkpt lat="45.19729" lon="5.72953">
        <ele>301.39999389648</ele>
        <time>2021-07-11T06:50:51.000Z</time>
      </trkpt>
      <trkpt lat="45.19733" lon="5.7296">
        <ele>300.79998779297</ele>
        <time>2021-07-11T06:50:53.000Z</time>
      </trkpt>
      <trkpt lat="45.19738" lon="5.72968">
        <ele>299.79998779297</ele>
        <time>2021-07-11T06:50:55.000Z</time>
      </trkpt>
      <trkpt lat="45.19743" lon="5.72974">
        <ele>298.79998779297</ele>
        <time>2021-07-11T06:50:57.000Z</time>
      </trkpt>
      <trkpt lat="45.19746" lon="5.72977">
        <ele>298.20001220703</ele>
        <time>2021-07-11T06:50:58.000Z</time>
      </trkpt>
      <trkpt lat="45.19749" lon="5.7298">
        <ele>298</ele>
        <time>2021-07-11T06:50:59.000Z</time>
      </trkpt>
      <trkpt lat="45.19762" lon="5.72993">
        <ele>297</ele>
        <time>2021-07-11T06:51:03.000Z</time>
      </trkpt>
      <trkpt lat="45.19764" lon="5.72995">
        <ele>296.79998779297</ele>
        <time>2021-07-11T06:51:04.000Z</time>
      </trkpt>
      <trkpt lat="45.19765" lon="5.72997">
        <ele>296.20001220703</ele>
        <time>2021-07-11T06:51:05.000Z</time>
      </trkpt>
      <trkpt lat="45.19771" lon="5.73001">
        <ele>296</ele>
        <time>2021-07-11T06:51:08.000Z</time>
      </trkpt>
      <trkpt lat="45.19772" lon="5.73002">
        <ele>295.60000610352</ele>
        <time>2021-07-11T06:51:09.000Z</time>
      </trkpt>
      <trkpt lat="45.19775" lon="5.73004">
        <ele>294.60000610352</ele>
        <time>2021-07-11T06:51:10.000Z</time>
      </trkpt>
      <trkpt lat="45.19776" lon="5.73006">
        <ele>293.79998779297</ele>
        <time>2021-07-11T06:51:11.000Z</time>
      </trkpt>
      <trkpt lat="45.19774" lon="5.73013">
        <ele>293.39999389648</ele>
        <time>2021-07-11T06:51:13.000Z</time>
      </trkpt>
      <trkpt lat="45.19766" lon="5.73013">
        <ele>292.60000610352</ele>
        <time>2021-07-11T06:51:17.000Z</time>
      </trkpt>
      <trkpt lat="45.19764" lon="5.73013">
        <ele>292.39999389648</ele>
        <time>2021-07-11T06:51:18.000Z</time>
      </trkpt>
      <trkpt lat="45.19756" lon="5.7301">
        <ele>291.20001220703</ele>
        <time>2021-07-11T06:51:21.000Z</time>
      </trkpt>
      <trkpt lat="45.19751" lon="5.73009">
        <ele>290.60000610352</ele>
        <time>2021-07-11T06:51:23.000Z</time>
      </trkpt>
      <trkpt lat="45.19749" lon="5.73009">
        <ele>290</ele>
        <time>2021-07-11T06:51:24.000Z</time>
      </trkpt>
      <trkpt lat="45.19747" lon="5.73008">
        <ele>290</ele>
        <time>2021-07-11T06:51:25.000Z</time>
      </trkpt>
      <trkpt lat="45.19745" lon="5.73008">
        <ele>289.60000610352</ele>
        <time>2021-07-11T06:51:27.000Z</time>
      </trkpt>
      <trkpt lat="45.19746" lon="5.73009">
        <ele>289.20001220703</ele>
        <time>2021-07-11T06:51:28.000Z</time>
      </trkpt>
      <trkpt lat="45.19748" lon="5.73011">
        <ele>288.79998779297</ele>
        <time>2021-07-11T06:51:29.000Z</time>
      </trkpt>
      <trkpt lat="45.19749" lon="5.73012">
        <ele>288.60000610352</ele>
        <time>2021-07-11T06:51:30.000Z</time>
      </trkpt>
      <trkpt lat="45.19754" lon="5.73016">
        <ele>287.60000610352</ele>
        <time>2021-07-11T06:51:32.000Z</time>
      </trkpt>
      <trkpt lat="45.1976" lon="5.73018">
        <ele>286.60000610352</ele>
        <time>2021-07-11T06:51:34.000Z</time>
      </trkpt>
      <trkpt lat="45.19766" lon="5.73021">
        <ele>286.60000610352</ele>
        <time>2021-07-11T06:51:36.000Z</time>
      </trkpt>
      <trkpt lat="45.19768" lon="5.73022">
        <ele>286.60000610352</ele>
        <time>2021-07-11T06:51:37.000Z</time>
      </trkpt>
      <trkpt lat="45.19775" lon="5.73028">
        <ele>285.79998779297</ele>
        <time>2021-07-11T06:51:40.000Z</time>
      </trkpt>
      <trkpt lat="45.19777" lon="5.7303">
        <ele>285.20001220703</ele>
        <time>2021-07-11T06:51:41.000Z</time>
      </trkpt>
      <trkpt lat="45.1978" lon="5.73031">
        <ele>285</ele>
        <time>2021-07-11T06:51:42.000Z</time>
      </trkpt>
      <trkpt lat="45.19786" lon="5.73037">
        <ele>283.39999389648</ele>
        <time>2021-07-11T06:51:45.000Z</time>
      </trkpt>
      <trkpt lat="45.19784" lon="5.73039">
        <ele>283.39999389648</ele>
        <time>2021-07-11T06:51:46.000Z</time>
      </trkpt>
      <trkpt lat="45.19783" lon="5.73038">
        <ele>283.20001220703</ele>
        <time>2021-07-11T06:51:47.000Z</time>
      </trkpt>
      <trkpt lat="45.19774" lon="5.73037">
        <ele>282.20001220703</ele>
        <time>2021-07-11T06:51:51.000Z</time>
      </trkpt>
      <trkpt lat="45.19767" lon="5.73038">
        <ele>281.20001220703</ele>
        <time>2021-07-11T06:51:54.000Z</time>
      </trkpt>
      <trkpt lat="45.19762" lon="5.73038">
        <ele>280</ele>
        <time>2021-07-11T06:51:56.000Z</time>
      </trkpt>
      <trkpt lat="45.1976" lon="5.73039">
        <ele>280</ele>
        <time>2021-07-11T06:51:57.000Z</time>
      </trkpt>
      <trkpt lat="45.19752" lon="5.73039">
        <ele>278.79998779297</ele>
        <time>2021-07-11T06:52:00.000Z</time>
      </trkpt>
      <trkpt lat="45.19748" lon="5.73036">
        <ele>277.79998779297</ele>
        <time>2021-07-11T06:52:02.000Z</time>
      </trkpt>
      <trkpt lat="45.19745" lon="5.73036">
        <ele>277.60000610352</ele>
        <time>2021-07-11T06:52:05.000Z</time>
      </trkpt>
      <trkpt lat="45.19747" lon="5.73037">
        <ele>277.39999389648</ele>
        <time>2021-07-11T06:52:06.000Z</time>
      </trkpt>
      <trkpt lat="45.19749" lon="5.73038">
        <ele>276.20001220703</ele>
        <time>2021-07-11T06:52:07.000Z</time>
      </trkpt>
      <trkpt lat="45.1976" lon="5.73039">
        <ele>275.39999389648</ele>
        <time>2021-07-11T06:52:11.000Z</time>
      </trkpt>
      <trkpt lat="45.19761" lon="5.73041">
        <ele>275.20001220703</ele>
        <time>2021-07-11T06:52:12.000Z</time>
      </trkpt>
      <trkpt lat="45.19763" lon="5.73043">
        <ele>274.79998779297</ele>
        <time>2021-07-11T06:52:13.000Z</time>
      </trkpt>
      <trkpt lat="45.19766" lon="5.73044">
        <ele>274.39999389648</ele>
        <time>2021-07-11T06:52:14.000Z</time>
      </trkpt>
      <trkpt lat="45.19767" lon="5.73046">
        <ele>273.79998779297</ele>
        <time>2021-07-11T06:52:15.000Z</time>
      </trkpt>
      <trkpt lat="45.19769" lon="5.73047">
        <ele>273.39999389648</ele>
        <time>2021-07-11T06:52:16.000Z</time>
      </trkpt>
      <trkpt lat="45.19774" lon="5.7305">
        <ele>273</ele>
        <time>2021-07-11T06:52:18.000Z</time>
      </trkpt>
      <trkpt lat="45.19783" lon="5.73053">
        <ele>271.79998779297</ele>
        <time>2021-07-11T06:52:22.000Z</time>
      </trkpt>
      <trkpt lat="45.19783" lon="5.73055">
        <ele>271.79998779297</ele>
        <time>2021-07-11T06:52:23.000Z</time>
      </trkpt>
      <trkpt lat="45.19779" lon="5.73059">
        <ele>270.20001220703</ele>
        <time>2021-07-11T06:52:26.000Z</time>
      </trkpt>
      <trkpt lat="45.19777" lon="5.73061">
        <ele>269.79998779297</ele>
        <time>2021-07-11T06:52:27.000Z</time>
      </trkpt>
      <trkpt lat="45.19768" lon="5.73063">
        <ele>269</ele>
        <time>2021-07-11T06:52:31.000Z</time>
      </trkpt>
      <trkpt lat="45.19764" lon="5.73063">
        <ele>268.60000610352</ele>
        <time>2021-07-11T06:52:33.000Z</time>
      </trkpt>
      <trkpt lat="45.1976" lon="5.73062">
        <ele>267.60000610352</ele>
        <time>2021-07-11T06:52:35.000Z</time>
      </trkpt>
      <trkpt lat="45.19747" lon="5.73062">
        <ele>266.60000610352</ele>
        <time>2021-07-11T06:52:40.000Z</time>
      </trkpt>
      <trkpt lat="45.19742" lon="5.73061">
        <ele>266.20001220703</ele>
        <time>2021-07-11T06:52:42.000Z</time>
      </trkpt>
      <trkpt lat="45.19742" lon="5.73061">
        <ele>265.39999389648</ele>
        <time>2021-07-11T06:52:43.000Z</time>
      </trkpt>
      <trkpt lat="45.19742" lon="5.73062">
        <ele>264.79998779297</ele>
        <time>2021-07-11T06:52:44.000Z</time>
      </trkpt>
      <trkpt lat="45.19745" lon="5.73061">
        <ele>264.60000610352</ele>
        <time>2021-07-11T06:52:47.000Z</time>
      </trkpt>
      <trkpt lat="45.19745" lon="5.73061">
        <ele>264.39999389648</ele>
        <time>2021-07-11T06:52:48.000Z</time>
      </trkpt>
      <trkpt lat="45.19746" lon="5.73062">
        <ele>264.20001220703</ele>
        <time>2021-07-11T06:52:49.000Z</time>
      </trkpt>
      <trkpt lat="45.1975" lon="5.73067">
        <ele>263.20001220703</ele>
        <time>2021-07-11T06:52:52.000Z</time>
      </trkpt>
      <trkpt lat="45.19751" lon="5.73067">
        <ele>262.79998779297</ele>
        <time>2021-07-11T06:52:53.000Z</time>
      </trkpt>
      <trkpt lat="45.19753" lon="5.7307">
        <ele>262.60000610352</ele>
        <time>2021-07-11T06:52:55.000Z</time>
      </trkpt>
      <trkpt lat="45.19755" lon="5.73071">
        <ele>261.60000610352</ele>
        <time>2021-07-11T06:52:56.000Z</time>
      </trkpt>
      <trkpt lat="45.19763" lon="5.73079">
        <ele>260.20001220703</ele>
        <time>2021-07-11T06:53:00.000Z</time>
      </trkpt>
      <trkpt lat="45.19771" lon="5.73085">
        <ele>259.60000610352</ele>
        <time>2021-07-11T06:53:04.000Z</time>
      </trkpt>
      <trkpt lat="45.19778" lon="5.73087">
        <ele>258.79998779297</ele>
        <time>2021-07-11T06:53:06.000Z</time>
      </trkpt>
      <trkpt lat="45.19779" lon="5.73089">
        <ele>258.79998779297</ele>
        <time>2021-07-11T06:53:07.000Z</time>
      </trkpt>
      <trkpt lat="45.19777" lon="5.73096">
        <ele>258.39999389648</ele>
        <time>2021-07-11T06:53:09.000Z</time>
      </trkpt>
      <trkpt lat="45.19775" lon="5.73099">
        <ele>258</ele>
        <time>2021-07-11T06:53:10.000Z</time>
      </trkpt>
      <trkpt lat="45.19774" lon="5.73099">
        <ele>258</ele>
        <time>2021-07-11T06:53:11.000Z</time>
      </trkpt>
      <trkpt lat="45.1977" lon="5.73099">
        <ele>257.20001220703</ele>
        <time>2021-07-11T06:53:13.000Z</time>
      </trkpt>
      <trkpt lat="45.19768" lon="5.73099">
        <ele>256.60000610352</ele>
        <time>2021-07-11T06:53:14.000Z</time>
      </trkpt>
      <trkpt lat="45.19763" lon="5.73099">
        <ele>255.80000305176</ele>
        <time>2021-07-11T06:53:16.000Z</time>
      </trkpt>
      <trkpt lat="45.19757" lon="5.73099">
        <ele>254.60000610352</ele>
        <time>2021-07-11T06:53:19.000Z</time>
      </trkpt>
      <trkpt lat="45.19753" lon="5.73099">
        <ele>254.39999389648</ele>
        <time>2021-07-11T06:53:21.000Z</time>
      </trkpt>
      <trkpt lat="45.19747" lon="5.73098">
        <ele>253.39999389648</ele>
        <time>2021-07-11T06:53:24.000Z</time>
      </trkpt>
      <trkpt lat="45.19746" lon="5.73099">
        <ele>252.80000305176</ele>
        <time>2021-07-11T06:53:27.000Z</time>
      </trkpt>
      <trkpt lat="45.19749" lon="5.731">
        <ele>252.60000610352</ele>
        <time>2021-07-11T06:53:28.000Z</time>
      </trkpt>
      <trkpt lat="45.19752" lon="5.73096">
        <ele>252</ele>
        <time>2021-07-11T06:53:30.000Z</time>
      </trkpt>
      <trkpt lat="45.19756" lon="5.73094">
        <ele>252</ele>
        <time>2021-07-11T06:53:32.000Z</time>
      </trkpt>
      <trkpt lat="45.19757" lon="5.73093">
        <ele>251.39999389648</ele>
        <time>2021-07-11T06:53:33.000Z</time>
      </trkpt>
      <trkpt lat="45.19757" lon="5.73094">
        <ele>251</ele>
        <time>2021-07-11T06:53:34.000Z</time>
      </trkpt>
      <trkpt lat="45.19758" lon="5.73093">
        <ele>250.19999694824</ele>
        <time>2021-07-11T06:53:36.000Z</time>
      </trkpt>
      <trkpt lat="45.19799" lon="5.73111">
        <ele>247</ele>
        <time>2021-07-11T06:53:46.000Z</time>
      </trkpt>
      <trkpt lat="45.19799" lon="5.73127">
        <ele>247</ele>
        <time>2021-07-11T06:53:48.000Z</time>
      </trkpt>
      <trkpt lat="45.19789" lon="5.73136">
        <ele>246.39999389648</ele>
        <time>2021-07-11T06:53:51.000Z</time>
      </trkpt>
      <trkpt lat="45.19787" lon="5.73139">
        <ele>245.80000305176</ele>
        <time>2021-07-11T06:53:52.000Z</time>
      </trkpt>
      <trkpt lat="45.1978" lon="5.73137">
        <ele>245.19999694824</ele>
        <time>2021-07-11T06:53:53.000Z</time>
      </trkpt>
      <trkpt lat="45.19778" lon="5.73144">
        <ele>244.80000305176</ele>
        <time>2021-07-11T06:53:55.000Z</time>
      </trkpt>
      <trkpt lat="45.19778" lon="5.73146">
        <ele>243.60000610352</ele>
        <time>2021-07-11T06:53:56.000Z</time>
      </trkpt>
      <trkpt lat="45.19775" lon="5.73151">
        <ele>243.60000610352</ele>
        <time>2021-07-11T06:53:58.000Z</time>
      </trkpt>
      <trkpt lat="45.19775" lon="5.7316">
        <ele>242.80000305176</ele>
        <time>2021-07-11T06:54:01.000Z</time>
      </trkpt>
      <trkpt lat="45.19775" lon="5.73161">
        <ele>242</ele>
        <time>2021-07-11T06:54:02.000Z</time>
      </trkpt>
      <trkpt lat="45.19776" lon="5.73163">
        <ele>241.80000305176</ele>
        <time>2021-07-11T06:54:03.000Z</time>
      </trkpt>
      <trkpt lat="45.19776" lon="5.73172">
        <ele>240.80000305176</ele>
        <time>2021-07-11T06:54:06.000Z</time>
      </trkpt>
      <trkpt lat="45.19778" lon="5.73183">
        <ele>239.80000305176</ele>
        <time>2021-07-11T06:54:09.000Z</time>
      </trkpt>
      <trkpt lat="45.19778" lon="5.73188">
        <ele>239.39999389648</ele>
        <time>2021-07-11T06:54:10.000Z</time>
      </trkpt>
      <trkpt lat="45.19779" lon="5.73192">
        <ele>239.39999389648</ele>
        <time>2021-07-11T06:54:11.000Z</time>
      </trkpt>
      <trkpt lat="45.1978" lon="5.73198">
        <ele>239.80000305176</ele>
        <time>2021-07-11T06:54:13.000Z</time>
      </trkpt>
      <trkpt lat="45.19781" lon="5.73201">
        <ele>239.80000305176</ele>
        <time>2021-07-11T06:54:14.000Z</time>
      </trkpt>
      <trkpt lat="45.19788" lon="5.73225">
        <ele>239.60000610352</ele>
        <time>2021-07-11T06:54:19.000Z</time>
      </trkpt>
      <trkpt lat="45.19789" lon="5.73229">
        <ele>239.60000610352</ele>
        <time>2021-07-11T06:54:20.000Z</time>
      </trkpt>
      <trkpt lat="45.19788" lon="5.73236">
        <ele>239.80000305176</ele>
        <time>2021-07-11T06:54:25.000Z</time>
      </trkpt>
      <trkpt lat="45.19787" lon="5.73251">
        <ele>240</ele>
        <time>2021-07-11T06:54:30.000Z</time>
      </trkpt>
      <trkpt lat="45.19788" lon="5.73255">
        <ele>239.80000305176</ele>
        <time>2021-07-11T06:54:32.000Z</time>
      </trkpt>
      <trkpt lat="45.1979" lon="5.73256">
        <ele>239.80000305176</ele>
        <time>2021-07-11T06:54:33.000Z</time>
      </trkpt>
      <trkpt lat="45.19794" lon="5.73258">
        <ele>239.80000305176</ele>
        <time>2021-07-11T06:54:35.000Z</time>
      </trkpt>
      <trkpt lat="45.19813" lon="5.73262">
        <ele>239.60000610352</ele>
        <time>2021-07-11T06:54:43.000Z</time>
      </trkpt>
      <trkpt lat="45.19831" lon="5.73267">
        <ele>239.80000305176</ele>
        <time>2021-07-11T06:54:50.000Z</time>
      </trkpt>
      <trkpt lat="45.19849" lon="5.7327">
        <ele>239.60000610352</ele>
        <time>2021-07-11T06:54:57.000Z</time>
      </trkpt>
      <trkpt lat="45.19853" lon="5.7327">
        <ele>239.80000305176</ele>
        <time>2021-07-11T06:54:58.000Z</time>
      </trkpt>
      <trkpt lat="45.19874" lon="5.73269">
        <ele>239.60000610352</ele>
        <time>2021-07-11T06:55:06.000Z</time>
      </trkpt>
      <trkpt lat="45.19893" lon="5.73273">
        <ele>240.19999694824</ele>
        <time>2021-07-11T06:55:13.000Z</time>
      </trkpt>
      <trkpt lat="45.19911" lon="5.73282">
        <ele>240</ele>
        <time>2021-07-11T06:55:20.000Z</time>
      </trkpt>
      <trkpt lat="45.19914" lon="5.73284">
        <ele>240</ele>
        <time>2021-07-11T06:55:21.000Z</time>
      </trkpt>
      <trkpt lat="45.19932" lon="5.73294">
        <ele>240.19999694824</ele>
        <time>2021-07-11T06:55:28.000Z</time>
      </trkpt>
      <trkpt lat="45.19935" lon="5.73295">
        <ele>240.19999694824</ele>
        <time>2021-07-11T06:55:29.000Z</time>
      </trkpt>
      <trkpt lat="45.19955" lon="5.73303">
        <ele>240.19999694824</ele>
        <time>2021-07-11T06:55:35.000Z</time>
      </trkpt>
      <trkpt lat="45.19958" lon="5.73304">
        <ele>240</ele>
        <time>2021-07-11T06:55:36.000Z</time>
      </trkpt>
      <trkpt lat="45.1997" lon="5.73313">
        <ele>239.80000305176</ele>
        <time>2021-07-11T06:55:41.000Z</time>
      </trkpt>
      <trkpt lat="45.19973" lon="5.73315">
        <ele>239.80000305176</ele>
        <time>2021-07-11T06:55:42.000Z</time>
      </trkpt>
      <trkpt lat="45.19989" lon="5.7332">
        <ele>239.60000610352</ele>
        <time>2021-07-11T06:55:48.000Z</time>
      </trkpt>
      <trkpt lat="45.20003" lon="5.73326">
        <ele>239.19999694824</ele>
        <time>2021-07-11T06:55:53.000Z</time>
      </trkpt>
      <trkpt lat="45.20008" lon="5.73328">
        <ele>239.39999389648</ele>
        <time>2021-07-11T06:55:55.000Z</time>
      </trkpt>
      <trkpt lat="45.20028" lon="5.73334">
        <ele>238.80000305176</ele>
        <time>2021-07-11T06:56:01.000Z</time>
      </trkpt>
      <trkpt lat="45.2003" lon="5.73336">
        <ele>239.19999694824</ele>
        <time>2021-07-11T06:56:02.000Z</time>
      </trkpt>
      <trkpt lat="45.20044" lon="5.73342">
        <ele>239.19999694824</ele>
        <time>2021-07-11T06:56:08.000Z</time>
      </trkpt>
      <trkpt lat="45.20063" lon="5.7335">
        <ele>239.39999389648</ele>
        <time>2021-07-11T06:56:16.000Z</time>
      </trkpt>
      <trkpt lat="45.2008" lon="5.73361">
        <ele>238.60000610352</ele>
        <time>2021-07-11T06:56:23.000Z</time>
      </trkpt>
      <trkpt lat="45.20083" lon="5.73363">
        <ele>238.60000610352</ele>
        <time>2021-07-11T06:56:24.000Z</time>
      </trkpt>
      <trkpt lat="45.201" lon="5.73372">
        <ele>239</ele>
        <time>2021-07-11T06:56:29.000Z</time>
      </trkpt>
      <trkpt lat="45.20103" lon="5.73374">
        <ele>239</ele>
        <time>2021-07-11T06:56:30.000Z</time>
      </trkpt>
      <trkpt lat="45.2012" lon="5.73383">
        <ele>238.60000610352</ele>
        <time>2021-07-11T06:56:36.000Z</time>
      </trkpt>
      <trkpt lat="45.20124" lon="5.73385">
        <ele>238.19999694824</ele>
        <time>2021-07-11T06:56:37.000Z</time>
      </trkpt>
      <trkpt lat="45.20127" lon="5.73388">
        <ele>238.60000610352</ele>
        <time>2021-07-11T06:56:38.000Z</time>
      </trkpt>
      <trkpt lat="45.20143" lon="5.73405">
        <ele>237.80000305176</ele>
        <time>2021-07-11T06:56:44.000Z</time>
      </trkpt>
      <trkpt lat="45.20152" lon="5.73421">
        <ele>237.19999694824</ele>
        <time>2021-07-11T06:56:49.000Z</time>
      </trkpt>
      <trkpt lat="45.20154" lon="5.73424">
        <ele>237.19999694824</ele>
        <time>2021-07-11T06:56:50.000Z</time>
      </trkpt>
      <trkpt lat="45.20165" lon="5.73439">
        <ele>236.19999694824</ele>
        <time>2021-07-11T06:56:55.000Z</time>
      </trkpt>
      <trkpt lat="45.20166" lon="5.73444">
        <ele>235.80000305176</ele>
        <time>2021-07-11T06:56:56.000Z</time>
      </trkpt>
      <trkpt lat="45.20176" lon="5.73466">
        <ele>236.19999694824</ele>
        <time>2021-07-11T06:57:02.000Z</time>
      </trkpt>
      <trkpt lat="45.20181" lon="5.73471">
        <ele>236.39999389648</ele>
        <time>2021-07-11T06:57:04.000Z</time>
      </trkpt>
      <trkpt lat="45.20187" lon="5.73479">
        <ele>237.19999694824</ele>
        <time>2021-07-11T06:57:07.000Z</time>
      </trkpt>
      <trkpt lat="45.20196" lon="5.73493">
        <ele>236.80000305176</ele>
        <time>2021-07-11T06:57:12.000Z</time>
      </trkpt>
      <trkpt lat="45.20205" lon="5.73518">
        <ele>237.39999389648</ele>
        <time>2021-07-11T06:57:19.000Z</time>
      </trkpt>
      <trkpt lat="45.20207" lon="5.73521">
        <ele>237.60000610352</ele>
        <time>2021-07-11T06:57:20.000Z</time>
      </trkpt>
      <trkpt lat="45.20217" lon="5.73543">
        <ele>237.39999389648</ele>
        <time>2021-07-11T06:57:27.000Z</time>
      </trkpt>
      <trkpt lat="45.20221" lon="5.73561">
        <ele>238</ele>
        <time>2021-07-11T06:57:33.000Z</time>
      </trkpt>
      <trkpt lat="45.20222" lon="5.73565">
        <ele>238</ele>
        <time>2021-07-11T06:57:34.000Z</time>
      </trkpt>
      <trkpt lat="45.20227" lon="5.73585">
        <ele>237.39999389648</ele>
        <time>2021-07-11T06:57:39.000Z</time>
      </trkpt>
      <trkpt lat="45.20231" lon="5.73592">
        <ele>237.39999389648</ele>
        <time>2021-07-11T06:57:41.000Z</time>
      </trkpt>
      <trkpt lat="45.2024" lon="5.73612">
        <ele>238</ele>
        <time>2021-07-11T06:57:47.000Z</time>
      </trkpt>
      <trkpt lat="45.20248" lon="5.73631">
        <ele>238.19999694824</ele>
        <time>2021-07-11T06:57:52.000Z</time>
      </trkpt>
      <trkpt lat="45.20253" lon="5.73656">
        <ele>238.60000610352</ele>
        <time>2021-07-11T06:57:58.000Z</time>
      </trkpt>
      <trkpt lat="45.20257" lon="5.73681">
        <ele>238.80000305176</ele>
        <time>2021-07-11T06:58:04.000Z</time>
      </trkpt>
      <trkpt lat="45.2026" lon="5.73698">
        <ele>238.80000305176</ele>
        <time>2021-07-11T06:58:08.000Z</time>
      </trkpt>
      <trkpt lat="45.20263" lon="5.73713">
        <ele>238</ele>
        <time>2021-07-11T06:58:12.000Z</time>
      </trkpt>
      <trkpt lat="45.20268" lon="5.73738">
        <ele>238</ele>
        <time>2021-07-11T06:58:17.000Z</time>
      </trkpt>
      <trkpt lat="45.20268" lon="5.73763">
        <ele>238.19999694824</ele>
        <time>2021-07-11T06:58:23.000Z</time>
      </trkpt>
      <trkpt lat="45.20268" lon="5.73768">
        <ele>238.60000610352</ele>
        <time>2021-07-11T06:58:24.000Z</time>
      </trkpt>
      <trkpt lat="45.20265" lon="5.73797">
        <ele>238.60000610352</ele>
        <time>2021-07-11T06:58:31.000Z</time>
      </trkpt>
      <trkpt lat="45.20264" lon="5.73801">
        <ele>238.60000610352</ele>
        <time>2021-07-11T06:58:32.000Z</time>
      </trkpt>
      <trkpt lat="45.20259" lon="5.73824">
        <ele>238.60000610352</ele>
        <time>2021-07-11T06:58:38.000Z</time>
      </trkpt>
      <trkpt lat="45.20259" lon="5.73829">
        <ele>238.60000610352</ele>
        <time>2021-07-11T06:58:39.000Z</time>
      </trkpt>
      <trkpt lat="45.20257" lon="5.73849">
        <ele>238.39999389648</ele>
        <time>2021-07-11T06:58:44.000Z</time>
      </trkpt>
      <trkpt lat="45.20256" lon="5.73857">
        <ele>239.19999694824</ele>
        <time>2021-07-11T06:58:46.000Z</time>
      </trkpt>
      <trkpt lat="45.2025" lon="5.73884">
        <ele>238.60000610352</ele>
        <time>2021-07-11T06:58:53.000Z</time>
      </trkpt>
      <trkpt lat="45.20249" lon="5.73888">
        <ele>238.60000610352</ele>
        <time>2021-07-11T06:58:54.000Z</time>
      </trkpt>
      <trkpt lat="45.20244" lon="5.73911">
        <ele>238.80000305176</ele>
        <time>2021-07-11T06:59:00.000Z</time>
      </trkpt>
      <trkpt lat="45.20243" lon="5.73915">
        <ele>238.80000305176</ele>
        <time>2021-07-11T06:59:01.000Z</time>
      </trkpt>
      <trkpt lat="45.2024" lon="5.7393">
        <ele>238.80000305176</ele>
        <time>2021-07-11T06:59:05.000Z</time>
      </trkpt>
      <trkpt lat="45.20234" lon="5.73945">
        <ele>239</ele>
        <time>2021-07-11T06:59:09.000Z</time>
      </trkpt>
      <trkpt lat="45.20225" lon="5.73972">
        <ele>238.80000305176</ele>
        <time>2021-07-11T06:59:16.000Z</time>
      </trkpt>
      <trkpt lat="45.20214" lon="5.73996">
        <ele>238.19999694824</ele>
        <time>2021-07-11T06:59:23.000Z</time>
      </trkpt>
      <trkpt lat="45.2021" lon="5.74006">
        <ele>238.60000610352</ele>
        <time>2021-07-11T06:59:26.000Z</time>
      </trkpt>
      <trkpt lat="45.20201" lon="5.74029">
        <ele>239</ele>
        <time>2021-07-11T06:59:32.000Z</time>
      </trkpt>
      <trkpt lat="45.20196" lon="5.74034">
        <ele>238.80000305176</ele>
        <time>2021-07-11T06:59:34.000Z</time>
      </trkpt>
      <trkpt lat="45.20191" lon="5.74052">
        <ele>238.80000305176</ele>
        <time>2021-07-11T06:59:39.000Z</time>
      </trkpt>
      <trkpt lat="45.20187" lon="5.74059">
        <ele>238.80000305176</ele>
        <time>2021-07-11T06:59:41.000Z</time>
      </trkpt>
      <trkpt lat="45.20175" lon="5.74073">
        <ele>239</ele>
        <time>2021-07-11T06:59:46.000Z</time>
      </trkpt>
      <trkpt lat="45.20164" lon="5.7409">
        <ele>239.39999389648</ele>
        <time>2021-07-11T06:59:52.000Z</time>
      </trkpt>
      <trkpt lat="45.20163" lon="5.74093">
        <ele>239.39999389648</ele>
        <time>2021-07-11T06:59:53.000Z</time>
      </trkpt>
      <trkpt lat="45.20154" lon="5.74117">
        <ele>240.39999389648</ele>
        <time>2021-07-11T07:00:00.000Z</time>
      </trkpt>
      <trkpt lat="45.20153" lon="5.7412">
        <ele>240.39999389648</ele>
        <time>2021-07-11T07:00:01.000Z</time>
      </trkpt>
      <trkpt lat="45.20142" lon="5.74141">
        <ele>241.60000610352</ele>
        <time>2021-07-11T07:00:07.000Z</time>
      </trkpt>
      <trkpt lat="45.2013" lon="5.74161">
        <ele>242.60000610352</ele>
        <time>2021-07-11T07:00:13.000Z</time>
      </trkpt>
      <trkpt lat="45.20128" lon="5.74164">
        <ele>242.80000305176</ele>
        <time>2021-07-11T07:00:14.000Z</time>
      </trkpt>
      <trkpt lat="45.20126" lon="5.74168">
        <ele>242.80000305176</ele>
        <time>2021-07-11T07:00:15.000Z</time>
      </trkpt>
      <trkpt lat="45.20121" lon="5.74173">
        <ele>243.39999389648</ele>
        <time>2021-07-11T07:00:17.000Z</time>
      </trkpt>
      <trkpt lat="45.20119" lon="5.74177">
        <ele>243.39999389648</ele>
        <time>2021-07-11T07:00:18.000Z</time>
      </trkpt>
      <trkpt lat="45.20117" lon="5.74179">
        <ele>243.39999389648</ele>
        <time>2021-07-11T07:00:19.000Z</time>
      </trkpt>
      <trkpt lat="45.20097" lon="5.74186">
        <ele>243.19999694824</ele>
        <time>2021-07-11T07:00:25.000Z</time>
      </trkpt>
      <trkpt lat="45.20083" lon="5.74179">
        <ele>243.39999389648</ele>
        <time>2021-07-11T07:00:29.000Z</time>
      </trkpt>
      <trkpt lat="45.20078" lon="5.74173">
        <ele>243.60000610352</ele>
        <time>2021-07-11T07:00:31.000Z</time>
      </trkpt>
      <trkpt lat="45.20076" lon="5.7417">
        <ele>243.80000305176</ele>
        <time>2021-07-11T07:00:32.000Z</time>
      </trkpt>
      <trkpt lat="45.20065" lon="5.74158">
        <ele>244.19999694824</ele>
        <time>2021-07-11T07:00:36.000Z</time>
      </trkpt>
      <trkpt lat="45.20058" lon="5.7415">
        <ele>244.19999694824</ele>
        <time>2021-07-11T07:00:39.000Z</time>
      </trkpt>
      <trkpt lat="45.20053" lon="5.74143">
        <ele>243.80000305176</ele>
        <time>2021-07-11T07:00:41.000Z</time>
      </trkpt>
      <trkpt lat="45.20043" lon="5.7413">
        <ele>243.80000305176</ele>
        <time>2021-07-11T07:00:45.000Z</time>
      </trkpt>
      <trkpt lat="45.20031" lon="5.74116">
        <ele>243.60000610352</ele>
        <time>2021-07-11T07:00:50.000Z</time>
      </trkpt>
      <trkpt lat="45.20029" lon="5.74113">
        <ele>243.60000610352</ele>
        <time>2021-07-11T07:00:51.000Z</time>
      </trkpt>
      <trkpt lat="45.20013" lon="5.74096">
        <ele>243.60000610352</ele>
        <time>2021-07-11T07:00:58.000Z</time>
      </trkpt>
      <trkpt lat="45.2001" lon="5.74095">
        <ele>243.19999694824</ele>
        <time>2021-07-11T07:00:59.000Z</time>
      </trkpt>
      <trkpt lat="45.20004" lon="5.74093">
        <ele>243</ele>
        <time>2021-07-11T07:01:02.000Z</time>
      </trkpt>
      <trkpt lat="45.20003" lon="5.74095">
        <ele>242.60000610352</ele>
        <time>2021-07-11T07:01:03.000Z</time>
      </trkpt>
      <trkpt lat="45.19995" lon="5.74107">
        <ele>242</ele>
        <time>2021-07-11T07:01:08.000Z</time>
      </trkpt>
      <trkpt lat="45.19991" lon="5.74114">
        <ele>241</ele>
        <time>2021-07-11T07:01:10.000Z</time>
      </trkpt>
      <trkpt lat="45.19987" lon="5.74121">
        <ele>240.80000305176</ele>
        <time>2021-07-11T07:01:12.000Z</time>
      </trkpt>
      <trkpt lat="45.19982" lon="5.74132">
        <ele>240</ele>
        <time>2021-07-11T07:01:16.000Z</time>
      </trkpt>
      <trkpt lat="45.19975" lon="5.74144">
        <ele>239.39999389648</ele>
        <time>2021-07-11T07:01:20.000Z</time>
      </trkpt>
      <trkpt lat="45.19961" lon="5.7416">
        <ele>239.39999389648</ele>
        <time>2021-07-11T07:01:26.000Z</time>
      </trkpt>
      <trkpt lat="45.19943" lon="5.74172">
        <ele>239.39999389648</ele>
        <time>2021-07-11T07:01:32.000Z</time>
      </trkpt>
      <trkpt lat="45.19934" lon="5.74177">
        <ele>239.39999389648</ele>
        <time>2021-07-11T07:01:35.000Z</time>
      </trkpt>
      <trkpt lat="45.19924" lon="5.74185">
        <ele>239</ele>
        <time>2021-07-11T07:01:39.000Z</time>
      </trkpt>
      <trkpt lat="45.19918" lon="5.74187">
        <ele>239</ele>
        <time>2021-07-11T07:01:41.000Z</time>
      </trkpt>
      <trkpt lat="45.199" lon="5.74199">
        <ele>239.60000610352</ele>
        <time>2021-07-11T07:01:47.000Z</time>
      </trkpt>
      <trkpt lat="45.19897" lon="5.742">
        <ele>239.60000610352</ele>
        <time>2021-07-11T07:01:48.000Z</time>
      </trkpt>
      <trkpt lat="45.19886" lon="5.74208">
        <ele>239.60000610352</ele>
        <time>2021-07-11T07:01:52.000Z</time>
      </trkpt>
      <trkpt lat="45.19869" lon="5.74216">
        <ele>240</ele>
        <time>2021-07-11T07:01:58.000Z</time>
      </trkpt>
      <trkpt lat="45.19865" lon="5.74218">
        <ele>240</ele>
        <time>2021-07-11T07:01:59.000Z</time>
      </trkpt>
      <trkpt lat="45.19846" lon="5.74227">
        <ele>239.60000610352</ele>
        <time>2021-07-11T07:02:05.000Z</time>
      </trkpt>
      <trkpt lat="45.19843" lon="5.74228">
        <ele>239.60000610352</ele>
        <time>2021-07-11T07:02:06.000Z</time>
      </trkpt>
      <trkpt lat="45.19824" lon="5.74235">
        <ele>240.19999694824</ele>
        <time>2021-07-11T07:02:12.000Z</time>
      </trkpt>
      <trkpt lat="45.19811" lon="5.7424">
        <ele>239.80000305176</ele>
        <time>2021-07-11T07:02:16.000Z</time>
      </trkpt>
      <trkpt lat="45.19801" lon="5.74244">
        <ele>239.80000305176</ele>
        <time>2021-07-11T07:02:19.000Z</time>
      </trkpt>
      <trkpt lat="45.19789" lon="5.74246">
        <ele>240</ele>
        <time>2021-07-11T07:02:23.000Z</time>
      </trkpt>
      <trkpt lat="45.1977" lon="5.74248">
        <ele>239.80000305176</ele>
        <time>2021-07-11T07:02:29.000Z</time>
      </trkpt>
      <trkpt lat="45.19768" lon="5.74248">
        <ele>240</ele>
        <time>2021-07-11T07:02:30.000Z</time>
      </trkpt>
      <trkpt lat="45.19765" lon="5.74247">
        <ele>239.80000305176</ele>
        <time>2021-07-11T07:02:31.000Z</time>
      </trkpt>
      <trkpt lat="45.19753" lon="5.74248">
        <ele>239.80000305176</ele>
        <time>2021-07-11T07:02:35.000Z</time>
      </trkpt>
      <trkpt lat="45.19739" lon="5.74251">
        <ele>239.60000610352</ele>
        <time>2021-07-11T07:02:40.000Z</time>
      </trkpt>
      <trkpt lat="45.19732" lon="5.74251">
        <ele>239.39999389648</ele>
        <time>2021-07-11T07:02:43.000Z</time>
      </trkpt>
      <trkpt lat="45.19732" lon="5.74249">
        <ele>239</ele>
        <time>2021-07-11T07:02:45.000Z</time>
      </trkpt>
      <trkpt lat="45.1973" lon="5.74246">
        <ele>238.19999694824</ele>
        <time>2021-07-11T07:02:47.000Z</time>
      </trkpt>
      <trkpt lat="45.19724" lon="5.74238">
        <ele>237.80000305176</ele>
        <time>2021-07-11T07:02:50.000Z</time>
      </trkpt>
      <trkpt lat="45.19721" lon="5.74218">
        <ele>237.80000305176</ele>
        <time>2021-07-11T07:02:55.000Z</time>
      </trkpt>
      <trkpt lat="45.19718" lon="5.742">
        <ele>237.80000305176</ele>
        <time>2021-07-11T07:03:00.000Z</time>
      </trkpt>
      <trkpt lat="45.19717" lon="5.74185">
        <ele>237.80000305176</ele>
        <time>2021-07-11T07:03:04.000Z</time>
      </trkpt>
      <trkpt lat="45.19716" lon="5.74181">
        <ele>237.60000610352</ele>
        <time>2021-07-11T07:03:05.000Z</time>
      </trkpt>
      <trkpt lat="45.1971" lon="5.74152">
        <ele>238.39999389648</ele>
        <time>2021-07-11T07:03:12.000Z</time>
      </trkpt>
      <trkpt lat="45.19705" lon="5.74128">
        <ele>238</ele>
        <time>2021-07-11T07:03:18.000Z</time>
      </trkpt>
      <trkpt lat="45.197" lon="5.74103">
        <ele>238.39999389648</ele>
        <time>2021-07-11T07:03:24.000Z</time>
      </trkpt>
      <trkpt lat="45.19699" lon="5.74095">
        <ele>238.39999389648</ele>
        <time>2021-07-11T07:03:26.000Z</time>
      </trkpt>
      <trkpt lat="45.19694" lon="5.74067">
        <ele>238</ele>
        <time>2021-07-11T07:03:33.000Z</time>
      </trkpt>
      <trkpt lat="45.19693" lon="5.74063">
        <ele>238</ele>
        <time>2021-07-11T07:03:34.000Z</time>
      </trkpt>
      <trkpt lat="45.19692" lon="5.74056">
        <ele>238</ele>
        <time>2021-07-11T07:03:36.000Z</time>
      </trkpt>
      <trkpt lat="45.1969" lon="5.74047">
        <ele>237.80000305176</ele>
        <time>2021-07-11T07:03:39.000Z</time>
      </trkpt>
      <trkpt lat="45.19687" lon="5.74029">
        <ele>238</ele>
        <time>2021-07-11T07:03:44.000Z</time>
      </trkpt>
      <trkpt lat="45.19682" lon="5.74018">
        <ele>238</ele>
        <time>2021-07-11T07:03:48.000Z</time>
      </trkpt>
      <trkpt lat="45.1968" lon="5.74017">
        <ele>237.60000610352</ele>
        <time>2021-07-11T07:03:49.000Z</time>
      </trkpt>
      <trkpt lat="45.19665" lon="5.74013">
        <ele>237.80000305176</ele>
        <time>2021-07-11T07:03:55.000Z</time>
      </trkpt>
      <trkpt lat="45.19649" lon="5.74011">
        <ele>238</ele>
        <time>2021-07-11T07:04:00.000Z</time>
      </trkpt>
      <trkpt lat="45.19633" lon="5.74012">
        <ele>237.60000610352</ele>
        <time>2021-07-11T07:04:05.000Z</time>
      </trkpt>
      <trkpt lat="45.19621" lon="5.74009">
        <ele>237.39999389648</ele>
        <time>2021-07-11T07:04:09.000Z</time>
      </trkpt>
      <trkpt lat="45.19619" lon="5.74007">
        <ele>237.19999694824</ele>
        <time>2021-07-11T07:04:10.000Z</time>
      </trkpt>
      <trkpt lat="45.19617" lon="5.74005">
        <ele>237.19999694824</ele>
        <time>2021-07-11T07:04:11.000Z</time>
      </trkpt>
      <trkpt lat="45.19617" lon="5.73999">
        <ele>237.39999389648</ele>
        <time>2021-07-11T07:04:13.000Z</time>
      </trkpt>
      <trkpt lat="45.19618" lon="5.73978">
        <ele>237.19999694824</ele>
        <time>2021-07-11T07:04:18.000Z</time>
      </trkpt>
      <trkpt lat="45.19619" lon="5.73975">
        <ele>237.19999694824</ele>
        <time>2021-07-11T07:04:19.000Z</time>
      </trkpt>
      <trkpt lat="45.19626" lon="5.73971">
        <ele>237.39999389648</ele>
        <time>2021-07-11T07:04:25.000Z</time>
      </trkpt>
      <trkpt lat="45.19628" lon="5.73972">
        <ele>237.39999389648</ele>
        <time>2021-07-11T07:04:26.000Z</time>
      </trkpt>
      <trkpt lat="45.19633" lon="5.73971">
        <ele>237.60000610352</ele>
        <time>2021-07-11T07:04:30.000Z</time>
      </trkpt>
      <trkpt lat="45.19634" lon="5.73971">
        <ele>237.60000610352</ele>
        <time>2021-07-11T07:04:31.000Z</time>
      </trkpt>
      <trkpt lat="45.19634" lon="5.7397">
        <ele>237.60000610352</ele>
        <time>2021-07-11T07:04:32.000Z</time>
      </trkpt>
      <trkpt lat="45.19633" lon="5.73968">
        <ele>237.60000610352</ele>
        <time>2021-07-11T07:04:35.000Z</time>
      </trkpt>
      <trkpt lat="45.19644" lon="5.7396">
        <ele>245.80000305176</ele>
        <time>2021-07-11T07:05:26.000Z</time>
      </trkpt>
      <trkpt lat="45.19649" lon="5.73964">
        <ele>245.39999389648</ele>
        <time>2021-07-11T07:05:30.000Z</time>
      </trkpt>
    </trkseg>
  </trk>
</gpx>